<?xml version='1.0' encoding='UTF-8'?><gpx version="1.1" creator="JPX - https://github.com/jenetics/jpx" xmlns="http://www.topografix.com/GPX/1/1"><trk><trkseg><trkpt lat="44.11124467837263" lon="3.942659040704499"><ele>177.0</ele><time>2026-04-08T10:34:16Z</time></trkpt><trkpt lat="44.11128636403838" lon="3.9425875334926572"><ele>177.0</ele><time>2026-04-08T10:34:31Z</time></trkpt><trkpt lat="44.11133967606521" lon="3.9425405212802"><ele>177.0</ele><time>2026-04-08T10:34:35Z</time></trkpt><trkpt lat="44.11140074893161" lon="3.9425077853386736"><ele>177.0</ele><time>2026-04-08T10:34:42Z</time></trkpt><trkpt lat="44.11142946738678" lon="3.94242553726717"><ele>177.0</ele><time>2026-04-08T10:34:50Z</time></trkpt><trkpt lat="44.11148071563267" lon="3.9423496509470533"><ele>177.0</ele><time>2026-04-08T10:34:56Z</time></trkpt><trkpt lat="44.11148882320815" lon="3.9422481938227976"><ele>177.0</ele><time>2026-04-08T10:35:03Z</time></trkpt><trkpt lat="44.11152147515697" lon="3.942165247974316"><ele>177.14285714285714</ele><time>2026-04-08T10:35:10Z</time></trkpt><trkpt lat="44.11154054690814" lon="3.942071170270372"><ele>177.28571428571428</ele><time>2026-04-08T10:35:17Z</time></trkpt><trkpt lat="44.11157741236214" lon="3.941998782102594"><ele>177.42857142857142</ele><time>2026-04-08T10:35:24Z</time></trkpt><trkpt lat="44.11158439267018" lon="3.941901013492944"><ele>177.57142857142856</ele><time>2026-04-08T10:35:31Z</time></trkpt><trkpt lat="44.11153525413759" lon="3.9418386908643295"><ele>177.71428571428572</ele><time>2026-04-08T10:35:41Z</time></trkpt><trkpt lat="44.11149971083044" lon="3.9417566735043854"><ele>177.85714285714283</ele><time>2026-04-08T10:36:05Z</time></trkpt><trkpt lat="44.111533299905496" lon="3.9416561585212584"><ele>178.0</ele><time>2026-04-08T10:39:49Z</time></trkpt><trkpt lat="44.11161011720171" lon="3.941578934427528"><ele>177.0</ele><time>2026-04-08T10:39:52Z</time></trkpt><trkpt lat="44.111613321872056" lon="3.941448756697964"><ele>176.0</ele><time>2026-04-08T10:39:54Z</time></trkpt><trkpt lat="44.11158130214739" lon="3.941320963233442"><ele>175.0</ele><time>2026-04-08T10:39:56Z</time></trkpt><trkpt lat="44.11154765390641" lon="3.941193395499213"><ele>174.0</ele><time>2026-04-08T10:39:58Z</time></trkpt><trkpt lat="44.11149999344992" lon="3.941088012977386"><ele>173.0</ele><time>2026-04-08T10:40:00Z</time></trkpt><trkpt lat="44.11147329940264" lon="3.940981419365881"><ele>173.0</ele><time>2026-04-08T10:40:02Z</time></trkpt><trkpt lat="44.11144451111259" lon="3.9408834205137895"><ele>173.0</ele><time>2026-04-08T10:40:04Z</time></trkpt><trkpt lat="44.111393506046085" lon="3.940817161233917"><ele>173.0</ele><time>2026-04-08T10:40:06Z</time></trkpt><trkpt lat="44.111324162066666" lon="3.9407631253479014"><ele>173.0</ele><time>2026-04-08T10:40:12Z</time></trkpt><trkpt lat="44.11130876995456" lon="3.9406728237338706"><ele>173.0</ele><time>2026-04-08T10:40:14Z</time></trkpt><trkpt lat="44.11132062246127" lon="3.9405449932133982"><ele>173.0</ele><time>2026-04-08T10:40:16Z</time></trkpt><trkpt lat="44.111325811220446" lon="3.940395568101355"><ele>172.66666666666666</ele><time>2026-04-08T10:40:18Z</time></trkpt><trkpt lat="44.11137083521379" lon="3.940331553936083"><ele>172.33333333333331</ele><time>2026-04-08T10:40:19Z</time></trkpt><trkpt lat="44.11140935656316" lon="3.940170116390809"><ele>172.0</ele><time>2026-04-08T10:40:21Z</time></trkpt><trkpt lat="44.111431190736766" lon="3.9400848973668556"><ele>171.66666666666666</ele><time>2026-04-08T10:40:22Z</time></trkpt><trkpt lat="44.111457963864446" lon="3.940000766743828"><ele>171.33333333333334</ele><time>2026-04-08T10:40:23Z</time></trkpt><trkpt lat="44.11149684426585" lon="3.9399215000834036"><ele>171.0</ele><time>2026-04-08T10:40:24Z</time></trkpt><trkpt lat="44.11154768034729" lon="3.939843859864119"><ele>172.5</ele><time>2026-04-08T10:40:25Z</time></trkpt><trkpt lat="44.111604984398916" lon="3.939764999359263"><ele>174.0</ele><time>2026-04-08T10:40:26Z</time></trkpt><trkpt lat="44.111667789475106" lon="3.939686495552848"><ele>175.5</ele><time>2026-04-08T10:40:27Z</time></trkpt><trkpt lat="44.11173278156996" lon="3.939608147970967"><ele>177.0</ele><time>2026-04-08T10:40:28Z</time></trkpt><trkpt lat="44.11179770611039" lon="3.9395231540869973"><ele>178.5</ele><time>2026-04-08T10:40:29Z</time></trkpt><trkpt lat="44.11185896650406" lon="3.9394553797312692"><ele>180.0</ele><time>2026-04-08T10:40:30Z</time></trkpt><trkpt lat="44.11193533422503" lon="3.9394200963668085"><ele>180.0</ele><time>2026-04-08T10:40:31Z</time></trkpt><trkpt lat="44.112016692700266" lon="3.9393878708698282"><ele>180.0</ele><time>2026-04-08T10:40:32Z</time></trkpt><trkpt lat="44.11210011887505" lon="3.939357903376722"><ele>180.0</ele><time>2026-04-08T10:40:33Z</time></trkpt><trkpt lat="44.11218760652302" lon="3.9393278730582706"><ele>180.0</ele><time>2026-04-08T10:40:34Z</time></trkpt><trkpt lat="44.1122814299497" lon="3.939294714550182"><ele>180.0</ele><time>2026-04-08T10:40:35Z</time></trkpt><trkpt lat="44.11236986018332" lon="3.9392463168095664"><ele>183.2</ele><time>2026-04-08T10:40:36Z</time></trkpt><trkpt lat="44.11246537053947" lon="3.939238117299482"><ele>186.4</ele><time>2026-04-08T10:40:37Z</time></trkpt><trkpt lat="44.11256478619186" lon="3.939257788388539"><ele>189.60000000000002</ele><time>2026-04-08T10:40:38Z</time></trkpt><trkpt lat="44.11266531746983" lon="3.9392404986964853"><ele>192.8</ele><time>2026-04-08T10:40:39Z</time></trkpt><trkpt lat="44.11276944566145" lon="3.9392482391514743"><ele>196.0</ele><time>2026-04-08T10:40:40Z</time></trkpt><trkpt lat="44.11287596836597" lon="3.939262062441988"><ele>196.0</ele><time>2026-04-08T10:40:41Z</time></trkpt><trkpt lat="44.11298698497912" lon="3.9392733129296627"><ele>196.0</ele><time>2026-04-08T10:40:42Z</time></trkpt><trkpt lat="44.11310356972755" lon="3.9392915970337063"><ele>196.0</ele><time>2026-04-08T10:40:43Z</time></trkpt><trkpt lat="44.1132222104216" lon="3.939310479596775"><ele>196.0</ele><time>2026-04-08T10:40:44Z</time></trkpt><trkpt lat="44.11334248693089" lon="3.939331265482736"><ele>198.25</ele><time>2026-04-08T10:40:45Z</time></trkpt><trkpt lat="44.11346355821297" lon="3.9393524270183464"><ele>200.5</ele><time>2026-04-08T10:40:46Z</time></trkpt><trkpt lat="44.11358375453851" lon="3.9393738027493472"><ele>202.75</ele><time>2026-04-08T10:40:47Z</time></trkpt><trkpt lat="44.1137028147047" lon="3.939405840620371"><ele>205.0</ele><time>2026-04-08T10:40:48Z</time></trkpt><trkpt lat="44.11382195093871" lon="3.93943942791851"><ele>205.0</ele><time>2026-04-08T10:40:49Z</time></trkpt><trkpt lat="44.11393601701681" lon="3.9394840466074483"><ele>205.0</ele><time>2026-04-08T10:40:50Z</time></trkpt><trkpt lat="44.114041082492946" lon="3.939550295021333"><ele>205.0</ele><time>2026-04-08T10:40:51Z</time></trkpt><trkpt lat="44.11413856214882" lon="3.939637966741667"><ele>205.0</ele><time>2026-04-08T10:40:52Z</time></trkpt><trkpt lat="44.11423281187647" lon="3.9397265334010734"><ele>206.75</ele><time>2026-04-08T10:40:53Z</time></trkpt><trkpt lat="44.114336352712876" lon="3.939803241434097"><ele>208.5</ele><time>2026-04-08T10:40:54Z</time></trkpt><trkpt lat="44.1144472004551" lon="3.9398722591322968"><ele>210.25</ele><time>2026-04-08T10:40:55Z</time></trkpt><trkpt lat="44.114560055448244" lon="3.93993781699501"><ele>212.0</ele><time>2026-04-08T10:40:56Z</time></trkpt><trkpt lat="44.11467850698391" lon="3.9400085178332778"><ele>221.5</ele><time>2026-04-08T10:40:57Z</time></trkpt><trkpt lat="44.11479816374882" lon="3.9400657460554203"><ele>231.0</ele><time>2026-04-08T10:40:58Z</time></trkpt><trkpt lat="44.11492239957223" lon="3.9401219781165104"><ele>240.5</ele><time>2026-04-08T10:40:59Z</time></trkpt><trkpt lat="44.11504066469592" lon="3.9401576477240363"><ele>250.0</ele><time>2026-04-08T10:41:00Z</time></trkpt><trkpt lat="44.115158539283016" lon="3.94018269810776"><ele>251.6</ele><time>2026-04-08T10:41:01Z</time></trkpt><trkpt lat="44.11527156880142" lon="3.9401919746886844"><ele>253.2</ele><time>2026-04-08T10:41:02Z</time></trkpt><trkpt lat="44.115380471079405" lon="3.9401856546666596"><ele>254.8</ele><time>2026-04-08T10:41:03Z</time></trkpt><trkpt lat="44.11548367677716" lon="3.9401715958303356"><ele>256.4</ele><time>2026-04-08T10:41:04Z</time></trkpt><trkpt lat="44.11558232631396" lon="3.940150316164199"><ele>258.0</ele><time>2026-04-08T10:41:05Z</time></trkpt><trkpt lat="44.115679496573776" lon="3.9401499668652504"><ele>254.8</ele><time>2026-04-08T10:41:06Z</time></trkpt><trkpt lat="44.11576516879714" lon="3.9400910889111054"><ele>251.60000000000002</ele><time>2026-04-08T10:41:07Z</time></trkpt><trkpt lat="44.11585084817905" lon="3.9400512461417163"><ele>248.39999999999998</ele><time>2026-04-08T10:41:08Z</time></trkpt><trkpt lat="44.115934604703284" lon="3.9400105376582095"><ele>245.2</ele><time>2026-04-08T10:41:09Z</time></trkpt><trkpt lat="44.116021953412" lon="3.9399824823816902"><ele>242.0</ele><time>2026-04-08T10:41:10Z</time></trkpt><trkpt lat="44.11610753486878" lon="3.9399496640459293"><ele>231.0</ele><time>2026-04-08T10:41:11Z</time></trkpt><trkpt lat="44.11619398761898" lon="3.939911156278175"><ele>220.0</ele><time>2026-04-08T10:41:12Z</time></trkpt><trkpt lat="44.11627893777132" lon="3.939849781969354"><ele>209.0</ele><time>2026-04-08T10:41:13Z</time></trkpt><trkpt lat="44.11636204931118" lon="3.939776531083182"><ele>198.0</ele><time>2026-04-08T10:41:14Z</time></trkpt><trkpt lat="44.11644818943658" lon="3.9397022631195964"><ele>187.0</ele><time>2026-04-08T10:41:15Z</time></trkpt><trkpt lat="44.1165304669443" lon="3.939619300980399"><ele>184.0</ele><time>2026-04-08T10:41:16Z</time></trkpt><trkpt lat="44.11661206816537" lon="3.939533942969895"><ele>181.0</ele><time>2026-04-08T10:41:17Z</time></trkpt><trkpt lat="44.116692231271365" lon="3.9394434452961242"><ele>178.0</ele><time>2026-04-08T10:41:18Z</time></trkpt><trkpt lat="44.11676849229517" lon="3.9393506842617714"><ele>175.0</ele><time>2026-04-08T10:41:19Z</time></trkpt><trkpt lat="44.116844461806146" lon="3.939257858635598"><ele>172.0</ele><time>2026-04-08T10:41:20Z</time></trkpt><trkpt lat="44.11692461475879" lon="3.939174596150107"><ele>172.0</ele><time>2026-04-08T10:41:21Z</time></trkpt><trkpt lat="44.117012502760595" lon="3.939108951749811"><ele>172.0</ele><time>2026-04-08T10:41:22Z</time></trkpt><trkpt lat="44.11710391953638" lon="3.939050175552751"><ele>172.0</ele><time>2026-04-08T10:41:23Z</time></trkpt><trkpt lat="44.117190297827335" lon="3.9389992817608395"><ele>172.0</ele><time>2026-04-08T10:41:24Z</time></trkpt><trkpt lat="44.11727807302024" lon="3.9389526882319172"><ele>172.0</ele><time>2026-04-08T10:41:25Z</time></trkpt><trkpt lat="44.117361601105394" lon="3.938887358913219"><ele>173.2</ele><time>2026-04-08T10:41:26Z</time></trkpt><trkpt lat="44.11742748063934" lon="3.9387894527627743"><ele>174.39999999999998</ele><time>2026-04-08T10:41:27Z</time></trkpt><trkpt lat="44.117476594032865" lon="3.9386775377974046"><ele>175.60000000000002</ele><time>2026-04-08T10:41:28Z</time></trkpt><trkpt lat="44.117498241189125" lon="3.938549690650169"><ele>176.8</ele><time>2026-04-08T10:41:29Z</time></trkpt><trkpt lat="44.11748602926278" lon="3.938423662023083"><ele>178.0</ele><time>2026-04-08T10:41:30Z</time></trkpt><trkpt lat="44.11744970319166" lon="3.9383149036663276"><ele>178.0</ele><time>2026-04-08T10:41:31Z</time></trkpt><trkpt lat="44.11740952172709" lon="3.938208368662063"><ele>178.0</ele><time>2026-04-08T10:41:32Z</time></trkpt><trkpt lat="44.11738596889613" lon="3.938089505763295"><ele>178.0</ele><time>2026-04-08T10:41:33Z</time></trkpt><trkpt lat="44.117375545989944" lon="3.937966997551726"><ele>178.0</ele><time>2026-04-08T10:41:34Z</time></trkpt><trkpt lat="44.11737952593266" lon="3.9378377493972163"><ele>178.0</ele><time>2026-04-08T10:41:35Z</time></trkpt><trkpt lat="44.117392216059685" lon="3.93770610618471"><ele>178.0</ele><time>2026-04-08T10:41:36Z</time></trkpt><trkpt lat="44.117411490491364" lon="3.9375603166587365"><ele>178.0</ele><time>2026-04-08T10:41:37Z</time></trkpt><trkpt lat="44.11743815060022" lon="3.9374093388981737"><ele>178.0</ele><time>2026-04-08T10:41:38Z</time></trkpt><trkpt lat="44.11745708623487" lon="3.9372579036401243"><ele>178.0</ele><time>2026-04-08T10:41:39Z</time></trkpt><trkpt lat="44.11747772264644" lon="3.9371030681279677"><ele>178.0</ele><time>2026-04-08T10:41:40Z</time></trkpt><trkpt lat="44.117497518793584" lon="3.9369426390308027"><ele>178.25</ele><time>2026-04-08T10:41:41Z</time></trkpt><trkpt lat="44.11751239760299" lon="3.936779306643354"><ele>178.5</ele><time>2026-04-08T10:41:42Z</time></trkpt><trkpt lat="44.11752541706941" lon="3.9366145304663376"><ele>178.75</ele><time>2026-04-08T10:41:43Z</time></trkpt><trkpt lat="44.11755571993765" lon="3.936451304855663"><ele>179.0</ele><time>2026-04-08T10:41:44Z</time></trkpt><trkpt lat="44.117569656923685" lon="3.9362828956308054"><ele>179.0</ele><time>2026-04-08T10:41:45Z</time></trkpt><trkpt lat="44.11756693091183" lon="3.9361134647204925"><ele>179.0</ele><time>2026-04-08T10:41:46Z</time></trkpt><trkpt lat="44.117582039875295" lon="3.935939580210484"><ele>179.0</ele><time>2026-04-08T10:41:47Z</time></trkpt><trkpt lat="44.11759528406933" lon="3.9357622877785463"><ele>179.0</ele><time>2026-04-08T10:41:48Z</time></trkpt><trkpt lat="44.117607794133754" lon="3.935581986747428"><ele>179.0</ele><time>2026-04-08T10:41:49Z</time></trkpt><trkpt lat="44.117617699854414" lon="3.9353981588995737"><ele>179.0</ele><time>2026-04-08T10:41:50Z</time></trkpt><trkpt lat="44.11762750258862" lon="3.9352141904169313"><ele>179.0</ele><time>2026-04-08T10:41:51Z</time></trkpt><trkpt lat="44.117640747327435" lon="3.935026231031423"><ele>179.0</ele><time>2026-04-08T10:41:52Z</time></trkpt><trkpt lat="44.11765721523279" lon="3.9348360078037024"><ele>178.75</ele><time>2026-04-08T10:41:53Z</time></trkpt><trkpt lat="44.11767605640396" lon="3.9346472407659197"><ele>178.5</ele><time>2026-04-08T10:41:54Z</time></trkpt><trkpt lat="44.11769927615896" lon="3.934460156316325"><ele>178.25</ele><time>2026-04-08T10:41:55Z</time></trkpt><trkpt lat="44.1177188673477" lon="3.9342783290792585"><ele>178.0</ele><time>2026-04-08T10:41:56Z</time></trkpt><trkpt lat="44.11773721674299" lon="3.934091294127459"><ele>177.25</ele><time>2026-04-08T10:41:57Z</time></trkpt><trkpt lat="44.11775243439114" lon="3.933908905759026"><ele>176.5</ele><time>2026-04-08T10:41:58Z</time></trkpt><trkpt lat="44.11776856313355" lon="3.933729423390106"><ele>175.75</ele><time>2026-04-08T10:41:59Z</time></trkpt><trkpt lat="44.1177888211807" lon="3.933552122791746"><ele>175.0</ele><time>2026-04-08T10:42:00Z</time></trkpt><trkpt lat="44.11781701633138" lon="3.9333774558948162"><ele>174.25</ele><time>2026-04-08T10:42:01Z</time></trkpt><trkpt lat="44.117843425321624" lon="3.9332038739319097"><ele>173.5</ele><time>2026-04-08T10:42:02Z</time></trkpt><trkpt lat="44.11786890796431" lon="3.9330283190688413"><ele>172.75</ele><time>2026-04-08T10:42:03Z</time></trkpt><trkpt lat="44.117888954659044" lon="3.93285250628435"><ele>172.0</ele><time>2026-04-08T10:42:04Z</time></trkpt><trkpt lat="44.11790467807596" lon="3.9326789140009124"><ele>171.75</ele><time>2026-04-08T10:42:05Z</time></trkpt><trkpt lat="44.1179135850431" lon="3.932498160723856"><ele>171.5</ele><time>2026-04-08T10:42:06Z</time></trkpt><trkpt lat="44.117924687282866" lon="3.932313981538183"><ele>171.25</ele><time>2026-04-08T10:42:07Z</time></trkpt><trkpt lat="44.1179386274312" lon="3.932126989676075"><ele>171.0</ele><time>2026-04-08T10:42:08Z</time></trkpt><trkpt lat="44.11795705184401" lon="3.93193713656225"><ele>171.0</ele><time>2026-04-08T10:42:09Z</time></trkpt><trkpt lat="44.1179720708898" lon="3.931748427226853"><ele>171.0</ele><time>2026-04-08T10:42:10Z</time></trkpt><trkpt lat="44.11798628032904" lon="3.9315571163563225"><ele>171.0</ele><time>2026-04-08T10:42:11Z</time></trkpt><trkpt lat="44.11799527563909" lon="3.931362942585765"><ele>171.0</ele><time>2026-04-08T10:42:12Z</time></trkpt><trkpt lat="44.117994677179105" lon="3.9311666538629844"><ele>170.75</ele><time>2026-04-08T10:42:13Z</time></trkpt><trkpt lat="44.11799005351092" lon="3.9309734666532403"><ele>170.5</ele><time>2026-04-08T10:42:14Z</time></trkpt><trkpt lat="44.11798508918021" lon="3.930776561328882"><ele>170.25</ele><time>2026-04-08T10:42:15Z</time></trkpt><trkpt lat="44.11797518769438" lon="3.9305823481769493"><ele>170.0</ele><time>2026-04-08T10:42:16Z</time></trkpt><trkpt lat="44.11796374279337" lon="3.9303884076328908"><ele>170.0</ele><time>2026-04-08T10:42:17Z</time></trkpt><trkpt lat="44.11794872125945" lon="3.930192864611916"><ele>170.0</ele><time>2026-04-08T10:42:18Z</time></trkpt><trkpt lat="44.117936558927816" lon="3.9300001782885565"><ele>170.0</ele><time>2026-04-08T10:42:19Z</time></trkpt><trkpt lat="44.11792641855486" lon="3.9298065585191875"><ele>170.0</ele><time>2026-04-08T10:42:20Z</time></trkpt><trkpt lat="44.11791120110468" lon="3.929613590598901"><ele>170.5</ele><time>2026-04-08T10:42:21Z</time></trkpt><trkpt lat="44.11789826527227" lon="3.9294230398389267"><ele>171.0</ele><time>2026-04-08T10:42:22Z</time></trkpt><trkpt lat="44.117891586774405" lon="3.929238917668844"><ele>171.5</ele><time>2026-04-08T10:42:23Z</time></trkpt><trkpt lat="44.1178939421033" lon="3.9290567070621445"><ele>172.0</ele><time>2026-04-08T10:42:24Z</time></trkpt><trkpt lat="44.11791280541501" lon="3.928874583645453"><ele>172.75</ele><time>2026-04-08T10:42:25Z</time></trkpt><trkpt lat="44.117942698372744" lon="3.928692194546481"><ele>173.5</ele><time>2026-04-08T10:42:26Z</time></trkpt><trkpt lat="44.11797277147805" lon="3.9285099828528596"><ele>174.25</ele><time>2026-04-08T10:42:27Z</time></trkpt><trkpt lat="44.118006920578964" lon="3.9283259433841535"><ele>175.0</ele><time>2026-04-08T10:42:28Z</time></trkpt><trkpt lat="44.11804371848935" lon="3.928138033318043"><ele>175.25</ele><time>2026-04-08T10:42:29Z</time></trkpt><trkpt lat="44.11808846733314" lon="3.927950103394638"><ele>175.5</ele><time>2026-04-08T10:42:30Z</time></trkpt><trkpt lat="44.11812658819591" lon="3.9277593695175423"><ele>175.75</ele><time>2026-04-08T10:42:31Z</time></trkpt><trkpt lat="44.11816584046338" lon="3.9275645235712573"><ele>176.0</ele><time>2026-04-08T10:42:32Z</time></trkpt><trkpt lat="44.118195800895144" lon="3.927366077350737"><ele>176.25</ele><time>2026-04-08T10:42:33Z</time></trkpt><trkpt lat="44.11820402911357" lon="3.9271610243727877"><ele>176.5</ele><time>2026-04-08T10:42:34Z</time></trkpt><trkpt lat="44.118206487475206" lon="3.9269592979082666"><ele>176.75</ele><time>2026-04-08T10:42:35Z</time></trkpt><trkpt lat="44.11822594112954" lon="3.9267609727437978"><ele>177.0</ele><time>2026-04-08T10:42:36Z</time></trkpt><trkpt lat="44.118256565321126" lon="3.926568513232844"><ele>178.5</ele><time>2026-04-08T10:42:37Z</time></trkpt><trkpt lat="44.11828809947598" lon="3.926383404603906"><ele>180.0</ele><time>2026-04-08T10:42:38Z</time></trkpt><trkpt lat="44.11830427189227" lon="3.9261956227507224"><ele>181.5</ele><time>2026-04-08T10:42:39Z</time></trkpt><trkpt lat="44.118307149414385" lon="3.9260117632759646"><ele>183.0</ele><time>2026-04-08T10:42:40Z</time></trkpt><trkpt lat="44.11831306539497" lon="3.9258329868192927"><ele>183.0</ele><time>2026-04-08T10:42:41Z</time></trkpt><trkpt lat="44.118336562194706" lon="3.925683674230112"><ele>183.0</ele><time>2026-04-08T10:42:42Z</time></trkpt><trkpt lat="44.11838372833326" lon="3.925543404377292"><ele>183.0</ele><time>2026-04-08T10:42:43Z</time></trkpt><trkpt lat="44.11846319834341" lon="3.9254366019356515"><ele>183.0</ele><time>2026-04-08T10:42:44Z</time></trkpt><trkpt lat="44.118549151083066" lon="3.9253412818510367"><ele>183.0</ele><time>2026-04-08T10:42:45Z</time></trkpt><trkpt lat="44.11864116186346" lon="3.925254577383117"><ele>183.0</ele><time>2026-04-08T10:42:46Z</time></trkpt><trkpt lat="44.11874445639985" lon="3.925176140534563"><ele>183.0</ele><time>2026-04-08T10:42:47Z</time></trkpt><trkpt lat="44.11885504344607" lon="3.9251010241019357"><ele>183.0</ele><time>2026-04-08T10:42:48Z</time></trkpt><trkpt lat="44.11897136935588" lon="3.925028056253462"><ele>183.0</ele><time>2026-04-08T10:42:49Z</time></trkpt><trkpt lat="44.11909421300908" lon="3.9249587831105104"><ele>183.5</ele><time>2026-04-08T10:42:50Z</time></trkpt><trkpt lat="44.11922073906508" lon="3.9248925620978383"><ele>184.0</ele><time>2026-04-08T10:42:51Z</time></trkpt><trkpt lat="44.119348918977444" lon="3.9248246472594923"><ele>184.5</ele><time>2026-04-08T10:42:52Z</time></trkpt><trkpt lat="44.1194770035178" lon="3.924762803174592"><ele>185.0</ele><time>2026-04-08T10:42:53Z</time></trkpt><trkpt lat="44.11960786744258" lon="3.9247096156635655"><ele>185.0</ele><time>2026-04-08T10:42:54Z</time></trkpt><trkpt lat="44.11973744620965" lon="3.9246513464729778"><ele>185.0</ele><time>2026-04-08T10:42:55Z</time></trkpt><trkpt lat="44.119861251039644" lon="3.924574346552531"><ele>185.0</ele><time>2026-04-08T10:42:56Z</time></trkpt><trkpt lat="44.11996815227456" lon="3.9244525009387625"><ele>185.0</ele><time>2026-04-08T10:42:57Z</time></trkpt><trkpt lat="44.12008030190211" lon="3.9243426888328625"><ele>182.25</ele><time>2026-04-08T10:42:58Z</time></trkpt><trkpt lat="44.12019500185659" lon="3.9242353853937724"><ele>179.5</ele><time>2026-04-08T10:42:59Z</time></trkpt><trkpt lat="44.12031810008408" lon="3.924140600155169"><ele>176.75</ele><time>2026-04-08T10:43:00Z</time></trkpt><trkpt lat="44.12041354618003" lon="3.9240016673622327"><ele>174.0</ele><time>2026-04-08T10:43:01Z</time></trkpt><trkpt lat="44.120517917835585" lon="3.923870511016961"><ele>174.0</ele><time>2026-04-08T10:43:02Z</time></trkpt><trkpt lat="44.12062332288229" lon="3.9237375387789437"><ele>174.0</ele><time>2026-04-08T10:43:03Z</time></trkpt><trkpt lat="44.12074182223619" lon="3.9236046425980784"><ele>174.0</ele><time>2026-04-08T10:43:04Z</time></trkpt><trkpt lat="44.12086674534746" lon="3.9234729638360077"><ele>174.66666666666666</ele><time>2026-04-08T10:43:05Z</time></trkpt><trkpt lat="44.12099682331232" lon="3.923338843502623"><ele>175.33333333333331</ele><time>2026-04-08T10:43:06Z</time></trkpt><trkpt lat="44.12112938545331" lon="3.92320629366584"><ele>176.0</ele><time>2026-04-08T10:43:07Z</time></trkpt><trkpt lat="44.12126540128268" lon="3.9230784527242286"><ele>176.0</ele><time>2026-04-08T10:43:08Z</time></trkpt><trkpt lat="44.12140231499698" lon="3.9229492878024095"><ele>176.0</ele><time>2026-04-08T10:43:09Z</time></trkpt><trkpt lat="44.12153719622861" lon="3.9228194282878626"><ele>176.0</ele><time>2026-04-08T10:43:10Z</time></trkpt><trkpt lat="44.12166990093311" lon="3.922686622263322"><ele>177.0</ele><time>2026-04-08T10:43:11Z</time></trkpt><trkpt lat="44.12179996716975" lon="3.9225526355559324"><ele>178.0</ele><time>2026-04-08T10:43:12Z</time></trkpt><trkpt lat="44.12192954560696" lon="3.9224187529739365"><ele>179.0</ele><time>2026-04-08T10:43:13Z</time></trkpt><trkpt lat="44.122059383391615" lon="3.922285369655335"><ele>179.0</ele><time>2026-04-08T10:43:14Z</time></trkpt><trkpt lat="44.12219016336024" lon="3.922152226429007"><ele>179.0</ele><time>2026-04-08T10:43:15Z</time></trkpt><trkpt lat="44.12232161784188" lon="3.922016202303025"><ele>179.0</ele><time>2026-04-08T10:43:16Z</time></trkpt><trkpt lat="44.122453679060605" lon="3.921882559076422"><ele>180.0</ele><time>2026-04-08T10:43:17Z</time></trkpt><trkpt lat="44.122586104165784" lon="3.9217501583633325"><ele>181.0</ele><time>2026-04-08T10:43:18Z</time></trkpt><trkpt lat="44.122718517338456" lon="3.921618211764145"><ele>182.0</ele><time>2026-04-08T10:43:19Z</time></trkpt><trkpt lat="44.12285119124179" lon="3.9214864330811077"><ele>182.0</ele><time>2026-04-08T10:43:20Z</time></trkpt><trkpt lat="44.12298312272861" lon="3.9213563198794743"><ele>182.0</ele><time>2026-04-08T10:43:21Z</time></trkpt><trkpt lat="44.123111304101556" lon="3.921225536196772"><ele>182.0</ele><time>2026-04-08T10:43:22Z</time></trkpt><trkpt lat="44.123249259882115" lon="3.921129799170381"><ele>182.5</ele><time>2026-04-08T10:43:23Z</time></trkpt><trkpt lat="44.123376878991856" lon="3.9210193498812362"><ele>183.0</ele><time>2026-04-08T10:43:24Z</time></trkpt><trkpt lat="44.123502055023586" lon="3.9209077697957966"><ele>183.5</ele><time>2026-04-08T10:43:25Z</time></trkpt><trkpt lat="44.123624257589086" lon="3.920787392236537"><ele>184.0</ele><time>2026-04-08T10:43:26Z</time></trkpt><trkpt lat="44.123735716490245" lon="3.9206629901951913"><ele>184.0</ele><time>2026-04-08T10:43:27Z</time></trkpt><trkpt lat="44.12384462255264" lon="3.920539445335356"><ele>184.0</ele><time>2026-04-08T10:43:28Z</time></trkpt><trkpt lat="44.12394476219414" lon="3.9204176511126554"><ele>184.0</ele><time>2026-04-08T10:43:29Z</time></trkpt><trkpt lat="44.1240402245269" lon="3.9202892585674185"><ele>184.0</ele><time>2026-04-08T10:43:30Z</time></trkpt><trkpt lat="44.1241257638844" lon="3.9201568111596994"><ele>184.25</ele><time>2026-04-08T10:43:31Z</time></trkpt><trkpt lat="44.12420638915751" lon="3.920025744888404"><ele>184.5</ele><time>2026-04-08T10:43:32Z</time></trkpt><trkpt lat="44.124281006555066" lon="3.9198970524320553"><ele>184.75</ele><time>2026-04-08T10:43:33Z</time></trkpt><trkpt lat="44.12435354036554" lon="3.9197727952204584"><ele>185.0</ele><time>2026-04-08T10:43:34Z</time></trkpt><trkpt lat="44.12442268144786" lon="3.9196506117442085"><ele>185.0</ele><time>2026-04-08T10:43:35Z</time></trkpt><trkpt lat="44.124491004767854" lon="3.9195298445784426"><ele>185.0</ele><time>2026-04-08T10:43:36Z</time></trkpt><trkpt lat="44.124558047793116" lon="3.919413026792937"><ele>185.0</ele><time>2026-04-08T10:43:37Z</time></trkpt><trkpt lat="44.12462600592246" lon="3.9192971626222914"><ele>185.0</ele><time>2026-04-08T10:43:38Z</time></trkpt><trkpt lat="44.124692176450054" lon="3.91918254898812"><ele>185.0</ele><time>2026-04-08T10:43:39Z</time></trkpt><trkpt lat="44.12476230006813" lon="3.9190615593506517"><ele>185.0</ele><time>2026-04-08T10:43:40Z</time></trkpt><trkpt lat="44.12483250156425" lon="3.9189375771918984"><ele>185.0</ele><time>2026-04-08T10:43:41Z</time></trkpt><trkpt lat="44.12489830264314" lon="3.9187983626063785"><ele>185.0</ele><time>2026-04-08T10:43:42Z</time></trkpt><trkpt lat="44.124957330778464" lon="3.9186571024442407"><ele>185.0</ele><time>2026-04-08T10:43:43Z</time></trkpt><trkpt lat="44.12501845172899" lon="3.9185131344854294"><ele>186.0</ele><time>2026-04-08T10:43:44Z</time></trkpt><trkpt lat="44.125080718894544" lon="3.918374494378005"><ele>187.0</ele><time>2026-04-08T10:43:45Z</time></trkpt><trkpt lat="44.125146051435" lon="3.918236357859264"><ele>188.0</ele><time>2026-04-08T10:43:46Z</time></trkpt><trkpt lat="44.125213975248045" lon="3.9181074569518386"><ele>189.0</ele><time>2026-04-08T10:43:47Z</time></trkpt><trkpt lat="44.125291560616645" lon="3.917979832047589"><ele>189.0</ele><time>2026-04-08T10:43:48Z</time></trkpt><trkpt lat="44.12536472215768" lon="3.917833419298602"><ele>189.0</ele><time>2026-04-08T10:43:49Z</time></trkpt><trkpt lat="44.12545604906781" lon="3.9177024928667286"><ele>189.0</ele><time>2026-04-08T10:43:50Z</time></trkpt><trkpt lat="44.1255510642473" lon="3.9175661680974505"><ele>189.0</ele><time>2026-04-08T10:43:51Z</time></trkpt><trkpt lat="44.12564233781839" lon="3.9174384249364134"><ele>190.25</ele><time>2026-04-08T10:43:52Z</time></trkpt><trkpt lat="44.125729871685216" lon="3.9173167726114566"><ele>191.5</ele><time>2026-04-08T10:43:53Z</time></trkpt><trkpt lat="44.12581628633848" lon="3.917200230208554"><ele>192.75</ele><time>2026-04-08T10:43:54Z</time></trkpt><trkpt lat="44.12589616264863" lon="3.917083612849703"><ele>194.0</ele><time>2026-04-08T10:43:55Z</time></trkpt><trkpt lat="44.12597403416272" lon="3.916973906565487"><ele>194.0</ele><time>2026-04-08T10:43:56Z</time></trkpt><trkpt lat="44.12599424398005" lon="3.916818997009733"><ele>194.0</ele><time>2026-04-08T10:43:57Z</time></trkpt><trkpt lat="44.125998959232476" lon="3.9166744216596214"><ele>194.0</ele><time>2026-04-08T10:43:58Z</time></trkpt><trkpt lat="44.12596664773402" lon="3.916529699978848"><ele>194.0</ele><time>2026-04-08T10:43:59Z</time></trkpt><trkpt lat="44.12589748402226" lon="3.9164082218548817"><ele>194.0</ele><time>2026-04-08T10:44:00Z</time></trkpt><trkpt lat="44.12580023725002" lon="3.916323082845528"><ele>192.0</ele><time>2026-04-08T10:44:01Z</time></trkpt><trkpt lat="44.12568646541808" lon="3.9162828899096804"><ele>190.0</ele><time>2026-04-08T10:44:02Z</time></trkpt><trkpt lat="44.12557152170474" lon="3.9162626371885696"><ele>188.0</ele><time>2026-04-08T10:44:03Z</time></trkpt><trkpt lat="44.125462920762075" lon="3.916225024706751"><ele>186.0</ele><time>2026-04-08T10:44:04Z</time></trkpt><trkpt lat="44.125358560648216" lon="3.916157504915945"><ele>186.0</ele><time>2026-04-08T10:44:05Z</time></trkpt><trkpt lat="44.12527106206306" lon="3.916069044481293"><ele>186.0</ele><time>2026-04-08T10:44:06Z</time></trkpt><trkpt lat="44.12519156127515" lon="3.9159513862054367"><ele>186.0</ele><time>2026-04-08T10:44:07Z</time></trkpt><trkpt lat="44.125130009282294" lon="3.9158071897413413"><ele>186.0</ele><time>2026-04-08T10:44:08Z</time></trkpt><trkpt lat="44.12511432249844" lon="3.9155814668602265"><ele>188.0</ele><time>2026-04-08T10:44:09Z</time></trkpt><trkpt lat="44.12506820036013" lon="3.915416274071055"><ele>190.0</ele><time>2026-04-08T10:44:10Z</time></trkpt><trkpt lat="44.12502540666129" lon="3.9152461554951907"><ele>192.0</ele><time>2026-04-08T10:44:11Z</time></trkpt><trkpt lat="44.12498705059508" lon="3.915077334880092"><ele>194.0</ele><time>2026-04-08T10:44:12Z</time></trkpt><trkpt lat="44.124954936902746" lon="3.914915214612312"><ele>195.75</ele><time>2026-04-08T10:44:13Z</time></trkpt><trkpt lat="44.124943585574975" lon="3.9147547998611296"><ele>197.5</ele><time>2026-04-08T10:44:14Z</time></trkpt><trkpt lat="44.1249497732476" lon="3.9146067992487654"><ele>199.25</ele><time>2026-04-08T10:44:15Z</time></trkpt><trkpt lat="44.12498514384855" lon="3.9144577909246427"><ele>201.0</ele><time>2026-04-08T10:44:16Z</time></trkpt><trkpt lat="44.12502170587319" lon="3.9142803736108602"><ele>201.25</ele><time>2026-04-08T10:44:17Z</time></trkpt><trkpt lat="44.12505958557407" lon="3.914096562108579"><ele>201.5</ele><time>2026-04-08T10:44:18Z</time></trkpt><trkpt lat="44.125097154663" lon="3.9139078535221596"><ele>201.75</ele><time>2026-04-08T10:44:19Z</time></trkpt><trkpt lat="44.12513325050397" lon="3.913724649409079"><ele>202.0</ele><time>2026-04-08T10:44:20Z</time></trkpt><trkpt lat="44.125167343234516" lon="3.9135516120834977"><ele>201.0</ele><time>2026-04-08T10:44:21Z</time></trkpt><trkpt lat="44.125200926421805" lon="3.9133927265598327"><ele>200.0</ele><time>2026-04-08T10:44:22Z</time></trkpt><trkpt lat="44.12524476313926" lon="3.9132556201933033"><ele>199.0</ele><time>2026-04-08T10:44:23Z</time></trkpt><trkpt lat="44.125295569147376" lon="3.913152691107787"><ele>198.0</ele><time>2026-04-08T10:44:24Z</time></trkpt><trkpt lat="44.12538511578557" lon="3.9131136684921057"><ele>197.0</ele><time>2026-04-08T10:44:25Z</time></trkpt><trkpt lat="44.125477750711376" lon="3.913119894096973"><ele>197.0</ele><time>2026-04-08T10:44:26Z</time></trkpt><trkpt lat="44.12557357635886" lon="3.913158316862768"><ele>197.0</ele><time>2026-04-08T10:44:27Z</time></trkpt><trkpt lat="44.125670074466896" lon="3.913215119106716"><ele>197.0</ele><time>2026-04-08T10:44:28Z</time></trkpt><trkpt lat="44.1257704116888" lon="3.9132913908635487"><ele>197.0</ele><time>2026-04-08T10:44:29Z</time></trkpt><trkpt lat="44.12587937006234" lon="3.9133621606151414"><ele>197.0</ele><time>2026-04-08T10:44:30Z</time></trkpt><trkpt lat="44.12598690264016" lon="3.913439987331863"><ele>202.33333333333334</ele><time>2026-04-08T10:44:31Z</time></trkpt><trkpt lat="44.12607952336182" lon="3.913504825438924"><ele>207.66666666666669</ele><time>2026-04-08T10:44:32Z</time></trkpt><trkpt lat="44.12616438584319" lon="3.9135630850623726"><ele>213.0</ele><time>2026-04-08T10:44:33Z</time></trkpt><trkpt lat="44.12622743834482" lon="3.913619981458122"><ele>218.33333333333331</ele><time>2026-04-08T10:44:34Z</time></trkpt><trkpt lat="44.12630127512726" lon="3.9136523568901094"><ele>223.66666666666666</ele><time>2026-04-08T10:44:36Z</time></trkpt><trkpt lat="44.12631918083448" lon="3.9137394359486164"><ele>229.0</ele><time>2026-04-08T10:44:37Z</time></trkpt><trkpt lat="44.126383736643696" lon="3.9136388864608143"><ele>229.0</ele><time>2026-04-08T10:44:38Z</time></trkpt><trkpt lat="44.12649935417012" lon="3.913657994193455"><ele>228.99999999999997</ele><time>2026-04-08T10:44:40Z</time></trkpt><trkpt lat="44.126571350982545" lon="3.9136581088551234"><ele>228.99999999999997</ele><time>2026-04-08T10:44:41Z</time></trkpt><trkpt lat="44.12666052376021" lon="3.9136365469419596"><ele>229.0</ele><time>2026-04-08T10:44:42Z</time></trkpt><trkpt lat="44.12676130220365" lon="3.913608924008185"><ele>229.0</ele><time>2026-04-08T10:44:43Z</time></trkpt><trkpt lat="44.12686428162716" lon="3.913585309683242"><ele>228.16666666666666</ele><time>2026-04-08T10:44:44Z</time></trkpt><trkpt lat="44.12695956590571" lon="3.913570123146564"><ele>227.33333333333331</ele><time>2026-04-08T10:44:45Z</time></trkpt><trkpt lat="44.12704935840897" lon="3.913554727218703"><ele>226.5</ele><time>2026-04-08T10:44:46Z</time></trkpt><trkpt lat="44.127133385409984" lon="3.9135136520905944"><ele>225.66666666666669</ele><time>2026-04-08T10:44:47Z</time></trkpt><trkpt lat="44.12720349754416" lon="3.913442227185018"><ele>224.83333333333334</ele><time>2026-04-08T10:44:48Z</time></trkpt><trkpt lat="44.12725178749977" lon="3.91334500321873"><ele>224.0</ele><time>2026-04-08T10:44:49Z</time></trkpt><trkpt lat="44.127271789425876" lon="3.913234152952121"><ele>222.00000000000003</ele><time>2026-04-08T10:44:50Z</time></trkpt><trkpt lat="44.12726532353347" lon="3.9131238388846348"><ele>220.0</ele><time>2026-04-08T10:44:51Z</time></trkpt><trkpt lat="44.12723602972486" lon="3.91302338190253"><ele>218.0</ele><time>2026-04-08T10:44:52Z</time></trkpt><trkpt lat="44.127197243530624" lon="3.912934055559927"><ele>216.0</ele><time>2026-04-08T10:44:53Z</time></trkpt><trkpt lat="44.127156793164914" lon="3.912848470451278"><ele>214.00000000000003</ele><time>2026-04-08T10:44:54Z</time></trkpt><trkpt lat="44.12711600517742" lon="3.912757226070248"><ele>212.0</ele><time>2026-04-08T10:44:55Z</time></trkpt><trkpt lat="44.127055839271655" lon="3.912681338528891"><ele>212.0</ele><time>2026-04-08T10:44:56Z</time></trkpt><trkpt lat="44.126971574920496" lon="3.9126306639888715"><ele>212.0</ele><time>2026-04-08T10:44:57Z</time></trkpt><trkpt lat="44.12686740154125" lon="3.912597825669482"><ele>212.0</ele><time>2026-04-08T10:44:58Z</time></trkpt><trkpt lat="44.12675576633016" lon="3.9125456384396022"><ele>212.0</ele><time>2026-04-08T10:44:59Z</time></trkpt><trkpt lat="44.12663660902263" lon="3.9124798418333806"><ele>212.0</ele><time>2026-04-08T10:45:00Z</time></trkpt><trkpt lat="44.12651081632595" lon="3.9123992361981084"><ele>210.5</ele><time>2026-04-08T10:45:01Z</time></trkpt><trkpt lat="44.12638749261377" lon="3.9122991753124263"><ele>209.0</ele><time>2026-04-08T10:45:02Z</time></trkpt><trkpt lat="44.1262623423847" lon="3.9121942335054163"><ele>207.5</ele><time>2026-04-08T10:45:03Z</time></trkpt><trkpt lat="44.126140960058564" lon="3.91207814231856"><ele>206.0</ele><time>2026-04-08T10:45:04Z</time></trkpt><trkpt lat="44.12603337812542" lon="3.9119446015632846"><ele>206.0</ele><time>2026-04-08T10:45:05Z</time></trkpt><trkpt lat="44.12596804110993" lon="3.9117825639322215"><ele>206.0</ele><time>2026-04-08T10:45:06Z</time></trkpt><trkpt lat="44.125922832213625" lon="3.9116136872868768"><ele>206.0</ele><time>2026-04-08T10:45:07Z</time></trkpt><trkpt lat="44.125904811787265" lon="3.911435961025265"><ele>206.0</ele><time>2026-04-08T10:45:08Z</time></trkpt><trkpt lat="44.125905302455486" lon="3.911252535867721"><ele>208.75</ele><time>2026-04-08T10:45:09Z</time></trkpt><trkpt lat="44.12590664890324" lon="3.9110646298207796"><ele>211.5</ele><time>2026-04-08T10:45:10Z</time></trkpt><trkpt lat="44.12590707808993" lon="3.910878084213034"><ele>214.25</ele><time>2026-04-08T10:45:11Z</time></trkpt><trkpt lat="44.12590026405688" lon="3.9106924387691087"><ele>217.0</ele><time>2026-04-08T10:45:12Z</time></trkpt><trkpt lat="44.12592866968807" lon="3.9105151569440797"><ele>217.25</ele><time>2026-04-08T10:45:13Z</time></trkpt><trkpt lat="44.12596000742293" lon="3.910338473916072"><ele>217.5</ele><time>2026-04-08T10:45:14Z</time></trkpt><trkpt lat="44.12600999837937" lon="3.910166521137575"><ele>217.75</ele><time>2026-04-08T10:45:15Z</time></trkpt><trkpt lat="44.126052061280355" lon="3.9099847665390817"><ele>218.0</ele><time>2026-04-08T10:45:16Z</time></trkpt><trkpt lat="44.12611710754766" lon="3.909811026012483"><ele>216.75</ele><time>2026-04-08T10:45:17Z</time></trkpt><trkpt lat="44.12618737618079" lon="3.9096380756329783"><ele>215.5</ele><time>2026-04-08T10:45:18Z</time></trkpt><trkpt lat="44.126266414466514" lon="3.9094688028838496"><ele>214.25</ele><time>2026-04-08T10:45:19Z</time></trkpt><trkpt lat="44.12637580566096" lon="3.9093299529584695"><ele>213.0</ele><time>2026-04-08T10:45:20Z</time></trkpt><trkpt lat="44.126488348828325" lon="3.909198402775003"><ele>214.25</ele><time>2026-04-08T10:45:21Z</time></trkpt><trkpt lat="44.12661483312628" lon="3.909090953216512"><ele>215.5</ele><time>2026-04-08T10:45:22Z</time></trkpt><trkpt lat="44.12675480885983" lon="3.9090269259769976"><ele>216.75</ele><time>2026-04-08T10:45:23Z</time></trkpt><trkpt lat="44.126900800850294" lon="3.9089956536650696"><ele>218.0</ele><time>2026-04-08T10:45:24Z</time></trkpt><trkpt lat="44.12704753589936" lon="3.90896568686139"><ele>218.0</ele><time>2026-04-08T10:45:25Z</time></trkpt><trkpt lat="44.12718984510215" lon="3.9089566096461845"><ele>218.0</ele><time>2026-04-08T10:45:26Z</time></trkpt><trkpt lat="44.12731183824985" lon="3.908924393688449"><ele>218.0</ele><time>2026-04-08T10:45:27Z</time></trkpt><trkpt lat="44.127413312264316" lon="3.908859508510021"><ele>218.0</ele><time>2026-04-08T10:45:28Z</time></trkpt><trkpt lat="44.12749667325267" lon="3.9087550387859626"><ele>218.4</ele><time>2026-04-08T10:45:29Z</time></trkpt><trkpt lat="44.1275505013424" lon="3.9086167078783873"><ele>218.8</ele><time>2026-04-08T10:45:30Z</time></trkpt><trkpt lat="44.12756729532276" lon="3.9084651124337157"><ele>219.2</ele><time>2026-04-08T10:45:31Z</time></trkpt><trkpt lat="44.127558778485636" lon="3.9083111234120556"><ele>219.6</ele><time>2026-04-08T10:45:32Z</time></trkpt><trkpt lat="44.12753079185769" lon="3.908161158103082"><ele>220.0</ele><time>2026-04-08T10:45:33Z</time></trkpt><trkpt lat="44.12747931831109" lon="3.908021608084586"><ele>220.0</ele><time>2026-04-08T10:45:34Z</time></trkpt><trkpt lat="44.12739488579651" lon="3.9079128572401807"><ele>220.0</ele><time>2026-04-08T10:45:35Z</time></trkpt><trkpt lat="44.12728961417587" lon="3.907825881401565"><ele>220.0</ele><time>2026-04-08T10:45:36Z</time></trkpt><trkpt lat="44.1271793921752" lon="3.907741243103143"><ele>220.0</ele><time>2026-04-08T10:45:37Z</time></trkpt><trkpt lat="44.127065306510694" lon="3.9076477523025632"><ele>217.25</ele><time>2026-04-08T10:45:38Z</time></trkpt><trkpt lat="44.12694498034194" lon="3.9075472666637197"><ele>214.5</ele><time>2026-04-08T10:45:39Z</time></trkpt><trkpt lat="44.126820018794405" lon="3.9074457447561244"><ele>211.75</ele><time>2026-04-08T10:45:40Z</time></trkpt><trkpt lat="44.126692173831024" lon="3.9073363118069526"><ele>209.0</ele><time>2026-04-08T10:45:41Z</time></trkpt><trkpt lat="44.12656531590834" lon="3.907220489289143"><ele>201.66666666666669</ele><time>2026-04-08T10:45:42Z</time></trkpt><trkpt lat="44.12644631292366" lon="3.9070955045144062"><ele>194.33333333333334</ele><time>2026-04-08T10:45:43Z</time></trkpt><trkpt lat="44.12632537672806" lon="3.906961058008561"><ele>187.0</ele><time>2026-04-08T10:45:44Z</time></trkpt><trkpt lat="44.126210732158384" lon="3.906813247860784"><ele>191.66666666666669</ele><time>2026-04-08T10:45:45Z</time></trkpt><trkpt lat="44.126101310231576" lon="3.906656401993904"><ele>196.33333333333334</ele><time>2026-04-08T10:45:46Z</time></trkpt><trkpt lat="44.1259963448067" lon="3.9064901371918856"><ele>201.0</ele><time>2026-04-08T10:45:47Z</time></trkpt><trkpt lat="44.12589942597523" lon="3.9063150230337365"><ele>201.0</ele><time>2026-04-08T10:45:48Z</time></trkpt><trkpt lat="44.12581197494856" lon="3.9061370029652163"><ele>201.0</ele><time>2026-04-08T10:45:49Z</time></trkpt><trkpt lat="44.12573274435415" lon="3.9059633890036207"><ele>201.0</ele><time>2026-04-08T10:45:50Z</time></trkpt><trkpt lat="44.125671525994136" lon="3.905806865549574"><ele>201.0</ele><time>2026-04-08T10:45:51Z</time></trkpt><trkpt lat="44.12565842967635" lon="3.9056446855902958"><ele>199.8</ele><time>2026-04-08T10:45:52Z</time></trkpt><trkpt lat="44.12568641145532" lon="3.9055094161787207"><ele>198.60000000000002</ele><time>2026-04-08T10:45:53Z</time></trkpt><trkpt lat="44.12573251660308" lon="3.9053873653379463"><ele>197.4</ele><time>2026-04-08T10:45:54Z</time></trkpt><trkpt lat="44.125794827931784" lon="3.9052627148336843"><ele>196.2</ele><time>2026-04-08T10:45:55Z</time></trkpt><trkpt lat="44.12585480141272" lon="3.9051146073722127"><ele>195.0</ele><time>2026-04-08T10:45:56Z</time></trkpt><trkpt lat="44.125930992249664" lon="3.904973713076127"><ele>198.25</ele><time>2026-04-08T10:45:57Z</time></trkpt><trkpt lat="44.125987799825324" lon="3.904811088864992"><ele>201.5</ele><time>2026-04-08T10:45:58Z</time></trkpt><trkpt lat="44.12602880059731" lon="3.904644000443788"><ele>204.75</ele><time>2026-04-08T10:45:59Z</time></trkpt><trkpt lat="44.1260684496084" lon="3.9044916562920857"><ele>208.0</ele><time>2026-04-08T10:46:00Z</time></trkpt><trkpt lat="44.12613325187562" lon="3.904379149215796"><ele>208.0</ele><time>2026-04-08T10:46:01Z</time></trkpt><trkpt lat="44.1262073353241" lon="3.9042925962600834"><ele>208.0</ele><time>2026-04-08T10:46:02Z</time></trkpt><trkpt lat="44.12629712570398" lon="3.904246731751019"><ele>208.0</ele><time>2026-04-08T10:46:03Z</time></trkpt><trkpt lat="44.12639099512379" lon="3.904224692463081"><ele>208.0</ele><time>2026-04-08T10:46:04Z</time></trkpt><trkpt lat="44.12648446007574" lon="3.904199432322881"><ele>208.0</ele><time>2026-04-08T10:46:05Z</time></trkpt><trkpt lat="44.12657580192626" lon="3.9041602569521845"><ele>207.0</ele><time>2026-04-08T10:46:06Z</time></trkpt><trkpt lat="44.12665326903123" lon="3.9040542433552488"><ele>206.0</ele><time>2026-04-08T10:46:07Z</time></trkpt><trkpt lat="44.126678884482935" lon="3.9039035440751917"><ele>205.0</ele><time>2026-04-08T10:46:08Z</time></trkpt><trkpt lat="44.12669609100806" lon="3.9037712554984565"><ele>204.0</ele><time>2026-04-08T10:46:09Z</time></trkpt><trkpt lat="44.126729804506205" lon="3.9036455650124364"><ele>203.0</ele><time>2026-04-08T10:46:10Z</time></trkpt><trkpt lat="44.12674780859434" lon="3.9035161996614374"><ele>201.33333333333334</ele><time>2026-04-08T10:46:11Z</time></trkpt><trkpt lat="44.12676490198292" lon="3.903392688987774"><ele>199.66666666666669</ele><time>2026-04-08T10:46:12Z</time></trkpt><trkpt lat="44.12678175794938" lon="3.903270452281115"><ele>198.0</ele><time>2026-04-08T10:46:13Z</time></trkpt><trkpt lat="44.12679745053283" lon="3.9031516346518043"><ele>196.33333333333331</ele><time>2026-04-08T10:46:14Z</time></trkpt><trkpt lat="44.126803558077356" lon="3.9030390895544804"><ele>194.66666666666666</ele><time>2026-04-08T10:46:15Z</time></trkpt><trkpt lat="44.12676917743549" lon="3.902925282500421"><ele>193.0</ele><time>2026-04-08T10:46:16Z</time></trkpt><trkpt lat="44.126735627478524" lon="3.9028103019936085"><ele>193.0</ele><time>2026-04-08T10:46:17Z</time></trkpt><trkpt lat="44.126686581683835" lon="3.902696626677829"><ele>193.0</ele><time>2026-04-08T10:46:18Z</time></trkpt><trkpt lat="44.12662062776512" lon="3.9025944476216265"><ele>193.0</ele><time>2026-04-08T10:46:19Z</time></trkpt><trkpt lat="44.12653400124787" lon="3.9025108022012818"><ele>193.0</ele><time>2026-04-08T10:46:20Z</time></trkpt><trkpt lat="44.12643092354664" lon="3.902452422504472"><ele>193.0</ele><time>2026-04-08T10:46:21Z</time></trkpt><trkpt lat="44.12631592488309" lon="3.9024352643479903"><ele>196.0</ele><time>2026-04-08T10:46:22Z</time></trkpt><trkpt lat="44.126198491380926" lon="3.902455874808383"><ele>199.0</ele><time>2026-04-08T10:46:23Z</time></trkpt><trkpt lat="44.12607965501301" lon="3.9024789079950413"><ele>202.0</ele><time>2026-04-08T10:46:24Z</time></trkpt><trkpt lat="44.12596044565927" lon="3.9024778883727516"><ele>205.0</ele><time>2026-04-08T10:46:25Z</time></trkpt><trkpt lat="44.12584779780093" lon="3.9024395981088995"><ele>205.0</ele><time>2026-04-08T10:46:26Z</time></trkpt><trkpt lat="44.12574534655054" lon="3.9023722622267787"><ele>205.0</ele><time>2026-04-08T10:46:27Z</time></trkpt><trkpt lat="44.12565782601076" lon="3.9022776063703803"><ele>205.0</ele><time>2026-04-08T10:46:28Z</time></trkpt><trkpt lat="44.12558645319918" lon="3.902158096418019"><ele>205.0</ele><time>2026-04-08T10:46:29Z</time></trkpt><trkpt lat="44.12553227555435" lon="3.9020256266281312"><ele>205.0</ele><time>2026-04-08T10:46:30Z</time></trkpt><trkpt lat="44.12548082294013" lon="3.9018952785446603"><ele>206.4</ele><time>2026-04-08T10:46:31Z</time></trkpt><trkpt lat="44.12543129620076" lon="3.901768075688156"><ele>207.8</ele><time>2026-04-08T10:46:32Z</time></trkpt><trkpt lat="44.12537352620732" lon="3.9016533831261104"><ele>209.2</ele><time>2026-04-08T10:46:33Z</time></trkpt><trkpt lat="44.12530639724988" lon="3.9015527659053166"><ele>210.6</ele><time>2026-04-08T10:46:34Z</time></trkpt><trkpt lat="44.125228458698174" lon="3.901472785368861"><ele>212.0</ele><time>2026-04-08T10:46:35Z</time></trkpt><trkpt lat="44.12513571616925" lon="3.9014316673862885"><ele>214.0</ele><time>2026-04-08T10:46:36Z</time></trkpt><trkpt lat="44.125039850893856" lon="3.901421784900937"><ele>216.0</ele><time>2026-04-08T10:46:37Z</time></trkpt><trkpt lat="44.12494673502126" lon="3.9014409319843004"><ele>218.0</ele><time>2026-04-08T10:46:38Z</time></trkpt><trkpt lat="44.1248598572571" lon="3.9014974892381025"><ele>220.0</ele><time>2026-04-08T10:46:39Z</time></trkpt><trkpt lat="44.12478644842753" lon="3.9015925062943446"><ele>222.0</ele><time>2026-04-08T10:46:40Z</time></trkpt><trkpt lat="44.12474127763751" lon="3.9017240391836423"><ele>223.2</ele><time>2026-04-08T10:46:41Z</time></trkpt><trkpt lat="44.12472250335254" lon="3.901869925993059"><ele>224.39999999999998</ele><time>2026-04-08T10:46:42Z</time></trkpt><trkpt lat="44.124708479538285" lon="3.902016616357908"><ele>225.60000000000002</ele><time>2026-04-08T10:46:43Z</time></trkpt><trkpt lat="44.12468156523471" lon="3.9021557603014205"><ele>226.8</ele><time>2026-04-08T10:46:44Z</time></trkpt><trkpt lat="44.12461770168081" lon="3.9022712383710627"><ele>228.0</ele><time>2026-04-08T10:46:45Z</time></trkpt><trkpt lat="44.12452622350652" lon="3.9023666378764705"><ele>228.0</ele><time>2026-04-08T10:46:46Z</time></trkpt><trkpt lat="44.124411653906186" lon="3.9024295468045147"><ele>228.0</ele><time>2026-04-08T10:46:47Z</time></trkpt><trkpt lat="44.12428901109077" lon="3.902494411138463"><ele>228.0</ele><time>2026-04-08T10:46:48Z</time></trkpt><trkpt lat="44.124158123482445" lon="3.9025584118541494"><ele>228.0</ele><time>2026-04-08T10:46:49Z</time></trkpt><trkpt lat="44.12402592340345" lon="3.902623399275936"><ele>225.0</ele><time>2026-04-08T10:46:50Z</time></trkpt><trkpt lat="44.12389033141529" lon="3.9026846026832263"><ele>222.0</ele><time>2026-04-08T10:46:51Z</time></trkpt><trkpt lat="44.123751470470665" lon="3.9027165298832522"><ele>219.0</ele><time>2026-04-08T10:46:52Z</time></trkpt><trkpt lat="44.123610872337295" lon="3.902724715518145"><ele>216.0</ele><time>2026-04-08T10:46:53Z</time></trkpt><trkpt lat="44.12347089485244" lon="3.9027288241796017"><ele>216.0</ele><time>2026-04-08T10:46:54Z</time></trkpt><trkpt lat="44.12333810505214" lon="3.902734500595507"><ele>216.0</ele><time>2026-04-08T10:46:55Z</time></trkpt><trkpt lat="44.12321045480179" lon="3.902739053723706"><ele>216.0</ele><time>2026-04-08T10:46:56Z</time></trkpt><trkpt lat="44.12308848711683" lon="3.9027439523570115"><ele>216.0</ele><time>2026-04-08T10:46:57Z</time></trkpt><trkpt lat="44.122973779744754" lon="3.9027418095338504"><ele>218.20000000000002</ele><time>2026-04-08T10:46:58Z</time></trkpt><trkpt lat="44.12286647819618" lon="3.9027084725854806"><ele>220.40000000000003</ele><time>2026-04-08T10:46:59Z</time></trkpt><trkpt lat="44.122775183050365" lon="3.9026435711380403"><ele>222.6</ele><time>2026-04-08T10:47:00Z</time></trkpt><trkpt lat="44.12271435528046" lon="3.902540982474117"><ele>224.8</ele><time>2026-04-08T10:47:01Z</time></trkpt><trkpt lat="44.122677617546564" lon="3.9024164006459765"><ele>227.0</ele><time>2026-04-08T10:47:02Z</time></trkpt><trkpt lat="44.12265622181064" lon="3.9022771151716102"><ele>228.6</ele><time>2026-04-08T10:47:03Z</time></trkpt><trkpt lat="44.12263190436035" lon="3.902134990428834"><ele>230.2</ele><time>2026-04-08T10:47:04Z</time></trkpt><trkpt lat="44.12258188813283" lon="3.902001062859294"><ele>231.8</ele><time>2026-04-08T10:47:05Z</time></trkpt><trkpt lat="44.12250556272943" lon="3.9018812230084667"><ele>233.4</ele><time>2026-04-08T10:47:06Z</time></trkpt><trkpt lat="44.122415448799224" lon="3.901779325834159"><ele>235.0</ele><time>2026-04-08T10:47:07Z</time></trkpt><trkpt lat="44.122319445386324" lon="3.90167666557789"><ele>236.75</ele><time>2026-04-08T10:47:08Z</time></trkpt><trkpt lat="44.122221757858725" lon="3.901575703365551"><ele>238.5</ele><time>2026-04-08T10:47:09Z</time></trkpt><trkpt lat="44.122123706141934" lon="3.9014729926583183"><ele>240.25</ele><time>2026-04-08T10:47:10Z</time></trkpt><trkpt lat="44.122031257989825" lon="3.901372727161302"><ele>242.0</ele><time>2026-04-08T10:47:11Z</time></trkpt><trkpt lat="44.12194618658732" lon="3.901280161121703"><ele>242.0</ele><time>2026-04-08T10:47:12Z</time></trkpt><trkpt lat="44.12186639942605" lon="3.901191031531234"><ele>242.0</ele><time>2026-04-08T10:47:13Z</time></trkpt><trkpt lat="44.1217875839238" lon="3.901119254643258"><ele>242.0</ele><time>2026-04-08T10:47:14Z</time></trkpt><trkpt lat="44.1217005126968" lon="3.901074071563928"><ele>242.0</ele><time>2026-04-08T10:47:15Z</time></trkpt><trkpt lat="44.121603498364095" lon="3.9010617569504222"><ele>242.0</ele><time>2026-04-08T10:47:16Z</time></trkpt><trkpt lat="44.12150213623219" lon="3.9010885921307143"><ele>242.6</ele><time>2026-04-08T10:47:17Z</time></trkpt><trkpt lat="44.12140618995812" lon="3.901146559705477"><ele>243.2</ele><time>2026-04-08T10:47:18Z</time></trkpt><trkpt lat="44.12131852575269" lon="3.901222347764412"><ele>243.8</ele><time>2026-04-08T10:47:19Z</time></trkpt><trkpt lat="44.12123375143423" lon="3.9013181680182254"><ele>244.4</ele><time>2026-04-08T10:47:20Z</time></trkpt><trkpt lat="44.12114756393913" lon="3.9013722374902224"><ele>245.0</ele><time>2026-04-08T10:47:21Z</time></trkpt><trkpt lat="44.12106527176901" lon="3.9013962595118374"><ele>245.00000000000003</ele><time>2026-04-08T10:47:22Z</time></trkpt><trkpt lat="44.12098563613543" lon="3.901372899434254"><ele>245.0</ele><time>2026-04-08T10:47:23Z</time></trkpt><trkpt lat="44.120917765821446" lon="3.9013231832572735"><ele>245.0</ele><time>2026-04-08T10:47:24Z</time></trkpt><trkpt lat="44.12085605651759" lon="3.9012483998089187"><ele>245.0</ele><time>2026-04-08T10:47:25Z</time></trkpt><trkpt lat="44.12081365588438" lon="3.901131188518427"><ele>245.00000000000003</ele><time>2026-04-08T10:47:26Z</time></trkpt><trkpt lat="44.12079632222623" lon="3.900992670244087"><ele>245.0</ele><time>2026-04-08T10:47:27Z</time></trkpt><trkpt lat="44.12080098993429" lon="3.90084580484421"><ele>244.0</ele><time>2026-04-08T10:47:28Z</time></trkpt><trkpt lat="44.12080377527197" lon="3.900705027753443"><ele>243.0</ele><time>2026-04-08T10:47:29Z</time></trkpt><trkpt lat="44.120787012688126" lon="3.9005690692428736"><ele>242.0</ele><time>2026-04-08T10:47:30Z</time></trkpt><trkpt lat="44.12073257602213" lon="3.900440618379221"><ele>241.0</ele><time>2026-04-08T10:47:31Z</time></trkpt><trkpt lat="44.12065594763903" lon="3.9003446381605085"><ele>240.0</ele><time>2026-04-08T10:47:32Z</time></trkpt><trkpt lat="44.1205569790453" lon="3.9002861768077226"><ele>240.0</ele><time>2026-04-08T10:47:33Z</time></trkpt><trkpt lat="44.12045124073519" lon="3.900251791021231"><ele>240.0</ele><time>2026-04-08T10:47:34Z</time></trkpt><trkpt lat="44.12035303027298" lon="3.900209932816074"><ele>240.0</ele><time>2026-04-08T10:47:35Z</time></trkpt><trkpt lat="44.120278554621265" lon="3.900126136620536"><ele>240.0</ele><time>2026-04-08T10:47:36Z</time></trkpt><trkpt lat="44.12023493944887" lon="3.9000093610057998"><ele>240.0</ele><time>2026-04-08T10:47:37Z</time></trkpt><trkpt lat="44.12022697530799" lon="3.899881827643673"><ele>242.16666666666666</ele><time>2026-04-08T10:47:38Z</time></trkpt><trkpt lat="44.12024854400211" lon="3.8997633144973642"><ele>244.33333333333331</ele><time>2026-04-08T10:47:39Z</time></trkpt><trkpt lat="44.1202723002557" lon="3.899650020213561"><ele>246.5</ele><time>2026-04-08T10:47:40Z</time></trkpt><trkpt lat="44.120287585891305" lon="3.8995369492867273"><ele>248.66666666666666</ele><time>2026-04-08T10:47:41Z</time></trkpt><trkpt lat="44.12028075046349" lon="3.899421596787894"><ele>250.83333333333331</ele><time>2026-04-08T10:47:42Z</time></trkpt><trkpt lat="44.12024425514462" lon="3.8993116323063486"><ele>253.0</ele><time>2026-04-08T10:47:43Z</time></trkpt><trkpt lat="44.120176850750816" lon="3.8992230856005814"><ele>256.8</ele><time>2026-04-08T10:47:44Z</time></trkpt><trkpt lat="44.1200933032551" lon="3.8991621352878343"><ele>260.6</ele><time>2026-04-08T10:47:45Z</time></trkpt><trkpt lat="44.11999733043865" lon="3.8991308819588992"><ele>264.4</ele><time>2026-04-08T10:47:46Z</time></trkpt><trkpt lat="44.119895802393586" lon="3.8991292798983612"><ele>268.2</ele><time>2026-04-08T10:47:47Z</time></trkpt><trkpt lat="44.11979222716898" lon="3.899165297836616"><ele>272.0</ele><time>2026-04-08T10:47:48Z</time></trkpt><trkpt lat="44.11969745529832" lon="3.899233942446294"><ele>272.0</ele><time>2026-04-08T10:47:49Z</time></trkpt><trkpt lat="44.11961451879917" lon="3.8993213329249783"><ele>272.0</ele><time>2026-04-08T10:47:50Z</time></trkpt><trkpt lat="44.119526490427724" lon="3.899372010768757"><ele>272.0</ele><time>2026-04-08T10:47:51Z</time></trkpt><trkpt lat="44.11943644640335" lon="3.8993660297022177"><ele>272.0</ele><time>2026-04-08T10:47:52Z</time></trkpt><trkpt lat="44.11935483788249" lon="3.8993095490870306"><ele>272.0</ele><time>2026-04-08T10:47:53Z</time></trkpt><trkpt lat="44.11928668313179" lon="3.8992262853551023"><ele>272.0</ele><time>2026-04-08T10:47:54Z</time></trkpt><trkpt lat="44.11921980585893" lon="3.8991375104900583"><ele>272.0</ele><time>2026-04-08T10:47:55Z</time></trkpt><trkpt lat="44.11914826217998" lon="3.899044456067537"><ele>272.0</ele><time>2026-04-08T10:47:56Z</time></trkpt><trkpt lat="44.119069906639034" lon="3.8989554243616977"><ele>272.0</ele><time>2026-04-08T10:47:57Z</time></trkpt><trkpt lat="44.118973791835536" lon="3.8988970172931348"><ele>272.0</ele><time>2026-04-08T10:47:58Z</time></trkpt><trkpt lat="44.11886923739863" lon="3.8988832580717236"><ele>271.0</ele><time>2026-04-08T10:47:59Z</time></trkpt><trkpt lat="44.118760293265254" lon="3.898886486941334"><ele>270.0</ele><time>2026-04-08T10:48:00Z</time></trkpt><trkpt lat="44.11865149638903" lon="3.898889693591695"><ele>269.0</ele><time>2026-04-08T10:48:01Z</time></trkpt><trkpt lat="44.118541937206885" lon="3.8988973520387846"><ele>268.0</ele><time>2026-04-08T10:48:02Z</time></trkpt><trkpt lat="44.11842980181108" lon="3.89890252476904"><ele>267.0</ele><time>2026-04-08T10:48:03Z</time></trkpt><trkpt lat="44.1183203909563" lon="3.8989061625021844"><ele>266.6</ele><time>2026-04-08T10:48:04Z</time></trkpt><trkpt lat="44.11821464311322" lon="3.8989049071025623"><ele>266.2</ele><time>2026-04-08T10:48:05Z</time></trkpt><trkpt lat="44.11811384103444" lon="3.8988628895185666"><ele>265.8</ele><time>2026-04-08T10:48:06Z</time></trkpt><trkpt lat="44.118023874941436" lon="3.898792212808804"><ele>265.4</ele><time>2026-04-08T10:48:07Z</time></trkpt><trkpt lat="44.11794027952286" lon="3.8987172490471584"><ele>265.0</ele><time>2026-04-08T10:48:08Z</time></trkpt><trkpt lat="44.1178546296435" lon="3.898646696736813"><ele>265.0</ele><time>2026-04-08T10:48:09Z</time></trkpt><trkpt lat="44.117761488653834" lon="3.898592843199448"><ele>265.0</ele><time>2026-04-08T10:48:10Z</time></trkpt><trkpt lat="44.117658956496335" lon="3.8985642707786243"><ele>265.0</ele><time>2026-04-08T10:48:11Z</time></trkpt><trkpt lat="44.11755298739068" lon="3.8985471366764055"><ele>265.0</ele><time>2026-04-08T10:48:12Z</time></trkpt><trkpt lat="44.11744781318021" lon="3.898537352865383"><ele>265.0</ele><time>2026-04-08T10:48:13Z</time></trkpt><trkpt lat="44.117343287420155" lon="3.8985293398261947"><ele>268.2</ele><time>2026-04-08T10:48:14Z</time></trkpt><trkpt lat="44.11724628420719" lon="3.898520734591479"><ele>271.4</ele><time>2026-04-08T10:48:15Z</time></trkpt><trkpt lat="44.11715436522725" lon="3.8984946649994834"><ele>274.6</ele><time>2026-04-08T10:48:16Z</time></trkpt><trkpt lat="44.11707506460206" lon="3.898432623473775"><ele>277.8</ele><time>2026-04-08T10:48:17Z</time></trkpt><trkpt lat="44.11702132246" lon="3.8983323358553847"><ele>281.0</ele><time>2026-04-08T10:48:18Z</time></trkpt><trkpt lat="44.11698841725947" lon="3.898216008505276"><ele>281.40000000000003</ele><time>2026-04-08T10:48:19Z</time></trkpt><trkpt lat="44.116990120550334" lon="3.8980859668924452"><ele>281.8</ele><time>2026-04-08T10:48:20Z</time></trkpt><trkpt lat="44.116994931940475" lon="3.8979481267332288"><ele>282.20000000000005</ele><time>2026-04-08T10:48:21Z</time></trkpt><trkpt lat="44.116986022320404" lon="3.897808666122126"><ele>282.6</ele><time>2026-04-08T10:48:22Z</time></trkpt><trkpt lat="44.116959353377" lon="3.8976709517887262"><ele>283.0</ele><time>2026-04-08T10:48:23Z</time></trkpt><trkpt lat="44.11688979548452" lon="3.8975562695103645"><ele>281.75</ele><time>2026-04-08T10:48:24Z</time></trkpt><trkpt lat="44.11679342885517" lon="3.897474714919342"><ele>280.5</ele><time>2026-04-08T10:48:25Z</time></trkpt><trkpt lat="44.116688688017284" lon="3.897404639151276"><ele>279.25</ele><time>2026-04-08T10:48:26Z</time></trkpt><trkpt lat="44.116583291412546" lon="3.8973125529104227"><ele>278.0</ele><time>2026-04-08T10:48:27Z</time></trkpt><trkpt lat="44.11647022639701" lon="3.8972241611603833"><ele>276.0</ele><time>2026-04-08T10:48:28Z</time></trkpt><trkpt lat="44.11635658100611" lon="3.89713177039172"><ele>274.0</ele><time>2026-04-08T10:48:29Z</time></trkpt><trkpt lat="44.116247233134644" lon="3.897041938578008"><ele>272.0</ele><time>2026-04-08T10:48:30Z</time></trkpt><trkpt lat="44.11615137994039" lon="3.8969529490670984"><ele>270.0</ele><time>2026-04-08T10:48:31Z</time></trkpt><trkpt lat="44.11607091295581" lon="3.89683847377829"><ele>269.25</ele><time>2026-04-08T10:48:32Z</time></trkpt><trkpt lat="44.116012790488504" lon="3.896691659084731"><ele>268.5</ele><time>2026-04-08T10:48:33Z</time></trkpt><trkpt lat="44.11599012990295" lon="3.8965258538176157"><ele>267.75</ele><time>2026-04-08T10:48:34Z</time></trkpt><trkpt lat="44.11602512216436" lon="3.8963666952638336"><ele>267.0</ele><time>2026-04-08T10:48:35Z</time></trkpt><trkpt lat="44.11602776543235" lon="3.8962132873022224"><ele>267.0</ele><time>2026-04-08T10:48:36Z</time></trkpt><trkpt lat="44.1160323690063" lon="3.8960752041469484"><ele>267.0</ele><time>2026-04-08T10:48:37Z</time></trkpt><trkpt lat="44.11600010645151" lon="3.895932749611506"><ele>267.0</ele><time>2026-04-08T10:48:38Z</time></trkpt><trkpt lat="44.11593493185454" lon="3.895811663553364"><ele>267.0</ele><time>2026-04-08T10:48:39Z</time></trkpt><trkpt lat="44.11584741151225" lon="3.8957185559047076"><ele>267.0</ele><time>2026-04-08T10:48:40Z</time></trkpt><trkpt lat="44.11575251685305" lon="3.895650105113928"><ele>265.0</ele><time>2026-04-08T10:48:41Z</time></trkpt><trkpt lat="44.115675910234295" lon="3.895576610422336"><ele>263.0</ele><time>2026-04-08T10:48:42Z</time></trkpt><trkpt lat="44.11565215291265" lon="3.8954535607835523"><ele>261.0</ele><time>2026-04-08T10:48:43Z</time></trkpt><trkpt lat="44.11564665190042" lon="3.895335808709473"><ele>259.0</ele><time>2026-04-08T10:48:44Z</time></trkpt><trkpt lat="44.115670663147164" lon="3.8952252751109455"><ele>257.0</ele><time>2026-04-08T10:48:45Z</time></trkpt><trkpt lat="44.11571002515778" lon="3.8951060242583218"><ele>255.0</ele><time>2026-04-08T10:48:46Z</time></trkpt><trkpt lat="44.11572677081967" lon="3.8949868895766397"><ele>253.66666666666666</ele><time>2026-04-08T10:48:47Z</time></trkpt><trkpt lat="44.11573985602206" lon="3.8948744432907785"><ele>252.33333333333331</ele><time>2026-04-08T10:48:48Z</time></trkpt><trkpt lat="44.11573707110203" lon="3.894767027447518"><ele>251.0</ele><time>2026-04-08T10:48:49Z</time></trkpt><trkpt lat="44.11571049824541" lon="3.894658060615896"><ele>249.66666666666666</ele><time>2026-04-08T10:48:50Z</time></trkpt><trkpt lat="44.115657900949046" lon="3.8945591756602465"><ele>248.33333333333331</ele><time>2026-04-08T10:48:51Z</time></trkpt><trkpt lat="44.11558417610114" lon="3.894481774580909"><ele>247.0</ele><time>2026-04-08T10:48:52Z</time></trkpt><trkpt lat="44.11550127765831" lon="3.8944252476359247"><ele>247.0</ele><time>2026-04-08T10:48:53Z</time></trkpt><trkpt lat="44.11541621415347" lon="3.894369323309573"><ele>247.0</ele><time>2026-04-08T10:48:54Z</time></trkpt><trkpt lat="44.115328567942406" lon="3.8943066496024503"><ele>247.0</ele><time>2026-04-08T10:48:55Z</time></trkpt><trkpt lat="44.115242450484615" lon="3.894229748062812"><ele>247.0</ele><time>2026-04-08T10:48:56Z</time></trkpt><trkpt lat="44.11515291413408" lon="3.8941574261055942"><ele>247.0</ele><time>2026-04-08T10:48:57Z</time></trkpt><trkpt lat="44.11506384347123" lon="3.8940786402348615"><ele>247.0</ele><time>2026-04-08T10:48:58Z</time></trkpt><trkpt lat="44.114983832572236" lon="3.893973429927048"><ele>247.0</ele><time>2026-04-08T10:48:59Z</time></trkpt><trkpt lat="44.114963595714066" lon="3.89381698571553"><ele>247.0</ele><time>2026-04-08T10:49:00Z</time></trkpt><trkpt lat="44.11495840600448" lon="3.8936621223266914"><ele>247.0</ele><time>2026-04-08T10:49:01Z</time></trkpt><trkpt lat="44.11494071654509" lon="3.893494661410133"><ele>244.25</ele><time>2026-04-08T10:49:02Z</time></trkpt><trkpt lat="44.11488902215273" lon="3.8933427594264183"><ele>241.5</ele><time>2026-04-08T10:49:03Z</time></trkpt><trkpt lat="44.114827106753516" lon="3.893201679531083"><ele>238.75</ele><time>2026-04-08T10:49:04Z</time></trkpt><trkpt lat="44.114755297485466" lon="3.893067609816173"><ele>236.0</ele><time>2026-04-08T10:49:05Z</time></trkpt><trkpt lat="44.11468595093209" lon="3.8929293409008947"><ele>236.0</ele><time>2026-04-08T10:49:06Z</time></trkpt><trkpt lat="44.114617957535984" lon="3.892785147350898"><ele>236.0</ele><time>2026-04-08T10:49:07Z</time></trkpt><trkpt lat="44.11455933987888" lon="3.892633699455474"><ele>236.0</ele><time>2026-04-08T10:49:08Z</time></trkpt><trkpt lat="44.11452222287606" lon="3.8924862421450146"><ele>236.0</ele><time>2026-04-08T10:49:09Z</time></trkpt><trkpt lat="44.11450551613398" lon="3.892336655425897"><ele>236.20000000000002</ele><time>2026-04-08T10:49:10Z</time></trkpt><trkpt lat="44.11450814166162" lon="3.8921766370790607"><ele>236.40000000000003</ele><time>2026-04-08T10:49:11Z</time></trkpt><trkpt lat="44.11448497856918" lon="3.8920368393162055"><ele>236.6</ele><time>2026-04-08T10:49:12Z</time></trkpt><trkpt lat="44.114459756000144" lon="3.891918014922892"><ele>236.8</ele><time>2026-04-08T10:49:13Z</time></trkpt><trkpt lat="44.11440338516952" lon="3.8918156241407473"><ele>237.0</ele><time>2026-04-08T10:49:14Z</time></trkpt><trkpt lat="44.11432322104023" lon="3.891733676777633"><ele>238.39999999999998</ele><time>2026-04-08T10:49:15Z</time></trkpt><trkpt lat="44.11422950912185" lon="3.8916656996341588"><ele>239.79999999999998</ele><time>2026-04-08T10:49:16Z</time></trkpt><trkpt lat="44.11413226644902" lon="3.8916008994627105"><ele>241.2</ele><time>2026-04-08T10:49:17Z</time></trkpt><trkpt lat="44.11402761493187" lon="3.891554208953002"><ele>242.6</ele><time>2026-04-08T10:49:18Z</time></trkpt><trkpt lat="44.11392350851965" lon="3.891521781939172"><ele>244.0</ele><time>2026-04-08T10:49:19Z</time></trkpt><trkpt lat="44.113817374843826" lon="3.891510040424133"><ele>240.6</ele><time>2026-04-08T10:49:20Z</time></trkpt><trkpt lat="44.113713966983035" lon="3.8915038835184452"><ele>237.2</ele><time>2026-04-08T10:49:21Z</time></trkpt><trkpt lat="44.11362284214422" lon="3.8914717264819205"><ele>233.79999999999998</ele><time>2026-04-08T10:49:22Z</time></trkpt><trkpt lat="44.11354796984857" lon="3.891404509123767"><ele>230.39999999999998</ele><time>2026-04-08T10:49:23Z</time></trkpt><trkpt lat="44.11349915144569" lon="3.891309340690341"><ele>227.0</ele><time>2026-04-08T10:49:24Z</time></trkpt><trkpt lat="44.113499275367246" lon="3.891184043136002"><ele>227.0</ele><time>2026-04-08T10:49:25Z</time></trkpt><trkpt lat="44.113525101172925" lon="3.8910742866590855"><ele>227.0</ele><time>2026-04-08T10:49:26Z</time></trkpt><trkpt lat="44.1135658504198" lon="3.8909732318390158"><ele>227.0</ele><time>2026-04-08T10:49:27Z</time></trkpt><trkpt lat="44.11360960781432" lon="3.890857253090249"><ele>227.0</ele><time>2026-04-08T10:49:28Z</time></trkpt><trkpt lat="44.11363897558335" lon="3.890722561632974"><ele>227.0</ele><time>2026-04-08T10:49:29Z</time></trkpt><trkpt lat="44.11363477552386" lon="3.8905786002709313"><ele>228.0</ele><time>2026-04-08T10:49:30Z</time></trkpt><trkpt lat="44.113605708840986" lon="3.890447222932477"><ele>229.0</ele><time>2026-04-08T10:49:31Z</time></trkpt><trkpt lat="44.113549307869114" lon="3.8903556905300767"><ele>230.0</ele><time>2026-04-08T10:49:32Z</time></trkpt><trkpt lat="44.1134704362731" lon="3.8902959121747527"><ele>231.0</ele><time>2026-04-08T10:49:33Z</time></trkpt><trkpt lat="44.11337671386845" lon="3.8902885557298355"><ele>232.0</ele><time>2026-04-08T10:49:34Z</time></trkpt><trkpt lat="44.11329119959072" lon="3.8903472151407774"><ele>229.6</ele><time>2026-04-08T10:49:35Z</time></trkpt><trkpt lat="44.113228971161604" lon="3.890447932603483"><ele>227.2</ele><time>2026-04-08T10:49:36Z</time></trkpt><trkpt lat="44.1131639021381" lon="3.890545497722605"><ele>224.8</ele><time>2026-04-08T10:49:37Z</time></trkpt><trkpt lat="44.11308155520977" lon="3.8906339193910586"><ele>222.4</ele><time>2026-04-08T10:49:38Z</time></trkpt><trkpt lat="44.112989296231774" lon="3.890690351128357"><ele>220.0</ele><time>2026-04-08T10:49:39Z</time></trkpt><trkpt lat="44.11288440398552" lon="3.890720980624313"><ele>220.0</ele><time>2026-04-08T10:49:40Z</time></trkpt><trkpt lat="44.11278404015658" lon="3.8906946809648857"><ele>220.0</ele><time>2026-04-08T10:49:41Z</time></trkpt><trkpt lat="44.11268569685244" lon="3.8906309420717844"><ele>220.0</ele><time>2026-04-08T10:49:42Z</time></trkpt><trkpt lat="44.11259995900627" lon="3.8905322348403804"><ele>220.0</ele><time>2026-04-08T10:49:43Z</time></trkpt><trkpt lat="44.11255113712561" lon="3.890407742839058"><ele>220.0</ele><time>2026-04-08T10:49:44Z</time></trkpt><trkpt lat="44.112492257444934" lon="3.8903130478441903"><ele>219.99999999999997</ele><time>2026-04-08T10:49:45Z</time></trkpt><trkpt lat="44.11245007617145" lon="3.8902142204018735"><ele>220.0</ele><time>2026-04-08T10:49:46Z</time></trkpt><trkpt lat="44.112391656393456" lon="3.8901490405789283"><ele>220.0</ele><time>2026-04-08T10:49:47Z</time></trkpt><trkpt lat="44.11231774282524" lon="3.8901115145462186"><ele>220.0</ele><time>2026-04-08T10:49:48Z</time></trkpt><trkpt lat="44.112252247812755" lon="3.8900948379948317"><ele>219.99999999999997</ele><time>2026-04-08T10:49:49Z</time></trkpt><trkpt lat="44.11218594268663" lon="3.890070217834827"><ele>220.0</ele><time>2026-04-08T10:49:50Z</time></trkpt><trkpt lat="44.11209766419294" lon="3.889951067780326"><ele>218.66666666666666</ele><time>2026-04-08T10:49:52Z</time></trkpt><trkpt lat="44.112072886698236" lon="3.88986411402819"><ele>217.33333333333331</ele><time>2026-04-08T10:49:53Z</time></trkpt><trkpt lat="44.112068980722185" lon="3.889771355175727"><ele>216.0</ele><time>2026-04-08T10:49:54Z</time></trkpt><trkpt lat="44.11206894894415" lon="3.8896650905996153"><ele>214.66666666666669</ele><time>2026-04-08T10:49:55Z</time></trkpt><trkpt lat="44.112058801325034" lon="3.8895519280804858"><ele>213.33333333333334</ele><time>2026-04-08T10:49:56Z</time></trkpt><trkpt lat="44.11201958583034" lon="3.8894387880669385"><ele>212.0</ele><time>2026-04-08T10:49:57Z</time></trkpt><trkpt lat="44.11197623575787" lon="3.8893313018747047"><ele>212.8</ele><time>2026-04-08T10:49:58Z</time></trkpt><trkpt lat="44.11191073745709" lon="3.8892414012967405"><ele>213.6</ele><time>2026-04-08T10:49:59Z</time></trkpt><trkpt lat="44.11182382905151" lon="3.889185320585241"><ele>214.40000000000003</ele><time>2026-04-08T10:50:00Z</time></trkpt><trkpt lat="44.11173187732371" lon="3.8891489751982515"><ele>215.20000000000002</ele><time>2026-04-08T10:50:01Z</time></trkpt><trkpt lat="44.11163527348419" lon="3.8891369526689377"><ele>216.0</ele><time>2026-04-08T10:50:02Z</time></trkpt><trkpt lat="44.11153947886908" lon="3.8891663056144234"><ele>216.0</ele><time>2026-04-08T10:50:03Z</time></trkpt><trkpt lat="44.11144993227922" lon="3.8892248211544507"><ele>216.00000000000003</ele><time>2026-04-08T10:50:04Z</time></trkpt><trkpt lat="44.11136199104755" lon="3.8892909742692683"><ele>216.00000000000003</ele><time>2026-04-08T10:50:05Z</time></trkpt><trkpt lat="44.1112763365196" lon="3.8893689884982474"><ele>216.0</ele><time>2026-04-08T10:50:06Z</time></trkpt><trkpt lat="44.11118665704084" lon="3.8894310559773713"><ele>216.0</ele><time>2026-04-08T10:50:07Z</time></trkpt><trkpt lat="44.11109171920231" lon="3.8894845575951598"><ele>214.4</ele><time>2026-04-08T10:50:08Z</time></trkpt><trkpt lat="44.110989930559185" lon="3.88951830601668"><ele>212.8</ele><time>2026-04-08T10:50:09Z</time></trkpt><trkpt lat="44.11088440053651" lon="3.88953189784866"><ele>211.20000000000002</ele><time>2026-04-08T10:50:10Z</time></trkpt><trkpt lat="44.11077729389813" lon="3.889523019926802"><ele>209.60000000000002</ele><time>2026-04-08T10:50:11Z</time></trkpt><trkpt lat="44.11067232313948" lon="3.889493452927661"><ele>208.0</ele><time>2026-04-08T10:50:12Z</time></trkpt><trkpt lat="44.11056766368847" lon="3.8894549279288486"><ele>207.8</ele><time>2026-04-08T10:50:13Z</time></trkpt><trkpt lat="44.11046289373746" lon="3.88940790041305"><ele>207.60000000000002</ele><time>2026-04-08T10:50:14Z</time></trkpt><trkpt lat="44.11036154999698" lon="3.889350457198858"><ele>207.39999999999998</ele><time>2026-04-08T10:50:15Z</time></trkpt><trkpt lat="44.110261734933076" lon="3.889282569596778"><ele>207.2</ele><time>2026-04-08T10:50:16Z</time></trkpt><trkpt lat="44.11016277605548" lon="3.8892152956410673"><ele>207.0</ele><time>2026-04-08T10:50:17Z</time></trkpt><trkpt lat="44.11006249296738" lon="3.8891510460634198"><ele>207.0</ele><time>2026-04-08T10:50:18Z</time></trkpt><trkpt lat="44.10996207903581" lon="3.8890857461052626"><ele>207.0</ele><time>2026-04-08T10:50:19Z</time></trkpt><trkpt lat="44.109865179455625" lon="3.8890231200322614"><ele>207.0</ele><time>2026-04-08T10:50:20Z</time></trkpt><trkpt lat="44.10977278467504" lon="3.8889650219796628"><ele>207.0</ele><time>2026-04-08T10:50:21Z</time></trkpt><trkpt lat="44.10969310771491" lon="3.8888987504136114"><ele>207.0</ele><time>2026-04-08T10:50:22Z</time></trkpt><trkpt lat="44.109623399408704" lon="3.888799563290391"><ele>206.8</ele><time>2026-04-08T10:50:23Z</time></trkpt><trkpt lat="44.10957343564617" lon="3.8886869672773368"><ele>206.6</ele><time>2026-04-08T10:50:24Z</time></trkpt><trkpt lat="44.10954149580384" lon="3.8885609712457603"><ele>206.4</ele><time>2026-04-08T10:50:25Z</time></trkpt><trkpt lat="44.10952250148043" lon="3.8884301361232825"><ele>206.20000000000002</ele><time>2026-04-08T10:50:26Z</time></trkpt><trkpt lat="44.109503286034574" lon="3.8883006661536466"><ele>206.0</ele><time>2026-04-08T10:50:27Z</time></trkpt><trkpt lat="44.109466184357366" lon="3.8881795630756812"><ele>205.60000000000002</ele><time>2026-04-08T10:50:28Z</time></trkpt><trkpt lat="44.109398771703354" lon="3.8880825472415808"><ele>205.2</ele><time>2026-04-08T10:50:29Z</time></trkpt><trkpt lat="44.109305560882405" lon="3.888037262910954"><ele>204.8</ele><time>2026-04-08T10:50:30Z</time></trkpt><trkpt lat="44.109206017626434" lon="3.8880176067509447"><ele>204.39999999999998</ele><time>2026-04-08T10:50:31Z</time></trkpt><trkpt lat="44.109099635491646" lon="3.8879880073214275"><ele>204.0</ele><time>2026-04-08T10:50:32Z</time></trkpt><trkpt lat="44.108982468255824" lon="3.8879608351490593"><ele>203.5</ele><time>2026-04-08T10:50:33Z</time></trkpt><trkpt lat="44.108865394506026" lon="3.8879269680214112"><ele>203.0</ele><time>2026-04-08T10:50:34Z</time></trkpt><trkpt lat="44.10875309160935" lon="3.887892110559933"><ele>202.5</ele><time>2026-04-08T10:50:35Z</time></trkpt><trkpt lat="44.10864123543361" lon="3.8878567538877715"><ele>202.0</ele><time>2026-04-08T10:50:36Z</time></trkpt><trkpt lat="44.10852988685514" lon="3.8878225781191134"><ele>202.0</ele><time>2026-04-08T10:50:37Z</time></trkpt><trkpt lat="44.10841861807" lon="3.8877917063357037"><ele>202.0</ele><time>2026-04-08T10:50:38Z</time></trkpt><trkpt lat="44.10830820935972" lon="3.887763189832776"><ele>202.0</ele><time>2026-04-08T10:50:39Z</time></trkpt><trkpt lat="44.10820053110886" lon="3.8877311299597794"><ele>202.0</ele><time>2026-04-08T10:50:40Z</time></trkpt><trkpt lat="44.10809391156447" lon="3.887700258003774"><ele>202.0</ele><time>2026-04-08T10:50:41Z</time></trkpt><trkpt lat="44.10799004967871" lon="3.8876719750868927"><ele>201.39999999999998</ele><time>2026-04-08T10:50:42Z</time></trkpt><trkpt lat="44.10788482466888" lon="3.8876666996377502"><ele>200.79999999999998</ele><time>2026-04-08T10:50:43Z</time></trkpt><trkpt lat="44.107784286518786" lon="3.8877016040491394"><ele>200.2</ele><time>2026-04-08T10:50:44Z</time></trkpt><trkpt lat="44.10768889302704" lon="3.887753446434063"><ele>199.6</ele><time>2026-04-08T10:50:45Z</time></trkpt><trkpt lat="44.10759127347659" lon="3.8877896273017565"><ele>199.0</ele><time>2026-04-08T10:50:46Z</time></trkpt><trkpt lat="44.10749374909572" lon="3.887785573825598"><ele>198.6</ele><time>2026-04-08T10:50:47Z</time></trkpt><trkpt lat="44.10740036548155" lon="3.887750665475565"><ele>198.2</ele><time>2026-04-08T10:50:48Z</time></trkpt><trkpt lat="44.10731675787819" lon="3.887686386015717"><ele>197.79999999999998</ele><time>2026-04-08T10:50:49Z</time></trkpt><trkpt lat="44.10724492648723" lon="3.887608147086407"><ele>197.39999999999998</ele><time>2026-04-08T10:50:50Z</time></trkpt><trkpt lat="44.10718306373419" lon="3.887518741156917"><ele>197.0</ele><time>2026-04-08T10:50:51Z</time></trkpt><trkpt lat="44.10714723415316" lon="3.8874008568848515"><ele>196.66666666666669</ele><time>2026-04-08T10:50:52Z</time></trkpt><trkpt lat="44.10710319901928" lon="3.887289641540956"><ele>196.33333333333334</ele><time>2026-04-08T10:50:53Z</time></trkpt><trkpt lat="44.10705186683149" lon="3.887186365260202"><ele>196.0</ele><time>2026-04-08T10:50:54Z</time></trkpt><trkpt lat="44.107014586313355" lon="3.8870749525608472"><ele>195.66666666666669</ele><time>2026-04-08T10:50:55Z</time></trkpt><trkpt lat="44.10697745222478" lon="3.886972628120778"><ele>195.33333333333334</ele><time>2026-04-08T10:50:56Z</time></trkpt><trkpt lat="44.10694173664261" lon="3.8868743657668117"><ele>195.0</ele><time>2026-04-08T10:50:57Z</time></trkpt><trkpt lat="44.106906231384734" lon="3.8867777413483555"><ele>195.5</ele><time>2026-04-08T10:50:58Z</time></trkpt><trkpt lat="44.106870647713734" lon="3.8866790490369407"><ele>196.0</ele><time>2026-04-08T10:50:59Z</time></trkpt><trkpt lat="44.10683779406303" lon="3.886582543096211"><ele>196.5</ele><time>2026-04-08T10:51:00Z</time></trkpt><trkpt lat="44.10679798814274" lon="3.8864712748390446"><ele>197.0</ele><time>2026-04-08T10:51:02Z</time></trkpt><trkpt lat="44.10676691326828" lon="3.8863878662970732"><ele>197.5</ele><time>2026-04-08T10:51:10Z</time></trkpt><trkpt lat="44.10673269464647" lon="3.886293940863706"><ele>198.0</ele><time>2026-04-08T10:51:12Z</time></trkpt><trkpt lat="44.10668431601514" lon="3.8861646218310657"><ele>198.0</ele><time>2026-04-08T10:51:14Z</time></trkpt><trkpt lat="44.106635926807044" lon="3.886043318113765"><ele>198.0</ele><time>2026-04-08T10:51:16Z</time></trkpt><trkpt lat="44.106587204689525" lon="3.885919015923823"><ele>198.0</ele><time>2026-04-08T10:51:18Z</time></trkpt><trkpt lat="44.10652051311281" lon="3.885815195697035"><ele>198.0</ele><time>2026-04-08T10:51:20Z</time></trkpt><trkpt lat="44.10642090114465" lon="3.8857137731999547"><ele>198.0</ele><time>2026-04-08T10:51:22Z</time></trkpt><trkpt lat="44.106364936959814" lon="3.885664508941016"><ele>197.14285714285714</ele><time>2026-04-08T10:51:23Z</time></trkpt><trkpt lat="44.10630779338846" lon="3.88561821063142"><ele>196.28571428571428</ele><time>2026-04-08T10:51:24Z</time></trkpt><trkpt lat="44.10624957315203" lon="3.885572251230112"><ele>195.42857142857142</ele><time>2026-04-08T10:51:25Z</time></trkpt><trkpt lat="44.10619870103367" lon="3.885506462036669"><ele>194.57142857142856</ele><time>2026-04-08T10:51:26Z</time></trkpt><trkpt lat="44.10614142858215" lon="3.8854536722426505"><ele>193.71428571428572</ele><time>2026-04-08T10:51:27Z</time></trkpt><trkpt lat="44.10608180697843" lon="3.885400226360344"><ele>192.85714285714283</ele><time>2026-04-08T10:51:28Z</time></trkpt><trkpt lat="44.1060233583977" lon="3.885347454433875"><ele>192.0</ele><time>2026-04-08T10:51:29Z</time></trkpt><trkpt lat="44.10592592156713" lon="3.8852586480233007"><ele>192.0</ele><time>2026-04-08T10:51:31Z</time></trkpt><trkpt lat="44.105849547361764" lon="3.885188152335829"><ele>192.0</ele><time>2026-04-08T10:51:33Z</time></trkpt><trkpt lat="44.10576414434015" lon="3.8851322284884438"><ele>192.0</ele><time>2026-04-08T10:51:35Z</time></trkpt><trkpt lat="44.10569728403805" lon="3.8850472985365343"><ele>192.0</ele><time>2026-04-08T10:51:37Z</time></trkpt><trkpt lat="44.105622470315744" lon="3.885004870295761"><ele>192.0</ele><time>2026-04-08T10:51:43Z</time></trkpt><trkpt lat="44.10555660853909" lon="3.8849201047832205"><ele>192.0</ele><time>2026-04-08T10:51:45Z</time></trkpt><trkpt lat="44.105483611102194" lon="3.8848549895780593"><ele>192.28571428571428</ele><time>2026-04-08T10:51:47Z</time></trkpt><trkpt lat="44.10542315099585" lon="3.884805562011701"><ele>192.57142857142856</ele><time>2026-04-08T10:51:49Z</time></trkpt><trkpt lat="44.105358414328556" lon="3.8847606110346646"><ele>192.85714285714283</ele><time>2026-04-08T10:51:52Z</time></trkpt><trkpt lat="44.10528856686511" lon="3.8847247820881963"><ele>193.14285714285714</ele><time>2026-04-08T10:51:55Z</time></trkpt><trkpt lat="44.105220799100074" lon="3.8846947890117605"><ele>193.42857142857144</ele><time>2026-04-08T10:51:57Z</time></trkpt><trkpt lat="44.10515289168012" lon="3.8846585820611383"><ele>193.7142857142857</ele><time>2026-04-08T10:52:00Z</time></trkpt><trkpt lat="44.105079769624616" lon="3.88463425545192"><ele>194.0</ele><time>2026-04-08T10:52:49Z</time></trkpt><trkpt lat="44.10499200383438" lon="3.8845664759135516"><ele>193.0</ele><time>2026-04-08T10:52:52Z</time></trkpt><trkpt lat="44.10490316510015" lon="3.884495912340921"><ele>192.0</ele><time>2026-04-08T10:52:54Z</time></trkpt><trkpt lat="44.1048200796134" lon="3.8844431061380162"><ele>191.0</ele><time>2026-04-08T10:52:56Z</time></trkpt><trkpt lat="44.10475586522605" lon="3.8843989887465855"><ele>190.0</ele><time>2026-04-08T10:52:58Z</time></trkpt><trkpt lat="44.10468380467808" lon="3.884363997607628"><ele>189.0</ele><time>2026-04-08T10:53:01Z</time></trkpt><trkpt lat="44.10472268786428" lon="3.8841733987971723"><ele>188.66666666666666</ele><time>2026-04-08T10:53:03Z</time></trkpt><trkpt lat="44.10470567642071" lon="3.884071114763162"><ele>188.33333333333334</ele><time>2026-04-08T10:53:05Z</time></trkpt><trkpt lat="44.10474178923608" lon="3.8839557341920328"><ele>188.0</ele><time>2026-04-08T10:53:07Z</time></trkpt><trkpt lat="44.1047349304588" lon="3.8838503318623063"><ele>187.66666666666669</ele><time>2026-04-08T10:53:09Z</time></trkpt><trkpt lat="44.10468540847439" lon="3.883765332991752"><ele>187.33333333333334</ele><time>2026-04-08T10:53:11Z</time></trkpt><trkpt lat="44.10464708049369" lon="3.8836818018486703"><ele>187.0</ele><time>2026-04-08T10:53:13Z</time></trkpt><trkpt lat="44.10458980573452" lon="3.883637182628008"><ele>187.0</ele><time>2026-04-08T10:53:15Z</time></trkpt><trkpt lat="44.104527773836566" lon="3.8837213431791278"><ele>187.0</ele><time>2026-04-08T10:53:18Z</time></trkpt><trkpt lat="44.10447337877458" lon="3.8838178784729775"><ele>187.0</ele><time>2026-04-08T10:53:21Z</time></trkpt><trkpt lat="44.104431893978024" lon="3.883891502393613"><ele>187.0</ele><time>2026-04-08T10:53:24Z</time></trkpt><trkpt lat="44.104361257025616" lon="3.8837904765117233"><ele>187.0</ele><time>2026-04-08T10:53:25Z</time></trkpt><trkpt lat="44.10427989069933" lon="3.8837347271676683"><ele>187.0</ele><time>2026-04-08T10:53:27Z</time></trkpt><trkpt lat="44.104206065217724" lon="3.8836803834976017"><ele>187.0</ele><time>2026-04-08T10:53:29Z</time></trkpt><trkpt lat="44.10414537147016" lon="3.8836352301274015"><ele>187.0</ele><time>2026-04-08T10:53:31Z</time></trkpt><trkpt lat="44.104082920446785" lon="3.883586609782416"><ele>187.0</ele><time>2026-04-08T10:53:34Z</time></trkpt><trkpt lat="44.104122234394424" lon="3.883665428720488"><ele>187.0</ele><time>2026-04-08T10:55:26Z</time></trkpt><trkpt lat="44.104171752074016" lon="3.8837727637918276"><ele>187.0</ele><time>2026-04-08T10:55:37Z</time></trkpt><trkpt lat="44.10423101363669" lon="3.8838311400664827"><ele>187.0</ele><time>2026-04-08T10:55:45Z</time></trkpt><trkpt lat="44.10427775001697" lon="3.883893016170373"><ele>187.0</ele><time>2026-04-08T10:55:53Z</time></trkpt><trkpt lat="44.10434498353577" lon="3.8839071451406406"><ele>187.0</ele><time>2026-04-08T10:56:00Z</time></trkpt><trkpt lat="44.10440066464375" lon="3.8838370700084006"><ele>187.0</ele><time>2026-04-08T10:56:05Z</time></trkpt><trkpt lat="44.1044253598714" lon="3.883746437833288"><ele>187.0</ele><time>2026-04-08T10:56:10Z</time></trkpt><trkpt lat="44.10441909161449" lon="3.8836482993742725"><ele>187.0</ele><time>2026-04-08T10:56:20Z</time></trkpt><trkpt lat="44.10440837501347" lon="3.8835497791775615"><ele>187.0</ele><time>2026-04-08T10:56:30Z</time></trkpt><trkpt lat="44.104352025515986" lon="3.8834818045009905"><ele>187.0</ele><time>2026-04-08T10:56:38Z</time></trkpt><trkpt lat="44.10429860788913" lon="3.8834286135979963"><ele>187.0</ele><time>2026-04-08T10:56:53Z</time></trkpt><trkpt lat="44.10425910544055" lon="3.8835528425902934"><ele>187.0</ele><time>2026-04-08T10:57:51Z</time></trkpt><trkpt lat="44.104312294471406" lon="3.8834889006305806"><ele>187.0</ele><time>2026-04-08T10:58:58Z</time></trkpt><trkpt lat="44.10422180728975" lon="3.88335291118734"><ele>187.0</ele><time>2026-04-08T10:59:49Z</time></trkpt><trkpt lat="44.1041826876794" lon="3.883430759891271"><ele>187.0</ele><time>2026-04-08T11:00:25Z</time></trkpt><trkpt lat="44.10414101778565" lon="3.883534276541313"><ele>187.0</ele><time>2026-04-08T11:03:15Z</time></trkpt><trkpt lat="44.1042032650424" lon="3.883554024327624"><ele>187.0</ele><time>2026-04-08T11:03:36Z</time></trkpt><trkpt lat="44.10429253559288" lon="3.88356373935568"><ele>187.0</ele><time>2026-04-08T11:04:05Z</time></trkpt><trkpt lat="44.104367263383104" lon="3.8835808883930345"><ele>187.0</ele><time>2026-04-08T11:05:07Z</time></trkpt><trkpt lat="44.10433696806288" lon="3.8834934015793134"><ele>187.0</ele><time>2026-04-08T11:05:31Z</time></trkpt><trkpt lat="44.1042527361768" lon="3.8834405912786285"><ele>187.0</ele><time>2026-04-08T11:05:48Z</time></trkpt><trkpt lat="44.10420850439173" lon="3.883365478166344"><ele>187.0</ele><time>2026-04-08T11:06:09Z</time></trkpt><trkpt lat="44.10422617436587" lon="3.883460432693628"><ele>187.0</ele><time>2026-04-08T11:07:01Z</time></trkpt><trkpt lat="44.104304312426436" lon="3.8834466751082233"><ele>187.0</ele><time>2026-04-08T11:08:03Z</time></trkpt><trkpt lat="44.10432320431139" lon="3.8835337740148974"><ele>187.0</ele><time>2026-04-08T11:09:01Z</time></trkpt><trkpt lat="44.104362576643915" lon="3.8836052658285523"><ele>187.0</ele><time>2026-04-08T11:09:12Z</time></trkpt><trkpt lat="44.10430189946614" lon="3.883555377508725"><ele>187.0</ele><time>2026-04-08T11:11:31Z</time></trkpt><trkpt lat="44.10426003321451" lon="3.8834681758602088"><ele>187.0</ele><time>2026-04-08T11:11:50Z</time></trkpt><trkpt lat="44.104316988200175" lon="3.88353380903316"><ele>187.0</ele><time>2026-04-08T11:14:01Z</time></trkpt><trkpt lat="44.10438248609598" lon="3.8836632365885166"><ele>187.0</ele><time>2026-04-08T11:14:43Z</time></trkpt><trkpt lat="44.104395357979364" lon="3.883751898770321"><ele>187.0</ele><time>2026-04-08T11:14:51Z</time></trkpt><trkpt lat="44.10435825263833" lon="3.8838234343396034"><ele>187.0</ele><time>2026-04-08T11:15:40Z</time></trkpt><trkpt lat="44.10429436281356" lon="3.883849824780612"><ele>187.0</ele><time>2026-04-08T11:15:47Z</time></trkpt><trkpt lat="44.10426182812549" lon="3.88377284734682"><ele>187.0</ele><time>2026-04-08T11:15:58Z</time></trkpt><trkpt lat="44.10421274902948" lon="3.883717855709748"><ele>187.0</ele><time>2026-04-08T11:16:04Z</time></trkpt><trkpt lat="44.104151587615966" lon="3.8836589863427666"><ele>187.0</ele><time>2026-04-08T11:16:11Z</time></trkpt><trkpt lat="44.104083223049514" lon="3.8836065863159495"><ele>187.0</ele><time>2026-04-08T11:16:38Z</time></trkpt><trkpt lat="44.10408395625923" lon="3.883707613383918"><ele>187.0</ele><time>2026-04-08T11:19:10Z</time></trkpt><trkpt lat="44.104167831621524" lon="3.8837388584032326"><ele>187.0</ele><time>2026-04-08T11:20:31Z</time></trkpt><trkpt lat="44.1042225753193" lon="3.883786274497023"><ele>187.0</ele><time>2026-04-08T11:20:35Z</time></trkpt><trkpt lat="44.10428772724651" lon="3.8838346913825963"><ele>187.0</ele><time>2026-04-08T11:20:39Z</time></trkpt><trkpt lat="44.10438603951462" lon="3.8838859825146925"><ele>187.0</ele><time>2026-04-08T11:20:42Z</time></trkpt><trkpt lat="44.104496505055046" lon="3.8839446985873485"><ele>187.0</ele><time>2026-04-08T11:20:44Z</time></trkpt><trkpt lat="44.104585606218905" lon="3.883992358204151"><ele>187.0</ele><time>2026-04-08T11:20:46Z</time></trkpt><trkpt lat="44.104638654935776" lon="3.884090181324709"><ele>187.0</ele><time>2026-04-08T11:20:49Z</time></trkpt><trkpt lat="44.10465572158542" lon="3.884202131584396"><ele>187.0</ele><time>2026-04-08T11:20:52Z</time></trkpt><trkpt lat="44.10469114527951" lon="3.884280169657296"><ele>187.0</ele><time>2026-04-08T11:20:55Z</time></trkpt><trkpt lat="44.10472781448133" lon="3.884361651746231"><ele>187.0</ele><time>2026-04-08T11:20:58Z</time></trkpt><trkpt lat="44.104786999210695" lon="3.8844869488660776"><ele>187.39999999999998</ele><time>2026-04-08T11:21:01Z</time></trkpt><trkpt lat="44.10488101551348" lon="3.8845768478171294"><ele>187.79999999999998</ele><time>2026-04-08T11:21:03Z</time></trkpt><trkpt lat="44.10498340002964" lon="3.8846397898113527"><ele>188.2</ele><time>2026-04-08T11:21:05Z</time></trkpt><trkpt lat="44.105079518382375" lon="3.8846975661113246"><ele>188.6</ele><time>2026-04-08T11:21:07Z</time></trkpt><trkpt lat="44.10514054091132" lon="3.8847306343659818"><ele>189.0</ele><time>2026-04-08T11:21:08Z</time></trkpt><trkpt lat="44.10520446663235" lon="3.884759907689248"><ele>190.0</ele><time>2026-04-08T11:21:09Z</time></trkpt><trkpt lat="44.10527349888206" lon="3.884789138967388"><ele>191.0</ele><time>2026-04-08T11:21:10Z</time></trkpt><trkpt lat="44.10534608278951" lon="3.884833571390586"><ele>192.0</ele><time>2026-04-08T11:21:11Z</time></trkpt><trkpt lat="44.105419695662114" lon="3.8848705048645185"><ele>193.0</ele><time>2026-04-08T11:21:12Z</time></trkpt><trkpt lat="44.10552820724902" lon="3.88494752920504"><ele>194.0</ele><time>2026-04-08T11:21:14Z</time></trkpt><trkpt lat="44.10563533074063" lon="3.885033490193478"><ele>194.0</ele><time>2026-04-08T11:21:16Z</time></trkpt><trkpt lat="44.10569138013726" lon="3.8850843244081608"><ele>194.0</ele><time>2026-04-08T11:21:17Z</time></trkpt><trkpt lat="44.10574696105017" lon="3.8851316928018065"><ele>194.0</ele><time>2026-04-08T11:21:18Z</time></trkpt><trkpt lat="44.10584649325267" lon="3.885220282041374"><ele>194.0</ele><time>2026-04-08T11:21:20Z</time></trkpt><trkpt lat="44.10593925699989" lon="3.8853124815182802"><ele>194.0</ele><time>2026-04-08T11:21:22Z</time></trkpt><trkpt lat="44.10603867777755" lon="3.88539384292678"><ele>193.6</ele><time>2026-04-08T11:21:24Z</time></trkpt><trkpt lat="44.1061379225344" lon="3.885481380585969"><ele>193.2</ele><time>2026-04-08T11:21:26Z</time></trkpt><trkpt lat="44.10623893856112" lon="3.885573087183864"><ele>192.79999999999998</ele><time>2026-04-08T11:21:28Z</time></trkpt><trkpt lat="44.10632306836438" lon="3.885657796724065"><ele>192.39999999999998</ele><time>2026-04-08T11:21:30Z</time></trkpt><trkpt lat="44.10637875603378" lon="3.885717604269694"><ele>192.0</ele><time>2026-04-08T11:21:32Z</time></trkpt><trkpt lat="44.10644996176757" lon="3.8858042283498295"><ele>192.0</ele><time>2026-04-08T11:21:54Z</time></trkpt><trkpt lat="44.10651465612434" lon="3.8858876882673035"><ele>192.0</ele><time>2026-04-08T11:21:56Z</time></trkpt><trkpt lat="44.106592776388545" lon="3.8860057891722595"><ele>192.0</ele><time>2026-04-08T11:21:58Z</time></trkpt><trkpt lat="44.10664035318156" lon="3.886097701960087"><ele>192.0</ele><time>2026-04-08T11:21:59Z</time></trkpt><trkpt lat="44.10667884820365" lon="3.8862160569375526"><ele>192.0</ele><time>2026-04-08T11:22:00Z</time></trkpt><trkpt lat="44.1067280008339" lon="3.8863497598670604"><ele>192.75</ele><time>2026-04-08T11:22:01Z</time></trkpt><trkpt lat="44.106778439026705" lon="3.886493582250379"><ele>193.5</ele><time>2026-04-08T11:22:02Z</time></trkpt><trkpt lat="44.10683367680898" lon="3.8866481461552764"><ele>194.25</ele><time>2026-04-08T11:22:03Z</time></trkpt><trkpt lat="44.106885730808585" lon="3.8867938013746026"><ele>195.0</ele><time>2026-04-08T11:22:04Z</time></trkpt><trkpt lat="44.106935022846976" lon="3.8869323148284427"><ele>195.0</ele><time>2026-04-08T11:22:05Z</time></trkpt><trkpt lat="44.10698222070892" lon="3.8870651629605923"><ele>195.0</ele><time>2026-04-08T11:22:06Z</time></trkpt><trkpt lat="44.10703010176695" lon="3.887196587230334"><ele>195.0</ele><time>2026-04-08T11:22:07Z</time></trkpt><trkpt lat="44.107080060843955" lon="3.8873273787838474"><ele>195.0</ele><time>2026-04-08T11:22:08Z</time></trkpt><trkpt lat="44.10714410326197" lon="3.887448021992217"><ele>195.0</ele><time>2026-04-08T11:22:09Z</time></trkpt><trkpt lat="44.10719091252675" lon="3.8875858179197147"><ele>195.4</ele><time>2026-04-08T11:22:10Z</time></trkpt><trkpt lat="44.10728653901841" lon="3.887682278418991"><ele>195.8</ele><time>2026-04-08T11:22:11Z</time></trkpt><trkpt lat="44.1073688513157" lon="3.8877798132256913"><ele>196.2</ele><time>2026-04-08T11:22:12Z</time></trkpt><trkpt lat="44.107459774733904" lon="3.8878565364459168"><ele>196.6</ele><time>2026-04-08T11:22:13Z</time></trkpt><trkpt lat="44.10755735307013" lon="3.887898971248909"><ele>197.0</ele><time>2026-04-08T11:22:14Z</time></trkpt><trkpt lat="44.10766021350473" lon="3.887889992156296"><ele>197.39999999999998</ele><time>2026-04-08T11:22:15Z</time></trkpt><trkpt lat="44.10776138900559" lon="3.8878489890057684"><ele>197.79999999999998</ele><time>2026-04-08T11:22:16Z</time></trkpt><trkpt lat="44.10786577455734" lon="3.887794311699374"><ele>198.2</ele><time>2026-04-08T11:22:17Z</time></trkpt><trkpt lat="44.107973875852736" lon="3.88775637225989"><ele>198.6</ele><time>2026-04-08T11:22:18Z</time></trkpt><trkpt lat="44.10808785393188" lon="3.8877499291640785"><ele>199.0</ele><time>2026-04-08T11:22:19Z</time></trkpt><trkpt lat="44.10820395668593" lon="3.887778638224588"><ele>199.75</ele><time>2026-04-08T11:22:20Z</time></trkpt><trkpt lat="44.108322818610844" lon="3.8878179420411887"><ele>200.5</ele><time>2026-04-08T11:22:21Z</time></trkpt><trkpt lat="44.108446149228634" lon="3.887854737179622"><ele>201.25</ele><time>2026-04-08T11:22:22Z</time></trkpt><trkpt lat="44.10857211372927" lon="3.8878912518928326"><ele>202.0</ele><time>2026-04-08T11:22:23Z</time></trkpt><trkpt lat="44.10870164943147" lon="3.887930971121024"><ele>202.0</ele><time>2026-04-08T11:22:24Z</time></trkpt><trkpt lat="44.1088349475155" lon="3.8879655198538874"><ele>202.0</ele><time>2026-04-08T11:22:25Z</time></trkpt><trkpt lat="44.108967166652434" lon="3.888004397974402"><ele>202.0</ele><time>2026-04-08T11:22:26Z</time></trkpt><trkpt lat="44.10909179513009" lon="3.8880413118135806"><ele>202.0</ele><time>2026-04-08T11:22:27Z</time></trkpt><trkpt lat="44.10921007646109" lon="3.888076381586478"><ele>202.33333333333331</ele><time>2026-04-08T11:22:28Z</time></trkpt><trkpt lat="44.10930886405183" lon="3.8881070897366383"><ele>202.66666666666666</ele><time>2026-04-08T11:22:29Z</time></trkpt><trkpt lat="44.10938635339491" lon="3.8881460182888756"><ele>203.0</ele><time>2026-04-08T11:22:30Z</time></trkpt><trkpt lat="44.10945191032565" lon="3.8882187040897165"><ele>203.33333333333331</ele><time>2026-04-08T11:22:31Z</time></trkpt><trkpt lat="44.10949105530361" lon="3.8883217947469233"><ele>203.66666666666666</ele><time>2026-04-08T11:22:32Z</time></trkpt><trkpt lat="44.10951271853649" lon="3.8884423292525243"><ele>204.0</ele><time>2026-04-08T11:22:33Z</time></trkpt><trkpt lat="44.10953757213251" lon="3.888584228202037"><ele>204.5</ele><time>2026-04-08T11:22:34Z</time></trkpt><trkpt lat="44.1095735789535" lon="3.888721471460634"><ele>205.0</ele><time>2026-04-08T11:22:35Z</time></trkpt><trkpt lat="44.109633366464905" lon="3.8888498792421724"><ele>205.5</ele><time>2026-04-08T11:22:36Z</time></trkpt><trkpt lat="44.109714731892566" lon="3.8889594100584115"><ele>206.0</ele><time>2026-04-08T11:22:37Z</time></trkpt><trkpt lat="44.10982019536018" lon="3.8890468848948267"><ele>206.25</ele><time>2026-04-08T11:22:38Z</time></trkpt><trkpt lat="44.109944644103784" lon="3.88911934423349"><ele>206.5</ele><time>2026-04-08T11:22:39Z</time></trkpt><trkpt lat="44.110079127137396" lon="3.8891977475483626"><ele>206.75</ele><time>2026-04-08T11:22:40Z</time></trkpt><trkpt lat="44.11021162992502" lon="3.889286232249648"><ele>207.0</ele><time>2026-04-08T11:22:41Z</time></trkpt><trkpt lat="44.110341796010665" lon="3.889371868086932"><ele>207.0</ele><time>2026-04-08T11:22:42Z</time></trkpt><trkpt lat="44.11046528443124" lon="3.8894519409193293"><ele>207.0</ele><time>2026-04-08T11:22:43Z</time></trkpt><trkpt lat="44.110589556246985" lon="3.8895123164062886"><ele>207.0</ele><time>2026-04-08T11:22:44Z</time></trkpt><trkpt lat="44.11071988786212" lon="3.889550710783164"><ele>207.0</ele><time>2026-04-08T11:22:45Z</time></trkpt><trkpt lat="44.11085565394215" lon="3.889583751349272"><ele>207.25</ele><time>2026-04-08T11:22:46Z</time></trkpt><trkpt lat="44.11099396567576" lon="3.8895951193531655"><ele>207.5</ele><time>2026-04-08T11:22:47Z</time></trkpt><trkpt lat="44.11113117618805" lon="3.8895641334083675"><ele>207.75</ele><time>2026-04-08T11:22:48Z</time></trkpt><trkpt lat="44.11125937280727" lon="3.889495150417689"><ele>208.0</ele><time>2026-04-08T11:22:49Z</time></trkpt><trkpt lat="44.11137166410691" lon="3.8894091832774143"><ele>208.0</ele><time>2026-04-08T11:22:50Z</time></trkpt><trkpt lat="44.111460088127274" lon="3.8893345356632643"><ele>208.0</ele><time>2026-04-08T11:22:51Z</time></trkpt><trkpt lat="44.11152530979022" lon="3.8892746880419744"><ele>208.0</ele><time>2026-04-08T11:22:52Z</time></trkpt><trkpt lat="44.111589093173095" lon="3.8892396283319943"><ele>208.0</ele><time>2026-04-08T11:22:53Z</time></trkpt><trkpt lat="44.11163796778089" lon="3.8889924637907436"><ele>208.0</ele><time>2026-04-08T11:22:55Z</time></trkpt><trkpt lat="44.11167148569178" lon="3.8888511258838983"><ele>210.5</ele><time>2026-04-08T11:22:56Z</time></trkpt><trkpt lat="44.111721451396726" lon="3.8886933871383924"><ele>213.0</ele><time>2026-04-08T11:22:57Z</time></trkpt><trkpt lat="44.11178949999264" lon="3.888543202204688"><ele>215.5</ele><time>2026-04-08T11:22:58Z</time></trkpt><trkpt lat="44.11189447326563" lon="3.888452994590319"><ele>218.0</ele><time>2026-04-08T11:22:59Z</time></trkpt><trkpt lat="44.1119990877632" lon="3.888377824251296"><ele>219.16666666666669</ele><time>2026-04-08T11:23:00Z</time></trkpt><trkpt lat="44.112107934550245" lon="3.888319075299315"><ele>220.33333333333334</ele><time>2026-04-08T11:23:01Z</time></trkpt><trkpt lat="44.11217882698479" lon="3.888260194446344"><ele>221.5</ele><time>2026-04-08T11:23:02Z</time></trkpt><trkpt lat="44.1122429254294" lon="3.8882518807007522"><ele>222.66666666666669</ele><time>2026-04-08T11:23:05Z</time></trkpt><trkpt lat="44.112334835357856" lon="3.888168166371551"><ele>223.83333333333334</ele><time>2026-04-08T11:23:08Z</time></trkpt><trkpt lat="44.11239802870335" lon="3.8881289472657032"><ele>225.0</ele><time>2026-04-08T11:23:09Z</time></trkpt><trkpt lat="44.11247651907606" lon="3.888087641337995"><ele>225.0</ele><time>2026-04-08T11:23:10Z</time></trkpt><trkpt lat="44.11256515414683" lon="3.888045216660418"><ele>225.0</ele><time>2026-04-08T11:23:11Z</time></trkpt><trkpt lat="44.11268957172881" lon="3.887988167094628"><ele>225.0</ele><time>2026-04-08T11:23:12Z</time></trkpt><trkpt lat="44.11279032139393" lon="3.8879539335511706"><ele>225.0</ele><time>2026-04-08T11:23:13Z</time></trkpt><trkpt lat="44.11288653672421" lon="3.8879523782377987"><ele>225.0</ele><time>2026-04-08T11:23:14Z</time></trkpt><trkpt lat="44.11297586762293" lon="3.8879665897872524"><ele>225.0</ele><time>2026-04-08T11:23:15Z</time></trkpt><trkpt lat="44.11306037889582" lon="3.888005705684315"><ele>225.0</ele><time>2026-04-08T11:23:16Z</time></trkpt><trkpt lat="44.11313500021132" lon="3.888092483261483"><ele>225.0</ele><time>2026-04-08T11:23:17Z</time></trkpt><trkpt lat="44.11319856859477" lon="3.88818771118211"><ele>225.0</ele><time>2026-04-08T11:23:18Z</time></trkpt><trkpt lat="44.11324881859078" lon="3.8882872506337547"><ele>225.0</ele><time>2026-04-08T11:23:19Z</time></trkpt><trkpt lat="44.113309605516235" lon="3.8883669594884953"><ele>226.5714285714286</ele><time>2026-04-08T11:23:20Z</time></trkpt><trkpt lat="44.1133472020696" lon="3.8884548193531594"><ele>228.14285714285717</ele><time>2026-04-08T11:23:21Z</time></trkpt><trkpt lat="44.11339662187981" lon="3.8885214409833364"><ele>229.71428571428572</ele><time>2026-04-08T11:23:22Z</time></trkpt><trkpt lat="44.11345944154214" lon="3.888569274067224"><ele>231.2857142857143</ele><time>2026-04-08T11:23:23Z</time></trkpt><trkpt lat="44.113533497215805" lon="3.8885898368025456"><ele>232.8571428571429</ele><time>2026-04-08T11:23:24Z</time></trkpt><trkpt lat="44.11360810158381" lon="3.8885848129157767"><ele>234.42857142857142</ele><time>2026-04-08T11:23:25Z</time></trkpt><trkpt lat="44.11368153608282" lon="3.8885608692121765"><ele>236.0</ele><time>2026-04-08T11:23:26Z</time></trkpt><trkpt lat="44.11375681200953" lon="3.888528820287931"><ele>236.0</ele><time>2026-04-08T11:23:27Z</time></trkpt><trkpt lat="44.113834742762364" lon="3.888514496182233"><ele>236.0</ele><time>2026-04-08T11:23:28Z</time></trkpt><trkpt lat="44.11391497059731" lon="3.88854771285557"><ele>236.0</ele><time>2026-04-08T11:23:29Z</time></trkpt><trkpt lat="44.11397796344183" lon="3.8886109191961338"><ele>236.0</ele><time>2026-04-08T11:23:30Z</time></trkpt><trkpt lat="44.11401542923393" lon="3.8886960786121807"><ele>236.0</ele><time>2026-04-08T11:23:31Z</time></trkpt><trkpt lat="44.11401724839453" lon="3.888784081284788"><ele>236.0</ele><time>2026-04-08T11:23:32Z</time></trkpt><trkpt lat="44.11398993986716" lon="3.888868644101284"><ele>236.0</ele><time>2026-04-08T11:23:33Z</time></trkpt><trkpt lat="44.11393637560061" lon="3.888936707164257"><ele>236.00000000000003</ele><time>2026-04-08T11:23:34Z</time></trkpt><trkpt lat="44.11386889454597" lon="3.8889801078014234"><ele>236.0</ele><time>2026-04-08T11:23:35Z</time></trkpt><trkpt lat="44.11379205032512" lon="3.889013144900407"><ele>236.0</ele><time>2026-04-08T11:23:36Z</time></trkpt><trkpt lat="44.11370500840767" lon="3.8890668044785284"><ele>236.0</ele><time>2026-04-08T11:23:37Z</time></trkpt><trkpt lat="44.11362211853838" lon="3.889137794511705"><ele>236.00000000000003</ele><time>2026-04-08T11:23:38Z</time></trkpt><trkpt lat="44.11353775241246" lon="3.8892162697365085"><ele>236.0</ele><time>2026-04-08T11:23:39Z</time></trkpt><trkpt lat="44.11344686917081" lon="3.8892955621384018"><ele>236.8</ele><time>2026-04-08T11:23:40Z</time></trkpt><trkpt lat="44.113350523618806" lon="3.8893673205366603"><ele>237.60000000000002</ele><time>2026-04-08T11:23:41Z</time></trkpt><trkpt lat="44.113253834354914" lon="3.8894202638157847"><ele>238.4</ele><time>2026-04-08T11:23:42Z</time></trkpt><trkpt lat="44.11316089740924" lon="3.8894550034827824"><ele>239.2</ele><time>2026-04-08T11:23:43Z</time></trkpt><trkpt lat="44.11306941305391" lon="3.8894869728168984"><ele>240.0</ele><time>2026-04-08T11:23:44Z</time></trkpt><trkpt lat="44.11299367123444" lon="3.889523288332897"><ele>237.66666666666666</ele><time>2026-04-08T11:23:45Z</time></trkpt><trkpt lat="44.11292522499204" lon="3.8895881895695843"><ele>235.33333333333331</ele><time>2026-04-08T11:23:46Z</time></trkpt><trkpt lat="44.11287136483141" lon="3.8896746883605697"><ele>233.0</ele><time>2026-04-08T11:23:47Z</time></trkpt><trkpt lat="44.112836218859115" lon="3.88978407718367"><ele>230.66666666666666</ele><time>2026-04-08T11:23:48Z</time></trkpt><trkpt lat="44.11283541349127" lon="3.8899011837585564"><ele>228.33333333333331</ele><time>2026-04-08T11:23:49Z</time></trkpt><trkpt lat="44.112860207380045" lon="3.8900163559751832"><ele>226.0</ele><time>2026-04-08T11:23:50Z</time></trkpt><trkpt lat="44.11291391212102" lon="3.890109842465648"><ele>224.8</ele><time>2026-04-08T11:23:51Z</time></trkpt><trkpt lat="44.112981485352066" lon="3.8901755016891437"><ele>223.60000000000002</ele><time>2026-04-08T11:23:52Z</time></trkpt><trkpt lat="44.11306368501147" lon="3.890206077855621"><ele>222.4</ele><time>2026-04-08T11:23:53Z</time></trkpt><trkpt lat="44.113161003014326" lon="3.8901876189189797"><ele>221.2</ele><time>2026-04-08T11:23:54Z</time></trkpt><trkpt lat="44.113260999433855" lon="3.890130680267974"><ele>220.0</ele><time>2026-04-08T11:23:55Z</time></trkpt><trkpt lat="44.113359410266305" lon="3.8900323134817985"><ele>224.0</ele><time>2026-04-08T11:23:56Z</time></trkpt><trkpt lat="44.113463720296615" lon="3.8899325336803727"><ele>228.0</ele><time>2026-04-08T11:23:57Z</time></trkpt><trkpt lat="44.113572531470915" lon="3.8898711023583483"><ele>232.0</ele><time>2026-04-08T11:23:58Z</time></trkpt><trkpt lat="44.11366533699991" lon="3.8898189998180452"><ele>236.0</ele><time>2026-04-08T11:23:59Z</time></trkpt><trkpt lat="44.11375548788679" lon="3.889820171674366"><ele>240.0</ele><time>2026-04-08T11:24:00Z</time></trkpt><trkpt lat="44.113838410482764" lon="3.8898545443549386"><ele>240.0</ele><time>2026-04-08T11:24:01Z</time></trkpt><trkpt lat="44.11392464620954" lon="3.8899431451901756"><ele>240.0</ele><time>2026-04-08T11:24:02Z</time></trkpt><trkpt lat="44.113998363170516" lon="3.890051652642343"><ele>240.0</ele><time>2026-04-08T11:24:03Z</time></trkpt><trkpt lat="44.11403983694376" lon="3.890185418840649"><ele>240.0</ele><time>2026-04-08T11:24:04Z</time></trkpt><trkpt lat="44.11406612225154" lon="3.8903294679604743"><ele>240.0</ele><time>2026-04-08T11:24:05Z</time></trkpt><trkpt lat="44.114041936935614" lon="3.8904799859403307"><ele>238.4</ele><time>2026-04-08T11:24:06Z</time></trkpt><trkpt lat="44.1139949333308" lon="3.890618868055383"><ele>236.8</ele><time>2026-04-08T11:24:07Z</time></trkpt><trkpt lat="44.113956809449206" lon="3.890744527573476"><ele>235.2</ele><time>2026-04-08T11:24:08Z</time></trkpt><trkpt lat="44.113906446637706" lon="3.8908555545735735"><ele>233.6</ele><time>2026-04-08T11:24:09Z</time></trkpt><trkpt lat="44.11387935200261" lon="3.890969272046878"><ele>232.0</ele><time>2026-04-08T11:24:10Z</time></trkpt><trkpt lat="44.113884062565624" lon="3.8910714095237746"><ele>231.0</ele><time>2026-04-08T11:24:11Z</time></trkpt><trkpt lat="44.113913246932825" lon="3.891165403261906"><ele>230.0</ele><time>2026-04-08T11:24:12Z</time></trkpt><trkpt lat="44.11397157835697" lon="3.8912462441778413"><ele>229.0</ele><time>2026-04-08T11:24:13Z</time></trkpt><trkpt lat="44.11405455340157" lon="3.8912949103414496"><ele>228.0</ele><time>2026-04-08T11:24:14Z</time></trkpt><trkpt lat="44.11415773558844" lon="3.891327273644722"><ele>227.0</ele><time>2026-04-08T11:24:15Z</time></trkpt><trkpt lat="44.114278523163556" lon="3.8913244542431626"><ele>231.25</ele><time>2026-04-08T11:24:16Z</time></trkpt><trkpt lat="44.11439557038939" lon="3.891342301924036"><ele>235.5</ele><time>2026-04-08T11:24:17Z</time></trkpt><trkpt lat="44.114517965261385" lon="3.8913570313013084"><ele>239.75</ele><time>2026-04-08T11:24:18Z</time></trkpt><trkpt lat="44.114644938715166" lon="3.891342010767364"><ele>244.0</ele><time>2026-04-08T11:24:19Z</time></trkpt><trkpt lat="44.11477544512109" lon="3.8912976663123935"><ele>244.0</ele><time>2026-04-08T11:24:20Z</time></trkpt><trkpt lat="44.11489019438063" lon="3.8912142557114087"><ele>244.0</ele><time>2026-04-08T11:24:21Z</time></trkpt><trkpt lat="44.11500557284829" lon="3.891117434428192"><ele>244.0</ele><time>2026-04-08T11:24:22Z</time></trkpt><trkpt lat="44.11511991332117" lon="3.8910145514120607"><ele>244.0</ele><time>2026-04-08T11:24:23Z</time></trkpt><trkpt lat="44.115227904634764" lon="3.890914872683348"><ele>248.2</ele><time>2026-04-08T11:24:24Z</time></trkpt><trkpt lat="44.11532800626782" lon="3.8908295923634753"><ele>252.39999999999998</ele><time>2026-04-08T11:24:25Z</time></trkpt><trkpt lat="44.1154234610387" lon="3.8907717958893366"><ele>256.6</ele><time>2026-04-08T11:24:26Z</time></trkpt><trkpt lat="44.115525807384124" lon="3.890751988979569"><ele>260.8</ele><time>2026-04-08T11:24:27Z</time></trkpt><trkpt lat="44.11562139326837" lon="3.8908026169435046"><ele>265.0</ele><time>2026-04-08T11:24:28Z</time></trkpt><trkpt lat="44.1157227664925" lon="3.8908388894427453"><ele>265.0</ele><time>2026-04-08T11:24:29Z</time></trkpt><trkpt lat="44.11583964787486" lon="3.890872181774993"><ele>265.0</ele><time>2026-04-08T11:24:30Z</time></trkpt><trkpt lat="44.115962540601494" lon="3.8908972600026703"><ele>265.0</ele><time>2026-04-08T11:24:31Z</time></trkpt><trkpt lat="44.11608563701101" lon="3.8909113180668013"><ele>265.0</ele><time>2026-04-08T11:24:32Z</time></trkpt><trkpt lat="44.116212105221486" lon="3.890916827790549"><ele>265.0</ele><time>2026-04-08T11:24:33Z</time></trkpt><trkpt lat="44.11634027315345" lon="3.890883282792422"><ele>265.0</ele><time>2026-04-08T11:24:34Z</time></trkpt><trkpt lat="44.1164716433872" lon="3.890872001679448"><ele>265.0</ele><time>2026-04-08T11:24:35Z</time></trkpt><trkpt lat="44.11660520470066" lon="3.8908466826720196"><ele>265.0</ele><time>2026-04-08T11:24:36Z</time></trkpt><trkpt lat="44.11674163802413" lon="3.890818466020469"><ele>266.75</ele><time>2026-04-08T11:24:37Z</time></trkpt><trkpt lat="44.116872924339816" lon="3.8908124296894453"><ele>268.5</ele><time>2026-04-08T11:24:38Z</time></trkpt><trkpt lat="44.11700134795192" lon="3.8907799450631764"><ele>270.25</ele><time>2026-04-08T11:24:39Z</time></trkpt><trkpt lat="44.11712388854433" lon="3.8907141086028934"><ele>272.0</ele><time>2026-04-08T11:24:40Z</time></trkpt><trkpt lat="44.117247507833554" lon="3.890643880219918"><ele>272.0</ele><time>2026-04-08T11:24:41Z</time></trkpt><trkpt lat="44.11736492827445" lon="3.8905323863541357"><ele>272.0</ele><time>2026-04-08T11:24:42Z</time></trkpt><trkpt lat="44.11745347329353" lon="3.890386211469596"><ele>272.0</ele><time>2026-04-08T11:24:43Z</time></trkpt><trkpt lat="44.117516797202576" lon="3.890242654093391"><ele>272.0</ele><time>2026-04-08T11:24:44Z</time></trkpt><trkpt lat="44.1175772112822" lon="3.890103913223958"><ele>273.6</ele><time>2026-04-08T11:24:45Z</time></trkpt><trkpt lat="44.11764373572535" lon="3.889989383073177"><ele>275.2</ele><time>2026-04-08T11:24:46Z</time></trkpt><trkpt lat="44.11772956518758" lon="3.8898983742476863"><ele>276.8</ele><time>2026-04-08T11:24:47Z</time></trkpt><trkpt lat="44.11783340991477" lon="3.8898307441172153"><ele>278.4</ele><time>2026-04-08T11:24:48Z</time></trkpt><trkpt lat="44.117949928537534" lon="3.8898005546787346"><ele>280.0</ele><time>2026-04-08T11:24:49Z</time></trkpt><trkpt lat="44.11807305206355" lon="3.889790202626207"><ele>280.0</ele><time>2026-04-08T11:24:50Z</time></trkpt><trkpt lat="44.118193252515916" lon="3.8898220129172576"><ele>280.0</ele><time>2026-04-08T11:24:51Z</time></trkpt><trkpt lat="44.11831638979175" lon="3.8898421578173314"><ele>280.0</ele><time>2026-04-08T11:24:52Z</time></trkpt><trkpt lat="44.118442976610766" lon="3.889856569233811"><ele>280.0</ele><time>2026-04-08T11:24:53Z</time></trkpt><trkpt lat="44.118566935847234" lon="3.8898326469727964"><ele>282.8</ele><time>2026-04-08T11:24:54Z</time></trkpt><trkpt lat="44.11868104984487" lon="3.8898157518104415"><ele>285.6</ele><time>2026-04-08T11:24:55Z</time></trkpt><trkpt lat="44.11878802033527" lon="3.8897761328478553"><ele>288.4</ele><time>2026-04-08T11:24:56Z</time></trkpt><trkpt lat="44.118859315186015" lon="3.889741764069282"><ele>291.2</ele><time>2026-04-08T11:24:57Z</time></trkpt><trkpt lat="44.11892508454385" lon="3.8897223526648927"><ele>294.0</ele><time>2026-04-08T11:25:00Z</time></trkpt><trkpt lat="44.11904939433598" lon="3.889682396121827"><ele>294.0</ele><time>2026-04-08T11:25:09Z</time></trkpt><trkpt lat="44.119123433837295" lon="3.889638373124776"><ele>294.0</ele><time>2026-04-08T11:25:10Z</time></trkpt><trkpt lat="44.119201212786585" lon="3.8895919103919434"><ele>294.0</ele><time>2026-04-08T11:25:11Z</time></trkpt><trkpt lat="44.119289324192806" lon="3.8895417521819415"><ele>294.0</ele><time>2026-04-08T11:25:12Z</time></trkpt><trkpt lat="44.11938955357684" lon="3.8894764522876657"><ele>294.0</ele><time>2026-04-08T11:25:13Z</time></trkpt><trkpt lat="44.119508426763495" lon="3.8894127599253547"><ele>294.0</ele><time>2026-04-08T11:25:14Z</time></trkpt><trkpt lat="44.11962740911762" lon="3.8893588871833984"><ele>294.0</ele><time>2026-04-08T11:25:15Z</time></trkpt><trkpt lat="44.11975379868251" lon="3.889360848190909"><ele>294.0</ele><time>2026-04-08T11:25:16Z</time></trkpt><trkpt lat="44.11986967753645" lon="3.8893249198178257"><ele>294.0</ele><time>2026-04-08T11:25:17Z</time></trkpt><trkpt lat="44.11996425921236" lon="3.8893005741291966"><ele>291.0</ele><time>2026-04-08T11:25:18Z</time></trkpt><trkpt lat="44.12004579574863" lon="3.889285050047067"><ele>288.0</ele><time>2026-04-08T11:25:19Z</time></trkpt><trkpt lat="44.120112146994856" lon="3.8892998260306446"><ele>285.0</ele><time>2026-04-08T11:25:20Z</time></trkpt><trkpt lat="44.120164697390244" lon="3.8893590377917127"><ele>282.0</ele><time>2026-04-08T11:25:21Z</time></trkpt><trkpt lat="44.1202236929043" lon="3.889434938100654"><ele>279.0</ele><time>2026-04-08T11:25:22Z</time></trkpt><trkpt lat="44.120292267843176" lon="3.8895373155976016"><ele>276.0</ele><time>2026-04-08T11:25:23Z</time></trkpt><trkpt lat="44.120361576384795" lon="3.8896549314003637"><ele>276.0</ele><time>2026-04-08T11:25:24Z</time></trkpt><trkpt lat="44.120420477342236" lon="3.8897774783727397"><ele>276.0</ele><time>2026-04-08T11:25:25Z</time></trkpt><trkpt lat="44.1204802628699" lon="3.889904982521778"><ele>276.0</ele><time>2026-04-08T11:25:26Z</time></trkpt><trkpt lat="44.12053838601881" lon="3.8900289413178295"><ele>276.0</ele><time>2026-04-08T11:25:27Z</time></trkpt><trkpt lat="44.120589878846445" lon="3.8901503141127067"><ele>276.0</ele><time>2026-04-08T11:25:28Z</time></trkpt><trkpt lat="44.12062892460429" lon="3.890272148744078"><ele>275.2</ele><time>2026-04-08T11:25:29Z</time></trkpt><trkpt lat="44.12064598200347" lon="3.8903980108677136"><ele>274.40000000000003</ele><time>2026-04-08T11:25:30Z</time></trkpt><trkpt lat="44.12068864046684" lon="3.8905255560918386"><ele>273.6</ele><time>2026-04-08T11:25:31Z</time></trkpt><trkpt lat="44.120742946682014" lon="3.8906450736452824"><ele>272.8</ele><time>2026-04-08T11:25:32Z</time></trkpt><trkpt lat="44.12081259234508" lon="3.890748037922979"><ele>272.0</ele><time>2026-04-08T11:25:33Z</time></trkpt><trkpt lat="44.12090246718933" lon="3.890824162677276"><ele>269.6</ele><time>2026-04-08T11:25:34Z</time></trkpt><trkpt lat="44.12100798074137" lon="3.8908841975088273"><ele>267.2</ele><time>2026-04-08T11:25:35Z</time></trkpt><trkpt lat="44.12110628620228" lon="3.890955793155761"><ele>264.8</ele><time>2026-04-08T11:25:36Z</time></trkpt><trkpt lat="44.121195141628924" lon="3.8910167382447316"><ele>262.4</ele><time>2026-04-08T11:25:37Z</time></trkpt><trkpt lat="44.12125938636423" lon="3.891086430515444"><ele>260.0</ele><time>2026-04-08T11:25:38Z</time></trkpt><trkpt lat="44.12130416717502" lon="3.8911752208484187"><ele>258.00000000000006</ele><time>2026-04-08T11:25:39Z</time></trkpt><trkpt lat="44.12134778020091" lon="3.8912606167472186"><ele>256.0</ele><time>2026-04-08T11:25:40Z</time></trkpt><trkpt lat="44.12140295388637" lon="3.891325578896551"><ele>254.00000000000003</ele><time>2026-04-08T11:25:41Z</time></trkpt><trkpt lat="44.1214597674997" lon="3.8913790150878866"><ele>252.00000000000003</ele><time>2026-04-08T11:25:42Z</time></trkpt><trkpt lat="44.12153486302138" lon="3.8913960079268937"><ele>250.0</ele><time>2026-04-08T11:25:43Z</time></trkpt><trkpt lat="44.121598119668434" lon="3.8913856878206583"><ele>248.00000000000003</ele><time>2026-04-08T11:25:44Z</time></trkpt><trkpt lat="44.121669233951444" lon="3.8913748082873365"><ele>246.00000000000003</ele><time>2026-04-08T11:25:46Z</time></trkpt><trkpt lat="44.12176289602169" lon="3.891333639985366"><ele>245.0</ele><time>2026-04-08T11:25:48Z</time></trkpt><trkpt lat="44.1218675108583" lon="3.891267117106286"><ele>244.0</ele><time>2026-04-08T11:25:50Z</time></trkpt><trkpt lat="44.12196866808352" lon="3.8912210821372244"><ele>243.0</ele><time>2026-04-08T11:25:52Z</time></trkpt><trkpt lat="44.12209138511278" lon="3.891269543799104"><ele>242.0</ele><time>2026-04-08T11:25:54Z</time></trkpt><trkpt lat="44.122184392544334" lon="3.8913324978843162"><ele>242.00000000000003</ele><time>2026-04-08T11:25:55Z</time></trkpt><trkpt lat="44.12226711606535" lon="3.8914228662768107"><ele>242.0</ele><time>2026-04-08T11:25:56Z</time></trkpt><trkpt lat="44.12232110100189" lon="3.891516927699996"><ele>242.0</ele><time>2026-04-08T11:25:57Z</time></trkpt><trkpt lat="44.122363482824255" lon="3.891595028096454"><ele>242.0</ele><time>2026-04-08T11:25:58Z</time></trkpt><trkpt lat="44.122419301705534" lon="3.8917042353569458"><ele>242.00000000000003</ele><time>2026-04-08T11:26:00Z</time></trkpt><trkpt lat="44.12248756055728" lon="3.8917377384445806"><ele>242.0</ele><time>2026-04-08T11:26:02Z</time></trkpt><trkpt lat="44.12258089392524" lon="3.8917986043630495"><ele>239.16666666666669</ele><time>2026-04-08T11:26:04Z</time></trkpt><trkpt lat="44.12264318558846" lon="3.8918326641828846"><ele>236.33333333333334</ele><time>2026-04-08T11:26:05Z</time></trkpt><trkpt lat="44.12270283493891" lon="3.891897897786995"><ele>233.5</ele><time>2026-04-08T11:26:06Z</time></trkpt><trkpt lat="44.122776285246644" lon="3.891939349183812"><ele>230.66666666666669</ele><time>2026-04-08T11:26:07Z</time></trkpt><trkpt lat="44.122833426265025" lon="3.8920204419441906"><ele>227.83333333333334</ele><time>2026-04-08T11:26:08Z</time></trkpt><trkpt lat="44.122882661647154" lon="3.8921011775588648"><ele>225.0</ele><time>2026-04-08T11:26:09Z</time></trkpt><trkpt lat="44.12293513439614" lon="3.8921713252208963"><ele>225.0</ele><time>2026-04-08T11:26:10Z</time></trkpt><trkpt lat="44.122999110850195" lon="3.8922172858801924"><ele>225.0</ele><time>2026-04-08T11:26:11Z</time></trkpt><trkpt lat="44.123068710417265" lon="3.8922487212379684"><ele>225.0</ele><time>2026-04-08T11:26:12Z</time></trkpt><trkpt lat="44.123148731535174" lon="3.8922448778790697"><ele>225.0</ele><time>2026-04-08T11:26:14Z</time></trkpt><trkpt lat="44.12320642447901" lon="3.8921072922324638"><ele>225.0</ele><time>2026-04-08T11:26:16Z</time></trkpt><trkpt lat="44.12318874614699" lon="3.8919319755292463"><ele>225.00000000000003</ele><time>2026-04-08T11:26:18Z</time></trkpt><trkpt lat="44.123176360263535" lon="3.8918424227004755"><ele>225.0</ele><time>2026-04-08T11:26:19Z</time></trkpt><trkpt lat="44.12318948266141" lon="3.8917445822481858"><ele>225.00000000000003</ele><time>2026-04-08T11:26:20Z</time></trkpt><trkpt lat="44.123227923755934" lon="3.89166518655331"><ele>225.00000000000003</ele><time>2026-04-08T11:26:21Z</time></trkpt><trkpt lat="44.12328997993987" lon="3.891628006419693"><ele>225.0</ele><time>2026-04-08T11:26:22Z</time></trkpt><trkpt lat="44.12335469752284" lon="3.891581720803015"><ele>225.00000000000003</ele><time>2026-04-08T11:26:23Z</time></trkpt><trkpt lat="44.123423347202575" lon="3.8915489912417374"><ele>225.00000000000003</ele><time>2026-04-08T11:26:24Z</time></trkpt><trkpt lat="44.12349292208971" lon="3.8915225264126763"><ele>225.6</ele><time>2026-04-08T11:26:25Z</time></trkpt><trkpt lat="44.12355677196262" lon="3.8915240081836"><ele>226.2</ele><time>2026-04-08T11:26:26Z</time></trkpt><trkpt lat="44.123665794807785" lon="3.8915696344415136"><ele>226.8</ele><time>2026-04-08T11:26:28Z</time></trkpt><trkpt lat="44.123731266178105" lon="3.891571712025643"><ele>227.4</ele><time>2026-04-08T11:26:29Z</time></trkpt><trkpt lat="44.12383980566942" lon="3.891577183594855"><ele>228.0</ele><time>2026-04-08T11:26:31Z</time></trkpt><trkpt lat="44.123944929941835" lon="3.8915510950304437"><ele>228.0</ele><time>2026-04-08T11:26:33Z</time></trkpt><trkpt lat="44.12404706680235" lon="3.891493098174621"><ele>228.0</ele><time>2026-04-08T11:26:35Z</time></trkpt><trkpt lat="44.12414170625286" lon="3.8914425748934827"><ele>228.0</ele><time>2026-04-08T11:26:37Z</time></trkpt><trkpt lat="44.12423104697629" lon="3.891399433124826"><ele>228.0</ele><time>2026-04-08T11:26:39Z</time></trkpt><trkpt lat="44.12429867206839" lon="3.8913624738066486"><ele>228.0</ele><time>2026-04-08T11:26:41Z</time></trkpt><trkpt lat="44.12435321011251" lon="3.891297074774903"><ele>227.0</ele><time>2026-04-08T11:26:44Z</time></trkpt><trkpt lat="44.12442167783181" lon="3.891259950630034"><ele>226.0</ele><time>2026-04-08T11:26:51Z</time></trkpt><trkpt lat="44.12448883414096" lon="3.891220789438074"><ele>225.0</ele><time>2026-04-08T11:26:53Z</time></trkpt><trkpt lat="44.12457572102603" lon="3.891165639631816"><ele>224.0</ele><time>2026-04-08T11:26:55Z</time></trkpt><trkpt lat="44.12468005351961" lon="3.8911579429284666"><ele>223.0</ele><time>2026-04-08T11:26:57Z</time></trkpt><trkpt lat="44.1247711435473" lon="3.8912713665634295"><ele>222.99999999999997</ele><time>2026-04-08T11:26:59Z</time></trkpt><trkpt lat="44.124817890502285" lon="3.8913383483452764"><ele>223.0</ele><time>2026-04-08T11:27:00Z</time></trkpt><trkpt lat="44.12489183971276" lon="3.89140803610872"><ele>223.0</ele><time>2026-04-08T11:27:01Z</time></trkpt><trkpt lat="44.12496275707876" lon="3.891441741549943"><ele>223.0</ele><time>2026-04-08T11:27:02Z</time></trkpt><trkpt lat="44.12503077120832" lon="3.891487048383382"><ele>222.99999999999997</ele><time>2026-04-08T11:27:03Z</time></trkpt><trkpt lat="44.125101906608165" lon="3.8915315730343787"><ele>223.0</ele><time>2026-04-08T11:27:04Z</time></trkpt><trkpt lat="44.12517124755205" lon="3.8915706696067165"><ele>222.2</ele><time>2026-04-08T11:27:05Z</time></trkpt><trkpt lat="44.125243306127636" lon="3.8916064509296664"><ele>221.4</ele><time>2026-04-08T11:27:06Z</time></trkpt><trkpt lat="44.12532600777739" lon="3.8916429650306195"><ele>220.59999999999997</ele><time>2026-04-08T11:27:07Z</time></trkpt><trkpt lat="44.12542729996695" lon="3.891679622279725"><ele>219.79999999999998</ele><time>2026-04-08T11:27:08Z</time></trkpt><trkpt lat="44.125527055613944" lon="3.8917228334090703"><ele>219.0</ele><time>2026-04-08T11:27:09Z</time></trkpt><trkpt lat="44.12562804684605" lon="3.8917432024175658"><ele>216.79999999999998</ele><time>2026-04-08T11:27:10Z</time></trkpt><trkpt lat="44.12571806934537" lon="3.891766642060659"><ele>214.59999999999997</ele><time>2026-04-08T11:27:11Z</time></trkpt><trkpt lat="44.12580423551816" lon="3.8917925122809622"><ele>212.4</ele><time>2026-04-08T11:27:12Z</time></trkpt><trkpt lat="44.12586990629398" lon="3.891821866920578"><ele>210.2</ele><time>2026-04-08T11:27:13Z</time></trkpt><trkpt lat="44.12594179072804" lon="3.8919512160480414"><ele>208.0</ele><time>2026-04-08T11:27:15Z</time></trkpt><trkpt lat="44.12592028603437" lon="3.892115518481478"><ele>207.99999999999997</ele><time>2026-04-08T11:27:17Z</time></trkpt><trkpt lat="44.12591164129016" lon="3.892264536329619"><ele>208.0</ele><time>2026-04-08T11:27:19Z</time></trkpt><trkpt lat="44.12590549233383" lon="3.892391507014157"><ele>208.0</ele><time>2026-04-08T11:27:21Z</time></trkpt><trkpt lat="44.1259558512498" lon="3.8924658389912117"><ele>208.0</ele><time>2026-04-08T11:27:22Z</time></trkpt><trkpt lat="44.1259977148397" lon="3.8925445390655753"><ele>207.99999999999997</ele><time>2026-04-08T11:27:23Z</time></trkpt><trkpt lat="44.1260394333793" lon="3.892631547639669"><ele>208.0</ele><time>2026-04-08T11:27:24Z</time></trkpt><trkpt lat="44.12609224409525" lon="3.8927075745199655"><ele>205.66666666666666</ele><time>2026-04-08T11:27:25Z</time></trkpt><trkpt lat="44.12613479282322" lon="3.892789783836407"><ele>203.33333333333331</ele><time>2026-04-08T11:27:26Z</time></trkpt><trkpt lat="44.12617887974602" lon="3.8928569000543103"><ele>201.0</ele><time>2026-04-08T11:27:27Z</time></trkpt><trkpt lat="44.12624710511047" lon="3.8929103852896443"><ele>198.66666666666669</ele><time>2026-04-08T11:27:28Z</time></trkpt><trkpt lat="44.12633572431805" lon="3.892895091352955"><ele>196.33333333333334</ele><time>2026-04-08T11:27:29Z</time></trkpt><trkpt lat="44.12641645165027" lon="3.8929083136943263"><ele>194.0</ele><time>2026-04-08T11:27:30Z</time></trkpt><trkpt lat="44.12649639527196" lon="3.8929020242159673"><ele>194.33333333333334</ele><time>2026-04-08T11:27:31Z</time></trkpt><trkpt lat="44.12658118638418" lon="3.892898495673518"><ele>194.66666666666669</ele><time>2026-04-08T11:27:32Z</time></trkpt><trkpt lat="44.12666833924691" lon="3.892876099402197"><ele>195.0</ele><time>2026-04-08T11:27:33Z</time></trkpt><trkpt lat="44.12675295838134" lon="3.892880318456841"><ele>195.33333333333331</ele><time>2026-04-08T11:27:34Z</time></trkpt><trkpt lat="44.126835285449545" lon="3.892894761109705"><ele>195.66666666666666</ele><time>2026-04-08T11:27:35Z</time></trkpt><trkpt lat="44.126916038070505" lon="3.892888793372267"><ele>196.0</ele><time>2026-04-08T11:27:36Z</time></trkpt><trkpt lat="44.12699412423207" lon="3.892843114391693"><ele>195.99999999999997</ele><time>2026-04-08T11:27:37Z</time></trkpt><trkpt lat="44.127078163927784" lon="3.8928241247174094"><ele>196.0</ele><time>2026-04-08T11:27:38Z</time></trkpt><trkpt lat="44.12717296189543" lon="3.892832669334914"><ele>196.0</ele><time>2026-04-08T11:27:39Z</time></trkpt><trkpt lat="44.127252901048934" lon="3.8928243926712573"><ele>196.0</ele><time>2026-04-08T11:27:40Z</time></trkpt><trkpt lat="44.12732358835439" lon="3.8928170739324366"><ele>195.99999999999997</ele><time>2026-04-08T11:27:41Z</time></trkpt><trkpt lat="44.12739124447471" lon="3.8928069051433845"><ele>196.0</ele><time>2026-04-08T11:27:42Z</time></trkpt><trkpt lat="44.127503559477496" lon="3.892767687213803"><ele>196.0</ele><time>2026-04-08T11:27:44Z</time></trkpt><trkpt lat="44.12755748653064" lon="3.892722410602665"><ele>196.0</ele><time>2026-04-08T11:27:45Z</time></trkpt><trkpt lat="44.127598948449354" lon="3.892642787055505"><ele>196.0</ele><time>2026-04-08T11:27:46Z</time></trkpt><trkpt lat="44.127624716547516" lon="3.892546781758663"><ele>196.0</ele><time>2026-04-08T11:27:47Z</time></trkpt><trkpt lat="44.127644364051704" lon="3.8924472727770025"><ele>196.0</ele><time>2026-04-08T11:27:48Z</time></trkpt><trkpt lat="44.12766453649114" lon="3.8923500782613614"><ele>196.0</ele><time>2026-04-08T11:27:49Z</time></trkpt><trkpt lat="44.12768271408194" lon="3.892255600613495"><ele>196.0</ele><time>2026-04-08T11:27:50Z</time></trkpt><trkpt lat="44.127701240139146" lon="3.8921582362215164"><ele>197.60000000000002</ele><time>2026-04-08T11:27:51Z</time></trkpt><trkpt lat="44.12773457129608" lon="3.8919909439280387"><ele>199.2</ele><time>2026-04-08T11:27:53Z</time></trkpt><trkpt lat="44.12777524063229" lon="3.8918284916248584"><ele>200.8</ele><time>2026-04-08T11:27:55Z</time></trkpt><trkpt lat="44.12779122764002" lon="3.8916652137136736"><ele>202.39999999999998</ele><time>2026-04-08T11:27:57Z</time></trkpt><trkpt lat="44.12776296640724" lon="3.891581949926224"><ele>204.0</ele><time>2026-04-08T11:27:58Z</time></trkpt><trkpt lat="44.12779816894236" lon="3.8914582711710413"><ele>205.16666666666666</ele><time>2026-04-08T11:28:00Z</time></trkpt><trkpt lat="44.12785511272857" lon="3.891379897702631"><ele>206.33333333333331</ele><time>2026-04-08T11:28:02Z</time></trkpt><trkpt lat="44.12793740249796" lon="3.8913415941947442"><ele>207.5</ele><time>2026-04-08T11:28:04Z</time></trkpt><trkpt lat="44.12801203531077" lon="3.891300570688619"><ele>208.66666666666666</ele><time>2026-04-08T11:28:06Z</time></trkpt><trkpt lat="44.12808745528722" lon="3.891260371994012"><ele>209.83333333333331</ele><time>2026-04-08T11:28:08Z</time></trkpt><trkpt lat="44.12816241087072" lon="3.8912248050033056"><ele>211.0</ele><time>2026-04-08T11:28:10Z</time></trkpt><trkpt lat="44.1282319520519" lon="3.8911926787682076"><ele>208.16666666666666</ele><time>2026-04-08T11:28:12Z</time></trkpt><trkpt lat="44.12829797549155" lon="3.8911543496511527"><ele>205.33333333333331</ele><time>2026-04-08T11:28:14Z</time></trkpt><trkpt lat="44.12838135118776" lon="3.8911061753081286"><ele>202.5</ele><time>2026-04-08T11:28:16Z</time></trkpt><trkpt lat="44.12848032052107" lon="3.8910646408116447"><ele>199.66666666666669</ele><time>2026-04-08T11:28:18Z</time></trkpt><trkpt lat="44.12855287105997" lon="3.891024738599757"><ele>196.83333333333334</ele><time>2026-04-08T11:28:20Z</time></trkpt><trkpt lat="44.12861987320852" lon="3.891001203903216"><ele>194.0</ele><time>2026-04-08T11:28:23Z</time></trkpt><trkpt lat="44.12869689409229" lon="3.890991354005192"><ele>194.00000000000003</ele><time>2026-04-08T11:28:27Z</time></trkpt><trkpt lat="44.1287587302737" lon="3.890933738708547"><ele>194.0</ele><time>2026-04-08T11:28:29Z</time></trkpt><trkpt lat="44.1288139445848" lon="3.8908691657703995"><ele>194.0</ele><time>2026-04-08T11:28:32Z</time></trkpt><trkpt lat="44.128863053111395" lon="3.890786975155661"><ele>194.0</ele><time>2026-04-08T11:28:35Z</time></trkpt><trkpt lat="44.128925190016055" lon="3.8907354273269825"><ele>194.00000000000003</ele><time>2026-04-08T11:28:37Z</time></trkpt><trkpt lat="44.128991221595584" lon="3.890660276585534"><ele>194.0</ele><time>2026-04-08T11:28:39Z</time></trkpt><trkpt lat="44.12907322249329" lon="3.890620763101767"><ele>196.2</ele><time>2026-04-08T11:28:41Z</time></trkpt><trkpt lat="44.12915269838944" lon="3.8906043880490455"><ele>198.39999999999998</ele><time>2026-04-08T11:28:43Z</time></trkpt><trkpt lat="44.12924379642804" lon="3.890595721355315"><ele>200.6</ele><time>2026-04-08T11:28:45Z</time></trkpt><trkpt lat="44.12930758698083" lon="3.8905923247201963"><ele>202.8</ele><time>2026-04-08T11:28:46Z</time></trkpt><trkpt lat="44.12943215972765" lon="3.8906153499236464"><ele>205.0</ele><time>2026-04-08T11:28:48Z</time></trkpt><trkpt lat="44.12952376961035" lon="3.8906768230947617"><ele>204.99999999999997</ele><time>2026-04-08T11:28:50Z</time></trkpt><trkpt lat="44.12958811528554" lon="3.890703894887576"><ele>205.0</ele><time>2026-04-08T11:28:52Z</time></trkpt><trkpt lat="44.12968313918565" lon="3.890719470249014"><ele>205.0</ele><time>2026-04-08T11:28:55Z</time></trkpt><trkpt lat="44.12976919239898" lon="3.890759515407217"><ele>205.0</ele><time>2026-04-08T11:28:57Z</time></trkpt><trkpt lat="44.12988759057007" lon="3.8908139721503887"><ele>204.99999999999997</ele><time>2026-04-08T11:28:59Z</time></trkpt><trkpt lat="44.129949423879445" lon="3.890836146450701"><ele>205.0</ele><time>2026-04-08T11:29:00Z</time></trkpt><trkpt lat="44.130008119735045" lon="3.8908877336941425"><ele>206.33333333333331</ele><time>2026-04-08T11:29:01Z</time></trkpt><trkpt lat="44.13011518586333" lon="3.890917707162767"><ele>207.66666666666666</ele><time>2026-04-08T11:29:03Z</time></trkpt><trkpt lat="44.13019417557921" lon="3.890962875374475"><ele>209.0</ele><time>2026-04-08T11:29:05Z</time></trkpt><trkpt lat="44.1302588397013" lon="3.8910206014769058"><ele>210.33333333333331</ele><time>2026-04-08T11:29:10Z</time></trkpt><trkpt lat="44.13032738038141" lon="3.891045330314292"><ele>211.66666666666666</ele><time>2026-04-08T11:29:14Z</time></trkpt><trkpt lat="44.130428200766694" lon="3.8910961853103463"><ele>213.0</ele><time>2026-04-08T11:29:16Z</time></trkpt><trkpt lat="44.13049604669101" lon="3.8911084997981336"><ele>214.2</ele><time>2026-04-08T11:29:17Z</time></trkpt><trkpt lat="44.13057250709193" lon="3.8910845037773885"><ele>215.4</ele><time>2026-04-08T11:29:18Z</time></trkpt><trkpt lat="44.13064467232952" lon="3.8910368521039995"><ele>216.59999999999997</ele><time>2026-04-08T11:29:19Z</time></trkpt><trkpt lat="44.130707794230304" lon="3.8909885020119592"><ele>217.79999999999998</ele><time>2026-04-08T11:29:20Z</time></trkpt><trkpt lat="44.13080592848472" lon="3.8909031274978525"><ele>219.0</ele><time>2026-04-08T11:29:22Z</time></trkpt><trkpt lat="44.13091918981898" lon="3.890821586394313"><ele>219.33333333333334</ele><time>2026-04-08T11:29:24Z</time></trkpt><trkpt lat="44.1309649542469" lon="3.8907290904863814"><ele>219.66666666666669</ele><time>2026-04-08T11:29:25Z</time></trkpt><trkpt lat="44.13103480770098" lon="3.8906554022539503"><ele>220.0</ele><time>2026-04-08T11:29:26Z</time></trkpt><trkpt lat="44.13109067857907" lon="3.890558336257693"><ele>220.33333333333334</ele><time>2026-04-08T11:29:27Z</time></trkpt><trkpt lat="44.131139436961554" lon="3.8904580255507084"><ele>220.66666666666669</ele><time>2026-04-08T11:29:28Z</time></trkpt><trkpt lat="44.13118344826318" lon="3.890357823742103"><ele>221.0</ele><time>2026-04-08T11:29:29Z</time></trkpt><trkpt lat="44.13122987849461" lon="3.8902678950285527"><ele>221.00000000000003</ele><time>2026-04-08T11:29:30Z</time></trkpt><trkpt lat="44.13128169156352" lon="3.89019301111045"><ele>221.0</ele><time>2026-04-08T11:29:31Z</time></trkpt><trkpt lat="44.13135477932842" lon="3.8901417059447607"><ele>221.0</ele><time>2026-04-08T11:29:32Z</time></trkpt><trkpt lat="44.131420028768694" lon="3.890100134633054"><ele>221.0</ele><time>2026-04-08T11:29:33Z</time></trkpt><trkpt lat="44.13148851922486" lon="3.8900568317994457"><ele>221.00000000000003</ele><time>2026-04-08T11:29:34Z</time></trkpt><trkpt lat="44.13156386890728" lon="3.890006093676338"><ele>221.0</ele><time>2026-04-08T11:29:35Z</time></trkpt><trkpt lat="44.13163849363681" lon="3.8899486372748235"><ele>223.16666666666669</ele><time>2026-04-08T11:29:36Z</time></trkpt><trkpt lat="44.131709075962796" lon="3.88986597677321"><ele>225.33333333333334</ele><time>2026-04-08T11:29:37Z</time></trkpt><trkpt lat="44.13179712888515" lon="3.8898034105648067"><ele>227.5</ele><time>2026-04-08T11:29:38Z</time></trkpt><trkpt lat="44.131879649667255" lon="3.889744573094246"><ele>229.66666666666669</ele><time>2026-04-08T11:29:39Z</time></trkpt><trkpt lat="44.131937879039164" lon="3.889683302127463"><ele>231.83333333333334</ele><time>2026-04-08T11:29:40Z</time></trkpt><trkpt lat="44.13200336235095" lon="3.8896192324065444"><ele>234.0</ele><time>2026-04-08T11:29:41Z</time></trkpt><trkpt lat="44.13205830515171" lon="3.8895573116852917"><ele>234.0</ele><time>2026-04-08T11:29:42Z</time></trkpt><trkpt lat="44.1321507339672" lon="3.8894664061303055"><ele>234.0</ele><time>2026-04-08T11:29:44Z</time></trkpt><trkpt lat="44.13221562715084" lon="3.8894477203670927"><ele>234.0</ele><time>2026-04-08T11:29:46Z</time></trkpt><trkpt lat="44.13225336106965" lon="3.889520869783711"><ele>234.0</ele><time>2026-04-08T11:29:49Z</time></trkpt><trkpt lat="44.132339158624255" lon="3.8894216711286362"><ele>234.0</ele><time>2026-04-08T11:29:51Z</time></trkpt><trkpt lat="44.1324057382512" lon="3.889401400748965"><ele>234.0</ele><time>2026-04-08T11:29:53Z</time></trkpt><trkpt lat="44.132489377584164" lon="3.8893174426063695"><ele>234.33333333333334</ele><time>2026-04-08T11:29:55Z</time></trkpt><trkpt lat="44.1324927066539" lon="3.8892187391357433"><ele>234.66666666666669</ele><time>2026-04-08T11:29:56Z</time></trkpt><trkpt lat="44.13244180019162" lon="3.8891123888942563"><ele>235.0</ele><time>2026-04-08T11:29:58Z</time></trkpt><trkpt lat="44.13239338440058" lon="3.889022045591339"><ele>235.33333333333334</ele><time>2026-04-08T11:30:13Z</time></trkpt><trkpt lat="44.13231468724538" lon="3.8890273213760422"><ele>235.66666666666669</ele><time>2026-04-08T11:30:17Z</time></trkpt><trkpt lat="44.132259439863155" lon="3.888971786232818"><ele>236.0</ele><time>2026-04-08T11:30:20Z</time></trkpt><trkpt lat="44.13224417369693" lon="3.8888853115020976"><ele>236.0</ele><time>2026-04-08T11:30:23Z</time></trkpt><trkpt lat="44.13223292116091" lon="3.888787362983179"><ele>236.00000000000003</ele><time>2026-04-08T11:30:26Z</time></trkpt><trkpt lat="44.13223035046978" lon="3.8886560545839046"><ele>236.00000000000003</ele><time>2026-04-08T11:30:29Z</time></trkpt><trkpt lat="44.13217024600999" lon="3.88855021873523"><ele>236.0</ele><time>2026-04-08T11:30:31Z</time></trkpt><trkpt lat="44.13207696273232" lon="3.888467066573132"><ele>236.0</ele><time>2026-04-08T11:30:33Z</time></trkpt><trkpt lat="44.131998140204814" lon="3.8884270874715767"><ele>236.0</ele><time>2026-04-08T11:30:35Z</time></trkpt><trkpt lat="44.13188778564553" lon="3.888399384105023"><ele>236.0</ele><time>2026-04-08T11:30:37Z</time></trkpt><trkpt lat="44.131818806580426" lon="3.888443827292467"><ele>236.0</ele><time>2026-04-08T11:30:40Z</time></trkpt><trkpt lat="44.13182704915284" lon="3.8889551974564354"><ele>236.0</ele><time>2026-04-08T11:30:42Z</time></trkpt><trkpt lat="44.13179318810639" lon="3.889051188163988"><ele>236.00000000000003</ele><time>2026-04-08T11:30:44Z</time></trkpt><trkpt lat="44.131615429430475" lon="3.8888910104033103"><ele>236.00000000000003</ele><time>2026-04-08T11:30:46Z</time></trkpt><trkpt lat="44.13164711886911" lon="3.8889873354813216"><ele>236.0</ele><time>2026-04-08T11:30:48Z</time></trkpt><trkpt lat="44.13157214759335" lon="3.8890298621063826"><ele>236.0</ele><time>2026-04-08T11:30:50Z</time></trkpt><trkpt lat="44.13149507356298" lon="3.888953734342983"><ele>236.83333333333334</ele><time>2026-04-08T11:30:54Z</time></trkpt><trkpt lat="44.13140894866419" lon="3.8888897367940696"><ele>237.66666666666669</ele><time>2026-04-08T11:30:58Z</time></trkpt><trkpt lat="44.13133392878673" lon="3.8888724226400133"><ele>238.5</ele><time>2026-04-08T11:31:00Z</time></trkpt><trkpt lat="44.13126277574409" lon="3.888839033406378"><ele>239.33333333333331</ele><time>2026-04-08T11:31:03Z</time></trkpt><trkpt lat="44.131338006232326" lon="3.888869635334533"><ele>240.16666666666666</ele><time>2026-04-08T11:31:16Z</time></trkpt><trkpt lat="44.13141979592401" lon="3.888897056034989"><ele>241.0</ele><time>2026-04-08T11:31:18Z</time></trkpt><trkpt lat="44.13150060320375" lon="3.8889526071057"><ele>240.0</ele><time>2026-04-08T11:31:20Z</time></trkpt><trkpt lat="44.131573355692204" lon="3.889010239451807"><ele>239.00000000000003</ele><time>2026-04-08T11:31:22Z</time></trkpt><trkpt lat="44.13165923476552" lon="3.8890461433842627"><ele>238.00000000000003</ele><time>2026-04-08T11:31:24Z</time></trkpt><trkpt lat="44.13168674735603" lon="3.8888967103377055"><ele>237.0</ele><time>2026-04-08T11:31:26Z</time></trkpt><trkpt lat="44.13157873423644" lon="3.8889241520726334"><ele>236.0</ele><time>2026-04-08T11:31:28Z</time></trkpt><trkpt lat="44.13172475812865" lon="3.88914589506235"><ele>236.0</ele><time>2026-04-08T11:31:29Z</time></trkpt><trkpt lat="44.131846392271115" lon="3.888796935612965"><ele>236.0</ele><time>2026-04-08T11:31:31Z</time></trkpt><trkpt lat="44.13190280887441" lon="3.8886671978486"><ele>236.0</ele><time>2026-04-08T11:31:33Z</time></trkpt><trkpt lat="44.132003491126866" lon="3.888624684738724"><ele>236.00000000000003</ele><time>2026-04-08T11:31:35Z</time></trkpt><trkpt lat="44.132113400909276" lon="3.888692720106888"><ele>236.0</ele><time>2026-04-08T11:31:37Z</time></trkpt><trkpt lat="44.13218565233602" lon="3.8888080833657614"><ele>236.0</ele><time>2026-04-08T11:31:39Z</time></trkpt><trkpt lat="44.13220873816516" lon="3.8889225066028654"><ele>236.0</ele><time>2026-04-08T11:31:41Z</time></trkpt><trkpt lat="44.132194386547084" lon="3.8890093621289403"><ele>236.00000000000003</ele><time>2026-04-08T11:31:43Z</time></trkpt><trkpt lat="44.13220077741395" lon="3.8891008905433506"><ele>236.0</ele><time>2026-04-08T11:31:46Z</time></trkpt><trkpt lat="44.13226903438137" lon="3.8890831891159854"><ele>236.0</ele><time>2026-04-08T11:43:57Z</time></trkpt><trkpt lat="44.13220762990731" lon="3.889036451370726"><ele>236.0</ele><time>2026-04-08T11:44:58Z</time></trkpt><trkpt lat="44.13226658034558" lon="3.8890691159412185"><ele>236.0</ele><time>2026-04-08T12:06:19Z</time></trkpt><trkpt lat="44.13233409436328" lon="3.8890820231171555"><ele>236.0</ele><time>2026-04-08T12:06:35Z</time></trkpt><trkpt lat="44.13240053471601" lon="3.8891113135063486"><ele>236.0</ele><time>2026-04-08T12:06:39Z</time></trkpt><trkpt lat="44.13248095296053" lon="3.8891718874596948"><ele>236.0</ele><time>2026-04-08T12:06:42Z</time></trkpt><trkpt lat="44.13247790756947" lon="3.8892717095924825"><ele>236.0</ele><time>2026-04-08T12:06:44Z</time></trkpt><trkpt lat="44.13244832470916" lon="3.889356188523873"><ele>235.60000000000002</ele><time>2026-04-08T12:06:46Z</time></trkpt><trkpt lat="44.13236553904142" lon="3.8894197540865756"><ele>235.20000000000002</ele><time>2026-04-08T12:06:49Z</time></trkpt><trkpt lat="44.13229144890123" lon="3.8894348252403113"><ele>234.79999999999998</ele><time>2026-04-08T12:06:52Z</time></trkpt><trkpt lat="44.13219938944939" lon="3.8894523877594156"><ele>234.39999999999998</ele><time>2026-04-08T12:06:55Z</time></trkpt><trkpt lat="44.13211389817776" lon="3.8894849221107783"><ele>234.0</ele><time>2026-04-08T12:06:57Z</time></trkpt><trkpt lat="44.13202970756978" lon="3.8895792359877177"><ele>234.0</ele><time>2026-04-08T12:06:59Z</time></trkpt><trkpt lat="44.131975832144335" lon="3.8896416339430795"><ele>234.0</ele><time>2026-04-08T12:07:00Z</time></trkpt><trkpt lat="44.13197261951161" lon="3.8897737660652902"><ele>234.0</ele><time>2026-04-08T12:07:01Z</time></trkpt><trkpt lat="44.13185769602986" lon="3.8897546695608014"><ele>234.0</ele><time>2026-04-08T12:07:02Z</time></trkpt><trkpt lat="44.13179239641622" lon="3.889800301672498"><ele>234.0</ele><time>2026-04-08T12:07:03Z</time></trkpt><trkpt lat="44.13173158005429" lon="3.8898444584451095"><ele>234.0</ele><time>2026-04-08T12:07:04Z</time></trkpt><trkpt lat="44.13166837309965" lon="3.8898910847522514"><ele>234.0</ele><time>2026-04-08T12:07:05Z</time></trkpt><trkpt lat="44.131605528307894" lon="3.8899215858343212"><ele>234.0</ele><time>2026-04-08T12:07:06Z</time></trkpt><trkpt lat="44.13154835974243" lon="3.8899651783848475"><ele>234.0</ele><time>2026-04-08T12:07:07Z</time></trkpt><trkpt lat="44.13148941286313" lon="3.8900054672926556"><ele>234.0</ele><time>2026-04-08T12:07:08Z</time></trkpt><trkpt lat="44.131429198732306" lon="3.890043537464767"><ele>234.0</ele><time>2026-04-08T12:07:09Z</time></trkpt><trkpt lat="44.13132328399861" lon="3.890130885801344"><ele>234.0</ele><time>2026-04-08T12:07:11Z</time></trkpt><trkpt lat="44.13124495047292" lon="3.89019482535482"><ele>231.83333333333334</ele><time>2026-04-08T12:07:13Z</time></trkpt><trkpt lat="44.13116872706166" lon="3.89030424556886"><ele>229.66666666666669</ele><time>2026-04-08T12:07:15Z</time></trkpt><trkpt lat="44.13113274582394" lon="3.890384465446331"><ele>227.5</ele><time>2026-04-08T12:07:16Z</time></trkpt><trkpt lat="44.13109562333444" lon="3.8904689832941206"><ele>225.33333333333334</ele><time>2026-04-08T12:07:17Z</time></trkpt><trkpt lat="44.13105538978267" lon="3.89054633096754"><ele>223.16666666666669</ele><time>2026-04-08T12:07:18Z</time></trkpt><trkpt lat="44.131012382855026" lon="3.8906205286231885"><ele>221.0</ele><time>2026-04-08T12:07:19Z</time></trkpt><trkpt lat="44.13096154459924" lon="3.8907004461395864"><ele>221.00000000000003</ele><time>2026-04-08T12:07:20Z</time></trkpt><trkpt lat="44.13091852775642" lon="3.8907907460214592"><ele>221.0</ele><time>2026-04-08T12:07:21Z</time></trkpt><trkpt lat="44.130845191838844" lon="3.890841022236604"><ele>221.0</ele><time>2026-04-08T12:07:22Z</time></trkpt><trkpt lat="44.1307788904571" lon="3.8908994596656488"><ele>221.0</ele><time>2026-04-08T12:07:23Z</time></trkpt><trkpt lat="44.130706778490584" lon="3.8909592183273842"><ele>221.00000000000003</ele><time>2026-04-08T12:07:24Z</time></trkpt><trkpt lat="44.130646090720155" lon="3.891034832326035"><ele>221.0</ele><time>2026-04-08T12:07:25Z</time></trkpt><trkpt lat="44.1305716690479" lon="3.8910738395030764"><ele>220.66666666666669</ele><time>2026-04-08T12:07:26Z</time></trkpt><trkpt lat="44.13049608332146" lon="3.891094429736146"><ele>220.33333333333334</ele><time>2026-04-08T12:07:27Z</time></trkpt><trkpt lat="44.130418294882446" lon="3.8910557672745574"><ele>220.0</ele><time>2026-04-08T12:07:28Z</time></trkpt><trkpt lat="44.130346803967484" lon="3.891018806512966"><ele>219.66666666666669</ele><time>2026-04-08T12:07:29Z</time></trkpt><trkpt lat="44.13026828962914" lon="3.8909779695238216"><ele>219.33333333333334</ele><time>2026-04-08T12:07:30Z</time></trkpt><trkpt lat="44.13017992183666" lon="3.890953718608134"><ele>219.0</ele><time>2026-04-08T12:07:31Z</time></trkpt><trkpt lat="44.130096280516845" lon="3.8909063043481704"><ele>218.0</ele><time>2026-04-08T12:07:32Z</time></trkpt><trkpt lat="44.13001204024186" lon="3.8908638098923016"><ele>217.0</ele><time>2026-04-08T12:07:33Z</time></trkpt><trkpt lat="44.12992535641819" lon="3.8908315265893796"><ele>216.0</ele><time>2026-04-08T12:07:34Z</time></trkpt><trkpt lat="44.129847809362566" lon="3.8907636506068886"><ele>215.0</ele><time>2026-04-08T12:07:35Z</time></trkpt><trkpt lat="44.12976404166368" lon="3.890728200590924"><ele>214.0</ele><time>2026-04-08T12:07:36Z</time></trkpt><trkpt lat="44.12968383825112" lon="3.8906954039771624"><ele>213.0</ele><time>2026-04-08T12:07:37Z</time></trkpt><trkpt lat="44.129610487502376" lon="3.89066504667693"><ele>211.66666666666666</ele><time>2026-04-08T12:07:38Z</time></trkpt><trkpt lat="44.12954143214642" lon="3.8906357467717356"><ele>210.33333333333331</ele><time>2026-04-08T12:07:39Z</time></trkpt><trkpt lat="44.12946909629102" lon="3.8906050551857803"><ele>209.0</ele><time>2026-04-08T12:07:40Z</time></trkpt><trkpt lat="44.129392799360076" lon="3.890574628613811"><ele>207.66666666666666</ele><time>2026-04-08T12:07:41Z</time></trkpt><trkpt lat="44.12931067772829" lon="3.8905774987075827"><ele>206.33333333333331</ele><time>2026-04-08T12:07:42Z</time></trkpt><trkpt lat="44.129234685081244" lon="3.89057826453467"><ele>205.0</ele><time>2026-04-08T12:07:43Z</time></trkpt><trkpt lat="44.129164921199106" lon="3.8905924966543246"><ele>203.83333333333331</ele><time>2026-04-08T12:07:44Z</time></trkpt><trkpt lat="44.12904892240771" lon="3.890578822160898"><ele>202.66666666666666</ele><time>2026-04-08T12:07:46Z</time></trkpt><trkpt lat="44.12898827674125" lon="3.890610271265043"><ele>201.5</ele><time>2026-04-08T12:07:47Z</time></trkpt><trkpt lat="44.12892579680247" lon="3.890673458764189"><ele>200.33333333333331</ele><time>2026-04-08T12:07:48Z</time></trkpt><trkpt lat="44.12886896519028" lon="3.8907406865949397"><ele>199.16666666666666</ele><time>2026-04-08T12:07:49Z</time></trkpt><trkpt lat="44.128822050599624" lon="3.8908091083471192"><ele>198.0</ele><time>2026-04-08T12:07:50Z</time></trkpt><trkpt lat="44.1287357867267" lon="3.8909190834909113"><ele>197.33333333333334</ele><time>2026-04-08T12:07:52Z</time></trkpt><trkpt lat="44.12862206357816" lon="3.8909741889633094"><ele>196.66666666666669</ele><time>2026-04-08T12:07:54Z</time></trkpt><trkpt lat="44.12853261068028" lon="3.8910078264463044"><ele>196.0</ele><time>2026-04-08T12:07:56Z</time></trkpt><trkpt lat="44.12846008828072" lon="3.8910393096735114"><ele>195.33333333333334</ele><time>2026-04-08T12:08:01Z</time></trkpt><trkpt lat="44.12839196711774" lon="3.8910733884514572"><ele>194.66666666666669</ele><time>2026-04-08T12:08:04Z</time></trkpt><trkpt lat="44.12832597691984" lon="3.891107286769955"><ele>194.0</ele><time>2026-04-08T12:08:07Z</time></trkpt><trkpt lat="44.12826169105238" lon="3.8911403943744074"><ele>196.42857142857142</ele><time>2026-04-08T12:08:10Z</time></trkpt><trkpt lat="44.12819791028094" lon="3.891173136499263"><ele>198.85714285714286</ele><time>2026-04-08T12:08:13Z</time></trkpt><trkpt lat="44.12813238307362" lon="3.8912065550516783"><ele>201.28571428571428</ele><time>2026-04-08T12:08:18Z</time></trkpt><trkpt lat="44.12806151558406" lon="3.891242697132141"><ele>203.71428571428572</ele><time>2026-04-08T12:08:23Z</time></trkpt><trkpt lat="44.12799302585455" lon="3.8912773746712475"><ele>206.14285714285717</ele><time>2026-04-08T12:08:28Z</time></trkpt><trkpt lat="44.12792953723409" lon="3.891308988127274"><ele>208.57142857142858</ele><time>2026-04-08T12:08:32Z</time></trkpt><trkpt lat="44.127860936634804" lon="3.891346694397467"><ele>211.0</ele><time>2026-04-08T12:08:34Z</time></trkpt><trkpt lat="44.127785577104724" lon="3.8914038829898647"><ele>211.0</ele><time>2026-04-08T12:08:36Z</time></trkpt><trkpt lat="44.12773901935738" lon="3.8915150509360985"><ele>211.0</ele><time>2026-04-08T12:08:38Z</time></trkpt><trkpt lat="44.127750232519176" lon="3.891629984417158"><ele>211.0</ele><time>2026-04-08T12:08:40Z</time></trkpt><trkpt lat="44.1277607382106" lon="3.891758288192323"><ele>211.0</ele><time>2026-04-08T12:08:42Z</time></trkpt><trkpt lat="44.12773453597562" lon="3.8919024609263526"><ele>211.0</ele><time>2026-04-08T12:08:44Z</time></trkpt><trkpt lat="44.12768910620618" lon="3.8920579079432676"><ele>209.83333333333331</ele><time>2026-04-08T12:08:46Z</time></trkpt><trkpt lat="44.12765389647076" lon="3.8922148473242313"><ele>208.66666666666666</ele><time>2026-04-08T12:08:48Z</time></trkpt><trkpt lat="44.127617281790286" lon="3.8923872396428894"><ele>207.5</ele><time>2026-04-08T12:08:50Z</time></trkpt><trkpt lat="44.1276018240357" lon="3.8924766031504587"><ele>206.33333333333331</ele><time>2026-04-08T12:08:51Z</time></trkpt><trkpt lat="44.127584676523504" lon="3.8925654797390328"><ele>205.16666666666666</ele><time>2026-04-08T12:08:52Z</time></trkpt><trkpt lat="44.12756270078017" lon="3.89265185989729"><ele>204.0</ele><time>2026-04-08T12:08:53Z</time></trkpt><trkpt lat="44.12747682732807" lon="3.8927675383065408"><ele>202.39999999999998</ele><time>2026-04-08T12:08:55Z</time></trkpt><trkpt lat="44.127411402654914" lon="3.892756546722812"><ele>200.8</ele><time>2026-04-08T12:08:56Z</time></trkpt><trkpt lat="44.12731041860717" lon="3.8927720790667864"><ele>199.2</ele><time>2026-04-08T12:08:58Z</time></trkpt><trkpt lat="44.12724123304473" lon="3.8927792422934497"><ele>197.60000000000002</ele><time>2026-04-08T12:09:01Z</time></trkpt><trkpt lat="44.12711516065068" lon="3.8927922973622215"><ele>196.0</ele><time>2026-04-08T12:09:05Z</time></trkpt><trkpt lat="44.126994749305844" lon="3.892809149536999"><ele>195.99999999999997</ele><time>2026-04-08T12:09:07Z</time></trkpt><trkpt lat="44.12692507112598" lon="3.892847101774423"><ele>196.0</ele><time>2026-04-08T12:09:08Z</time></trkpt><trkpt lat="44.126848361991016" lon="3.8928682032266657"><ele>196.0</ele><time>2026-04-08T12:09:09Z</time></trkpt><trkpt lat="44.126770434494475" lon="3.8928552930404305"><ele>196.0</ele><time>2026-04-08T12:09:10Z</time></trkpt><trkpt lat="44.12669018967749" lon="3.8928521122394453"><ele>195.99999999999997</ele><time>2026-04-08T12:09:11Z</time></trkpt><trkpt lat="44.12660409289649" lon="3.8928519025759973"><ele>196.0</ele><time>2026-04-08T12:09:12Z</time></trkpt><trkpt lat="44.12651608342786" lon="3.892876017451827"><ele>195.71428571428572</ele><time>2026-04-08T12:09:13Z</time></trkpt><trkpt lat="44.126431595721634" lon="3.8928787906503124"><ele>195.42857142857144</ele><time>2026-04-08T12:09:14Z</time></trkpt><trkpt lat="44.126355673858924" lon="3.8928784545604147"><ele>195.14285714285714</ele><time>2026-04-08T12:09:15Z</time></trkpt><trkpt lat="44.12628835613817" lon="3.89287617443163"><ele>194.85714285714286</ele><time>2026-04-08T12:09:16Z</time></trkpt><trkpt lat="44.12622539989091" lon="3.892849304564189"><ele>194.57142857142858</ele><time>2026-04-08T12:09:17Z</time></trkpt><trkpt lat="44.12616884980594" lon="3.892788855681721"><ele>194.28571428571428</ele><time>2026-04-08T12:09:18Z</time></trkpt><trkpt lat="44.12611689894754" lon="3.8927185781397537"><ele>194.0</ele><time>2026-04-08T12:09:19Z</time></trkpt><trkpt lat="44.12606558672237" lon="3.892642035390406"><ele>196.33333333333334</ele><time>2026-04-08T12:09:20Z</time></trkpt><trkpt lat="44.12601541216126" lon="3.8925607482071847"><ele>198.66666666666669</ele><time>2026-04-08T12:09:21Z</time></trkpt><trkpt lat="44.1259668417083" lon="3.892480375048798"><ele>201.0</ele><time>2026-04-08T12:09:22Z</time></trkpt><trkpt lat="44.125935201902045" lon="3.8923835469006574"><ele>203.33333333333331</ele><time>2026-04-08T12:09:23Z</time></trkpt><trkpt lat="44.12591836352768" lon="3.8922877236529936"><ele>205.66666666666666</ele><time>2026-04-08T12:09:24Z</time></trkpt><trkpt lat="44.12593574331916" lon="3.8922001344999626"><ele>208.0</ele><time>2026-04-08T12:09:25Z</time></trkpt><trkpt lat="44.1259718694691" lon="3.8920485217626193"><ele>207.99999999999997</ele><time>2026-04-08T12:09:27Z</time></trkpt><trkpt lat="44.12595207587823" lon="3.8918727981468098"><ele>208.0</ele><time>2026-04-08T12:09:29Z</time></trkpt><trkpt lat="44.1259039679767" lon="3.89180790982863"><ele>208.0</ele><time>2026-04-08T12:09:30Z</time></trkpt><trkpt lat="44.125843047022045" lon="3.8917643058479072"><ele>208.0</ele><time>2026-04-08T12:09:31Z</time></trkpt><trkpt lat="44.125774561640625" lon="3.891748289684997"><ele>207.99999999999997</ele><time>2026-04-08T12:09:32Z</time></trkpt><trkpt lat="44.12569721549627" lon="3.891741952302309"><ele>208.0</ele><time>2026-04-08T12:09:33Z</time></trkpt><trkpt lat="44.125623954608145" lon="3.8917064607484524"><ele>209.83333333333331</ele><time>2026-04-08T12:09:34Z</time></trkpt><trkpt lat="44.125544783010206" lon="3.891707859377395"><ele>211.66666666666666</ele><time>2026-04-08T12:09:35Z</time></trkpt><trkpt lat="44.12546882186649" lon="3.891671507472767"><ele>213.5</ele><time>2026-04-08T12:09:36Z</time></trkpt><trkpt lat="44.12539267800399" lon="3.891645756229702"><ele>215.33333333333331</ele><time>2026-04-08T12:09:37Z</time></trkpt><trkpt lat="44.12531897465378" lon="3.891619053120661"><ele>217.16666666666666</ele><time>2026-04-08T12:09:38Z</time></trkpt><trkpt lat="44.12524254872675" lon="3.891584841510812"><ele>219.0</ele><time>2026-04-08T12:09:39Z</time></trkpt><trkpt lat="44.12517518948655" lon="3.8915557245642654"><ele>219.0</ele><time>2026-04-08T12:09:40Z</time></trkpt><trkpt lat="44.12510603958283" lon="3.891521038794368"><ele>219.0</ele><time>2026-04-08T12:09:41Z</time></trkpt><trkpt lat="44.12503597075105" lon="3.891479676039704"><ele>219.0</ele><time>2026-04-08T12:09:42Z</time></trkpt><trkpt lat="44.12497095415578" lon="3.8914350233374244"><ele>219.0</ele><time>2026-04-08T12:09:43Z</time></trkpt><trkpt lat="44.12490853340722" lon="3.8913895937831"><ele>219.0</ele><time>2026-04-08T12:09:44Z</time></trkpt><trkpt lat="44.12484984886453" lon="3.891334042619669"><ele>219.0</ele><time>2026-04-08T12:09:45Z</time></trkpt><trkpt lat="44.124797305876065" lon="3.8912615724330504"><ele>219.0</ele><time>2026-04-08T12:09:46Z</time></trkpt><trkpt lat="44.124748355809906" lon="3.89118720519403"><ele>219.79999999999998</ele><time>2026-04-08T12:09:47Z</time></trkpt><trkpt lat="44.12468968338009" lon="3.891132179442627"><ele>220.59999999999997</ele><time>2026-04-08T12:09:48Z</time></trkpt><trkpt lat="44.12456019672999" lon="3.8911231756056406"><ele>221.4</ele><time>2026-04-08T12:09:50Z</time></trkpt><trkpt lat="44.124459171342345" lon="3.8911957245360496"><ele>222.2</ele><time>2026-04-08T12:09:52Z</time></trkpt><trkpt lat="44.1244072053333" lon="3.8912545698903633"><ele>223.0</ele><time>2026-04-08T12:09:53Z</time></trkpt><trkpt lat="44.12433183534661" lon="3.891288075903909"><ele>222.99999999999997</ele><time>2026-04-08T12:09:54Z</time></trkpt><trkpt lat="44.12425843317856" lon="3.891336940309874"><ele>223.0</ele><time>2026-04-08T12:09:55Z</time></trkpt><trkpt lat="44.124179214143375" lon="3.8913747586482534"><ele>223.0</ele><time>2026-04-08T12:09:56Z</time></trkpt><trkpt lat="44.12409948287152" lon="3.8914155897182114"><ele>223.0</ele><time>2026-04-08T12:09:57Z</time></trkpt><trkpt lat="44.124029750831916" lon="3.8914716764922983"><ele>222.99999999999997</ele><time>2026-04-08T12:09:58Z</time></trkpt><trkpt lat="44.12396124126615" lon="3.8915022850756436"><ele>223.0</ele><time>2026-04-08T12:09:59Z</time></trkpt><trkpt lat="44.123900334480716" lon="3.8915311462749993"><ele>223.83333333333331</ele><time>2026-04-08T12:10:00Z</time></trkpt><trkpt lat="44.123784781848606" lon="3.891566376431239"><ele>224.66666666666666</ele><time>2026-04-08T12:10:02Z</time></trkpt><trkpt lat="44.12372208237332" lon="3.8915434812430405"><ele>225.5</ele><time>2026-04-08T12:10:03Z</time></trkpt><trkpt lat="44.123657576876546" lon="3.8915161379138135"><ele>226.33333333333331</ele><time>2026-04-08T12:10:04Z</time></trkpt><trkpt lat="44.12358474826647" lon="3.8914991595851514"><ele>227.16666666666666</ele><time>2026-04-08T12:10:05Z</time></trkpt><trkpt lat="44.1235117571206" lon="3.891486985579481"><ele>228.0</ele><time>2026-04-08T12:10:06Z</time></trkpt><trkpt lat="44.12343382015443" lon="3.8915064497213185"><ele>228.0</ele><time>2026-04-08T12:10:07Z</time></trkpt><trkpt lat="44.12335364990247" lon="3.891540380124008"><ele>228.0</ele><time>2026-04-08T12:10:08Z</time></trkpt><trkpt lat="44.12327809889278" lon="3.8915919486590176"><ele>228.0</ele><time>2026-04-08T12:10:09Z</time></trkpt><trkpt lat="44.12321188416219" lon="3.891651351420859"><ele>228.0</ele><time>2026-04-08T12:10:10Z</time></trkpt><trkpt lat="44.12316629929257" lon="3.8917269217406316"><ele>228.0</ele><time>2026-04-08T12:10:11Z</time></trkpt><trkpt lat="44.12314889550184" lon="3.8918233803478084"><ele>228.0</ele><time>2026-04-08T12:10:12Z</time></trkpt><trkpt lat="44.12316081053197" lon="3.8919175449181926"><ele>227.4</ele><time>2026-04-08T12:10:13Z</time></trkpt><trkpt lat="44.1231857082365" lon="3.8920013675014875"><ele>226.8</ele><time>2026-04-08T12:10:14Z</time></trkpt><trkpt lat="44.12318866850273" lon="3.8921413380951972"><ele>226.2</ele><time>2026-04-08T12:10:16Z</time></trkpt><trkpt lat="44.123124807372236" lon="3.892229562636118"><ele>225.6</ele><time>2026-04-08T12:10:18Z</time></trkpt><trkpt lat="44.12303731429863" lon="3.8922005080509336"><ele>225.0</ele><time>2026-04-08T12:10:20Z</time></trkpt><trkpt lat="44.122945374394796" lon="3.892131308575241"><ele>225.0</ele><time>2026-04-08T12:10:22Z</time></trkpt><trkpt lat="44.12283889955581" lon="3.892020694414056"><ele>225.0</ele><time>2026-04-08T12:10:24Z</time></trkpt><trkpt lat="44.12279079663964" lon="3.891945350096158"><ele>225.0</ele><time>2026-04-08T12:10:25Z</time></trkpt><trkpt lat="44.122730348696145" lon="3.891885000166634"><ele>225.0</ele><time>2026-04-08T12:10:26Z</time></trkpt><trkpt lat="44.12266949382455" lon="3.8918212145030964"><ele>225.0</ele><time>2026-04-08T12:10:27Z</time></trkpt><trkpt lat="44.12259991785109" lon="3.891778030342247"><ele>225.0</ele><time>2026-04-08T12:10:28Z</time></trkpt><trkpt lat="44.12253030025517" lon="3.891737329662748"><ele>227.5</ele><time>2026-04-08T12:10:29Z</time></trkpt><trkpt lat="44.122467748229894" lon="3.8916934927945843"><ele>230.0</ele><time>2026-04-08T12:10:30Z</time></trkpt><trkpt lat="44.122405242827675" lon="3.891649572449375"><ele>232.5</ele><time>2026-04-08T12:10:31Z</time></trkpt><trkpt lat="44.122360931288895" lon="3.8915760369607804"><ele>235.0</ele><time>2026-04-08T12:10:32Z</time></trkpt><trkpt lat="44.12231917989964" lon="3.8914925690785127"><ele>237.5</ele><time>2026-04-08T12:10:33Z</time></trkpt><trkpt lat="44.122269180437655" lon="3.891400919958179"><ele>240.0</ele><time>2026-04-08T12:10:34Z</time></trkpt><trkpt lat="44.12220739010537" lon="3.8913150850294316"><ele>240.28571428571428</ele><time>2026-04-08T12:10:35Z</time></trkpt><trkpt lat="44.122135364169885" lon="3.8912505951502276"><ele>240.57142857142856</ele><time>2026-04-08T12:10:36Z</time></trkpt><trkpt lat="44.12206616777021" lon="3.89120236981372"><ele>240.85714285714283</ele><time>2026-04-08T12:10:37Z</time></trkpt><trkpt lat="44.121997774140745" lon="3.8911737753857256"><ele>241.14285714285714</ele><time>2026-04-08T12:10:38Z</time></trkpt><trkpt lat="44.12193192808847" lon="3.891177970578336"><ele>241.4285714285714</ele><time>2026-04-08T12:10:39Z</time></trkpt><trkpt lat="44.12187112016489" lon="3.8912099347575326"><ele>241.7142857142857</ele><time>2026-04-08T12:10:40Z</time></trkpt><trkpt lat="44.1218197156133" lon="3.8912657660651564"><ele>242.0</ele><time>2026-04-08T12:10:41Z</time></trkpt><trkpt lat="44.12175957957206" lon="3.891295969699773"><ele>242.0</ele><time>2026-04-08T12:10:42Z</time></trkpt><trkpt lat="44.12165195778094" lon="3.8913425183952084"><ele>242.0</ele><time>2026-04-08T12:10:44Z</time></trkpt><trkpt lat="44.121535502645955" lon="3.891371766209721"><ele>242.0</ele><time>2026-04-08T12:10:46Z</time></trkpt><trkpt lat="44.121472577328504" lon="3.8913557362110134"><ele>242.0</ele><time>2026-04-08T12:10:47Z</time></trkpt><trkpt lat="44.12138149693538" lon="3.891265629914319"><ele>242.0</ele><time>2026-04-08T12:10:49Z</time></trkpt><trkpt lat="44.12132822491777" lon="3.8911112080976444"><ele>242.66666666666669</ele><time>2026-04-08T12:10:51Z</time></trkpt><trkpt lat="44.121287368104575" lon="3.89103260879024"><ele>243.33333333333334</ele><time>2026-04-08T12:10:52Z</time></trkpt><trkpt lat="44.12122414779926" lon="3.8909682821974805"><ele>244.0</ele><time>2026-04-08T12:10:53Z</time></trkpt><trkpt lat="44.121148536362924" lon="3.8909199763987523"><ele>244.66666666666669</ele><time>2026-04-08T12:10:54Z</time></trkpt><trkpt lat="44.12106760333684" lon="3.8908689745077463"><ele>245.33333333333334</ele><time>2026-04-08T12:10:55Z</time></trkpt><trkpt lat="44.12098323352502" lon="3.890819478994384"><ele>246.0</ele><time>2026-04-08T12:10:56Z</time></trkpt><trkpt lat="44.1209006678529" lon="3.8907722431668357"><ele>248.8</ele><time>2026-04-08T12:10:57Z</time></trkpt><trkpt lat="44.12082130953332" lon="3.890712053671723"><ele>251.60000000000002</ele><time>2026-04-08T12:10:58Z</time></trkpt><trkpt lat="44.12075585291979" lon="3.89062307740777"><ele>254.4</ele><time>2026-04-08T12:10:59Z</time></trkpt><trkpt lat="44.12070073784927" lon="3.8905247184084066"><ele>257.2</ele><time>2026-04-08T12:11:00Z</time></trkpt><trkpt lat="44.1206619066304" lon="3.890410823442826"><ele>260.0</ele><time>2026-04-08T12:11:01Z</time></trkpt><trkpt lat="44.12063963438414" lon="3.8902880639669126"><ele>262.4</ele><time>2026-04-08T12:11:02Z</time></trkpt><trkpt lat="44.12061620976858" lon="3.8901608106598586"><ele>264.8</ele><time>2026-04-08T12:11:03Z</time></trkpt><trkpt lat="44.12058060086055" lon="3.8900292643406895"><ele>267.2</ele><time>2026-04-08T12:11:04Z</time></trkpt><trkpt lat="44.12052562984538" lon="3.889910439179419"><ele>269.6</ele><time>2026-04-08T12:11:05Z</time></trkpt><trkpt lat="44.120467650125015" lon="3.8897976144567994"><ele>272.0</ele><time>2026-04-08T12:11:06Z</time></trkpt><trkpt lat="44.12041049864056" lon="3.889688665154887"><ele>272.6666666666667</ele><time>2026-04-08T12:11:07Z</time></trkpt><trkpt lat="44.120357797838125" lon="3.8895834654864347"><ele>273.33333333333337</ele><time>2026-04-08T12:11:08Z</time></trkpt><trkpt lat="44.120302882246186" lon="3.88948399785137"><ele>274.0</ele><time>2026-04-08T12:11:09Z</time></trkpt><trkpt lat="44.120241432267626" lon="3.8893990282688082"><ele>274.6666666666667</ele><time>2026-04-08T12:11:10Z</time></trkpt><trkpt lat="44.12018120604852" lon="3.8893246621979167"><ele>275.3333333333333</ele><time>2026-04-08T12:11:11Z</time></trkpt><trkpt lat="44.120120867145815" lon="3.889264822710074"><ele>276.0</ele><time>2026-04-08T12:11:12Z</time></trkpt><trkpt lat="44.12005059842531" lon="3.889241012142644"><ele>276.0</ele><time>2026-04-08T12:11:13Z</time></trkpt><trkpt lat="44.11997967122335" lon="3.889249134073429"><ele>276.0</ele><time>2026-04-08T12:11:14Z</time></trkpt><trkpt lat="44.119908447706074" lon="3.88927019334741"><ele>276.0</ele><time>2026-04-08T12:11:15Z</time></trkpt><trkpt lat="44.119834358579396" lon="3.8892932887380574"><ele>276.0</ele><time>2026-04-08T12:11:16Z</time></trkpt><trkpt lat="44.11975990363322" lon="3.8893152070259767"><ele>276.0</ele><time>2026-04-08T12:11:17Z</time></trkpt><trkpt lat="44.11967596552807" lon="3.8893389859108694"><ele>276.0</ele><time>2026-04-08T12:11:18Z</time></trkpt><trkpt lat="44.11959211284037" lon="3.889373863161136"><ele>279.6</ele><time>2026-04-08T12:11:19Z</time></trkpt><trkpt lat="44.11950526045599" lon="3.8894221382757426"><ele>283.20000000000005</ele><time>2026-04-08T12:11:20Z</time></trkpt><trkpt lat="44.1194166671897" lon="3.8894714917790427"><ele>286.79999999999995</ele><time>2026-04-08T12:11:21Z</time></trkpt><trkpt lat="44.11932952384853" lon="3.889520029494078"><ele>290.4</ele><time>2026-04-08T12:11:22Z</time></trkpt><trkpt lat="44.11924346557337" lon="3.889567315223653"><ele>294.0</ele><time>2026-04-08T12:11:23Z</time></trkpt><trkpt lat="44.1191648035058" lon="3.8896114025908206"><ele>294.0</ele><time>2026-04-08T12:11:24Z</time></trkpt><trkpt lat="44.119093940210455" lon="3.889626515495793"><ele>294.0</ele><time>2026-04-08T12:11:25Z</time></trkpt><trkpt lat="44.119005297000136" lon="3.889674451280314"><ele>294.0</ele><time>2026-04-08T12:11:27Z</time></trkpt><trkpt lat="44.119105120500556" lon="3.889584446964301"><ele>294.0</ele><time>2026-04-08T12:11:45Z</time></trkpt><trkpt lat="44.11916472579159" lon="3.8895498291104924"><ele>294.0</ele><time>2026-04-08T12:11:46Z</time></trkpt><trkpt lat="44.119230003539926" lon="3.889511392110366"><ele>294.0</ele><time>2026-04-08T12:11:47Z</time></trkpt><trkpt lat="44.119304013260546" lon="3.889465754277316"><ele>294.0</ele><time>2026-04-08T12:11:48Z</time></trkpt><trkpt lat="44.11938529674316" lon="3.8893858284994716"><ele>294.0</ele><time>2026-04-08T12:11:49Z</time></trkpt><trkpt lat="44.119476799901435" lon="3.889343370760013"><ele>294.0</ele><time>2026-04-08T12:11:50Z</time></trkpt><trkpt lat="44.11955586076534" lon="3.8892555496202474"><ele>294.0</ele><time>2026-04-08T12:11:51Z</time></trkpt><trkpt lat="44.11962439597442" lon="3.8891516716611414"><ele>294.0</ele><time>2026-04-08T12:11:52Z</time></trkpt><trkpt lat="44.119689337862205" lon="3.8890398833051236"><ele>293.8</ele><time>2026-04-08T12:11:53Z</time></trkpt><trkpt lat="44.11975008418451" lon="3.8889191308420457"><ele>293.59999999999997</ele><time>2026-04-08T12:11:54Z</time></trkpt><trkpt lat="44.11980785687252" lon="3.8887987979372207"><ele>293.4</ele><time>2026-04-08T12:11:55Z</time></trkpt><trkpt lat="44.119862702617574" lon="3.8886751816292007"><ele>293.2</ele><time>2026-04-08T12:11:56Z</time></trkpt><trkpt lat="44.11991022453845" lon="3.8885506109951526"><ele>293.0</ele><time>2026-04-08T12:11:57Z</time></trkpt><trkpt lat="44.11995722846662" lon="3.8884230557285484"><ele>292.83333333333337</ele><time>2026-04-08T12:11:58Z</time></trkpt><trkpt lat="44.11998726547766" lon="3.8883104559430497"><ele>292.6666666666667</ele><time>2026-04-08T12:11:59Z</time></trkpt><trkpt lat="44.12004049785774" lon="3.888228560680292"><ele>292.5</ele><time>2026-04-08T12:12:00Z</time></trkpt><trkpt lat="44.12011188432907" lon="3.88821219791532"><ele>292.3333333333333</ele><time>2026-04-08T12:12:01Z</time></trkpt><trkpt lat="44.12018109854205" lon="3.888217590468042"><ele>292.16666666666663</ele><time>2026-04-08T12:12:02Z</time></trkpt><trkpt lat="44.12026288197406" lon="3.88832427894258"><ele>292.0</ele><time>2026-04-08T12:12:04Z</time></trkpt><trkpt lat="44.12025299996618" lon="3.8885162734344156"><ele>290.0</ele><time>2026-04-08T12:12:06Z</time></trkpt><trkpt lat="44.12021102928845" lon="3.8886173236241075"><ele>288.0</ele><time>2026-04-08T12:12:07Z</time></trkpt><trkpt lat="44.12018963372779" lon="3.888731314805169"><ele>286.0</ele><time>2026-04-08T12:12:08Z</time></trkpt><trkpt lat="44.12019566527019" lon="3.888839744113714"><ele>284.0</ele><time>2026-04-08T12:12:09Z</time></trkpt><trkpt lat="44.12023162456733" lon="3.888932366174746"><ele>282.0</ele><time>2026-04-08T12:12:10Z</time></trkpt><trkpt lat="44.120308277837125" lon="3.8890278279043384"><ele>280.0</ele><time>2026-04-08T12:12:11Z</time></trkpt><trkpt lat="44.12039511963347" lon="3.8891113872542125"><ele>280.0</ele><time>2026-04-08T12:12:12Z</time></trkpt><trkpt lat="44.120469665646816" lon="3.889218890059937"><ele>280.0</ele><time>2026-04-08T12:12:13Z</time></trkpt><trkpt lat="44.12054039599088" lon="3.8893390657596796"><ele>280.0</ele><time>2026-04-08T12:12:14Z</time></trkpt><trkpt lat="44.120597598417056" lon="3.889474107439545"><ele>280.0</ele><time>2026-04-08T12:12:15Z</time></trkpt><trkpt lat="44.1206657588588" lon="3.8895985615124062"><ele>280.0</ele><time>2026-04-08T12:12:16Z</time></trkpt><trkpt lat="44.120752540602325" lon="3.8897022238526606"><ele>279.6</ele><time>2026-04-08T12:12:17Z</time></trkpt><trkpt lat="44.12084427109813" lon="3.8897935496546694"><ele>279.2</ele><time>2026-04-08T12:12:18Z</time></trkpt><trkpt lat="44.12091661912014" lon="3.889903700600478"><ele>278.8</ele><time>2026-04-08T12:12:19Z</time></trkpt><trkpt lat="44.12093184666595" lon="3.8900472954516143"><ele>278.4</ele><time>2026-04-08T12:12:20Z</time></trkpt><trkpt lat="44.12094544113534" lon="3.890176365589947"><ele>278.0</ele><time>2026-04-08T12:12:21Z</time></trkpt><trkpt lat="44.12096382566031" lon="3.890286208830842"><ele>275.0</ele><time>2026-04-08T12:12:22Z</time></trkpt><trkpt lat="44.12101573113758" lon="3.890368806873562"><ele>272.0</ele><time>2026-04-08T12:12:23Z</time></trkpt><trkpt lat="44.12108801222698" lon="3.8904240039928437"><ele>269.0</ele><time>2026-04-08T12:12:24Z</time></trkpt><trkpt lat="44.12117473106491" lon="3.890459869242965"><ele>266.0</ele><time>2026-04-08T12:12:25Z</time></trkpt><trkpt lat="44.121264356041955" lon="3.8904946306669044"><ele>263.0</ele><time>2026-04-08T12:12:26Z</time></trkpt><trkpt lat="44.12135864920174" lon="3.890498229717487"><ele>260.0</ele><time>2026-04-08T12:12:27Z</time></trkpt><trkpt lat="44.12144679145" lon="3.890455004335802"><ele>260.0</ele><time>2026-04-08T12:12:28Z</time></trkpt><trkpt lat="44.12151978995823" lon="3.890367289058188"><ele>260.0</ele><time>2026-04-08T12:12:29Z</time></trkpt><trkpt lat="44.12156668427232" lon="3.890250355768038"><ele>260.0</ele><time>2026-04-08T12:12:30Z</time></trkpt><trkpt lat="44.12159006906382" lon="3.890111219969108"><ele>260.0</ele><time>2026-04-08T12:12:31Z</time></trkpt><trkpt lat="44.121599485535356" lon="3.889955194068382"><ele>260.0</ele><time>2026-04-08T12:12:32Z</time></trkpt><trkpt lat="44.12162743413726" lon="3.889801333697047"><ele>263.2</ele><time>2026-04-08T12:12:33Z</time></trkpt><trkpt lat="44.12164794982914" lon="3.889650075749447"><ele>266.4</ele><time>2026-04-08T12:12:34Z</time></trkpt><trkpt lat="44.12166958327202" lon="3.889501755651578"><ele>269.6</ele><time>2026-04-08T12:12:35Z</time></trkpt><trkpt lat="44.12169880204707" lon="3.889364208671879"><ele>272.8</ele><time>2026-04-08T12:12:36Z</time></trkpt><trkpt lat="44.121739113312934" lon="3.8892353258846777"><ele>276.0</ele><time>2026-04-08T12:12:37Z</time></trkpt><trkpt lat="44.121806960218166" lon="3.889133559882598"><ele>278.0</ele><time>2026-04-08T12:12:38Z</time></trkpt><trkpt lat="44.12188689033864" lon="3.889048213124172"><ele>280.0</ele><time>2026-04-08T12:12:39Z</time></trkpt><trkpt lat="44.12198127217833" lon="3.889018062780292"><ele>282.0</ele><time>2026-04-08T12:12:40Z</time></trkpt><trkpt lat="44.1220750138311" lon="3.889002015199525"><ele>284.0</ele><time>2026-04-08T12:12:41Z</time></trkpt><trkpt lat="44.122157408330324" lon="3.8890640108454626"><ele>286.0</ele><time>2026-04-08T12:12:42Z</time></trkpt><trkpt lat="44.12220379572165" lon="3.889176432688256"><ele>284.3333333333333</ele><time>2026-04-08T12:12:43Z</time></trkpt><trkpt lat="44.12222272188615" lon="3.8892991683680997"><ele>282.66666666666663</ele><time>2026-04-08T12:12:44Z</time></trkpt><trkpt lat="44.122239145482155" lon="3.8894122088848735"><ele>281.0</ele><time>2026-04-08T12:12:45Z</time></trkpt><trkpt lat="44.12226286601156" lon="3.889511567842583"><ele>279.3333333333333</ele><time>2026-04-08T12:12:46Z</time></trkpt><trkpt lat="44.12229783354987" lon="3.889602301991341"><ele>277.6666666666667</ele><time>2026-04-08T12:12:47Z</time></trkpt><trkpt lat="44.12235313610664" lon="3.889666158075694"><ele>276.0</ele><time>2026-04-08T12:12:48Z</time></trkpt><trkpt lat="44.122422796752474" lon="3.889699737626303"><ele>274.1666666666667</ele><time>2026-04-08T12:12:49Z</time></trkpt><trkpt lat="44.122496547111666" lon="3.8897038060714086"><ele>272.3333333333333</ele><time>2026-04-08T12:12:50Z</time></trkpt><trkpt lat="44.12257045972819" lon="3.889686832964633"><ele>270.5</ele><time>2026-04-08T12:12:51Z</time></trkpt><trkpt lat="44.12264118359493" lon="3.889644394892483"><ele>268.66666666666663</ele><time>2026-04-08T12:12:52Z</time></trkpt><trkpt lat="44.12269828931557" lon="3.8895646940330724"><ele>266.8333333333333</ele><time>2026-04-08T12:12:53Z</time></trkpt><trkpt lat="44.12272662823316" lon="3.8894656717374847"><ele>265.0</ele><time>2026-04-08T12:12:54Z</time></trkpt><trkpt lat="44.12274420426552" lon="3.889361203276181"><ele>265.0</ele><time>2026-04-08T12:12:55Z</time></trkpt><trkpt lat="44.122769799022166" lon="3.8892612216629807"><ele>265.0</ele><time>2026-04-08T12:12:56Z</time></trkpt><trkpt lat="44.12279830596275" lon="3.8891609226840003"><ele>265.0</ele><time>2026-04-08T12:12:57Z</time></trkpt><trkpt lat="44.12282968265302" lon="3.8890636073935507"><ele>265.0</ele><time>2026-04-08T12:12:58Z</time></trkpt><trkpt lat="44.12286737779524" lon="3.8889726650918006"><ele>265.0</ele><time>2026-04-08T12:12:59Z</time></trkpt><trkpt lat="44.122916394047145" lon="3.8889083136227405"><ele>265.0</ele><time>2026-04-08T12:13:00Z</time></trkpt><trkpt lat="44.12300352504436" lon="3.888811024621974"><ele>268.0</ele><time>2026-04-08T12:13:02Z</time></trkpt><trkpt lat="44.12310597763234" lon="3.8888066551202005"><ele>271.0</ele><time>2026-04-08T12:13:04Z</time></trkpt><trkpt lat="44.123201183390535" lon="3.8888824805634807"><ele>274.0</ele><time>2026-04-08T12:13:06Z</time></trkpt><trkpt lat="44.12324155903472" lon="3.8889606695131893"><ele>277.0</ele><time>2026-04-08T12:13:07Z</time></trkpt><trkpt lat="44.123280866839465" lon="3.889032474170382"><ele>280.0</ele><time>2026-04-08T12:13:08Z</time></trkpt><trkpt lat="44.12333037675368" lon="3.8890978038677373"><ele>283.0</ele><time>2026-04-08T12:13:09Z</time></trkpt><trkpt lat="44.12338475945061" lon="3.8891631785495746"><ele>283.16666666666663</ele><time>2026-04-08T12:13:10Z</time></trkpt><trkpt lat="44.1234472825432" lon="3.889217013713576"><ele>283.3333333333333</ele><time>2026-04-08T12:13:11Z</time></trkpt><trkpt lat="44.12351849299548" lon="3.889251066763113"><ele>283.5</ele><time>2026-04-08T12:13:12Z</time></trkpt><trkpt lat="44.123592981357724" lon="3.889276558733255"><ele>283.6666666666667</ele><time>2026-04-08T12:13:13Z</time></trkpt><trkpt lat="44.12367355117957" lon="3.889287147069282"><ele>283.83333333333337</ele><time>2026-04-08T12:13:14Z</time></trkpt><trkpt lat="44.123759236478435" lon="3.8892874466609393"><ele>284.0</ele><time>2026-04-08T12:13:15Z</time></trkpt><trkpt lat="44.12384734300162" lon="3.8892764383453122"><ele>284.0</ele><time>2026-04-08T12:13:16Z</time></trkpt><trkpt lat="44.123937813774" lon="3.8892569553615144"><ele>284.0</ele><time>2026-04-08T12:13:17Z</time></trkpt><trkpt lat="44.12402253886699" lon="3.8892400607926096"><ele>284.0</ele><time>2026-04-08T12:13:18Z</time></trkpt><trkpt lat="44.12410881568454" lon="3.8892055630430273"><ele>284.0</ele><time>2026-04-08T12:13:19Z</time></trkpt><trkpt lat="44.124192401618494" lon="3.8891427723567826"><ele>284.0</ele><time>2026-04-08T12:13:20Z</time></trkpt><trkpt lat="44.124279509332126" lon="3.8890915980619662"><ele>285.0</ele><time>2026-04-08T12:13:21Z</time></trkpt><trkpt lat="44.12434368536317" lon="3.8889938576722596"><ele>286.0</ele><time>2026-04-08T12:13:22Z</time></trkpt><trkpt lat="44.12441220581916" lon="3.888906556558682"><ele>287.0</ele><time>2026-04-08T12:13:23Z</time></trkpt><trkpt lat="44.12448138284844" lon="3.8888163964452556"><ele>288.0</ele><time>2026-04-08T12:13:24Z</time></trkpt><trkpt lat="44.124528450682746" lon="3.8887084705930026"><ele>289.0</ele><time>2026-04-08T12:13:25Z</time></trkpt><trkpt lat="44.12457474846812" lon="3.8886085557389434"><ele>289.0</ele><time>2026-04-08T12:13:26Z</time></trkpt><trkpt lat="44.12462391191433" lon="3.8885228849637268"><ele>289.0</ele><time>2026-04-08T12:13:27Z</time></trkpt><trkpt lat="44.124684647307134" lon="3.8884681066791122"><ele>289.0</ele><time>2026-04-08T12:13:28Z</time></trkpt><trkpt lat="44.1247553869576" lon="3.8884421900870705"><ele>289.0</ele><time>2026-04-08T12:13:29Z</time></trkpt><trkpt lat="44.12487811759527" lon="3.888500400821682"><ele>289.0</ele><time>2026-04-08T12:13:31Z</time></trkpt><trkpt lat="44.12494073801102" lon="3.8885632715124325"><ele>289.0</ele><time>2026-04-08T12:13:32Z</time></trkpt><trkpt lat="44.12501181923742" lon="3.8886028485659785"><ele>287.16666666666663</ele><time>2026-04-08T12:13:33Z</time></trkpt><trkpt lat="44.12506971963773" lon="3.888667429431414"><ele>285.3333333333333</ele><time>2026-04-08T12:13:34Z</time></trkpt><trkpt lat="44.1251483078493" lon="3.8887007475296316"><ele>283.5</ele><time>2026-04-08T12:13:35Z</time></trkpt><trkpt lat="44.12523037553573" lon="3.888691625374292"><ele>281.6666666666667</ele><time>2026-04-08T12:13:36Z</time></trkpt><trkpt lat="44.12530717782421" lon="3.888684306948143"><ele>279.83333333333337</ele><time>2026-04-08T12:13:37Z</time></trkpt><trkpt lat="44.12538302971677" lon="3.8886512511862312"><ele>278.0</ele><time>2026-04-08T12:13:38Z</time></trkpt><trkpt lat="44.1254589621903" lon="3.8885973409317938"><ele>278.0</ele><time>2026-04-08T12:13:39Z</time></trkpt><trkpt lat="44.125529840908214" lon="3.8885200194134226"><ele>278.0</ele><time>2026-04-08T12:13:40Z</time></trkpt><trkpt lat="44.12560529130498" lon="3.888447405121707"><ele>278.0</ele><time>2026-04-08T12:13:41Z</time></trkpt><trkpt lat="44.12566335632224" lon="3.888350057251963"><ele>278.0</ele><time>2026-04-08T12:13:42Z</time></trkpt><trkpt lat="44.12572184630374" lon="3.888257257994161"><ele>278.0</ele><time>2026-04-08T12:13:43Z</time></trkpt><trkpt lat="44.125789969997335" lon="3.8881936118587603"><ele>278.0</ele><time>2026-04-08T12:13:44Z</time></trkpt><trkpt lat="44.125868085426035" lon="3.888148085798996"><ele>279.4</ele><time>2026-04-08T12:13:45Z</time></trkpt><trkpt lat="44.12595672656981" lon="3.888086576237733"><ele>280.8</ele><time>2026-04-08T12:13:46Z</time></trkpt><trkpt lat="44.12603675980756" lon="3.8880081649334683"><ele>282.2</ele><time>2026-04-08T12:13:47Z</time></trkpt><trkpt lat="44.126109545267745" lon="3.8879163048069567"><ele>283.6</ele><time>2026-04-08T12:13:48Z</time></trkpt><trkpt lat="44.126179015568354" lon="3.887819955861908"><ele>285.0</ele><time>2026-04-08T12:13:49Z</time></trkpt><trkpt lat="44.12625051724248" lon="3.88771658612354"><ele>285.0</ele><time>2026-04-08T12:13:50Z</time></trkpt><trkpt lat="44.12632066387649" lon="3.8876074939102265"><ele>285.0</ele><time>2026-04-08T12:13:51Z</time></trkpt><trkpt lat="44.126382514572356" lon="3.887487981165381"><ele>285.0</ele><time>2026-04-08T12:13:52Z</time></trkpt><trkpt lat="44.12643292999212" lon="3.887370787708564"><ele>285.0</ele><time>2026-04-08T12:13:53Z</time></trkpt><trkpt lat="44.12643874578661" lon="3.8872370306819"><ele>285.0</ele><time>2026-04-08T12:13:54Z</time></trkpt><trkpt lat="44.12644874874168" lon="3.887120937088428"><ele>287.8333333333333</ele><time>2026-04-08T12:13:55Z</time></trkpt><trkpt lat="44.12640062805199" lon="3.887010811475757"><ele>290.6666666666667</ele><time>2026-04-08T12:13:56Z</time></trkpt><trkpt lat="44.12636212340041" lon="3.886900204540279"><ele>293.5</ele><time>2026-04-08T12:13:57Z</time></trkpt><trkpt lat="44.1263323275287" lon="3.8867870209480047"><ele>296.33333333333337</ele><time>2026-04-08T12:13:58Z</time></trkpt><trkpt lat="44.12630685825062" lon="3.8866716355094693"><ele>299.1666666666667</ele><time>2026-04-08T12:13:59Z</time></trkpt><trkpt lat="44.12629017408191" lon="3.886555210251063"><ele>302.0</ele><time>2026-04-08T12:14:00Z</time></trkpt><trkpt lat="44.12627612938341" lon="3.8864560379999693"><ele>302.00000000000006</ele><time>2026-04-08T12:14:01Z</time></trkpt><trkpt lat="44.12623495504109" lon="3.886372483328694"><ele>302.0</ele><time>2026-04-08T12:14:02Z</time></trkpt><trkpt lat="44.126172254741654" lon="3.8863194761897772"><ele>302.0</ele><time>2026-04-08T12:14:03Z</time></trkpt><trkpt lat="44.126101505764325" lon="3.8863044963457725"><ele>302.0</ele><time>2026-04-08T12:14:04Z</time></trkpt><trkpt lat="44.12603221089883" lon="3.886307489035984"><ele>302.0</ele><time>2026-04-08T12:14:05Z</time></trkpt><trkpt lat="44.12596635777011" lon="3.886285401547041"><ele>302.00000000000006</ele><time>2026-04-08T12:14:06Z</time></trkpt><trkpt lat="44.125907446831555" lon="3.8862391425303167"><ele>302.0</ele><time>2026-04-08T12:14:07Z</time></trkpt><trkpt lat="44.125878436554856" lon="3.8861535098647764"><ele>302.0</ele><time>2026-04-08T12:14:08Z</time></trkpt><trkpt lat="44.125879660405246" lon="3.8859985824710535"><ele>302.0</ele><time>2026-04-08T12:14:10Z</time></trkpt><trkpt lat="44.12590602308102" lon="3.8859165218752265"><ele>302.0</ele><time>2026-04-08T12:14:11Z</time></trkpt><trkpt lat="44.12593390103248" lon="3.8858233877323722"><ele>302.0</ele><time>2026-04-08T12:14:12Z</time></trkpt><trkpt lat="44.125977021136826" lon="3.8857306967287584"><ele>302.0</ele><time>2026-04-08T12:14:13Z</time></trkpt><trkpt lat="44.12599052781092" lon="3.8856120083329535"><ele>302.0</ele><time>2026-04-08T12:14:14Z</time></trkpt><trkpt lat="44.12600375949687" lon="3.885512346950055"><ele>299.6666666666667</ele><time>2026-04-08T12:14:15Z</time></trkpt><trkpt lat="44.12600047965773" lon="3.88540385203826"><ele>297.33333333333337</ele><time>2026-04-08T12:14:16Z</time></trkpt><trkpt lat="44.125974709250585" lon="3.8852928166863263"><ele>295.0</ele><time>2026-04-08T12:14:17Z</time></trkpt><trkpt lat="44.1259306688701" lon="3.885189251092128"><ele>292.6666666666667</ele><time>2026-04-08T12:14:18Z</time></trkpt><trkpt lat="44.12588259537783" lon="3.885081381659881"><ele>290.3333333333333</ele><time>2026-04-08T12:14:19Z</time></trkpt><trkpt lat="44.12583321241996" lon="3.884965279872533"><ele>288.0</ele><time>2026-04-08T12:14:20Z</time></trkpt><trkpt lat="44.125781865621384" lon="3.884849256257322"><ele>291.4</ele><time>2026-04-08T12:14:21Z</time></trkpt><trkpt lat="44.12572506215543" lon="3.8847340987711765"><ele>294.8</ele><time>2026-04-08T12:14:22Z</time></trkpt><trkpt lat="44.125669585812204" lon="3.884608650993247"><ele>298.2</ele><time>2026-04-08T12:14:23Z</time></trkpt><trkpt lat="44.125619433308636" lon="3.8844795615823067"><ele>301.6</ele><time>2026-04-08T12:14:24Z</time></trkpt><trkpt lat="44.12558265429629" lon="3.8843478928538935"><ele>305.0</ele><time>2026-04-08T12:14:25Z</time></trkpt><trkpt lat="44.12555530323495" lon="3.8842264094401737"><ele>305.0</ele><time>2026-04-08T12:14:26Z</time></trkpt><trkpt lat="44.12553633653027" lon="3.8841201404896197"><ele>305.0</ele><time>2026-04-08T12:14:27Z</time></trkpt><trkpt lat="44.12552182168979" lon="3.88402836041764"><ele>305.0</ele><time>2026-04-08T12:14:28Z</time></trkpt><trkpt lat="44.125550634246736" lon="3.883873933772422"><ele>305.0</ele><time>2026-04-08T12:14:30Z</time></trkpt><trkpt lat="44.125631634367174" lon="3.883786788380021"><ele>305.0</ele><time>2026-04-08T12:14:32Z</time></trkpt><trkpt lat="44.12572810368388" lon="3.883798147996427"><ele>301.0</ele><time>2026-04-08T12:14:34Z</time></trkpt><trkpt lat="44.12582430298792" lon="3.8839271079938618"><ele>297.0</ele><time>2026-04-08T12:14:36Z</time></trkpt><trkpt lat="44.12587109658144" lon="3.8840191585983095"><ele>293.0</ele><time>2026-04-08T12:14:37Z</time></trkpt><trkpt lat="44.12591575153356" lon="3.884116330666733"><ele>289.0</ele><time>2026-04-08T12:14:38Z</time></trkpt><trkpt lat="44.125975173239745" lon="3.8842133499117937"><ele>285.0</ele><time>2026-04-08T12:14:39Z</time></trkpt><trkpt lat="44.126059483013506" lon="3.884281451205519"><ele>284.0</ele><time>2026-04-08T12:14:40Z</time></trkpt><trkpt lat="44.12614685480125" lon="3.884335321308721"><ele>283.0</ele><time>2026-04-08T12:14:41Z</time></trkpt><trkpt lat="44.12624122894574" lon="3.8843902611173653"><ele>282.0</ele><time>2026-04-08T12:14:42Z</time></trkpt><trkpt lat="44.126340350280465" lon="3.8844421206516087"><ele>281.0</ele><time>2026-04-08T12:14:43Z</time></trkpt><trkpt lat="44.12644310717737" lon="3.8844911794443675"><ele>280.0</ele><time>2026-04-08T12:14:44Z</time></trkpt><trkpt lat="44.126552300451266" lon="3.8845217417155378"><ele>277.2</ele><time>2026-04-08T12:14:45Z</time></trkpt><trkpt lat="44.12665802445189" lon="3.8845739036613414"><ele>274.4</ele><time>2026-04-08T12:14:46Z</time></trkpt><trkpt lat="44.126760182136216" lon="3.8846430833979997"><ele>271.6</ele><time>2026-04-08T12:14:47Z</time></trkpt><trkpt lat="44.126869588837806" lon="3.8846760958336573"><ele>268.8</ele><time>2026-04-08T12:14:48Z</time></trkpt><trkpt lat="44.12697161237463" lon="3.8847360696375612"><ele>266.0</ele><time>2026-04-08T12:14:49Z</time></trkpt><trkpt lat="44.127070881150686" lon="3.8848100412795343"><ele>266.0</ele><time>2026-04-08T12:14:50Z</time></trkpt><trkpt lat="44.1271599652265" lon="3.8849002273154913"><ele>266.0</ele><time>2026-04-08T12:14:51Z</time></trkpt><trkpt lat="44.127217989636165" lon="3.8850305308185766"><ele>266.0</ele><time>2026-04-08T12:14:52Z</time></trkpt><trkpt lat="44.12727100418919" lon="3.885160827088772"><ele>266.0</ele><time>2026-04-08T12:14:53Z</time></trkpt><trkpt lat="44.12733352165004" lon="3.8852864763066064"><ele>266.0</ele><time>2026-04-08T12:14:54Z</time></trkpt><trkpt lat="44.127373973301914" lon="3.8854123884839717"><ele>264.0</ele><time>2026-04-08T12:14:55Z</time></trkpt><trkpt lat="44.127412564570804" lon="3.885528023650025"><ele>262.0</ele><time>2026-04-08T12:14:56Z</time></trkpt><trkpt lat="44.127452347448504" lon="3.8856207758263093"><ele>260.0</ele><time>2026-04-08T12:14:57Z</time></trkpt><trkpt lat="44.12750747139831" lon="3.8856787889609308"><ele>258.0</ele><time>2026-04-08T12:14:58Z</time></trkpt><trkpt lat="44.12757515975897" lon="3.8856971122250594"><ele>256.0</ele><time>2026-04-08T12:14:59Z</time></trkpt><trkpt lat="44.12764616005718" lon="3.8856657786629647"><ele>254.0</ele><time>2026-04-08T12:15:00Z</time></trkpt><trkpt lat="44.12770245347902" lon="3.8856026686994243"><ele>254.00000000000003</ele><time>2026-04-08T12:15:01Z</time></trkpt><trkpt lat="44.1277525169275" lon="3.8855364753988977"><ele>254.0</ele><time>2026-04-08T12:15:02Z</time></trkpt><trkpt lat="44.12780592290868" lon="3.8854671416790683"><ele>254.0</ele><time>2026-04-08T12:15:03Z</time></trkpt><trkpt lat="44.12786875005794" lon="3.8853915500584884"><ele>254.0</ele><time>2026-04-08T12:15:04Z</time></trkpt><trkpt lat="44.127944707526524" lon="3.8853155396887815"><ele>254.00000000000003</ele><time>2026-04-08T12:15:05Z</time></trkpt><trkpt lat="44.12801789611835" lon="3.88523871611208"><ele>254.0</ele><time>2026-04-08T12:15:06Z</time></trkpt><trkpt lat="44.1280975946983" lon="3.8851589120287247"><ele>257.0</ele><time>2026-04-08T12:15:07Z</time></trkpt><trkpt lat="44.12818446480795" lon="3.885087083748218"><ele>260.0</ele><time>2026-04-08T12:15:08Z</time></trkpt><trkpt lat="44.12827268158557" lon="3.885015887301274"><ele>263.0</ele><time>2026-04-08T12:15:09Z</time></trkpt><trkpt lat="44.12836110586924" lon="3.88493120557921"><ele>266.0</ele><time>2026-04-08T12:15:10Z</time></trkpt><trkpt lat="44.12844382552791" lon="3.8848333487067745"><ele>269.0</ele><time>2026-04-08T12:15:11Z</time></trkpt><trkpt lat="44.12852361615758" lon="3.884731652533967"><ele>269.0</ele><time>2026-04-08T12:15:12Z</time></trkpt><trkpt lat="44.12860482173905" lon="3.884634564842477"><ele>269.0</ele><time>2026-04-08T12:15:13Z</time></trkpt><trkpt lat="44.12868172660921" lon="3.884544182923722"><ele>269.0</ele><time>2026-04-08T12:15:14Z</time></trkpt><trkpt lat="44.12875447103487" lon="3.8844544247943156"><ele>269.0</ele><time>2026-04-08T12:15:15Z</time></trkpt><trkpt lat="44.128810836041474" lon="3.884351817909546"><ele>269.0</ele><time>2026-04-08T12:15:16Z</time></trkpt><trkpt lat="44.1288602458878" lon="3.8842590527828915"><ele>272.6666666666667</ele><time>2026-04-08T12:15:17Z</time></trkpt><trkpt lat="44.12889329952057" lon="3.8841583835044924"><ele>276.33333333333337</ele><time>2026-04-08T12:15:18Z</time></trkpt><trkpt lat="44.12891867440865" lon="3.884067887990888"><ele>280.0</ele><time>2026-04-08T12:15:19Z</time></trkpt><trkpt lat="44.12894043692853" lon="3.8839841732533777"><ele>283.6666666666667</ele><time>2026-04-08T12:15:20Z</time></trkpt><trkpt lat="44.12897042551956" lon="3.883818139140766"><ele>287.3333333333333</ele><time>2026-04-08T12:15:22Z</time></trkpt><trkpt lat="44.12897937362948" lon="3.883729701389475"><ele>291.0</ele><time>2026-04-08T12:15:23Z</time></trkpt><trkpt lat="44.12897080266506" lon="3.8836380345575394"><ele>291.0</ele><time>2026-04-08T12:15:24Z</time></trkpt><trkpt lat="44.12894437105977" lon="3.883545899232073"><ele>291.0</ele><time>2026-04-08T12:15:25Z</time></trkpt><trkpt lat="44.12890383035326" lon="3.8834588179606944"><ele>291.0</ele><time>2026-04-08T12:15:26Z</time></trkpt><trkpt lat="44.12885396470563" lon="3.8833742681194408"><ele>291.0</ele><time>2026-04-08T12:15:27Z</time></trkpt><trkpt lat="44.12881028388462" lon="3.883279037518895"><ele>291.0</ele><time>2026-04-08T12:15:28Z</time></trkpt><trkpt lat="44.12875455463155" lon="3.8831990787005632"><ele>291.0</ele><time>2026-04-08T12:15:29Z</time></trkpt><trkpt lat="44.12868482210024" lon="3.8831382119769398"><ele>290.5</ele><time>2026-04-08T12:15:30Z</time></trkpt><trkpt lat="44.128625035263454" lon="3.8830829881360103"><ele>290.0</ele><time>2026-04-08T12:15:31Z</time></trkpt><trkpt lat="44.12856756004222" lon="3.8830386958587226"><ele>289.5</ele><time>2026-04-08T12:15:32Z</time></trkpt><trkpt lat="44.128491017451246" lon="3.8829342050989895"><ele>289.0</ele><time>2026-04-08T12:15:34Z</time></trkpt><trkpt lat="44.12847814879984" lon="3.882802860936181"><ele>288.5</ele><time>2026-04-08T12:15:36Z</time></trkpt><trkpt lat="44.12851161043762" lon="3.882690974776179"><ele>288.0</ele><time>2026-04-08T12:15:38Z</time></trkpt><trkpt lat="44.1285775101216" lon="3.882638825270241"><ele>288.0</ele><time>2026-04-08T12:15:40Z</time></trkpt><trkpt lat="44.12868384411559" lon="3.882652244490639"><ele>288.0</ele><time>2026-04-08T12:15:42Z</time></trkpt><trkpt lat="44.12879558842456" lon="3.88263901012447"><ele>288.0</ele><time>2026-04-08T12:15:44Z</time></trkpt><trkpt lat="44.1288584413185" lon="3.8826254121610386"><ele>288.0</ele><time>2026-04-08T12:15:45Z</time></trkpt><trkpt lat="44.12896354477992" lon="3.8825837359969024"><ele>288.0</ele><time>2026-04-08T12:15:47Z</time></trkpt><trkpt lat="44.12902494686167" lon="3.882562216124583"><ele>284.6666666666667</ele><time>2026-04-08T12:15:48Z</time></trkpt><trkpt lat="44.1290885376194" lon="3.882529949270871"><ele>281.3333333333333</ele><time>2026-04-08T12:15:49Z</time></trkpt><trkpt lat="44.12915398483949" lon="3.882494375380144"><ele>278.0</ele><time>2026-04-08T12:15:50Z</time></trkpt><trkpt lat="44.129223146650325" lon="3.8824674389077654"><ele>274.66666666666663</ele><time>2026-04-08T12:15:51Z</time></trkpt><trkpt lat="44.12929684483297" lon="3.8824602790996803"><ele>271.3333333333333</ele><time>2026-04-08T12:15:52Z</time></trkpt><trkpt lat="44.12937978477551" lon="3.8824758639895522"><ele>268.0</ele><time>2026-04-08T12:15:53Z</time></trkpt><trkpt lat="44.129461555832535" lon="3.8824976580677855"><ele>268.0</ele><time>2026-04-08T12:15:54Z</time></trkpt><trkpt lat="44.129555079551274" lon="3.8825141557510783"><ele>268.0</ele><time>2026-04-08T12:15:55Z</time></trkpt><trkpt lat="44.12964758632952" lon="3.8824885958729647"><ele>268.0</ele><time>2026-04-08T12:15:56Z</time></trkpt><trkpt lat="44.12973657113603" lon="3.882463405322321"><ele>268.0</ele><time>2026-04-08T12:15:57Z</time></trkpt><trkpt lat="44.129829802486285" lon="3.882432984005492"><ele>268.0</ele><time>2026-04-08T12:15:58Z</time></trkpt><trkpt lat="44.12991598097427" lon="3.8824046026772008"><ele>265.8571428571429</ele><time>2026-04-08T12:15:59Z</time></trkpt><trkpt lat="44.129989986625645" lon="3.8823549489612565"><ele>263.7142857142857</ele><time>2026-04-08T12:16:00Z</time></trkpt><trkpt lat="44.13005770552109" lon="3.882305592260045"><ele>261.57142857142856</ele><time>2026-04-08T12:16:01Z</time></trkpt><trkpt lat="44.13010840189925" lon="3.8822341743876754"><ele>259.42857142857144</ele><time>2026-04-08T12:16:02Z</time></trkpt><trkpt lat="44.130136119943906" lon="3.882148035727573"><ele>257.2857142857143</ele><time>2026-04-08T12:16:03Z</time></trkpt><trkpt lat="44.13013066866116" lon="3.8820523144044543"><ele>255.14285714285717</ele><time>2026-04-08T12:16:04Z</time></trkpt><trkpt lat="44.13014787033221" lon="3.8819599348119227"><ele>253.00000000000003</ele><time>2026-04-08T12:16:05Z</time></trkpt><trkpt lat="44.13015374659013" lon="3.881871345705527"><ele>252.99999999999997</ele><time>2026-04-08T12:16:06Z</time></trkpt><trkpt lat="44.13021844635738" lon="3.8818094938483956"><ele>253.0</ele><time>2026-04-08T12:16:08Z</time></trkpt><trkpt lat="44.13029366897921" lon="3.8818001108051945"><ele>253.0</ele><time>2026-04-08T12:16:10Z</time></trkpt><trkpt lat="44.13037820520323" lon="3.8818465501685573"><ele>253.0</ele><time>2026-04-08T12:16:11Z</time></trkpt><trkpt lat="44.13044917340613" lon="3.8819133363696494"><ele>252.99999999999997</ele><time>2026-04-08T12:16:12Z</time></trkpt><trkpt lat="44.13052183688256" lon="3.8819905704622384"><ele>253.0</ele><time>2026-04-08T12:16:13Z</time></trkpt><trkpt lat="44.13060510286034" lon="3.8820437031434345"><ele>253.0</ele><time>2026-04-08T12:16:14Z</time></trkpt><trkpt lat="44.13068710640476" lon="3.8820786499013114"><ele>253.0</ele><time>2026-04-08T12:16:15Z</time></trkpt><trkpt lat="44.130775359285686" lon="3.8820915770026114"><ele>253.0</ele><time>2026-04-08T12:16:16Z</time></trkpt><trkpt lat="44.13086490652772" lon="3.8820761144750215"><ele>253.0</ele><time>2026-04-08T12:16:17Z</time></trkpt><trkpt lat="44.130958636166994" lon="3.882042409951531"><ele>253.0</ele><time>2026-04-08T12:16:18Z</time></trkpt><trkpt lat="44.13105534057732" lon="3.8819881513425085"><ele>250.33333333333331</ele><time>2026-04-08T12:16:19Z</time></trkpt><trkpt lat="44.13115388575682" lon="3.881930494803338"><ele>247.66666666666666</ele><time>2026-04-08T12:16:20Z</time></trkpt><trkpt lat="44.13123902756399" lon="3.881869517365069"><ele>245.0</ele><time>2026-04-08T12:16:21Z</time></trkpt><trkpt lat="44.13132103287198" lon="3.8818093406648235"><ele>242.33333333333331</ele><time>2026-04-08T12:16:22Z</time></trkpt><trkpt lat="44.13138834462589" lon="3.8817456186998283"><ele>239.66666666666666</ele><time>2026-04-08T12:16:23Z</time></trkpt><trkpt lat="44.1314380910164" lon="3.881677644928721"><ele>237.0</ele><time>2026-04-08T12:16:24Z</time></trkpt><trkpt lat="44.131480271236825" lon="3.8815663081352545"><ele>239.5</ele><time>2026-04-08T12:16:26Z</time></trkpt><trkpt lat="44.1315316346243" lon="3.8815045796381464"><ele>242.0</ele><time>2026-04-08T12:16:28Z</time></trkpt><trkpt lat="44.131606131198964" lon="3.8814472762447605"><ele>244.5</ele><time>2026-04-08T12:16:30Z</time></trkpt><trkpt lat="44.131722925482805" lon="3.8814490029393247"><ele>247.0</ele><time>2026-04-08T12:16:32Z</time></trkpt><trkpt lat="44.1317983409688" lon="3.881438598132487"><ele>249.5</ele><time>2026-04-08T12:16:33Z</time></trkpt><trkpt lat="44.13188027315696" lon="3.8814065697679556"><ele>252.0</ele><time>2026-04-08T12:16:34Z</time></trkpt><trkpt lat="44.13197314658042" lon="3.8814006538789623"><ele>252.0</ele><time>2026-04-08T12:16:35Z</time></trkpt><trkpt lat="44.13207101793682" lon="3.8814062000079654"><ele>252.0</ele><time>2026-04-08T12:16:36Z</time></trkpt><trkpt lat="44.13216733043168" lon="3.8814482539350994"><ele>252.0</ele><time>2026-04-08T12:16:37Z</time></trkpt><trkpt lat="44.132266318970636" lon="3.8814578413756946"><ele>252.0</ele><time>2026-04-08T12:16:38Z</time></trkpt><trkpt lat="44.13236516224273" lon="3.8814825676442655"><ele>252.0</ele><time>2026-04-08T12:16:39Z</time></trkpt><trkpt lat="44.13246763358229" lon="3.8814960547914374"><ele>250.6</ele><time>2026-04-08T12:16:40Z</time></trkpt><trkpt lat="44.132568199321575" lon="3.881511783045713"><ele>249.2</ele><time>2026-04-08T12:16:41Z</time></trkpt><trkpt lat="44.132666830792594" lon="3.8815175524284777"><ele>247.8</ele><time>2026-04-08T12:16:42Z</time></trkpt><trkpt lat="44.132765834732055" lon="3.8815178602327216"><ele>246.4</ele><time>2026-04-08T12:16:43Z</time></trkpt><trkpt lat="44.13286336894092" lon="3.8815135545337194"><ele>245.0</ele><time>2026-04-08T12:16:44Z</time></trkpt><trkpt lat="44.13295909972991" lon="3.8814868643474894"><ele>245.0</ele><time>2026-04-08T12:16:45Z</time></trkpt><trkpt lat="44.13305561691218" lon="3.8814634336615215"><ele>245.0</ele><time>2026-04-08T12:16:46Z</time></trkpt><trkpt lat="44.13313334367114" lon="3.88137138190233"><ele>245.0</ele><time>2026-04-08T12:16:47Z</time></trkpt><trkpt lat="44.13321118950161" lon="3.8812899881589917"><ele>245.0</ele><time>2026-04-08T12:16:48Z</time></trkpt><trkpt lat="44.13328381730125" lon="3.8811950446629764"><ele>245.0</ele><time>2026-04-08T12:16:49Z</time></trkpt><trkpt lat="44.13335080064358" lon="3.881096582518025"><ele>245.00000000000003</ele><time>2026-04-08T12:16:50Z</time></trkpt><trkpt lat="44.13340682069568" lon="3.880993188685343"><ele>245.0</ele><time>2026-04-08T12:16:51Z</time></trkpt><trkpt lat="44.133446481086516" lon="3.880881627501518"><ele>245.0</ele><time>2026-04-08T12:16:52Z</time></trkpt><trkpt lat="44.13346686460244" lon="3.8807584571606726"><ele>245.0</ele><time>2026-04-08T12:16:53Z</time></trkpt><trkpt lat="44.133471750524" lon="3.880642918637072"><ele>245.00000000000003</ele><time>2026-04-08T12:16:54Z</time></trkpt><trkpt lat="44.133473371783644" lon="3.8805368255057635"><ele>245.0</ele><time>2026-04-08T12:16:55Z</time></trkpt><trkpt lat="44.133494549206816" lon="3.8804539592815828"><ele>245.0</ele><time>2026-04-08T12:16:56Z</time></trkpt><trkpt lat="44.133502440327746" lon="3.8803323770746307"><ele>245.0</ele><time>2026-04-08T12:16:58Z</time></trkpt><trkpt lat="44.133561934828876" lon="3.8802388829314443"><ele>245.0</ele><time>2026-04-08T12:17:00Z</time></trkpt><trkpt lat="44.13355005357732" lon="3.8801052033021945"><ele>245.0</ele><time>2026-04-08T12:17:02Z</time></trkpt><trkpt lat="44.133544361361416" lon="3.8799676188221808"><ele>245.0</ele><time>2026-04-08T12:17:04Z</time></trkpt><trkpt lat="44.13358056909888" lon="3.879814467608926"><ele>246.66666666666669</ele><time>2026-04-08T12:17:06Z</time></trkpt><trkpt lat="44.133632219425316" lon="3.879733423876898"><ele>248.33333333333334</ele><time>2026-04-08T12:17:08Z</time></trkpt><trkpt lat="44.13371179359205" lon="3.879759662760012"><ele>250.0</ele><time>2026-04-08T12:17:11Z</time></trkpt><trkpt lat="44.1337909630331" lon="3.879770119256679"><ele>251.66666666666669</ele><time>2026-04-08T12:17:14Z</time></trkpt><trkpt lat="44.13386115530491" lon="3.8797855211808128"><ele>253.33333333333334</ele><time>2026-04-08T12:17:16Z</time></trkpt><trkpt lat="44.13392942878278" lon="3.879783525158313"><ele>255.0</ele><time>2026-04-08T12:17:19Z</time></trkpt><trkpt lat="44.13385579668887" lon="3.879769581693453"><ele>255.0</ele><time>2026-04-08T12:17:27Z</time></trkpt><trkpt lat="44.133783657959206" lon="3.8797568322272626"><ele>255.0</ele><time>2026-04-08T12:17:31Z</time></trkpt><trkpt lat="44.13371319665185" lon="3.8797597949104037"><ele>255.0</ele><time>2026-04-08T12:17:39Z</time></trkpt><trkpt lat="44.133741670951295" lon="3.879436254959133"><ele>255.0</ele><time>2026-04-08T12:17:42Z</time></trkpt><trkpt lat="44.133769033895724" lon="3.87934656305325"><ele>255.0</ele><time>2026-04-08T12:18:03Z</time></trkpt><trkpt lat="44.13379182209356" lon="3.8792388300184455"><ele>255.33333333333334</ele><time>2026-04-08T12:18:05Z</time></trkpt><trkpt lat="44.133853105227615" lon="3.8791963035241297"><ele>255.66666666666669</ele><time>2026-04-08T12:18:06Z</time></trkpt><trkpt lat="44.13389854507282" lon="3.8791198501026667"><ele>256.0</ele><time>2026-04-08T12:18:07Z</time></trkpt><trkpt lat="44.13395456909128" lon="3.879062783441424"><ele>256.33333333333337</ele><time>2026-04-08T12:18:08Z</time></trkpt><trkpt lat="44.13402683338136" lon="3.8790283652572843"><ele>256.6666666666667</ele><time>2026-04-08T12:18:09Z</time></trkpt><trkpt lat="44.13410814131255" lon="3.8790324737031807"><ele>257.0</ele><time>2026-04-08T12:18:10Z</time></trkpt><trkpt lat="44.13418979311238" lon="3.8790534028931596"><ele>250.0</ele><time>2026-04-08T12:18:11Z</time></trkpt><trkpt lat="44.134568814923746" lon="3.879081781712507"><ele>243.0</ele><time>2026-04-08T12:18:15Z</time></trkpt><trkpt lat="44.13465011376302" lon="3.879043747692783"><ele>243.0</ele><time>2026-04-08T12:18:16Z</time></trkpt><trkpt lat="44.13472572815672" lon="3.878970698558472"><ele>243.0</ele><time>2026-04-08T12:18:17Z</time></trkpt><trkpt lat="44.13479642571801" lon="3.878872693715313"><ele>243.0</ele><time>2026-04-08T12:18:18Z</time></trkpt><trkpt lat="44.134858209829716" lon="3.8787546125928007"><ele>243.0</ele><time>2026-04-08T12:18:19Z</time></trkpt><trkpt lat="44.134919342265604" lon="3.878627363177603"><ele>243.0</ele><time>2026-04-08T12:18:20Z</time></trkpt><trkpt lat="44.13497677211538" lon="3.878494117160324"><ele>241.0</ele><time>2026-04-08T12:18:21Z</time></trkpt><trkpt lat="44.13502914297796" lon="3.878357869717981"><ele>239.0</ele><time>2026-04-08T12:18:22Z</time></trkpt><trkpt lat="44.13507298667299" lon="3.878222553989691"><ele>237.0</ele><time>2026-04-08T12:18:23Z</time></trkpt><trkpt lat="44.13510795835718" lon="3.878091253774499"><ele>235.0</ele><time>2026-04-08T12:18:24Z</time></trkpt><trkpt lat="44.1351418362034" lon="3.87796301362108"><ele>233.0</ele><time>2026-04-08T12:18:25Z</time></trkpt><trkpt lat="44.13517150684413" lon="3.877837852248188"><ele>233.0</ele><time>2026-04-08T12:18:26Z</time></trkpt><trkpt lat="44.1351981183717" lon="3.8777074936931695"><ele>233.0</ele><time>2026-04-08T12:18:27Z</time></trkpt><trkpt lat="44.13522145905065" lon="3.877578570988546"><ele>233.0</ele><time>2026-04-08T12:18:28Z</time></trkpt><trkpt lat="44.13524062432523" lon="3.877448335467686"><ele>233.0</ele><time>2026-04-08T12:18:29Z</time></trkpt><trkpt lat="44.13525328665445" lon="3.8773084488383236"><ele>233.0</ele><time>2026-04-08T12:18:30Z</time></trkpt><trkpt lat="44.13526071478384" lon="3.8771593014728416"><ele>236.8</ele><time>2026-04-08T12:18:31Z</time></trkpt><trkpt lat="44.13526689085676" lon="3.8770050155944173"><ele>240.60000000000002</ele><time>2026-04-08T12:18:32Z</time></trkpt><trkpt lat="44.135271782533174" lon="3.8768515260341645"><ele>244.39999999999998</ele><time>2026-04-08T12:18:33Z</time></trkpt><trkpt lat="44.1352794824767" lon="3.876699520470023"><ele>248.2</ele><time>2026-04-08T12:18:34Z</time></trkpt><trkpt lat="44.13529377929451" lon="3.876551510063167"><ele>252.0</ele><time>2026-04-08T12:18:35Z</time></trkpt><trkpt lat="44.13531777078201" lon="3.8764022928107287"><ele>252.6</ele><time>2026-04-08T12:18:36Z</time></trkpt><trkpt lat="44.13534137560509" lon="3.8762564744088395"><ele>253.2</ele><time>2026-04-08T12:18:37Z</time></trkpt><trkpt lat="44.135367780652714" lon="3.87611451438543"><ele>253.8</ele><time>2026-04-08T12:18:38Z</time></trkpt><trkpt lat="44.135384448845905" lon="3.8759699341315135"><ele>254.4</ele><time>2026-04-08T12:18:39Z</time></trkpt><trkpt lat="44.13539294520633" lon="3.8758259095979457"><ele>255.0</ele><time>2026-04-08T12:18:40Z</time></trkpt><trkpt lat="44.135396311541506" lon="3.8756727305830645"><ele>255.5</ele><time>2026-04-08T12:18:41Z</time></trkpt><trkpt lat="44.13540270652955" lon="3.875510707245313"><ele>256.0</ele><time>2026-04-08T12:18:42Z</time></trkpt><trkpt lat="44.13542010593952" lon="3.875344042648041"><ele>256.5</ele><time>2026-04-08T12:18:43Z</time></trkpt><trkpt lat="44.13545410662058" lon="3.8751764527982773"><ele>257.0</ele><time>2026-04-08T12:18:44Z</time></trkpt><trkpt lat="44.13549734354739" lon="3.875015916722765"><ele>257.0</ele><time>2026-04-08T12:18:45Z</time></trkpt><trkpt lat="44.13555207157907" lon="3.874865490778609"><ele>257.0</ele><time>2026-04-08T12:18:46Z</time></trkpt><trkpt lat="44.135625265514214" lon="3.874732481023873"><ele>257.0</ele><time>2026-04-08T12:18:47Z</time></trkpt><trkpt lat="44.13571148679251" lon="3.874619946398222"><ele>257.0</ele><time>2026-04-08T12:18:48Z</time></trkpt><trkpt lat="44.135797369790005" lon="3.8745125501343174"><ele>249.0</ele><time>2026-04-08T12:18:49Z</time></trkpt><trkpt lat="44.13587164160731" lon="3.8743927393586617"><ele>241.0</ele><time>2026-04-08T12:18:50Z</time></trkpt><trkpt lat="44.135923448172356" lon="3.874250695452288"><ele>233.0</ele><time>2026-04-08T12:18:51Z</time></trkpt><trkpt lat="44.135931851485296" lon="3.8740938505024043"><ele>225.0</ele><time>2026-04-08T12:18:52Z</time></trkpt><trkpt lat="44.135902454878185" lon="3.8739465033232525"><ele>225.0</ele><time>2026-04-08T12:18:53Z</time></trkpt><trkpt lat="44.135844653706656" lon="3.8738062774738706"><ele>225.0</ele><time>2026-04-08T12:18:54Z</time></trkpt><trkpt lat="44.135777682748945" lon="3.8736617715248247"><ele>225.0</ele><time>2026-04-08T12:18:55Z</time></trkpt><trkpt lat="44.13571552120273" lon="3.8735062897090415"><ele>225.0</ele><time>2026-04-08T12:18:56Z</time></trkpt><trkpt lat="44.135657088131495" lon="3.8733528913512765"><ele>229.25</ele><time>2026-04-08T12:18:57Z</time></trkpt><trkpt lat="44.13560009500845" lon="3.873197469183405"><ele>233.5</ele><time>2026-04-08T12:18:58Z</time></trkpt><trkpt lat="44.13554554480804" lon="3.87304067344321"><ele>237.75</ele><time>2026-04-08T12:18:59Z</time></trkpt><trkpt lat="44.13549469314654" lon="3.872884792885632"><ele>242.0</ele><time>2026-04-08T12:19:00Z</time></trkpt><trkpt lat="44.13543701244446" lon="3.8727364370520974"><ele>242.0</ele><time>2026-04-08T12:19:01Z</time></trkpt><trkpt lat="44.13535994989398" lon="3.8726073706722155"><ele>242.0</ele><time>2026-04-08T12:19:02Z</time></trkpt><trkpt lat="44.13526817638559" lon="3.8725001527384455"><ele>242.0</ele><time>2026-04-08T12:19:03Z</time></trkpt><trkpt lat="44.13517316261735" lon="3.8724039079174553"><ele>242.0</ele><time>2026-04-08T12:19:04Z</time></trkpt><trkpt lat="44.13508298695731" lon="3.872310310222074"><ele>241.00000000000003</ele><time>2026-04-08T12:19:05Z</time></trkpt><trkpt lat="44.1350131885184" lon="3.872224741465618"><ele>240.0</ele><time>2026-04-08T12:19:06Z</time></trkpt><trkpt lat="44.13497863821813" lon="3.8721185289527402"><ele>239.0</ele><time>2026-04-08T12:19:07Z</time></trkpt><trkpt lat="44.134972957983635" lon="3.872003927605864"><ele>238.0</ele><time>2026-04-08T12:19:08Z</time></trkpt><trkpt lat="44.134994344545596" lon="3.8718940383139424"><ele>237.00000000000003</ele><time>2026-04-08T12:19:09Z</time></trkpt><trkpt lat="44.13505638843997" lon="3.8718194373346493"><ele>236.0</ele><time>2026-04-08T12:19:10Z</time></trkpt><trkpt lat="44.1351077268415" lon="3.8717415590628694"><ele>236.0</ele><time>2026-04-08T12:19:11Z</time></trkpt><trkpt lat="44.135189574344395" lon="3.8717476838074925"><ele>236.00000000000003</ele><time>2026-04-08T12:19:12Z</time></trkpt><trkpt lat="44.13526981401459" lon="3.871737893112417"><ele>236.00000000000003</ele><time>2026-04-08T12:19:13Z</time></trkpt><trkpt lat="44.13535201771836" lon="3.8717886831403994"><ele>236.0</ele><time>2026-04-08T12:19:14Z</time></trkpt><trkpt lat="44.13543606334261" lon="3.871847102741486"><ele>236.0</ele><time>2026-04-08T12:19:15Z</time></trkpt><trkpt lat="44.13552913540881" lon="3.8719124883750373"><ele>236.0</ele><time>2026-04-08T12:19:16Z</time></trkpt><trkpt lat="44.135630067509695" lon="3.871986107502008"><ele>236.0</ele><time>2026-04-08T12:19:17Z</time></trkpt><trkpt lat="44.13573235501158" lon="3.8720579721564805"><ele>236.0</ele><time>2026-04-08T12:19:18Z</time></trkpt><trkpt lat="44.135835758950165" lon="3.8721294840841773"><ele>236.0</ele><time>2026-04-08T12:19:19Z</time></trkpt><trkpt lat="44.13594507070827" lon="3.8721941526747345"><ele>233.20000000000002</ele><time>2026-04-08T12:19:20Z</time></trkpt><trkpt lat="44.13605668005931" lon="3.872239779150121"><ele>230.40000000000003</ele><time>2026-04-08T12:19:21Z</time></trkpt><trkpt lat="44.13616726329123" lon="3.872269131921326"><ele>227.6</ele><time>2026-04-08T12:19:22Z</time></trkpt><trkpt lat="44.136269920691774" lon="3.8722939618131917"><ele>224.8</ele><time>2026-04-08T12:19:23Z</time></trkpt><trkpt lat="44.13635272565514" lon="3.872340920013918"><ele>222.0</ele><time>2026-04-08T12:19:24Z</time></trkpt><trkpt lat="44.13641505230661" lon="3.872422435120862"><ele>222.0</ele><time>2026-04-08T12:19:25Z</time></trkpt><trkpt lat="44.13644486639049" lon="3.8725282175960567"><ele>222.0</ele><time>2026-04-08T12:19:26Z</time></trkpt><trkpt lat="44.13645638728639" lon="3.872638749279005"><ele>222.0</ele><time>2026-04-08T12:19:27Z</time></trkpt><trkpt lat="44.13648311158987" lon="3.8727562145179517"><ele>222.0</ele><time>2026-04-08T12:19:28Z</time></trkpt><trkpt lat="44.13652527762627" lon="3.872877089402023"><ele>222.0</ele><time>2026-04-08T12:19:29Z</time></trkpt><trkpt lat="44.13657912053355" lon="3.8729936891512455"><ele>222.0</ele><time>2026-04-08T12:19:30Z</time></trkpt><trkpt lat="44.136637678647325" lon="3.8731102603940872"><ele>223.8</ele><time>2026-04-08T12:19:31Z</time></trkpt><trkpt lat="44.136695020399316" lon="3.873226391192475"><ele>225.6</ele><time>2026-04-08T12:19:32Z</time></trkpt><trkpt lat="44.13675346358394" lon="3.8733374945565338"><ele>227.40000000000003</ele><time>2026-04-08T12:19:33Z</time></trkpt><trkpt lat="44.136824186087836" lon="3.873428231402905"><ele>229.20000000000002</ele><time>2026-04-08T12:19:34Z</time></trkpt><trkpt lat="44.136910683497646" lon="3.873489473698192"><ele>231.0</ele><time>2026-04-08T12:19:35Z</time></trkpt><trkpt lat="44.137008295189815" lon="3.873517106860066"><ele>230.20000000000002</ele><time>2026-04-08T12:19:36Z</time></trkpt><trkpt lat="44.137108322470404" lon="3.873523831339981"><ele>229.40000000000003</ele><time>2026-04-08T12:19:37Z</time></trkpt><trkpt lat="44.13720810526259" lon="3.873520695612067"><ele>228.6</ele><time>2026-04-08T12:19:38Z</time></trkpt><trkpt lat="44.13730799324712" lon="3.873500647184139"><ele>227.8</ele><time>2026-04-08T12:19:39Z</time></trkpt><trkpt lat="44.137403003004856" lon="3.873461287350917"><ele>227.0</ele><time>2026-04-08T12:19:40Z</time></trkpt><trkpt lat="44.13748602261545" lon="3.8734024494617176"><ele>230.00000000000003</ele><time>2026-04-08T12:19:41Z</time></trkpt><trkpt lat="44.13755734643622" lon="3.873335280431069"><ele>233.0</ele><time>2026-04-08T12:19:42Z</time></trkpt><trkpt lat="44.13762768731249" lon="3.8732829322596913"><ele>236.0</ele><time>2026-04-08T12:19:43Z</time></trkpt><trkpt lat="44.13770210186972" lon="3.873265834336685"><ele>239.0</ele><time>2026-04-08T12:19:44Z</time></trkpt><trkpt lat="44.13777510391477" lon="3.873275903393921"><ele>242.00000000000003</ele><time>2026-04-08T12:19:45Z</time></trkpt><trkpt lat="44.13784231664431" lon="3.8733188709759303"><ele>245.0</ele><time>2026-04-08T12:19:46Z</time></trkpt><trkpt lat="44.13789638626533" lon="3.87338838617048"><ele>242.00000000000003</ele><time>2026-04-08T12:19:47Z</time></trkpt><trkpt lat="44.1379326968427" lon="3.8734787678232117"><ele>239.0</ele><time>2026-04-08T12:19:48Z</time></trkpt><trkpt lat="44.137952379404354" lon="3.873580283392568"><ele>236.0</ele><time>2026-04-08T12:19:49Z</time></trkpt><trkpt lat="44.13797380224756" lon="3.8736794363078"><ele>233.0</ele><time>2026-04-08T12:19:50Z</time></trkpt><trkpt lat="44.1380003353755" lon="3.8737756089792703"><ele>230.00000000000003</ele><time>2026-04-08T12:19:51Z</time></trkpt><trkpt lat="44.138034539076344" lon="3.8738719304131557"><ele>227.0</ele><time>2026-04-08T12:19:52Z</time></trkpt><trkpt lat="44.13807911293581" lon="3.873961191137421"><ele>227.00000000000003</ele><time>2026-04-08T12:19:53Z</time></trkpt><trkpt lat="44.138134774814866" lon="3.874041482485175"><ele>227.0</ele><time>2026-04-08T12:19:54Z</time></trkpt><trkpt lat="44.13820431272019" lon="3.8741061641606906"><ele>227.0</ele><time>2026-04-08T12:19:55Z</time></trkpt><trkpt lat="44.13828690909294" lon="3.8741450436643428"><ele>227.0</ele><time>2026-04-08T12:19:56Z</time></trkpt><trkpt lat="44.13837580594643" lon="3.8741790008329167"><ele>227.00000000000003</ele><time>2026-04-08T12:19:57Z</time></trkpt><trkpt lat="44.13846796679789" lon="3.874202462120698"><ele>227.0</ele><time>2026-04-08T12:19:58Z</time></trkpt><trkpt lat="44.13856551454244" lon="3.874205529562779"><ele>230.0</ele><time>2026-04-08T12:19:59Z</time></trkpt><trkpt lat="44.13866472456199" lon="3.874188726951079"><ele>233.0</ele><time>2026-04-08T12:20:00Z</time></trkpt><trkpt lat="44.13876299370355" lon="3.874147911703914"><ele>236.0</ele><time>2026-04-08T12:20:01Z</time></trkpt><trkpt lat="44.13885573809773" lon="3.874080683415082"><ele>239.0</ele><time>2026-04-08T12:20:02Z</time></trkpt><trkpt lat="44.138941096825064" lon="3.8739872297731544"><ele>242.0</ele><time>2026-04-08T12:20:03Z</time></trkpt><trkpt lat="44.13902182604194" lon="3.873879831746471"><ele>241.2</ele><time>2026-04-08T12:20:04Z</time></trkpt><trkpt lat="44.139101805628236" lon="3.8737680372369057"><ele>240.39999999999998</ele><time>2026-04-08T12:20:05Z</time></trkpt><trkpt lat="44.13918120625721" lon="3.873659621459527"><ele>239.60000000000002</ele><time>2026-04-08T12:20:06Z</time></trkpt><trkpt lat="44.13927220657142" lon="3.8735730020625607"><ele>238.8</ele><time>2026-04-08T12:20:07Z</time></trkpt><trkpt lat="44.13937305721961" lon="3.873504450783216"><ele>238.0</ele><time>2026-04-08T12:20:08Z</time></trkpt><trkpt lat="44.139467150629024" lon="3.873426784216522"><ele>241.8</ele><time>2026-04-08T12:20:09Z</time></trkpt><trkpt lat="44.139542425317316" lon="3.8733256602454182"><ele>245.60000000000002</ele><time>2026-04-08T12:20:10Z</time></trkpt><trkpt lat="44.1395993796266" lon="3.8732008168214107"><ele>249.39999999999998</ele><time>2026-04-08T12:20:11Z</time></trkpt><trkpt lat="44.1396365743772" lon="3.8730542535563357"><ele>253.2</ele><time>2026-04-08T12:20:12Z</time></trkpt><trkpt lat="44.139660797601046" lon="3.872895875065618"><ele>257.0</ele><time>2026-04-08T12:20:13Z</time></trkpt><trkpt lat="44.13968250464291" lon="3.872723943262007"><ele>262.5</ele><time>2026-04-08T12:20:14Z</time></trkpt><trkpt lat="44.13970326230194" lon="3.8725422973036925"><ele>268.0</ele><time>2026-04-08T12:20:15Z</time></trkpt><trkpt lat="44.13972635973948" lon="3.872350897683878"><ele>273.5</ele><time>2026-04-08T12:20:16Z</time></trkpt><trkpt lat="44.13975279701635" lon="3.872162266380435"><ele>279.0</ele><time>2026-04-08T12:20:17Z</time></trkpt><trkpt lat="44.13977994004367" lon="3.8719727170571856"><ele>279.0</ele><time>2026-04-08T12:20:18Z</time></trkpt><trkpt lat="44.13980856863888" lon="3.871784672550527"><ele>279.0</ele><time>2026-04-08T12:20:19Z</time></trkpt><trkpt lat="44.1398390943601" lon="3.8716071277848414"><ele>279.0</ele><time>2026-04-08T12:20:20Z</time></trkpt><trkpt lat="44.139885017185996" lon="3.8714415894818552"><ele>279.0</ele><time>2026-04-08T12:20:21Z</time></trkpt><trkpt lat="44.139956867251954" lon="3.8712931020188184"><ele>276.75</ele><time>2026-04-08T12:20:22Z</time></trkpt><trkpt lat="44.140059836084994" lon="3.871186540421259"><ele>274.5</ele><time>2026-04-08T12:20:23Z</time></trkpt><trkpt lat="44.140143564631494" lon="3.8710484950867987"><ele>272.25</ele><time>2026-04-08T12:20:24Z</time></trkpt><trkpt lat="44.14024028669328" lon="3.870924839849401"><ele>270.0</ele><time>2026-04-08T12:20:25Z</time></trkpt><trkpt lat="44.140332049284034" lon="3.870796305753715"><ele>270.0</ele><time>2026-04-08T12:20:26Z</time></trkpt><trkpt lat="44.14043889839181" lon="3.87069366549183"><ele>270.0</ele><time>2026-04-08T12:20:27Z</time></trkpt><trkpt lat="44.140567115438095" lon="3.870640540182074"><ele>270.0</ele><time>2026-04-08T12:20:28Z</time></trkpt><trkpt lat="44.14069106211598" lon="3.870566564532588"><ele>270.0</ele><time>2026-04-08T12:20:29Z</time></trkpt><trkpt lat="44.14082341148725" lon="3.8705219500732215"><ele>261.0</ele><time>2026-04-08T12:20:30Z</time></trkpt><trkpt lat="44.14096144398588" lon="3.870487439917303"><ele>252.0</ele><time>2026-04-08T12:20:31Z</time></trkpt><trkpt lat="44.14109741180249" lon="3.8704525525661104"><ele>243.0</ele><time>2026-04-08T12:20:32Z</time></trkpt><trkpt lat="44.14123215529566" lon="3.870411521559213"><ele>234.0</ele><time>2026-04-08T12:20:33Z</time></trkpt><trkpt lat="44.141356509028746" lon="3.870357024166864"><ele>234.0</ele><time>2026-04-08T12:20:34Z</time></trkpt><trkpt lat="44.14146520915514" lon="3.8702907143687018"><ele>233.99999999999997</ele><time>2026-04-08T12:20:35Z</time></trkpt><trkpt lat="44.14155793068063" lon="3.870226929651543"><ele>233.99999999999997</ele><time>2026-04-08T12:20:36Z</time></trkpt><trkpt lat="44.14164895574012" lon="3.8701662658170415"><ele>234.0</ele><time>2026-04-08T12:20:37Z</time></trkpt><trkpt lat="44.14173712936339" lon="3.8701148899948814"><ele>234.0</ele><time>2026-04-08T12:20:38Z</time></trkpt><trkpt lat="44.14180846416669" lon="3.8700728936471758"><ele>235.6</ele><time>2026-04-08T12:20:39Z</time></trkpt><trkpt lat="44.141901229791436" lon="3.870000834581062"><ele>237.2</ele><time>2026-04-08T12:20:41Z</time></trkpt><trkpt lat="44.14206189892921" lon="3.87004112694123"><ele>238.79999999999998</ele><time>2026-04-08T12:20:47Z</time></trkpt><trkpt lat="44.14214871183968" lon="3.8700303698699745"><ele>240.39999999999998</ele><time>2026-04-08T12:20:51Z</time></trkpt><trkpt lat="44.14222561802924" lon="3.870062925652542"><ele>242.0</ele><time>2026-04-08T12:20:54Z</time></trkpt><trkpt lat="44.142279542210034" lon="3.8701156494970608"><ele>238.50000000000003</ele><time>2026-04-08T12:20:56Z</time></trkpt><trkpt lat="44.14235384901212" lon="3.870171667021209"><ele>235.0</ele><time>2026-04-08T12:20:58Z</time></trkpt><trkpt lat="44.142443440929696" lon="3.8702182606971585"><ele>231.5</ele><time>2026-04-08T12:21:00Z</time></trkpt><trkpt lat="44.14251797974363" lon="3.870258476194712"><ele>228.0</ele><time>2026-04-08T12:21:02Z</time></trkpt><trkpt lat="44.14259353224016" lon="3.870315031466652"><ele>224.50000000000003</ele><time>2026-04-08T12:21:04Z</time></trkpt><trkpt lat="44.142666701683154" lon="3.8703787274372314"><ele>221.0</ele><time>2026-04-08T12:21:06Z</time></trkpt><trkpt lat="44.14274108871667" lon="3.8704561125729584"><ele>220.00000000000003</ele><time>2026-04-08T12:21:08Z</time></trkpt><trkpt lat="44.14279261822251" lon="3.8705288049516087"><ele>219.0</ele><time>2026-04-08T12:21:10Z</time></trkpt><trkpt lat="44.14283386560859" lon="3.8705998717422654"><ele>218.0</ele><time>2026-04-08T12:21:12Z</time></trkpt><trkpt lat="44.14283681844174" lon="3.870700638862393"><ele>217.0</ele><time>2026-04-08T12:21:14Z</time></trkpt><trkpt lat="44.14279319658457" lon="3.8708156583544286"><ele>216.0</ele><time>2026-04-08T12:21:17Z</time></trkpt><trkpt lat="44.14272299664102" lon="3.8708377353061993"><ele>215.00000000000003</ele><time>2026-04-08T12:21:21Z</time></trkpt><trkpt lat="44.14265580056464" lon="3.8708409410749147"><ele>214.0</ele><time>2026-04-08T12:21:25Z</time></trkpt><trkpt lat="44.14257137344929" lon="3.8708332017207336"><ele>213.99999999999997</ele><time>2026-04-08T12:21:29Z</time></trkpt><trkpt lat="44.14248449542082" lon="3.870814813470234"><ele>214.0</ele><time>2026-04-08T12:21:32Z</time></trkpt><trkpt lat="44.14239672151837" lon="3.87079042057738"><ele>214.0</ele><time>2026-04-08T12:21:35Z</time></trkpt><trkpt lat="44.14230467168674" lon="3.8707676097122183"><ele>214.0</ele><time>2026-04-08T12:21:38Z</time></trkpt><trkpt lat="44.14222391099862" lon="3.870755321345584"><ele>213.99999999999997</ele><time>2026-04-08T12:21:41Z</time></trkpt><trkpt lat="44.14216588272175" lon="3.8708006961374806"><ele>214.0</ele><time>2026-04-08T12:21:43Z</time></trkpt><trkpt lat="44.14209596782458" lon="3.8707896444872243"><ele>215.00000000000003</ele><time>2026-04-08T12:21:46Z</time></trkpt><trkpt lat="44.142174160901476" lon="3.870780478838893"><ele>216.0</ele><time>2026-04-08T12:22:26Z</time></trkpt><trkpt lat="44.14211912056612" lon="3.870733107498372"><ele>217.0</ele><time>2026-04-08T12:23:05Z</time></trkpt><trkpt lat="44.14203736808575" lon="3.8707597855540987"><ele>218.0</ele><time>2026-04-08T12:32:22Z</time></trkpt><trkpt lat="44.141969923265705" lon="3.8707631455542018"><ele>219.0</ele><time>2026-04-08T12:32:29Z</time></trkpt><trkpt lat="44.141900015898614" lon="3.870786275294673"><ele>220.00000000000003</ele><time>2026-04-08T12:32:36Z</time></trkpt><trkpt lat="44.14184516626084" lon="3.87084534063876"><ele>221.0</ele><time>2026-04-08T12:32:45Z</time></trkpt><trkpt lat="44.14188778111556" lon="3.8709239853532704"><ele>219.2857142857143</ele><time>2026-04-08T12:32:52Z</time></trkpt><trkpt lat="44.1419555759208" lon="3.870954402426953"><ele>217.57142857142858</ele><time>2026-04-08T12:33:00Z</time></trkpt><trkpt lat="44.14202245765854" lon="3.8709529967098"><ele>215.85714285714286</ele><time>2026-04-08T12:33:07Z</time></trkpt><trkpt lat="44.14208707785703" lon="3.8709693639902794"><ele>214.14285714285717</ele><time>2026-04-08T12:33:14Z</time></trkpt><trkpt lat="44.142146831115994" lon="3.8709986739698237"><ele>212.42857142857142</ele><time>2026-04-08T12:33:26Z</time></trkpt><trkpt lat="44.14218257502387" lon="3.8710712443348645"><ele>210.71428571428572</ele><time>2026-04-08T12:33:37Z</time></trkpt><trkpt lat="44.14217010800926" lon="3.8711730418359096"><ele>209.0</ele><time>2026-04-08T12:33:53Z</time></trkpt><trkpt lat="44.142197421668115" lon="3.8712549358608213"><ele>209.0</ele><time>2026-04-08T12:34:27Z</time></trkpt><trkpt lat="44.14219444832781" lon="3.8713499699276768"><ele>209.0</ele><time>2026-04-08T12:34:54Z</time></trkpt><trkpt lat="44.14221791035298" lon="3.871453194015741"><ele>209.0</ele><time>2026-04-08T12:35:26Z</time></trkpt><trkpt lat="44.14214626996435" lon="3.8714580809382597"><ele>209.0</ele><time>2026-04-08T12:36:31Z</time></trkpt><trkpt lat="44.142096158223254" lon="3.8715121929210703"><ele>209.0</ele><time>2026-04-08T12:43:50Z</time></trkpt><trkpt lat="44.14203218503412" lon="3.8715595976888797"><ele>209.0</ele><time>2026-04-08T12:45:43Z</time></trkpt><trkpt lat="44.1419995831338" lon="3.8714834322630507"><ele>209.0</ele><time>2026-04-08T12:48:17Z</time></trkpt><trkpt lat="44.141933510044744" lon="3.871509354822798"><ele>209.00000000000003</ele><time>2026-04-08T12:51:08Z</time></trkpt><trkpt lat="44.14199886896145" lon="3.8714610478851723"><ele>209.0</ele><time>2026-04-08T12:56:31Z</time></trkpt><trkpt lat="44.14206155517021" lon="3.8714852489504854"><ele>209.0</ele><time>2026-04-08T12:57:04Z</time></trkpt><trkpt lat="44.1419387140465" lon="3.871463657021006"><ele>209.0</ele><time>2026-04-08T12:58:57Z</time></trkpt><trkpt lat="44.14187847052166" lon="3.8714939696645274"><ele>209.00000000000003</ele><time>2026-04-08T13:01:02Z</time></trkpt><trkpt lat="44.14182304557988" lon="3.8715423197649965"><ele>209.0</ele><time>2026-04-08T13:02:08Z</time></trkpt><trkpt lat="44.141856916663784" lon="3.8714643072753265"><ele>209.0</ele><time>2026-04-08T13:11:58Z</time></trkpt><trkpt lat="44.141941033959334" lon="3.8714003861264477"><ele>209.0</ele><time>2026-04-08T13:12:20Z</time></trkpt><trkpt lat="44.1420351359562" lon="3.871398574712488"><ele>209.0</ele><time>2026-04-08T13:12:47Z</time></trkpt><trkpt lat="44.14209751231109" lon="3.8714168697790057"><ele>209.0</ele><time>2026-04-08T13:13:13Z</time></trkpt><trkpt lat="44.14214305012265" lon="3.871482360038517"><ele>209.0</ele><time>2026-04-08T13:13:41Z</time></trkpt></trkseg><trkseg><trkpt lat="44.14205645715809" lon="3.8714787281163865"><ele>209.0</ele><time>2026-04-08T13:59:25Z</time></trkpt><trkpt lat="44.14205062967838" lon="3.871580607578952"><ele>209.0</ele><time>2026-04-08T13:59:26Z</time></trkpt><trkpt lat="44.142148842806044" lon="3.871504720462339"><ele>209.0</ele><time>2026-04-08T13:59:32Z</time></trkpt><trkpt lat="44.14203722975349" lon="3.8714199395523017"><ele>209.0</ele><time>2026-04-08T14:01:19Z</time></trkpt><trkpt lat="44.14217401637641" lon="3.8714591776723406"><ele>209.0</ele><time>2026-04-08T14:01:24Z</time></trkpt><trkpt lat="44.142181607996434" lon="3.871368681239755"><ele>209.0</ele><time>2026-04-08T14:05:48Z</time></trkpt><trkpt lat="44.142188347480854" lon="3.8712745227628"><ele>209.0</ele><time>2026-04-08T14:06:14Z</time></trkpt><trkpt lat="44.14219122298471" lon="3.8711790438718774"><ele>209.0</ele><time>2026-04-08T14:08:45Z</time></trkpt><trkpt lat="44.1421668528536" lon="3.8710937509945613"><ele>209.0</ele><time>2026-04-08T14:08:53Z</time></trkpt><trkpt lat="44.14214714899444" lon="3.8710060826073867"><ele>209.0</ele><time>2026-04-08T14:09:06Z</time></trkpt><trkpt lat="44.142077136178465" lon="3.8709839561319423"><ele>209.0</ele><time>2026-04-08T14:09:13Z</time></trkpt><trkpt lat="44.14200877306734" lon="3.870954126993578"><ele>209.0</ele><time>2026-04-08T14:09:36Z</time></trkpt><trkpt lat="44.14194063708625" lon="3.870960913628019"><ele>209.0</ele><time>2026-04-08T14:09:45Z</time></trkpt><trkpt lat="44.141873124562515" lon="3.8709248616283607"><ele>209.0</ele><time>2026-04-08T14:09:52Z</time></trkpt><trkpt lat="44.14183749825963" lon="3.8708443259787804"><ele>209.0</ele><time>2026-04-08T14:10:02Z</time></trkpt><trkpt lat="44.14189651511586" lon="3.8707972226795806"><ele>209.0</ele><time>2026-04-08T14:10:12Z</time></trkpt><trkpt lat="44.14194806046594" lon="3.870745160964556"><ele>209.0</ele><time>2026-04-08T14:10:32Z</time></trkpt><trkpt lat="44.142012866297854" lon="3.8707403040620214"><ele>209.0</ele><time>2026-04-08T14:10:47Z</time></trkpt><trkpt lat="44.142084593549114" lon="3.8707643059446477"><ele>221.0</ele><time>2026-04-08T14:10:55Z</time></trkpt><trkpt lat="44.142153257717" lon="3.870785713093349"><ele>221.0</ele><time>2026-04-08T14:20:33Z</time></trkpt><trkpt lat="44.14221782263604" lon="3.870778331265952"><ele>221.0</ele><time>2026-04-08T14:20:57Z</time></trkpt><trkpt lat="44.14215383753742" lon="3.870743812886422"><ele>221.0</ele><time>2026-04-08T14:21:14Z</time></trkpt><trkpt lat="44.142130390461716" lon="3.8708363392231284"><ele>221.0</ele><time>2026-04-08T14:56:25Z</time></trkpt></trkseg><trkseg><trkpt lat="44.142170545485016" lon="3.8707184445306098"><ele>221.00000000000003</ele><time>2026-04-08T15:15:18Z</time></trkpt><trkpt lat="44.14210669025001" lon="3.87072122952075"><ele>221.0</ele><time>2026-04-08T15:15:35Z</time></trkpt><trkpt lat="44.14219474439542" lon="3.8708064893098366"><ele>221.0</ele><time>2026-04-08T15:16:21Z</time></trkpt><trkpt lat="44.14225480006227" lon="3.8707583558657848"><ele>221.0</ele><time>2026-04-08T15:41:22Z</time></trkpt><trkpt lat="44.142321358459235" lon="3.8707488705478994"><ele>221.0</ele><time>2026-04-08T15:41:27Z</time></trkpt><trkpt lat="44.1423900049066" lon="3.87076559592849"><ele>221.00000000000003</ele><time>2026-04-08T15:41:34Z</time></trkpt><trkpt lat="44.142456846294195" lon="3.8707789221995306"><ele>221.0</ele><time>2026-04-08T15:41:41Z</time></trkpt><trkpt lat="44.14252973437253" lon="3.8707957435968026"><ele>220.00000000000003</ele><time>2026-04-08T15:41:47Z</time></trkpt><trkpt lat="44.142602848081765" lon="3.8708148539247107"><ele>219.0</ele><time>2026-04-08T15:41:51Z</time></trkpt><trkpt lat="44.142674663401245" lon="3.8708213323369853"><ele>218.0</ele><time>2026-04-08T15:41:54Z</time></trkpt><trkpt lat="44.142739255141194" lon="3.870816689656508"><ele>217.0</ele><time>2026-04-08T15:41:57Z</time></trkpt><trkpt lat="44.14280535421664" lon="3.870802477291776"><ele>216.0</ele><time>2026-04-08T15:42:00Z</time></trkpt><trkpt lat="44.14285203901788" lon="3.870733826544715"><ele>215.00000000000003</ele><time>2026-04-08T15:42:03Z</time></trkpt><trkpt lat="44.142851184005565" lon="3.8706406959678867"><ele>214.0</ele><time>2026-04-08T15:42:06Z</time></trkpt><trkpt lat="44.14282368522073" lon="3.8705601473577493"><ele>214.00000000000003</ele><time>2026-04-08T15:42:17Z</time></trkpt><trkpt lat="44.14277398184076" lon="3.8704888295425053"><ele>214.0</ele><time>2026-04-08T15:42:21Z</time></trkpt><trkpt lat="44.14271727677015" lon="3.870428238112094"><ele>214.0</ele><time>2026-04-08T15:42:24Z</time></trkpt><trkpt lat="44.1426569565057" lon="3.87036188624383"><ele>214.0</ele><time>2026-04-08T15:42:27Z</time></trkpt><trkpt lat="44.14259433832762" lon="3.87031359412134"><ele>214.0</ele><time>2026-04-08T15:42:30Z</time></trkpt><trkpt lat="44.142526375603595" lon="3.8702637914230675"><ele>214.00000000000003</ele><time>2026-04-08T15:42:33Z</time></trkpt><trkpt lat="44.14246816145269" lon="3.8702261450610065"><ele>214.0</ele><time>2026-04-08T15:42:36Z</time></trkpt><trkpt lat="44.14240837557931" lon="3.870192812058261"><ele>215.00000000000003</ele><time>2026-04-08T15:42:39Z</time></trkpt><trkpt lat="44.14234811827588" lon="3.8701642581132156"><ele>216.0</ele><time>2026-04-08T15:42:42Z</time></trkpt><trkpt lat="44.14228700355007" lon="3.870129112921703"><ele>217.0</ele><time>2026-04-08T15:42:45Z</time></trkpt><trkpt lat="44.14221823097293" lon="3.8700773152867987"><ele>218.0</ele><time>2026-04-08T15:42:48Z</time></trkpt><trkpt lat="44.14214918567308" lon="3.8700343864978684"><ele>219.0</ele><time>2026-04-08T15:42:51Z</time></trkpt><trkpt lat="44.142084940979316" lon="3.8700326485257657"><ele>220.00000000000003</ele><time>2026-04-08T15:42:53Z</time></trkpt><trkpt lat="44.1420182626427" lon="3.870035620658287"><ele>221.0</ele><time>2026-04-08T15:42:56Z</time></trkpt><trkpt lat="44.14194926234611" lon="3.8700011089619655"><ele>225.20000000000002</ele><time>2026-04-08T15:42:59Z</time></trkpt><trkpt lat="44.14188479990992" lon="3.8699138441818692"><ele>229.40000000000003</ele><time>2026-04-08T15:45:16Z</time></trkpt><trkpt lat="44.14185619461789" lon="3.8698164522608893"><ele>233.6</ele><time>2026-04-08T15:45:18Z</time></trkpt><trkpt lat="44.14184910484789" lon="3.8696701922078427"><ele>237.8</ele><time>2026-04-08T15:45:20Z</time></trkpt><trkpt lat="44.14181233338422" lon="3.869501087710073"><ele>242.0</ele><time>2026-04-08T15:45:22Z</time></trkpt><trkpt lat="44.1417798135268" lon="3.8693933548835386"><ele>242.0</ele><time>2026-04-08T15:45:23Z</time></trkpt><trkpt lat="44.14176351098173" lon="3.8692758016311846"><ele>242.0</ele><time>2026-04-08T15:45:24Z</time></trkpt><trkpt lat="44.14173505161919" lon="3.869156146422978"><ele>242.0</ele><time>2026-04-08T15:45:25Z</time></trkpt><trkpt lat="44.141693247501664" lon="3.8690347524998057"><ele>242.0</ele><time>2026-04-08T15:45:26Z</time></trkpt><trkpt lat="44.14167196091336" lon="3.8688995115547"><ele>242.0</ele><time>2026-04-08T15:45:27Z</time></trkpt><trkpt lat="44.141650023757805" lon="3.868763912549018"><ele>242.2</ele><time>2026-04-08T15:45:28Z</time></trkpt><trkpt lat="44.14165126000292" lon="3.8686208952659182"><ele>242.39999999999998</ele><time>2026-04-08T15:45:29Z</time></trkpt><trkpt lat="44.141651388599385" lon="3.8684825027332965"><ele>242.60000000000002</ele><time>2026-04-08T15:45:30Z</time></trkpt><trkpt lat="44.14167007592144" lon="3.868343294814588"><ele>242.8</ele><time>2026-04-08T15:45:31Z</time></trkpt><trkpt lat="44.14169423158223" lon="3.8682032312360795"><ele>243.0</ele><time>2026-04-08T15:45:32Z</time></trkpt><trkpt lat="44.141720047515555" lon="3.868063403157277"><ele>243.0</ele><time>2026-04-08T15:45:33Z</time></trkpt><trkpt lat="44.14174660992377" lon="3.867919531946872"><ele>243.0</ele><time>2026-04-08T15:45:34Z</time></trkpt><trkpt lat="44.141773062505024" lon="3.8677762555355812"><ele>243.0</ele><time>2026-04-08T15:45:35Z</time></trkpt><trkpt lat="44.14180139003088" lon="3.86763139881413"><ele>243.0</ele><time>2026-04-08T15:45:36Z</time></trkpt><trkpt lat="44.14183272521544" lon="3.8674932461614087"><ele>243.0</ele><time>2026-04-08T15:45:37Z</time></trkpt><trkpt lat="44.14188501726433" lon="3.8673683365510225"><ele>245.4</ele><time>2026-04-08T15:45:38Z</time></trkpt><trkpt lat="44.14194495880338" lon="3.8672418356752774"><ele>247.8</ele><time>2026-04-08T15:45:39Z</time></trkpt><trkpt lat="44.14200586451861" lon="3.8671153394955837"><ele>250.2</ele><time>2026-04-08T15:45:40Z</time></trkpt><trkpt lat="44.142067713556884" lon="3.8669866254536935"><ele>252.6</ele><time>2026-04-08T15:45:41Z</time></trkpt><trkpt lat="44.14213174523438" lon="3.86685914714464"><ele>255.0</ele><time>2026-04-08T15:45:42Z</time></trkpt><trkpt lat="44.14219651885924" lon="3.866733881044539"><ele>257.6</ele><time>2026-04-08T15:45:43Z</time></trkpt><trkpt lat="44.142263896180125" lon="3.8666105058728846"><ele>260.2</ele><time>2026-04-08T15:45:44Z</time></trkpt><trkpt lat="44.14233350956389" lon="3.866489312019721"><ele>262.8</ele><time>2026-04-08T15:45:45Z</time></trkpt><trkpt lat="44.14240724246872" lon="3.8663725753380747"><ele>265.4</ele><time>2026-04-08T15:45:46Z</time></trkpt><trkpt lat="44.1424858296912" lon="3.8662614327072076"><ele>268.0</ele><time>2026-04-08T15:45:47Z</time></trkpt><trkpt lat="44.1425699985172" lon="3.8661583268021658"><ele>260.25</ele><time>2026-04-08T15:45:48Z</time></trkpt><trkpt lat="44.14266533457326" lon="3.8660749525796234"><ele>252.5</ele><time>2026-04-08T15:45:49Z</time></trkpt><trkpt lat="44.142759878782414" lon="3.8659875455413775"><ele>244.75</ele><time>2026-04-08T15:45:50Z</time></trkpt><trkpt lat="44.142852003070864" lon="3.8658890695651515"><ele>237.0</ele><time>2026-04-08T15:45:51Z</time></trkpt><trkpt lat="44.142935226744505" lon="3.865772123958165"><ele>237.0</ele><time>2026-04-08T15:45:52Z</time></trkpt><trkpt lat="44.143000716190464" lon="3.865627427198051"><ele>237.0</ele><time>2026-04-08T15:45:53Z</time></trkpt><trkpt lat="44.143049144023685" lon="3.865482448875867"><ele>237.0</ele><time>2026-04-08T15:45:54Z</time></trkpt><trkpt lat="44.14307515508008" lon="3.86532940213105"><ele>237.0</ele><time>2026-04-08T15:45:55Z</time></trkpt><trkpt lat="44.143114347628924" lon="3.865218836246854"><ele>237.0</ele><time>2026-04-08T15:45:56Z</time></trkpt><trkpt lat="44.1431774958603" lon="3.8651512011150575"><ele>235.6</ele><time>2026-04-08T15:45:57Z</time></trkpt><trkpt lat="44.14325247537328" lon="3.865110768018591"><ele>234.2</ele><time>2026-04-08T15:45:58Z</time></trkpt><trkpt lat="44.14333308128247" lon="3.865088056322239"><ele>232.8</ele><time>2026-04-08T15:45:59Z</time></trkpt><trkpt lat="44.143422473569565" lon="3.8651016817944783"><ele>231.4</ele><time>2026-04-08T15:46:00Z</time></trkpt><trkpt lat="44.1435261250328" lon="3.865091759722971"><ele>230.0</ele><time>2026-04-08T15:46:01Z</time></trkpt><trkpt lat="44.14362805768849" lon="3.8651048701829174"><ele>230.0</ele><time>2026-04-08T15:46:02Z</time></trkpt><trkpt lat="44.14372408359057" lon="3.8650923993783444"><ele>230.0</ele><time>2026-04-08T15:46:03Z</time></trkpt><trkpt lat="44.1438125640802" lon="3.865036765552764"><ele>230.0</ele><time>2026-04-08T15:46:04Z</time></trkpt><trkpt lat="44.143899295440406" lon="3.8649536129830455"><ele>230.0</ele><time>2026-04-08T15:46:05Z</time></trkpt><trkpt lat="44.143988847479214" lon="3.8648682617395953"><ele>230.0</ele><time>2026-04-08T15:46:06Z</time></trkpt><trkpt lat="44.144087196120445" lon="3.8647708626925943"><ele>228.25</ele><time>2026-04-08T15:46:07Z</time></trkpt><trkpt lat="44.144190648757764" lon="3.8646704951465405"><ele>226.5</ele><time>2026-04-08T15:46:08Z</time></trkpt><trkpt lat="44.14430498901923" lon="3.864568898274999"><ele>224.75</ele><time>2026-04-08T15:46:09Z</time></trkpt><trkpt lat="44.14442951659436" lon="3.8644679141782796"><ele>223.0</ele><time>2026-04-08T15:46:10Z</time></trkpt><trkpt lat="44.1445425922606" lon="3.864349116606113"><ele>223.0</ele><time>2026-04-08T15:46:11Z</time></trkpt><trkpt lat="44.14464989835093" lon="3.864216575437097"><ele>223.0</ele><time>2026-04-08T15:46:12Z</time></trkpt><trkpt lat="44.14475811113445" lon="3.864083607859236"><ele>223.0</ele><time>2026-04-08T15:46:13Z</time></trkpt><trkpt lat="44.14487322349403" lon="3.8639595075304074"><ele>223.0</ele><time>2026-04-08T15:46:14Z</time></trkpt><trkpt lat="44.14498506102884" lon="3.863838600429864"><ele>223.0</ele><time>2026-04-08T15:46:15Z</time></trkpt><trkpt lat="44.14509408121044" lon="3.8637304561885277"><ele>223.0</ele><time>2026-04-08T15:46:16Z</time></trkpt><trkpt lat="44.14519482975801" lon="3.863607048993709"><ele>223.0</ele><time>2026-04-08T15:46:17Z</time></trkpt><trkpt lat="44.1452808302676" lon="3.86345754026944"><ele>223.0</ele><time>2026-04-08T15:46:18Z</time></trkpt><trkpt lat="44.145359206245594" lon="3.863299935612468"><ele>228.5</ele><time>2026-04-08T15:46:19Z</time></trkpt><trkpt lat="44.14543205196428" lon="3.863143781841095"><ele>234.0</ele><time>2026-04-08T15:46:20Z</time></trkpt><trkpt lat="44.14550146042715" lon="3.8629975725134336"><ele>239.5</ele><time>2026-04-08T15:46:21Z</time></trkpt><trkpt lat="44.145561552982365" lon="3.8628649163883555"><ele>245.0</ele><time>2026-04-08T15:46:22Z</time></trkpt><trkpt lat="44.14560527213189" lon="3.862720318011649"><ele>246.0</ele><time>2026-04-08T15:46:23Z</time></trkpt><trkpt lat="44.14561058505861" lon="3.8625664809616747"><ele>247.0</ele><time>2026-04-08T15:46:24Z</time></trkpt><trkpt lat="44.145582406599516" lon="3.862421634153669"><ele>248.0</ele><time>2026-04-08T15:46:25Z</time></trkpt><trkpt lat="44.14553573614386" lon="3.8622826754916497"><ele>249.0</ele><time>2026-04-08T15:46:26Z</time></trkpt><trkpt lat="44.1454697782524" lon="3.862150227976982"><ele>250.0</ele><time>2026-04-08T15:46:27Z</time></trkpt><trkpt lat="44.14539016289478" lon="3.8620254167125356"><ele>250.0</ele><time>2026-04-08T15:46:28Z</time></trkpt><trkpt lat="44.145295085077215" lon="3.8619190949848727"><ele>250.0</ele><time>2026-04-08T15:46:29Z</time></trkpt><trkpt lat="44.14518976499367" lon="3.8618360535928193"><ele>250.0</ele><time>2026-04-08T15:46:30Z</time></trkpt><trkpt lat="44.145073085352124" lon="3.861766752783769"><ele>250.0</ele><time>2026-04-08T15:46:31Z</time></trkpt><trkpt lat="44.144958339461674" lon="3.861686291213941"><ele>253.0</ele><time>2026-04-08T15:46:32Z</time></trkpt><trkpt lat="44.144845594039765" lon="3.861592627125215"><ele>256.0</ele><time>2026-04-08T15:46:33Z</time></trkpt><trkpt lat="44.14473856978847" lon="3.861489375259108"><ele>259.0</ele><time>2026-04-08T15:46:34Z</time></trkpt><trkpt lat="44.1446332549792" lon="3.8613843808726025"><ele>262.0</ele><time>2026-04-08T15:46:35Z</time></trkpt><trkpt lat="44.14452615737826" lon="3.8612765602804724"><ele>262.0</ele><time>2026-04-08T15:46:36Z</time></trkpt><trkpt lat="44.14441958730601" lon="3.8611671538806305"><ele>262.0</ele><time>2026-04-08T15:46:37Z</time></trkpt><trkpt lat="44.144312244778064" lon="3.861059216852059"><ele>262.0</ele><time>2026-04-08T15:46:38Z</time></trkpt><trkpt lat="44.144203640187335" lon="3.8609527610901018"><ele>262.0</ele><time>2026-04-08T15:46:39Z</time></trkpt><trkpt lat="44.14409670844869" lon="3.860849514874986"><ele>266.75</ele><time>2026-04-08T15:46:40Z</time></trkpt><trkpt lat="44.14399592720757" lon="3.8607451839423805"><ele>271.5</ele><time>2026-04-08T15:46:41Z</time></trkpt><trkpt lat="44.143903202617096" lon="3.8606316953510045"><ele>276.25</ele><time>2026-04-08T15:46:42Z</time></trkpt><trkpt lat="44.14382407151361" lon="3.860505830677014"><ele>281.0</ele><time>2026-04-08T15:46:43Z</time></trkpt><trkpt lat="44.143757967112414" lon="3.8603726807001153"><ele>281.0</ele><time>2026-04-08T15:46:44Z</time></trkpt><trkpt lat="44.14370272267654" lon="3.8602327805151466"><ele>281.0</ele><time>2026-04-08T15:46:45Z</time></trkpt><trkpt lat="44.143657327120145" lon="3.8600866426816176"><ele>281.0</ele><time>2026-04-08T15:46:46Z</time></trkpt><trkpt lat="44.143611821311154" lon="3.8599424172135905"><ele>281.0</ele><time>2026-04-08T15:46:47Z</time></trkpt><trkpt lat="44.14358005378491" lon="3.859798036094374"><ele>277.0</ele><time>2026-04-08T15:46:48Z</time></trkpt><trkpt lat="44.143561708626805" lon="3.859650533908239"><ele>273.0</ele><time>2026-04-08T15:46:49Z</time></trkpt><trkpt lat="44.143573039385444" lon="3.8595025580955897"><ele>269.0</ele><time>2026-04-08T15:46:50Z</time></trkpt><trkpt lat="44.14358963274195" lon="3.859354575065119"><ele>265.0</ele><time>2026-04-08T15:46:51Z</time></trkpt><trkpt lat="44.143612548417444" lon="3.8592061485699483"><ele>261.0</ele><time>2026-04-08T15:46:52Z</time></trkpt><trkpt lat="44.14362781095659" lon="3.859054966878268"><ele>260.2</ele><time>2026-04-08T15:46:53Z</time></trkpt><trkpt lat="44.14365662571812" lon="3.858910474470238"><ele>259.40000000000003</ele><time>2026-04-08T15:46:54Z</time></trkpt><trkpt lat="44.14370084896045" lon="3.8587765652457873"><ele>258.6</ele><time>2026-04-08T15:46:55Z</time></trkpt><trkpt lat="44.143763882089075" lon="3.8586590426680147"><ele>257.8</ele><time>2026-04-08T15:46:56Z</time></trkpt><trkpt lat="44.14384034110512" lon="3.85856038970293"><ele>257.0</ele><time>2026-04-08T15:46:57Z</time></trkpt><trkpt lat="44.14392521665261" lon="3.8584776615425644"><ele>259.2</ele><time>2026-04-08T15:46:58Z</time></trkpt><trkpt lat="44.14401059842178" lon="3.858399117076844"><ele>261.4</ele><time>2026-04-08T15:46:59Z</time></trkpt><trkpt lat="44.14409341335571" lon="3.858319799865717"><ele>263.6</ele><time>2026-04-08T15:47:00Z</time></trkpt><trkpt lat="44.1441657742987" lon="3.8582266309382853"><ele>265.8</ele><time>2026-04-08T15:47:01Z</time></trkpt><trkpt lat="44.144217372320014" lon="3.858117014012791"><ele>268.0</ele><time>2026-04-08T15:47:02Z</time></trkpt><trkpt lat="44.144251397339275" lon="3.857999761113631"><ele>262.3333333333333</ele><time>2026-04-08T15:47:03Z</time></trkpt><trkpt lat="44.14427675196813" lon="3.8578827227523975"><ele>256.66666666666663</ele><time>2026-04-08T15:47:04Z</time></trkpt><trkpt lat="44.14431888235321" lon="3.857782901484335"><ele>251.0</ele><time>2026-04-08T15:47:05Z</time></trkpt><trkpt lat="44.144342267030645" lon="3.8576827652449426"><ele>245.33333333333331</ele><time>2026-04-08T15:47:06Z</time></trkpt><trkpt lat="44.14439401956068" lon="3.8576124344143614"><ele>239.66666666666666</ele><time>2026-04-08T15:47:07Z</time></trkpt><trkpt lat="44.14445499726077" lon="3.8575680759206303"><ele>234.0</ele><time>2026-04-08T15:47:08Z</time></trkpt><trkpt lat="44.144519917038465" lon="3.857552500180802"><ele>234.0</ele><time>2026-04-08T15:47:09Z</time></trkpt><trkpt lat="44.144585265207404" lon="3.8575654716820993"><ele>234.00000000000003</ele><time>2026-04-08T15:47:10Z</time></trkpt><trkpt lat="44.14464710315568" lon="3.8576033965160774"><ele>234.0</ele><time>2026-04-08T15:47:11Z</time></trkpt><trkpt lat="44.14470252966668" lon="3.8576590795425063"><ele>234.0</ele><time>2026-04-08T15:47:12Z</time></trkpt><trkpt lat="44.14476179031906" lon="3.8577119499278623"><ele>234.00000000000003</ele><time>2026-04-08T15:47:13Z</time></trkpt><trkpt lat="44.144830056600696" lon="3.857764592664387"><ele>234.0</ele><time>2026-04-08T15:47:14Z</time></trkpt><trkpt lat="44.14490651952403" lon="3.8578100038969563"><ele>234.0</ele><time>2026-04-08T15:47:15Z</time></trkpt><trkpt lat="44.144990384629665" lon="3.857851501825435"><ele>231.39999999999998</ele><time>2026-04-08T15:47:16Z</time></trkpt><trkpt lat="44.145076531228916" lon="3.8578943411696804"><ele>228.79999999999998</ele><time>2026-04-08T15:47:17Z</time></trkpt><trkpt lat="44.14516673684774" lon="3.857943981035174"><ele>226.20000000000002</ele><time>2026-04-08T15:47:18Z</time></trkpt><trkpt lat="44.145264414952166" lon="3.8579916461177546"><ele>223.60000000000002</ele><time>2026-04-08T15:47:19Z</time></trkpt><trkpt lat="44.14536072278209" lon="3.858056575546619"><ele>221.0</ele><time>2026-04-08T15:47:20Z</time></trkpt><trkpt lat="44.14546151754267" lon="3.858104990068"><ele>221.0</ele><time>2026-04-08T15:47:21Z</time></trkpt><trkpt lat="44.14556508719415" lon="3.858152786355596"><ele>221.00000000000003</ele><time>2026-04-08T15:47:22Z</time></trkpt><trkpt lat="44.145671730892424" lon="3.8582022464960692"><ele>221.00000000000003</ele><time>2026-04-08T15:47:23Z</time></trkpt><trkpt lat="44.14577890463639" lon="3.858250703200289"><ele>221.0</ele><time>2026-04-08T15:47:24Z</time></trkpt><trkpt lat="44.14588798457688" lon="3.858297477152088"><ele>221.0</ele><time>2026-04-08T15:47:25Z</time></trkpt><trkpt lat="44.146001250916925" lon="3.8583435891328017"><ele>220.25</ele><time>2026-04-08T15:47:26Z</time></trkpt><trkpt lat="44.14611680484592" lon="3.8583890969221546"><ele>219.5</ele><time>2026-04-08T15:47:27Z</time></trkpt><trkpt lat="44.14622908771748" lon="3.8584350168707218"><ele>218.75</ele><time>2026-04-08T15:47:28Z</time></trkpt><trkpt lat="44.146336844558" lon="3.8584768588550853"><ele>218.0</ele><time>2026-04-08T15:47:29Z</time></trkpt><trkpt lat="44.14644326187588" lon="3.858509585187106"><ele>218.2</ele><time>2026-04-08T15:47:30Z</time></trkpt><trkpt lat="44.14654752244803" lon="3.8585358978800146"><ele>218.4</ele><time>2026-04-08T15:47:31Z</time></trkpt><trkpt lat="44.14664843700732" lon="3.8585587537808377"><ele>218.59999999999997</ele><time>2026-04-08T15:47:32Z</time></trkpt><trkpt lat="44.14674660576448" lon="3.858573361660103"><ele>218.79999999999998</ele><time>2026-04-08T15:47:33Z</time></trkpt><trkpt lat="44.146842703400175" lon="3.8585847176524273"><ele>219.0</ele><time>2026-04-08T15:47:34Z</time></trkpt><trkpt lat="44.14693628287924" lon="3.8585951101009908"><ele>219.0</ele><time>2026-04-08T15:47:35Z</time></trkpt><trkpt lat="44.14703012920712" lon="3.8586048706591627"><ele>218.99999999999997</ele><time>2026-04-08T15:47:36Z</time></trkpt><trkpt lat="44.14712421886175" lon="3.8586145194968817"><ele>218.99999999999997</ele><time>2026-04-08T15:47:37Z</time></trkpt><trkpt lat="44.147217254530766" lon="3.8586237305353173"><ele>219.0</ele><time>2026-04-08T15:47:38Z</time></trkpt><trkpt lat="44.1473087796577" lon="3.8586321931298277"><ele>219.0</ele><time>2026-04-08T15:47:39Z</time></trkpt><trkpt lat="44.147401463296795" lon="3.8586434242500696"><ele>219.2</ele><time>2026-04-08T15:47:40Z</time></trkpt><trkpt lat="44.14750125625601" lon="3.858655819591904"><ele>219.39999999999998</ele><time>2026-04-08T15:47:41Z</time></trkpt><trkpt lat="44.147603212053276" lon="3.8586678165723307"><ele>219.6</ele><time>2026-04-08T15:47:42Z</time></trkpt><trkpt lat="44.14770801228178" lon="3.858684097954819"><ele>219.8</ele><time>2026-04-08T15:47:43Z</time></trkpt><trkpt lat="44.14781041994729" lon="3.858706416837005"><ele>220.0</ele><time>2026-04-08T15:47:44Z</time></trkpt><trkpt lat="44.147903455701616" lon="3.85873533551452"><ele>219.99999999999997</ele><time>2026-04-08T15:47:45Z</time></trkpt><trkpt lat="44.14799039529907" lon="3.8587574225712573"><ele>220.0</ele><time>2026-04-08T15:47:46Z</time></trkpt><trkpt lat="44.14807542112501" lon="3.8587565794157404"><ele>220.0</ele><time>2026-04-08T15:47:47Z</time></trkpt><trkpt lat="44.14815959623626" lon="3.858731206274174"><ele>220.0</ele><time>2026-04-08T15:47:48Z</time></trkpt><trkpt lat="44.14823820803544" lon="3.85868181425007"><ele>219.99999999999997</ele><time>2026-04-08T15:47:49Z</time></trkpt><trkpt lat="44.14831389553423" lon="3.858616013022083"><ele>220.0</ele><time>2026-04-08T15:47:50Z</time></trkpt><trkpt lat="44.14838811165872" lon="3.85854883352188"><ele>219.8</ele><time>2026-04-08T15:47:51Z</time></trkpt><trkpt lat="44.148468580511775" lon="3.8584913857211824"><ele>219.6</ele><time>2026-04-08T15:47:52Z</time></trkpt><trkpt lat="44.148552618894534" lon="3.8584437511383944"><ele>219.39999999999998</ele><time>2026-04-08T15:47:53Z</time></trkpt><trkpt lat="44.14864333328853" lon="3.858395317934498"><ele>219.2</ele><time>2026-04-08T15:47:54Z</time></trkpt><trkpt lat="44.14874461059324" lon="3.858344197713526"><ele>219.0</ele><time>2026-04-08T15:47:55Z</time></trkpt><trkpt lat="44.148853555075426" lon="3.8582936270425727"><ele>222.0</ele><time>2026-04-08T15:47:56Z</time></trkpt><trkpt lat="44.14896726660376" lon="3.85824428695256"><ele>225.0</ele><time>2026-04-08T15:47:57Z</time></trkpt><trkpt lat="44.14908553435615" lon="3.8581902154455983"><ele>228.0</ele><time>2026-04-08T15:47:58Z</time></trkpt><trkpt lat="44.149202414420174" lon="3.8581294653245"><ele>231.0</ele><time>2026-04-08T15:47:59Z</time></trkpt><trkpt lat="44.14931703497806" lon="3.8580546501269195"><ele>231.0</ele><time>2026-04-08T15:48:00Z</time></trkpt><trkpt lat="44.14942689667002" lon="3.8579741203525497"><ele>231.0</ele><time>2026-04-08T15:48:01Z</time></trkpt><trkpt lat="44.149521613069204" lon="3.857871667446193"><ele>231.0</ele><time>2026-04-08T15:48:02Z</time></trkpt><trkpt lat="44.14959890045933" lon="3.8577425794089524"><ele>231.0</ele><time>2026-04-08T15:48:03Z</time></trkpt><trkpt lat="44.14964056859691" lon="3.8575939972603"><ele>237.75</ele><time>2026-04-08T15:48:04Z</time></trkpt><trkpt lat="44.14966800420759" lon="3.8574232806800794"><ele>244.5</ele><time>2026-04-08T15:48:05Z</time></trkpt><trkpt lat="44.14967134076845" lon="3.857255649329497"><ele>251.25</ele><time>2026-04-08T15:48:06Z</time></trkpt><trkpt lat="44.149670005454425" lon="3.8570807765937656"><ele>258.0</ele><time>2026-04-08T15:48:07Z</time></trkpt><trkpt lat="44.14966844475922" lon="3.8569120276414495"><ele>260.25</ele><time>2026-04-08T15:48:08Z</time></trkpt><trkpt lat="44.149669813024076" lon="3.8567478381312807"><ele>262.5</ele><time>2026-04-08T15:48:09Z</time></trkpt><trkpt lat="44.14967165264724" lon="3.8565981423320834"><ele>264.75</ele><time>2026-04-08T15:48:10Z</time></trkpt><trkpt lat="44.1496598278088" lon="3.8564354445222078"><ele>267.0</ele><time>2026-04-08T15:48:11Z</time></trkpt><trkpt lat="44.149623624300816" lon="3.856280370064359"><ele>267.0</ele><time>2026-04-08T15:48:12Z</time></trkpt><trkpt lat="44.14956898196527" lon="3.8561322779975904"><ele>267.0</ele><time>2026-04-08T15:48:13Z</time></trkpt><trkpt lat="44.1495075794839" lon="3.855987966602818"><ele>267.0</ele><time>2026-04-08T15:48:14Z</time></trkpt><trkpt lat="44.149445786403874" lon="3.8558386767793076"><ele>267.0</ele><time>2026-04-08T15:48:15Z</time></trkpt><trkpt lat="44.1493886721161" lon="3.855692928422785"><ele>266.75</ele><time>2026-04-08T15:48:16Z</time></trkpt><trkpt lat="44.149341794795454" lon="3.8555434860919084"><ele>266.5</ele><time>2026-04-08T15:48:17Z</time></trkpt><trkpt lat="44.149338595240074" lon="3.8553934124568343"><ele>266.25</ele><time>2026-04-08T15:48:18Z</time></trkpt><trkpt lat="44.149321697241625" lon="3.855231686496996"><ele>266.0</ele><time>2026-04-08T15:48:19Z</time></trkpt><trkpt lat="44.14932794161553" lon="3.855068040513348"><ele>265.5</ele><time>2026-04-08T15:48:20Z</time></trkpt><trkpt lat="44.149334947593964" lon="3.8548979457930743"><ele>265.0</ele><time>2026-04-08T15:48:21Z</time></trkpt><trkpt lat="44.14934225574245" lon="3.854729949077188"><ele>264.5</ele><time>2026-04-08T15:48:22Z</time></trkpt><trkpt lat="44.149366519512185" lon="3.8545664112682156"><ele>264.0</ele><time>2026-04-08T15:48:23Z</time></trkpt><trkpt lat="44.1494337897563" lon="3.8544208845141554"><ele>267.0</ele><time>2026-04-08T15:48:24Z</time></trkpt><trkpt lat="44.14948566230736" lon="3.854258170262718"><ele>270.0</ele><time>2026-04-08T15:48:25Z</time></trkpt><trkpt lat="44.14955614393056" lon="3.854112641030555"><ele>273.0</ele><time>2026-04-08T15:48:26Z</time></trkpt><trkpt lat="44.14962719834927" lon="3.8539672757494032"><ele>276.0</ele><time>2026-04-08T15:48:27Z</time></trkpt><trkpt lat="44.14969866814964" lon="3.8538150259586916"><ele>276.0</ele><time>2026-04-08T15:48:28Z</time></trkpt><trkpt lat="44.14977740004883" lon="3.8536706662402183"><ele>276.0</ele><time>2026-04-08T15:48:29Z</time></trkpt><trkpt lat="44.14987143674956" lon="3.853548526074269"><ele>276.0</ele><time>2026-04-08T15:48:30Z</time></trkpt><trkpt lat="44.149993625757915" lon="3.8534975719276217"><ele>276.0</ele><time>2026-04-08T15:48:31Z</time></trkpt><trkpt lat="44.15011498068467" lon="3.853465081779836"><ele>274.25</ele><time>2026-04-08T15:48:32Z</time></trkpt><trkpt lat="44.15023973339977" lon="3.853441082822918"><ele>272.5</ele><time>2026-04-08T15:48:33Z</time></trkpt><trkpt lat="44.150365468960594" lon="3.8534085964684572"><ele>270.75</ele><time>2026-04-08T15:48:34Z</time></trkpt><trkpt lat="44.15048546148245" lon="3.8533483006786433"><ele>269.0</ele><time>2026-04-08T15:48:35Z</time></trkpt><trkpt lat="44.1506097835021" lon="3.8533132704109088"><ele>264.0</ele><time>2026-04-08T15:48:36Z</time></trkpt><trkpt lat="44.15073517917325" lon="3.8533323671628597"><ele>259.0</ele><time>2026-04-08T15:48:37Z</time></trkpt><trkpt lat="44.150863144552574" lon="3.853331918266644"><ele>254.0</ele><time>2026-04-08T15:48:38Z</time></trkpt><trkpt lat="44.150984098009694" lon="3.8532974998084675"><ele>249.0</ele><time>2026-04-08T15:48:39Z</time></trkpt><trkpt lat="44.15110106889312" lon="3.8533038032851814"><ele>249.0</ele><time>2026-04-08T15:48:40Z</time></trkpt><trkpt lat="44.15121299653718" lon="3.8533228060844142"><ele>248.99999999999997</ele><time>2026-04-08T15:48:41Z</time></trkpt><trkpt lat="44.15132246589809" lon="3.853358427871672"><ele>248.99999999999997</ele><time>2026-04-08T15:48:42Z</time></trkpt><trkpt lat="44.151431691098836" lon="3.853395131637797"><ele>249.0</ele><time>2026-04-08T15:48:43Z</time></trkpt><trkpt lat="44.15153800119753" lon="3.8534124079483183"><ele>249.0</ele><time>2026-04-08T15:48:44Z</time></trkpt><trkpt lat="44.15162798369834" lon="3.853400155488638"><ele>248.6</ele><time>2026-04-08T15:48:45Z</time></trkpt><trkpt lat="44.1517052017666" lon="3.853360972996263"><ele>248.2</ele><time>2026-04-08T15:48:46Z</time></trkpt><trkpt lat="44.151759725394406" lon="3.8532917925012846"><ele>247.79999999999998</ele><time>2026-04-08T15:48:47Z</time></trkpt><trkpt lat="44.15178433915533" lon="3.853206664686674"><ele>247.39999999999998</ele><time>2026-04-08T15:48:48Z</time></trkpt><trkpt lat="44.151747416056395" lon="3.85305507671205"><ele>247.0</ele><time>2026-04-08T15:48:50Z</time></trkpt><trkpt lat="44.15166055878007" lon="3.8529423513862904"><ele>247.0</ele><time>2026-04-08T15:48:52Z</time></trkpt><trkpt lat="44.15158782359455" lon="3.852875493672695"><ele>247.0</ele><time>2026-04-08T15:48:53Z</time></trkpt><trkpt lat="44.15149958329262" lon="3.852813756808136"><ele>247.0</ele><time>2026-04-08T15:48:54Z</time></trkpt><trkpt lat="44.151394043897746" lon="3.852768123235721"><ele>247.0</ele><time>2026-04-08T15:48:55Z</time></trkpt><trkpt lat="44.15127706975086" lon="3.852734898112056"><ele>247.0</ele><time>2026-04-08T15:48:56Z</time></trkpt><trkpt lat="44.151157494668325" lon="3.852670864777855"><ele>246.5</ele><time>2026-04-08T15:48:57Z</time></trkpt><trkpt lat="44.151038724417965" lon="3.852578639953905"><ele>246.0</ele><time>2026-04-08T15:48:58Z</time></trkpt><trkpt lat="44.15091750362214" lon="3.852480644223596"><ele>245.5</ele><time>2026-04-08T15:48:59Z</time></trkpt><trkpt lat="44.1507983622446" lon="3.8523777018585865"><ele>245.0</ele><time>2026-04-08T15:49:00Z</time></trkpt><trkpt lat="44.15067733222654" lon="3.852283274514468"><ele>252.5</ele><time>2026-04-08T15:49:01Z</time></trkpt><trkpt lat="44.15055517029383" lon="3.8521934251889802"><ele>260.0</ele><time>2026-04-08T15:49:02Z</time></trkpt><trkpt lat="44.15043983497451" lon="3.8521020744428394"><ele>267.5</ele><time>2026-04-08T15:49:03Z</time></trkpt><trkpt lat="44.150326746357734" lon="3.852001903075248"><ele>275.0</ele><time>2026-04-08T15:49:04Z</time></trkpt><trkpt lat="44.150221866079924" lon="3.8518896356785244"><ele>269.0</ele><time>2026-04-08T15:49:05Z</time></trkpt><trkpt lat="44.15012948870034" lon="3.8517573633268545"><ele>263.0</ele><time>2026-04-08T15:49:06Z</time></trkpt><trkpt lat="44.15004479087427" lon="3.851616183177128"><ele>257.0</ele><time>2026-04-08T15:49:07Z</time></trkpt><trkpt lat="44.14996185966609" lon="3.8514726963549983"><ele>251.0</ele><time>2026-04-08T15:49:08Z</time></trkpt><trkpt lat="44.149883523641066" lon="3.8513255440825915"><ele>256.40000000000003</ele><time>2026-04-08T15:49:09Z</time></trkpt><trkpt lat="44.14981473011558" lon="3.851175643553928"><ele>261.8</ele><time>2026-04-08T15:49:10Z</time></trkpt><trkpt lat="44.14977474923124" lon="3.851028280701632"><ele>267.20000000000005</ele><time>2026-04-08T15:49:11Z</time></trkpt><trkpt lat="44.14976390097456" lon="3.850892414950807"><ele>272.6</ele><time>2026-04-08T15:49:12Z</time></trkpt><trkpt lat="44.14976688941177" lon="3.8507779730789493"><ele>278.0</ele><time>2026-04-08T15:49:13Z</time></trkpt><trkpt lat="44.149756950064386" lon="3.8506303646937936"><ele>278.0</ele><time>2026-04-08T15:49:15Z</time></trkpt><trkpt lat="44.14973814281532" lon="3.850543101818489"><ele>278.0</ele><time>2026-04-08T15:49:18Z</time></trkpt><trkpt lat="44.14974568996805" lon="3.850698023589834"><ele>278.0</ele><time>2026-04-08T15:49:33Z</time></trkpt><trkpt lat="44.14983697748323" lon="3.8507340875347396"><ele>278.0</ele><time>2026-04-08T15:49:34Z</time></trkpt><trkpt lat="44.14974908852717" lon="3.8510326669357817"><ele>281.5</ele><time>2026-04-08T15:49:35Z</time></trkpt><trkpt lat="44.14977341596337" lon="3.85116843274979"><ele>285.0</ele><time>2026-04-08T15:49:36Z</time></trkpt><trkpt lat="44.14982506791171" lon="3.8513102789766935"><ele>288.5</ele><time>2026-04-08T15:49:37Z</time></trkpt><trkpt lat="44.14989744389682" lon="3.851444783528913"><ele>292.0</ele><time>2026-04-08T15:49:38Z</time></trkpt><trkpt lat="44.149981784184185" lon="3.851585675438839"><ele>287.75</ele><time>2026-04-08T15:49:39Z</time></trkpt><trkpt lat="44.15007225464701" lon="3.8517291066921047"><ele>283.5</ele><time>2026-04-08T15:49:40Z</time></trkpt><trkpt lat="44.150171997032764" lon="3.8518705987051187"><ele>279.25</ele><time>2026-04-08T15:49:41Z</time></trkpt><trkpt lat="44.15027996494482" lon="3.85200568876475"><ele>275.0</ele><time>2026-04-08T15:49:42Z</time></trkpt><trkpt lat="44.15040089476204" lon="3.852122364443684"><ele>275.0</ele><time>2026-04-08T15:49:43Z</time></trkpt><trkpt lat="44.15053074233416" lon="3.852224045149091"><ele>275.0</ele><time>2026-04-08T15:49:44Z</time></trkpt><trkpt lat="44.150658074251226" lon="3.8523143912517783"><ele>275.0</ele><time>2026-04-08T15:49:45Z</time></trkpt><trkpt lat="44.15076671865567" lon="3.8523959403427845"><ele>275.0</ele><time>2026-04-08T15:49:46Z</time></trkpt><trkpt lat="44.15084790754423" lon="3.8524611633137087"><ele>270.6666666666667</ele><time>2026-04-08T15:49:47Z</time></trkpt><trkpt lat="44.15090993440341" lon="3.8525090762984022"><ele>266.33333333333337</ele><time>2026-04-08T15:49:48Z</time></trkpt><trkpt lat="44.15099346412755" lon="3.8525577010812837"><ele>262.0</ele><time>2026-04-08T15:49:50Z</time></trkpt><trkpt lat="44.151015494788744" lon="3.8526420027419848"><ele>257.6666666666667</ele><time>2026-04-08T15:49:54Z</time></trkpt><trkpt lat="44.15094361389351" lon="3.85267039069571"><ele>253.33333333333334</ele><time>2026-04-08T15:49:59Z</time></trkpt><trkpt lat="44.15085665773559" lon="3.852612730743933"><ele>249.0</ele><time>2026-04-08T15:50:02Z</time></trkpt><trkpt lat="44.15078131601389" lon="3.852570068908331"><ele>254.2</ele><time>2026-04-08T15:50:04Z</time></trkpt><trkpt lat="44.150693712583916" lon="3.8525290820162454"><ele>259.4</ele><time>2026-04-08T15:50:06Z</time></trkpt><trkpt lat="44.15061268474797" lon="3.852484735262026"><ele>264.6</ele><time>2026-04-08T15:50:07Z</time></trkpt><trkpt lat="44.15049972916698" lon="3.8524381657848084"><ele>269.8</ele><time>2026-04-08T15:50:09Z</time></trkpt><trkpt lat="44.15037630189592" lon="3.852391705526933"><ele>275.0</ele><time>2026-04-08T15:50:11Z</time></trkpt><trkpt lat="44.15031168157873" lon="3.8523624359445336"><ele>275.0</ele><time>2026-04-08T15:50:12Z</time></trkpt><trkpt lat="44.150247823838356" lon="3.8523253544512976"><ele>275.0</ele><time>2026-04-08T15:50:13Z</time></trkpt><trkpt lat="44.15018046148767" lon="3.8522846981699126"><ele>275.0</ele><time>2026-04-08T15:50:14Z</time></trkpt><trkpt lat="44.150113628683314" lon="3.852240786560935"><ele>275.0</ele><time>2026-04-08T15:50:15Z</time></trkpt><trkpt lat="44.15005470445185" lon="3.852172380020747"><ele>275.0</ele><time>2026-04-08T15:50:16Z</time></trkpt><trkpt lat="44.14998671510605" lon="3.8521275891389597"><ele>275.0</ele><time>2026-04-08T15:50:17Z</time></trkpt><trkpt lat="44.149912040143654" lon="3.852105872415449"><ele>275.0</ele><time>2026-04-08T15:50:18Z</time></trkpt><trkpt lat="44.149842099923006" lon="3.852059087469292"><ele>277.83333333333337</ele><time>2026-04-08T15:50:19Z</time></trkpt><trkpt lat="44.14977080281358" lon="3.852013424895194"><ele>280.6666666666667</ele><time>2026-04-08T15:50:20Z</time></trkpt><trkpt lat="44.14970358497263" lon="3.8519660645767675"><ele>283.5</ele><time>2026-04-08T15:50:21Z</time></trkpt><trkpt lat="44.14963993320003" lon="3.8519061075247287"><ele>286.3333333333333</ele><time>2026-04-08T15:50:22Z</time></trkpt><trkpt lat="44.149582897228534" lon="3.851836274125292"><ele>289.16666666666663</ele><time>2026-04-08T15:50:23Z</time></trkpt><trkpt lat="44.14952777151979" lon="3.8517685240562933"><ele>292.0</ele><time>2026-04-08T15:50:24Z</time></trkpt><trkpt lat="44.14947249515132" lon="3.8517095022564014"><ele>292.0</ele><time>2026-04-08T15:50:25Z</time></trkpt><trkpt lat="44.14938983484519" lon="3.8516599427274327"><ele>292.0</ele><time>2026-04-08T15:50:27Z</time></trkpt><trkpt lat="44.14931436317229" lon="3.85161576005832"><ele>292.0</ele><time>2026-04-08T15:50:29Z</time></trkpt><trkpt lat="44.14925932882554" lon="3.8515235916874055"><ele>292.0</ele><time>2026-04-08T15:50:32Z</time></trkpt><trkpt lat="44.14926092781626" lon="3.851399282998443"><ele>292.0</ele><time>2026-04-08T15:50:34Z</time></trkpt><trkpt lat="44.14926726913728" lon="3.8512548127669954"><ele>292.0</ele><time>2026-04-08T15:50:36Z</time></trkpt><trkpt lat="44.149242709706385" lon="3.8510811674665186"><ele>292.0</ele><time>2026-04-08T15:50:38Z</time></trkpt><trkpt lat="44.14919824126794" lon="3.850938229325755"><ele>292.0</ele><time>2026-04-08T15:50:40Z</time></trkpt><trkpt lat="44.14917900708508" lon="3.8508462463369444"><ele>292.0</ele><time>2026-04-08T15:50:42Z</time></trkpt><trkpt lat="44.149121030590976" lon="3.850738099001034"><ele>292.0</ele><time>2026-04-08T15:50:45Z</time></trkpt><trkpt lat="44.14904485881267" lon="3.8506705173548803"><ele>298.16666666666663</ele><time>2026-04-08T15:50:47Z</time></trkpt><trkpt lat="44.14894771942654" lon="3.850646402951236"><ele>304.3333333333333</ele><time>2026-04-08T15:50:49Z</time></trkpt><trkpt lat="44.14888557290973" lon="3.8505811398349215"><ele>310.5</ele><time>2026-04-08T15:50:51Z</time></trkpt><trkpt lat="44.148848329428915" lon="3.8504944220775337"><ele>316.6666666666667</ele><time>2026-04-08T15:50:54Z</time></trkpt><trkpt lat="44.14883714516448" lon="3.85037498967358"><ele>322.83333333333337</ele><time>2026-04-08T15:50:56Z</time></trkpt><trkpt lat="44.14890425860936" lon="3.8502570892499732"><ele>329.0</ele><time>2026-04-08T15:50:58Z</time></trkpt><trkpt lat="44.14896264459709" lon="3.8501716132208834"><ele>328.6666666666667</ele><time>2026-04-08T15:51:00Z</time></trkpt><trkpt lat="44.149008007895695" lon="3.850096418253524"><ele>328.33333333333337</ele><time>2026-04-08T15:51:02Z</time></trkpt><trkpt lat="44.14900650617337" lon="3.8499659967250057"><ele>328.0</ele><time>2026-04-08T15:51:05Z</time></trkpt><trkpt lat="44.148963870807805" lon="3.8498923673455665"><ele>327.6666666666667</ele><time>2026-04-08T15:51:07Z</time></trkpt><trkpt lat="44.14891432712124" lon="3.8498043882985664"><ele>327.3333333333333</ele><time>2026-04-08T15:51:09Z</time></trkpt><trkpt lat="44.148858095447814" lon="3.8497127078455677"><ele>327.0</ele><time>2026-04-08T15:51:11Z</time></trkpt><trkpt lat="44.148814047652714" lon="3.8496034016747593"><ele>327.0</ele><time>2026-04-08T15:51:13Z</time></trkpt><trkpt lat="44.1487621009912" lon="3.8495100953579557"><ele>327.0</ele><time>2026-04-08T15:51:15Z</time></trkpt><trkpt lat="44.14871611491216" lon="3.849408747806019"><ele>327.0</ele><time>2026-04-08T15:51:18Z</time></trkpt><trkpt lat="44.14878181622473" lon="3.8493194494453546"><ele>327.0</ele><time>2026-04-08T15:51:20Z</time></trkpt><trkpt lat="44.148850976135975" lon="3.8491757976920296"><ele>327.0</ele><time>2026-04-08T15:51:22Z</time></trkpt><trkpt lat="44.14888493407967" lon="3.8490935452442048"><ele>328.1666666666667</ele><time>2026-04-08T15:51:23Z</time></trkpt><trkpt lat="44.14894465180323" lon="3.8489749765649606"><ele>329.3333333333333</ele><time>2026-04-08T15:51:25Z</time></trkpt><trkpt lat="44.149008462692855" lon="3.848914068985192"><ele>330.5</ele><time>2026-04-08T15:51:27Z</time></trkpt><trkpt lat="44.14905381330718" lon="3.8488452041622208"><ele>331.66666666666663</ele><time>2026-04-08T15:51:29Z</time></trkpt><trkpt lat="44.149126168576096" lon="3.848795874030228"><ele>332.8333333333333</ele><time>2026-04-08T15:51:31Z</time></trkpt><trkpt lat="44.149168118611456" lon="3.8487072237301088"><ele>334.0</ele><time>2026-04-08T15:51:33Z</time></trkpt><trkpt lat="44.14914179653049" lon="3.8485883465294233"><ele>328.5</ele><time>2026-04-08T15:51:35Z</time></trkpt><trkpt lat="44.149109406875944" lon="3.8484512563630267"><ele>323.0</ele><time>2026-04-08T15:51:37Z</time></trkpt><trkpt lat="44.149096213836245" lon="3.8483624661610247"><ele>317.5</ele><time>2026-04-08T15:51:39Z</time></trkpt><trkpt lat="44.14911742322669" lon="3.8482580201743772"><ele>312.0</ele><time>2026-04-08T15:51:42Z</time></trkpt><trkpt lat="44.14918929744982" lon="3.8482135235140094"><ele>306.5</ele><time>2026-04-08T15:51:44Z</time></trkpt><trkpt lat="44.14928108128941" lon="3.8481532888863836"><ele>301.0</ele><time>2026-04-08T15:51:46Z</time></trkpt><trkpt lat="44.14937865407443" lon="3.8481080362759186"><ele>301.0</ele><time>2026-04-08T15:51:48Z</time></trkpt><trkpt lat="44.149465397443" lon="3.8480179242600268"><ele>301.0</ele><time>2026-04-08T15:51:50Z</time></trkpt><trkpt lat="44.149528870358196" lon="3.8479295911211975"><ele>301.0</ele><time>2026-04-08T15:51:52Z</time></trkpt><trkpt lat="44.14959561283296" lon="3.8478631354344595"><ele>301.0</ele><time>2026-04-08T15:51:54Z</time></trkpt><trkpt lat="44.14966372001611" lon="3.8478361369873118"><ele>301.0</ele><time>2026-04-08T15:51:56Z</time></trkpt><trkpt lat="44.14972026212935" lon="3.847795259587616"><ele>301.0</ele><time>2026-04-08T15:51:58Z</time></trkpt><trkpt lat="44.14978530293588" lon="3.8477754772509174"><ele>301.0</ele><time>2026-04-08T15:52:00Z</time></trkpt><trkpt lat="44.14982705909594" lon="3.8477065949722866"><ele>301.0</ele><time>2026-04-08T15:52:02Z</time></trkpt><trkpt lat="44.1498483487551" lon="3.847615868359242"><ele>301.0</ele><time>2026-04-08T15:52:05Z</time></trkpt><trkpt lat="44.149828540726126" lon="3.847520649063587"><ele>301.0</ele><time>2026-04-08T15:52:07Z</time></trkpt><trkpt lat="44.14977794422403" lon="3.847425554864782"><ele>301.0</ele><time>2026-04-08T15:52:09Z</time></trkpt><trkpt lat="44.14972930353076" lon="3.8473308576652814"><ele>301.0</ele><time>2026-04-08T15:52:11Z</time></trkpt><trkpt lat="44.14968159470656" lon="3.847219636384238"><ele>302.5</ele><time>2026-04-08T15:52:13Z</time></trkpt><trkpt lat="44.14972094070258" lon="3.8470981273705758"><ele>304.0</ele><time>2026-04-08T15:52:15Z</time></trkpt><trkpt lat="44.14971333125239" lon="3.8469753437656684"><ele>305.5</ele><time>2026-04-08T15:52:18Z</time></trkpt><trkpt lat="44.14970162072377" lon="3.846882131568184"><ele>307.0</ele><time>2026-04-08T15:52:20Z</time></trkpt><trkpt lat="44.14967391579825" lon="3.846779341740087"><ele>308.5</ele><time>2026-04-08T15:52:22Z</time></trkpt><trkpt lat="44.14964762888932" lon="3.846685598017874"><ele>310.0</ele><time>2026-04-08T15:52:24Z</time></trkpt><trkpt lat="44.14962625271091" lon="3.846602232916475"><ele>310.0</ele><time>2026-04-08T15:52:26Z</time></trkpt><trkpt lat="44.14960578309177" lon="3.8465120207442336"><ele>310.0</ele><time>2026-04-08T15:52:28Z</time></trkpt><trkpt lat="44.149592561975076" lon="3.846414379143425"><ele>310.0</ele><time>2026-04-08T15:52:30Z</time></trkpt><trkpt lat="44.14958602912755" lon="3.8463035732279818"><ele>310.0</ele><time>2026-04-08T15:52:32Z</time></trkpt><trkpt lat="44.14955494165844" lon="3.846205726431309"><ele>310.0</ele><time>2026-04-08T15:52:34Z</time></trkpt><trkpt lat="44.14951614144026" lon="3.8461133775536185"><ele>310.0</ele><time>2026-04-08T15:52:36Z</time></trkpt><trkpt lat="44.149465150898926" lon="3.846041117736486"><ele>310.0</ele><time>2026-04-08T15:52:39Z</time></trkpt><trkpt lat="44.149412915876745" lon="3.8459677758349344"><ele>307.8333333333333</ele><time>2026-04-08T15:52:42Z</time></trkpt><trkpt lat="44.149355839653445" lon="3.8458644108078808"><ele>305.66666666666663</ele><time>2026-04-08T15:52:45Z</time></trkpt><trkpt lat="44.149323533078125" lon="3.8457691130284952"><ele>303.5</ele><time>2026-04-08T15:52:47Z</time></trkpt><trkpt lat="44.14927387855401" lon="3.845674224256428"><ele>301.3333333333333</ele><time>2026-04-08T15:52:49Z</time></trkpt><trkpt lat="44.14922937809872" lon="3.8455941517198133"><ele>299.1666666666667</ele><time>2026-04-08T15:52:51Z</time></trkpt><trkpt lat="44.14917726382724" lon="3.845541248166604"><ele>297.0</ele><time>2026-04-08T15:52:53Z</time></trkpt><trkpt lat="44.14913719065887" lon="3.845472777193083"><ele>297.0</ele><time>2026-04-08T15:52:55Z</time></trkpt><trkpt lat="44.14909620551646" lon="3.845401881404196"><ele>297.0</ele><time>2026-04-08T15:52:57Z</time></trkpt><trkpt lat="44.14905068459368" lon="3.8453178630851506"><ele>297.0</ele><time>2026-04-08T15:53:00Z</time></trkpt><trkpt lat="44.149039490078025" lon="3.845194589191612"><ele>297.0</ele><time>2026-04-08T15:53:03Z</time></trkpt><trkpt lat="44.1490059375421" lon="3.8450915752255956"><ele>297.0</ele><time>2026-04-08T15:53:05Z</time></trkpt><trkpt lat="44.14896347585988" lon="3.8449741102396353"><ele>297.0</ele><time>2026-04-08T15:53:07Z</time></trkpt><trkpt lat="44.148930725733216" lon="3.8448596143688634"><ele>303.8333333333333</ele><time>2026-04-08T15:53:09Z</time></trkpt><trkpt lat="44.14888250618079" lon="3.8447494149873727"><ele>310.6666666666667</ele><time>2026-04-08T15:53:11Z</time></trkpt><trkpt lat="44.14881762462346" lon="3.8446693289242675"><ele>317.5</ele><time>2026-04-08T15:53:13Z</time></trkpt><trkpt lat="44.14876022772821" lon="3.8445929979542735"><ele>324.33333333333337</ele><time>2026-04-08T15:53:18Z</time></trkpt><trkpt lat="44.148702803255745" lon="3.844532741865236"><ele>331.1666666666667</ele><time>2026-04-08T15:53:21Z</time></trkpt><trkpt lat="44.14865888325042" lon="3.844459316060988"><ele>338.0</ele><time>2026-04-08T15:53:23Z</time></trkpt><trkpt lat="44.148593870005115" lon="3.8443734364282114"><ele>335.5</ele><time>2026-04-08T15:53:25Z</time></trkpt><trkpt lat="44.148557085467594" lon="3.8442732028450886"><ele>333.0</ele><time>2026-04-08T15:53:27Z</time></trkpt><trkpt lat="44.14853764144907" lon="3.844162265939175"><ele>330.5</ele><time>2026-04-08T15:53:30Z</time></trkpt><trkpt lat="44.14850894219897" lon="3.844047581935058"><ele>328.0</ele><time>2026-04-08T15:53:33Z</time></trkpt><trkpt lat="44.148492114303174" lon="3.8439523175338226"><ele>325.5</ele><time>2026-04-08T15:53:35Z</time></trkpt><trkpt lat="44.148474255070404" lon="3.8438554885875753"><ele>323.0</ele><time>2026-04-08T15:53:37Z</time></trkpt><trkpt lat="44.14844884175511" lon="3.8437632874741223"><ele>323.0</ele><time>2026-04-08T15:53:40Z</time></trkpt><trkpt lat="44.148434315047204" lon="3.8436601077153747"><ele>323.0</ele><time>2026-04-08T15:53:45Z</time></trkpt><trkpt lat="44.148433162227256" lon="3.84354754638309"><ele>323.0</ele><time>2026-04-08T15:53:48Z</time></trkpt><trkpt lat="44.14843071949793" lon="3.843447500080952"><ele>323.0</ele><time>2026-04-08T15:53:50Z</time></trkpt><trkpt lat="44.14841585660056" lon="3.843316231164659"><ele>323.0</ele><time>2026-04-08T15:53:52Z</time></trkpt><trkpt lat="44.148389908408554" lon="3.843192124567385"><ele>323.0</ele><time>2026-04-08T15:53:54Z</time></trkpt><trkpt lat="44.1483601343617" lon="3.843082387452153"><ele>322.28571428571433</ele><time>2026-04-08T15:53:56Z</time></trkpt><trkpt lat="44.14831947318365" lon="3.8429970267030513"><ele>321.57142857142856</ele><time>2026-04-08T15:53:59Z</time></trkpt><trkpt lat="44.14826716097181" lon="3.8429448000463333"><ele>320.8571428571429</ele><time>2026-04-08T15:54:02Z</time></trkpt><trkpt lat="44.148206702302076" lon="3.842900180095374"><ele>320.14285714285717</ele><time>2026-04-08T15:54:04Z</time></trkpt><trkpt lat="44.148128108559206" lon="3.8428750736903923"><ele>319.42857142857144</ele><time>2026-04-08T15:54:07Z</time></trkpt><trkpt lat="44.14807847751367" lon="3.8428131729289348"><ele>318.7142857142857</ele><time>2026-04-08T15:54:18Z</time></trkpt><trkpt lat="44.148011416351814" lon="3.8427730063673655"><ele>318.0</ele><time>2026-04-08T15:54:22Z</time></trkpt><trkpt lat="44.148058854296124" lon="3.8426964199331852"><ele>325.3333333333333</ele><time>2026-04-08T15:54:24Z</time></trkpt><trkpt lat="44.14806754853233" lon="3.8425963248014985"><ele>332.6666666666667</ele><time>2026-04-08T15:54:27Z</time></trkpt><trkpt lat="44.14806845003819" lon="3.8424796929781637"><ele>340.0</ele><time>2026-04-08T15:54:30Z</time></trkpt><trkpt lat="44.14807245133755" lon="3.8423570558980646"><ele>347.33333333333337</ele><time>2026-04-08T15:54:33Z</time></trkpt><trkpt lat="44.14807569594598" lon="3.842237998430707"><ele>354.6666666666667</ele><time>2026-04-08T15:54:36Z</time></trkpt><trkpt lat="44.148058837030746" lon="3.8421285941149033"><ele>362.0</ele><time>2026-04-08T15:54:39Z</time></trkpt><trkpt lat="44.14806816961105" lon="3.842030850378005"><ele>362.0</ele><time>2026-04-08T15:54:41Z</time></trkpt><trkpt lat="44.148058907225796" lon="3.8419289338191582"><ele>362.0</ele><time>2026-04-08T15:54:43Z</time></trkpt><trkpt lat="44.14804428429622" lon="3.8418206245662723"><ele>362.0</ele><time>2026-04-08T15:54:45Z</time></trkpt><trkpt lat="44.14801969864041" lon="3.841697098719421"><ele>362.0</ele><time>2026-04-08T15:54:47Z</time></trkpt><trkpt lat="44.14798666148128" lon="3.8415830509116216"><ele>362.0</ele><time>2026-04-08T15:54:49Z</time></trkpt><trkpt lat="44.147943472540376" lon="3.841481999036485"><ele>362.0</ele><time>2026-04-08T15:54:51Z</time></trkpt><trkpt lat="44.14788501466892" lon="3.841384700592786"><ele>360.20000000000005</ele><time>2026-04-08T15:54:53Z</time></trkpt><trkpt lat="44.14782463614519" lon="3.8412689868161856"><ele>358.4</ele><time>2026-04-08T15:54:55Z</time></trkpt><trkpt lat="44.147753297692034" lon="3.841148506807345"><ele>356.6</ele><time>2026-04-08T15:54:57Z</time></trkpt><trkpt lat="44.14771031858709" lon="3.841046657131637"><ele>354.79999999999995</ele><time>2026-04-08T15:54:59Z</time></trkpt><trkpt lat="44.147641971593785" lon="3.8409816511099866"><ele>353.0</ele><time>2026-04-08T15:55:02Z</time></trkpt><trkpt lat="44.14758426620983" lon="3.84090980964381"><ele>353.0</ele><time>2026-04-08T15:55:06Z</time></trkpt><trkpt lat="44.14752314982174" lon="3.8409498454113917"><ele>353.0</ele><time>2026-04-08T15:55:12Z</time></trkpt><trkpt lat="44.14755479757429" lon="3.8410811968766825"><ele>353.0</ele><time>2026-04-08T15:55:15Z</time></trkpt><trkpt lat="44.14759230655182" lon="3.8411657870404965"><ele>353.0</ele><time>2026-04-08T15:55:17Z</time></trkpt><trkpt lat="44.14763349067165" lon="3.8412619535121597"><ele>353.0</ele><time>2026-04-08T15:55:19Z</time></trkpt><trkpt lat="44.147662300634856" lon="3.841354398700179"><ele>353.0</ele><time>2026-04-08T15:55:22Z</time></trkpt><trkpt lat="44.14768167257267" lon="3.8414560443865198"><ele>353.0</ele><time>2026-04-08T15:55:27Z</time></trkpt><trkpt lat="44.147698928328104" lon="3.841571155521306"><ele>353.0</ele><time>2026-04-08T15:55:30Z</time></trkpt><trkpt lat="44.14770721380074" lon="3.841668219996408"><ele>353.0</ele><time>2026-04-08T15:55:32Z</time></trkpt><trkpt lat="44.14770888846401" lon="3.8417563876951735"><ele>353.0</ele><time>2026-04-08T15:55:34Z</time></trkpt><trkpt lat="44.147718368740826" lon="3.8418490360584903"><ele>353.0</ele><time>2026-04-08T15:55:36Z</time></trkpt><trkpt lat="44.14770640664931" lon="3.8419446417899286"><ele>353.0</ele><time>2026-04-08T15:55:38Z</time></trkpt><trkpt lat="44.14769009185937" lon="3.84204140466451"><ele>353.0</ele><time>2026-04-08T15:55:40Z</time></trkpt><trkpt lat="44.147680580599626" lon="3.8421450867424864"><ele>354.2857142857143</ele><time>2026-04-08T15:55:42Z</time></trkpt><trkpt lat="44.14766332250768" lon="3.842257045869806"><ele>355.5714285714286</ele><time>2026-04-08T15:55:44Z</time></trkpt><trkpt lat="44.14762954662666" lon="3.8423413582016948"><ele>356.8571428571429</ele><time>2026-04-08T15:55:46Z</time></trkpt><trkpt lat="44.14761004211756" lon="3.8424249607861976"><ele>358.1428571428571</ele><time>2026-04-08T15:55:48Z</time></trkpt><trkpt lat="44.14757589081213" lon="3.8425237058132633"><ele>359.42857142857144</ele><time>2026-04-08T15:55:50Z</time></trkpt><trkpt lat="44.14753693053444" lon="3.842602724666076"><ele>360.7142857142857</ele><time>2026-04-08T15:55:53Z</time></trkpt><trkpt lat="44.147501378904174" lon="3.842679404889652"><ele>362.0</ele><time>2026-04-08T15:55:56Z</time></trkpt><trkpt lat="44.1474660928771" lon="3.8427998153801033"><ele>362.83333333333337</ele><time>2026-04-08T15:55:59Z</time></trkpt><trkpt lat="44.14746455154511" lon="3.8429069460604643"><ele>363.6666666666667</ele><time>2026-04-08T15:56:01Z</time></trkpt><trkpt lat="44.14749896915798" lon="3.843026737346424"><ele>364.5</ele><time>2026-04-08T15:56:03Z</time></trkpt><trkpt lat="44.14753180177005" lon="3.843124860136196"><ele>365.3333333333333</ele><time>2026-04-08T15:56:05Z</time></trkpt><trkpt lat="44.14756446715584" lon="3.8432036047001934"><ele>366.16666666666663</ele><time>2026-04-08T15:56:08Z</time></trkpt><trkpt lat="44.14760043441971" lon="3.8432906833433482"><ele>367.0</ele><time>2026-04-08T15:56:10Z</time></trkpt><trkpt lat="44.14763171180042" lon="3.843374021633465"><ele>368.16666666666663</ele><time>2026-04-08T15:56:12Z</time></trkpt><trkpt lat="44.14767993731041" lon="3.843487036430624"><ele>369.3333333333333</ele><time>2026-04-08T15:56:15Z</time></trkpt><trkpt lat="44.14769764661503" lon="3.843591881949317"><ele>370.5</ele><time>2026-04-08T15:56:17Z</time></trkpt><trkpt lat="44.147723540574546" lon="3.843696815225358"><ele>371.6666666666667</ele><time>2026-04-08T15:56:19Z</time></trkpt><trkpt lat="44.14773785631283" lon="3.843796231034104"><ele>372.83333333333337</ele><time>2026-04-08T15:56:21Z</time></trkpt><trkpt lat="44.14774068297726" lon="3.8438924014390823"><ele>374.0</ele><time>2026-04-08T15:56:23Z</time></trkpt><trkpt lat="44.14767267553004" lon="3.8439781362072005"><ele>374.0</ele><time>2026-04-08T15:56:26Z</time></trkpt><trkpt lat="44.14762544400193" lon="3.844085335470191"><ele>374.0</ele><time>2026-04-08T15:56:28Z</time></trkpt><trkpt lat="44.14760800250963" lon="3.8442106878569016"><ele>374.0</ele><time>2026-04-08T15:56:30Z</time></trkpt><trkpt lat="44.14762727930133" lon="3.844345033001412"><ele>374.0</ele><time>2026-04-08T15:56:32Z</time></trkpt><trkpt lat="44.147665459530316" lon="3.844470299156159"><ele>374.0</ele><time>2026-04-08T15:56:34Z</time></trkpt><trkpt lat="44.14770131627435" lon="3.8445852392476767"><ele>376.0</ele><time>2026-04-08T15:56:36Z</time></trkpt><trkpt lat="44.14773100461895" lon="3.844701214656124"><ele>378.0</ele><time>2026-04-08T15:56:38Z</time></trkpt><trkpt lat="44.14773998284949" lon="3.844789209419311"><ele>380.0</ele><time>2026-04-08T15:56:40Z</time></trkpt><trkpt lat="44.14773912313837" lon="3.8449126152942137"><ele>382.0</ele><time>2026-04-08T15:56:43Z</time></trkpt><trkpt lat="44.14771861982694" lon="3.845024076720401"><ele>383.99999999999994</ele><time>2026-04-08T15:56:46Z</time></trkpt><trkpt lat="44.14766973410166" lon="3.844959006645266"><ele>386.0</ele><time>2026-04-08T15:56:51Z</time></trkpt><trkpt lat="44.14763054285124" lon="3.8448316857405125"><ele>386.0</ele><time>2026-04-08T15:56:53Z</time></trkpt><trkpt lat="44.14759998101347" lon="3.8446786969058784"><ele>386.0</ele><time>2026-04-08T15:56:55Z</time></trkpt><trkpt lat="44.147554196140334" lon="3.8445275764656643"><ele>386.0</ele><time>2026-04-08T15:56:57Z</time></trkpt><trkpt lat="44.14751748449678" lon="3.8443644071495626"><ele>386.0</ele><time>2026-04-08T15:56:59Z</time></trkpt><trkpt lat="44.14748502765386" lon="3.8442265686778683"><ele>383.99999999999994</ele><time>2026-04-08T15:57:01Z</time></trkpt><trkpt lat="44.14745827416444" lon="3.8441288287539086"><ele>382.0</ele><time>2026-04-08T15:57:03Z</time></trkpt><trkpt lat="44.147428023283624" lon="3.8440450936258963"><ele>380.0</ele><time>2026-04-08T15:57:06Z</time></trkpt><trkpt lat="44.147398218500435" lon="3.8439558614277876"><ele>378.0</ele><time>2026-04-08T15:57:09Z</time></trkpt><trkpt lat="44.147347983320806" lon="3.8438408709751006"><ele>376.0</ele><time>2026-04-08T15:57:12Z</time></trkpt><trkpt lat="44.14730599872565" lon="3.8437469620118776"><ele>374.0</ele><time>2026-04-08T15:57:14Z</time></trkpt><trkpt lat="44.14725922128332" lon="3.843642332634407"><ele>381.4</ele><time>2026-04-08T15:57:16Z</time></trkpt><trkpt lat="44.14720418750619" lon="3.8435173408452017"><ele>388.79999999999995</ele><time>2026-04-08T15:57:18Z</time></trkpt><trkpt lat="44.14715690923452" lon="3.8434042395497316"><ele>396.20000000000005</ele><time>2026-04-08T15:57:20Z</time></trkpt><trkpt lat="44.14709292064483" lon="3.8432994927989976"><ele>403.6</ele><time>2026-04-08T15:57:22Z</time></trkpt><trkpt lat="44.147055505780315" lon="3.8431711624086557"><ele>411.0</ele><time>2026-04-08T15:57:24Z</time></trkpt><trkpt lat="44.14700871496537" lon="3.843092578142972"><ele>411.0</ele><time>2026-04-08T15:57:26Z</time></trkpt><trkpt lat="44.14698235107844" lon="3.842991470231328"><ele>411.0</ele><time>2026-04-08T15:57:29Z</time></trkpt><trkpt lat="44.14694722108229" lon="3.842887020354866"><ele>411.0</ele><time>2026-04-08T15:57:31Z</time></trkpt><trkpt lat="44.14692112469338" lon="3.8427812041378258"><ele>411.0</ele><time>2026-04-08T15:57:33Z</time></trkpt><trkpt lat="44.146916247829516" lon="3.8426803560836276"><ele>411.0</ele><time>2026-04-08T15:57:35Z</time></trkpt><trkpt lat="44.14693376626393" lon="3.8425548756979424"><ele>411.0</ele><time>2026-04-08T15:57:37Z</time></trkpt><trkpt lat="44.146961579651176" lon="3.842421752120589"><ele>410.0</ele><time>2026-04-08T15:57:39Z</time></trkpt><trkpt lat="44.14697468305446" lon="3.8423091445245716"><ele>409.0</ele><time>2026-04-08T15:57:41Z</time></trkpt><trkpt lat="44.146986987941396" lon="3.842210847742111"><ele>408.0</ele><time>2026-04-08T15:57:43Z</time></trkpt><trkpt lat="44.14699760421816" lon="3.8421120187667794"><ele>407.0</ele><time>2026-04-08T15:57:47Z</time></trkpt><trkpt lat="44.14698844215749" lon="3.841999558481153"><ele>406.0</ele><time>2026-04-08T15:57:51Z</time></trkpt><trkpt lat="44.146934572832464" lon="3.841870571123979"><ele>405.0</ele><time>2026-04-08T15:57:54Z</time></trkpt><trkpt lat="44.14686301890109" lon="3.8417889398086364"><ele>402.8333333333333</ele><time>2026-04-08T15:57:56Z</time></trkpt><trkpt lat="44.14679352846047" lon="3.841730929203477"><ele>400.66666666666663</ele><time>2026-04-08T15:57:58Z</time></trkpt><trkpt lat="44.1467262975823" lon="3.8416808859754545"><ele>398.5</ele><time>2026-04-08T15:58:01Z</time></trkpt><trkpt lat="44.14666286756502" lon="3.841635676796321"><ele>396.3333333333333</ele><time>2026-04-08T15:58:04Z</time></trkpt><trkpt lat="44.14658454027791" lon="3.8415798499130336"><ele>394.16666666666663</ele><time>2026-04-08T15:58:07Z</time></trkpt><trkpt lat="44.14652336952611" lon="3.84153587896047"><ele>392.0</ele><time>2026-04-08T15:58:09Z</time></trkpt><trkpt lat="44.14645873143609" lon="3.8414885704439374"><ele>397.8333333333333</ele><time>2026-04-08T15:58:11Z</time></trkpt><trkpt lat="44.14639770288384" lon="3.8414439037792536"><ele>403.66666666666663</ele><time>2026-04-08T15:58:13Z</time></trkpt><trkpt lat="44.14633229030657" lon="3.841416436959642"><ele>409.5</ele><time>2026-04-08T15:58:16Z</time></trkpt><trkpt lat="44.14625034883963" lon="3.841355706349004"><ele>415.33333333333337</ele><time>2026-04-08T15:58:19Z</time></trkpt><trkpt lat="44.14616994718713" lon="3.841310794894273"><ele>421.1666666666667</ele><time>2026-04-08T15:58:21Z</time></trkpt><trkpt lat="44.146084051748566" lon="3.841256533862414"><ele>427.0</ele><time>2026-04-08T15:58:23Z</time></trkpt><trkpt lat="44.14600231153711" lon="3.841200240821892"><ele>427.00000000000006</ele><time>2026-04-08T15:58:25Z</time></trkpt><trkpt lat="44.14593758789596" lon="3.8411166047833682"><ele>427.0</ele><time>2026-04-08T15:58:27Z</time></trkpt><trkpt lat="44.1458666200624" lon="3.841052464668871"><ele>427.0</ele><time>2026-04-08T15:58:29Z</time></trkpt><trkpt lat="44.145784695522096" lon="3.840999138986715"><ele>427.0</ele><time>2026-04-08T15:58:31Z</time></trkpt><trkpt lat="44.14572452642663" lon="3.840931351818094"><ele>427.00000000000006</ele><time>2026-04-08T15:58:33Z</time></trkpt><trkpt lat="44.14567055279258" lon="3.8408795330081804"><ele>427.0</ele><time>2026-04-08T15:58:35Z</time></trkpt><trkpt lat="44.145624172645" lon="3.8408188404150967"><ele>426.1666666666667</ele><time>2026-04-08T15:58:37Z</time></trkpt><trkpt lat="44.14555785168602" lon="3.8407790817588134"><ele>425.33333333333337</ele><time>2026-04-08T15:58:39Z</time></trkpt><trkpt lat="44.1454706328813" lon="3.8407542592582935"><ele>424.5</ele><time>2026-04-08T15:58:41Z</time></trkpt><trkpt lat="44.14538661086601" lon="3.8407384918814853"><ele>423.66666666666663</ele><time>2026-04-08T15:58:43Z</time></trkpt><trkpt lat="44.1452983378125" lon="3.840720253245268"><ele>422.8333333333333</ele><time>2026-04-08T15:58:46Z</time></trkpt><trkpt lat="44.14520632699192" lon="3.840675590543203"><ele>422.0</ele><time>2026-04-08T15:58:49Z</time></trkpt><trkpt lat="44.14512905380955" lon="3.840643370470011"><ele>421.99999999999994</ele><time>2026-04-08T15:58:51Z</time></trkpt><trkpt lat="44.145053973942304" lon="3.8405790355293314"><ele>422.0</ele><time>2026-04-08T15:58:53Z</time></trkpt><trkpt lat="44.14496915699749" lon="3.8405463699654714"><ele>422.0</ele><time>2026-04-08T15:58:55Z</time></trkpt><trkpt lat="44.14488430306002" lon="3.8405232421454496"><ele>422.0</ele><time>2026-04-08T15:58:57Z</time></trkpt><trkpt lat="44.144826314741216" lon="3.840467079909509"><ele>421.99999999999994</ele><time>2026-04-08T15:58:59Z</time></trkpt><trkpt lat="44.14475358712068" lon="3.840424895114846"><ele>422.0</ele><time>2026-04-08T15:59:01Z</time></trkpt><trkpt lat="44.144690517735725" lon="3.8403859326460634"><ele>423.16666666666663</ele><time>2026-04-08T15:59:03Z</time></trkpt><trkpt lat="44.14460847831017" lon="3.840359273322606"><ele>424.3333333333333</ele><time>2026-04-08T15:59:05Z</time></trkpt><trkpt lat="44.14453077648231" lon="3.840302531607783"><ele>425.5</ele><time>2026-04-08T15:59:07Z</time></trkpt><trkpt lat="44.1444558241749" lon="3.84022886466611"><ele>426.66666666666663</ele><time>2026-04-08T15:59:09Z</time></trkpt><trkpt lat="44.144378753687064" lon="3.8401591571279394"><ele>427.8333333333333</ele><time>2026-04-08T15:59:11Z</time></trkpt><trkpt lat="44.14432182078147" lon="3.840097681828993"><ele>429.0</ele><time>2026-04-08T15:59:13Z</time></trkpt><trkpt lat="44.1442484072394" lon="3.840011246345942"><ele>429.0</ele><time>2026-04-08T15:59:16Z</time></trkpt><trkpt lat="44.144188337599665" lon="3.839932745707135"><ele>429.0</ele><time>2026-04-08T15:59:18Z</time></trkpt><trkpt lat="44.14413144102079" lon="3.8398496481776525"><ele>429.0</ele><time>2026-04-08T15:59:20Z</time></trkpt><trkpt lat="44.14407318421465" lon="3.8397501071752247"><ele>429.0</ele><time>2026-04-08T15:59:23Z</time></trkpt><trkpt lat="44.14403081240632" lon="3.8396655658322065"><ele>429.0</ele><time>2026-04-08T15:59:25Z</time></trkpt><trkpt lat="44.143992550193055" lon="3.8395887946429115"><ele>429.0</ele><time>2026-04-08T15:59:27Z</time></trkpt><trkpt lat="44.143923437151685" lon="3.839497557914089"><ele>430.3333333333333</ele><time>2026-04-08T15:59:30Z</time></trkpt><trkpt lat="44.1438707172052" lon="3.8394137924907743"><ele>431.66666666666663</ele><time>2026-04-08T15:59:32Z</time></trkpt><trkpt lat="44.14382021375701" lon="3.8393348350727154"><ele>433.0</ele><time>2026-04-08T15:59:34Z</time></trkpt><trkpt lat="44.14377787532424" lon="3.839268851487315"><ele>434.3333333333333</ele><time>2026-04-08T15:59:36Z</time></trkpt><trkpt lat="44.14373250451302" lon="3.839201457463606"><ele>435.66666666666663</ele><time>2026-04-08T15:59:38Z</time></trkpt><trkpt lat="44.1436711336549" lon="3.8391171710523246"><ele>437.0</ele><time>2026-04-08T15:59:40Z</time></trkpt><trkpt lat="44.14359168294828" lon="3.839023789898161"><ele>436.99999999999994</ele><time>2026-04-08T15:59:42Z</time></trkpt><trkpt lat="44.14351778706237" lon="3.838946013794352"><ele>437.0</ele><time>2026-04-08T15:59:44Z</time></trkpt><trkpt lat="44.14345600837659" lon="3.8388856706619725"><ele>437.0</ele><time>2026-04-08T15:59:46Z</time></trkpt><trkpt lat="44.143400870590625" lon="3.8388337953794047"><ele>437.0</ele><time>2026-04-08T15:59:48Z</time></trkpt><trkpt lat="44.143323842075034" lon="3.8387725625813593"><ele>436.99999999999994</ele><time>2026-04-08T15:59:50Z</time></trkpt><trkpt lat="44.14324037691273" lon="3.838718500289375"><ele>437.0</ele><time>2026-04-08T15:59:52Z</time></trkpt><trkpt lat="44.14315350311869" lon="3.8386743315117733"><ele>440.1428571428571</ele><time>2026-04-08T15:59:54Z</time></trkpt><trkpt lat="44.14308816495761" lon="3.8386587049954746"><ele>443.28571428571433</ele><time>2026-04-08T15:59:56Z</time></trkpt><trkpt lat="44.14301398294714" lon="3.8386482579723116"><ele>446.42857142857144</ele><time>2026-04-08T15:59:58Z</time></trkpt><trkpt lat="44.14294036909769" lon="3.8386460515615535"><ele>449.57142857142856</ele><time>2026-04-08T16:00:00Z</time></trkpt><trkpt lat="44.1428722789256" lon="3.838661740962475"><ele>452.71428571428567</ele><time>2026-04-08T16:00:02Z</time></trkpt><trkpt lat="44.14280132444508" lon="3.838665238941859"><ele>455.8571428571429</ele><time>2026-04-08T16:00:04Z</time></trkpt><trkpt lat="44.142733171287766" lon="3.838668444219717"><ele>459.0</ele><time>2026-04-08T16:00:06Z</time></trkpt><trkpt lat="44.14266146989402" lon="3.8386459598505622"><ele>459.0</ele><time>2026-04-08T16:00:08Z</time></trkpt><trkpt lat="44.14256949622234" lon="3.8386305719846883"><ele>459.0</ele><time>2026-04-08T16:00:10Z</time></trkpt><trkpt lat="44.142471271166684" lon="3.838603918693161"><ele>459.0</ele><time>2026-04-08T16:00:12Z</time></trkpt><trkpt lat="44.142380010894705" lon="3.838576250377789"><ele>459.0</ele><time>2026-04-08T16:00:14Z</time></trkpt><trkpt lat="44.14228527513529" lon="3.8385676790809073"><ele>459.0</ele><time>2026-04-08T16:00:16Z</time></trkpt><trkpt lat="44.142198109811865" lon="3.838549998334397"><ele>456.1666666666667</ele><time>2026-04-08T16:00:18Z</time></trkpt><trkpt lat="44.14210985442878" lon="3.838528091565698"><ele>453.33333333333337</ele><time>2026-04-08T16:00:21Z</time></trkpt><trkpt lat="44.1420446094414" lon="3.838514534046586"><ele>450.5</ele><time>2026-04-08T16:00:24Z</time></trkpt><trkpt lat="44.141963861868184" lon="3.8384829101119715"><ele>447.6666666666667</ele><time>2026-04-08T16:01:46Z</time></trkpt><trkpt lat="44.14187182060083" lon="3.8384467802780957"><ele>444.83333333333337</ele><time>2026-04-08T16:01:49Z</time></trkpt><trkpt lat="44.14179639160896" lon="3.8384314939204236"><ele>442.0</ele><time>2026-04-08T16:01:51Z</time></trkpt><trkpt lat="44.14174266281703" lon="3.8383700855910026"><ele>442.0</ele><time>2026-04-08T16:01:53Z</time></trkpt><trkpt lat="44.14165726170034" lon="3.8383052440003573"><ele>442.00000000000006</ele><time>2026-04-08T16:01:55Z</time></trkpt><trkpt lat="44.14155679288288" lon="3.8382294779071366"><ele>442.00000000000006</ele><time>2026-04-08T16:01:57Z</time></trkpt><trkpt lat="44.141468945564164" lon="3.838164268070478"><ele>442.0</ele><time>2026-04-08T16:01:59Z</time></trkpt><trkpt lat="44.141388461427205" lon="3.838106096069972"><ele>442.0</ele><time>2026-04-08T16:02:01Z</time></trkpt><trkpt lat="44.14132554019197" lon="3.8380608310379083"><ele>446.0</ele><time>2026-04-08T16:02:03Z</time></trkpt><trkpt lat="44.14123621662846" lon="3.837996225193059"><ele>450.0</ele><time>2026-04-08T16:02:06Z</time></trkpt><trkpt lat="44.14112875826508" lon="3.8379202252011693"><ele>454.0</ele><time>2026-04-08T16:02:08Z</time></trkpt><trkpt lat="44.14101520449813" lon="3.837864845783587"><ele>458.0</ele><time>2026-04-08T16:02:10Z</time></trkpt><trkpt lat="44.14091720557688" lon="3.8377755543530214"><ele>458.0</ele><time>2026-04-08T16:02:12Z</time></trkpt><trkpt lat="44.1408182987162" lon="3.8377107805394"><ele>457.99999999999994</ele><time>2026-04-08T16:02:14Z</time></trkpt><trkpt lat="44.14072513528373" lon="3.8376558534123206"><ele>457.99999999999994</ele><time>2026-04-08T16:02:16Z</time></trkpt><trkpt lat="44.140628433781615" lon="3.837614793804187"><ele>458.0</ele><time>2026-04-08T16:02:18Z</time></trkpt><trkpt lat="44.14054235889946" lon="3.837581449828268"><ele>458.0</ele><time>2026-04-08T16:02:20Z</time></trkpt><trkpt lat="44.14043913134755" lon="3.837571346523165"><ele>456.8333333333333</ele><time>2026-04-08T16:02:22Z</time></trkpt><trkpt lat="44.14034682360478" lon="3.8374994560756033"><ele>455.66666666666663</ele><time>2026-04-08T16:02:24Z</time></trkpt><trkpt lat="44.140278458761344" lon="3.837409464983491"><ele>454.5</ele><time>2026-04-08T16:02:26Z</time></trkpt><trkpt lat="44.140321239764376" lon="3.8373297826812784"><ele>453.33333333333337</ele><time>2026-04-08T16:02:28Z</time></trkpt><trkpt lat="44.140371901149294" lon="3.8372424783084536"><ele>452.1666666666667</ele><time>2026-04-08T16:02:30Z</time></trkpt><trkpt lat="44.140427359826724" lon="3.8371491452901467"><ele>451.0</ele><time>2026-04-08T16:02:33Z</time></trkpt><trkpt lat="44.140482505774294" lon="3.837083244646022"><ele>451.00000000000006</ele><time>2026-04-08T16:02:37Z</time></trkpt><trkpt lat="44.14054305275359" lon="3.8370310307251834"><ele>451.0</ele><time>2026-04-08T16:02:40Z</time></trkpt><trkpt lat="44.140610768558176" lon="3.837014619221632"><ele>451.0</ele><time>2026-04-08T16:02:42Z</time></trkpt><trkpt lat="44.14068791121304" lon="3.8370705740237603"><ele>451.0</ele><time>2026-04-08T16:02:44Z</time></trkpt><trkpt lat="44.14077528646022" lon="3.837119351590431"><ele>451.00000000000006</ele><time>2026-04-08T16:02:46Z</time></trkpt><trkpt lat="44.1408800972174" lon="3.8371050757310043"><ele>451.0</ele><time>2026-04-08T16:02:48Z</time></trkpt><trkpt lat="44.140964846078575" lon="3.8370809052785226"><ele>448.50000000000006</ele><time>2026-04-08T16:02:50Z</time></trkpt><trkpt lat="44.14103776270097" lon="3.837052651110042"><ele>446.0</ele><time>2026-04-08T16:02:52Z</time></trkpt><trkpt lat="44.14110668800005" lon="3.8370257969863877"><ele>443.5</ele><time>2026-04-08T16:02:54Z</time></trkpt><trkpt lat="44.141183211730045" lon="3.83701415829241"><ele>441.0</ele><time>2026-04-08T16:02:57Z</time></trkpt><trkpt lat="44.14124991042493" lon="3.8370375356643236"><ele>438.50000000000006</ele><time>2026-04-08T16:02:59Z</time></trkpt><trkpt lat="44.14132041815342" lon="3.8370722408492286"><ele>436.0</ele><time>2026-04-08T16:03:01Z</time></trkpt><trkpt lat="44.14141505129315" lon="3.837077231622535"><ele>436.00000000000006</ele><time>2026-04-08T16:03:03Z</time></trkpt><trkpt lat="44.141497539388425" lon="3.837057021919666"><ele>436.0</ele><time>2026-04-08T16:03:05Z</time></trkpt><trkpt lat="44.141575790241326" lon="3.8370329012149997"><ele>436.0</ele><time>2026-04-08T16:03:07Z</time></trkpt><trkpt lat="44.141660821321686" lon="3.8370056424372403"><ele>436.0</ele><time>2026-04-08T16:03:09Z</time></trkpt><trkpt lat="44.14173926448364" lon="3.8369564860595604"><ele>436.00000000000006</ele><time>2026-04-08T16:03:11Z</time></trkpt><trkpt lat="44.141802969452904" lon="3.8369302877435363"><ele>436.0</ele><time>2026-04-08T16:03:13Z</time></trkpt><trkpt lat="44.14187875968485" lon="3.8369071947243962"><ele>434.0</ele><time>2026-04-08T16:03:16Z</time></trkpt><trkpt lat="44.14196293000953" lon="3.8369012792114425"><ele>432.0</ele><time>2026-04-08T16:03:19Z</time></trkpt><trkpt lat="44.142044476016274" lon="3.836895445789486"><ele>430.0</ele><time>2026-04-08T16:03:21Z</time></trkpt><trkpt lat="44.14213586541842" lon="3.8369032553109017"><ele>428.0</ele><time>2026-04-08T16:03:23Z</time></trkpt><trkpt lat="44.14224779551358" lon="3.836898587365418"><ele>426.0</ele><time>2026-04-08T16:03:25Z</time></trkpt><trkpt lat="44.142351880243055" lon="3.836881321051002"><ele>427.6</ele><time>2026-04-08T16:03:27Z</time></trkpt><trkpt lat="44.14245823292537" lon="3.8368500342202276"><ele>429.20000000000005</ele><time>2026-04-08T16:03:29Z</time></trkpt><trkpt lat="44.1425534449063" lon="3.8367821389388053"><ele>430.79999999999995</ele><time>2026-04-08T16:03:31Z</time></trkpt><trkpt lat="44.14262371802813" lon="3.836709745518306"><ele>432.4</ele><time>2026-04-08T16:03:33Z</time></trkpt><trkpt lat="44.14268509588465" lon="3.8366665304869554"><ele>434.0</ele><time>2026-04-08T16:03:35Z</time></trkpt><trkpt lat="44.142795104876726" lon="3.836720054518024"><ele>433.99999999999994</ele><time>2026-04-08T16:03:40Z</time></trkpt><trkpt lat="44.1428765173411" lon="3.8367889372991333"><ele>434.0</ele><time>2026-04-08T16:03:43Z</time></trkpt><trkpt lat="44.14295237914403" lon="3.836835995527082"><ele>434.0</ele><time>2026-04-08T16:03:45Z</time></trkpt><trkpt lat="44.14301674707306" lon="3.8368619746296404"><ele>434.0</ele><time>2026-04-08T16:03:47Z</time></trkpt><trkpt lat="44.1430796631702" lon="3.8368801034053712"><ele>433.99999999999994</ele><time>2026-04-08T16:03:49Z</time></trkpt><trkpt lat="44.143144560501135" lon="3.8368779577395684"><ele>434.0</ele><time>2026-04-08T16:03:51Z</time></trkpt><trkpt lat="44.14322280372135" lon="3.8368958398566773"><ele>428.8333333333333</ele><time>2026-04-08T16:03:53Z</time></trkpt><trkpt lat="44.14330731246977" lon="3.8369076559142434"><ele>423.66666666666663</ele><time>2026-04-08T16:03:56Z</time></trkpt><trkpt lat="44.14338583425174" lon="3.8369454266635614"><ele>418.5</ele><time>2026-04-08T16:03:59Z</time></trkpt><trkpt lat="44.14349232498675" lon="3.8369424627246627"><ele>413.33333333333337</ele><time>2026-04-08T16:04:01Z</time></trkpt><trkpt lat="44.14355681593" lon="3.836955693572079"><ele>408.1666666666667</ele><time>2026-04-08T16:04:03Z</time></trkpt><trkpt lat="44.143625109216465" lon="3.8369658195946776"><ele>403.0</ele><time>2026-04-08T16:04:06Z</time></trkpt><trkpt lat="44.14371887113598" lon="3.836977729493363"><ele>403.00000000000006</ele><time>2026-04-08T16:04:09Z</time></trkpt><trkpt lat="44.14379253625372" lon="3.8370161410596375"><ele>403.0</ele><time>2026-04-08T16:04:12Z</time></trkpt><trkpt lat="44.14385982521833" lon="3.8370607916637214"><ele>403.0</ele><time>2026-04-08T16:04:15Z</time></trkpt><trkpt lat="44.143914914523116" lon="3.8371131072041185"><ele>403.0</ele><time>2026-04-08T16:04:17Z</time></trkpt><trkpt lat="44.14399120376187" lon="3.837165076838067"><ele>403.00000000000006</ele><time>2026-04-08T16:04:19Z</time></trkpt><trkpt lat="44.1440639868289" lon="3.837259812120048"><ele>403.0</ele><time>2026-04-08T16:04:21Z</time></trkpt><trkpt lat="44.144151530036446" lon="3.8373504316881486"><ele>404.33333333333337</ele><time>2026-04-08T16:04:23Z</time></trkpt><trkpt lat="44.14422707141309" lon="3.837437628597022"><ele>405.6666666666667</ele><time>2026-04-08T16:04:25Z</time></trkpt><trkpt lat="44.14428668351439" lon="3.8375104649594594"><ele>407.0</ele><time>2026-04-08T16:04:27Z</time></trkpt><trkpt lat="44.144359492814885" lon="3.8375782940689014"><ele>408.33333333333337</ele><time>2026-04-08T16:04:29Z</time></trkpt><trkpt lat="44.14446076705284" lon="3.837603596087881"><ele>409.6666666666667</ele><time>2026-04-08T16:04:31Z</time></trkpt><trkpt lat="44.1445317433772" lon="3.8376195477102484"><ele>411.0</ele><time>2026-04-08T16:04:33Z</time></trkpt><trkpt lat="44.14459895907206" lon="3.8376324582869654"><ele>408.3333333333333</ele><time>2026-04-08T16:04:35Z</time></trkpt><trkpt lat="44.14467234116121" lon="3.837645944883946"><ele>405.66666666666663</ele><time>2026-04-08T16:04:37Z</time></trkpt><trkpt lat="44.14475134856608" lon="3.8376560642238413"><ele>403.0</ele><time>2026-04-08T16:04:39Z</time></trkpt><trkpt lat="44.14483153061271" lon="3.8376848679471713"><ele>400.3333333333333</ele><time>2026-04-08T16:04:41Z</time></trkpt><trkpt lat="44.14491234962056" lon="3.8376798042030327"><ele>397.66666666666663</ele><time>2026-04-08T16:04:43Z</time></trkpt><trkpt lat="44.14498262738712" lon="3.837734033837986"><ele>395.0</ele><time>2026-04-08T16:04:45Z</time></trkpt><trkpt lat="44.14499222418986" lon="3.837824395873549"><ele>394.99999999999994</ele><time>2026-04-08T16:04:46Z</time></trkpt><trkpt lat="44.145070234153124" lon="3.8378902168667444"><ele>395.0</ele><time>2026-04-08T16:04:48Z</time></trkpt><trkpt lat="44.14515417656723" lon="3.8378913232575416"><ele>395.0</ele><time>2026-04-08T16:04:50Z</time></trkpt><trkpt lat="44.145221764049175" lon="3.837883263955294"><ele>395.0</ele><time>2026-04-08T16:04:52Z</time></trkpt><trkpt lat="44.145285150685766" lon="3.837892501814289"><ele>394.99999999999994</ele><time>2026-04-08T16:04:54Z</time></trkpt><trkpt lat="44.14536610360984" lon="3.8379276395109185"><ele>395.0</ele><time>2026-04-08T16:04:56Z</time></trkpt><trkpt lat="44.145446024319114" lon="3.837999618432996"><ele>394.99999999999994</ele><time>2026-04-08T16:04:58Z</time></trkpt><trkpt lat="44.14552617909246" lon="3.838016395901601"><ele>395.0</ele><time>2026-04-08T16:05:00Z</time></trkpt><trkpt lat="44.14560392089991" lon="3.8380429101170837"><ele>395.0</ele><time>2026-04-08T16:05:02Z</time></trkpt><trkpt lat="44.145680701046075" lon="3.8380635670664676"><ele>395.0</ele><time>2026-04-08T16:05:05Z</time></trkpt><trkpt lat="44.145771612637816" lon="3.8380872546003224"><ele>394.99999999999994</ele><time>2026-04-08T16:05:08Z</time></trkpt><trkpt lat="44.14584865166311" lon="3.8380834989255956"><ele>395.0</ele><time>2026-04-08T16:05:10Z</time></trkpt><trkpt lat="44.14591608127824" lon="3.838101246009379"><ele>397.16666666666663</ele><time>2026-04-08T16:05:12Z</time></trkpt><trkpt lat="44.14602323062101" lon="3.8381286952636793"><ele>399.3333333333333</ele><time>2026-04-08T16:05:15Z</time></trkpt><trkpt lat="44.14609336071101" lon="3.838103076902178"><ele>401.5</ele><time>2026-04-08T16:05:17Z</time></trkpt><trkpt lat="44.14615812317264" lon="3.838116630886193"><ele>403.66666666666663</ele><time>2026-04-08T16:05:19Z</time></trkpt><trkpt lat="44.146224022891445" lon="3.8380809858452634"><ele>405.8333333333333</ele><time>2026-04-08T16:05:21Z</time></trkpt><trkpt lat="44.146289550855926" lon="3.838090174699231"><ele>408.0</ele><time>2026-04-08T16:05:23Z</time></trkpt><trkpt lat="44.14636982492182" lon="3.838074713447141"><ele>408.0</ele><time>2026-04-08T16:05:26Z</time></trkpt><trkpt lat="44.146442107432264" lon="3.8380642905501823"><ele>408.0</ele><time>2026-04-08T16:05:28Z</time></trkpt><trkpt lat="44.14650847181463" lon="3.838037061894729"><ele>408.0</ele><time>2026-04-08T16:05:30Z</time></trkpt><trkpt lat="44.14658534175758" lon="3.838055945027668"><ele>408.0</ele><time>2026-04-08T16:05:33Z</time></trkpt><trkpt lat="44.14667197358194" lon="3.8380422253754256"><ele>408.0</ele><time>2026-04-08T16:05:36Z</time></trkpt><trkpt lat="44.146737141161765" lon="3.8380497376114873"><ele>408.0</ele><time>2026-04-08T16:05:38Z</time></trkpt><trkpt lat="44.14680009247107" lon="3.8380825012403372"><ele>408.0</ele><time>2026-04-08T16:05:40Z</time></trkpt><trkpt lat="44.14689136910156" lon="3.838103705606262"><ele>410.59999999999997</ele><time>2026-04-08T16:05:42Z</time></trkpt><trkpt lat="44.146973409965476" lon="3.838127418401842"><ele>413.2</ele><time>2026-04-08T16:05:44Z</time></trkpt><trkpt lat="44.1470571932425" lon="3.838152491763456"><ele>415.8</ele><time>2026-04-08T16:05:46Z</time></trkpt><trkpt lat="44.147156893883896" lon="3.838182633995866"><ele>418.4</ele><time>2026-04-08T16:05:48Z</time></trkpt><trkpt lat="44.14726382921585" lon="3.838197553857164"><ele>421.0</ele><time>2026-04-08T16:05:50Z</time></trkpt><trkpt lat="44.14735750625127" lon="3.838235321351073"><ele>422.6</ele><time>2026-04-08T16:05:52Z</time></trkpt><trkpt lat="44.14744526613702" lon="3.8382651016210034"><ele>424.20000000000005</ele><time>2026-04-08T16:05:54Z</time></trkpt><trkpt lat="44.1475324592013" lon="3.8382926181249077"><ele>425.79999999999995</ele><time>2026-04-08T16:05:56Z</time></trkpt><trkpt lat="44.147614628165776" lon="3.8383373991309586"><ele>427.4</ele><time>2026-04-08T16:05:58Z</time></trkpt><trkpt lat="44.14771534693606" lon="3.8383708130930345"><ele>429.0</ele><time>2026-04-08T16:06:00Z</time></trkpt><trkpt lat="44.14780780898609" lon="3.8383861676149786"><ele>429.0</ele><time>2026-04-08T16:06:02Z</time></trkpt><trkpt lat="44.147895108175376" lon="3.838412967272787"><ele>429.0</ele><time>2026-04-08T16:06:04Z</time></trkpt><trkpt lat="44.14797553289963" lon="3.8384527834263125"><ele>429.0</ele><time>2026-04-08T16:06:06Z</time></trkpt><trkpt lat="44.148059385587075" lon="3.83847244074314"><ele>429.0</ele><time>2026-04-08T16:06:08Z</time></trkpt><trkpt lat="44.148177390622514" lon="3.838482021078416"><ele>429.0</ele><time>2026-04-08T16:06:10Z</time></trkpt><trkpt lat="44.14827056690385" lon="3.8384757071725923"><ele>429.2</ele><time>2026-04-08T16:06:12Z</time></trkpt><trkpt lat="44.14835712369725" lon="3.8384493106999575"><ele>429.4</ele><time>2026-04-08T16:06:14Z</time></trkpt><trkpt lat="44.1484449000974" lon="3.838439365100824"><ele>429.6</ele><time>2026-04-08T16:06:16Z</time></trkpt><trkpt lat="44.14854519810805" lon="3.838446117315686"><ele>429.8</ele><time>2026-04-08T16:06:18Z</time></trkpt><trkpt lat="44.14863696518122" lon="3.838449140064845"><ele>430.0</ele><time>2026-04-08T16:06:20Z</time></trkpt><trkpt lat="44.148722265739664" lon="3.838454024778233"><ele>428.33333333333337</ele><time>2026-04-08T16:06:23Z</time></trkpt><trkpt lat="44.14880133823518" lon="3.83847611953751"><ele>426.6666666666667</ele><time>2026-04-08T16:06:25Z</time></trkpt><trkpt lat="44.148882748646265" lon="3.8385059461937696"><ele>425.0</ele><time>2026-04-08T16:06:27Z</time></trkpt><trkpt lat="44.14896222550314" lon="3.8385427369150107"><ele>423.33333333333337</ele><time>2026-04-08T16:06:29Z</time></trkpt><trkpt lat="44.14902595928085" lon="3.8385528521846064"><ele>421.6666666666667</ele><time>2026-04-08T16:06:31Z</time></trkpt><trkpt lat="44.14908490715935" lon="3.838511066812289"><ele>420.0</ele><time>2026-04-08T16:06:34Z</time></trkpt><trkpt lat="44.14919693232988" lon="3.838502407610953"><ele>420.0</ele><time>2026-04-08T16:06:49Z</time></trkpt><trkpt lat="44.14938891525084" lon="3.8388491309855617"><ele>420.0</ele><time>2026-04-08T16:06:54Z</time></trkpt><trkpt lat="44.14945435863426" lon="3.8389144872086374"><ele>420.0</ele><time>2026-04-08T16:06:56Z</time></trkpt><trkpt lat="44.14951110533119" lon="3.8389730090072582"><ele>420.0</ele><time>2026-04-08T16:06:58Z</time></trkpt><trkpt lat="44.14957752133235" lon="3.839034428731116"><ele>420.0</ele><time>2026-04-08T16:07:01Z</time></trkpt><trkpt lat="44.14963462707786" lon="3.8390914798191362"><ele>420.0</ele><time>2026-04-08T16:07:04Z</time></trkpt><trkpt lat="44.14957704551724" lon="3.83903666335384"><ele>420.0</ele><time>2026-04-08T16:07:19Z</time></trkpt><trkpt lat="44.149516891867734" lon="3.83899113384668"><ele>420.0</ele><time>2026-04-08T16:07:24Z</time></trkpt><trkpt lat="44.14945841562408" lon="3.838939694371092"><ele>420.0</ele><time>2026-04-08T16:07:32Z</time></trkpt><trkpt lat="44.14950624203909" lon="3.839000651727047"><ele>420.0</ele><time>2026-04-08T16:08:38Z</time></trkpt><trkpt lat="44.14955957499563" lon="3.8390558754066957"><ele>420.0</ele><time>2026-04-08T16:08:43Z</time></trkpt><trkpt lat="44.14962475661478" lon="3.839105630554841"><ele>420.0</ele><time>2026-04-08T16:08:48Z</time></trkpt><trkpt lat="44.14967791220798" lon="3.8391591302591315"><ele>420.0</ele><time>2026-04-08T16:08:54Z</time></trkpt><trkpt lat="44.14973674400043" lon="3.8392141233775647"><ele>420.0</ele><time>2026-04-08T16:09:03Z</time></trkpt><trkpt lat="44.1497800016947" lon="3.839289589873646"><ele>420.0</ele><time>2026-04-08T16:09:26Z</time></trkpt><trkpt lat="44.14982303575356" lon="3.839370199652726"><ele>420.0</ele><time>2026-04-08T16:09:32Z</time></trkpt><trkpt lat="44.14986871498171" lon="3.839434047692245"><ele>420.0</ele><time>2026-04-08T16:09:38Z</time></trkpt><trkpt lat="44.14991686134415" lon="3.8394974157345136"><ele>421.85714285714283</ele><time>2026-04-08T16:09:44Z</time></trkpt><trkpt lat="44.14995938874252" lon="3.839564615732978"><ele>423.7142857142857</ele><time>2026-04-08T16:09:50Z</time></trkpt><trkpt lat="44.15000626962618" lon="3.8396245740550192"><ele>425.57142857142856</ele><time>2026-04-08T16:09:56Z</time></trkpt><trkpt lat="44.15005901659088" lon="3.839691288864789"><ele>427.42857142857144</ele><time>2026-04-08T16:10:04Z</time></trkpt><trkpt lat="44.15012450965347" lon="3.839739130302003"><ele>429.2857142857143</ele><time>2026-04-08T16:10:11Z</time></trkpt><trkpt lat="44.15016653289867" lon="3.8398144140340875"><ele>431.1428571428571</ele><time>2026-04-08T16:10:19Z</time></trkpt><trkpt lat="44.15019080418834" lon="3.8398986904137895"><ele>433.0</ele><time>2026-04-08T16:10:28Z</time></trkpt><trkpt lat="44.15016514469221" lon="3.839815570776792"><ele>432.99999999999994</ele><time>2026-04-08T16:10:40Z</time></trkpt><trkpt lat="44.15012219623054" lon="3.8397429400818504"><ele>433.0</ele><time>2026-04-08T16:10:46Z</time></trkpt><trkpt lat="44.150078386741335" lon="3.839668976844784"><ele>433.0</ele><time>2026-04-08T16:10:54Z</time></trkpt><trkpt lat="44.15002853666258" lon="3.8395962253018223"><ele>433.0</ele><time>2026-04-08T16:11:01Z</time></trkpt><trkpt lat="44.14997372926847" lon="3.8395288163254024"><ele>433.0</ele><time>2026-04-08T16:11:08Z</time></trkpt><trkpt lat="44.14991857658886" lon="3.8394635124897345"><ele>432.99999999999994</ele><time>2026-04-08T16:11:15Z</time></trkpt><trkpt lat="44.149867828552054" lon="3.839391805645442"><ele>433.0</ele><time>2026-04-08T16:11:22Z</time></trkpt><trkpt lat="44.149819761686345" lon="3.839324584335527"><ele>431.1428571428571</ele><time>2026-04-08T16:11:48Z</time></trkpt><trkpt lat="44.149773532437266" lon="3.8392644893618892"><ele>429.2857142857143</ele><time>2026-04-08T16:11:56Z</time></trkpt><trkpt lat="44.14973153166772" lon="3.8391967346595646"><ele>427.42857142857144</ele><time>2026-04-08T16:12:03Z</time></trkpt><trkpt lat="44.14967732168948" lon="3.8391488408919083"><ele>425.57142857142856</ele><time>2026-04-08T16:12:10Z</time></trkpt><trkpt lat="44.14963096246041" lon="3.8390844196862655"><ele>423.7142857142857</ele><time>2026-04-08T16:12:17Z</time></trkpt><trkpt lat="44.14957535845206" lon="3.839035402273486"><ele>421.85714285714283</ele><time>2026-04-08T16:12:35Z</time></trkpt><trkpt lat="44.14951497972996" lon="3.8389861639753353"><ele>420.0</ele><time>2026-04-08T16:12:53Z</time></trkpt><trkpt lat="44.14945098339099" lon="3.8389386154600382"><ele>420.0</ele><time>2026-04-08T16:12:59Z</time></trkpt><trkpt lat="44.14939051424504" lon="3.838899180809417"><ele>420.0</ele><time>2026-04-08T16:13:07Z</time></trkpt><trkpt lat="44.149464949115206" lon="3.838917224858549"><ele>420.0</ele><time>2026-04-08T16:14:24Z</time></trkpt><trkpt lat="44.149526109885635" lon="3.838967229058084"><ele>420.0</ele><time>2026-04-08T16:14:27Z</time></trkpt><trkpt lat="44.14959776116661" lon="3.839034872444827"><ele>420.0</ele><time>2026-04-08T16:14:30Z</time></trkpt><trkpt lat="44.149658402558146" lon="3.839091712603315"><ele>420.0</ele><time>2026-04-08T16:14:32Z</time></trkpt><trkpt lat="44.14971017105424" lon="3.839164908373856"><ele>420.0</ele><time>2026-04-08T16:14:35Z</time></trkpt><trkpt lat="44.1497554199613" lon="3.839234505425546"><ele>421.85714285714283</ele><time>2026-04-08T16:14:56Z</time></trkpt><trkpt lat="44.14980413267341" lon="3.8393049149148823"><ele>423.7142857142857</ele><time>2026-04-08T16:14:59Z</time></trkpt><trkpt lat="44.14985549498574" lon="3.8393755878224827"><ele>425.57142857142856</ele><time>2026-04-08T16:15:02Z</time></trkpt><trkpt lat="44.14991021539818" lon="3.839457429442318"><ele>427.42857142857144</ele><time>2026-04-08T16:15:06Z</time></trkpt><trkpt lat="44.14995454647707" lon="3.8395221756883053"><ele>429.2857142857143</ele><time>2026-04-08T16:15:09Z</time></trkpt><trkpt lat="44.15000667088169" lon="3.8395959528313943"><ele>431.1428571428571</ele><time>2026-04-08T16:15:12Z</time></trkpt><trkpt lat="44.15007323800851" lon="3.8396737762751383"><ele>433.0</ele><time>2026-04-08T16:15:15Z</time></trkpt><trkpt lat="44.15013114773842" lon="3.8397649243453844"><ele>433.00000000000006</ele><time>2026-04-08T16:15:18Z</time></trkpt><trkpt lat="44.150175683404385" lon="3.8398371425296127"><ele>433.0</ele><time>2026-04-08T16:15:20Z</time></trkpt><trkpt lat="44.15020308152968" lon="3.839916397633009"><ele>433.0</ele><time>2026-04-08T16:15:24Z</time></trkpt><trkpt lat="44.150133833387635" lon="3.8399717485065596"><ele>433.0</ele><time>2026-04-08T16:17:37Z</time></trkpt><trkpt lat="44.15022214548871" lon="3.8399477795409074"><ele>433.00000000000006</ele><time>2026-04-08T16:17:55Z</time></trkpt><trkpt lat="44.15027041499981" lon="3.8400476848549663"><ele>433.0</ele><time>2026-04-08T16:18:16Z</time></trkpt><trkpt lat="44.150371482081276" lon="3.8401047235275345"><ele>432.99999999999994</ele><time>2026-04-08T16:18:34Z</time></trkpt><trkpt lat="44.15033720772467" lon="3.840031112267421"><ele>433.0</ele><time>2026-04-08T16:19:19Z</time></trkpt><trkpt lat="44.150274270171025" lon="3.840035575494294"><ele>433.0</ele><time>2026-04-08T16:19:27Z</time></trkpt><trkpt lat="44.15025291224181" lon="3.8399507645232034"><ele>433.0</ele><time>2026-04-08T16:19:36Z</time></trkpt><trkpt lat="44.15019361465689" lon="3.839901227436705"><ele>433.0</ele><time>2026-04-08T16:20:07Z</time></trkpt><trkpt lat="44.15012587352922" lon="3.8398945136403406"><ele>432.99999999999994</ele><time>2026-04-08T16:45:34Z</time></trkpt><trkpt lat="44.15019387169509" lon="3.839929620543284"><ele>433.0</ele><time>2026-04-08T16:46:48Z</time></trkpt><trkpt lat="44.15025412406766" lon="3.839965286128725"><ele>433.00000000000006</ele><time>2026-04-08T17:41:55Z</time></trkpt><trkpt lat="44.15021815699248" lon="3.8398596203078967"><ele>433.0</ele><time>2026-04-08T17:45:48Z</time></trkpt><trkpt lat="44.15015498820934" lon="3.839793846955726"><ele>433.0</ele><time>2026-04-08T17:45:53Z</time></trkpt><trkpt lat="44.15010039283033" lon="3.8397177741970565"><ele>433.0</ele><time>2026-04-08T17:45:56Z</time></trkpt><trkpt lat="44.15003592862438" lon="3.8396464943829702"><ele>433.00000000000006</ele><time>2026-04-08T17:45:59Z</time></trkpt><trkpt lat="44.1499813538559" lon="3.8395704682545704"><ele>433.0</ele><time>2026-04-08T17:46:02Z</time></trkpt><trkpt lat="44.149925122056054" lon="3.8395037777832255"><ele>430.83333333333337</ele><time>2026-04-08T17:46:05Z</time></trkpt><trkpt lat="44.14985871511025" lon="3.8394294671499343"><ele>428.6666666666667</ele><time>2026-04-08T17:46:08Z</time></trkpt><trkpt lat="44.149808896041336" lon="3.8393574889469027"><ele>426.5</ele><time>2026-04-08T17:46:10Z</time></trkpt><trkpt lat="44.14975612068531" lon="3.8392785589282123"><ele>424.33333333333337</ele><time>2026-04-08T17:46:12Z</time></trkpt><trkpt lat="44.149692643455666" lon="3.8391868253828574"><ele>422.1666666666667</ele><time>2026-04-08T17:46:14Z</time></trkpt><trkpt lat="44.14963502361398" lon="3.839108415599705"><ele>420.0</ele><time>2026-04-08T17:46:16Z</time></trkpt><trkpt lat="44.14956862988757" lon="3.839040568842545"><ele>420.0</ele><time>2026-04-08T17:46:18Z</time></trkpt><trkpt lat="44.14950208922664" lon="3.838993802628422"><ele>420.0</ele><time>2026-04-08T17:46:20Z</time></trkpt><trkpt lat="44.14943803994369" lon="3.838936884751084"><ele>420.0</ele><time>2026-04-08T17:46:22Z</time></trkpt><trkpt lat="44.14937967718804" lon="3.8388691416238583"><ele>420.0</ele><time>2026-04-08T17:46:24Z</time></trkpt><trkpt lat="44.14932100933115" lon="3.8388194751815523"><ele>420.0</ele><time>2026-04-08T17:46:26Z</time></trkpt><trkpt lat="44.149258866306525" lon="3.8387444342836283"><ele>420.0</ele><time>2026-04-08T17:46:29Z</time></trkpt><trkpt lat="44.14920118799887" lon="3.8386841351939345"><ele>420.0</ele><time>2026-04-08T17:46:32Z</time></trkpt><trkpt lat="44.149133561415844" lon="3.8386253212504355"><ele>420.0</ele><time>2026-04-08T17:46:35Z</time></trkpt><trkpt lat="44.149059666558514" lon="3.83854809701774"><ele>420.0</ele><time>2026-04-08T17:46:38Z</time></trkpt><trkpt lat="44.149010964505514" lon="3.8384601270879277"><ele>420.0</ele><time>2026-04-08T17:46:40Z</time></trkpt><trkpt lat="44.148948714675285" lon="3.838406737284655"><ele>420.0</ele><time>2026-04-08T17:46:42Z</time></trkpt><trkpt lat="44.148875680256744" lon="3.8383719796277402"><ele>420.0</ele><time>2026-04-08T17:46:44Z</time></trkpt><trkpt lat="44.14881326735511" lon="3.8383383681128547"><ele>420.0</ele><time>2026-04-08T17:46:46Z</time></trkpt><trkpt lat="44.148735739942495" lon="3.8382736834417943"><ele>421.6666666666667</ele><time>2026-04-08T17:46:49Z</time></trkpt><trkpt lat="44.148685678548524" lon="3.8382141442991253"><ele>423.33333333333337</ele><time>2026-04-08T17:46:51Z</time></trkpt><trkpt lat="44.148625358800494" lon="3.838146067734868"><ele>425.0</ele><time>2026-04-08T17:46:53Z</time></trkpt><trkpt lat="44.14855516196858" lon="3.8380727704121678"><ele>426.6666666666667</ele><time>2026-04-08T17:46:55Z</time></trkpt><trkpt lat="44.14848037270364" lon="3.837995045699282"><ele>428.33333333333337</ele><time>2026-04-08T17:46:57Z</time></trkpt><trkpt lat="44.14840425333461" lon="3.83794728715591"><ele>430.0</ele><time>2026-04-08T17:46:59Z</time></trkpt><trkpt lat="44.14832708635053" lon="3.8378986048937356"><ele>430.00000000000006</ele><time>2026-04-08T17:47:01Z</time></trkpt><trkpt lat="44.14825068410369" lon="3.837867535938934"><ele>430.0</ele><time>2026-04-08T17:47:03Z</time></trkpt><trkpt lat="44.14818227857836" lon="3.8378219377970213"><ele>430.0</ele><time>2026-04-08T17:47:06Z</time></trkpt><trkpt lat="44.14811157319048" lon="3.837760319098294"><ele>430.0</ele><time>2026-04-08T17:47:09Z</time></trkpt><trkpt lat="44.14802595113799" lon="3.8377044337710147"><ele>430.00000000000006</ele><time>2026-04-08T17:48:01Z</time></trkpt><trkpt lat="44.147965542601334" lon="3.837656959336659"><ele>430.0</ele><time>2026-04-08T17:48:04Z</time></trkpt><trkpt lat="44.147896420086944" lon="3.8376050674196804"><ele>433.33333333333337</ele><time>2026-04-08T17:48:07Z</time></trkpt><trkpt lat="44.147809681357806" lon="3.837556791627732"><ele>436.6666666666667</ele><time>2026-04-08T17:48:10Z</time></trkpt><trkpt lat="44.14775242918755" lon="3.837504361078237"><ele>440.0</ele><time>2026-04-08T17:48:12Z</time></trkpt><trkpt lat="44.14768949676009" lon="3.8374579448221735"><ele>443.33333333333337</ele><time>2026-04-08T17:48:14Z</time></trkpt><trkpt lat="44.147616159133506" lon="3.837409146540724"><ele>446.6666666666667</ele><time>2026-04-08T17:48:17Z</time></trkpt><trkpt lat="44.14755536586806" lon="3.8373810388815186"><ele>450.0</ele><time>2026-04-08T17:48:21Z</time></trkpt><trkpt lat="44.14745888592626" lon="3.8373289145167666"><ele>450.0</ele><time>2026-04-08T17:48:24Z</time></trkpt><trkpt lat="44.147388846865184" lon="3.8373197797548704"><ele>450.0</ele><time>2026-04-08T17:48:27Z</time></trkpt><trkpt lat="44.14732878233444" lon="3.8372801598461375"><ele>450.0</ele><time>2026-04-08T17:48:29Z</time></trkpt><trkpt lat="44.14727620977364" lon="3.8372175486795843"><ele>450.0</ele><time>2026-04-08T17:48:32Z</time></trkpt><trkpt lat="44.14721571700172" lon="3.837134383278878"><ele>450.0</ele><time>2026-04-08T17:48:35Z</time></trkpt><trkpt lat="44.14715607938523" lon="3.83709027855786"><ele>450.0</ele><time>2026-04-08T17:48:37Z</time></trkpt><trkpt lat="44.147078414609936" lon="3.837017635464756"><ele>450.1428571428572</ele><time>2026-04-08T17:48:40Z</time></trkpt><trkpt lat="44.14699831477759" lon="3.8369871639628577"><ele>450.28571428571433</ele><time>2026-04-08T17:48:43Z</time></trkpt><trkpt lat="44.1469402318778" lon="3.8369522125538484"><ele>450.42857142857144</ele><time>2026-04-08T17:48:46Z</time></trkpt><trkpt lat="44.146885980926186" lon="3.8368853943417944"><ele>450.5714285714286</ele><time>2026-04-08T17:48:49Z</time></trkpt><trkpt lat="44.14682976405466" lon="3.8368399059493044"><ele>450.7142857142858</ele><time>2026-04-08T17:48:52Z</time></trkpt><trkpt lat="44.14677138480172" lon="3.8367956854347174"><ele>450.85714285714283</ele><time>2026-04-08T17:48:55Z</time></trkpt><trkpt lat="44.146712201450285" lon="3.8367509367976935"><ele>451.0</ele><time>2026-04-08T17:48:58Z</time></trkpt><trkpt lat="44.14664844589503" lon="3.8367052564723085"><ele>452.85714285714283</ele><time>2026-04-08T17:49:01Z</time></trkpt><trkpt lat="44.14658513612696" lon="3.83665079572683"><ele>454.7142857142858</ele><time>2026-04-08T17:49:04Z</time></trkpt><trkpt lat="44.146523698796436" lon="3.836573660806316"><ele>456.5714285714286</ele><time>2026-04-08T17:49:08Z</time></trkpt><trkpt lat="44.14647516016266" lon="3.8365169398979"><ele>458.42857142857144</ele><time>2026-04-08T17:49:12Z</time></trkpt><trkpt lat="44.14641146331736" lon="3.8364809271189726"><ele>460.28571428571433</ele><time>2026-04-08T17:49:38Z</time></trkpt><trkpt lat="44.14641335686309" lon="3.8365801431197637"><ele>462.1428571428572</ele><time>2026-04-08T17:49:50Z</time></trkpt><trkpt lat="44.146478980967224" lon="3.8365706549440297"><ele>464.00000000000006</ele><time>2026-04-08T17:50:37Z</time></trkpt><trkpt lat="44.14651551222053" lon="3.836643128848598"><ele>463.99999999999994</ele><time>2026-04-08T17:51:00Z</time></trkpt><trkpt lat="44.14657627926504" lon="3.8366969968170963"><ele>464.0</ele><time>2026-04-08T17:51:04Z</time></trkpt><trkpt lat="44.146648237853285" lon="3.836768037187899"><ele>464.0</ele><time>2026-04-08T17:51:07Z</time></trkpt><trkpt lat="44.146703688808856" lon="3.83684112061821"><ele>464.0</ele><time>2026-04-08T17:51:12Z</time></trkpt><trkpt lat="44.14677527862425" lon="3.836885681275439"><ele>463.99999999999994</ele><time>2026-04-08T17:51:16Z</time></trkpt><trkpt lat="44.14684724974807" lon="3.8369352159727597"><ele>464.0</ele><time>2026-04-08T17:51:19Z</time></trkpt><trkpt lat="44.1469099441033" lon="3.8369630666522982"><ele>461.8333333333333</ele><time>2026-04-08T17:51:21Z</time></trkpt><trkpt lat="44.14697302754823" lon="3.836999882095248"><ele>459.66666666666663</ele><time>2026-04-08T17:51:23Z</time></trkpt><trkpt lat="44.14703926344318" lon="3.837053538445333"><ele>457.5</ele><time>2026-04-08T17:51:25Z</time></trkpt><trkpt lat="44.147097905340715" lon="3.8371284593247834"><ele>455.33333333333337</ele><time>2026-04-08T17:51:27Z</time></trkpt><trkpt lat="44.14716581644205" lon="3.83721670028719"><ele>453.1666666666667</ele><time>2026-04-08T17:51:29Z</time></trkpt><trkpt lat="44.14724472542109" lon="3.8373064040639413"><ele>451.0</ele><time>2026-04-08T17:51:31Z</time></trkpt><trkpt lat="44.14732568169082" lon="3.8373529459117575"><ele>450.85714285714283</ele><time>2026-04-08T17:51:33Z</time></trkpt><trkpt lat="44.147402854880085" lon="3.837364335869881"><ele>450.7142857142858</ele><time>2026-04-08T17:51:36Z</time></trkpt><trkpt lat="44.14746713115925" lon="3.8373961951255455"><ele>450.5714285714286</ele><time>2026-04-08T17:51:39Z</time></trkpt><trkpt lat="44.14754145161716" lon="3.8374352770433284"><ele>450.42857142857144</ele><time>2026-04-08T17:51:43Z</time></trkpt><trkpt lat="44.14760055797904" lon="3.8374722186344643"><ele>450.28571428571433</ele><time>2026-04-08T17:51:45Z</time></trkpt><trkpt lat="44.147663013587426" lon="3.837504385253359"><ele>450.1428571428572</ele><time>2026-04-08T17:51:47Z</time></trkpt><trkpt lat="44.147735455994024" lon="3.837557782790028"><ele>450.00000000000006</ele><time>2026-04-08T17:51:51Z</time></trkpt><trkpt lat="44.14780454516927" lon="3.837583743124515"><ele>450.0</ele><time>2026-04-08T17:51:54Z</time></trkpt><trkpt lat="44.1478727778253" lon="3.8376165961965523"><ele>450.0</ele><time>2026-04-08T17:51:57Z</time></trkpt><trkpt lat="44.14793175274315" lon="3.8376748783520194"><ele>450.0</ele><time>2026-04-08T17:52:00Z</time></trkpt><trkpt lat="44.14800791645226" lon="3.83772681708444"><ele>450.0</ele><time>2026-04-08T17:52:04Z</time></trkpt><trkpt lat="44.14807163041022" lon="3.837763083775437"><ele>450.0</ele><time>2026-04-08T17:52:07Z</time></trkpt><trkpt lat="44.14813605821891" lon="3.837803742618119"><ele>450.0</ele><time>2026-04-08T17:52:10Z</time></trkpt><trkpt lat="44.148208061998666" lon="3.8378551497802094"><ele>447.1428571428572</ele><time>2026-04-08T17:52:13Z</time></trkpt><trkpt lat="44.1482718773592" lon="3.837902859135955"><ele>444.28571428571433</ele><time>2026-04-08T17:52:16Z</time></trkpt><trkpt lat="44.148330643670846" lon="3.8379565175632986"><ele>441.42857142857144</ele><time>2026-04-08T17:52:20Z</time></trkpt><trkpt lat="44.14841338640114" lon="3.8379561544428973"><ele>438.5714285714286</ele><time>2026-04-08T17:52:39Z</time></trkpt><trkpt lat="44.14844816215898" lon="3.838038332528219"><ele>435.7142857142858</ele><time>2026-04-08T17:55:04Z</time></trkpt><trkpt lat="44.14840587460914" lon="3.8379696080255394"><ele>432.85714285714283</ele><time>2026-04-08T18:00:54Z</time></trkpt><trkpt lat="44.14841989387669" lon="3.8380598565874506"><ele>430.0</ele><time>2026-04-08T18:04:45Z</time></trkpt><trkpt lat="44.14849090043588" lon="3.8381301244410424"><ele>430.0</ele><time>2026-04-08T18:04:48Z</time></trkpt><trkpt lat="44.14855598268591" lon="3.8381993219573"><ele>430.0</ele><time>2026-04-08T18:04:50Z</time></trkpt><trkpt lat="44.14864625774587" lon="3.8382624762482758"><ele>430.0</ele><time>2026-04-08T18:04:52Z</time></trkpt><trkpt lat="44.14873759261219" lon="3.8383367928886427"><ele>430.0</ele><time>2026-04-08T18:04:54Z</time></trkpt><trkpt lat="44.14885593895077" lon="3.8383523022659505"><ele>430.0</ele><time>2026-04-08T18:04:56Z</time></trkpt><trkpt lat="44.148912126850306" lon="3.8383919404176274"><ele>430.0</ele><time>2026-04-08T18:04:57Z</time></trkpt><trkpt lat="44.14901268923013" lon="3.8384628830323875"><ele>430.0</ele><time>2026-04-08T18:04:59Z</time></trkpt><trkpt lat="44.149079759614395" lon="3.8385898292001888"><ele>430.0</ele><time>2026-04-08T18:05:01Z</time></trkpt><trkpt lat="44.149172171828546" lon="3.8386835633299508"><ele>430.0</ele><time>2026-04-08T18:05:03Z</time></trkpt><trkpt lat="44.149245658197934" lon="3.8387808082330324"><ele>430.0</ele><time>2026-04-08T18:05:05Z</time></trkpt><trkpt lat="44.14931616363476" lon="3.838854722676199"><ele>427.5</ele><time>2026-04-08T18:05:07Z</time></trkpt><trkpt lat="44.1493746585652" lon="3.8389094906947383"><ele>425.0</ele><time>2026-04-08T18:05:10Z</time></trkpt><trkpt lat="44.14943362232641" lon="3.838960108513041"><ele>422.5</ele><time>2026-04-08T18:05:12Z</time></trkpt><trkpt lat="44.149619522241245" lon="3.8391759398770686"><ele>420.0</ele><time>2026-04-08T18:05:15Z</time></trkpt><trkpt lat="44.14970318257421" lon="3.839273553230343"><ele>422.1666666666667</ele><time>2026-04-08T18:05:17Z</time></trkpt><trkpt lat="44.14977635594903" lon="3.8393859820150547"><ele>424.33333333333337</ele><time>2026-04-08T18:05:19Z</time></trkpt><trkpt lat="44.149840457297294" lon="3.8394596510260466"><ele>426.5</ele><time>2026-04-08T18:05:21Z</time></trkpt><trkpt lat="44.149898298524846" lon="3.8395053075801515"><ele>428.6666666666667</ele><time>2026-04-08T18:05:24Z</time></trkpt><trkpt lat="44.149957693519255" lon="3.8395757330398177"><ele>430.83333333333337</ele><time>2026-04-08T18:05:27Z</time></trkpt><trkpt lat="44.15002495501284" lon="3.839653446461512"><ele>433.0</ele><time>2026-04-08T18:05:30Z</time></trkpt><trkpt lat="44.15009527481574" lon="3.8397517036828845"><ele>433.0</ele><time>2026-04-08T18:05:33Z</time></trkpt><trkpt lat="44.1501581273272" lon="3.8398329867384007"><ele>433.0</ele><time>2026-04-08T18:05:37Z</time></trkpt><trkpt lat="44.150201971000534" lon="3.8399217063148328"><ele>433.0</ele><time>2026-04-08T18:05:42Z</time></trkpt></trkseg><trkseg><trkpt lat="44.1502075310399" lon="3.839863495402718"><ele>433.00000000000006</ele><time>2026-04-09T09:34:57Z</time></trkpt><trkpt lat="44.150160674023994" lon="3.839772101310546"><ele>433.0</ele><time>2026-04-09T09:35:01Z</time></trkpt><trkpt lat="44.15009927706276" lon="3.8397002941443863"><ele>433.0</ele><time>2026-04-09T09:35:04Z</time></trkpt><trkpt lat="44.15003019890626" lon="3.8396323093283264"><ele>433.0</ele><time>2026-04-09T09:35:07Z</time></trkpt><trkpt lat="44.14995719152894" lon="3.8395554368040763"><ele>433.00000000000006</ele><time>2026-04-09T09:35:10Z</time></trkpt><trkpt lat="44.14991094402659" lon="3.839490671148828"><ele>433.0</ele><time>2026-04-09T09:35:12Z</time></trkpt><trkpt lat="44.14984399295849" lon="3.8394129302976463"><ele>431.1428571428571</ele><time>2026-04-09T09:35:15Z</time></trkpt><trkpt lat="44.14979866489929" lon="3.8393456987366275"><ele>429.2857142857143</ele><time>2026-04-09T09:35:17Z</time></trkpt><trkpt lat="44.14975456877191" lon="3.8392709652958974"><ele>427.42857142857144</ele><time>2026-04-09T09:35:20Z</time></trkpt><trkpt lat="44.149702077152604" lon="3.839185952064024"><ele>425.57142857142856</ele><time>2026-04-09T09:35:24Z</time></trkpt><trkpt lat="44.14965022521343" lon="3.839121240083017"><ele>423.7142857142857</ele><time>2026-04-09T09:35:28Z</time></trkpt><trkpt lat="44.149589777657766" lon="3.8390536472798193"><ele>421.85714285714283</ele><time>2026-04-09T09:35:32Z</time></trkpt><trkpt lat="44.14953478421985" lon="3.8390074981863327"><ele>420.0</ele><time>2026-04-09T09:35:35Z</time></trkpt><trkpt lat="44.149481378582195" lon="3.8389593884986883"><ele>420.0</ele><time>2026-04-09T09:35:38Z</time></trkpt><trkpt lat="44.14940658191361" lon="3.838883811024723"><ele>420.0</ele><time>2026-04-09T09:35:42Z</time></trkpt><trkpt lat="44.149354289484336" lon="3.8388299735702693"><ele>420.0</ele><time>2026-04-09T09:35:44Z</time></trkpt><trkpt lat="44.14928713995179" lon="3.8387635363034245"><ele>420.0</ele><time>2026-04-09T09:35:46Z</time></trkpt><trkpt lat="44.14921738199016" lon="3.8386903749207875"><ele>420.0</ele><time>2026-04-09T09:35:48Z</time></trkpt><trkpt lat="44.14913885499945" lon="3.838619847495113"><ele>420.0</ele><time>2026-04-09T09:35:51Z</time></trkpt><trkpt lat="44.149070713070174" lon="3.8385618918249507"><ele>421.42857142857144</ele><time>2026-04-09T09:35:54Z</time></trkpt><trkpt lat="44.149015926551634" lon="3.8384965342067083"><ele>422.8571428571429</ele><time>2026-04-09T09:35:56Z</time></trkpt><trkpt lat="44.148954089638075" lon="3.838440826359304"><ele>424.2857142857143</ele><time>2026-04-09T09:35:58Z</time></trkpt><trkpt lat="44.148879722460514" lon="3.838403527930614"><ele>425.7142857142857</ele><time>2026-04-09T09:36:00Z</time></trkpt><trkpt lat="44.148817131304014" lon="3.8383568355026823"><ele>427.14285714285717</ele><time>2026-04-09T09:36:02Z</time></trkpt><trkpt lat="44.14875506864706" lon="3.8383095697502227"><ele>428.57142857142856</ele><time>2026-04-09T09:36:04Z</time></trkpt><trkpt lat="44.148691184797364" lon="3.8382625130701733"><ele>430.0</ele><time>2026-04-09T09:36:06Z</time></trkpt><trkpt lat="44.14863298995239" lon="3.838209792781396"><ele>430.00000000000006</ele><time>2026-04-09T09:36:08Z</time></trkpt><trkpt lat="44.14857753550793" lon="3.8381521067687627"><ele>430.0</ele><time>2026-04-09T09:36:10Z</time></trkpt><trkpt lat="44.14852331972122" lon="3.8381072665350633"><ele>430.0</ele><time>2026-04-09T09:36:12Z</time></trkpt><trkpt lat="44.1484377388296" lon="3.838039445121687"><ele>430.0</ele><time>2026-04-09T09:36:15Z</time></trkpt><trkpt lat="44.14836577467911" lon="3.8379881946528904"><ele>430.00000000000006</ele><time>2026-04-09T09:36:17Z</time></trkpt><trkpt lat="44.14828777669281" lon="3.837932626084582"><ele>430.0</ele><time>2026-04-09T09:36:19Z</time></trkpt><trkpt lat="44.148204661741005" lon="3.837866671650124"><ele>429.83333333333337</ele><time>2026-04-09T09:36:21Z</time></trkpt><trkpt lat="44.14812808161118" lon="3.837814165436959"><ele>429.6666666666667</ele><time>2026-04-09T09:36:23Z</time></trkpt><trkpt lat="44.14805514417726" lon="3.8377653699379892"><ele>429.5</ele><time>2026-04-09T09:36:25Z</time></trkpt><trkpt lat="44.14798139799587" lon="3.8377059021896542"><ele>429.33333333333337</ele><time>2026-04-09T09:36:27Z</time></trkpt><trkpt lat="44.14789785448507" lon="3.837647854958444"><ele>429.1666666666667</ele><time>2026-04-09T09:36:29Z</time></trkpt><trkpt lat="44.14780529331042" lon="3.83758707144625"><ele>429.0</ele><time>2026-04-09T09:36:31Z</time></trkpt><trkpt lat="44.147733699790784" lon="3.837524465961388"><ele>432.5</ele><time>2026-04-09T09:36:33Z</time></trkpt><trkpt lat="44.14765823773881" lon="3.8374702401869647"><ele>436.0</ele><time>2026-04-09T09:36:35Z</time></trkpt><trkpt lat="44.1475796002521" lon="3.8374128677505843"><ele>439.5</ele><time>2026-04-09T09:36:37Z</time></trkpt><trkpt lat="44.14750308503775" lon="3.8373714837576784"><ele>443.0</ele><time>2026-04-09T09:36:39Z</time></trkpt><trkpt lat="44.14743059013277" lon="3.8373339464788576"><ele>446.5</ele><time>2026-04-09T09:36:41Z</time></trkpt><trkpt lat="44.147337176708035" lon="3.837294724156307"><ele>450.0</ele><time>2026-04-09T09:36:43Z</time></trkpt><trkpt lat="44.14724953338919" lon="3.8372369437824525"><ele>450.1666666666667</ele><time>2026-04-09T09:36:45Z</time></trkpt><trkpt lat="44.14719149848278" lon="3.8371673707393"><ele>450.33333333333337</ele><time>2026-04-09T09:36:47Z</time></trkpt><trkpt lat="44.14712700147932" lon="3.8370962878930412"><ele>450.5</ele><time>2026-04-09T09:36:49Z</time></trkpt><trkpt lat="44.1470724120493" lon="3.837032171497701"><ele>450.6666666666667</ele><time>2026-04-09T09:36:51Z</time></trkpt><trkpt lat="44.14699479827526" lon="3.83696348687935"><ele>450.83333333333337</ele><time>2026-04-09T09:36:54Z</time></trkpt><trkpt lat="44.14691358184383" lon="3.836916234057941"><ele>451.0</ele><time>2026-04-09T09:36:57Z</time></trkpt><trkpt lat="44.14682858995078" lon="3.8368648753045362"><ele>451.00000000000006</ele><time>2026-04-09T09:37:00Z</time></trkpt><trkpt lat="44.146741286077905" lon="3.8368165752397285"><ele>451.0</ele><time>2026-04-09T09:37:03Z</time></trkpt><trkpt lat="44.146685461852414" lon="3.8367721787941766"><ele>451.0</ele><time>2026-04-09T09:37:05Z</time></trkpt><trkpt lat="44.146629265511294" lon="3.8367282784480214"><ele>451.0</ele><time>2026-04-09T09:37:07Z</time></trkpt><trkpt lat="44.14656463348977" lon="3.836673519080615"><ele>451.00000000000006</ele><time>2026-04-09T09:37:09Z</time></trkpt><trkpt lat="44.14651246314982" lon="3.836616804202596"><ele>451.0</ele><time>2026-04-09T09:37:11Z</time></trkpt><trkpt lat="44.146440081410965" lon="3.8365378814099533"><ele>455.50000000000006</ele><time>2026-04-09T09:37:14Z</time></trkpt><trkpt lat="44.1463858907985" lon="3.83647327686725"><ele>460.0</ele><time>2026-04-09T09:37:16Z</time></trkpt><trkpt lat="44.1463339838206" lon="3.836370744711211"><ele>464.5</ele><time>2026-04-09T09:37:19Z</time></trkpt><trkpt lat="44.14629816399515" lon="3.83627623242622"><ele>469.0</ele><time>2026-04-09T09:37:22Z</time></trkpt><trkpt lat="44.14625893231409" lon="3.8361816142962035"><ele>473.50000000000006</ele><time>2026-04-09T09:37:26Z</time></trkpt><trkpt lat="44.14620099053543" lon="3.8360946278883357"><ele>478.0</ele><time>2026-04-09T09:37:29Z</time></trkpt><trkpt lat="44.146155424897664" lon="3.8360156699546426"><ele>479.50000000000006</ele><time>2026-04-09T09:37:32Z</time></trkpt><trkpt lat="44.146111201492104" lon="3.835918768927988"><ele>481.0</ele><time>2026-04-09T09:37:36Z</time></trkpt><trkpt lat="44.14607185408199" lon="3.835841158419478"><ele>482.5</ele><time>2026-04-09T09:37:39Z</time></trkpt><trkpt lat="44.14604596875672" lon="3.8357604174357127"><ele>484.0</ele><time>2026-04-09T09:37:42Z</time></trkpt><trkpt lat="44.14601062877593" lon="3.8356601568012043"><ele>485.50000000000006</ele><time>2026-04-09T09:37:45Z</time></trkpt><trkpt lat="44.14596055261603" lon="3.8355571300232967"><ele>487.0</ele><time>2026-04-09T09:37:48Z</time></trkpt><trkpt lat="44.145909970548615" lon="3.8354670393205974"><ele>487.00000000000006</ele><time>2026-04-09T09:37:51Z</time></trkpt><trkpt lat="44.14585681455928" lon="3.8353750792761323"><ele>487.0</ele><time>2026-04-09T09:37:54Z</time></trkpt><trkpt lat="44.145813782675866" lon="3.8353074818464825"><ele>487.0</ele><time>2026-04-09T09:37:57Z</time></trkpt><trkpt lat="44.145721673672156" lon="3.8352184970281855"><ele>487.0</ele><time>2026-04-09T09:38:02Z</time></trkpt><trkpt lat="44.1456825191859" lon="3.8351372155936416"><ele>487.00000000000006</ele><time>2026-04-09T09:38:32Z</time></trkpt><trkpt lat="44.1456473503995" lon="3.835059630889931"><ele>487.0</ele><time>2026-04-09T09:38:35Z</time></trkpt><trkpt lat="44.1456146466629" lon="3.83495926918765"><ele>488.83333333333337</ele><time>2026-04-09T09:38:38Z</time></trkpt><trkpt lat="44.14556811885529" lon="3.8348752582628096"><ele>490.6666666666667</ele><time>2026-04-09T09:38:40Z</time></trkpt><trkpt lat="44.145508149418454" lon="3.8347836315714976"><ele>492.5</ele><time>2026-04-09T09:38:42Z</time></trkpt><trkpt lat="44.14548049043377" lon="3.8346590889483316"><ele>494.33333333333337</ele><time>2026-04-09T09:38:44Z</time></trkpt><trkpt lat="44.14546322248553" lon="3.8345311104842303"><ele>496.1666666666667</ele><time>2026-04-09T09:38:46Z</time></trkpt><trkpt lat="44.145430963882184" lon="3.8344162990285806"><ele>498.0</ele><time>2026-04-09T09:38:47.999Z</time></trkpt><trkpt lat="44.145394074804734" lon="3.8342851883552593"><ele>498.0</ele><time>2026-04-09T09:38:49.999Z</time></trkpt><trkpt lat="44.14536815669466" lon="3.834163829981176"><ele>497.99999999999994</ele><time>2026-04-09T09:38:51.999Z</time></trkpt><trkpt lat="44.14534053175529" lon="3.8340346707923323"><ele>497.99999999999994</ele><time>2026-04-09T09:38:53.999Z</time></trkpt><trkpt lat="44.145323418555925" lon="3.833899887563035"><ele>498.0</ele><time>2026-04-09T09:38:55.999Z</time></trkpt><trkpt lat="44.14530634519759" lon="3.83375019390922"><ele>498.0</ele><time>2026-04-09T09:38:57.999Z</time></trkpt><trkpt lat="44.14531843912506" lon="3.8336244024014077"><ele>498.0</ele><time>2026-04-09T09:38:59.999Z</time></trkpt><trkpt lat="44.14536016656897" lon="3.8335567244130617"><ele>497.99999999999994</ele><time>2026-04-09T09:39:00.999Z</time></trkpt><trkpt lat="44.14536385767151" lon="3.8333939896792066"><ele>497.99999999999994</ele><time>2026-04-09T09:39:02.999Z</time></trkpt><trkpt lat="44.14537856691453" lon="3.833241567014716"><ele>498.0</ele><time>2026-04-09T09:39:04.999Z</time></trkpt><trkpt lat="44.14534836055698" lon="3.8331142800073477"><ele>498.0</ele><time>2026-04-09T09:39:06.999Z</time></trkpt><trkpt lat="44.14532290584599" lon="3.832995667985301"><ele>496.8333333333333</ele><time>2026-04-09T09:39:09Z</time></trkpt><trkpt lat="44.145290337351796" lon="3.832879269855067"><ele>495.66666666666663</ele><time>2026-04-09T09:39:11Z</time></trkpt><trkpt lat="44.14531781510528" lon="3.8327594658632522"><ele>494.5</ele><time>2026-04-09T09:39:13Z</time></trkpt><trkpt lat="44.14532155323901" lon="3.8326376098401433"><ele>493.3333333333333</ele><time>2026-04-09T09:39:15Z</time></trkpt><trkpt lat="44.145342320110494" lon="3.8325206286147973"><ele>492.16666666666663</ele><time>2026-04-09T09:39:17Z</time></trkpt><trkpt lat="44.14534760435012" lon="3.832399620270764"><ele>491.0</ele><time>2026-04-09T09:39:19Z</time></trkpt><trkpt lat="44.14534062052042" lon="3.8322648306897595"><ele>490.6</ele><time>2026-04-09T09:39:21Z</time></trkpt><trkpt lat="44.14535041000095" lon="3.832119219254214"><ele>490.20000000000005</ele><time>2026-04-09T09:39:23Z</time></trkpt><trkpt lat="44.14533116594048" lon="3.8319564838050364"><ele>489.79999999999995</ele><time>2026-04-09T09:39:25Z</time></trkpt><trkpt lat="44.145323431267194" lon="3.8318122267859507"><ele>489.4</ele><time>2026-04-09T09:39:27Z</time></trkpt><trkpt lat="44.14530622494034" lon="3.8316913475620393"><ele>489.0</ele><time>2026-04-09T09:39:29Z</time></trkpt><trkpt lat="44.145275438738096" lon="3.8315828150258877"><ele>488.0</ele><time>2026-04-09T09:39:31Z</time></trkpt><trkpt lat="44.14525484868802" lon="3.8314806172238693"><ele>487.0</ele><time>2026-04-09T09:39:33Z</time></trkpt><trkpt lat="44.14524038543952" lon="3.831389802343571"><ele>486.0</ele><time>2026-04-09T09:39:35Z</time></trkpt><trkpt lat="44.14530281493997" lon="3.8313350078724278"><ele>485.0</ele><time>2026-04-09T09:39:38Z</time></trkpt><trkpt lat="44.14536503591729" lon="3.8313791364009395"><ele>484.0</ele><time>2026-04-09T09:39:40Z</time></trkpt><trkpt lat="44.1454464298978" lon="3.8314259106559327"><ele>483.0</ele><time>2026-04-09T09:39:42Z</time></trkpt><trkpt lat="44.14551846433309" lon="3.831464295046704"><ele>483.0</ele><time>2026-04-09T09:39:44Z</time></trkpt><trkpt lat="44.14556791596219" lon="3.8315612627074946"><ele>483.0</ele><time>2026-04-09T09:39:46Z</time></trkpt><trkpt lat="44.14559743296492" lon="3.8316555744202017"><ele>483.0</ele><time>2026-04-09T09:39:48Z</time></trkpt><trkpt lat="44.14561555030888" lon="3.8317575962992536"><ele>483.0</ele><time>2026-04-09T09:39:50Z</time></trkpt><trkpt lat="44.14562541288173" lon="3.831860815539579"><ele>483.0</ele><time>2026-04-09T09:39:52Z</time></trkpt><trkpt lat="44.14562725179804" lon="3.831974028883943"><ele>483.0</ele><time>2026-04-09T09:39:54Z</time></trkpt><trkpt lat="44.14562725179502" lon="3.8320711667425074"><ele>484.0</ele><time>2026-04-09T09:39:56Z</time></trkpt><trkpt lat="44.145635491623224" lon="3.8322169626326277"><ele>485.0</ele><time>2026-04-09T09:39:59Z</time></trkpt><trkpt lat="44.14565409954388" lon="3.8323272751521733"><ele>486.0</ele><time>2026-04-09T09:40:01Z</time></trkpt><trkpt lat="44.14567926588417" lon="3.8324221802300587"><ele>487.0</ele><time>2026-04-09T09:40:03Z</time></trkpt><trkpt lat="44.14570610219745" lon="3.832514848558739"><ele>488.0</ele><time>2026-04-09T09:40:05Z</time></trkpt><trkpt lat="44.14574358434764" lon="3.8326092760405746"><ele>489.0</ele><time>2026-04-09T09:40:07Z</time></trkpt><trkpt lat="44.14578725208136" lon="3.8327176638712235"><ele>484.42857142857144</ele><time>2026-04-09T09:40:09Z</time></trkpt><trkpt lat="44.145824870391" lon="3.8328372440607383"><ele>479.8571428571429</ele><time>2026-04-09T09:40:11Z</time></trkpt><trkpt lat="44.14582697469183" lon="3.83294490742502"><ele>475.28571428571433</ele><time>2026-04-09T09:40:13Z</time></trkpt><trkpt lat="44.14580868247303" lon="3.833033906962447"><ele>470.7142857142858</ele><time>2026-04-09T09:40:15Z</time></trkpt><trkpt lat="44.14579933816338" lon="3.833133869678613"><ele>466.14285714285717</ele><time>2026-04-09T09:40:17Z</time></trkpt><trkpt lat="44.14580707051096" lon="3.8332237867804078"><ele>461.57142857142867</ele><time>2026-04-09T09:40:19Z</time></trkpt><trkpt lat="44.145824891360725" lon="3.833311251472621"><ele>457.00000000000006</ele><time>2026-04-09T09:40:22Z</time></trkpt><trkpt lat="44.14588808757105" lon="3.8333333386265154"><ele>457.0</ele><time>2026-04-09T09:40:25Z</time></trkpt><trkpt lat="44.14595198681819" lon="3.8332392167394747"><ele>457.00000000000006</ele><time>2026-04-09T09:40:28Z</time></trkpt><trkpt lat="44.145974521124266" lon="3.833120587619027"><ele>457.00000000000006</ele><time>2026-04-09T09:40:30Z</time></trkpt><trkpt lat="44.145985273749545" lon="3.8329945147024125"><ele>457.0</ele><time>2026-04-09T09:40:32Z</time></trkpt><trkpt lat="44.145990325025444" lon="3.832861779512782"><ele>457.0</ele><time>2026-04-09T09:40:34Z</time></trkpt><trkpt lat="44.14599542605781" lon="3.832739257392295"><ele>456.83333333333337</ele><time>2026-04-09T09:40:36Z</time></trkpt><trkpt lat="44.14601675740381" lon="3.8326176776815504"><ele>456.6666666666667</ele><time>2026-04-09T09:40:38Z</time></trkpt><trkpt lat="44.146014057448355" lon="3.832491427552257"><ele>456.5</ele><time>2026-04-09T09:40:39.999Z</time></trkpt><trkpt lat="44.14603909714213" lon="3.8323640389978375"><ele>456.33333333333337</ele><time>2026-04-09T09:40:41.999Z</time></trkpt><trkpt lat="44.14606657757391" lon="3.8322568771041112"><ele>456.1666666666667</ele><time>2026-04-09T09:40:43.999Z</time></trkpt><trkpt lat="44.14610620375866" lon="3.832162418465434"><ele>456.0</ele><time>2026-04-09T09:40:46.999Z</time></trkpt><trkpt lat="44.14613321413579" lon="3.832075416337193"><ele>456.0</ele><time>2026-04-09T09:40:49.999Z</time></trkpt><trkpt lat="44.146154800666785" lon="3.831982032458517"><ele>456.0</ele><time>2026-04-09T09:40:53.999Z</time></trkpt><trkpt lat="44.14617309100392" lon="3.831875006142288"><ele>456.0</ele><time>2026-04-09T09:40:56.999Z</time></trkpt><trkpt lat="44.14617538734386" lon="3.831777444515248"><ele>456.0</ele><time>2026-04-09T09:40:58.999Z</time></trkpt><trkpt lat="44.1461651955585" lon="3.8316715028024473"><ele>456.0</ele><time>2026-04-09T09:41:00.999Z</time></trkpt><trkpt lat="44.146160880385345" lon="3.8315302400858453"><ele>456.0</ele><time>2026-04-09T09:41:02.999Z</time></trkpt><trkpt lat="44.1461495816797" lon="3.8314099397530743"><ele>456.0</ele><time>2026-04-09T09:41:04.999Z</time></trkpt><trkpt lat="44.14612524595928" lon="3.8313202616178454"><ele>455.99999999999994</ele><time>2026-04-09T09:41:06.999Z</time></trkpt><trkpt lat="44.14610299451523" lon="3.831210668744867"><ele>456.0</ele><time>2026-04-09T09:41:09.999Z</time></trkpt><trkpt lat="44.14607791142394" lon="3.8311127952777078"><ele>456.0</ele><time>2026-04-09T09:41:12.999Z</time></trkpt><trkpt lat="44.1460491598104" lon="3.8310117879573657"><ele>455.99999999999994</ele><time>2026-04-09T09:41:17Z</time></trkpt><trkpt lat="44.14601368533985" lon="3.830919876061029"><ele>456.0</ele><time>2026-04-09T09:41:20Z</time></trkpt><trkpt lat="44.14597872703791" lon="3.830841494357498"><ele>456.0</ele><time>2026-04-09T09:41:22Z</time></trkpt><trkpt lat="44.1459325147775" lon="3.83074794392063"><ele>454.1666666666667</ele><time>2026-04-09T09:41:24Z</time></trkpt><trkpt lat="44.145889961240584" lon="3.830648014489326"><ele>452.33333333333337</ele><time>2026-04-09T09:41:26Z</time></trkpt><trkpt lat="44.145860961079606" lon="3.8305619474519603"><ele>450.5</ele><time>2026-04-09T09:41:28Z</time></trkpt><trkpt lat="44.14585003811183" lon="3.8304409519803824"><ele>448.6666666666667</ele><time>2026-04-09T09:41:31Z</time></trkpt><trkpt lat="44.14585731267197" lon="3.8303458362276115"><ele>446.83333333333337</ele><time>2026-04-09T09:41:33Z</time></trkpt><trkpt lat="44.14587106884508" lon="3.830233785618507"><ele>445.0</ele><time>2026-04-09T09:41:35Z</time></trkpt><trkpt lat="44.145896205785476" lon="3.830150674393044"><ele>444.6</ele><time>2026-04-09T09:41:37Z</time></trkpt><trkpt lat="44.14596643113695" lon="3.830051966004424"><ele>444.2</ele><time>2026-04-09T09:41:40Z</time></trkpt><trkpt lat="44.14602470292621" lon="3.829964832165239"><ele>443.79999999999995</ele><time>2026-04-09T09:41:42Z</time></trkpt><trkpt lat="44.14608351710549" lon="3.8298753812036095"><ele>443.4</ele><time>2026-04-09T09:41:44Z</time></trkpt><trkpt lat="44.14615197329504" lon="3.829820284472419"><ele>443.0</ele><time>2026-04-09T09:41:46Z</time></trkpt><trkpt lat="44.1462527742678" lon="3.8298183099396286"><ele>443.0</ele><time>2026-04-09T09:41:49Z</time></trkpt><trkpt lat="44.146342936581696" lon="3.829904613382713"><ele>442.99999999999994</ele><time>2026-04-09T09:41:51Z</time></trkpt><trkpt lat="44.146380741071546" lon="3.8300411911732666"><ele>442.99999999999994</ele><time>2026-04-09T09:41:53Z</time></trkpt><trkpt lat="44.14640643347582" lon="3.830156244705241"><ele>443.0</ele><time>2026-04-09T09:41:55Z</time></trkpt><trkpt lat="44.14644542306393" lon="3.830264244226354"><ele>443.0</ele><time>2026-04-09T09:41:57Z</time></trkpt><trkpt lat="44.146504782531274" lon="3.8303578839011974"><ele>445.16666666666663</ele><time>2026-04-09T09:41:59Z</time></trkpt><trkpt lat="44.14655396564798" lon="3.8304400716456035"><ele>447.3333333333333</ele><time>2026-04-09T09:42:01Z</time></trkpt><trkpt lat="44.146586394476834" lon="3.8305181259005145"><ele>449.5</ele><time>2026-04-09T09:42:03Z</time></trkpt><trkpt lat="44.14660179268149" lon="3.8306114010164776"><ele>451.66666666666663</ele><time>2026-04-09T09:42:28Z</time></trkpt><trkpt lat="44.14658002990842" lon="3.8307473061518795"><ele>453.8333333333333</ele><time>2026-04-09T09:42:30Z</time></trkpt><trkpt lat="44.146550837270965" lon="3.8308652664671152"><ele>456.0</ele><time>2026-04-09T09:42:32Z</time></trkpt><trkpt lat="44.146522693750434" lon="3.830974450295493"><ele>456.0</ele><time>2026-04-09T09:42:33.999Z</time></trkpt><trkpt lat="44.14652274075541" lon="3.83107836479195"><ele>456.0</ele><time>2026-04-09T09:42:35.999Z</time></trkpt><trkpt lat="44.14656643434229" lon="3.831171705564877"><ele>456.0</ele><time>2026-04-09T09:42:37.999Z</time></trkpt><trkpt lat="44.146646616885704" lon="3.831288196138055"><ele>456.0</ele><time>2026-04-09T09:42:39.999Z</time></trkpt><trkpt lat="44.1466976774625" lon="3.831342646469432"><ele>456.0</ele><time>2026-04-09T09:42:40.999Z</time></trkpt><trkpt lat="44.14675189394763" lon="3.8314680923596804"><ele>456.0</ele><time>2026-04-09T09:42:42.999Z</time></trkpt><trkpt lat="44.14681717524802" lon="3.831555122423927"><ele>450.0</ele><time>2026-04-09T09:42:44.999Z</time></trkpt><trkpt lat="44.14686437811326" lon="3.8316507220316938"><ele>444.0</ele><time>2026-04-09T09:42:46.999Z</time></trkpt><trkpt lat="44.146930427707396" lon="3.831674228082194"><ele>438.0</ele><time>2026-04-09T09:42:48.999Z</time></trkpt><trkpt lat="44.147008959985925" lon="3.831616130928444"><ele>432.0</ele><time>2026-04-09T09:42:51.999Z</time></trkpt><trkpt lat="44.14704135007196" lon="3.831510139100627"><ele>426.0</ele><time>2026-04-09T09:42:53.999Z</time></trkpt><trkpt lat="44.147049608091784" lon="3.8313667187256906"><ele>420.0</ele><time>2026-04-09T09:42:55.999Z</time></trkpt><trkpt lat="44.147044106005275" lon="3.8312079682896716"><ele>420.0</ele><time>2026-04-09T09:42:57.999Z</time></trkpt><trkpt lat="44.14705988468331" lon="3.831059756865492"><ele>420.0</ele><time>2026-04-09T09:42:59.999Z</time></trkpt><trkpt lat="44.147048765129945" lon="3.8309347362587247"><ele>420.0</ele><time>2026-04-09T09:43:01.999Z</time></trkpt><trkpt lat="44.14705236389288" lon="3.8308262724291713"><ele>420.0</ele><time>2026-04-09T09:43:03.999Z</time></trkpt><trkpt lat="44.14705433495339" lon="3.8307145303786947"><ele>420.0</ele><time>2026-04-09T09:43:05.999Z</time></trkpt><trkpt lat="44.14705652800648" lon="3.830586832196044"><ele>420.0</ele><time>2026-04-09T09:43:07.999Z</time></trkpt><trkpt lat="44.14705620174249" lon="3.8304591219888713"><ele>419.8333333333333</ele><time>2026-04-09T09:43:09.999Z</time></trkpt><trkpt lat="44.147081235117795" lon="3.830324686241751"><ele>419.66666666666663</ele><time>2026-04-09T09:43:11.999Z</time></trkpt><trkpt lat="44.14709632102837" lon="3.8302073124645926"><ele>419.5</ele><time>2026-04-09T09:43:13.999Z</time></trkpt><trkpt lat="44.14707488848279" lon="3.830099147933929"><ele>419.3333333333333</ele><time>2026-04-09T09:43:15.999Z</time></trkpt><trkpt lat="44.14717443832253" lon="3.8301728013987653"><ele>419.16666666666663</ele><time>2026-04-09T09:43:18.999Z</time></trkpt><trkpt lat="44.14720676781849" lon="3.8302520483047364"><ele>419.0</ele><time>2026-04-09T09:43:21Z</time></trkpt><trkpt lat="44.147243031471035" lon="3.8303580484165987"><ele>418.6</ele><time>2026-04-09T09:43:23Z</time></trkpt><trkpt lat="44.14727309208316" lon="3.830462963477124"><ele>418.2</ele><time>2026-04-09T09:43:25Z</time></trkpt><trkpt lat="44.147312197963075" lon="3.83056845335437"><ele>417.8</ele><time>2026-04-09T09:43:27Z</time></trkpt><trkpt lat="44.147332345518" lon="3.8306933465369837"><ele>417.40000000000003</ele><time>2026-04-09T09:43:29Z</time></trkpt><trkpt lat="44.14736992279527" lon="3.830837716923192"><ele>417.0</ele><time>2026-04-09T09:43:31Z</time></trkpt><trkpt lat="44.147410381790266" lon="3.830986992653706"><ele>408.75</ele><time>2026-04-09T09:43:33Z</time></trkpt><trkpt lat="44.147449669735394" lon="3.8311437062026794"><ele>400.5</ele><time>2026-04-09T09:43:35Z</time></trkpt><trkpt lat="44.147485717539865" lon="3.831291081386448"><ele>392.25</ele><time>2026-04-09T09:43:37Z</time></trkpt><trkpt lat="44.14751579569305" lon="3.8314434194092923"><ele>384.0</ele><time>2026-04-09T09:43:39Z</time></trkpt><trkpt lat="44.147529852206" lon="3.8316039753467166"><ele>384.0</ele><time>2026-04-09T09:43:41Z</time></trkpt><trkpt lat="44.14753934467424" lon="3.831759388593136"><ele>384.0</ele><time>2026-04-09T09:43:43Z</time></trkpt><trkpt lat="44.14752520092895" lon="3.831915716579529"><ele>384.0</ele><time>2026-04-09T09:43:45Z</time></trkpt><trkpt lat="44.14752597886683" lon="3.832068734402063"><ele>384.0</ele><time>2026-04-09T09:43:47Z</time></trkpt><trkpt lat="44.147525213876" lon="3.832227774835423"><ele>384.0</ele><time>2026-04-09T09:43:49Z</time></trkpt><trkpt lat="44.147522776513284" lon="3.8324016175914886"><ele>383.6666666666667</ele><time>2026-04-09T09:43:51Z</time></trkpt><trkpt lat="44.14751739647996" lon="3.83255678274202"><ele>383.3333333333333</ele><time>2026-04-09T09:43:53Z</time></trkpt><trkpt lat="44.14749410904884" lon="3.8326907340461696"><ele>383.0</ele><time>2026-04-09T09:43:55Z</time></trkpt><trkpt lat="44.14753054885158" lon="3.8327774984521703"><ele>382.66666666666663</ele><time>2026-04-09T09:43:57Z</time></trkpt><trkpt lat="44.147598059263224" lon="3.832788672792493"><ele>382.3333333333333</ele><time>2026-04-09T09:43:59Z</time></trkpt><trkpt lat="44.14764311472382" lon="3.8327048817258174"><ele>382.0</ele><time>2026-04-09T09:44:01Z</time></trkpt><trkpt lat="44.147703372348616" lon="3.8325915563110584"><ele>382.0</ele><time>2026-04-09T09:44:03Z</time></trkpt><trkpt lat="44.14775617884291" lon="3.832464922410223"><ele>382.0</ele><time>2026-04-09T09:44:05Z</time></trkpt><trkpt lat="44.147834672327456" lon="3.832360675748535"><ele>382.0</ele><time>2026-04-09T09:44:07Z</time></trkpt><trkpt lat="44.147908960428474" lon="3.8322596636357726"><ele>382.0</ele><time>2026-04-09T09:44:09Z</time></trkpt><trkpt lat="44.14797632026071" lon="3.8321758490625815"><ele>382.0</ele><time>2026-04-09T09:44:11Z</time></trkpt><trkpt lat="44.14803484158851" lon="3.8320706595714893"><ele>382.0</ele><time>2026-04-09T09:44:13Z</time></trkpt><trkpt lat="44.14809115823158" lon="3.8319745579050832"><ele>382.0</ele><time>2026-04-09T09:44:15Z</time></trkpt><trkpt lat="44.14816812856575" lon="3.8319297284662714"><ele>382.0</ele><time>2026-04-09T09:45:19.999Z</time></trkpt><trkpt lat="44.14820873341104" lon="3.8318565266813596"><ele>382.0</ele><time>2026-04-09T09:45:22.999Z</time></trkpt><trkpt lat="44.148212240807666" lon="3.8317326293799954"><ele>382.0</ele><time>2026-04-09T09:45:24.999Z</time></trkpt><trkpt lat="44.148244974584784" lon="3.831607125977678"><ele>382.0</ele><time>2026-04-09T09:45:27Z</time></trkpt><trkpt lat="44.148368983194956" lon="3.8315471166834203"><ele>376.8333333333333</ele><time>2026-04-09T09:45:29Z</time></trkpt><trkpt lat="44.148426303298656" lon="3.8314216939551002"><ele>371.66666666666663</ele><time>2026-04-09T09:45:31Z</time></trkpt><trkpt lat="44.14846515372177" lon="3.831314609871883"><ele>366.5</ele><time>2026-04-09T09:45:33Z</time></trkpt><trkpt lat="44.148489851297384" lon="3.8311998274593453"><ele>361.3333333333333</ele><time>2026-04-09T09:45:35Z</time></trkpt><trkpt lat="44.14850605695518" lon="3.831087434695174"><ele>356.1666666666667</ele><time>2026-04-09T09:45:37Z</time></trkpt><trkpt lat="44.14852076085704" lon="3.830973083049813"><ele>351.0</ele><time>2026-04-09T09:45:39Z</time></trkpt><trkpt lat="44.14854264340732" lon="3.830864611967525"><ele>350.5</ele><time>2026-04-09T09:45:42Z</time></trkpt><trkpt lat="44.14856821055087" lon="3.830992951833029"><ele>350.0</ele><time>2026-04-09T09:45:51Z</time></trkpt><trkpt lat="44.14855369986396" lon="3.8311123308957713"><ele>349.5</ele><time>2026-04-09T09:45:53Z</time></trkpt><trkpt lat="44.14854434588301" lon="3.8312100159470215"><ele>349.0</ele><time>2026-04-09T09:45:55Z</time></trkpt><trkpt lat="44.14853817762457" lon="3.831334125609523"><ele>348.5</ele><time>2026-04-09T09:45:57Z</time></trkpt><trkpt lat="44.14853430718569" lon="3.831458680336742"><ele>348.0</ele><time>2026-04-09T09:45:59Z</time></trkpt><trkpt lat="44.14854903346906" lon="3.831561795563281"><ele>348.0</ele><time>2026-04-09T09:46:01Z</time></trkpt><trkpt lat="44.14856639189822" lon="3.8316832347502072"><ele>348.0</ele><time>2026-04-09T09:46:04Z</time></trkpt><trkpt lat="44.14863086418666" lon="3.8316965224188153"><ele>348.0</ele><time>2026-04-09T09:46:05Z</time></trkpt><trkpt lat="44.148653441951616" lon="3.83156927100854"><ele>348.0</ele><time>2026-04-09T09:46:06Z</time></trkpt><trkpt lat="44.14869365735214" lon="3.8314750087551808"><ele>348.0</ele><time>2026-04-09T09:46:08Z</time></trkpt><trkpt lat="44.14874430912363" lon="3.831345420297891"><ele>348.0</ele><time>2026-04-09T09:46:10Z</time></trkpt><trkpt lat="44.14877629543336" lon="3.831263585923613"><ele>348.0</ele><time>2026-04-09T09:46:11Z</time></trkpt><trkpt lat="44.14879631660597" lon="3.8311650768791288"><ele>348.0</ele><time>2026-04-09T09:46:12Z</time></trkpt><trkpt lat="44.148836992492825" lon="3.8310750987189164"><ele>348.0</ele><time>2026-04-09T09:46:13Z</time></trkpt><trkpt lat="44.14887785689724" lon="3.8309774186835885"><ele>348.0</ele><time>2026-04-09T09:46:14Z</time></trkpt><trkpt lat="44.14891486122619" lon="3.8308761971725267"><ele>348.0</ele><time>2026-04-09T09:46:15Z</time></trkpt><trkpt lat="44.14895341784206" lon="3.8307758785757384"><ele>348.0</ele><time>2026-04-09T09:46:16Z</time></trkpt><trkpt lat="44.14898672631895" lon="3.8306733400288464"><ele>348.5</ele><time>2026-04-09T09:46:17Z</time></trkpt><trkpt lat="44.14901597100939" lon="3.8305703123058996"><ele>349.0</ele><time>2026-04-09T09:46:18Z</time></trkpt><trkpt lat="44.14904978771604" lon="3.830474396991832"><ele>349.5</ele><time>2026-04-09T09:46:19Z</time></trkpt><trkpt lat="44.149080808776496" lon="3.830383998178454"><ele>350.0</ele><time>2026-04-09T09:46:20Z</time></trkpt><trkpt lat="44.14911007126407" lon="3.8303003485498213"><ele>350.5</ele><time>2026-04-09T09:46:21Z</time></trkpt><trkpt lat="44.1491749202518" lon="3.83017368537939"><ele>351.0</ele><time>2026-04-09T09:46:23Z</time></trkpt><trkpt lat="44.14925796006015" lon="3.830129418497704"><ele>345.6</ele><time>2026-04-09T09:46:25Z</time></trkpt><trkpt lat="44.14932165248992" lon="3.830219341111419"><ele>340.20000000000005</ele><time>2026-04-09T09:46:28Z</time></trkpt><trkpt lat="44.14931965737881" lon="3.8303586759489394"><ele>334.79999999999995</ele><time>2026-04-09T09:46:30Z</time></trkpt><trkpt lat="44.14931175090892" lon="3.830537649754172"><ele>329.4</ele><time>2026-04-09T09:46:31.999Z</time></trkpt><trkpt lat="44.14930608827566" lon="3.8306366727548373"><ele>324.0</ele><time>2026-04-09T09:46:32.999Z</time></trkpt><trkpt lat="44.14927905189237" lon="3.8307332716567757"><ele>324.0</ele><time>2026-04-09T09:46:33.999Z</time></trkpt><trkpt lat="44.14926221737132" lon="3.83083361206309"><ele>324.0</ele><time>2026-04-09T09:46:34.999Z</time></trkpt><trkpt lat="44.14925740184328" lon="3.830938886550966"><ele>324.0</ele><time>2026-04-09T09:46:35.999Z</time></trkpt><trkpt lat="44.149220652627704" lon="3.831028277445672"><ele>324.0</ele><time>2026-04-09T09:46:36.999Z</time></trkpt><trkpt lat="44.14920655926552" lon="3.8311192672070282"><ele>324.0</ele><time>2026-04-09T09:46:37.999Z</time></trkpt><trkpt lat="44.14916440350817" lon="3.8311952117446486"><ele>324.0</ele><time>2026-04-09T09:46:38.999Z</time></trkpt><trkpt lat="44.14913309997155" lon="3.8312820912315253"><ele>324.0</ele><time>2026-04-09T09:46:39.999Z</time></trkpt><trkpt lat="44.149107512803646" lon="3.8313645999983206"><ele>322.5</ele><time>2026-04-09T09:46:40.999Z</time></trkpt><trkpt lat="44.14909692518893" lon="3.8314901785820075"><ele>321.0</ele><time>2026-04-09T09:46:42.999Z</time></trkpt><trkpt lat="44.14915273520579" lon="3.8315795119978295"><ele>319.5</ele><time>2026-04-09T09:46:45.999Z</time></trkpt><trkpt lat="44.14923253107455" lon="3.831532886924167"><ele>318.0</ele><time>2026-04-09T09:46:47.999Z</time></trkpt><trkpt lat="44.14929733972739" lon="3.831433312530266"><ele>316.5</ele><time>2026-04-09T09:46:49.999Z</time></trkpt><trkpt lat="44.149340396047336" lon="3.83136410694753"><ele>315.0</ele><time>2026-04-09T09:46:50.999Z</time></trkpt><trkpt lat="44.149378254840464" lon="3.831293730717923"><ele>315.0</ele><time>2026-04-09T09:46:51.999Z</time></trkpt><trkpt lat="44.14941645722892" lon="3.8312227159369456"><ele>315.0</ele><time>2026-04-09T09:46:52.999Z</time></trkpt><trkpt lat="44.149478233070234" lon="3.8311421886425023"><ele>315.0</ele><time>2026-04-09T09:46:54.999Z</time></trkpt><trkpt lat="44.14948221716833" lon="3.8312299626821367"><ele>315.0</ele><time>2026-04-09T09:46:58.999Z</time></trkpt><trkpt lat="44.14948241685893" lon="3.8313614742097055"><ele>315.0</ele><time>2026-04-09T09:47:00.999Z</time></trkpt><trkpt lat="44.14945856934161" lon="3.8315070079879856"><ele>315.0</ele><time>2026-04-09T09:47:02.999Z</time></trkpt><trkpt lat="44.14944394832176" lon="3.8316379296800833"><ele>315.0</ele><time>2026-04-09T09:47:04.999Z</time></trkpt><trkpt lat="44.14949447773877" lon="3.8317701167344795"><ele>315.0</ele><time>2026-04-09T09:47:06.999Z</time></trkpt><trkpt lat="44.149557852258454" lon="3.8318983266579507"><ele>315.0</ele><time>2026-04-09T09:47:08.999Z</time></trkpt><trkpt lat="44.14961885726351" lon="3.832013736128375"><ele>315.0</ele><time>2026-04-09T09:47:10.999Z</time></trkpt><trkpt lat="44.1496794771344" lon="3.8321023755202086"><ele>315.0</ele><time>2026-04-09T09:47:13.999Z</time></trkpt><trkpt lat="44.149758154285685" lon="3.8321611706646492"><ele>315.0</ele><time>2026-04-09T09:47:18.999Z</time></trkpt><trkpt lat="44.14980447976321" lon="3.8320089832563773"><ele>315.0</ele><time>2026-04-09T09:47:20.999Z</time></trkpt><trkpt lat="44.14981895630416" lon="3.8318543833839853"><ele>315.0</ele><time>2026-04-09T09:47:22.999Z</time></trkpt><trkpt lat="44.14984325247858" lon="3.8316852686636174"><ele>315.0</ele><time>2026-04-09T09:47:24.999Z</time></trkpt><trkpt lat="44.14985648204276" lon="3.8315912156506338"><ele>315.0</ele><time>2026-04-09T09:47:25.999Z</time></trkpt><trkpt lat="44.14988774908081" lon="3.831433550036606"><ele>309.6</ele><time>2026-04-09T09:47:27.999Z</time></trkpt><trkpt lat="44.149954122762686" lon="3.8312749327199973"><ele>304.2</ele><time>2026-04-09T09:47:29.999Z</time></trkpt><trkpt lat="44.14999855750719" lon="3.8312004173570604"><ele>298.8</ele><time>2026-04-09T09:47:30.999Z</time></trkpt><trkpt lat="44.15004988305912" lon="3.831123308557957"><ele>293.4</ele><time>2026-04-09T09:47:31.999Z</time></trkpt><trkpt lat="44.150108761142164" lon="3.8310346787302882"><ele>288.0</ele><time>2026-04-09T09:47:33Z</time></trkpt><trkpt lat="44.15016575537925" lon="3.8309415542692484"><ele>288.0</ele><time>2026-04-09T09:47:34Z</time></trkpt><trkpt lat="44.15021482936307" lon="3.8308440961769956"><ele>288.0</ele><time>2026-04-09T09:47:35Z</time></trkpt><trkpt lat="44.15025742330761" lon="3.830752879016668"><ele>288.0</ele><time>2026-04-09T09:47:36Z</time></trkpt><trkpt lat="44.1502945050938" lon="3.8306725893040996"><ele>288.0</ele><time>2026-04-09T09:47:37Z</time></trkpt><trkpt lat="44.150349261605676" lon="3.830561744447304"><ele>288.0</ele><time>2026-04-09T09:47:39Z</time></trkpt><trkpt lat="44.15041215471614" lon="3.8304567503530245"><ele>288.0</ele><time>2026-04-09T09:47:41Z</time></trkpt><trkpt lat="44.15048019755429" lon="3.830368762226923"><ele>288.0</ele><time>2026-04-09T09:47:43Z</time></trkpt><trkpt lat="44.15054121423655" lon="3.830297318777713"><ele>288.0</ele><time>2026-04-09T09:47:44Z</time></trkpt><trkpt lat="44.15061845420099" lon="3.83021284923211"><ele>288.0</ele><time>2026-04-09T09:47:45Z</time></trkpt><trkpt lat="44.15069868913434" lon="3.8301251023889145"><ele>288.0</ele><time>2026-04-09T09:47:46Z</time></trkpt><trkpt lat="44.1507673050256" lon="3.8300523036496528"><ele>288.0</ele><time>2026-04-09T09:47:47Z</time></trkpt><trkpt lat="44.15083841298145" lon="3.8299878824067"><ele>284.6666666666667</ele><time>2026-04-09T09:47:48Z</time></trkpt><trkpt lat="44.1509096087669" lon="3.829937983182163"><ele>281.3333333333333</ele><time>2026-04-09T09:47:49Z</time></trkpt><trkpt lat="44.15098454882902" lon="3.8298923589213336"><ele>278.0</ele><time>2026-04-09T09:47:50Z</time></trkpt><trkpt lat="44.151064457069566" lon="3.8298489504889304"><ele>274.66666666666663</ele><time>2026-04-09T09:47:51Z</time></trkpt><trkpt lat="44.15113932819897" lon="3.8298129722327814"><ele>271.3333333333333</ele><time>2026-04-09T09:47:52Z</time></trkpt><trkpt lat="44.15121349592256" lon="3.829777068651101"><ele>268.0</ele><time>2026-04-09T09:47:53Z</time></trkpt><trkpt lat="44.15129185375739" lon="3.829765122723064"><ele>268.0</ele><time>2026-04-09T09:47:54Z</time></trkpt><trkpt lat="44.151364767987744" lon="3.8297673820002816"><ele>268.0</ele><time>2026-04-09T09:47:55Z</time></trkpt><trkpt lat="44.151436678331144" lon="3.829773347318506"><ele>268.0</ele><time>2026-04-09T09:47:56Z</time></trkpt><trkpt lat="44.151510655313935" lon="3.8297645907708238"><ele>268.0</ele><time>2026-04-09T09:47:57Z</time></trkpt><trkpt lat="44.15158630881709" lon="3.8297239602178186"><ele>268.0</ele><time>2026-04-09T09:47:58Z</time></trkpt><trkpt lat="44.15166196135756" lon="3.829665540918387"><ele>268.0</ele><time>2026-04-09T09:47:59Z</time></trkpt><trkpt lat="44.151731343963206" lon="3.829594938108312"><ele>267.66666666666663</ele><time>2026-04-09T09:48:00Z</time></trkpt><trkpt lat="44.15179635475517" lon="3.8295134208360295"><ele>267.3333333333333</ele><time>2026-04-09T09:48:01Z</time></trkpt><trkpt lat="44.151849375786796" lon="3.829436710888901"><ele>267.0</ele><time>2026-04-09T09:48:02Z</time></trkpt><trkpt lat="44.15189748914026" lon="3.8293650215975217"><ele>266.6666666666667</ele><time>2026-04-09T09:48:03Z</time></trkpt><trkpt lat="44.151941564692414" lon="3.8292993487459017"><ele>266.33333333333337</ele><time>2026-04-09T09:48:04Z</time></trkpt><trkpt lat="44.15198983296465" lon="3.8292335633834673"><ele>266.0</ele><time>2026-04-09T09:48:05Z</time></trkpt><trkpt lat="44.152080552853896" lon="3.8291237266651503"><ele>266.0</ele><time>2026-04-09T09:48:07Z</time></trkpt><trkpt lat="44.15216947134748" lon="3.829000497582548"><ele>266.0</ele><time>2026-04-09T09:48:09Z</time></trkpt><trkpt lat="44.15226440158865" lon="3.82889523544497"><ele>266.0</ele><time>2026-04-09T09:48:11Z</time></trkpt><trkpt lat="44.15235774313237" lon="3.8287906370316"><ele>266.0</ele><time>2026-04-09T09:48:13Z</time></trkpt><trkpt lat="44.152408841308706" lon="3.828733320488967"><ele>266.0</ele><time>2026-04-09T09:48:14Z</time></trkpt><trkpt lat="44.1524579746365" lon="3.8286697502210076"><ele>264.6</ele><time>2026-04-09T09:48:15Z</time></trkpt><trkpt lat="44.15253419867471" lon="3.8285342022752964"><ele>263.20000000000005</ele><time>2026-04-09T09:48:17Z</time></trkpt><trkpt lat="44.1526067273894" lon="3.828420219108069"><ele>261.79999999999995</ele><time>2026-04-09T09:48:19Z</time></trkpt><trkpt lat="44.15268111127139" lon="3.828334620596136"><ele>260.4</ele><time>2026-04-09T09:48:21Z</time></trkpt><trkpt lat="44.152775943345915" lon="3.828331445483114"><ele>259.0</ele><time>2026-04-09T09:48:23Z</time></trkpt><trkpt lat="44.152863189211274" lon="3.828317460356763"><ele>259.0</ele><time>2026-04-09T09:48:25Z</time></trkpt><trkpt lat="44.15292686632136" lon="3.8282863673838827"><ele>259.0</ele><time>2026-04-09T09:48:26Z</time></trkpt><trkpt lat="44.15301204714299" lon="3.8282817254931407"><ele>259.0</ele><time>2026-04-09T09:48:28Z</time></trkpt><trkpt lat="44.15308119186379" lon="3.8282732431183173"><ele>259.0</ele><time>2026-04-09T09:48:30Z</time></trkpt><trkpt lat="44.153159270251834" lon="3.82828395213842"><ele>259.0</ele><time>2026-04-09T09:48:33Z</time></trkpt><trkpt lat="44.1532262554383" lon="3.828278519684074"><ele>259.0</ele><time>2026-04-09T09:48:50.999Z</time></trkpt><trkpt lat="44.15327812790638" lon="3.8281585050186213"><ele>258.42857142857144</ele><time>2026-04-09T09:48:53.999Z</time></trkpt><trkpt lat="44.15333004208161" lon="3.8280535365081003"><ele>257.8571428571429</ele><time>2026-04-09T09:48:56.999Z</time></trkpt><trkpt lat="44.15337237646881" lon="3.827988143265399"><ele>257.2857142857143</ele><time>2026-04-09T09:48:58.999Z</time></trkpt><trkpt lat="44.15341459231279" lon="3.8279173473736465"><ele>256.7142857142857</ele><time>2026-04-09T09:49:00.999Z</time></trkpt><trkpt lat="44.15345553843619" lon="3.827832532179109"><ele>256.14285714285717</ele><time>2026-04-09T09:49:02.999Z</time></trkpt><trkpt lat="44.15348613420932" lon="3.8277317559835393"><ele>255.57142857142858</ele><time>2026-04-09T09:49:04.999Z</time></trkpt><trkpt lat="44.1535013228734" lon="3.8276396267244395"><ele>255.0</ele><time>2026-04-09T09:49:06.999Z</time></trkpt><trkpt lat="44.15351745208729" lon="3.8275176922541743"><ele>255.0</ele><time>2026-04-09T09:49:09.999Z</time></trkpt><trkpt lat="44.15352911163985" lon="3.8274244955430428"><ele>255.00000000000003</ele><time>2026-04-09T09:49:15.999Z</time></trkpt><trkpt lat="44.15352690532154" lon="3.8273021261624987"><ele>255.0</ele><time>2026-04-09T09:49:20.999Z</time></trkpt><trkpt lat="44.15351949050642" lon="3.8271987616333143"><ele>255.0</ele><time>2026-04-09T09:49:23.999Z</time></trkpt><trkpt lat="44.153519200540856" lon="3.8270971422289577"><ele>255.00000000000003</ele><time>2026-04-09T09:49:47Z</time></trkpt><trkpt lat="44.15353165092278" lon="3.827191304556961"><ele>255.0</ele><time>2026-04-09T09:50:45Z</time></trkpt><trkpt lat="44.15351514042666" lon="3.8272784653612058"><ele>255.0</ele><time>2026-04-09T09:50:57Z</time></trkpt><trkpt lat="44.1535267050209" lon="3.8271801757288517"><ele>255.0</ele><time>2026-04-09T09:51:06Z</time></trkpt><trkpt lat="44.15351906302128" lon="3.8270715270849713"><ele>255.00000000000003</ele><time>2026-04-09T09:51:13Z</time></trkpt><trkpt lat="44.15351000116932" lon="3.8269748214268327"><ele>255.0</ele><time>2026-04-09T09:51:17.999Z</time></trkpt><trkpt lat="44.153548851673904" lon="3.826890870845471"><ele>255.0</ele><time>2026-04-09T09:51:23.999Z</time></trkpt><trkpt lat="44.1536151666023" lon="3.8269148358603924"><ele>255.00000000000003</ele><time>2026-04-09T09:52:06Z</time></trkpt><trkpt lat="44.15363871160516" lon="3.8269997374477884"><ele>255.0</ele><time>2026-04-09T09:52:14Z</time></trkpt><trkpt lat="44.15364582948178" lon="3.827094547253002"><ele>255.0</ele><time>2026-04-09T09:52:34Z</time></trkpt><trkpt lat="44.15367059465133" lon="3.8271924895224223"><ele>255.0</ele><time>2026-04-09T09:52:42Z</time></trkpt><trkpt lat="44.153640544847505" lon="3.827296236114706"><ele>255.00000000000003</ele><time>2026-04-09T09:52:48Z</time></trkpt><trkpt lat="44.15360574740663" lon="3.8273873279969832"><ele>255.0</ele><time>2026-04-09T09:52:54Z</time></trkpt><trkpt lat="44.153548751371154" lon="3.8274325825568405"><ele>255.0</ele><time>2026-04-09T09:53:00.999Z</time></trkpt><trkpt lat="44.15353933555995" lon="3.82734113085552"><ele>255.00000000000003</ele><time>2026-04-09T09:53:06.999Z</time></trkpt><trkpt lat="44.15352525285733" lon="3.8272481055268934"><ele>255.0</ele><time>2026-04-09T09:53:11.999Z</time></trkpt><trkpt lat="44.1535110316477" lon="3.827148656661208"><ele>255.0</ele><time>2026-04-09T09:53:56Z</time></trkpt><trkpt lat="44.15350363262416" lon="3.8270298275037185"><ele>255.0</ele><time>2026-04-09T09:54:05Z</time></trkpt><trkpt lat="44.15349420063894" lon="3.8268937737472606"><ele>255.0</ele><time>2026-04-09T09:54:07Z</time></trkpt><trkpt lat="44.1534812645635" lon="3.826742656888673"><ele>255.0</ele><time>2026-04-09T09:54:09Z</time></trkpt><trkpt lat="44.153466913020814" lon="3.8266150090067135"><ele>255.0</ele><time>2026-04-09T09:54:11Z</time></trkpt><trkpt lat="44.15345632271721" lon="3.8264991984086727"><ele>255.0</ele><time>2026-04-09T09:54:13Z</time></trkpt><trkpt lat="44.153444353458276" lon="3.8263957062866876"><ele>256.0</ele><time>2026-04-09T09:54:15Z</time></trkpt><trkpt lat="44.15343603231053" lon="3.8262954784886514"><ele>257.0</ele><time>2026-04-09T09:54:17Z</time></trkpt><trkpt lat="44.15342272276076" lon="3.8261918507923576"><ele>258.0</ele><time>2026-04-09T09:54:20Z</time></trkpt><trkpt lat="44.15341427640472" lon="3.826100366707148"><ele>259.0</ele><time>2026-04-09T09:54:22Z</time></trkpt><trkpt lat="44.153407586597524" lon="3.8260069341208243"><ele>260.0</ele><time>2026-04-09T09:54:24Z</time></trkpt><trkpt lat="44.15340675682297" lon="3.8258890127842733"><ele>261.0</ele><time>2026-04-09T09:54:26Z</time></trkpt><trkpt lat="44.15336449181033" lon="3.8257447252599195"><ele>261.0</ele><time>2026-04-09T09:54:28Z</time></trkpt><trkpt lat="44.15334826691905" lon="3.825656419197707"><ele>261.0</ele><time>2026-04-09T09:54:29Z</time></trkpt><trkpt lat="44.15331157703994" lon="3.825502420972297"><ele>261.0</ele><time>2026-04-09T09:54:31Z</time></trkpt><trkpt lat="44.15326650893825" lon="3.8253375976699546"><ele>261.0</ele><time>2026-04-09T09:54:33Z</time></trkpt><trkpt lat="44.15320910571486" lon="3.8251964977553277"><ele>261.0</ele><time>2026-04-09T09:54:35Z</time></trkpt><trkpt lat="44.1531768779111" lon="3.8250990394495616"><ele>264.6666666666667</ele><time>2026-04-09T09:54:37Z</time></trkpt><trkpt lat="44.15314196220388" lon="3.824985580881973"><ele>268.3333333333333</ele><time>2026-04-09T09:54:40Z</time></trkpt><trkpt lat="44.15313509936425" lon="3.8248865325849373"><ele>272.0</ele><time>2026-04-09T09:54:42Z</time></trkpt><trkpt lat="44.15312743028622" lon="3.8247698765586717"><ele>275.66666666666663</ele><time>2026-04-09T09:54:44Z</time></trkpt><trkpt lat="44.15313151443089" lon="3.8246374405484356"><ele>279.3333333333333</ele><time>2026-04-09T09:54:46Z</time></trkpt><trkpt lat="44.15313508157574" lon="3.8244940738798445"><ele>283.0</ele><time>2026-04-09T09:54:48Z</time></trkpt><trkpt lat="44.15313125314917" lon="3.8243659587323378"><ele>286.5</ele><time>2026-04-09T09:54:49.999Z</time></trkpt><trkpt lat="44.15312017129839" lon="3.824279136326696"><ele>290.0</ele><time>2026-04-09T09:54:51.999Z</time></trkpt><trkpt lat="44.153089154321364" lon="3.8241736601608918"><ele>293.5</ele><time>2026-04-09T09:54:54.999Z</time></trkpt><trkpt lat="44.15304894351069" lon="3.8240734360494364"><ele>297.0</ele><time>2026-04-09T09:54:57.999Z</time></trkpt><trkpt lat="44.15299903648351" lon="3.8239852290871195"><ele>300.5</ele><time>2026-04-09T09:55:00.999Z</time></trkpt><trkpt lat="44.152963720608184" lon="3.823895552438874"><ele>304.0</ele><time>2026-04-09T09:55:03.999Z</time></trkpt><trkpt lat="44.152930434869305" lon="3.8238033125575197"><ele>304.0</ele><time>2026-04-09T09:55:06.999Z</time></trkpt><trkpt lat="44.152925054682534" lon="3.823701106376485"><ele>304.0</ele><time>2026-04-09T09:55:08.999Z</time></trkpt><trkpt lat="44.15291189914995" lon="3.8236120378656384"><ele>304.0</ele><time>2026-04-09T09:55:10.999Z</time></trkpt><trkpt lat="44.15288779419647" lon="3.823513398708718"><ele>304.0</ele><time>2026-04-09T09:55:12.999Z</time></trkpt><trkpt lat="44.15288270757125" lon="3.823409540355407"><ele>304.0</ele><time>2026-04-09T09:55:14.999Z</time></trkpt><trkpt lat="44.15286718241204" lon="3.823307222487966"><ele>304.0</ele><time>2026-04-09T09:55:16.999Z</time></trkpt><trkpt lat="44.15287114988179" lon="3.8231921191975986"><ele>304.0</ele><time>2026-04-09T09:55:18.999Z</time></trkpt><trkpt lat="44.15287324656638" lon="3.823056866022242"><ele>304.2857142857143</ele><time>2026-04-09T09:55:20.999Z</time></trkpt><trkpt lat="44.152887526105395" lon="3.822947181666704"><ele>304.5714285714286</ele><time>2026-04-09T09:55:22.999Z</time></trkpt><trkpt lat="44.152913152350344" lon="3.822798379660422"><ele>304.8571428571429</ele><time>2026-04-09T09:55:24.999Z</time></trkpt><trkpt lat="44.15295269220722" lon="3.822728816309006"><ele>305.1428571428571</ele><time>2026-04-09T09:55:25.999Z</time></trkpt><trkpt lat="44.152980562938666" lon="3.8226456809287046"><ele>305.42857142857144</ele><time>2026-04-09T09:55:26.999Z</time></trkpt><trkpt lat="44.15300856139674" lon="3.822565657835591"><ele>305.7142857142857</ele><time>2026-04-09T09:55:27.999Z</time></trkpt><trkpt lat="44.153038311088885" lon="3.8224866943478197"><ele>306.0</ele><time>2026-04-09T09:55:28.999Z</time></trkpt><trkpt lat="44.15308133973378" lon="3.8223425069792825"><ele>304.5</ele><time>2026-04-09T09:55:30.999Z</time></trkpt><trkpt lat="44.15313295134567" lon="3.822281556288009"><ele>303.0</ele><time>2026-04-09T09:55:32.999Z</time></trkpt><trkpt lat="44.15319701148255" lon="3.8222153880575864"><ele>301.5</ele><time>2026-04-09T09:55:36.999Z</time></trkpt><trkpt lat="44.15327363630837" lon="3.82224651450039"><ele>300.0</ele><time>2026-04-09T09:55:39.999Z</time></trkpt><trkpt lat="44.15318057931718" lon="3.8222208504337334"><ele>298.5</ele><time>2026-04-09T09:56:11Z</time></trkpt><trkpt lat="44.153101385647304" lon="3.822277366050264"><ele>297.0</ele><time>2026-04-09T09:56:23Z</time></trkpt><trkpt lat="44.15308519299296" lon="3.8223637769314474"><ele>297.0</ele><time>2026-04-09T09:56:24Z</time></trkpt><trkpt lat="44.15306804299435" lon="3.8222279094649707"><ele>297.0</ele><time>2026-04-09T09:56:25Z</time></trkpt><trkpt lat="44.15299710175469" lon="3.8226108194039283"><ele>297.0</ele><time>2026-04-09T09:56:27Z</time></trkpt><trkpt lat="44.15295228391622" lon="3.8227705051481484"><ele>298.8</ele><time>2026-04-09T09:56:29Z</time></trkpt><trkpt lat="44.15290269519521" lon="3.822920670480598"><ele>300.6</ele><time>2026-04-09T09:56:31Z</time></trkpt><trkpt lat="44.15285240499416" lon="3.8230501163211468"><ele>302.40000000000003</ele><time>2026-04-09T09:56:33Z</time></trkpt><trkpt lat="44.15287169911763" lon="3.8232195352779783"><ele>304.2</ele><time>2026-04-09T09:56:35Z</time></trkpt><trkpt lat="44.152892671961574" lon="3.8233040890675327"><ele>306.0</ele><time>2026-04-09T09:56:36Z</time></trkpt><trkpt lat="44.15290962991445" lon="3.823390047518161"><ele>306.0</ele><time>2026-04-09T09:56:37Z</time></trkpt><trkpt lat="44.15292345515969" lon="3.8234774194645627"><ele>306.0</ele><time>2026-04-09T09:56:38Z</time></trkpt><trkpt lat="44.15292746653443" lon="3.823642454389939"><ele>306.0</ele><time>2026-04-09T09:56:40Z</time></trkpt><trkpt lat="44.152959005389995" lon="3.8238108914983893"><ele>306.0</ele><time>2026-04-09T09:56:42Z</time></trkpt><trkpt lat="44.15299197895704" lon="3.8239047768056302"><ele>306.0</ele><time>2026-04-09T09:56:43Z</time></trkpt><trkpt lat="44.15302326928665" lon="3.8239942854628772"><ele>305.6666666666667</ele><time>2026-04-09T09:56:44Z</time></trkpt><trkpt lat="44.153054985607746" lon="3.8240829248159387"><ele>305.3333333333333</ele><time>2026-04-09T09:56:45Z</time></trkpt><trkpt lat="44.15308452097521" lon="3.8241749808120216"><ele>305.0</ele><time>2026-04-09T09:56:46Z</time></trkpt><trkpt lat="44.153110367779306" lon="3.8242654611646625"><ele>304.66666666666663</ele><time>2026-04-09T09:56:47Z</time></trkpt><trkpt lat="44.15312373182857" lon="3.824368900717617"><ele>304.3333333333333</ele><time>2026-04-09T09:56:48Z</time></trkpt><trkpt lat="44.15312774448456" lon="3.8244928098534348"><ele>304.0</ele><time>2026-04-09T09:56:49Z</time></trkpt><trkpt lat="44.15313094049383" lon="3.8246266007566283"><ele>300.5</ele><time>2026-04-09T09:56:50Z</time></trkpt><trkpt lat="44.15309545128282" lon="3.8247439519341677"><ele>297.0</ele><time>2026-04-09T09:56:51Z</time></trkpt><trkpt lat="44.15309995715777" lon="3.8248683697328665"><ele>293.5</ele><time>2026-04-09T09:56:52Z</time></trkpt><trkpt lat="44.15311835957136" lon="3.8249914308665214"><ele>290.0</ele><time>2026-04-09T09:56:53Z</time></trkpt><trkpt lat="44.15315502086214" lon="3.8251052204115497"><ele>286.5</ele><time>2026-04-09T09:56:54Z</time></trkpt><trkpt lat="44.15318763678854" lon="3.8252044705301644"><ele>283.0</ele><time>2026-04-09T09:56:55Z</time></trkpt><trkpt lat="44.15322114941137" lon="3.825290527679513"><ele>279.3333333333333</ele><time>2026-04-09T09:56:56Z</time></trkpt><trkpt lat="44.15325439702445" lon="3.8253877456076655"><ele>275.66666666666663</ele><time>2026-04-09T09:56:57Z</time></trkpt><trkpt lat="44.15328320023395" lon="3.825490350925813"><ele>272.0</ele><time>2026-04-09T09:56:58Z</time></trkpt><trkpt lat="44.15331141486755" lon="3.825597552727136"><ele>268.3333333333333</ele><time>2026-04-09T09:56:59Z</time></trkpt><trkpt lat="44.153337092420884" lon="3.825706283046623"><ele>264.6666666666667</ele><time>2026-04-09T09:57:00Z</time></trkpt><trkpt lat="44.15336014158531" lon="3.8258184927550185"><ele>261.0</ele><time>2026-04-09T09:57:01Z</time></trkpt><trkpt lat="44.15337922958357" lon="3.8259326243854312"><ele>261.1666666666667</ele><time>2026-04-09T09:57:02Z</time></trkpt><trkpt lat="44.15339489720042" lon="3.8260486986358835"><ele>261.3333333333333</ele><time>2026-04-09T09:57:03Z</time></trkpt><trkpt lat="44.153408522370825" lon="3.8261656570965155"><ele>261.5</ele><time>2026-04-09T09:57:04Z</time></trkpt><trkpt lat="44.153419266743384" lon="3.826278484949272"><ele>261.66666666666663</ele><time>2026-04-09T09:57:05Z</time></trkpt><trkpt lat="44.15344429916598" lon="3.826387804559431"><ele>261.8333333333333</ele><time>2026-04-09T09:57:06Z</time></trkpt><trkpt lat="44.153447559952376" lon="3.8264984644063627"><ele>262.0</ele><time>2026-04-09T09:57:07Z</time></trkpt><trkpt lat="44.15345632434973" lon="3.8266048292653463"><ele>262.0</ele><time>2026-04-09T09:57:07.999Z</time></trkpt><trkpt lat="44.153465642315275" lon="3.826707949732981"><ele>262.0</ele><time>2026-04-09T09:57:08.999Z</time></trkpt><trkpt lat="44.15347792339132" lon="3.8268132116206606"><ele>262.0</ele><time>2026-04-09T09:57:09.999Z</time></trkpt><trkpt lat="44.15348993926775" lon="3.826913175400832"><ele>262.0</ele><time>2026-04-09T09:57:10.999Z</time></trkpt><trkpt lat="44.15349636526053" lon="3.8270176009377836"><ele>262.0</ele><time>2026-04-09T09:57:11.999Z</time></trkpt><trkpt lat="44.153504988026874" lon="3.8271229072863022"><ele>262.0</ele><time>2026-04-09T09:57:12.999Z</time></trkpt><trkpt lat="44.15351621514455" lon="3.8272280871484443"><ele>260.8333333333333</ele><time>2026-04-09T09:57:13.999Z</time></trkpt><trkpt lat="44.153502451269304" lon="3.827329664535684"><ele>259.66666666666663</ele><time>2026-04-09T09:57:14.999Z</time></trkpt><trkpt lat="44.15349582451149" lon="3.827496804470127"><ele>258.5</ele><time>2026-04-09T09:57:16.999Z</time></trkpt><trkpt lat="44.15347143428741" lon="3.827660370262446"><ele>257.3333333333333</ele><time>2026-04-09T09:57:18.999Z</time></trkpt><trkpt lat="44.15344826236393" lon="3.827745731386099"><ele>256.1666666666667</ele><time>2026-04-09T09:57:19.999Z</time></trkpt><trkpt lat="44.15341906580324" lon="3.827828488454573"><ele>255.0</ele><time>2026-04-09T09:57:20.999Z</time></trkpt><trkpt lat="44.15338721805765" lon="3.827910108799187"><ele>254.5</ele><time>2026-04-09T09:57:21.999Z</time></trkpt><trkpt lat="44.153328848614805" lon="3.8280144814471893"><ele>254.0</ele><time>2026-04-09T09:57:23.999Z</time></trkpt><trkpt lat="44.15328308985897" lon="3.8280879175256755"><ele>253.5</ele><time>2026-04-09T09:57:25.999Z</time></trkpt><trkpt lat="44.15322824226344" lon="3.8281703666076794"><ele>253.0</ele><time>2026-04-09T09:57:28.999Z</time></trkpt><trkpt lat="44.15319874914116" lon="3.8282747332921296"><ele>252.5</ele><time>2026-04-09T09:57:30.999Z</time></trkpt><trkpt lat="44.15324948851384" lon="3.8283576544328435"><ele>252.0</ele><time>2026-04-09T09:57:32.999Z</time></trkpt><trkpt lat="44.15328115183092" lon="3.828434513390059"><ele>253.57142857142856</ele><time>2026-04-09T09:57:37.999Z</time></trkpt><trkpt lat="44.1533339752033" lon="3.8284878736638404"><ele>255.14285714285714</ele><time>2026-04-09T09:57:46.999Z</time></trkpt><trkpt lat="44.15336226294101" lon="3.8285684444318817"><ele>256.7142857142857</ele><time>2026-04-09T09:57:50.999Z</time></trkpt><trkpt lat="44.153397565772025" lon="3.82864179015594"><ele>258.2857142857143</ele><time>2026-04-09T09:57:53.999Z</time></trkpt><trkpt lat="44.153459823094465" lon="3.8286690029346993"><ele>259.85714285714283</ele><time>2026-04-09T09:57:56.999Z</time></trkpt><trkpt lat="44.15351332000482" lon="3.828609841285578"><ele>261.42857142857144</ele><time>2026-04-09T09:58:00.999Z</time></trkpt><trkpt lat="44.15356180641331" lon="3.82853465034438"><ele>263.0</ele><time>2026-04-09T09:58:06Z</time></trkpt><trkpt lat="44.15361806601423" lon="3.828480239969628"><ele>262.33333333333337</ele><time>2026-04-09T09:58:08Z</time></trkpt><trkpt lat="44.15367618751344" lon="3.82841947359728"><ele>261.6666666666667</ele><time>2026-04-09T09:58:10Z</time></trkpt><trkpt lat="44.15373370489785" lon="3.8283626943690936"><ele>261.0</ele><time>2026-04-09T09:58:12Z</time></trkpt><trkpt lat="44.15379646603942" lon="3.8283037547020045"><ele>260.3333333333333</ele><time>2026-04-09T09:58:14Z</time></trkpt><trkpt lat="44.15386097601888" lon="3.828255856529356"><ele>259.66666666666663</ele><time>2026-04-09T09:58:16Z</time></trkpt><trkpt lat="44.153946679916956" lon="3.8282501093951082"><ele>259.0</ele><time>2026-04-09T09:58:18Z</time></trkpt><trkpt lat="44.15404496520984" lon="3.828277792340028"><ele>259.0</ele><time>2026-04-09T09:58:20Z</time></trkpt><trkpt lat="44.15414220178272" lon="3.8282778287460335"><ele>259.0</ele><time>2026-04-09T09:58:22Z</time></trkpt><trkpt lat="44.15422916506557" lon="3.828235648886978"><ele>259.0</ele><time>2026-04-09T09:58:24Z</time></trkpt><trkpt lat="44.154301231196506" lon="3.8281699295141594"><ele>259.0</ele><time>2026-04-09T09:58:26Z</time></trkpt><trkpt lat="44.15437341430594" lon="3.828078193799047"><ele>259.0</ele><time>2026-04-09T09:58:28Z</time></trkpt><trkpt lat="44.15445097994814" lon="3.827961755863577"><ele>259.0</ele><time>2026-04-09T09:58:30Z</time></trkpt><trkpt lat="44.15451748721991" lon="3.8278268164738316"><ele>259.0</ele><time>2026-04-09T09:58:32Z</time></trkpt><trkpt lat="44.15455263273443" lon="3.827656886001121"><ele>259.0</ele><time>2026-04-09T09:58:34Z</time></trkpt><trkpt lat="44.15455985257764" lon="3.827556877137042"><ele>259.0</ele><time>2026-04-09T09:58:35Z</time></trkpt><trkpt lat="44.15455725227399" lon="3.8274584563460023"><ele>259.0</ele><time>2026-04-09T09:58:36Z</time></trkpt><trkpt lat="44.15455686871017" lon="3.8273044391373108"><ele>259.0</ele><time>2026-04-09T09:58:38Z</time></trkpt><trkpt lat="44.154625762035394" lon="3.827303348356785"><ele>259.0</ele><time>2026-04-09T09:58:40Z</time></trkpt><trkpt lat="44.15464070289139" lon="3.8274194531300254"><ele>259.0</ele><time>2026-04-09T09:58:43Z</time></trkpt><trkpt lat="44.15464955129882" lon="3.8275540296085517"><ele>259.0</ele><time>2026-04-09T09:58:45Z</time></trkpt><trkpt lat="44.15464688838977" lon="3.82766322296093"><ele>259.0</ele><time>2026-04-09T09:58:48Z</time></trkpt><trkpt lat="44.15463482039116" lon="3.827771388345442"><ele>259.0</ele><time>2026-04-09T09:58:51Z</time></trkpt><trkpt lat="44.15459843594389" lon="3.827921556303966"><ele>259.0</ele><time>2026-04-09T09:59:08Z</time></trkpt><trkpt lat="44.154589244786" lon="3.8280114323459746"><ele>259.0</ele><time>2026-04-09T09:59:10.999Z</time></trkpt><trkpt lat="44.15469030538957" lon="3.8280297103008625"><ele>259.0</ele><time>2026-04-09T09:59:11.999Z</time></trkpt><trkpt lat="44.154733311700284" lon="3.8279136968840235"><ele>259.0</ele><time>2026-04-09T09:59:14.999Z</time></trkpt><trkpt lat="44.154741780874474" lon="3.827796358647123"><ele>259.0</ele><time>2026-04-09T09:59:16.999Z</time></trkpt><trkpt lat="44.15477606282973" lon="3.8276716389444205"><ele>259.0</ele><time>2026-04-09T09:59:19Z</time></trkpt><trkpt lat="44.15479926453602" lon="3.8275111313899752"><ele>258.0</ele><time>2026-04-09T09:59:20.999Z</time></trkpt><trkpt lat="44.15483683871047" lon="3.8274312136739366"><ele>257.0</ele><time>2026-04-09T09:59:21.999Z</time></trkpt><trkpt lat="44.154843237786075" lon="3.827333314614973"><ele>256.0</ele><time>2026-04-09T09:59:22.999Z</time></trkpt><trkpt lat="44.154864654314785" lon="3.8272397017717057"><ele>255.0</ele><time>2026-04-09T09:59:23.999Z</time></trkpt><trkpt lat="44.15487606371126" lon="3.8271406990768373"><ele>254.0</ele><time>2026-04-09T09:59:24.999Z</time></trkpt><trkpt lat="44.15488044345383" lon="3.8270319867050406"><ele>253.0</ele><time>2026-04-09T09:59:25.999Z</time></trkpt><trkpt lat="44.154885153147475" lon="3.8269284157377546"><ele>252.0</ele><time>2026-04-09T09:59:26.999Z</time></trkpt><trkpt lat="44.15489455451401" lon="3.8268331304835597"><ele>257.4</ele><time>2026-04-09T09:59:27.999Z</time></trkpt><trkpt lat="44.1549025302169" lon="3.826744235931335"><ele>262.79999999999995</ele><time>2026-04-09T09:59:28.999Z</time></trkpt><trkpt lat="44.15490098770398" lon="3.826600416180171"><ele>268.2</ele><time>2026-04-09T09:59:30.999Z</time></trkpt><trkpt lat="44.15490744554216" lon="3.8264933910522263"><ele>273.59999999999997</ele><time>2026-04-09T09:59:32.999Z</time></trkpt><trkpt lat="44.15490038315483" lon="3.8263947213466283"><ele>279.0</ele><time>2026-04-09T09:59:37.999Z</time></trkpt><trkpt lat="44.15490616143612" lon="3.8265883942163765"><ele>279.0</ele><time>2026-04-09T10:00:30Z</time></trkpt><trkpt lat="44.15501351820396" lon="3.8267759153529366"><ele>279.0</ele><time>2026-04-09T10:00:31Z</time></trkpt><trkpt lat="44.155015059375074" lon="3.8268909934759927"><ele>279.0</ele><time>2026-04-09T10:00:32Z</time></trkpt><trkpt lat="44.15501243143369" lon="3.827013768566045"><ele>279.0</ele><time>2026-04-09T10:00:33Z</time></trkpt><trkpt lat="44.15500111756025" lon="3.8271442832665348"><ele>279.0</ele><time>2026-04-09T10:00:34Z</time></trkpt><trkpt lat="44.15500212495014" lon="3.827284397809407"><ele>279.2</ele><time>2026-04-09T10:00:35Z</time></trkpt><trkpt lat="44.15498267020765" lon="3.8274262986832746"><ele>279.4</ele><time>2026-04-09T10:00:36Z</time></trkpt><trkpt lat="44.1549432930559" lon="3.8275660387437886"><ele>279.6</ele><time>2026-04-09T10:00:37Z</time></trkpt><trkpt lat="44.15491532400287" lon="3.82771273239285"><ele>279.8</ele><time>2026-04-09T10:00:38Z</time></trkpt><trkpt lat="44.15488293244557" lon="3.8278607585011124"><ele>280.0</ele><time>2026-04-09T10:00:39Z</time></trkpt><trkpt lat="44.154845071765905" lon="3.8280087220871803"><ele>280.0</ele><time>2026-04-09T10:00:40Z</time></trkpt><trkpt lat="44.154810892400626" lon="3.8281577106903093"><ele>280.0</ele><time>2026-04-09T10:00:41Z</time></trkpt><trkpt lat="44.15474565035728" lon="3.828286782423989"><ele>280.0</ele><time>2026-04-09T10:00:42Z</time></trkpt><trkpt lat="44.15466910755991" lon="3.8284048773149295"><ele>280.0</ele><time>2026-04-09T10:00:43Z</time></trkpt><trkpt lat="44.154585115437925" lon="3.828510562019418"><ele>280.0</ele><time>2026-04-09T10:00:44Z</time></trkpt><trkpt lat="44.15450392952281" lon="3.8286196619487574"><ele>280.0</ele><time>2026-04-09T10:00:45Z</time></trkpt><trkpt lat="44.15442314381466" lon="3.8287291240301142"><ele>280.0</ele><time>2026-04-09T10:00:46Z</time></trkpt><trkpt lat="44.154341393593974" lon="3.8288295522571336"><ele>280.0</ele><time>2026-04-09T10:00:47Z</time></trkpt><trkpt lat="44.15425235743248" lon="3.828909913174692"><ele>280.0</ele><time>2026-04-09T10:00:48Z</time></trkpt><trkpt lat="44.15415693206525" lon="3.82896206688541"><ele>280.0</ele><time>2026-04-09T10:00:49Z</time></trkpt><trkpt lat="44.15406079935462" lon="3.828991807549714"><ele>280.0</ele><time>2026-04-09T10:00:50Z</time></trkpt><trkpt lat="44.15396634098662" lon="3.829002054438058"><ele>280.0</ele><time>2026-04-09T10:00:51Z</time></trkpt><trkpt lat="44.1538731463528" lon="3.8290148457354487"><ele>280.0</ele><time>2026-04-09T10:00:52Z</time></trkpt><trkpt lat="44.15378517968941" lon="3.8290454842298867"><ele>280.0</ele><time>2026-04-09T10:00:53Z</time></trkpt><trkpt lat="44.15370845601839" lon="3.829104394754148"><ele>280.0</ele><time>2026-04-09T10:00:54Z</time></trkpt><trkpt lat="44.15364072717086" lon="3.82918529293315"><ele>280.0</ele><time>2026-04-09T10:00:55Z</time></trkpt><trkpt lat="44.15357950457291" lon="3.8292816065339403"><ele>280.0</ele><time>2026-04-09T10:00:56Z</time></trkpt><trkpt lat="44.15352321377681" lon="3.8293905805556805"><ele>280.0</ele><time>2026-04-09T10:00:57Z</time></trkpt><trkpt lat="44.15347612085702" lon="3.829511741604465"><ele>280.0</ele><time>2026-04-09T10:00:58Z</time></trkpt><trkpt lat="44.153444510348706" lon="3.829649708635943"><ele>280.0</ele><time>2026-04-09T10:00:59Z</time></trkpt><trkpt lat="44.153416773598806" lon="3.8297912797095672"><ele>280.0</ele><time>2026-04-09T10:01:00Z</time></trkpt><trkpt lat="44.153384509901535" lon="3.829930370628641"><ele>280.0</ele><time>2026-04-09T10:01:01Z</time></trkpt><trkpt lat="44.15334468521126" lon="3.830065693315373"><ele>280.0</ele><time>2026-04-09T10:01:02Z</time></trkpt><trkpt lat="44.15329504390319" lon="3.8301891498212903"><ele>280.0</ele><time>2026-04-09T10:01:03Z</time></trkpt><trkpt lat="44.15323890470408" lon="3.8303038546813073"><ele>277.2</ele><time>2026-04-09T10:01:04Z</time></trkpt><trkpt lat="44.153181261510426" lon="3.8304118765980255"><ele>274.4</ele><time>2026-04-09T10:01:05Z</time></trkpt><trkpt lat="44.153119237698256" lon="3.8305155458787428"><ele>271.6</ele><time>2026-04-09T10:01:06Z</time></trkpt><trkpt lat="44.1530596839479" lon="3.8306138543869976"><ele>268.8</ele><time>2026-04-09T10:01:07Z</time></trkpt><trkpt lat="44.153016028784634" lon="3.8307192069895013"><ele>266.0</ele><time>2026-04-09T10:01:08Z</time></trkpt><trkpt lat="44.15300534148898" lon="3.8308370892179147"><ele>266.0</ele><time>2026-04-09T10:01:09Z</time></trkpt><trkpt lat="44.15302583365507" lon="3.830928976822474"><ele>266.0</ele><time>2026-04-09T10:01:10Z</time></trkpt><trkpt lat="44.15308462669262" lon="3.830988866797052"><ele>266.0</ele><time>2026-04-09T10:01:11Z</time></trkpt><trkpt lat="44.153162020407784" lon="3.831022793094485"><ele>266.0</ele><time>2026-04-09T10:01:12Z</time></trkpt><trkpt lat="44.153245728931154" lon="3.8310413959778478"><ele>266.0</ele><time>2026-04-09T10:01:13Z</time></trkpt><trkpt lat="44.153346165959015" lon="3.8310658920571656"><ele>266.0</ele><time>2026-04-09T10:01:14Z</time></trkpt><trkpt lat="44.15346029056263" lon="3.8310937606448547"><ele>265.75</ele><time>2026-04-09T10:01:15Z</time></trkpt><trkpt lat="44.15358198972395" lon="3.8311285417499024"><ele>265.5</ele><time>2026-04-09T10:01:16Z</time></trkpt><trkpt lat="44.1537142509138" lon="3.8311608549819263"><ele>265.25</ele><time>2026-04-09T10:01:17Z</time></trkpt><trkpt lat="44.153851585524755" lon="3.831192145489622"><ele>265.0</ele><time>2026-04-09T10:01:18Z</time></trkpt><trkpt lat="44.15399229298993" lon="3.831213202983237"><ele>265.5</ele><time>2026-04-09T10:01:19Z</time></trkpt><trkpt lat="44.15412871046052" lon="3.831231288703752"><ele>266.0</ele><time>2026-04-09T10:01:20Z</time></trkpt><trkpt lat="44.15425914270784" lon="3.8312687314594625"><ele>266.5</ele><time>2026-04-09T10:01:21Z</time></trkpt><trkpt lat="44.15437016304962" lon="3.831365528983627"><ele>267.0</ele><time>2026-04-09T10:01:22Z</time></trkpt><trkpt lat="44.154490419644745" lon="3.8314470671500724"><ele>267.0</ele><time>2026-04-09T10:01:23Z</time></trkpt><trkpt lat="44.154612024787895" lon="3.8315164050051624"><ele>267.0</ele><time>2026-04-09T10:01:24Z</time></trkpt><trkpt lat="44.15473625306381" lon="3.83155563526727"><ele>267.0</ele><time>2026-04-09T10:01:25Z</time></trkpt><trkpt lat="44.154854318548026" lon="3.831620512239752"><ele>267.0</ele><time>2026-04-09T10:01:26Z</time></trkpt><trkpt lat="44.15497267984693" lon="3.8316749574258253"><ele>267.8</ele><time>2026-04-09T10:01:27Z</time></trkpt><trkpt lat="44.15508218564068" lon="3.831724686951219"><ele>268.6</ele><time>2026-04-09T10:01:28Z</time></trkpt><trkpt lat="44.155169286221856" lon="3.831771672380838"><ele>269.40000000000003</ele><time>2026-04-09T10:01:29Z</time></trkpt><trkpt lat="44.15522004864526" lon="3.8318814193775856"><ele>270.2</ele><time>2026-04-09T10:01:30Z</time></trkpt><trkpt lat="44.15522725420289" lon="3.8320047343054164"><ele>271.0</ele><time>2026-04-09T10:01:31Z</time></trkpt><trkpt lat="44.15524503453139" lon="3.8321310069741092"><ele>271.0</ele><time>2026-04-09T10:01:31.999Z</time></trkpt><trkpt lat="44.15526491512593" lon="3.8322635814780113"><ele>271.0</ele><time>2026-04-09T10:01:33Z</time></trkpt><trkpt lat="44.155284135381976" lon="3.8324027462581127"><ele>271.0</ele><time>2026-04-09T10:01:33.999Z</time></trkpt><trkpt lat="44.15529831029105" lon="3.8325451424058037"><ele>271.0</ele><time>2026-04-09T10:01:34.999Z</time></trkpt><trkpt lat="44.15529324754195" lon="3.832688973755175"><ele>271.0</ele><time>2026-04-09T10:01:35.999Z</time></trkpt><trkpt lat="44.155262027766895" lon="3.8328273512799202"><ele>270.6</ele><time>2026-04-09T10:01:36.999Z</time></trkpt><trkpt lat="44.15522885764006" lon="3.8329691205018808"><ele>270.20000000000005</ele><time>2026-04-09T10:01:37.999Z</time></trkpt><trkpt lat="44.15522142701284" lon="3.8331214728727283"><ele>269.79999999999995</ele><time>2026-04-09T10:01:38.999Z</time></trkpt><trkpt lat="44.155207212871666" lon="3.833264315057406"><ele>269.4</ele><time>2026-04-09T10:01:39.999Z</time></trkpt><trkpt lat="44.1551987126461" lon="3.833402022045676"><ele>269.0</ele><time>2026-04-09T10:01:40.999Z</time></trkpt><trkpt lat="44.155190062933144" lon="3.8335310628819594"><ele>269.0</ele><time>2026-04-09T10:01:41.999Z</time></trkpt><trkpt lat="44.155190622754496" lon="3.83364626869826"><ele>269.0</ele><time>2026-04-09T10:01:42.999Z</time></trkpt><trkpt lat="44.155211401155476" lon="3.8337416647342812"><ele>269.0</ele><time>2026-04-09T10:01:43.999Z</time></trkpt><trkpt lat="44.15525264290948" lon="3.8338105065997223"><ele>269.0</ele><time>2026-04-09T10:01:44.999Z</time></trkpt><trkpt lat="44.155315870526906" lon="3.833844360926054"><ele>269.0</ele><time>2026-04-09T10:01:45.999Z</time></trkpt><trkpt lat="44.15539398314166" lon="3.833833657636469"><ele>269.0</ele><time>2026-04-09T10:01:46.999Z</time></trkpt><trkpt lat="44.15547484046124" lon="3.833811792017561"><ele>269.0</ele><time>2026-04-09T10:01:47.999Z</time></trkpt><trkpt lat="44.15556629160982" lon="3.8337954531361484"><ele>269.0</ele><time>2026-04-09T10:01:48.999Z</time></trkpt><trkpt lat="44.15566167057368" lon="3.83378060899665"><ele>269.0</ele><time>2026-04-09T10:01:49.999Z</time></trkpt><trkpt lat="44.155761807463335" lon="3.833764716351062"><ele>269.0</ele><time>2026-04-09T10:01:50.999Z</time></trkpt><trkpt lat="44.15586651750802" lon="3.833751234570505"><ele>269.0</ele><time>2026-04-09T10:01:51.999Z</time></trkpt><trkpt lat="44.15596831544681" lon="3.833742409014191"><ele>269.0</ele><time>2026-04-09T10:01:52.999Z</time></trkpt><trkpt lat="44.156066412726815" lon="3.833741767190997"><ele>268.59999999999997</ele><time>2026-04-09T10:01:53.999Z</time></trkpt><trkpt lat="44.15616928770705" lon="3.8337620040070313"><ele>268.2</ele><time>2026-04-09T10:01:54.999Z</time></trkpt><trkpt lat="44.15625681591898" lon="3.83383318342089"><ele>267.79999999999995</ele><time>2026-04-09T10:01:55.999Z</time></trkpt><trkpt lat="44.15633227564241" lon="3.833896755753849"><ele>267.4</ele><time>2026-04-09T10:01:56.999Z</time></trkpt><trkpt lat="44.15638562370122" lon="3.833991532325706"><ele>267.0</ele><time>2026-04-09T10:01:57.999Z</time></trkpt><trkpt lat="44.15643449061005" lon="3.8341015900405506"><ele>267.0</ele><time>2026-04-09T10:01:58.999Z</time></trkpt><trkpt lat="44.15650136161821" lon="3.8342075610437063"><ele>267.0</ele><time>2026-04-09T10:01:59.999Z</time></trkpt><trkpt lat="44.15656112662759" lon="3.834323016231989"><ele>267.0</ele><time>2026-04-09T10:02:00.999Z</time></trkpt><trkpt lat="44.15662902090224" lon="3.8344281295510494"><ele>267.0</ele><time>2026-04-09T10:02:01.999Z</time></trkpt><trkpt lat="44.15670725846329" lon="3.83452704143206"><ele>267.0</ele><time>2026-04-09T10:02:02.999Z</time></trkpt><trkpt lat="44.156796040581185" lon="3.834608241829258"><ele>265.0</ele><time>2026-04-09T10:02:03.999Z</time></trkpt><trkpt lat="44.156891672179604" lon="3.8346832816361607"><ele>263.0</ele><time>2026-04-09T10:02:04.999Z</time></trkpt><trkpt lat="44.156990124349235" lon="3.834756155013759"><ele>261.0</ele><time>2026-04-09T10:02:05.999Z</time></trkpt><trkpt lat="44.15708537689496" lon="3.83483802227565"><ele>259.0</ele><time>2026-04-09T10:02:06.999Z</time></trkpt><trkpt lat="44.15718148707986" lon="3.8349144690269483"><ele>257.0</ele><time>2026-04-09T10:02:07.999Z</time></trkpt><trkpt lat="44.15726732663909" lon="3.8349988550471807"><ele>257.0</ele><time>2026-04-09T10:02:08.999Z</time></trkpt><trkpt lat="44.157328280312925" lon="3.835126366948681"><ele>257.0</ele><time>2026-04-09T10:02:09.999Z</time></trkpt><trkpt lat="44.157387990992255" lon="3.8352599769826266"><ele>257.0</ele><time>2026-04-09T10:02:10.999Z</time></trkpt><trkpt lat="44.15743348116555" lon="3.835409328365427"><ele>257.0</ele><time>2026-04-09T10:02:11.999Z</time></trkpt><trkpt lat="44.157488408062015" lon="3.8355699558768612"><ele>258.75</ele><time>2026-04-09T10:02:12.999Z</time></trkpt><trkpt lat="44.15752426299503" lon="3.8357549042791463"><ele>260.5</ele><time>2026-04-09T10:02:13.999Z</time></trkpt><trkpt lat="44.15756512845268" lon="3.835934659239505"><ele>262.25</ele><time>2026-04-09T10:02:15Z</time></trkpt><trkpt lat="44.15760774232662" lon="3.8361079149775845"><ele>264.0</ele><time>2026-04-09T10:02:16Z</time></trkpt><trkpt lat="44.157652577260485" lon="3.836277746021927"><ele>264.0</ele><time>2026-04-09T10:02:17Z</time></trkpt><trkpt lat="44.15769151360834" lon="3.8364490235225923"><ele>264.0</ele><time>2026-04-09T10:02:18Z</time></trkpt><trkpt lat="44.15770910581421" lon="3.836625747608584"><ele>264.0</ele><time>2026-04-09T10:02:19Z</time></trkpt><trkpt lat="44.157702043218734" lon="3.83679770923447"><ele>264.0</ele><time>2026-04-09T10:02:20Z</time></trkpt><trkpt lat="44.15767946945506" lon="3.8369564910229297"><ele>263.0</ele><time>2026-04-09T10:02:21Z</time></trkpt><trkpt lat="44.15765544730527" lon="3.837095647303857"><ele>262.0</ele><time>2026-04-09T10:02:22Z</time></trkpt><trkpt lat="44.15763575848615" lon="3.8372144560817163"><ele>261.0</ele><time>2026-04-09T10:02:23Z</time></trkpt><trkpt lat="44.15763450257838" lon="3.837322489800171"><ele>260.0</ele><time>2026-04-09T10:02:24Z</time></trkpt><trkpt lat="44.15768432736366" lon="3.83743971466928"><ele>259.0</ele><time>2026-04-09T10:02:25Z</time></trkpt><trkpt lat="44.157742919704205" lon="3.8374761043624224"><ele>258.0</ele><time>2026-04-09T10:02:26Z</time></trkpt><trkpt lat="44.15782032093875" lon="3.837490402288745"><ele>258.0</ele><time>2026-04-09T10:02:27Z</time></trkpt><trkpt lat="44.1579122181045" lon="3.8374525463263174"><ele>258.0</ele><time>2026-04-09T10:02:28Z</time></trkpt><trkpt lat="44.15802039326557" lon="3.8373940618912936"><ele>258.0</ele><time>2026-04-09T10:02:29Z</time></trkpt><trkpt lat="44.15813576882711" lon="3.837319606031563"><ele>258.0</ele><time>2026-04-09T10:02:30Z</time></trkpt><trkpt lat="44.15824963871152" lon="3.8372189419481786"><ele>257.25</ele><time>2026-04-09T10:02:31Z</time></trkpt><trkpt lat="44.15836207473502" lon="3.8371052804697143"><ele>256.5</ele><time>2026-04-09T10:02:32Z</time></trkpt><trkpt lat="44.158477219185706" lon="3.83699409010597"><ele>255.75</ele><time>2026-04-09T10:02:33Z</time></trkpt><trkpt lat="44.158588582621974" lon="3.836880015241578"><ele>255.0</ele><time>2026-04-09T10:02:34Z</time></trkpt><trkpt lat="44.15870306438216" lon="3.8367684208323602"><ele>257.5</ele><time>2026-04-09T10:02:35Z</time></trkpt><trkpt lat="44.15881451757678" lon="3.83665911436753"><ele>260.0</ele><time>2026-04-09T10:02:36Z</time></trkpt><trkpt lat="44.15892031887076" lon="3.836554909720475"><ele>262.5</ele><time>2026-04-09T10:02:37Z</time></trkpt><trkpt lat="44.15902704497738" lon="3.83647329410632"><ele>265.0</ele><time>2026-04-09T10:02:38Z</time></trkpt><trkpt lat="44.159144213024085" lon="3.8364201484616114"><ele>265.0</ele><time>2026-04-09T10:02:39Z</time></trkpt><trkpt lat="44.15926836920427" lon="3.8364392263715685"><ele>265.0</ele><time>2026-04-09T10:02:40Z</time></trkpt><trkpt lat="44.159382312516314" lon="3.8364889247713436"><ele>265.0</ele><time>2026-04-09T10:02:41Z</time></trkpt><trkpt lat="44.15948354393664" lon="3.836575618266777"><ele>265.0</ele><time>2026-04-09T10:02:42Z</time></trkpt><trkpt lat="44.159578110053445" lon="3.836683316111364"><ele>265.0</ele><time>2026-04-09T10:02:43Z</time></trkpt><trkpt lat="44.15967436743639" lon="3.8367968999682027"><ele>265.0</ele><time>2026-04-09T10:02:44Z</time></trkpt><trkpt lat="44.15976608339264" lon="3.8369114446040102"><ele>265.0</ele><time>2026-04-09T10:02:45Z</time></trkpt><trkpt lat="44.159848399435866" lon="3.837027132790628"><ele>265.0</ele><time>2026-04-09T10:02:46Z</time></trkpt><trkpt lat="44.159895379213474" lon="3.8371582940942615"><ele>265.0</ele><time>2026-04-09T10:02:47Z</time></trkpt><trkpt lat="44.15993271984809" lon="3.837308673100513"><ele>265.0</ele><time>2026-04-09T10:02:48Z</time></trkpt><trkpt lat="44.159975445920885" lon="3.8374582592793534"><ele>265.0</ele><time>2026-04-09T10:02:49Z</time></trkpt><trkpt lat="44.16000775081229" lon="3.8376119764104253"><ele>265.0</ele><time>2026-04-09T10:02:50Z</time></trkpt><trkpt lat="44.160042160127254" lon="3.8377633411545586"><ele>263.25</ele><time>2026-04-09T10:02:51Z</time></trkpt><trkpt lat="44.160075901868645" lon="3.8379138207316164"><ele>261.5</ele><time>2026-04-09T10:02:52Z</time></trkpt><trkpt lat="44.16009936880571" lon="3.8380685235567844"><ele>259.75</ele><time>2026-04-09T10:02:53Z</time></trkpt><trkpt lat="44.16012409991043" lon="3.838223894837077"><ele>258.0</ele><time>2026-04-09T10:02:54Z</time></trkpt><trkpt lat="44.16013803730293" lon="3.838381877112629"><ele>259.0</ele><time>2026-04-09T10:02:55Z</time></trkpt><trkpt lat="44.1601361035267" lon="3.8385442063629105"><ele>260.0</ele><time>2026-04-09T10:02:56Z</time></trkpt><trkpt lat="44.160114680605055" lon="3.8386994958588807"><ele>261.0</ele><time>2026-04-09T10:02:57Z</time></trkpt><trkpt lat="44.1600818957579" lon="3.8388533226651407"><ele>262.0</ele><time>2026-04-09T10:02:58Z</time></trkpt><trkpt lat="44.16004339077266" lon="3.8390055846662117"><ele>262.0</ele><time>2026-04-09T10:02:59Z</time></trkpt><trkpt lat="44.159999791719656" lon="3.839156560039463"><ele>262.0</ele><time>2026-04-09T10:03:00Z</time></trkpt><trkpt lat="44.159950452523546" lon="3.8393053320228816"><ele>262.0</ele><time>2026-04-09T10:03:01Z</time></trkpt><trkpt lat="44.15989179764377" lon="3.839447587170954"><ele>262.0</ele><time>2026-04-09T10:03:02Z</time></trkpt><trkpt lat="44.159814542825835" lon="3.839572069830776"><ele>258.25</ele><time>2026-04-09T10:03:03Z</time></trkpt><trkpt lat="44.15972810559365" lon="3.8396845609635335"><ele>254.5</ele><time>2026-04-09T10:03:04Z</time></trkpt><trkpt lat="44.159641730842075" lon="3.839794694050325"><ele>250.75</ele><time>2026-04-09T10:03:05Z</time></trkpt><trkpt lat="44.15955393002543" lon="3.839904764138887"><ele>247.0</ele><time>2026-04-09T10:03:06Z</time></trkpt><trkpt lat="44.15946151499072" lon="3.8400127086407676"><ele>247.0</ele><time>2026-04-09T10:03:07Z</time></trkpt><trkpt lat="44.15936624821972" lon="3.840117343174785"><ele>247.0</ele><time>2026-04-09T10:03:08Z</time></trkpt><trkpt lat="44.159267039808185" lon="3.840215274385796"><ele>247.0</ele><time>2026-04-09T10:03:09Z</time></trkpt><trkpt lat="44.15917017205542" lon="3.8403193107729545"><ele>247.0</ele><time>2026-04-09T10:03:10Z</time></trkpt><trkpt lat="44.15908299662661" lon="3.840436151827746"><ele>244.25</ele><time>2026-04-09T10:03:11Z</time></trkpt><trkpt lat="44.15900519116697" lon="3.8405608073583117"><ele>241.5</ele><time>2026-04-09T10:03:12Z</time></trkpt><trkpt lat="44.15893115015702" lon="3.840687697724981"><ele>238.75</ele><time>2026-04-09T10:03:13Z</time></trkpt><trkpt lat="44.15885918385659" lon="3.8408052142288462"><ele>236.0</ele><time>2026-04-09T10:03:14Z</time></trkpt><trkpt lat="44.158807653097895" lon="3.8409360117577855"><ele>235.4</ele><time>2026-04-09T10:03:15Z</time></trkpt><trkpt lat="44.15879669640566" lon="3.8410886001484856"><ele>234.8</ele><time>2026-04-09T10:03:16Z</time></trkpt><trkpt lat="44.15883927953905" lon="3.8412310705334756"><ele>234.20000000000002</ele><time>2026-04-09T10:03:17Z</time></trkpt><trkpt lat="44.15890600295066" lon="3.8413395250286535"><ele>233.60000000000002</ele><time>2026-04-09T10:03:18Z</time></trkpt><trkpt lat="44.15894446521086" lon="3.841421407262645"><ele>233.0</ele><time>2026-04-09T10:03:19Z</time></trkpt><trkpt lat="44.15898904545882" lon="3.841492825464084"><ele>233.0</ele><time>2026-04-09T10:03:21Z</time></trkpt><trkpt lat="44.15893361843028" lon="3.841538130159163"><ele>233.0</ele><time>2026-04-09T10:03:26.999Z</time></trkpt><trkpt lat="44.1589167591677" lon="3.841426174075814"><ele>233.0</ele><time>2026-04-09T10:03:30.999Z</time></trkpt><trkpt lat="44.15875289378546" lon="3.841154825901033"><ele>233.0</ele><time>2026-04-09T10:03:32.999Z</time></trkpt><trkpt lat="44.15870412816738" lon="3.841039079906999"><ele>233.60000000000002</ele><time>2026-04-09T10:03:33.999Z</time></trkpt><trkpt lat="44.15864955776787" lon="3.8409151479710912"><ele>234.20000000000002</ele><time>2026-04-09T10:03:34.999Z</time></trkpt><trkpt lat="44.15858608377592" lon="3.8407892550034877"><ele>234.8</ele><time>2026-04-09T10:03:35.999Z</time></trkpt><trkpt lat="44.158501630741135" lon="3.8406799117440995"><ele>235.4</ele><time>2026-04-09T10:03:36.999Z</time></trkpt><trkpt lat="44.15840255790323" lon="3.8405909720258"><ele>236.0</ele><time>2026-04-09T10:03:37.999Z</time></trkpt><trkpt lat="44.15829301877426" lon="3.840523961219643"><ele>235.0</ele><time>2026-04-09T10:03:38.999Z</time></trkpt><trkpt lat="44.15817596072104" lon="3.840487375320639"><ele>234.0</ele><time>2026-04-09T10:03:39.999Z</time></trkpt><trkpt lat="44.158054768495454" lon="3.840488968659846"><ele>233.0</ele><time>2026-04-09T10:03:40.999Z</time></trkpt><trkpt lat="44.157933328815076" lon="3.8404982216626986"><ele>232.0</ele><time>2026-04-09T10:03:41.999Z</time></trkpt><trkpt lat="44.15781248819649" lon="3.8405063802234034"><ele>232.0</ele><time>2026-04-09T10:03:42.999Z</time></trkpt><trkpt lat="44.15769395161933" lon="3.840512313183832"><ele>232.0</ele><time>2026-04-09T10:03:43.999Z</time></trkpt><trkpt lat="44.157577912682996" lon="3.8405253936109975"><ele>232.0</ele><time>2026-04-09T10:03:44.999Z</time></trkpt><trkpt lat="44.157465509442375" lon="3.8405436250860197"><ele>232.0</ele><time>2026-04-09T10:03:45.999Z</time></trkpt><trkpt lat="44.157359576019495" lon="3.840565517327939"><ele>232.33333333333331</ele><time>2026-04-09T10:03:46.999Z</time></trkpt><trkpt lat="44.15726791568202" lon="3.8405716238297667"><ele>232.66666666666666</ele><time>2026-04-09T10:03:47.999Z</time></trkpt><trkpt lat="44.157192335682225" lon="3.8405742173076924"><ele>233.0</ele><time>2026-04-09T10:03:48.999Z</time></trkpt><trkpt lat="44.15708552894898" lon="3.8405732098263146"><ele>233.33333333333331</ele><time>2026-04-09T10:03:50.999Z</time></trkpt><trkpt lat="44.1570012867809" lon="3.840572439474204"><ele>233.66666666666666</ele><time>2026-04-09T10:03:52.999Z</time></trkpt><trkpt lat="44.15691318665046" lon="3.8405588630118284"><ele>234.0</ele><time>2026-04-09T10:03:54.999Z</time></trkpt><trkpt lat="44.156830738763965" lon="3.840564501852016"><ele>234.0</ele><time>2026-04-09T10:03:56.999Z</time></trkpt><trkpt lat="44.15680180018563" lon="3.8407088058921373"><ele>233.99999999999997</ele><time>2026-04-09T10:03:58.999Z</time></trkpt><trkpt lat="44.156798177978" lon="3.8408312440074734"><ele>233.99999999999997</ele><time>2026-04-09T10:04:00.999Z</time></trkpt><trkpt lat="44.15678443902723" lon="3.8409935838892073"><ele>234.0</ele><time>2026-04-09T10:04:02.999Z</time></trkpt><trkpt lat="44.15678526933116" lon="3.8410920890227933"><ele>234.0</ele><time>2026-04-09T10:04:03.999Z</time></trkpt><trkpt lat="44.1567994382254" lon="3.841197863918633"><ele>236.2</ele><time>2026-04-09T10:04:04.999Z</time></trkpt><trkpt lat="44.15683234117093" lon="3.841307019042438"><ele>238.39999999999998</ele><time>2026-04-09T10:04:05.999Z</time></trkpt><trkpt lat="44.15686748983604" lon="3.8414202658220153"><ele>240.6</ele><time>2026-04-09T10:04:06.999Z</time></trkpt><trkpt lat="44.15691118246611" lon="3.841547298417053"><ele>242.8</ele><time>2026-04-09T10:04:07.999Z</time></trkpt><trkpt lat="44.156962330227564" lon="3.84169225230212"><ele>245.0</ele><time>2026-04-09T10:04:08.999Z</time></trkpt><trkpt lat="44.15701870855125" lon="3.8418432790715276"><ele>250.0</ele><time>2026-04-09T10:04:09.999Z</time></trkpt><trkpt lat="44.15707655280777" lon="3.8420017547085106"><ele>255.0</ele><time>2026-04-09T10:04:10.999Z</time></trkpt><trkpt lat="44.15713423113313" lon="3.8421607688728145"><ele>260.0</ele><time>2026-04-09T10:04:11.999Z</time></trkpt><trkpt lat="44.157194094004694" lon="3.842322879970683"><ele>265.0</ele><time>2026-04-09T10:04:12.999Z</time></trkpt><trkpt lat="44.15725520288787" lon="3.8424867602498183"><ele>268.25</ele><time>2026-04-09T10:04:13.999Z</time></trkpt><trkpt lat="44.15731749836839" lon="3.842650802466544"><ele>271.5</ele><time>2026-04-09T10:04:14.999Z</time></trkpt><trkpt lat="44.1573771981493" lon="3.842809630861332"><ele>274.75</ele><time>2026-04-09T10:04:15.999Z</time></trkpt><trkpt lat="44.15743380878622" lon="3.842963767486279"><ele>278.0</ele><time>2026-04-09T10:04:16.999Z</time></trkpt><trkpt lat="44.1574886280286" lon="3.8431127476244775"><ele>272.5</ele><time>2026-04-09T10:04:17.999Z</time></trkpt><trkpt lat="44.15754177888055" lon="3.8432570212399715"><ele>267.0</ele><time>2026-04-09T10:04:18.999Z</time></trkpt><trkpt lat="44.15759366270775" lon="3.843396952821898"><ele>261.5</ele><time>2026-04-09T10:04:19.999Z</time></trkpt><trkpt lat="44.15764595393544" lon="3.843534817923835"><ele>256.0</ele><time>2026-04-09T10:04:21Z</time></trkpt><trkpt lat="44.157696380290844" lon="3.843670620502268"><ele>256.0</ele><time>2026-04-09T10:04:22Z</time></trkpt><trkpt lat="44.15774399691927" lon="3.843804882645245"><ele>256.0</ele><time>2026-04-09T10:04:23Z</time></trkpt><trkpt lat="44.157786653509376" lon="3.843938636306309"><ele>256.0</ele><time>2026-04-09T10:04:24Z</time></trkpt><trkpt lat="44.157827041635905" lon="3.844070890749717"><ele>256.0</ele><time>2026-04-09T10:04:25Z</time></trkpt><trkpt lat="44.15786949810056" lon="3.844197561151836"><ele>256.0</ele><time>2026-04-09T10:04:26Z</time></trkpt><trkpt lat="44.15791136988901" lon="3.8443216260958546"><ele>253.20000000000002</ele><time>2026-04-09T10:04:27Z</time></trkpt><trkpt lat="44.157947709523214" lon="3.8444459024493667"><ele>250.40000000000003</ele><time>2026-04-09T10:04:28Z</time></trkpt><trkpt lat="44.15796382060581" lon="3.8445745834069665"><ele>247.6</ele><time>2026-04-09T10:04:29Z</time></trkpt><trkpt lat="44.15795303233271" lon="3.8447007688117245"><ele>244.8</ele><time>2026-04-09T10:04:30Z</time></trkpt><trkpt lat="44.157911111503964" lon="3.8448225815495514"><ele>242.0</ele><time>2026-04-09T10:04:31Z</time></trkpt><trkpt lat="44.15784702725112" lon="3.8448879459587464"><ele>242.0</ele><time>2026-04-09T10:04:32Z</time></trkpt><trkpt lat="44.15776918188267" lon="3.844940403435687"><ele>242.0</ele><time>2026-04-09T10:04:33Z</time></trkpt><trkpt lat="44.157682717501" lon="3.844967975585716"><ele>242.0</ele><time>2026-04-09T10:04:34Z</time></trkpt><trkpt lat="44.157590940539656" lon="3.844967935898465"><ele>242.0</ele><time>2026-04-09T10:04:35Z</time></trkpt><trkpt lat="44.15749641487716" lon="3.844958089259928"><ele>242.0</ele><time>2026-04-09T10:04:36Z</time></trkpt><trkpt lat="44.15740147154106" lon="3.844936914612243"><ele>242.5</ele><time>2026-04-09T10:04:37Z</time></trkpt><trkpt lat="44.1572985456328" lon="3.844903144207075"><ele>243.0</ele><time>2026-04-09T10:04:38Z</time></trkpt><trkpt lat="44.157188804164974" lon="3.844864706111827"><ele>243.5</ele><time>2026-04-09T10:04:39Z</time></trkpt><trkpt lat="44.15707349632897" lon="3.844829415717809"><ele>244.0</ele><time>2026-04-09T10:04:40Z</time></trkpt><trkpt lat="44.15695318183841" lon="3.844812603526941"><ele>244.0</ele><time>2026-04-09T10:04:41Z</time></trkpt><trkpt lat="44.15682795695797" lon="3.8448244712315796"><ele>244.0</ele><time>2026-04-09T10:04:42Z</time></trkpt><trkpt lat="44.156701745544645" lon="3.844836467258817"><ele>244.0</ele><time>2026-04-09T10:04:43Z</time></trkpt><trkpt lat="44.15657151877721" lon="3.8448369488250633"><ele>244.0</ele><time>2026-04-09T10:04:44Z</time></trkpt><trkpt lat="44.15644108067339" lon="3.8448107735697707"><ele>244.0</ele><time>2026-04-09T10:04:45Z</time></trkpt><trkpt lat="44.15630913830656" lon="3.844830724584591"><ele>244.0</ele><time>2026-04-09T10:04:46Z</time></trkpt><trkpt lat="44.156176207183556" lon="3.8448307251638028"><ele>244.0</ele><time>2026-04-09T10:04:47Z</time></trkpt><trkpt lat="44.15604363015453" lon="3.844838061730499"><ele>244.0</ele><time>2026-04-09T10:04:48Z</time></trkpt><trkpt lat="44.15591389807636" lon="3.844846595518592"><ele>244.0</ele><time>2026-04-09T10:04:49Z</time></trkpt><trkpt lat="44.15578450226031" lon="3.844854979912761"><ele>244.0</ele><time>2026-04-09T10:04:50Z</time></trkpt><trkpt lat="44.15565666493364" lon="3.844861075728755"><ele>244.0</ele><time>2026-04-09T10:04:51Z</time></trkpt><trkpt lat="44.15552944785015" lon="3.8448647889652263"><ele>244.0</ele><time>2026-04-09T10:04:52Z</time></trkpt><trkpt lat="44.155404152061706" lon="3.8448687423894286"><ele>244.0</ele><time>2026-04-09T10:04:53Z</time></trkpt><trkpt lat="44.155279427304464" lon="3.844890326486341"><ele>244.0</ele><time>2026-04-09T10:04:54Z</time></trkpt><trkpt lat="44.15515807340295" lon="3.8449320686731"><ele>244.0</ele><time>2026-04-09T10:04:55Z</time></trkpt><trkpt lat="44.155038690686" lon="3.844989695249233"><ele>244.0</ele><time>2026-04-09T10:04:56Z</time></trkpt><trkpt lat="44.1549207798122" lon="3.84505352611953"><ele>246.5</ele><time>2026-04-09T10:04:57Z</time></trkpt><trkpt lat="44.15480552757792" lon="3.845124047821016"><ele>249.0</ele><time>2026-04-09T10:04:58Z</time></trkpt><trkpt lat="44.15469635991018" lon="3.845205470921832"><ele>251.5</ele><time>2026-04-09T10:04:59Z</time></trkpt><trkpt lat="44.15459049718021" lon="3.845289755013969"><ele>254.0</ele><time>2026-04-09T10:05:00Z</time></trkpt><trkpt lat="44.15449056912342" lon="3.8453802563687405"><ele>249.79999999999998</ele><time>2026-04-09T10:05:01Z</time></trkpt><trkpt lat="44.15439603390557" lon="3.845473390640004"><ele>245.59999999999997</ele><time>2026-04-09T10:05:02Z</time></trkpt><trkpt lat="44.15430232483683" lon="3.8455321519230194"><ele>241.4</ele><time>2026-04-09T10:05:03Z</time></trkpt><trkpt lat="44.15419963154623" lon="3.845545984756065"><ele>237.2</ele><time>2026-04-09T10:05:04Z</time></trkpt><trkpt lat="44.1541006969625" lon="3.8455277385975704"><ele>233.0</ele><time>2026-04-09T10:05:05Z</time></trkpt><trkpt lat="44.15401996237435" lon="3.845438743824928"><ele>231.60000000000002</ele><time>2026-04-09T10:05:06Z</time></trkpt><trkpt lat="44.153927764991096" lon="3.8453740540176438"><ele>230.20000000000002</ele><time>2026-04-09T10:05:07Z</time></trkpt><trkpt lat="44.15384400726355" lon="3.8452893822406775"><ele>228.8</ele><time>2026-04-09T10:05:08Z</time></trkpt><trkpt lat="44.153753335457814" lon="3.8452150025330307"><ele>227.4</ele><time>2026-04-09T10:05:09Z</time></trkpt><trkpt lat="44.153655382210914" lon="3.845157431666912"><ele>226.0</ele><time>2026-04-09T10:05:10Z</time></trkpt><trkpt lat="44.15355249430304" lon="3.845113309435444"><ele>231.20000000000002</ele><time>2026-04-09T10:05:11Z</time></trkpt><trkpt lat="44.15344733403231" lon="3.8450826972771988"><ele>236.40000000000003</ele><time>2026-04-09T10:05:12Z</time></trkpt><trkpt lat="44.15334331664445" lon="3.845064762095068"><ele>241.6</ele><time>2026-04-09T10:05:13Z</time></trkpt><trkpt lat="44.153242818441846" lon="3.845057817621957"><ele>246.8</ele><time>2026-04-09T10:05:14Z</time></trkpt><trkpt lat="44.153148448531695" lon="3.845083076430406"><ele>252.0</ele><time>2026-04-09T10:05:15Z</time></trkpt><trkpt lat="44.153062465597515" lon="3.8451501636408385"><ele>253.39999999999998</ele><time>2026-04-09T10:05:16Z</time></trkpt><trkpt lat="44.153003999540914" lon="3.845264785049037"><ele>254.79999999999998</ele><time>2026-04-09T10:05:17Z</time></trkpt><trkpt lat="44.15294017745366" lon="3.8453741378902664"><ele>256.2</ele><time>2026-04-09T10:05:18Z</time></trkpt><trkpt lat="44.152861127747336" lon="3.845462028710358"><ele>257.59999999999997</ele><time>2026-04-09T10:05:19Z</time></trkpt><trkpt lat="44.1527734461938" lon="3.8455319260646914"><ele>259.0</ele><time>2026-04-09T10:05:20Z</time></trkpt><trkpt lat="44.152686094376925" lon="3.8456034354516855"><ele>259.0</ele><time>2026-04-09T10:05:21Z</time></trkpt><trkpt lat="44.152609320089965" lon="3.84569608285711"><ele>259.0</ele><time>2026-04-09T10:05:22Z</time></trkpt><trkpt lat="44.15255563604588" lon="3.8458180453115105"><ele>259.0</ele><time>2026-04-09T10:05:23Z</time></trkpt><trkpt lat="44.152520278640935" lon="3.845956951764495"><ele>259.0</ele><time>2026-04-09T10:05:24Z</time></trkpt><trkpt lat="44.15248207853676" lon="3.846096125935937"><ele>259.0</ele><time>2026-04-09T10:05:25Z</time></trkpt><trkpt lat="44.15244464075699" lon="3.8462414555837325"><ele>259.25</ele><time>2026-04-09T10:05:26Z</time></trkpt><trkpt lat="44.15240904905955" lon="3.846394486847821"><ele>259.5</ele><time>2026-04-09T10:05:27Z</time></trkpt><trkpt lat="44.15236878323815" lon="3.846549419562746"><ele>259.75</ele><time>2026-04-09T10:05:28Z</time></trkpt><trkpt lat="44.15232166888333" lon="3.8467033095781877"><ele>260.0</ele><time>2026-04-09T10:05:29Z</time></trkpt><trkpt lat="44.15227078228303" lon="3.846857054038178"><ele>260.0</ele><time>2026-04-09T10:05:30Z</time></trkpt><trkpt lat="44.15223276118548" lon="3.8470207399652354"><ele>260.0</ele><time>2026-04-09T10:05:31Z</time></trkpt><trkpt lat="44.152216168687424" lon="3.847194013573151"><ele>260.0</ele><time>2026-04-09T10:05:31.999Z</time></trkpt><trkpt lat="44.15220882383129" lon="3.8473692080270037"><ele>260.0</ele><time>2026-04-09T10:05:32.999Z</time></trkpt><trkpt lat="44.15219427363596" lon="3.8475438934208066"><ele>253.75</ele><time>2026-04-09T10:05:33.999Z</time></trkpt><trkpt lat="44.15216635004489" lon="3.8477150873591133"><ele>247.5</ele><time>2026-04-09T10:05:34.999Z</time></trkpt><trkpt lat="44.152121620389835" lon="3.8478782723096954"><ele>241.25</ele><time>2026-04-09T10:05:35.999Z</time></trkpt><trkpt lat="44.152061544411055" lon="3.8480305993349"><ele>235.0</ele><time>2026-04-09T10:05:36.999Z</time></trkpt><trkpt lat="44.15197845132043" lon="3.848159190837194"><ele>235.0</ele><time>2026-04-09T10:05:37.999Z</time></trkpt><trkpt lat="44.15186617428294" lon="3.8482313611518255"><ele>235.0</ele><time>2026-04-09T10:05:38.999Z</time></trkpt><trkpt lat="44.15175129385047" lon="3.848295689645052"><ele>235.0</ele><time>2026-04-09T10:05:39.999Z</time></trkpt><trkpt lat="44.151627745071856" lon="3.848313571457251"><ele>235.0</ele><time>2026-04-09T10:05:40.999Z</time></trkpt><trkpt lat="44.15150376869599" lon="3.8483000679361266"><ele>235.0</ele><time>2026-04-09T10:05:41.999Z</time></trkpt><trkpt lat="44.151387957664824" lon="3.848244256181819"><ele>235.0</ele><time>2026-04-09T10:05:42.999Z</time></trkpt><trkpt lat="44.15129222501057" lon="3.848183430471554"><ele>235.0</ele><time>2026-04-09T10:05:43.999Z</time></trkpt><trkpt lat="44.15118887706528" lon="3.8481536746722167"><ele>235.0</ele><time>2026-04-09T10:05:44.999Z</time></trkpt><trkpt lat="44.15108114097108" lon="3.848228471477574"><ele>235.0</ele><time>2026-04-09T10:05:45.999Z</time></trkpt><trkpt lat="44.15096759466094" lon="3.848298916196394"><ele>235.0</ele><time>2026-04-09T10:05:46.999Z</time></trkpt><trkpt lat="44.15083971705785" lon="3.848321284968141"><ele>235.0</ele><time>2026-04-09T10:05:47.999Z</time></trkpt><trkpt lat="44.15070705401755" lon="3.848325732121452"><ele>235.0</ele><time>2026-04-09T10:05:48.999Z</time></trkpt><trkpt lat="44.15057457397658" lon="3.8483604194799965"><ele>235.0</ele><time>2026-04-09T10:05:49.999Z</time></trkpt><trkpt lat="44.150443285125554" lon="3.84842335795396"><ele>235.0</ele><time>2026-04-09T10:05:50.999Z</time></trkpt><trkpt lat="44.150318669748096" lon="3.8484983319695885"><ele>235.0</ele><time>2026-04-09T10:05:51.999Z</time></trkpt><trkpt lat="44.150197608500534" lon="3.848557121149504"><ele>235.0</ele><time>2026-04-09T10:05:52.999Z</time></trkpt><trkpt lat="44.15008270323311" lon="3.84861305021738"><ele>235.0</ele><time>2026-04-09T10:05:53.999Z</time></trkpt><trkpt lat="44.14998222027526" lon="3.84870063491947"><ele>235.0</ele><time>2026-04-09T10:05:54.999Z</time></trkpt><trkpt lat="44.14989603701874" lon="3.8488171412657404"><ele>235.0</ele><time>2026-04-09T10:05:55.999Z</time></trkpt><trkpt lat="44.149816936272245" lon="3.8489467437654405"><ele>235.0</ele><time>2026-04-09T10:05:56.999Z</time></trkpt><trkpt lat="44.14974152829823" lon="3.8490776729239373"><ele>243.0</ele><time>2026-04-09T10:05:57.999Z</time></trkpt><trkpt lat="44.149662020009465" lon="3.8491965139528297"><ele>251.0</ele><time>2026-04-09T10:05:58.999Z</time></trkpt><trkpt lat="44.14958514251489" lon="3.849308467870967"><ele>259.0</ele><time>2026-04-09T10:05:59.999Z</time></trkpt><trkpt lat="44.14953068616734" lon="3.849435433104806"><ele>267.0</ele><time>2026-04-09T10:06:00.999Z</time></trkpt><trkpt lat="44.149511878433024" lon="3.8495889534367644"><ele>275.0</ele><time>2026-04-09T10:06:01.999Z</time></trkpt><trkpt lat="44.149514506789274" lon="3.8497591687385833"><ele>275.0</ele><time>2026-04-09T10:06:02.999Z</time></trkpt><trkpt lat="44.1495185223955" lon="3.8499340293393867"><ele>275.0</ele><time>2026-04-09T10:06:03.999Z</time></trkpt><trkpt lat="44.149519004247544" lon="3.8501018987932145"><ele>275.0</ele><time>2026-04-09T10:06:04.999Z</time></trkpt><trkpt lat="44.14951928310091" lon="3.8502582673828636"><ele>275.0</ele><time>2026-04-09T10:06:05.999Z</time></trkpt><trkpt lat="44.14955137682716" lon="3.8504001396715206"><ele>275.6</ele><time>2026-04-09T10:06:06.999Z</time></trkpt><trkpt lat="44.149612141544175" lon="3.8505158211321517"><ele>276.2</ele><time>2026-04-09T10:06:07.999Z</time></trkpt><trkpt lat="44.14968096261252" lon="3.850613380294993"><ele>276.8</ele><time>2026-04-09T10:06:08.999Z</time></trkpt><trkpt lat="44.14972273838709" lon="3.8507359229877296"><ele>277.4</ele><time>2026-04-09T10:06:09.999Z</time></trkpt><trkpt lat="44.149741535899736" lon="3.850874213222262"><ele>278.0</ele><time>2026-04-09T10:06:10.999Z</time></trkpt><trkpt lat="44.14975035676674" lon="3.8510164554326662"><ele>280.8</ele><time>2026-04-09T10:06:11.999Z</time></trkpt><trkpt lat="44.14977512574898" lon="3.85115539890359"><ele>283.6</ele><time>2026-04-09T10:06:12.999Z</time></trkpt><trkpt lat="44.14982674128679" lon="3.8512878384569826"><ele>286.4</ele><time>2026-04-09T10:06:13.999Z</time></trkpt><trkpt lat="44.149889271164575" lon="3.851415271169402"><ele>289.2</ele><time>2026-04-09T10:06:14.999Z</time></trkpt><trkpt lat="44.14996269924771" lon="3.85154307148127"><ele>292.0</ele><time>2026-04-09T10:06:15.999Z</time></trkpt><trkpt lat="44.15004024634971" lon="3.851670742274513"><ele>287.75</ele><time>2026-04-09T10:06:16.999Z</time></trkpt><trkpt lat="44.15012259804944" lon="3.8517955825336117"><ele>283.5</ele><time>2026-04-09T10:06:17.999Z</time></trkpt><trkpt lat="44.150210299168144" lon="3.85191850332851"><ele>279.25</ele><time>2026-04-09T10:06:18.999Z</time></trkpt><trkpt lat="44.15030546282629" lon="3.8520337412286336"><ele>275.0</ele><time>2026-04-09T10:06:19.999Z</time></trkpt><trkpt lat="44.15041078901088" lon="3.8521305271720045"><ele>275.0</ele><time>2026-04-09T10:06:20.999Z</time></trkpt><trkpt lat="44.150522450103786" lon="3.8522171266938336"><ele>275.0</ele><time>2026-04-09T10:06:21.999Z</time></trkpt><trkpt lat="44.15063378825749" lon="3.852304817801434"><ele>275.0</ele><time>2026-04-09T10:06:22.999Z</time></trkpt><trkpt lat="44.15074392746545" lon="3.8523913498570517"><ele>275.0</ele><time>2026-04-09T10:06:23.999Z</time></trkpt><trkpt lat="44.1508527508949" lon="3.852475849509287"><ele>268.5</ele><time>2026-04-09T10:06:24.999Z</time></trkpt><trkpt lat="44.150957106411965" lon="3.8525613586425105"><ele>262.0</ele><time>2026-04-09T10:06:25.999Z</time></trkpt><trkpt lat="44.15106124816049" lon="3.8526475504313202"><ele>255.5</ele><time>2026-04-09T10:06:27Z</time></trkpt><trkpt lat="44.15116756543038" lon="3.8527292675291114"><ele>249.0</ele><time>2026-04-09T10:06:28Z</time></trkpt><trkpt lat="44.15128212744471" lon="3.8527823602750764"><ele>249.0</ele><time>2026-04-09T10:06:29Z</time></trkpt><trkpt lat="44.151398539890614" lon="3.852815166340514"><ele>248.99999999999997</ele><time>2026-04-09T10:06:30Z</time></trkpt><trkpt lat="44.15151042286664" lon="3.8528624912885787"><ele>248.99999999999997</ele><time>2026-04-09T10:06:31Z</time></trkpt><trkpt lat="44.151607312771645" lon="3.852931005914351"><ele>249.0</ele><time>2026-04-09T10:06:32Z</time></trkpt><trkpt lat="44.15168374629988" lon="3.8530196133052703"><ele>249.0</ele><time>2026-04-09T10:06:33Z</time></trkpt><trkpt lat="44.15172670742729" lon="3.8531183768216857"><ele>249.0</ele><time>2026-04-09T10:06:34Z</time></trkpt><trkpt lat="44.151732724855584" lon="3.8532259581808512"><ele>249.0</ele><time>2026-04-09T10:06:35Z</time></trkpt><trkpt lat="44.151698839673145" lon="3.8533186092246177"><ele>249.0</ele><time>2026-04-09T10:06:36Z</time></trkpt><trkpt lat="44.15163566909875" lon="3.8533741909584323"><ele>249.0</ele><time>2026-04-09T10:06:37Z</time></trkpt><trkpt lat="44.15155892410664" lon="3.853375643356892"><ele>249.0</ele><time>2026-04-09T10:06:38Z</time></trkpt><trkpt lat="44.151477347003976" lon="3.853388709808811"><ele>249.0</ele><time>2026-04-09T10:06:39Z</time></trkpt><trkpt lat="44.15138589932511" lon="3.853362796727747"><ele>249.0</ele><time>2026-04-09T10:06:40Z</time></trkpt><trkpt lat="44.15128510979513" lon="3.8533296966919934"><ele>249.0</ele><time>2026-04-09T10:06:41Z</time></trkpt><trkpt lat="44.15117251873185" lon="3.853297876720374"><ele>249.0</ele><time>2026-04-09T10:06:42Z</time></trkpt><trkpt lat="44.15105058106629" lon="3.8532797431485273"><ele>249.0</ele><time>2026-04-09T10:06:43Z</time></trkpt><trkpt lat="44.15092137241321" lon="3.853279568358166"><ele>249.0</ele><time>2026-04-09T10:06:44Z</time></trkpt><trkpt lat="44.15078772915118" lon="3.853292726370083"><ele>249.0</ele><time>2026-04-09T10:06:45Z</time></trkpt><trkpt lat="44.1506524546916" lon="3.8533002561845193"><ele>249.0</ele><time>2026-04-09T10:06:46Z</time></trkpt><trkpt lat="44.150516643076095" lon="3.8533247088548546"><ele>249.0</ele><time>2026-04-09T10:06:47Z</time></trkpt><trkpt lat="44.15038275913182" lon="3.853364578633954"><ele>244.25</ele><time>2026-04-09T10:06:48Z</time></trkpt><trkpt lat="44.150249596131104" lon="3.853403997772897"><ele>239.5</ele><time>2026-04-09T10:06:49Z</time></trkpt><trkpt lat="44.15011980585006" lon="3.8534282979738785"><ele>234.75</ele><time>2026-04-09T10:06:50Z</time></trkpt><trkpt lat="44.14999824292581" lon="3.853451926829837"><ele>230.0</ele><time>2026-04-09T10:06:51Z</time></trkpt><trkpt lat="44.14988552131759" lon="3.853512549801957"><ele>241.5</ele><time>2026-04-09T10:06:52Z</time></trkpt><trkpt lat="44.149784611269155" lon="3.8536053652686544"><ele>253.0</ele><time>2026-04-09T10:06:53Z</time></trkpt><trkpt lat="44.149700815628094" lon="3.8537351799844206"><ele>264.5</ele><time>2026-04-09T10:06:54Z</time></trkpt><trkpt lat="44.14963056886318" lon="3.8538869622243173"><ele>276.0</ele><time>2026-04-09T10:06:55Z</time></trkpt><trkpt lat="44.1495620458946" lon="3.8540457399116472"><ele>276.0</ele><time>2026-04-09T10:06:56Z</time></trkpt><trkpt lat="44.14949394449661" lon="3.854206321580815"><ele>276.0</ele><time>2026-04-09T10:06:57Z</time></trkpt><trkpt lat="44.14942097998386" lon="3.8543605298029195"><ele>276.0</ele><time>2026-04-09T10:06:58Z</time></trkpt><trkpt lat="44.149354470054185" lon="3.854517747544795"><ele>276.0</ele><time>2026-04-09T10:06:59Z</time></trkpt><trkpt lat="44.14931501254258" lon="3.854695170135663"><ele>273.5</ele><time>2026-04-09T10:07:00Z</time></trkpt><trkpt lat="44.149303522627164" lon="3.854882198828964"><ele>271.0</ele><time>2026-04-09T10:07:01Z</time></trkpt><trkpt lat="44.149306006282494" lon="3.8550694983261242"><ele>268.5</ele><time>2026-04-09T10:07:02Z</time></trkpt><trkpt lat="44.149303822092214" lon="3.855251993487874"><ele>266.0</ele><time>2026-04-09T10:07:03Z</time></trkpt><trkpt lat="44.149304694909056" lon="3.855432846982283"><ele>266.0</ele><time>2026-04-09T10:07:04Z</time></trkpt><trkpt lat="44.149333585792945" lon="3.8556109598319033"><ele>266.0</ele><time>2026-04-09T10:07:05Z</time></trkpt><trkpt lat="44.149388238050626" lon="3.8557815724138025"><ele>266.0</ele><time>2026-04-09T10:07:06Z</time></trkpt><trkpt lat="44.149454853707645" lon="3.85594518482733"><ele>266.0</ele><time>2026-04-09T10:07:07Z</time></trkpt><trkpt lat="44.14952166201789" lon="3.8561051787339995"><ele>266.25</ele><time>2026-04-09T10:07:08Z</time></trkpt><trkpt lat="44.14958348274526" lon="3.8562623034967487"><ele>266.5</ele><time>2026-04-09T10:07:09Z</time></trkpt><trkpt lat="44.14962544304189" lon="3.85643041667659"><ele>266.75</ele><time>2026-04-09T10:07:10Z</time></trkpt><trkpt lat="44.1496423960728" lon="3.8566090194174363"><ele>267.0</ele><time>2026-04-09T10:07:11Z</time></trkpt><trkpt lat="44.14964322122787" lon="3.856790708021274"><ele>264.75</ele><time>2026-04-09T10:07:12Z</time></trkpt><trkpt lat="44.1496400920649" lon="3.8569726736287353"><ele>262.5</ele><time>2026-04-09T10:07:13Z</time></trkpt><trkpt lat="44.14963927517952" lon="3.8571522968174223"><ele>260.25</ele><time>2026-04-09T10:07:14Z</time></trkpt><trkpt lat="44.14963812919279" lon="3.8573305522933317"><ele>258.0</ele><time>2026-04-09T10:07:15Z</time></trkpt><trkpt lat="44.149629931715374" lon="3.857497867139875"><ele>251.25</ele><time>2026-04-09T10:07:16Z</time></trkpt><trkpt lat="44.14959212357737" lon="3.8576579273537726"><ele>244.5</ele><time>2026-04-09T10:07:17Z</time></trkpt><trkpt lat="44.149528121540094" lon="3.8578027607072336"><ele>237.75</ele><time>2026-04-09T10:07:18Z</time></trkpt><trkpt lat="44.14943583377491" lon="3.8579159615965284"><ele>231.0</ele><time>2026-04-09T10:07:19Z</time></trkpt><trkpt lat="44.14932842191576" lon="3.8580009371157127"><ele>231.0</ele><time>2026-04-09T10:07:20Z</time></trkpt><trkpt lat="44.14921197212111" lon="3.858074907187618"><ele>231.0</ele><time>2026-04-09T10:07:21Z</time></trkpt><trkpt lat="44.14908884488889" lon="3.858136740106404"><ele>231.0</ele><time>2026-04-09T10:07:22Z</time></trkpt><trkpt lat="44.148961291624374" lon="3.858194757639589"><ele>231.0</ele><time>2026-04-09T10:07:23Z</time></trkpt><trkpt lat="44.14883039310502" lon="3.858254941582468"><ele>228.0</ele><time>2026-04-09T10:07:24Z</time></trkpt><trkpt lat="44.14869651264937" lon="3.8583160496924345"><ele>225.0</ele><time>2026-04-09T10:07:25Z</time></trkpt><trkpt lat="44.14856290555174" lon="3.858384424558852"><ele>222.0</ele><time>2026-04-09T10:07:26Z</time></trkpt><trkpt lat="44.14843224480934" lon="3.858460912823071"><ele>219.0</ele><time>2026-04-09T10:07:27Z</time></trkpt><trkpt lat="44.148308399772766" lon="3.8585562638908506"><ele>219.25</ele><time>2026-04-09T10:07:28Z</time></trkpt><trkpt lat="44.14819350147745" lon="3.858657016748893"><ele>219.5</ele><time>2026-04-09T10:07:29Z</time></trkpt><trkpt lat="44.148075922028966" lon="3.858715545938266"><ele>219.75</ele><time>2026-04-09T10:07:30Z</time></trkpt><trkpt lat="44.14794551515411" lon="3.8586876303117377"><ele>220.0</ele><time>2026-04-09T10:07:31Z</time></trkpt><trkpt lat="44.1478131841022" lon="3.858670498032938"><ele>220.0</ele><time>2026-04-09T10:07:32Z</time></trkpt><trkpt lat="44.147685848510704" lon="3.858637665340587"><ele>220.0</ele><time>2026-04-09T10:07:33Z</time></trkpt><trkpt lat="44.147565279599135" lon="3.858620369973033"><ele>220.0</ele><time>2026-04-09T10:07:34Z</time></trkpt><trkpt lat="44.14743886904465" lon="3.8586006368534713"><ele>220.0</ele><time>2026-04-09T10:07:35Z</time></trkpt><trkpt lat="44.147306767556486" lon="3.858586104605575"><ele>219.75</ele><time>2026-04-09T10:07:36Z</time></trkpt><trkpt lat="44.14717901785154" lon="3.8585785277036293"><ele>219.5</ele><time>2026-04-09T10:07:37Z</time></trkpt><trkpt lat="44.14705111853028" lon="3.858572616703769"><ele>219.25</ele><time>2026-04-09T10:07:38Z</time></trkpt><trkpt lat="44.1469254688824" lon="3.8585661899852806"><ele>219.0</ele><time>2026-04-09T10:07:39Z</time></trkpt><trkpt lat="44.14679970643402" lon="3.858554057587444"><ele>219.0</ele><time>2026-04-09T10:07:40Z</time></trkpt><trkpt lat="44.14667718424226" lon="3.8585399000870195"><ele>219.0</ele><time>2026-04-09T10:07:41Z</time></trkpt><trkpt lat="44.146558045047975" lon="3.8585183422085683"><ele>219.0</ele><time>2026-04-09T10:07:42Z</time></trkpt><trkpt lat="44.14643983611788" lon="3.8584875934255662"><ele>219.0</ele><time>2026-04-09T10:07:43Z</time></trkpt><trkpt lat="44.14632748514479" lon="3.8584418632745368"><ele>221.0</ele><time>2026-04-09T10:07:44Z</time></trkpt><trkpt lat="44.146212674063605" lon="3.8583920152360274"><ele>223.0</ele><time>2026-04-09T10:07:45Z</time></trkpt><trkpt lat="44.14610139004696" lon="3.858346756653887"><ele>225.0</ele><time>2026-04-09T10:07:46Z</time></trkpt><trkpt lat="44.14598204094317" lon="3.8582961858663243"><ele>227.0</ele><time>2026-04-09T10:07:47Z</time></trkpt><trkpt lat="44.145859704260396" lon="3.858247888278082"><ele>227.0</ele><time>2026-04-09T10:07:48Z</time></trkpt><trkpt lat="44.145740611054954" lon="3.858194391805604"><ele>227.0</ele><time>2026-04-09T10:07:49Z</time></trkpt><trkpt lat="44.14561840625848" lon="3.8581410562865464"><ele>227.0</ele><time>2026-04-09T10:07:50Z</time></trkpt><trkpt lat="44.14549371903579" lon="3.8580885132978042"><ele>227.0</ele><time>2026-04-09T10:07:51Z</time></trkpt><trkpt lat="44.14536577101684" lon="3.858029142829298"><ele>227.0</ele><time>2026-04-09T10:07:52Z</time></trkpt><trkpt lat="44.145241654484416" lon="3.8579582859167334"><ele>227.0</ele><time>2026-04-09T10:07:53Z</time></trkpt><trkpt lat="44.14511672287527" lon="3.8578863624279007"><ele>227.0</ele><time>2026-04-09T10:07:54Z</time></trkpt><trkpt lat="44.14499060805386" lon="3.857816636924959"><ele>227.0</ele><time>2026-04-09T10:07:55Z</time></trkpt><trkpt lat="44.144866142342586" lon="3.8577471861051245"><ele>227.0</ele><time>2026-04-09T10:07:56Z</time></trkpt><trkpt lat="44.144756932931045" lon="3.857670001882986"><ele>227.0</ele><time>2026-04-09T10:07:57Z</time></trkpt><trkpt lat="44.144669217376176" lon="3.857595769262046"><ele>227.0</ele><time>2026-04-09T10:07:58Z</time></trkpt><trkpt lat="44.14459276062848" lon="3.8575311237299457"><ele>227.0</ele><time>2026-04-09T10:07:59Z</time></trkpt><trkpt lat="44.14450579227507" lon="3.8575207230394013"><ele>227.0</ele><time>2026-04-09T10:08:00Z</time></trkpt><trkpt lat="44.14441599980137" lon="3.8575597040705922"><ele>227.0</ele><time>2026-04-09T10:08:01Z</time></trkpt><trkpt lat="44.14434236524475" lon="3.8576342305067532"><ele>227.0</ele><time>2026-04-09T10:08:02Z</time></trkpt><trkpt lat="44.14430311602783" lon="3.857754331958301"><ele>227.0</ele><time>2026-04-09T10:08:03Z</time></trkpt><trkpt lat="44.144264579184174" lon="3.8578840975594617"><ele>227.0</ele><time>2026-04-09T10:08:04Z</time></trkpt><trkpt lat="44.144222157833575" lon="3.858017138892491"><ele>227.0</ele><time>2026-04-09T10:08:05Z</time></trkpt><trkpt lat="44.14417654101468" lon="3.858144695146373"><ele>227.0</ele><time>2026-04-09T10:08:06Z</time></trkpt><trkpt lat="44.144103694090084" lon="3.8582692217561383"><ele>227.0</ele><time>2026-04-09T10:08:07Z</time></trkpt><trkpt lat="44.14401868070371" lon="3.8583643872117395"><ele>227.0</ele><time>2026-04-09T10:08:08Z</time></trkpt><trkpt lat="44.143928089748904" lon="3.858454293066915"><ele>227.0</ele><time>2026-04-09T10:08:09Z</time></trkpt><trkpt lat="44.143836755730696" lon="3.858539387726688"><ele>227.0</ele><time>2026-04-09T10:08:10Z</time></trkpt><trkpt lat="44.143751744257955" lon="3.858633491622524"><ele>234.5</ele><time>2026-04-09T10:08:11Z</time></trkpt><trkpt lat="44.14367895077749" lon="3.85874575839335"><ele>242.0</ele><time>2026-04-09T10:08:12Z</time></trkpt><trkpt lat="44.14362347053465" lon="3.858881015050584"><ele>249.5</ele><time>2026-04-09T10:08:13Z</time></trkpt><trkpt lat="44.14359292397974" lon="3.859028788567419"><ele>257.0</ele><time>2026-04-09T10:08:14Z</time></trkpt><trkpt lat="44.143548314398714" lon="3.8593447227976077"><ele>257.8</ele><time>2026-04-09T10:08:16Z</time></trkpt><trkpt lat="44.14353525036044" lon="3.8594970966605775"><ele>258.6</ele><time>2026-04-09T10:08:16.999Z</time></trkpt><trkpt lat="44.143538862567034" lon="3.8596500307845987"><ele>259.40000000000003</ele><time>2026-04-09T10:08:17.999Z</time></trkpt><trkpt lat="44.14355755620435" lon="3.8597996011375804"><ele>260.2</ele><time>2026-04-09T10:08:18.999Z</time></trkpt><trkpt lat="44.143597295762135" lon="3.8599467008654025"><ele>261.0</ele><time>2026-04-09T10:08:19.999Z</time></trkpt><trkpt lat="44.14363440052016" lon="3.8600884078336812"><ele>265.0</ele><time>2026-04-09T10:08:20.999Z</time></trkpt><trkpt lat="44.14368057162704" lon="3.8602261896123475"><ele>269.0</ele><time>2026-04-09T10:08:21.999Z</time></trkpt><trkpt lat="44.14372973760312" lon="3.860361339412932"><ele>273.0</ele><time>2026-04-09T10:08:22.999Z</time></trkpt><trkpt lat="44.143791046604335" lon="3.860491499297541"><ele>277.0</ele><time>2026-04-09T10:08:23.999Z</time></trkpt><trkpt lat="44.14386244035505" lon="3.8606124570787443"><ele>281.0</ele><time>2026-04-09T10:08:24.999Z</time></trkpt><trkpt lat="44.143950694803706" lon="3.8607193089465124"><ele>281.0</ele><time>2026-04-09T10:08:25.999Z</time></trkpt><trkpt lat="44.144043525251476" lon="3.860825151003685"><ele>281.0</ele><time>2026-04-09T10:08:26.999Z</time></trkpt><trkpt lat="44.14414704172217" lon="3.860925113299827"><ele>281.0</ele><time>2026-04-09T10:08:27.999Z</time></trkpt><trkpt lat="44.1442533602224" lon="3.861025591687974"><ele>281.0</ele><time>2026-04-09T10:08:28.999Z</time></trkpt><trkpt lat="44.14435984535387" lon="3.8611354572896732"><ele>276.25</ele><time>2026-04-09T10:08:29.999Z</time></trkpt><trkpt lat="44.144464233836366" lon="3.861251105569622"><ele>271.5</ele><time>2026-04-09T10:08:30.999Z</time></trkpt><trkpt lat="44.14457050474333" lon="3.8613673091746263"><ele>266.75</ele><time>2026-04-09T10:08:31.999Z</time></trkpt><trkpt lat="44.14468374551775" lon="3.8614737781143553"><ele>262.0</ele><time>2026-04-09T10:08:33Z</time></trkpt><trkpt lat="44.14479851710416" lon="3.8615778428554948"><ele>259.0</ele><time>2026-04-09T10:08:34Z</time></trkpt><trkpt lat="44.14491698221889" lon="3.8616790028934087"><ele>256.0</ele><time>2026-04-09T10:08:35Z</time></trkpt><trkpt lat="44.14503244112964" lon="3.8617739310816117"><ele>253.0</ele><time>2026-04-09T10:08:36Z</time></trkpt><trkpt lat="44.145147024379966" lon="3.861862708501631"><ele>250.0</ele><time>2026-04-09T10:08:37Z</time></trkpt><trkpt lat="44.14525930066325" lon="3.861948904695435"><ele>250.0</ele><time>2026-04-09T10:08:38Z</time></trkpt><trkpt lat="44.145361801498204" lon="3.8620449578348333"><ele>250.0</ele><time>2026-04-09T10:08:39Z</time></trkpt><trkpt lat="44.14544669065657" lon="3.8621712514314015"><ele>250.0</ele><time>2026-04-09T10:08:40Z</time></trkpt><trkpt lat="44.145507554812276" lon="3.86231816018179"><ele>250.0</ele><time>2026-04-09T10:08:41Z</time></trkpt><trkpt lat="44.14555416655013" lon="3.862470112620249"><ele>248.75</ele><time>2026-04-09T10:08:42Z</time></trkpt><trkpt lat="44.145576709413795" lon="3.8626301086109565"><ele>247.5</ele><time>2026-04-09T10:08:43Z</time></trkpt><trkpt lat="44.14557079462245" lon="3.862790822818937"><ele>246.25</ele><time>2026-04-09T10:08:44Z</time></trkpt><trkpt lat="44.145501758452696" lon="3.8629253585813808"><ele>245.0</ele><time>2026-04-09T10:08:45Z</time></trkpt><trkpt lat="44.14543152488818" lon="3.8630687189332615"><ele>245.0</ele><time>2026-04-09T10:08:46Z</time></trkpt><trkpt lat="44.1453710249565" lon="3.8632358010624963"><ele>245.0</ele><time>2026-04-09T10:08:47Z</time></trkpt><trkpt lat="44.145287279031926" lon="3.863390322552"><ele>245.0</ele><time>2026-04-09T10:08:48Z</time></trkpt><trkpt lat="44.145205344128684" lon="3.8635490214928487"><ele>245.0</ele><time>2026-04-09T10:08:49Z</time></trkpt><trkpt lat="44.1451067474235" lon="3.8636953378734944"><ele>246.5</ele><time>2026-04-09T10:08:50Z</time></trkpt><trkpt lat="44.14499139950547" lon="3.8638167840113566"><ele>248.0</ele><time>2026-04-09T10:08:51Z</time></trkpt><trkpt lat="44.14486087436908" lon="3.8639164027156627"><ele>249.5</ele><time>2026-04-09T10:08:52Z</time></trkpt><trkpt lat="44.14475190502502" lon="3.8640620718016128"><ele>251.0</ele><time>2026-04-09T10:08:53Z</time></trkpt><trkpt lat="44.14463654685313" lon="3.8641981426585144"><ele>241.66666666666669</ele><time>2026-04-09T10:08:54Z</time></trkpt><trkpt lat="44.144521271151554" lon="3.8643337092531933"><ele>232.33333333333331</ele><time>2026-04-09T10:08:55Z</time></trkpt><trkpt lat="44.14440144222536" lon="3.864459808259429"><ele>223.0</ele><time>2026-04-09T10:08:56Z</time></trkpt><trkpt lat="44.144275694747385" lon="3.8645747435803806"><ele>223.0</ele><time>2026-04-09T10:08:57Z</time></trkpt><trkpt lat="44.14414798911258" lon="3.864679995174354"><ele>223.0</ele><time>2026-04-09T10:08:58Z</time></trkpt><trkpt lat="44.14402307061423" lon="3.8647876160484858"><ele>223.0</ele><time>2026-04-09T10:08:59Z</time></trkpt><trkpt lat="44.14390295936734" lon="3.8648963403526255"><ele>223.0</ele><time>2026-04-09T10:09:00Z</time></trkpt><trkpt lat="44.143783655378044" lon="3.8649961364461536"><ele>224.75</ele><time>2026-04-09T10:09:01Z</time></trkpt><trkpt lat="44.14366025570866" lon="3.8650736070651575"><ele>226.5</ele><time>2026-04-09T10:09:02Z</time></trkpt><trkpt lat="44.143524702791574" lon="3.8650692791540147"><ele>228.25</ele><time>2026-04-09T10:09:03Z</time></trkpt><trkpt lat="44.14339468781264" lon="3.8650678593934185"><ele>230.0</ele><time>2026-04-09T10:09:04Z</time></trkpt><trkpt lat="44.14328653533372" lon="3.865051992330528"><ele>230.2</ele><time>2026-04-09T10:09:05Z</time></trkpt><trkpt lat="44.14318090833114" lon="3.8651013568122736"><ele>230.4</ele><time>2026-04-09T10:09:06Z</time></trkpt><trkpt lat="44.14309286037769" lon="3.865195214479118"><ele>230.60000000000002</ele><time>2026-04-09T10:09:07Z</time></trkpt><trkpt lat="44.14303757605192" lon="3.8653280365087173"><ele>230.8</ele><time>2026-04-09T10:09:08Z</time></trkpt><trkpt lat="44.14300521923597" lon="3.8654671937809355"><ele>231.0</ele><time>2026-04-09T10:09:09Z</time></trkpt><trkpt lat="44.142976516235926" lon="3.86559950545034"><ele>232.20000000000002</ele><time>2026-04-09T10:09:10Z</time></trkpt><trkpt lat="44.14292440620536" lon="3.8657149589879936"><ele>233.40000000000003</ele><time>2026-04-09T10:09:11Z</time></trkpt><trkpt lat="44.14286334738547" lon="3.8658222040683516"><ele>234.6</ele><time>2026-04-09T10:09:12Z</time></trkpt><trkpt lat="44.14278853290239" lon="3.865917007937162"><ele>235.8</ele><time>2026-04-09T10:09:13Z</time></trkpt><trkpt lat="44.142701719869805" lon="3.8659963232583805"><ele>237.0</ele><time>2026-04-09T10:09:14Z</time></trkpt><trkpt lat="44.14261015973796" lon="3.86607557751367"><ele>233.25</ele><time>2026-04-09T10:09:15Z</time></trkpt><trkpt lat="44.14251942918883" lon="3.8661642983670665"><ele>229.5</ele><time>2026-04-09T10:09:16Z</time></trkpt><trkpt lat="44.14243412208591" lon="3.8662685262838403"><ele>225.75</ele><time>2026-04-09T10:09:17Z</time></trkpt><trkpt lat="44.142354505451586" lon="3.8663879450691163"><ele>222.0</ele><time>2026-04-09T10:09:18Z</time></trkpt><trkpt lat="44.14227704364964" lon="3.866516985575132"><ele>230.25</ele><time>2026-04-09T10:09:19Z</time></trkpt><trkpt lat="44.14220122850986" lon="3.8666518941737498"><ele>238.5</ele><time>2026-04-09T10:09:20Z</time></trkpt><trkpt lat="44.14212826239219" lon="3.8667932740796567"><ele>246.75</ele><time>2026-04-09T10:09:21Z</time></trkpt><trkpt lat="44.14205764769238" lon="3.8669359235264618"><ele>255.0</ele><time>2026-04-09T10:09:22Z</time></trkpt><trkpt lat="44.14198712580685" lon="3.867079504401268"><ele>255.0</ele><time>2026-04-09T10:09:23Z</time></trkpt><trkpt lat="44.14191730890613" lon="3.8672214106868816"><ele>255.0</ele><time>2026-04-09T10:09:24Z</time></trkpt><trkpt lat="44.14184783083231" lon="3.8673622284058933"><ele>255.0</ele><time>2026-04-09T10:09:25Z</time></trkpt><trkpt lat="44.141789143167955" lon="3.8675106180290504"><ele>255.0</ele><time>2026-04-09T10:09:26Z</time></trkpt><trkpt lat="44.14175076660502" lon="3.867678237577635"><ele>252.0</ele><time>2026-04-09T10:09:27Z</time></trkpt><trkpt lat="44.141721347720264" lon="3.867850817751502"><ele>249.0</ele><time>2026-04-09T10:09:28Z</time></trkpt><trkpt lat="44.14169079435161" lon="3.868025488536449"><ele>246.0</ele><time>2026-04-09T10:09:29Z</time></trkpt><trkpt lat="44.1416561244118" lon="3.8681970786417046"><ele>243.0</ele><time>2026-04-09T10:09:30Z</time></trkpt><trkpt lat="44.14162480282647" lon="3.868370512610051"><ele>243.0</ele><time>2026-04-09T10:09:31Z</time></trkpt><trkpt lat="44.141617525092464" lon="3.8685493804100046"><ele>243.0</ele><time>2026-04-09T10:09:32Z</time></trkpt><trkpt lat="44.14162703696129" lon="3.8687279629690625"><ele>243.0</ele><time>2026-04-09T10:09:33Z</time></trkpt><trkpt lat="44.14165229091343" lon="3.8689050738732815"><ele>243.0</ele><time>2026-04-09T10:09:34Z</time></trkpt><trkpt lat="44.14168242963535" lon="3.869066479379364"><ele>243.0</ele><time>2026-04-09T10:09:35Z</time></trkpt><trkpt lat="44.14171636523622" lon="3.8692182855091364"><ele>243.0</ele><time>2026-04-09T10:09:36Z</time></trkpt><trkpt lat="44.141752163373184" lon="3.8693612872323087"><ele>243.0</ele><time>2026-04-09T10:09:37Z</time></trkpt><trkpt lat="44.14178667819717" lon="3.869496884664428"><ele>243.0</ele><time>2026-04-09T10:09:38Z</time></trkpt><trkpt lat="44.1418161079923" lon="3.8696270546225935"><ele>243.0</ele><time>2026-04-09T10:09:39Z</time></trkpt><trkpt lat="44.14183726358117" lon="3.8697546500773656"><ele>242.83333333333334</ele><time>2026-04-09T10:09:40Z</time></trkpt><trkpt lat="44.141824553762156" lon="3.8698761707237663"><ele>242.66666666666669</ele><time>2026-04-09T10:09:41Z</time></trkpt><trkpt lat="44.14179167619" lon="3.869972847620857"><ele>242.5</ele><time>2026-04-09T10:09:42Z</time></trkpt><trkpt lat="44.141741011408165" lon="3.8700474042921953"><ele>242.33333333333334</ele><time>2026-04-09T10:09:43Z</time></trkpt><trkpt lat="44.14167811627631" lon="3.8701028716009267"><ele>242.16666666666669</ele><time>2026-04-09T10:09:44Z</time></trkpt><trkpt lat="44.14160095554984" lon="3.8701569594020913"><ele>242.0</ele><time>2026-04-09T10:09:45Z</time></trkpt><trkpt lat="44.14151196657229" lon="3.870214578033516"><ele>240.0</ele><time>2026-04-09T10:09:46Z</time></trkpt><trkpt lat="44.1414113975016" lon="3.870279920874244"><ele>238.0</ele><time>2026-04-09T10:09:47Z</time></trkpt><trkpt lat="44.14129651157489" lon="3.870339765699231"><ele>236.0</ele><time>2026-04-09T10:09:48Z</time></trkpt><trkpt lat="44.141173355506986" lon="3.870392590260597"><ele>234.0</ele><time>2026-04-09T10:09:49Z</time></trkpt><trkpt lat="44.141041951159465" lon="3.8704372110503966"><ele>234.0</ele><time>2026-04-09T10:09:50Z</time></trkpt><trkpt lat="44.140909221677575" lon="3.8704792325347883"><ele>234.0</ele><time>2026-04-09T10:09:51Z</time></trkpt><trkpt lat="44.14077395599261" lon="3.8705159143455514"><ele>234.0</ele><time>2026-04-09T10:09:52Z</time></trkpt><trkpt lat="44.140643184678055" lon="3.8705617236721586"><ele>234.0</ele><time>2026-04-09T10:09:53Z</time></trkpt><trkpt lat="44.140521170348244" lon="3.8706233679730393"><ele>235.5</ele><time>2026-04-09T10:09:54Z</time></trkpt><trkpt lat="44.14040861626823" lon="3.870699162972612"><ele>237.0</ele><time>2026-04-09T10:09:55Z</time></trkpt><trkpt lat="44.14030885597678" lon="3.870792114430348"><ele>238.5</ele><time>2026-04-09T10:09:56Z</time></trkpt><trkpt lat="44.14022160672779" lon="3.8709047026264494"><ele>240.0</ele><time>2026-04-09T10:09:57Z</time></trkpt><trkpt lat="44.14013709133164" lon="3.871022914380781"><ele>240.0</ele><time>2026-04-09T10:09:58Z</time></trkpt><trkpt lat="44.140048656030395" lon="3.8711372418281145"><ele>240.0</ele><time>2026-04-09T10:09:59Z</time></trkpt><trkpt lat="44.139957471003605" lon="3.8712509805550495"><ele>240.0</ele><time>2026-04-09T10:10:00Z</time></trkpt><trkpt lat="44.13987889028426" lon="3.8713801088648014"><ele>240.0</ele><time>2026-04-09T10:10:01Z</time></trkpt><trkpt lat="44.13982157998524" lon="3.871534228646504"><ele>249.75</ele><time>2026-04-09T10:10:02Z</time></trkpt><trkpt lat="44.13978556185919" lon="3.871702545502885"><ele>259.5</ele><time>2026-04-09T10:10:02.999Z</time></trkpt><trkpt lat="44.13976131878514" lon="3.871878409545179"><ele>269.25</ele><time>2026-04-09T10:10:03.999Z</time></trkpt><trkpt lat="44.13973562256679" lon="3.872055761894154"><ele>279.0</ele><time>2026-04-09T10:10:04.999Z</time></trkpt><trkpt lat="44.139709999926076" lon="3.872238080827271"><ele>279.0</ele><time>2026-04-09T10:10:05.999Z</time></trkpt><trkpt lat="44.139684222104336" lon="3.872422891676062"><ele>279.0</ele><time>2026-04-09T10:10:06.999Z</time></trkpt><trkpt lat="44.13965965953202" lon="3.872605366188178"><ele>279.0</ele><time>2026-04-09T10:10:07.999Z</time></trkpt><trkpt lat="44.139636542648766" lon="3.8727815871211453"><ele>279.0</ele><time>2026-04-09T10:10:08.999Z</time></trkpt><trkpt lat="44.139612111627834" lon="3.8729538231719234"><ele>273.5</ele><time>2026-04-09T10:10:09.999Z</time></trkpt><trkpt lat="44.13957679440649" lon="3.8731196492681916"><ele>268.0</ele><time>2026-04-09T10:10:10.999Z</time></trkpt><trkpt lat="44.13952391471662" lon="3.8732730888618145"><ele>262.5</ele><time>2026-04-09T10:10:11.999Z</time></trkpt><trkpt lat="44.139448313394865" lon="3.8734060444105505"><ele>257.0</ele><time>2026-04-09T10:10:12.999Z</time></trkpt><trkpt lat="44.13934998796445" lon="3.8734953094316285"><ele>253.25</ele><time>2026-04-09T10:10:13.999Z</time></trkpt><trkpt lat="44.139245058654076" lon="3.873572966667417"><ele>249.5</ele><time>2026-04-09T10:10:14.999Z</time></trkpt><trkpt lat="44.139144192388365" lon="3.8736552309335153"><ele>245.75</ele><time>2026-04-09T10:10:15.999Z</time></trkpt><trkpt lat="44.13904765352341" lon="3.873767067864965"><ele>242.0</ele><time>2026-04-09T10:10:16.999Z</time></trkpt><trkpt lat="44.13895695162874" lon="3.8738934807671943"><ele>242.0</ele><time>2026-04-09T10:10:17.999Z</time></trkpt><trkpt lat="44.138861074490606" lon="3.874013344880328"><ele>242.0</ele><time>2026-04-09T10:10:18.999Z</time></trkpt><trkpt lat="44.13874940278783" lon="3.8741096510937783"><ele>242.0</ele><time>2026-04-09T10:10:19.999Z</time></trkpt><trkpt lat="44.13862369172426" lon="3.8741674293421196"><ele>242.0</ele><time>2026-04-09T10:10:20.999Z</time></trkpt><trkpt lat="44.138490919542974" lon="3.8741831111697014"><ele>242.0</ele><time>2026-04-09T10:10:21.999Z</time></trkpt><trkpt lat="44.13836134575" lon="3.87412620083593"><ele>242.0</ele><time>2026-04-09T10:10:22.999Z</time></trkpt><trkpt lat="44.13823805261972" lon="3.874071275498696"><ele>242.0</ele><time>2026-04-09T10:10:23.999Z</time></trkpt><trkpt lat="44.138132003878574" lon="3.8740103432734507"><ele>242.0</ele><time>2026-04-09T10:10:24.999Z</time></trkpt><trkpt lat="44.138050260637414" lon="3.8738795463704565"><ele>242.6</ele><time>2026-04-09T10:10:25.999Z</time></trkpt><trkpt lat="44.13801658541873" lon="3.8737160259285393"><ele>243.2</ele><time>2026-04-09T10:10:26.999Z</time></trkpt><trkpt lat="44.1379866317474" lon="3.87356841117708"><ele>243.8</ele><time>2026-04-09T10:10:27.999Z</time></trkpt><trkpt lat="44.13793347912113" lon="3.873442587408833"><ele>244.4</ele><time>2026-04-09T10:10:28.999Z</time></trkpt><trkpt lat="44.13787829012468" lon="3.873321535227736"><ele>245.0</ele><time>2026-04-09T10:10:29.999Z</time></trkpt><trkpt lat="44.13780409191186" lon="3.873237419787483"><ele>245.0</ele><time>2026-04-09T10:10:30.999Z</time></trkpt><trkpt lat="44.13770651944972" lon="3.873211237680399"><ele>245.0</ele><time>2026-04-09T10:10:31.999Z</time></trkpt><trkpt lat="44.13760689739104" lon="3.873235268230325"><ele>245.0</ele><time>2026-04-09T10:10:32.999Z</time></trkpt><trkpt lat="44.13751712213787" lon="3.8732989997592395"><ele>245.0</ele><time>2026-04-09T10:10:33.999Z</time></trkpt><trkpt lat="44.13743119760202" lon="3.8733795995058466"><ele>245.0</ele><time>2026-04-09T10:10:34.999Z</time></trkpt><trkpt lat="44.13733453985395" lon="3.8734484416043724"><ele>241.5</ele><time>2026-04-09T10:10:35.999Z</time></trkpt><trkpt lat="44.13722355308989" lon="3.8734945159899716"><ele>238.0</ele><time>2026-04-09T10:10:36.999Z</time></trkpt><trkpt lat="44.137104610618096" lon="3.8734965620215394"><ele>234.5</ele><time>2026-04-09T10:10:37.999Z</time></trkpt><trkpt lat="44.13699106573882" lon="3.8734769987535267"><ele>231.0</ele><time>2026-04-09T10:10:39Z</time></trkpt><trkpt lat="44.136880684780905" lon="3.8734349640907335"><ele>231.0</ele><time>2026-04-09T10:10:40Z</time></trkpt><trkpt lat="44.1367798483539" lon="3.8733509537222"><ele>231.0</ele><time>2026-04-09T10:10:41Z</time></trkpt><trkpt lat="44.136722637923235" lon="3.873198777087066"><ele>231.0</ele><time>2026-04-09T10:10:42Z</time></trkpt><trkpt lat="44.13665284090936" lon="3.873062802737411"><ele>231.0</ele><time>2026-04-09T10:10:43Z</time></trkpt><trkpt lat="44.13657337941847" lon="3.872935565939466"><ele>229.20000000000002</ele><time>2026-04-09T10:10:44Z</time></trkpt><trkpt lat="44.13651807804833" lon="3.872786050040826"><ele>227.40000000000003</ele><time>2026-04-09T10:10:45Z</time></trkpt><trkpt lat="44.136478935707586" lon="3.8726394294325623"><ele>225.6</ele><time>2026-04-09T10:10:46Z</time></trkpt><trkpt lat="44.136453877799745" lon="3.8725038874919977"><ele>223.8</ele><time>2026-04-09T10:10:47Z</time></trkpt><trkpt lat="44.13642695196274" lon="3.8723852525459006"><ele>222.0</ele><time>2026-04-09T10:10:48Z</time></trkpt><trkpt lat="44.136364646229616" lon="3.8722978938557864"><ele>222.0</ele><time>2026-04-09T10:10:49Z</time></trkpt><trkpt lat="44.136282398554854" lon="3.8722451881859583"><ele>222.0</ele><time>2026-04-09T10:10:50Z</time></trkpt><trkpt lat="44.136184142910615" lon="3.872223946247431"><ele>222.0</ele><time>2026-04-09T10:10:51Z</time></trkpt><trkpt lat="44.13607757871768" lon="3.872201055612094"><ele>222.0</ele><time>2026-04-09T10:10:52Z</time></trkpt><trkpt lat="44.13596391070961" lon="3.8721592053950467"><ele>222.0</ele><time>2026-04-09T10:10:53Z</time></trkpt><trkpt lat="44.13585106546488" lon="3.8721012517166122"><ele>222.0</ele><time>2026-04-09T10:10:54Z</time></trkpt><trkpt lat="44.13573433285879" lon="3.8720274889764084"><ele>222.0</ele><time>2026-04-09T10:10:55Z</time></trkpt><trkpt lat="44.13562442724524" lon="3.8719538747806843"><ele>222.0</ele><time>2026-04-09T10:10:56Z</time></trkpt><trkpt lat="44.13552662582432" lon="3.871887118712371"><ele>222.0</ele><time>2026-04-09T10:10:57Z</time></trkpt><trkpt lat="44.135433379007964" lon="3.8718209167920374"><ele>222.66666666666666</ele><time>2026-04-09T10:10:58Z</time></trkpt><trkpt lat="44.135344885643114" lon="3.8717603676898467"><ele>223.33333333333331</ele><time>2026-04-09T10:10:59Z</time></trkpt><trkpt lat="44.13526252233697" lon="3.871712660325587"><ele>224.0</ele><time>2026-04-09T10:11:00Z</time></trkpt><trkpt lat="44.13518455123918" lon="3.8716953671628858"><ele>224.66666666666666</ele><time>2026-04-09T10:11:01Z</time></trkpt><trkpt lat="44.13510439366379" lon="3.8717161038293066"><ele>225.33333333333331</ele><time>2026-04-09T10:11:02Z</time></trkpt><trkpt lat="44.13503214205886" lon="3.871773504975516"><ele>226.0</ele><time>2026-04-09T10:11:03Z</time></trkpt><trkpt lat="44.1349746644993" lon="3.8718648340743944"><ele>227.66666666666666</ele><time>2026-04-09T10:11:04Z</time></trkpt><trkpt lat="44.13494394284618" lon="3.8719768175912015"><ele>229.33333333333331</ele><time>2026-04-09T10:11:05Z</time></trkpt><trkpt lat="44.134943702192935" lon="3.872098945440548"><ele>231.0</ele><time>2026-04-09T10:11:06Z</time></trkpt><trkpt lat="44.13497366880153" lon="3.8722107888305386"><ele>232.66666666666669</ele><time>2026-04-09T10:11:07Z</time></trkpt><trkpt lat="44.135024980405674" lon="3.8723088041589855"><ele>234.33333333333334</ele><time>2026-04-09T10:11:08Z</time></trkpt><trkpt lat="44.135095064238726" lon="3.8723941321176962"><ele>236.0</ele><time>2026-04-09T10:11:09Z</time></trkpt><trkpt lat="44.13517078219364" lon="3.872480102864969"><ele>236.0</ele><time>2026-04-09T10:11:10Z</time></trkpt><trkpt lat="44.13525128194597" lon="3.8725664940361697"><ele>236.00000000000003</ele><time>2026-04-09T10:11:11Z</time></trkpt><trkpt lat="44.13532914914301" lon="3.8726618746179686"><ele>236.00000000000003</ele><time>2026-04-09T10:11:12Z</time></trkpt><trkpt lat="44.13539989361812" lon="3.872769865268328"><ele>236.0</ele><time>2026-04-09T10:11:13Z</time></trkpt><trkpt lat="44.13545944616381" lon="3.8728973447533734"><ele>236.0</ele><time>2026-04-09T10:11:14Z</time></trkpt><trkpt lat="44.13550618212783" lon="3.87303784190116"><ele>237.5</ele><time>2026-04-09T10:11:15Z</time></trkpt><trkpt lat="44.13554893817694" lon="3.87318232172799"><ele>239.0</ele><time>2026-04-09T10:11:16Z</time></trkpt><trkpt lat="44.135598486952915" lon="3.873324303589658"><ele>240.5</ele><time>2026-04-09T10:11:17Z</time></trkpt><trkpt lat="44.13564956454057" lon="3.8734689304506125"><ele>242.0</ele><time>2026-04-09T10:11:18Z</time></trkpt><trkpt lat="44.13570378367607" lon="3.873611027095422"><ele>238.6</ele><time>2026-04-09T10:11:19Z</time></trkpt><trkpt lat="44.13576145907862" lon="3.8737495639096178"><ele>235.2</ele><time>2026-04-09T10:11:20Z</time></trkpt><trkpt lat="44.13581652108858" lon="3.8738818706199396"><ele>231.8</ele><time>2026-04-09T10:11:21Z</time></trkpt><trkpt lat="44.13586070945604" lon="3.8740192708796983"><ele>228.4</ele><time>2026-04-09T10:11:22Z</time></trkpt><trkpt lat="44.13588090187139" lon="3.8741673357267854"><ele>225.0</ele><time>2026-04-09T10:11:23Z</time></trkpt><trkpt lat="44.13587201972705" lon="3.8743127431954174"><ele>222.0</ele><time>2026-04-09T10:11:24Z</time></trkpt><trkpt lat="44.135821543268435" lon="3.8744384302180097"><ele>219.0</ele><time>2026-04-09T10:11:25Z</time></trkpt><trkpt lat="44.13574966672838" lon="3.874540392317623"><ele>216.0</ele><time>2026-04-09T10:11:26Z</time></trkpt><trkpt lat="44.13567331530593" lon="3.8746367171414895"><ele>213.0</ele><time>2026-04-09T10:11:27Z</time></trkpt><trkpt lat="44.13559484157239" lon="3.8747408604576097"><ele>210.0</ele><time>2026-04-09T10:11:28Z</time></trkpt><trkpt lat="44.135526413723035" lon="3.87486586252294"><ele>221.75</ele><time>2026-04-09T10:11:29Z</time></trkpt><trkpt lat="44.13547136589533" lon="3.8750085220281116"><ele>233.5</ele><time>2026-04-09T10:11:30Z</time></trkpt><trkpt lat="44.13543149402425" lon="3.8751628910205387"><ele>245.25</ele><time>2026-04-09T10:11:31Z</time></trkpt><trkpt lat="44.13539745119591" lon="3.8753275190666727"><ele>257.0</ele><time>2026-04-09T10:11:31.999Z</time></trkpt><trkpt lat="44.135374923006104" lon="3.8754961490091304"><ele>256.5</ele><time>2026-04-09T10:11:32.999Z</time></trkpt><trkpt lat="44.13536766401162" lon="3.8756753366660526"><ele>256.0</ele><time>2026-04-09T10:11:33.999Z</time></trkpt><trkpt lat="44.13535913703895" lon="3.8758562404436327"><ele>255.5</ele><time>2026-04-09T10:11:34.999Z</time></trkpt><trkpt lat="44.13534680769849" lon="3.8760347560602213"><ele>255.0</ele><time>2026-04-09T10:11:35.999Z</time></trkpt><trkpt lat="44.135319408387495" lon="3.8762134212642003"><ele>255.0</ele><time>2026-04-09T10:11:36.999Z</time></trkpt><trkpt lat="44.135292365484055" lon="3.8763916594771093"><ele>255.0</ele><time>2026-04-09T10:11:37.999Z</time></trkpt><trkpt lat="44.13526481253888" lon="3.8765706831593527"><ele>255.0</ele><time>2026-04-09T10:11:38.999Z</time></trkpt><trkpt lat="44.13524947147318" lon="3.8767505522229353"><ele>255.0</ele><time>2026-04-09T10:11:39.999Z</time></trkpt><trkpt lat="44.135239690641164" lon="3.8769345075325448"><ele>254.25</ele><time>2026-04-09T10:11:40.999Z</time></trkpt><trkpt lat="44.13523425020725" lon="3.8771177187118164"><ele>253.5</ele><time>2026-04-09T10:11:41.999Z</time></trkpt><trkpt lat="44.135226222402416" lon="3.877301241598683"><ele>252.75</ele><time>2026-04-09T10:11:42.999Z</time></trkpt><trkpt lat="44.13520603291587" lon="3.8774826109925282"><ele>252.0</ele><time>2026-04-09T10:11:43.999Z</time></trkpt><trkpt lat="44.1351816533992" lon="3.8776617128355757"><ele>247.25</ele><time>2026-04-09T10:11:44.999Z</time></trkpt><trkpt lat="44.13514646322009" lon="3.8778347267777025"><ele>242.5</ele><time>2026-04-09T10:11:45.999Z</time></trkpt><trkpt lat="44.13510428661443" lon="3.878003620618492"><ele>237.75</ele><time>2026-04-09T10:11:46.999Z</time></trkpt><trkpt lat="44.13505900407841" lon="3.8781713357845775"><ele>233.0</ele><time>2026-04-09T10:11:47.999Z</time></trkpt><trkpt lat="44.135007622025114" lon="3.8783358944683766"><ele>235.5</ele><time>2026-04-09T10:11:48.999Z</time></trkpt><trkpt lat="44.134951399308044" lon="3.878497486836225"><ele>238.0</ele><time>2026-04-09T10:11:49.999Z</time></trkpt><trkpt lat="44.134887268093514" lon="3.8786512033329"><ele>240.5</ele><time>2026-04-09T10:11:50.999Z</time></trkpt><trkpt lat="44.13481224297449" lon="3.8787931708623185"><ele>243.0</ele><time>2026-04-09T10:11:51.999Z</time></trkpt><trkpt lat="44.134729946285944" lon="3.878921157685753"><ele>243.0</ele><time>2026-04-09T10:11:52.999Z</time></trkpt><trkpt lat="44.13463746428952" lon="3.8790258995756686"><ele>243.0</ele><time>2026-04-09T10:11:53.999Z</time></trkpt><trkpt lat="44.134532044773735" lon="3.8790928229844397"><ele>243.0</ele><time>2026-04-09T10:11:54.999Z</time></trkpt><trkpt lat="44.134421536221645" lon="3.879096662202228"><ele>243.0</ele><time>2026-04-09T10:11:55.999Z</time></trkpt><trkpt lat="44.13432317558653" lon="3.879043232042998"><ele>243.0</ele><time>2026-04-09T10:11:56.999Z</time></trkpt><trkpt lat="44.134221377332906" lon="3.879027538589381"><ele>243.0</ele><time>2026-04-09T10:11:57.999Z</time></trkpt><trkpt lat="44.134124939046266" lon="3.8789975274161135"><ele>243.0</ele><time>2026-04-09T10:11:58.999Z</time></trkpt><trkpt lat="44.13403042619884" lon="3.878994703031863"><ele>243.0</ele><time>2026-04-09T10:11:59.999Z</time></trkpt><trkpt lat="44.13394261633621" lon="3.8790257961478494"><ele>243.0</ele><time>2026-04-09T10:12:00.999Z</time></trkpt><trkpt lat="44.13386830123564" lon="3.8790944131145197"><ele>245.0</ele><time>2026-04-09T10:12:01.999Z</time></trkpt><trkpt lat="44.13381725397331" lon="3.8791970915294187"><ele>247.0</ele><time>2026-04-09T10:12:02.999Z</time></trkpt><trkpt lat="44.13377533905632" lon="3.8793039821404163"><ele>249.0</ele><time>2026-04-09T10:12:03.999Z</time></trkpt><trkpt lat="44.13372904468759" lon="3.8793993753221487"><ele>251.0</ele><time>2026-04-09T10:12:04.999Z</time></trkpt><trkpt lat="44.13368381734798" lon="3.8794856199401826"><ele>253.0</ele><time>2026-04-09T10:12:05.999Z</time></trkpt><trkpt lat="44.13363467857954" lon="3.879559215418835"><ele>255.0</ele><time>2026-04-09T10:12:06.999Z</time></trkpt><trkpt lat="44.13357007233596" lon="3.879607963114309"><ele>255.0</ele><time>2026-04-09T10:12:07.999Z</time></trkpt><trkpt lat="44.13350454732447" lon="3.8796299511766876"><ele>255.0</ele><time>2026-04-09T10:12:08.999Z</time></trkpt><trkpt lat="44.13341691761053" lon="3.8797441184845853"><ele>255.0</ele><time>2026-04-09T10:12:10.999Z</time></trkpt><trkpt lat="44.133397406959794" lon="3.8798377132667805"><ele>255.0</ele><time>2026-04-09T10:12:11.999Z</time></trkpt><trkpt lat="44.133411098136136" lon="3.8799357246643567"><ele>255.0</ele><time>2026-04-09T10:12:12.999Z</time></trkpt><trkpt lat="44.13343729542182" lon="3.8800335934034327"><ele>255.0</ele><time>2026-04-09T10:12:13.999Z</time></trkpt><trkpt lat="44.13345597848257" lon="3.8801433119022786"><ele>253.33333333333334</ele><time>2026-04-09T10:12:14.999Z</time></trkpt><trkpt lat="44.13347320679525" lon="3.8802567912224752"><ele>251.66666666666669</ele><time>2026-04-09T10:12:15.999Z</time></trkpt><trkpt lat="44.133468934381604" lon="3.8803822024854027"><ele>250.0</ele><time>2026-04-09T10:12:16.999Z</time></trkpt><trkpt lat="44.13346153187449" lon="3.880506653697221"><ele>248.33333333333334</ele><time>2026-04-09T10:12:17.999Z</time></trkpt><trkpt lat="44.1334582239204" lon="3.880632367944511"><ele>246.66666666666669</ele><time>2026-04-09T10:12:18.999Z</time></trkpt><trkpt lat="44.13345616403045" lon="3.8807576626228073"><ele>245.0</ele><time>2026-04-09T10:12:19.999Z</time></trkpt><trkpt lat="44.133424922256225" lon="3.8808746646601673"><ele>245.0</ele><time>2026-04-09T10:12:20.999Z</time></trkpt><trkpt lat="44.13339738003665" lon="3.8809936411358454"><ele>245.0</ele><time>2026-04-09T10:12:21.999Z</time></trkpt><trkpt lat="44.13333687785897" lon="3.8810941602738387"><ele>245.0</ele><time>2026-04-09T10:12:22.999Z</time></trkpt><trkpt lat="44.13327250727396" lon="3.8811885748489234"><ele>245.0</ele><time>2026-04-09T10:12:23.999Z</time></trkpt><trkpt lat="44.13320209173536" lon="3.881277905802181"><ele>245.0</ele><time>2026-04-09T10:12:24.999Z</time></trkpt><trkpt lat="44.13312637996815" lon="3.881363073409975"><ele>245.0</ele><time>2026-04-09T10:12:25.999Z</time></trkpt><trkpt lat="44.13303978535924" lon="3.8814356873910842"><ele>245.0</ele><time>2026-04-09T10:12:26.999Z</time></trkpt><trkpt lat="44.132942996922615" lon="3.881483755662296"><ele>245.0</ele><time>2026-04-09T10:12:27.999Z</time></trkpt><trkpt lat="44.1328397957114" lon="3.881504276861337"><ele>245.0</ele><time>2026-04-09T10:12:28.999Z</time></trkpt><trkpt lat="44.1327350062059" lon="3.881501502906716"><ele>245.0</ele><time>2026-04-09T10:12:29.999Z</time></trkpt><trkpt lat="44.132627272117105" lon="3.8814971042582536"><ele>245.0</ele><time>2026-04-09T10:12:30.999Z</time></trkpt><trkpt lat="44.132518050050656" lon="3.8814856526451833"><ele>245.0</ele><time>2026-04-09T10:12:31.999Z</time></trkpt><trkpt lat="44.13240791178525" lon="3.8814680600852567"><ele>245.0</ele><time>2026-04-09T10:12:32.999Z</time></trkpt><trkpt lat="44.13229769288972" lon="3.8814461118957224"><ele>245.0</ele><time>2026-04-09T10:12:33.999Z</time></trkpt><trkpt lat="44.132188449512334" lon="3.8814186051863584"><ele>245.0</ele><time>2026-04-09T10:12:34.999Z</time></trkpt><trkpt lat="44.13207759658897" lon="3.8813975534575915"><ele>246.4</ele><time>2026-04-09T10:12:35.999Z</time></trkpt><trkpt lat="44.13196794280265" lon="3.881385774037685"><ele>247.8</ele><time>2026-04-09T10:12:36.999Z</time></trkpt><trkpt lat="44.13186323710669" lon="3.881396211141827"><ele>249.2</ele><time>2026-04-09T10:12:37.999Z</time></trkpt><trkpt lat="44.13176688887765" lon="3.881407235595448"><ele>250.6</ele><time>2026-04-09T10:12:38.999Z</time></trkpt><trkpt lat="44.13167473123183" lon="3.8814179257502124"><ele>252.0</ele><time>2026-04-09T10:12:39.999Z</time></trkpt><trkpt lat="44.13158677814243" lon="3.8814325578843043"><ele>249.5</ele><time>2026-04-09T10:12:40.999Z</time></trkpt><trkpt lat="44.13150254880001" lon="3.8814728267243446"><ele>247.0</ele><time>2026-04-09T10:12:41.999Z</time></trkpt><trkpt lat="44.13145500061294" lon="3.8815774072403073"><ele>244.5</ele><time>2026-04-09T10:12:42.999Z</time></trkpt><trkpt lat="44.13141024448671" lon="3.881673526982675"><ele>242.0</ele><time>2026-04-09T10:12:43.999Z</time></trkpt><trkpt lat="44.13136475999456" lon="3.881751763182695"><ele>239.5</ele><time>2026-04-09T10:12:45Z</time></trkpt><trkpt lat="44.131302352880674" lon="3.881811275941152"><ele>237.0</ele><time>2026-04-09T10:12:46Z</time></trkpt><trkpt lat="44.13123391595011" lon="3.8818528086164172"><ele>237.0</ele><time>2026-04-09T10:12:47Z</time></trkpt><trkpt lat="44.13116201250644" lon="3.8818938411262294"><ele>237.0</ele><time>2026-04-09T10:12:48Z</time></trkpt><trkpt lat="44.13108268690948" lon="3.8819329821063837"><ele>237.0</ele><time>2026-04-09T10:12:49Z</time></trkpt><trkpt lat="44.13100129360329" lon="3.881980852789218"><ele>237.0</ele><time>2026-04-09T10:12:50Z</time></trkpt><trkpt lat="44.13091582238586" lon="3.8820429235135454"><ele>237.0</ele><time>2026-04-09T10:12:51Z</time></trkpt><trkpt lat="44.130823297998624" lon="3.8820751026445954"><ele>237.0</ele><time>2026-04-09T10:12:52Z</time></trkpt><trkpt lat="44.13072959072557" lon="3.8820798459377137"><ele>239.66666666666666</ele><time>2026-04-09T10:12:53Z</time></trkpt><trkpt lat="44.130641541979216" lon="3.8820523386067833"><ele>242.33333333333331</ele><time>2026-04-09T10:12:54Z</time></trkpt><trkpt lat="44.130560110194665" lon="3.8820000448673118"><ele>245.0</ele><time>2026-04-09T10:12:55Z</time></trkpt><trkpt lat="44.13048905754785" lon="3.881926541190933"><ele>247.66666666666666</ele><time>2026-04-09T10:12:56Z</time></trkpt><trkpt lat="44.13042673072053" lon="3.8818544182018373"><ele>250.33333333333331</ele><time>2026-04-09T10:12:57Z</time></trkpt><trkpt lat="44.130361561221534" lon="3.8817975984143387"><ele>253.0</ele><time>2026-04-09T10:12:58Z</time></trkpt><trkpt lat="44.130294495766265" lon="3.8817715170755256"><ele>253.00000000000003</ele><time>2026-04-09T10:12:59Z</time></trkpt><trkpt lat="44.1302254482833" lon="3.881767538784851"><ele>253.0</ele><time>2026-04-09T10:13:00Z</time></trkpt><trkpt lat="44.13016695732269" lon="3.8818096608811525"><ele>253.00000000000003</ele><time>2026-04-09T10:13:01Z</time></trkpt><trkpt lat="44.13012927962776" lon="3.8818842923884596"><ele>253.00000000000003</ele><time>2026-04-09T10:13:02Z</time></trkpt><trkpt lat="44.13011971034452" lon="3.8819803236219967"><ele>253.0</ele><time>2026-04-09T10:13:03Z</time></trkpt><trkpt lat="44.13012244697393" lon="3.882070406239046"><ele>253.00000000000003</ele><time>2026-04-09T10:13:04Z</time></trkpt><trkpt lat="44.130113060584776" lon="3.8821588908810627"><ele>253.00000000000003</ele><time>2026-04-09T10:13:05Z</time></trkpt><trkpt lat="44.13007957101089" lon="3.8822436542215715"><ele>252.99999999999997</ele><time>2026-04-09T10:13:06Z</time></trkpt><trkpt lat="44.130027711994316" lon="3.8823120580701493"><ele>253.0</ele><time>2026-04-09T10:13:07Z</time></trkpt><trkpt lat="44.129965781955185" lon="3.882351884482783"><ele>253.0</ele><time>2026-04-09T10:13:08Z</time></trkpt><trkpt lat="44.12989265741325" lon="3.8823772783152632"><ele>253.0</ele><time>2026-04-09T10:13:09Z</time></trkpt><trkpt lat="44.12981504103867" lon="3.882399089259285"><ele>252.99999999999997</ele><time>2026-04-09T10:13:10Z</time></trkpt><trkpt lat="44.12973120698305" lon="3.882429089343268"><ele>253.0</ele><time>2026-04-09T10:13:11Z</time></trkpt><trkpt lat="44.129643722454546" lon="3.8824600823851387"><ele>256.0</ele><time>2026-04-09T10:13:12Z</time></trkpt><trkpt lat="44.1295508055733" lon="3.882475658394055"><ele>259.0</ele><time>2026-04-09T10:13:13Z</time></trkpt><trkpt lat="44.12945601963324" lon="3.882466912754292"><ele>262.0</ele><time>2026-04-09T10:13:14Z</time></trkpt><trkpt lat="44.12936400593395" lon="3.8824441995480203"><ele>265.0</ele><time>2026-04-09T10:13:15Z</time></trkpt><trkpt lat="44.12927097288472" lon="3.8824333616517097"><ele>268.0</ele><time>2026-04-09T10:13:16Z</time></trkpt><trkpt lat="44.129172705633245" lon="3.8824583009676545"><ele>268.0</ele><time>2026-04-09T10:13:17Z</time></trkpt><trkpt lat="44.129076808319404" lon="3.8825058369933125"><ele>268.0</ele><time>2026-04-09T10:13:18Z</time></trkpt><trkpt lat="44.128984669081376" lon="3.882555041705748"><ele>268.0</ele><time>2026-04-09T10:13:19Z</time></trkpt><trkpt lat="44.12889096617106" lon="3.882595818845104"><ele>268.0</ele><time>2026-04-09T10:13:20Z</time></trkpt><trkpt lat="44.12879932219901" lon="3.8826135405445785"><ele>268.0</ele><time>2026-04-09T10:13:21Z</time></trkpt><trkpt lat="44.12871060394273" lon="3.8826089494585383"><ele>270.2857142857143</ele><time>2026-04-09T10:13:22Z</time></trkpt><trkpt lat="44.12863227022893" lon="3.8825923793482633"><ele>272.57142857142856</ele><time>2026-04-09T10:13:23Z</time></trkpt><trkpt lat="44.12856404495003" lon="3.8825954285232522"><ele>274.85714285714283</ele><time>2026-04-09T10:13:24Z</time></trkpt><trkpt lat="44.128507465632616" lon="3.8826456426692832"><ele>277.1428571428571</ele><time>2026-04-09T10:13:25Z</time></trkpt><trkpt lat="44.128471187684845" lon="3.882729671165699"><ele>279.4285714285714</ele><time>2026-04-09T10:13:26Z</time></trkpt><trkpt lat="44.12844341109775" lon="3.8828226011369136"><ele>281.7142857142857</ele><time>2026-04-09T10:13:27Z</time></trkpt><trkpt lat="44.12845348164208" lon="3.882927622020696"><ele>284.0</ele><time>2026-04-09T10:13:28Z</time></trkpt><trkpt lat="44.12849540556278" lon="3.8830282287039544"><ele>284.6666666666667</ele><time>2026-04-09T10:13:29Z</time></trkpt><trkpt lat="44.1285651196982" lon="3.883091812129467"><ele>285.33333333333337</ele><time>2026-04-09T10:13:30Z</time></trkpt><trkpt lat="44.128631398702126" lon="3.8831439350451578"><ele>286.0</ele><time>2026-04-09T10:13:31Z</time></trkpt><trkpt lat="44.12870084609469" lon="3.8832118707429846"><ele>286.6666666666667</ele><time>2026-04-09T10:13:32Z</time></trkpt><trkpt lat="44.128778179034796" lon="3.8832759846083067"><ele>287.3333333333333</ele><time>2026-04-09T10:13:33Z</time></trkpt><trkpt lat="44.128841408048224" lon="3.883371424665563"><ele>288.0</ele><time>2026-04-09T10:13:34Z</time></trkpt><trkpt lat="44.12888066975187" lon="3.8834797052908714"><ele>288.5</ele><time>2026-04-09T10:13:35Z</time></trkpt><trkpt lat="44.12893979837548" lon="3.883560053631765"><ele>289.0</ele><time>2026-04-09T10:13:36Z</time></trkpt><trkpt lat="44.12896512147324" lon="3.8836631077904236"><ele>289.5</ele><time>2026-04-09T10:13:37Z</time></trkpt><trkpt lat="44.12896779647114" lon="3.8837707880510877"><ele>290.0</ele><time>2026-04-09T10:13:38Z</time></trkpt><trkpt lat="44.128955507695935" lon="3.8838805382470496"><ele>290.5</ele><time>2026-04-09T10:13:39Z</time></trkpt><trkpt lat="44.12893292418573" lon="3.883989266174947"><ele>291.0</ele><time>2026-04-09T10:13:40Z</time></trkpt><trkpt lat="44.12890271318687" lon="3.8840974378953947"><ele>291.0</ele><time>2026-04-09T10:13:41Z</time></trkpt><trkpt lat="44.12886179098963" lon="3.8842051186920883"><ele>291.0</ele><time>2026-04-09T10:13:42Z</time></trkpt><trkpt lat="44.128810487069806" lon="3.884311672008821"><ele>291.0</ele><time>2026-04-09T10:13:43Z</time></trkpt><trkpt lat="44.12875077770419" lon="3.8844129333873894"><ele>291.0</ele><time>2026-04-09T10:13:44Z</time></trkpt><trkpt lat="44.12867981862064" lon="3.884504324159048"><ele>291.0</ele><time>2026-04-09T10:13:44.999Z</time></trkpt><trkpt lat="44.1286069650893" lon="3.884599137919342"><ele>289.6</ele><time>2026-04-09T10:13:45.999Z</time></trkpt><trkpt lat="44.1285317381181" lon="3.884694448090101"><ele>288.20000000000005</ele><time>2026-04-09T10:13:46.999Z</time></trkpt><trkpt lat="44.12845122296919" lon="3.8847878980828927"><ele>286.79999999999995</ele><time>2026-04-09T10:13:47.999Z</time></trkpt><trkpt lat="44.128367628802884" lon="3.8848810837925396"><ele>285.4</ele><time>2026-04-09T10:13:48.999Z</time></trkpt><trkpt lat="44.12828313829163" lon="3.8849725654868164"><ele>284.0</ele><time>2026-04-09T10:13:49.999Z</time></trkpt><trkpt lat="44.128192362235005" lon="3.8850548687160438"><ele>278.0</ele><time>2026-04-09T10:13:50.999Z</time></trkpt><trkpt lat="44.12809881841222" lon="3.885131798031177"><ele>272.0</ele><time>2026-04-09T10:13:51.999Z</time></trkpt><trkpt lat="44.12800763236627" lon="3.885210760755696"><ele>266.0</ele><time>2026-04-09T10:13:52.999Z</time></trkpt><trkpt lat="44.12791986322542" lon="3.8853012426191644"><ele>260.0</ele><time>2026-04-09T10:13:53.999Z</time></trkpt><trkpt lat="44.12783778748002" lon="3.8853918875563758"><ele>254.0</ele><time>2026-04-09T10:13:54.999Z</time></trkpt><trkpt lat="44.127763610093005" lon="3.8854785532436753"><ele>254.00000000000003</ele><time>2026-04-09T10:13:55.999Z</time></trkpt><trkpt lat="44.127691972608865" lon="3.885565488003556"><ele>254.0</ele><time>2026-04-09T10:13:56.999Z</time></trkpt><trkpt lat="44.127624686574876" lon="3.885628267115138"><ele>254.0</ele><time>2026-04-09T10:13:57.999Z</time></trkpt><trkpt lat="44.12755217705914" lon="3.885640041278788"><ele>254.0</ele><time>2026-04-09T10:13:58.999Z</time></trkpt><trkpt lat="44.127483806173124" lon="3.8856097705591104"><ele>254.00000000000003</ele><time>2026-04-09T10:13:59.999Z</time></trkpt><trkpt lat="44.127432680678346" lon="3.8855273501636627"><ele>254.0</ele><time>2026-04-09T10:14:00.999Z</time></trkpt><trkpt lat="44.127396425153236" lon="3.885435425884253"><ele>254.2</ele><time>2026-04-09T10:14:01.999Z</time></trkpt><trkpt lat="44.127360491183325" lon="3.885333866337928"><ele>254.39999999999998</ele><time>2026-04-09T10:14:02.999Z</time></trkpt><trkpt lat="44.127319340606526" lon="3.8852271064092845"><ele>254.6</ele><time>2026-04-09T10:14:03.999Z</time></trkpt><trkpt lat="44.127276571158994" lon="3.8851140136615596"><ele>254.8</ele><time>2026-04-09T10:14:04.999Z</time></trkpt><trkpt lat="44.12722912479373" lon="3.8850022516592393"><ele>255.0</ele><time>2026-04-09T10:14:05.999Z</time></trkpt><trkpt lat="44.12717540827871" lon="3.8848880348754595"><ele>257.75</ele><time>2026-04-09T10:14:06.999Z</time></trkpt><trkpt lat="44.12710067963675" lon="3.8847897148638633"><ele>260.5</ele><time>2026-04-09T10:14:07.999Z</time></trkpt><trkpt lat="44.127000207025894" lon="3.8847246292689164"><ele>263.25</ele><time>2026-04-09T10:14:08.999Z</time></trkpt><trkpt lat="44.12688936492181" lon="3.8846723550303404"><ele>266.0</ele><time>2026-04-09T10:14:09.999Z</time></trkpt><trkpt lat="44.12677743306996" lon="3.8846146043316416"><ele>266.0</ele><time>2026-04-09T10:14:10.999Z</time></trkpt><trkpt lat="44.126659289451354" lon="3.884556087596878"><ele>266.0</ele><time>2026-04-09T10:14:11.999Z</time></trkpt><trkpt lat="44.126541877840424" lon="3.8844978755371784"><ele>266.0</ele><time>2026-04-09T10:14:12.999Z</time></trkpt><trkpt lat="44.12642113065436" lon="3.88443997793913"><ele>266.0</ele><time>2026-04-09T10:14:13.999Z</time></trkpt><trkpt lat="44.1263023243601" lon="3.884378999364782"><ele>268.8</ele><time>2026-04-09T10:14:14.999Z</time></trkpt><trkpt lat="44.12619115291699" lon="3.884321280796044"><ele>271.6</ele><time>2026-04-09T10:14:15.999Z</time></trkpt><trkpt lat="44.126093781629784" lon="3.884266960271362"><ele>274.4</ele><time>2026-04-09T10:14:16.999Z</time></trkpt><trkpt lat="44.126011817011225" lon="3.8842094323070135"><ele>277.2</ele><time>2026-04-09T10:14:17.999Z</time></trkpt><trkpt lat="44.125948486653705" lon="3.884134157462217"><ele>280.0</ele><time>2026-04-09T10:14:18.999Z</time></trkpt><trkpt lat="44.12591295463237" lon="3.8840215267644687"><ele>280.7142857142857</ele><time>2026-04-09T10:14:19.999Z</time></trkpt><trkpt lat="44.12585453655005" lon="3.8839383291313516"><ele>281.42857142857144</ele><time>2026-04-09T10:14:20.999Z</time></trkpt><trkpt lat="44.12580817741046" lon="3.883850578804795"><ele>282.1428571428571</ele><time>2026-04-09T10:14:21.999Z</time></trkpt><trkpt lat="44.12575485505717" lon="3.883778391091292"><ele>282.8571428571429</ele><time>2026-04-09T10:14:22.999Z</time></trkpt><trkpt lat="44.125694835464955" lon="3.8837390870305906"><ele>283.57142857142856</ele><time>2026-04-09T10:14:23.999Z</time></trkpt><trkpt lat="44.125624570044" lon="3.8837456087716906"><ele>284.2857142857143</ele><time>2026-04-09T10:14:24.999Z</time></trkpt><trkpt lat="44.12556227604292" lon="3.883796443909364"><ele>285.0</ele><time>2026-04-09T10:14:25.999Z</time></trkpt><trkpt lat="44.125512892175045" lon="3.8838767989042258"><ele>288.3333333333333</ele><time>2026-04-09T10:14:26.999Z</time></trkpt><trkpt lat="44.12549921355248" lon="3.883986188574456"><ele>291.6666666666667</ele><time>2026-04-09T10:14:27.999Z</time></trkpt><trkpt lat="44.12551651473692" lon="3.8840988999702963"><ele>295.0</ele><time>2026-04-09T10:14:28.999Z</time></trkpt><trkpt lat="44.1255388719027" lon="3.8842212133542118"><ele>298.33333333333337</ele><time>2026-04-09T10:14:29.999Z</time></trkpt><trkpt lat="44.12556080682636" lon="3.8843455728576406"><ele>301.6666666666667</ele><time>2026-04-09T10:14:30.999Z</time></trkpt><trkpt lat="44.125590904161974" lon="3.884479861817321"><ele>305.0</ele><time>2026-04-09T10:14:31.999Z</time></trkpt><trkpt lat="44.12564144550143" lon="3.88461260109441"><ele>308.5</ele><time>2026-04-09T10:14:32.999Z</time></trkpt><trkpt lat="44.12570547779805" lon="3.8847455856377375"><ele>312.0</ele><time>2026-04-09T10:14:33.999Z</time></trkpt><trkpt lat="44.1257731897385" lon="3.8848805225494534"><ele>315.5</ele><time>2026-04-09T10:14:34.999Z</time></trkpt><trkpt lat="44.12583733885313" lon="3.885016202567996"><ele>319.0</ele><time>2026-04-09T10:14:35.999Z</time></trkpt><trkpt lat="44.12589401869641" lon="3.8851419089953336"><ele>312.8</ele><time>2026-04-09T10:14:36.999Z</time></trkpt><trkpt lat="44.125944221833244" lon="3.885267426966748"><ele>306.59999999999997</ele><time>2026-04-09T10:14:37.999Z</time></trkpt><trkpt lat="44.125977875520825" lon="3.8853863399487443"><ele>300.4</ele><time>2026-04-09T10:14:38.999Z</time></trkpt><trkpt lat="44.12598845327756" lon="3.885508693031132"><ele>294.2</ele><time>2026-04-09T10:14:39.999Z</time></trkpt><trkpt lat="44.12597475171674" lon="3.8856316010602057"><ele>288.0</ele><time>2026-04-09T10:14:40.999Z</time></trkpt><trkpt lat="44.125945542733035" lon="3.8857469119721264"><ele>288.0</ele><time>2026-04-09T10:14:41.999Z</time></trkpt><trkpt lat="44.1259010688928" lon="3.885845520026531"><ele>288.0</ele><time>2026-04-09T10:14:42.999Z</time></trkpt><trkpt lat="44.125859188385974" lon="3.885939748158869"><ele>288.0</ele><time>2026-04-09T10:14:43.999Z</time></trkpt><trkpt lat="44.12583748408053" lon="3.8860445708785023"><ele>288.0</ele><time>2026-04-09T10:14:44.999Z</time></trkpt><trkpt lat="44.125850897158" lon="3.8861587500216097"><ele>288.0</ele><time>2026-04-09T10:14:45.999Z</time></trkpt><trkpt lat="44.1258976433817" lon="3.8862527403362677"><ele>288.0</ele><time>2026-04-09T10:14:46.999Z</time></trkpt><trkpt lat="44.125967156634395" lon="3.8863158567721525"><ele>290.3333333333333</ele><time>2026-04-09T10:14:47.999Z</time></trkpt><trkpt lat="44.126050130639356" lon="3.886338616425633"><ele>292.6666666666667</ele><time>2026-04-09T10:14:48.999Z</time></trkpt><trkpt lat="44.12612580365569" lon="3.886370499016384"><ele>295.0</ele><time>2026-04-09T10:14:49.999Z</time></trkpt><trkpt lat="44.12619528785916" lon="3.886386214489917"><ele>297.33333333333337</ele><time>2026-04-09T10:14:51Z</time></trkpt><trkpt lat="44.12625002665382" lon="3.8864575032001625"><ele>299.6666666666667</ele><time>2026-04-09T10:14:52Z</time></trkpt><trkpt lat="44.126275414078975" lon="3.8865636555809826"><ele>302.0</ele><time>2026-04-09T10:14:53Z</time></trkpt><trkpt lat="44.12628469835999" lon="3.8866763060849174"><ele>303.1666666666667</ele><time>2026-04-09T10:14:54Z</time></trkpt><trkpt lat="44.126297142478364" lon="3.88679284704394"><ele>304.33333333333337</ele><time>2026-04-09T10:14:55Z</time></trkpt><trkpt lat="44.1263323236516" lon="3.886910647719551"><ele>305.5</ele><time>2026-04-09T10:14:56Z</time></trkpt><trkpt lat="44.12637792659394" lon="3.887020154539345"><ele>306.6666666666667</ele><time>2026-04-09T10:14:57Z</time></trkpt><trkpt lat="44.126412645699205" lon="3.8871327364894084"><ele>307.8333333333333</ele><time>2026-04-09T10:14:58Z</time></trkpt><trkpt lat="44.12642187429611" lon="3.887250687537662"><ele>309.0</ele><time>2026-04-09T10:14:59Z</time></trkpt><trkpt lat="44.126402416066654" lon="3.8873658355016065"><ele>309.0</ele><time>2026-04-09T10:15:00Z</time></trkpt><trkpt lat="44.12636371896377" lon="3.8874743475791917"><ele>309.0</ele><time>2026-04-09T10:15:01Z</time></trkpt><trkpt lat="44.12630323577614" lon="3.8875735675831575"><ele>309.0</ele><time>2026-04-09T10:15:02Z</time></trkpt><trkpt lat="44.12623530901948" lon="3.887672700336551"><ele>309.0</ele><time>2026-04-09T10:15:03Z</time></trkpt><trkpt lat="44.126161430576175" lon="3.8877763925555966"><ele>309.0</ele><time>2026-04-09T10:15:04Z</time></trkpt><trkpt lat="44.12608519668872" lon="3.88788420396086"><ele>307.5</ele><time>2026-04-09T10:15:05Z</time></trkpt><trkpt lat="44.126004286989094" lon="3.887994073796112"><ele>306.0</ele><time>2026-04-09T10:15:06Z</time></trkpt><trkpt lat="44.1259087876468" lon="3.8880868735890592"><ele>304.5</ele><time>2026-04-09T10:15:07Z</time></trkpt><trkpt lat="44.12580196427497" lon="3.8881502098703478"><ele>303.0</ele><time>2026-04-09T10:15:08Z</time></trkpt><trkpt lat="44.12570572227779" lon="3.888222414066227"><ele>303.0</ele><time>2026-04-09T10:15:09Z</time></trkpt><trkpt lat="44.12562934290947" lon="3.8883317067874352"><ele>303.0</ele><time>2026-04-09T10:15:10Z</time></trkpt><trkpt lat="44.1255577226235" lon="3.8884492319017334"><ele>303.0</ele><time>2026-04-09T10:15:11Z</time></trkpt><trkpt lat="44.12547838918313" lon="3.888550266287206"><ele>303.0</ele><time>2026-04-09T10:15:12Z</time></trkpt><trkpt lat="44.12538943479717" lon="3.8886284442649126"><ele>303.0</ele><time>2026-04-09T10:15:13Z</time></trkpt><trkpt lat="44.125286844613555" lon="3.888674578698989"><ele>305.8</ele><time>2026-04-09T10:15:14Z</time></trkpt><trkpt lat="44.125179076465905" lon="3.888673851483129"><ele>308.6</ele><time>2026-04-09T10:15:15Z</time></trkpt><trkpt lat="44.125074865806326" lon="3.888633628674761"><ele>311.4</ele><time>2026-04-09T10:15:16Z</time></trkpt><trkpt lat="44.12498080626514" lon="3.8885674946942013"><ele>314.2</ele><time>2026-04-09T10:15:17Z</time></trkpt><trkpt lat="44.12489851809469" lon="3.888477811075813"><ele>317.0</ele><time>2026-04-09T10:15:18Z</time></trkpt><trkpt lat="44.124818926754955" lon="3.8884089726543194"><ele>317.0</ele><time>2026-04-09T10:15:19Z</time></trkpt><trkpt lat="44.12472063300183" lon="3.8883925663324748"><ele>317.0</ele><time>2026-04-09T10:15:20Z</time></trkpt><trkpt lat="44.124626911460616" lon="3.888438819045539"><ele>317.0</ele><time>2026-04-09T10:15:21Z</time></trkpt><trkpt lat="44.124559441153735" lon="3.888531014120182"><ele>317.0</ele><time>2026-04-09T10:15:22Z</time></trkpt><trkpt lat="44.12450970665459" lon="3.888649778854376"><ele>317.0</ele><time>2026-04-09T10:15:23Z</time></trkpt><trkpt lat="44.124463195008566" lon="3.8887714967257394"><ele>311.4</ele><time>2026-04-09T10:15:24Z</time></trkpt><trkpt lat="44.12440429545357" lon="3.8888883112150756"><ele>305.79999999999995</ele><time>2026-04-09T10:15:25Z</time></trkpt><trkpt lat="44.12432870028479" lon="3.888988436385954"><ele>300.2</ele><time>2026-04-09T10:15:26Z</time></trkpt><trkpt lat="44.12424568707927" lon="3.889070696641013"><ele>294.59999999999997</ele><time>2026-04-09T10:15:27Z</time></trkpt><trkpt lat="44.12415885922809" lon="3.8891481758970925"><ele>289.0</ele><time>2026-04-09T10:15:28Z</time></trkpt><trkpt lat="44.12405824841824" lon="3.889209611195138"><ele>287.75</ele><time>2026-04-09T10:15:29Z</time></trkpt><trkpt lat="44.123945781590805" lon="3.88923812118518"><ele>286.5</ele><time>2026-04-09T10:15:30Z</time></trkpt><trkpt lat="44.12383156744873" lon="3.889258329180681"><ele>285.25</ele><time>2026-04-09T10:15:31Z</time></trkpt><trkpt lat="44.12371888263436" lon="3.889269306072483"><ele>284.0</ele><time>2026-04-09T10:15:32Z</time></trkpt><trkpt lat="44.12360734552842" lon="3.889260126650418"><ele>284.0</ele><time>2026-04-09T10:15:33Z</time></trkpt><trkpt lat="44.12349726239537" lon="3.8892265434064677"><ele>284.0</ele><time>2026-04-09T10:15:34Z</time></trkpt><trkpt lat="44.12339600309845" lon="3.8891565802080463"><ele>284.0</ele><time>2026-04-09T10:15:35Z</time></trkpt><trkpt lat="44.12330814708108" lon="3.889058210872313"><ele>284.0</ele><time>2026-04-09T10:15:36Z</time></trkpt><trkpt lat="44.12325092527722" lon="3.888949670842522"><ele>284.0</ele><time>2026-04-09T10:15:37Z</time></trkpt><trkpt lat="44.12320136782585" lon="3.8888499428620023"><ele>283.83333333333337</ele><time>2026-04-09T10:15:38Z</time></trkpt><trkpt lat="44.12314279823232" lon="3.8887761613754908"><ele>283.6666666666667</ele><time>2026-04-09T10:15:39Z</time></trkpt><trkpt lat="44.123062839050334" lon="3.888756554319384"><ele>283.5</ele><time>2026-04-09T10:15:40Z</time></trkpt><trkpt lat="44.122982304610936" lon="3.888783110746408"><ele>283.3333333333333</ele><time>2026-04-09T10:15:41Z</time></trkpt><trkpt lat="44.122911959451706" lon="3.888847465282113"><ele>283.16666666666663</ele><time>2026-04-09T10:15:42Z</time></trkpt><trkpt lat="44.12286339577355" lon="3.8889490190715286"><ele>283.0</ele><time>2026-04-09T10:15:43Z</time></trkpt><trkpt lat="44.12281235611555" lon="3.889060349102964"><ele>283.0</ele><time>2026-04-09T10:15:44Z</time></trkpt><trkpt lat="44.12276646201611" lon="3.889182156861235"><ele>283.0</ele><time>2026-04-09T10:15:45Z</time></trkpt><trkpt lat="44.12273099728903" lon="3.8893160568159604"><ele>283.0</ele><time>2026-04-09T10:15:46Z</time></trkpt><trkpt lat="44.12270683584678" lon="3.889450386834806"><ele>283.0</ele><time>2026-04-09T10:15:47Z</time></trkpt><trkpt lat="44.12267568349558" lon="3.8895654713236754"><ele>283.0</ele><time>2026-04-09T10:15:48Z</time></trkpt><trkpt lat="44.12261076256654" lon="3.8896376700028266"><ele>281.8333333333333</ele><time>2026-04-09T10:15:49Z</time></trkpt><trkpt lat="44.1225275965598" lon="3.8896745432265036"><ele>280.66666666666663</ele><time>2026-04-09T10:15:50Z</time></trkpt><trkpt lat="44.12243876685493" lon="3.8896598392165473"><ele>279.5</ele><time>2026-04-09T10:15:51Z</time></trkpt><trkpt lat="44.12235882664873" lon="3.889624446079055"><ele>278.3333333333333</ele><time>2026-04-09T10:15:52Z</time></trkpt><trkpt lat="44.12230077125981" lon="3.889537091044185"><ele>277.1666666666667</ele><time>2026-04-09T10:15:53Z</time></trkpt><trkpt lat="44.12225994290922" lon="3.8894356884339043"><ele>276.0</ele><time>2026-04-09T10:15:54Z</time></trkpt><trkpt lat="44.12223590061976" lon="3.8893163997536626"><ele>277.6666666666667</ele><time>2026-04-09T10:15:55Z</time></trkpt><trkpt lat="44.12221590521786" lon="3.8891996866161214"><ele>279.3333333333333</ele><time>2026-04-09T10:15:56Z</time></trkpt><trkpt lat="44.12218284720959" lon="3.889095306111048"><ele>281.0</ele><time>2026-04-09T10:15:57Z</time></trkpt><trkpt lat="44.12212559252646" lon="3.8890154118455893"><ele>282.66666666666663</ele><time>2026-04-09T10:15:58Z</time></trkpt><trkpt lat="44.12204279203928" lon="3.888983856617868"><ele>284.3333333333333</ele><time>2026-04-09T10:15:59Z</time></trkpt><trkpt lat="44.121954306302555" lon="3.8889845211774188"><ele>286.0</ele><time>2026-04-09T10:16:00Z</time></trkpt><trkpt lat="44.121868030054024" lon="3.8890272474035474"><ele>286.0</ele><time>2026-04-09T10:16:01Z</time></trkpt><trkpt lat="44.12178951059637" lon="3.8891073195355137"><ele>286.0</ele><time>2026-04-09T10:16:02Z</time></trkpt><trkpt lat="44.121723723411534" lon="3.88921478208737"><ele>286.0</ele><time>2026-04-09T10:16:03Z</time></trkpt><trkpt lat="44.121676611368386" lon="3.889347686546131"><ele>286.0</ele><time>2026-04-09T10:16:04Z</time></trkpt><trkpt lat="44.12164758302845" lon="3.8894928619965956"><ele>286.0</ele><time>2026-04-09T10:16:05Z</time></trkpt><trkpt lat="44.12162697441017" lon="3.8896491189276596"><ele>284.0</ele><time>2026-04-09T10:16:06Z</time></trkpt><trkpt lat="44.12160556174546" lon="3.889810174542883"><ele>282.0</ele><time>2026-04-09T10:16:07Z</time></trkpt><trkpt lat="44.12158718380234" lon="3.88996442949962"><ele>280.0</ele><time>2026-04-09T10:16:08Z</time></trkpt><trkpt lat="44.12156745585999" lon="3.8901147133632734"><ele>278.0</ele><time>2026-04-09T10:16:09Z</time></trkpt><trkpt lat="44.121542560383396" lon="3.890250802744753"><ele>276.0</ele><time>2026-04-09T10:16:10Z</time></trkpt><trkpt lat="44.12148978358342" lon="3.8903663691463066"><ele>272.8</ele><time>2026-04-09T10:16:11Z</time></trkpt><trkpt lat="44.12140973347372" lon="3.890441821045262"><ele>269.6</ele><time>2026-04-09T10:16:12Z</time></trkpt><trkpt lat="44.12131291623002" lon="3.8904651918082465"><ele>266.4</ele><time>2026-04-09T10:16:13Z</time></trkpt><trkpt lat="44.12121353972095" lon="3.89044140969634"><ele>263.2</ele><time>2026-04-09T10:16:14Z</time></trkpt><trkpt lat="44.12111543303179" lon="3.8903985157278207"><ele>260.0</ele><time>2026-04-09T10:16:15Z</time></trkpt><trkpt lat="44.12102901894724" lon="3.890333575801721"><ele>260.0</ele><time>2026-04-09T10:16:16Z</time></trkpt><trkpt lat="44.120974765852814" lon="3.8902306470225643"><ele>260.0</ele><time>2026-04-09T10:16:17Z</time></trkpt><trkpt lat="44.12095266672445" lon="3.890110143613073"><ele>260.0</ele><time>2026-04-09T10:16:18Z</time></trkpt><trkpt lat="44.12094981740981" lon="3.8899852755755973"><ele>260.0</ele><time>2026-04-09T10:16:19Z</time></trkpt><trkpt lat="44.12092452641362" lon="3.889857212092698"><ele>260.0</ele><time>2026-04-09T10:16:20Z</time></trkpt><trkpt lat="44.12085939938386" lon="3.889746414846799"><ele>263.2</ele><time>2026-04-09T10:16:21Z</time></trkpt><trkpt lat="44.120771847430795" lon="3.8896640054794793"><ele>266.4</ele><time>2026-04-09T10:16:22Z</time></trkpt><trkpt lat="44.12068532743543" lon="3.8895726601245664"><ele>269.6</ele><time>2026-04-09T10:16:23Z</time></trkpt><trkpt lat="44.12061360989164" lon="3.8894497739656133"><ele>272.8</ele><time>2026-04-09T10:16:24Z</time></trkpt><trkpt lat="44.120557235512194" lon="3.88931510986337"><ele>276.0</ele><time>2026-04-09T10:16:25Z</time></trkpt><trkpt lat="44.12049485218852" lon="3.8891808162128547"><ele>276.8</ele><time>2026-04-09T10:16:26Z</time></trkpt><trkpt lat="44.120413263034784" lon="3.8890725998917004"><ele>277.6</ele><time>2026-04-09T10:16:27Z</time></trkpt><trkpt lat="44.12033287718452" lon="3.888970291115525"><ele>278.4</ele><time>2026-04-09T10:16:28Z</time></trkpt><trkpt lat="44.120272674049055" lon="3.888872456527893"><ele>279.2</ele><time>2026-04-09T10:16:29Z</time></trkpt><trkpt lat="44.12023719413364" lon="3.888770184445697"><ele>280.0</ele><time>2026-04-09T10:16:30Z</time></trkpt><trkpt lat="44.120232583936975" lon="3.888662511126069"><ele>280.0</ele><time>2026-04-09T10:16:31Z</time></trkpt><trkpt lat="44.12026675921252" lon="3.8885574239814287"><ele>280.0</ele><time>2026-04-09T10:16:31.999Z</time></trkpt><trkpt lat="44.120297142461744" lon="3.8884533753459287"><ele>280.0</ele><time>2026-04-09T10:16:32.999Z</time></trkpt><trkpt lat="44.12029956481304" lon="3.888346569827583"><ele>280.0</ele><time>2026-04-09T10:16:33.999Z</time></trkpt><trkpt lat="44.12026361941159" lon="3.888245254432099"><ele>280.0</ele><time>2026-04-09T10:16:34.999Z</time></trkpt><trkpt lat="44.12019801900195" lon="3.888179100376346"><ele>280.0</ele><time>2026-04-09T10:16:35.999Z</time></trkpt><trkpt lat="44.12011549977771" lon="3.8881686988279265"><ele>282.4</ele><time>2026-04-09T10:16:36.999Z</time></trkpt><trkpt lat="44.12003665083615" lon="3.8882187461754123"><ele>284.8</ele><time>2026-04-09T10:16:37.999Z</time></trkpt><trkpt lat="44.11997843648594" lon="3.8883074862264206"><ele>287.2</ele><time>2026-04-09T10:16:38.999Z</time></trkpt><trkpt lat="44.11993155512539" lon="3.888423148985832"><ele>289.6</ele><time>2026-04-09T10:16:39.999Z</time></trkpt><trkpt lat="44.11987528581153" lon="3.8885439284972256"><ele>292.0</ele><time>2026-04-09T10:16:40.999Z</time></trkpt><trkpt lat="44.11982145981868" lon="3.888684171549972"><ele>292.25</ele><time>2026-04-09T10:16:41.999Z</time></trkpt><trkpt lat="44.119768701320915" lon="3.8888362113171624"><ele>292.5</ele><time>2026-04-09T10:16:42.999Z</time></trkpt><trkpt lat="44.11969763500723" lon="3.88896798497732"><ele>292.75</ele><time>2026-04-09T10:16:43.999Z</time></trkpt><trkpt lat="44.11962586011701" lon="3.8890944465082304"><ele>293.0</ele><time>2026-04-09T10:16:44.999Z</time></trkpt><trkpt lat="44.11955319503824" lon="3.8892116789303635"><ele>293.25</ele><time>2026-04-09T10:16:45.999Z</time></trkpt><trkpt lat="44.11946670902569" lon="3.8893119217485297"><ele>293.5</ele><time>2026-04-09T10:16:46.999Z</time></trkpt><trkpt lat="44.11936335595073" lon="3.8893955349149993"><ele>293.75</ele><time>2026-04-09T10:16:47.999Z</time></trkpt><trkpt lat="44.11925117847995" lon="3.889454568392593"><ele>294.0</ele><time>2026-04-09T10:16:48.999Z</time></trkpt><trkpt lat="44.11914105567864" lon="3.8895204732332758"><ele>294.0</ele><time>2026-04-09T10:16:49.999Z</time></trkpt><trkpt lat="44.11903213779356" lon="3.8895836671712054"><ele>294.0</ele><time>2026-04-09T10:16:50.999Z</time></trkpt><trkpt lat="44.11892429947041" lon="3.8896441722490467"><ele>294.0</ele><time>2026-04-09T10:16:51.999Z</time></trkpt><trkpt lat="44.11881931111417" lon="3.8897064296522332"><ele>294.0</ele><time>2026-04-09T10:16:52.999Z</time></trkpt><trkpt lat="44.11871190392638" lon="3.8897608360974507"><ele>294.0</ele><time>2026-04-09T10:16:53.999Z</time></trkpt><trkpt lat="44.11859896539513" lon="3.889792379805605"><ele>294.0</ele><time>2026-04-09T10:16:54.999Z</time></trkpt><trkpt lat="44.11848389879002" lon="3.889801135537412"><ele>294.0</ele><time>2026-04-09T10:16:55.999Z</time></trkpt><trkpt lat="44.11836412291737" lon="3.889792526197542"><ele>294.0</ele><time>2026-04-09T10:16:57Z</time></trkpt><trkpt lat="44.118241785029156" lon="3.8897662008849143"><ele>290.5</ele><time>2026-04-09T10:16:58Z</time></trkpt><trkpt lat="44.118121208612834" lon="3.889745406664438"><ele>287.0</ele><time>2026-04-09T10:16:59Z</time></trkpt><trkpt lat="44.117997275825694" lon="3.889748097329456"><ele>283.5</ele><time>2026-04-09T10:17:00Z</time></trkpt><trkpt lat="44.117873358018755" lon="3.889778754966302"><ele>280.0</ele><time>2026-04-09T10:17:01Z</time></trkpt><trkpt lat="44.117752244641935" lon="3.8898314056309147"><ele>280.0</ele><time>2026-04-09T10:17:02Z</time></trkpt><trkpt lat="44.11764419065577" lon="3.8899251649975346"><ele>280.0</ele><time>2026-04-09T10:17:03Z</time></trkpt><trkpt lat="44.117552442760505" lon="3.8900523526304713"><ele>280.0</ele><time>2026-04-09T10:17:04Z</time></trkpt><trkpt lat="44.11748037906775" lon="3.890204633875073"><ele>280.0</ele><time>2026-04-09T10:17:05Z</time></trkpt><trkpt lat="44.11741415420276" lon="3.890360203710048"><ele>278.0</ele><time>2026-04-09T10:17:06Z</time></trkpt><trkpt lat="44.11732962067612" lon="3.8905084637076155"><ele>276.0</ele><time>2026-04-09T10:17:07Z</time></trkpt><trkpt lat="44.11722199109186" lon="3.890629706652654"><ele>274.0</ele><time>2026-04-09T10:17:08Z</time></trkpt><trkpt lat="44.117092798451885" lon="3.8907108703633257"><ele>272.0</ele><time>2026-04-09T10:17:09Z</time></trkpt><trkpt lat="44.11696594015316" lon="3.890743867471289"><ele>272.0</ele><time>2026-04-09T10:17:10Z</time></trkpt><trkpt lat="44.1168338950252" lon="3.8907930872681913"><ele>272.0</ele><time>2026-04-09T10:17:11Z</time></trkpt><trkpt lat="44.116696448368266" lon="3.8908191643956065"><ele>272.0</ele><time>2026-04-09T10:17:12Z</time></trkpt><trkpt lat="44.11655701688077" lon="3.8908436366549397"><ele>272.0</ele><time>2026-04-09T10:17:13Z</time></trkpt><trkpt lat="44.11641217150087" lon="3.8908619397737825"><ele>270.25</ele><time>2026-04-09T10:17:14Z</time></trkpt><trkpt lat="44.11627295756145" lon="3.8908782830212543"><ele>268.5</ele><time>2026-04-09T10:17:15Z</time></trkpt><trkpt lat="44.116131448492816" lon="3.890873598537257"><ele>266.75</ele><time>2026-04-09T10:17:16Z</time></trkpt><trkpt lat="44.11598921560957" lon="3.8908620789977673"><ele>265.0</ele><time>2026-04-09T10:17:17Z</time></trkpt><trkpt lat="44.11584884402074" lon="3.8908402163898965"><ele>265.0</ele><time>2026-04-09T10:17:18Z</time></trkpt><trkpt lat="44.11572701425243" lon="3.8907993632829996"><ele>265.0</ele><time>2026-04-09T10:17:19Z</time></trkpt><trkpt lat="44.11561960828773" lon="3.8907541031797193"><ele>265.0</ele><time>2026-04-09T10:17:20Z</time></trkpt><trkpt lat="44.11551753067845" lon="3.890713332840574"><ele>265.0</ele><time>2026-04-09T10:17:21Z</time></trkpt><trkpt lat="44.1154056887545" lon="3.890720772050422"><ele>265.0</ele><time>2026-04-09T10:17:22Z</time></trkpt><trkpt lat="44.115297731413825" lon="3.8907964003637234"><ele>265.0</ele><time>2026-04-09T10:17:23Z</time></trkpt><trkpt lat="44.11519597528517" lon="3.8908920186277633"><ele>265.0</ele><time>2026-04-09T10:17:24Z</time></trkpt><trkpt lat="44.11509384646121" lon="3.890990339047986"><ele>265.0</ele><time>2026-04-09T10:17:25Z</time></trkpt><trkpt lat="44.11499121904007" lon="3.8911084346288893"><ele>259.75</ele><time>2026-04-09T10:17:26Z</time></trkpt><trkpt lat="44.11488721999882" lon="3.8912183354804974"><ele>254.5</ele><time>2026-04-09T10:17:27Z</time></trkpt><trkpt lat="44.114781104644564" lon="3.8913131899715534"><ele>249.25</ele><time>2026-04-09T10:17:28Z</time></trkpt><trkpt lat="44.11465804232993" lon="3.8913640974037933"><ele>244.0</ele><time>2026-04-09T10:17:29Z</time></trkpt><trkpt lat="44.11451719530133" lon="3.891316590435957"><ele>244.0</ele><time>2026-04-09T10:17:30Z</time></trkpt><trkpt lat="44.11438785835115" lon="3.8912936555307542"><ele>244.0</ele><time>2026-04-09T10:17:31Z</time></trkpt><trkpt lat="44.114255451471244" lon="3.891267583934896"><ele>244.0</ele><time>2026-04-09T10:17:32Z</time></trkpt><trkpt lat="44.11413295602621" lon="3.8912363390032976"><ele>244.0</ele><time>2026-04-09T10:17:33Z</time></trkpt><trkpt lat="44.11403383103548" lon="3.891214726001182"><ele>241.6</ele><time>2026-04-09T10:17:34Z</time></trkpt><trkpt lat="44.113958845820875" lon="3.891134355377969"><ele>239.2</ele><time>2026-04-09T10:17:35Z</time></trkpt><trkpt lat="44.11391728835432" lon="3.8910147210346278"><ele>236.79999999999998</ele><time>2026-04-09T10:17:36Z</time></trkpt><trkpt lat="44.11393195627977" lon="3.89088198998262"><ele>234.39999999999998</ele><time>2026-04-09T10:17:37Z</time></trkpt><trkpt lat="44.11398095358228" lon="3.8907616471690942"><ele>232.0</ele><time>2026-04-09T10:17:38Z</time></trkpt><trkpt lat="44.11403198452505" lon="3.890625237969496"><ele>233.6</ele><time>2026-04-09T10:17:39Z</time></trkpt><trkpt lat="44.114080659477956" lon="3.890487133837722"><ele>235.2</ele><time>2026-04-09T10:17:40Z</time></trkpt><trkpt lat="44.114095322254045" lon="3.890342210878084"><ele>236.8</ele><time>2026-04-09T10:17:41Z</time></trkpt><trkpt lat="44.114090257396086" lon="3.8901896337391806"><ele>238.4</ele><time>2026-04-09T10:17:42Z</time></trkpt><trkpt lat="44.11404584544046" lon="3.890042747705808"><ele>240.0</ele><time>2026-04-09T10:17:43Z</time></trkpt><trkpt lat="44.11396792861216" lon="3.8899164963322015"><ele>240.0</ele><time>2026-04-09T10:17:44Z</time></trkpt><trkpt lat="44.11386738647941" lon="3.8898315505653414"><ele>240.0</ele><time>2026-04-09T10:17:45Z</time></trkpt><trkpt lat="44.113763623774155" lon="3.8897703337908767"><ele>240.0</ele><time>2026-04-09T10:17:46Z</time></trkpt><trkpt lat="44.11365308984802" lon="3.889762281553376"><ele>240.0</ele><time>2026-04-09T10:17:47Z</time></trkpt><trkpt lat="44.11354882185715" lon="3.88982441930321"><ele>240.0</ele><time>2026-04-09T10:17:48Z</time></trkpt><trkpt lat="44.113458389073365" lon="3.8899153087274665"><ele>240.0</ele><time>2026-04-09T10:17:49Z</time></trkpt><trkpt lat="44.113364526848336" lon="3.8900011139016266"><ele>240.0</ele><time>2026-04-09T10:17:50Z</time></trkpt><trkpt lat="44.1132703183123" lon="3.8900831840406167"><ele>240.0</ele><time>2026-04-09T10:17:51Z</time></trkpt><trkpt lat="44.11318076550157" lon="3.8901414041885456"><ele>240.0</ele><time>2026-04-09T10:17:52Z</time></trkpt><trkpt lat="44.11309410308688" lon="3.8901681474128176"><ele>237.2</ele><time>2026-04-09T10:17:53Z</time></trkpt><trkpt lat="44.11301161816466" lon="3.890130519582791"><ele>234.4</ele><time>2026-04-09T10:17:54Z</time></trkpt><trkpt lat="44.11293171252859" lon="3.8900833577330434"><ele>231.60000000000002</ele><time>2026-04-09T10:17:55Z</time></trkpt><trkpt lat="44.11287170493561" lon="3.889985312649713"><ele>228.8</ele><time>2026-04-09T10:17:56Z</time></trkpt><trkpt lat="44.112854986486134" lon="3.88984736937393"><ele>226.0</ele><time>2026-04-09T10:17:57Z</time></trkpt><trkpt lat="44.11287620832301" lon="3.8897166373889434"><ele>226.0</ele><time>2026-04-09T10:17:58Z</time></trkpt><trkpt lat="44.112940479766216" lon="3.8896091357250593"><ele>226.00000000000003</ele><time>2026-04-09T10:17:59Z</time></trkpt><trkpt lat="44.113026370184734" lon="3.889539214753818"><ele>226.00000000000003</ele><time>2026-04-09T10:18:00Z</time></trkpt><trkpt lat="44.11312337795516" lon="3.889493846303329"><ele>226.0</ele><time>2026-04-09T10:18:01Z</time></trkpt><trkpt lat="44.11322225658498" lon="3.889450421760594"><ele>226.0</ele><time>2026-04-09T10:18:02Z</time></trkpt><trkpt lat="44.11333035060987" lon="3.8894196580606843"><ele>228.5</ele><time>2026-04-09T10:18:03Z</time></trkpt><trkpt lat="44.113426424138076" lon="3.889330313419103"><ele>231.0</ele><time>2026-04-09T10:18:04Z</time></trkpt><trkpt lat="44.11352178193363" lon="3.889252654617634"><ele>233.5</ele><time>2026-04-09T10:18:05Z</time></trkpt><trkpt lat="44.11361747625193" lon="3.8891660616052017"><ele>236.0</ele><time>2026-04-09T10:18:06Z</time></trkpt><trkpt lat="44.113713129681514" lon="3.8890819044457925"><ele>236.0</ele><time>2026-04-09T10:18:07Z</time></trkpt><trkpt lat="44.113813818524115" lon="3.8890264005092994"><ele>236.00000000000003</ele><time>2026-04-09T10:18:08Z</time></trkpt><trkpt lat="44.11390534551859" lon="3.888989752593076"><ele>236.00000000000003</ele><time>2026-04-09T10:18:09Z</time></trkpt><trkpt lat="44.11398612498403" lon="3.8889358435697483"><ele>236.0</ele><time>2026-04-09T10:18:10Z</time></trkpt><trkpt lat="44.11404716064487" lon="3.8888492651134188"><ele>236.0</ele><time>2026-04-09T10:18:11Z</time></trkpt><trkpt lat="44.11407073722247" lon="3.8887250444994423"><ele>236.0</ele><time>2026-04-09T10:18:12Z</time></trkpt><trkpt lat="44.114050120688184" lon="3.888606348850382"><ele>236.00000000000003</ele><time>2026-04-09T10:18:13Z</time></trkpt><trkpt lat="44.11398314582122" lon="3.888523985782051"><ele>236.00000000000003</ele><time>2026-04-09T10:18:14Z</time></trkpt><trkpt lat="44.11388130305807" lon="3.888488082811602"><ele>236.0</ele><time>2026-04-09T10:18:15Z</time></trkpt><trkpt lat="44.11377982528355" lon="3.888487976504891"><ele>236.0</ele><time>2026-04-09T10:18:16Z</time></trkpt><trkpt lat="44.113678219321606" lon="3.8885035778923163"><ele>236.0</ele><time>2026-04-09T10:18:17Z</time></trkpt><trkpt lat="44.11356821802882" lon="3.8885388043556186"><ele>236.00000000000003</ele><time>2026-04-09T10:18:18Z</time></trkpt><trkpt lat="44.11346039513052" lon="3.888515805827944"><ele>236.00000000000003</ele><time>2026-04-09T10:18:19Z</time></trkpt><trkpt lat="44.113374419072684" lon="3.888445572558221"><ele>236.0</ele><time>2026-04-09T10:18:20Z</time></trkpt><trkpt lat="44.1133053500349" lon="3.888334869394768"><ele>236.0</ele><time>2026-04-09T10:18:21Z</time></trkpt><trkpt lat="44.113246716265465" lon="3.8882153072095034"><ele>233.8</ele><time>2026-04-09T10:18:22Z</time></trkpt><trkpt lat="44.11318411459573" lon="3.8881084347382915"><ele>231.60000000000002</ele><time>2026-04-09T10:18:23Z</time></trkpt><trkpt lat="44.113112014847616" lon="3.8880105284033406"><ele>229.4</ele><time>2026-04-09T10:18:24Z</time></trkpt><trkpt lat="44.113019765523354" lon="3.8879401143740218"><ele>227.2</ele><time>2026-04-09T10:18:25Z</time></trkpt><trkpt lat="44.11292371180212" lon="3.887898804582944"><ele>225.0</ele><time>2026-04-09T10:18:26Z</time></trkpt><trkpt lat="44.11281256550225" lon="3.887914716685196"><ele>225.0</ele><time>2026-04-09T10:18:27Z</time></trkpt><trkpt lat="44.112707197324355" lon="3.887956891980013"><ele>225.0</ele><time>2026-04-09T10:18:28Z</time></trkpt><trkpt lat="44.112603806693436" lon="3.88800941656595"><ele>225.0</ele><time>2026-04-09T10:18:29Z</time></trkpt><trkpt lat="44.11249198646905" lon="3.8880647964909474"><ele>225.0</ele><time>2026-04-09T10:18:29.999Z</time></trkpt><trkpt lat="44.1123767239248" lon="3.8881244643089494"><ele>226.0</ele><time>2026-04-09T10:18:30.999Z</time></trkpt><trkpt lat="44.11226357172038" lon="3.8881915840410737"><ele>227.0</ele><time>2026-04-09T10:18:31.999Z</time></trkpt><trkpt lat="44.112149412839166" lon="3.888254695083844"><ele>228.0</ele><time>2026-04-09T10:18:32.999Z</time></trkpt><trkpt lat="44.11203304654826" lon="3.8883172361448364"><ele>229.0</ele><time>2026-04-09T10:18:33.999Z</time></trkpt><trkpt lat="44.11191973938427" lon="3.88838209018911"><ele>226.79999999999998</ele><time>2026-04-09T10:18:34.999Z</time></trkpt><trkpt lat="44.111824390092124" lon="3.888453100293741"><ele>224.59999999999997</ele><time>2026-04-09T10:18:35.999Z</time></trkpt><trkpt lat="44.11175306874556" lon="3.888545611262773"><ele>222.4</ele><time>2026-04-09T10:18:36.999Z</time></trkpt><trkpt lat="44.111697599980225" lon="3.8886692153159466"><ele>220.2</ele><time>2026-04-09T10:18:37.999Z</time></trkpt><trkpt lat="44.11164942546777" lon="3.8888033059992213"><ele>218.0</ele><time>2026-04-09T10:18:38.999Z</time></trkpt><trkpt lat="44.11161829303394" lon="3.888941083428639"><ele>218.00000000000003</ele><time>2026-04-09T10:18:39.999Z</time></trkpt><trkpt lat="44.111599422950846" lon="3.8890485389897496"><ele>218.0</ele><time>2026-04-09T10:18:40.999Z</time></trkpt><trkpt lat="44.11159060542173" lon="3.889153976655821"><ele>218.0</ele><time>2026-04-09T10:18:43.999Z</time></trkpt><trkpt lat="44.11172647524365" lon="3.8892136056904967"><ele>218.0</ele><time>2026-04-09T10:18:46.999Z</time></trkpt><trkpt lat="44.11178977424287" lon="3.889226483867453"><ele>218.00000000000003</ele><time>2026-04-09T10:18:47.999Z</time></trkpt><trkpt lat="44.111863533659395" lon="3.889264430599133"><ele>218.0</ele><time>2026-04-09T10:18:48.999Z</time></trkpt><trkpt lat="44.111932748728364" lon="3.8893240689626727"><ele>217.00000000000003</ele><time>2026-04-09T10:18:49.999Z</time></trkpt><trkpt lat="44.11199409434925" lon="3.8894054023649907"><ele>216.0</ele><time>2026-04-09T10:18:50.999Z</time></trkpt><trkpt lat="44.11202978455096" lon="3.889514333049355"><ele>215.0</ele><time>2026-04-09T10:18:51.999Z</time></trkpt><trkpt lat="44.11203908240054" lon="3.8896317888477565"><ele>214.0</ele><time>2026-04-09T10:18:52.999Z</time></trkpt><trkpt lat="44.11203895352158" lon="3.8897488068693864"><ele>213.00000000000003</ele><time>2026-04-09T10:18:53.999Z</time></trkpt><trkpt lat="44.11204263790502" lon="3.889860391986421"><ele>212.0</ele><time>2026-04-09T10:18:54.999Z</time></trkpt><trkpt lat="44.11206712511405" lon="3.889967502237953"><ele>212.00000000000003</ele><time>2026-04-09T10:18:55.999Z</time></trkpt><trkpt lat="44.11211429361301" lon="3.890059458788994"><ele>212.0</ele><time>2026-04-09T10:18:56.999Z</time></trkpt><trkpt lat="44.11218806120414" lon="3.890114331181085"><ele>212.0</ele><time>2026-04-09T10:18:57.999Z</time></trkpt><trkpt lat="44.11226992937299" lon="3.890148312279932"><ele>212.0</ele><time>2026-04-09T10:18:58.999Z</time></trkpt><trkpt lat="44.112351644378684" lon="3.8901847162456114"><ele>212.00000000000003</ele><time>2026-04-09T10:18:59.999Z</time></trkpt><trkpt lat="44.112426702819974" lon="3.8902499477146524"><ele>212.0</ele><time>2026-04-09T10:19:00.999Z</time></trkpt><trkpt lat="44.112488202093324" lon="3.890345620651133"><ele>213.6</ele><time>2026-04-09T10:19:01.999Z</time></trkpt><trkpt lat="44.1125345394863" lon="3.890456150472442"><ele>215.2</ele><time>2026-04-09T10:19:03Z</time></trkpt><trkpt lat="44.112583502765574" lon="3.8905668355391265"><ele>216.8</ele><time>2026-04-09T10:19:04Z</time></trkpt><trkpt lat="44.11266001695284" lon="3.890653938867817"><ele>218.4</ele><time>2026-04-09T10:19:05Z</time></trkpt><trkpt lat="44.11274269150947" lon="3.8907260334759313"><ele>220.0</ele><time>2026-04-09T10:19:06Z</time></trkpt><trkpt lat="44.11283509233234" lon="3.8907622697298825"><ele>220.0</ele><time>2026-04-09T10:19:07Z</time></trkpt><trkpt lat="44.1129378789553" lon="3.8907706607432093"><ele>220.0</ele><time>2026-04-09T10:19:08Z</time></trkpt><trkpt lat="44.11304321107662" lon="3.8907359204008563"><ele>220.0</ele><time>2026-04-09T10:19:09Z</time></trkpt><trkpt lat="44.11314013150642" lon="3.8906736211290363"><ele>220.0</ele><time>2026-04-09T10:19:10Z</time></trkpt><trkpt lat="44.11322609686011" lon="3.8905719379205075"><ele>220.0</ele><time>2026-04-09T10:19:11Z</time></trkpt><trkpt lat="44.11329276994404" lon="3.8904591155011454"><ele>221.99999999999997</ele><time>2026-04-09T10:19:12Z</time></trkpt><trkpt lat="44.11336454463732" lon="3.89037011037034"><ele>224.0</ele><time>2026-04-09T10:19:13Z</time></trkpt><trkpt lat="44.11345681700869" lon="3.8903623909578386"><ele>226.0</ele><time>2026-04-09T10:19:14Z</time></trkpt><trkpt lat="44.1135312977446" lon="3.8904056183694564"><ele>228.0</ele><time>2026-04-09T10:19:15Z</time></trkpt><trkpt lat="44.11357785641214" lon="3.890475470882849"><ele>229.99999999999997</ele><time>2026-04-09T10:19:16Z</time></trkpt><trkpt lat="44.113616027933254" lon="3.8905591443310703"><ele>232.0</ele><time>2026-04-09T10:19:17Z</time></trkpt><trkpt lat="44.11361690320974" lon="3.8906725828694158"><ele>232.0</ele><time>2026-04-09T10:19:18Z</time></trkpt><trkpt lat="44.113602089678565" lon="3.890788526842574"><ele>232.0</ele><time>2026-04-09T10:19:19Z</time></trkpt><trkpt lat="44.113570157839526" lon="3.890903663742048"><ele>232.0</ele><time>2026-04-09T10:19:20Z</time></trkpt><trkpt lat="44.11352718800132" lon="3.891018182685351"><ele>232.0</ele><time>2026-04-09T10:19:21Z</time></trkpt><trkpt lat="44.113488332731414" lon="3.8911370514253596"><ele>232.0</ele><time>2026-04-09T10:19:22Z</time></trkpt><trkpt lat="44.11346694123295" lon="3.891273778393263"><ele>231.0</ele><time>2026-04-09T10:19:23Z</time></trkpt><trkpt lat="44.11348579265743" lon="3.8913921109063296"><ele>230.0</ele><time>2026-04-09T10:19:24Z</time></trkpt><trkpt lat="44.11355185239483" lon="3.891520793498891"><ele>229.0</ele><time>2026-04-09T10:19:25Z</time></trkpt><trkpt lat="44.113649259426275" lon="3.8915708198732117"><ele>228.0</ele><time>2026-04-09T10:19:26Z</time></trkpt><trkpt lat="44.113753566924814" lon="3.8915788028939837"><ele>227.0</ele><time>2026-04-09T10:19:27Z</time></trkpt><trkpt lat="44.11385713419823" lon="3.8915868999956604"><ele>227.0</ele><time>2026-04-09T10:19:28Z</time></trkpt><trkpt lat="44.11396462324334" lon="3.891595552193346"><ele>227.0</ele><time>2026-04-09T10:19:29Z</time></trkpt><trkpt lat="44.11408009454059" lon="3.8916324897797168"><ele>227.0</ele><time>2026-04-09T10:19:30Z</time></trkpt><trkpt lat="44.11418015666197" lon="3.8917062196768275"><ele>227.0</ele><time>2026-04-09T10:19:31Z</time></trkpt><trkpt lat="44.11427796730142" lon="3.891787545171154"><ele>229.0</ele><time>2026-04-09T10:19:32Z</time></trkpt><trkpt lat="44.114368298657276" lon="3.8918624265342325"><ele>231.0</ele><time>2026-04-09T10:19:33Z</time></trkpt><trkpt lat="44.11443279682422" lon="3.891947122212627"><ele>233.0</ele><time>2026-04-09T10:19:34Z</time></trkpt><trkpt lat="44.11447396773721" lon="3.892057356864293"><ele>235.0</ele><time>2026-04-09T10:19:35Z</time></trkpt><trkpt lat="44.11447785122017" lon="3.8921785266921467"><ele>237.0</ele><time>2026-04-09T10:19:36Z</time></trkpt><trkpt lat="44.114467812019406" lon="3.8922992984839766"><ele>237.0</ele><time>2026-04-09T10:19:37Z</time></trkpt><trkpt lat="44.11447193147592" lon="3.892429546362831"><ele>237.0</ele><time>2026-04-09T10:19:38Z</time></trkpt><trkpt lat="44.11450290329326" lon="3.89255937580418"><ele>237.0</ele><time>2026-04-09T10:19:39Z</time></trkpt><trkpt lat="44.11455264699262" lon="3.8926777000116366"><ele>237.0</ele><time>2026-04-09T10:19:40Z</time></trkpt><trkpt lat="44.1146101714312" lon="3.8927920564449425"><ele>237.0</ele><time>2026-04-09T10:19:41Z</time></trkpt><trkpt lat="44.114667598838906" lon="3.892914063153209"><ele>236.75</ele><time>2026-04-09T10:19:42Z</time></trkpt><trkpt lat="44.1147303125334" lon="3.8930401338677725"><ele>236.5</ele><time>2026-04-09T10:19:43Z</time></trkpt><trkpt lat="44.11477757686362" lon="3.8931880334119744"><ele>236.25</ele><time>2026-04-09T10:19:44Z</time></trkpt><trkpt lat="44.11484372486672" lon="3.893319687820747"><ele>236.0</ele><time>2026-04-09T10:19:45Z</time></trkpt><trkpt lat="44.11491104249737" lon="3.893443440331624"><ele>238.20000000000002</ele><time>2026-04-09T10:19:46Z</time></trkpt><trkpt lat="44.11493365287661" lon="3.8935906998746153"><ele>240.40000000000003</ele><time>2026-04-09T10:19:47Z</time></trkpt><trkpt lat="44.11493886546855" lon="3.8937327524480727"><ele>242.6</ele><time>2026-04-09T10:19:48Z</time></trkpt><trkpt lat="44.114944116912675" lon="3.8938697505355204"><ele>244.8</ele><time>2026-04-09T10:19:49Z</time></trkpt><trkpt lat="44.11497910646801" lon="3.8939952301387084"><ele>247.0</ele><time>2026-04-09T10:19:50Z</time></trkpt><trkpt lat="44.115039133302965" lon="3.8941004662892107"><ele>247.0</ele><time>2026-04-09T10:19:51Z</time></trkpt><trkpt lat="44.11511889232865" lon="3.8941802733546327"><ele>247.0</ele><time>2026-04-09T10:19:52Z</time></trkpt><trkpt lat="44.11520765722336" lon="3.8942450236229407"><ele>247.0</ele><time>2026-04-09T10:19:53Z</time></trkpt><trkpt lat="44.11530144148293" lon="3.894306958486997"><ele>247.0</ele><time>2026-04-09T10:19:54Z</time></trkpt><trkpt lat="44.11539587632423" lon="3.8943764498591174"><ele>247.0</ele><time>2026-04-09T10:19:55Z</time></trkpt><trkpt lat="44.115486363864726" lon="3.894454761483662"><ele>247.0</ele><time>2026-04-09T10:19:56Z</time></trkpt><trkpt lat="44.11557644534826" lon="3.8945286532334804"><ele>247.0</ele><time>2026-04-09T10:19:57Z</time></trkpt><trkpt lat="44.11566174576676" lon="3.8946111776207646"><ele>247.0</ele><time>2026-04-09T10:19:58Z</time></trkpt><trkpt lat="44.11570457127184" lon="3.894736519572123"><ele>247.0</ele><time>2026-04-09T10:19:59Z</time></trkpt><trkpt lat="44.11575348728443" lon="3.8948405312036516"><ele>247.0</ele><time>2026-04-09T10:20:00Z</time></trkpt><trkpt lat="44.115734710015204" lon="3.894974779907288"><ele>248.33333333333331</ele><time>2026-04-09T10:20:01Z</time></trkpt><trkpt lat="44.11568946732862" lon="3.8951014556169037"><ele>249.66666666666666</ele><time>2026-04-09T10:20:02Z</time></trkpt><trkpt lat="44.11565221666403" lon="3.8952065988151148"><ele>251.0</ele><time>2026-04-09T10:20:03Z</time></trkpt><trkpt lat="44.11562757639226" lon="3.8953044649101214"><ele>252.33333333333331</ele><time>2026-04-09T10:20:04Z</time></trkpt><trkpt lat="44.115617030526586" lon="3.8954002540614074"><ele>253.66666666666666</ele><time>2026-04-09T10:20:05Z</time></trkpt><trkpt lat="44.11562898021874" lon="3.895498376665551"><ele>255.0</ele><time>2026-04-09T10:20:06Z</time></trkpt><trkpt lat="44.11566293012365" lon="3.89559262577596"><ele>255.0</ele><time>2026-04-09T10:20:07Z</time></trkpt><trkpt lat="44.11572179931073" lon="3.8956736534469565"><ele>255.0</ele><time>2026-04-09T10:20:08Z</time></trkpt><trkpt lat="44.11579747795147" lon="3.8957318634645683"><ele>255.0</ele><time>2026-04-09T10:20:09Z</time></trkpt><trkpt lat="44.1158734370681" lon="3.8957946693842818"><ele>255.0</ele><time>2026-04-09T10:20:10Z</time></trkpt><trkpt lat="44.11594626789446" lon="3.895874725665302"><ele>255.0</ele><time>2026-04-09T10:20:11Z</time></trkpt><trkpt lat="44.11600591900948" lon="3.895978524882342"><ele>255.0</ele><time>2026-04-09T10:20:12Z</time></trkpt><trkpt lat="44.116015564458465" lon="3.8961116691075754"><ele>257.4</ele><time>2026-04-09T10:20:13Z</time></trkpt><trkpt lat="44.116005353643345" lon="3.8962348989206887"><ele>259.8</ele><time>2026-04-09T10:20:14Z</time></trkpt><trkpt lat="44.11599181877388" lon="3.896363697422438"><ele>262.2</ele><time>2026-04-09T10:20:15Z</time></trkpt><trkpt lat="44.11599090166461" lon="3.8965037290073967"><ele>264.6</ele><time>2026-04-09T10:20:16Z</time></trkpt><trkpt lat="44.11598722120584" lon="3.8966389489279916"><ele>267.0</ele><time>2026-04-09T10:20:17Z</time></trkpt><trkpt lat="44.11602222570159" lon="3.8967702055453"><ele>267.6</ele><time>2026-04-09T10:20:18Z</time></trkpt><trkpt lat="44.116078481023685" lon="3.8968892302287745"><ele>268.2</ele><time>2026-04-09T10:20:19Z</time></trkpt><trkpt lat="44.116151415806804" lon="3.896993006025993"><ele>268.8</ele><time>2026-04-09T10:20:20Z</time></trkpt><trkpt lat="44.116240476598676" lon="3.89707779938504"><ele>269.4</ele><time>2026-04-09T10:20:21Z</time></trkpt><trkpt lat="44.116335965667616" lon="3.8971556377960255"><ele>270.0</ele><time>2026-04-09T10:20:22Z</time></trkpt><trkpt lat="44.11642743162691" lon="3.8972426934032716"><ele>270.0</ele><time>2026-04-09T10:20:23Z</time></trkpt><trkpt lat="44.11652528914287" lon="3.8973309757242722"><ele>270.0</ele><time>2026-04-09T10:20:24Z</time></trkpt><trkpt lat="44.11662774609595" lon="3.8974178379836126"><ele>270.0</ele><time>2026-04-09T10:20:25Z</time></trkpt><trkpt lat="44.11672364471401" lon="3.8974978961606133"><ele>270.0</ele><time>2026-04-09T10:20:25.999Z</time></trkpt><trkpt lat="44.11681538979753" lon="3.8975735194448573"><ele>272.6</ele><time>2026-04-09T10:20:26.999Z</time></trkpt><trkpt lat="44.11689436510071" lon="3.897657582848675"><ele>275.2</ele><time>2026-04-09T10:20:27.999Z</time></trkpt><trkpt lat="44.11694787702777" lon="3.8977731695506743"><ele>277.8</ele><time>2026-04-09T10:20:28.999Z</time></trkpt><trkpt lat="44.11696396938946" lon="3.89789828311309"><ele>280.4</ele><time>2026-04-09T10:20:29.999Z</time></trkpt><trkpt lat="44.1169620900282" lon="3.898015578360285"><ele>283.0</ele><time>2026-04-09T10:20:30.999Z</time></trkpt><trkpt lat="44.11696434767302" lon="3.8981245048117192"><ele>283.0</ele><time>2026-04-09T10:20:31.999Z</time></trkpt><trkpt lat="44.116973673618055" lon="3.898230756308394"><ele>283.0</ele><time>2026-04-09T10:20:32.999Z</time></trkpt><trkpt lat="44.11700331504895" lon="3.8983305892962705"><ele>283.0</ele><time>2026-04-09T10:20:33.999Z</time></trkpt><trkpt lat="44.1170433196307" lon="3.898429135401541"><ele>283.0</ele><time>2026-04-09T10:20:34.999Z</time></trkpt><trkpt lat="44.11710695300045" lon="3.8985068419910154"><ele>283.0</ele><time>2026-04-09T10:20:35.999Z</time></trkpt><trkpt lat="44.11718824881072" lon="3.8985580927999473"><ele>283.0</ele><time>2026-04-09T10:20:36.999Z</time></trkpt><trkpt lat="44.117281694151536" lon="3.8985746557268537"><ele>282.6</ele><time>2026-04-09T10:20:37.999Z</time></trkpt><trkpt lat="44.11738284043575" lon="3.898572075601914"><ele>282.20000000000005</ele><time>2026-04-09T10:20:38.999Z</time></trkpt><trkpt lat="44.11749126390155" lon="3.8985751394089347"><ele>281.8</ele><time>2026-04-09T10:20:39.999Z</time></trkpt><trkpt lat="44.11760365613351" lon="3.898596618821015"><ele>281.40000000000003</ele><time>2026-04-09T10:20:40.999Z</time></trkpt><trkpt lat="44.117715856304834" lon="3.898626130950926"><ele>281.0</ele><time>2026-04-09T10:20:41.999Z</time></trkpt><trkpt lat="44.11782604824449" lon="3.898669847697031"><ele>277.5</ele><time>2026-04-09T10:20:42.999Z</time></trkpt><trkpt lat="44.11792558290671" lon="3.898746068303313"><ele>274.0</ele><time>2026-04-09T10:20:43.999Z</time></trkpt><trkpt lat="44.1180241629568" lon="3.898829694775009"><ele>270.5</ele><time>2026-04-09T10:20:44.999Z</time></trkpt><trkpt lat="44.11812580562321" lon="3.8989083823514026"><ele>267.0</ele><time>2026-04-09T10:20:45.999Z</time></trkpt><trkpt lat="44.11824011044173" lon="3.8989522683569584"><ele>267.0</ele><time>2026-04-09T10:20:46.999Z</time></trkpt><trkpt lat="44.11835993170449" lon="3.8989629595072"><ele>267.0</ele><time>2026-04-09T10:20:47.999Z</time></trkpt><trkpt lat="44.11848523482315" lon="3.898956200562179"><ele>267.0</ele><time>2026-04-09T10:20:48.999Z</time></trkpt><trkpt lat="44.11860357364355" lon="3.8989501158456887"><ele>267.0</ele><time>2026-04-09T10:20:49.999Z</time></trkpt><trkpt lat="44.1187157401689" lon="3.898942049437762"><ele>267.0</ele><time>2026-04-09T10:20:50.999Z</time></trkpt><trkpt lat="44.11881826078468" lon="3.8989362770722042"><ele>267.0</ele><time>2026-04-09T10:20:51.999Z</time></trkpt><trkpt lat="44.118922109617" lon="3.8989364291029167"><ele>267.0</ele><time>2026-04-09T10:20:52.999Z</time></trkpt><trkpt lat="44.11902914307333" lon="3.8989773414122895"><ele>267.0</ele><time>2026-04-09T10:20:53.999Z</time></trkpt><trkpt lat="44.11912517929731" lon="3.8990572247176356"><ele>267.0</ele><time>2026-04-09T10:20:54.999Z</time></trkpt><trkpt lat="44.11920213102708" lon="3.899165978963737"><ele>265.2</ele><time>2026-04-09T10:20:55.999Z</time></trkpt><trkpt lat="44.119275666617426" lon="3.899272551897954"><ele>263.4</ele><time>2026-04-09T10:20:56.999Z</time></trkpt><trkpt lat="44.11934824518684" lon="3.899361810822853"><ele>261.6</ele><time>2026-04-09T10:20:57.999Z</time></trkpt><trkpt lat="44.11943974600344" lon="3.8994243600716274"><ele>259.8</ele><time>2026-04-09T10:20:58.999Z</time></trkpt><trkpt lat="44.11954482427751" lon="3.8994292464947646"><ele>258.0</ele><time>2026-04-09T10:20:59.999Z</time></trkpt><trkpt lat="44.11964383518753" lon="3.89939142036913"><ele>258.0</ele><time>2026-04-09T10:21:00.999Z</time></trkpt><trkpt lat="44.119728188272774" lon="3.8993051822243343"><ele>258.0</ele><time>2026-04-09T10:21:01.999Z</time></trkpt><trkpt lat="44.11981711788914" lon="3.8992376671884204"><ele>258.0</ele><time>2026-04-09T10:21:02.999Z</time></trkpt><trkpt lat="44.11990601952952" lon="3.8991707539081952"><ele>258.0</ele><time>2026-04-09T10:21:03.999Z</time></trkpt><trkpt lat="44.12000894342485" lon="3.8991926585771224"><ele>258.0</ele><time>2026-04-09T10:21:04.999Z</time></trkpt><trkpt lat="44.12010435705739" lon="3.8992337403414106"><ele>257.0</ele><time>2026-04-09T10:21:05.999Z</time></trkpt><trkpt lat="44.12018729957744" lon="3.8993089874655205"><ele>256.0</ele><time>2026-04-09T10:21:06.999Z</time></trkpt><trkpt lat="44.12025599330262" lon="3.899411932990887"><ele>255.0</ele><time>2026-04-09T10:21:07.999Z</time></trkpt><trkpt lat="44.120255063108054" lon="3.8995647821601556"><ele>254.0</ele><time>2026-04-09T10:21:09Z</time></trkpt><trkpt lat="44.12024885203335" lon="3.899704730756025"><ele>253.0</ele><time>2026-04-09T10:21:10Z</time></trkpt><trkpt lat="44.12022879195929" lon="3.8998267377829436"><ele>252.99999999999997</ele><time>2026-04-09T10:21:11Z</time></trkpt><trkpt lat="44.12021538825977" lon="3.8999456809898283"><ele>253.0</ele><time>2026-04-09T10:21:12Z</time></trkpt><trkpt lat="44.120219342653726" lon="3.900052476049406"><ele>253.0</ele><time>2026-04-09T10:21:13Z</time></trkpt><trkpt lat="44.12024035855279" lon="3.900143398314058"><ele>253.0</ele><time>2026-04-09T10:21:14Z</time></trkpt><trkpt lat="44.12028243912408" lon="3.9002178489425727"><ele>252.99999999999997</ele><time>2026-04-09T10:21:15Z</time></trkpt><trkpt lat="44.120348347482796" lon="3.900275348400623"><ele>253.0</ele><time>2026-04-09T10:21:16Z</time></trkpt><trkpt lat="44.12042941093077" lon="3.9003065965451036"><ele>253.16666666666666</ele><time>2026-04-09T10:21:17Z</time></trkpt><trkpt lat="44.12051554686768" lon="3.900326088345827"><ele>253.33333333333331</ele><time>2026-04-09T10:21:18Z</time></trkpt><trkpt lat="44.120598573440155" lon="3.900361567976383"><ele>253.5</ele><time>2026-04-09T10:21:19Z</time></trkpt><trkpt lat="44.120676240525434" lon="3.900417753818029"><ele>253.66666666666669</ele><time>2026-04-09T10:21:20Z</time></trkpt><trkpt lat="44.120735994610904" lon="3.9005079913309633"><ele>253.83333333333334</ele><time>2026-04-09T10:21:21Z</time></trkpt><trkpt lat="44.12077419358844" lon="3.9006194004769674"><ele>254.0</ele><time>2026-04-09T10:21:22Z</time></trkpt><trkpt lat="44.12078165116254" lon="3.900740277345063"><ele>254.0</ele><time>2026-04-09T10:21:23Z</time></trkpt><trkpt lat="44.120777910767394" lon="3.900867085261169"><ele>253.99999999999997</ele><time>2026-04-09T10:21:24Z</time></trkpt><trkpt lat="44.12077923733672" lon="3.901003455218171"><ele>253.99999999999997</ele><time>2026-04-09T10:21:25Z</time></trkpt><trkpt lat="44.12078955743792" lon="3.9011453139200527"><ele>254.0</ele><time>2026-04-09T10:21:26Z</time></trkpt><trkpt lat="44.12083324162149" lon="3.9012764083613676"><ele>254.0</ele><time>2026-04-09T10:21:27Z</time></trkpt><trkpt lat="44.1209081227111" lon="3.9013758485084695"><ele>252.2</ele><time>2026-04-09T10:21:28Z</time></trkpt><trkpt lat="44.12100466832986" lon="3.901431111060345"><ele>250.39999999999998</ele><time>2026-04-09T10:21:29Z</time></trkpt><trkpt lat="44.12110949330305" lon="3.901436161957299"><ele>248.6</ele><time>2026-04-09T10:21:30Z</time></trkpt><trkpt lat="44.12121311834185" lon="3.901415312380784"><ele>246.8</ele><time>2026-04-09T10:21:31Z</time></trkpt><trkpt lat="44.121302854254644" lon="3.901360892175436"><ele>245.0</ele><time>2026-04-09T10:21:32Z</time></trkpt><trkpt lat="44.1213641255554" lon="3.9012922817443347"><ele>245.00000000000003</ele><time>2026-04-09T10:21:33Z</time></trkpt><trkpt lat="44.12142248626145" lon="3.9012253259304703"><ele>245.0</ele><time>2026-04-09T10:21:34Z</time></trkpt><trkpt lat="44.12149057685258" lon="3.90116311454614"><ele>245.0</ele><time>2026-04-09T10:21:35Z</time></trkpt><trkpt lat="44.12157218886163" lon="3.9011188322447845"><ele>245.0</ele><time>2026-04-09T10:21:36Z</time></trkpt><trkpt lat="44.12166307474523" lon="3.9011103570979064"><ele>245.00000000000003</ele><time>2026-04-09T10:21:37Z</time></trkpt><trkpt lat="44.121754959464575" lon="3.9011343453673524"><ele>245.0</ele><time>2026-04-09T10:21:38Z</time></trkpt><trkpt lat="44.12183016614841" lon="3.9012157444107336"><ele>244.4</ele><time>2026-04-09T10:21:39Z</time></trkpt><trkpt lat="44.121905083664345" lon="3.9013000182469133"><ele>243.8</ele><time>2026-04-09T10:21:40Z</time></trkpt><trkpt lat="44.12198531847815" lon="3.9013826592959795"><ele>243.2</ele><time>2026-04-09T10:21:41Z</time></trkpt><trkpt lat="44.122074071545846" lon="3.901454811949138"><ele>242.6</ele><time>2026-04-09T10:21:42Z</time></trkpt><trkpt lat="44.1221591695921" lon="3.9015447624654933"><ele>242.0</ele><time>2026-04-09T10:21:43Z</time></trkpt><trkpt lat="44.122248087926195" lon="3.901639137244788"><ele>242.0</ele><time>2026-04-09T10:21:44Z</time></trkpt><trkpt lat="44.12233820463483" lon="3.901731973021623"><ele>242.0</ele><time>2026-04-09T10:21:45Z</time></trkpt><trkpt lat="44.122420057150315" lon="3.9018198581222694"><ele>242.0</ele><time>2026-04-09T10:21:46Z</time></trkpt><trkpt lat="44.1224919770945" lon="3.9019040642600746"><ele>242.0</ele><time>2026-04-09T10:21:47Z</time></trkpt><trkpt lat="44.122553584231014" lon="3.9019865370377027"><ele>242.0</ele><time>2026-04-09T10:21:48Z</time></trkpt><trkpt lat="44.12259149083412" lon="3.9020737119431357"><ele>240.6</ele><time>2026-04-09T10:21:49Z</time></trkpt><trkpt lat="44.12261725400184" lon="3.9021868484526787"><ele>239.2</ele><time>2026-04-09T10:21:51Z</time></trkpt><trkpt lat="44.12263887263463" lon="3.9022947860169457"><ele>237.8</ele><time>2026-04-09T10:21:54Z</time></trkpt><trkpt lat="44.12265617394746" lon="3.902419684858611"><ele>236.4</ele><time>2026-04-09T10:21:56Z</time></trkpt><trkpt lat="44.122708033207424" lon="3.902586064147054"><ele>235.0</ele><time>2026-04-09T10:21:58Z</time></trkpt><trkpt lat="44.12275962186698" lon="3.9026720777475625"><ele>233.4</ele><time>2026-04-09T10:21:59Z</time></trkpt><trkpt lat="44.122834586034315" lon="3.9027442110158215"><ele>231.8</ele><time>2026-04-09T10:22:00Z</time></trkpt><trkpt lat="44.12293124589321" lon="3.902783416284579"><ele>230.2</ele><time>2026-04-09T10:22:01Z</time></trkpt><trkpt lat="44.12303529436505" lon="3.9027946745250364"><ele>228.6</ele><time>2026-04-09T10:22:02Z</time></trkpt><trkpt lat="44.12314877420516" lon="3.902786685867565"><ele>227.0</ele><time>2026-04-09T10:22:03Z</time></trkpt><trkpt lat="44.12326460884387" lon="3.9027752887222573"><ele>224.25</ele><time>2026-04-09T10:22:04Z</time></trkpt><trkpt lat="44.12338236072664" lon="3.902765919824205"><ele>221.5</ele><time>2026-04-09T10:22:05Z</time></trkpt><trkpt lat="44.12350468831689" lon="3.9027619080728675"><ele>218.75</ele><time>2026-04-09T10:22:06Z</time></trkpt><trkpt lat="44.123628489091836" lon="3.9027564803166443"><ele>216.0</ele><time>2026-04-09T10:22:07Z</time></trkpt><trkpt lat="44.12375414040205" lon="3.9027476789245696"><ele>216.0</ele><time>2026-04-09T10:22:08Z</time></trkpt><trkpt lat="44.12388197910576" lon="3.9027254492021997"><ele>216.0</ele><time>2026-04-09T10:22:09Z</time></trkpt><trkpt lat="44.1240077547429" lon="3.902679897057894"><ele>216.0</ele><time>2026-04-09T10:22:10Z</time></trkpt><trkpt lat="44.12413299323292" lon="3.9026224869052095"><ele>216.0</ele><time>2026-04-09T10:22:11Z</time></trkpt><trkpt lat="44.1242572861733" lon="3.9025557565175264"><ele>219.0</ele><time>2026-04-09T10:22:12Z</time></trkpt><trkpt lat="44.1243758928624" lon="3.902492937430732"><ele>222.0</ele><time>2026-04-09T10:22:13Z</time></trkpt><trkpt lat="44.12448689851992" lon="3.9024349359813297"><ele>225.0</ele><time>2026-04-09T10:22:14Z</time></trkpt><trkpt lat="44.12458922336965" lon="3.902370479711779"><ele>228.0</ele><time>2026-04-09T10:22:15Z</time></trkpt><trkpt lat="44.124670407977305" lon="3.902282036231111"><ele>228.0</ele><time>2026-04-09T10:22:16Z</time></trkpt><trkpt lat="44.12473606382109" lon="3.9021650439921265"><ele>228.0</ele><time>2026-04-09T10:22:17Z</time></trkpt><trkpt lat="44.12475437873842" lon="3.9020266634832637"><ele>228.0</ele><time>2026-04-09T10:22:18Z</time></trkpt><trkpt lat="44.124761115890976" lon="3.901880587226127"><ele>228.0</ele><time>2026-04-09T10:22:19Z</time></trkpt><trkpt lat="44.12477869445894" lon="3.9017429823660295"><ele>228.0</ele><time>2026-04-09T10:22:20Z</time></trkpt><trkpt lat="44.12482050325875" lon="3.901628244090323"><ele>226.8</ele><time>2026-04-09T10:22:21Z</time></trkpt><trkpt lat="44.12489683292132" lon="3.9015364938572534"><ele>225.60000000000002</ele><time>2026-04-09T10:22:22Z</time></trkpt><trkpt lat="44.12499199850063" lon="3.9014728898481223"><ele>224.39999999999998</ele><time>2026-04-09T10:22:23Z</time></trkpt><trkpt lat="44.125103617881486" lon="3.9014753969678226"><ele>223.2</ele><time>2026-04-09T10:22:24Z</time></trkpt><trkpt lat="44.12520746810599" lon="3.901506234539394"><ele>222.0</ele><time>2026-04-09T10:22:25Z</time></trkpt><trkpt lat="44.125305342704486" lon="3.9015694155327485"><ele>222.0</ele><time>2026-04-09T10:22:26Z</time></trkpt><trkpt lat="44.12536767771897" lon="3.9017039784165073"><ele>222.0</ele><time>2026-04-09T10:22:27Z</time></trkpt><trkpt lat="44.12542930499386" lon="3.9018386024403617"><ele>222.0</ele><time>2026-04-09T10:22:28Z</time></trkpt><trkpt lat="44.125499795752" lon="3.901977548040764"><ele>222.0</ele><time>2026-04-09T10:22:29Z</time></trkpt><trkpt lat="44.12555759568114" lon="3.902125796804011"><ele>219.5</ele><time>2026-04-09T10:22:30Z</time></trkpt><trkpt lat="44.125626645278544" lon="3.9022689272600655"><ele>217.0</ele><time>2026-04-09T10:22:31Z</time></trkpt><trkpt lat="44.12571706061035" lon="3.902390624082678"><ele>214.5</ele><time>2026-04-09T10:22:32Z</time></trkpt><trkpt lat="44.12582835061712" lon="3.9024775421940876"><ele>212.0</ele><time>2026-04-09T10:22:33Z</time></trkpt><trkpt lat="44.12595292502517" lon="3.902523531234535"><ele>210.25</ele><time>2026-04-09T10:22:34Z</time></trkpt><trkpt lat="44.12608349524916" lon="3.9025256205561982"><ele>208.5</ele><time>2026-04-09T10:22:35Z</time></trkpt><trkpt lat="44.12621299076351" lon="3.9024910096417265"><ele>206.75</ele><time>2026-04-09T10:22:36Z</time></trkpt><trkpt lat="44.12634193555538" lon="3.9024682926019323"><ele>205.0</ele><time>2026-04-09T10:22:37Z</time></trkpt><trkpt lat="44.1264600562404" lon="3.902508086130902"><ele>205.0</ele><time>2026-04-09T10:22:38Z</time></trkpt><trkpt lat="44.12654989691059" lon="3.9025746318076573"><ele>205.0</ele><time>2026-04-09T10:22:39Z</time></trkpt><trkpt lat="44.126613956824826" lon="3.9026664122516395"><ele>205.0</ele><time>2026-04-09T10:22:40Z</time></trkpt><trkpt lat="44.12667641624782" lon="3.902760337731863"><ele>205.0</ele><time>2026-04-09T10:22:41Z</time></trkpt><trkpt lat="44.12672669433791" lon="3.9028656616094466"><ele>205.0</ele><time>2026-04-09T10:22:42Z</time></trkpt><trkpt lat="44.126763471784024" lon="3.9029822987284173"><ele>204.6</ele><time>2026-04-09T10:22:43Z</time></trkpt><trkpt lat="44.126775340100274" lon="3.9031092142443087"><ele>204.2</ele><time>2026-04-09T10:22:43.999Z</time></trkpt><trkpt lat="44.12675254767021" lon="3.903236424592369"><ele>203.8</ele><time>2026-04-09T10:22:44.999Z</time></trkpt><trkpt lat="44.12673278903337" lon="3.9033797115003965"><ele>203.4</ele><time>2026-04-09T10:22:45.999Z</time></trkpt><trkpt lat="44.126712188550364" lon="3.903528460060421"><ele>203.0</ele><time>2026-04-09T10:22:46.999Z</time></trkpt><trkpt lat="44.12669225658047" lon="3.9036716785279437"><ele>203.0</ele><time>2026-04-09T10:22:47.999Z</time></trkpt><trkpt lat="44.126672987972825" lon="3.903810130058507"><ele>203.0</ele><time>2026-04-09T10:22:48.999Z</time></trkpt><trkpt lat="44.12664804854959" lon="3.903941446631775"><ele>203.0</ele><time>2026-04-09T10:22:49.999Z</time></trkpt><trkpt lat="44.12660517257736" lon="3.9040503815936414"><ele>203.0</ele><time>2026-04-09T10:22:50.999Z</time></trkpt><trkpt lat="44.126551446355705" lon="3.904148756255164"><ele>203.0</ele><time>2026-04-09T10:22:51.999Z</time></trkpt><trkpt lat="44.12645611808986" lon="3.904175390812191"><ele>204.0</ele><time>2026-04-09T10:22:52.999Z</time></trkpt><trkpt lat="44.126362098310075" lon="3.904179740071566"><ele>205.0</ele><time>2026-04-09T10:22:53.999Z</time></trkpt><trkpt lat="44.12627033769933" lon="3.9041933691241244"><ele>206.0</ele><time>2026-04-09T10:22:54.999Z</time></trkpt><trkpt lat="44.12618746045404" lon="3.904244143801829"><ele>207.0</ele><time>2026-04-09T10:22:55.999Z</time></trkpt><trkpt lat="44.12611252192944" lon="3.904335086643464"><ele>208.0</ele><time>2026-04-09T10:22:56.999Z</time></trkpt><trkpt lat="44.126057616025136" lon="3.9044569811297536"><ele>208.0</ele><time>2026-04-09T10:22:57.999Z</time></trkpt><trkpt lat="44.12602664042931" lon="3.9046030707704733"><ele>208.0</ele><time>2026-04-09T10:22:58.999Z</time></trkpt><trkpt lat="44.12599365093322" lon="3.904748644840062"><ele>208.0</ele><time>2026-04-09T10:22:59.999Z</time></trkpt><trkpt lat="44.12594875733892" lon="3.9048868486666635"><ele>208.0</ele><time>2026-04-09T10:23:00.999Z</time></trkpt><trkpt lat="44.125893798310436" lon="3.9050068067471937"><ele>208.0</ele><time>2026-04-09T10:23:01.999Z</time></trkpt><trkpt lat="44.12583299793795" lon="3.9051090240154855"><ele>208.16666666666666</ele><time>2026-04-09T10:23:02.999Z</time></trkpt><trkpt lat="44.125778282505564" lon="3.9052088204834985"><ele>208.33333333333331</ele><time>2026-04-09T10:23:03.999Z</time></trkpt><trkpt lat="44.12572281427994" lon="3.9053078155927383"><ele>208.5</ele><time>2026-04-09T10:23:04.999Z</time></trkpt><trkpt lat="44.125676416836136" lon="3.905413106483888"><ele>208.66666666666669</ele><time>2026-04-09T10:23:05.999Z</time></trkpt><trkpt lat="44.125646285407385" lon="3.905528857316645"><ele>208.83333333333334</ele><time>2026-04-09T10:23:06.999Z</time></trkpt><trkpt lat="44.125629025612795" lon="3.9056508098804823"><ele>209.0</ele><time>2026-04-09T10:23:07.999Z</time></trkpt><trkpt lat="44.12563846545616" lon="3.905775360121876"><ele>207.0</ele><time>2026-04-09T10:23:08.999Z</time></trkpt><trkpt lat="44.12567451809125" lon="3.9059102746639085"><ele>205.0</ele><time>2026-04-09T10:23:09.999Z</time></trkpt><trkpt lat="44.12573744298815" lon="3.9060546971767027"><ele>203.0</ele><time>2026-04-09T10:23:10.999Z</time></trkpt><trkpt lat="44.125814253380625" lon="3.9062040076465787"><ele>201.0</ele><time>2026-04-09T10:23:11.999Z</time></trkpt><trkpt lat="44.125904070947364" lon="3.9063713284424186"><ele>201.0</ele><time>2026-04-09T10:23:12.999Z</time></trkpt><trkpt lat="44.12600176619043" lon="3.906546089335957"><ele>201.0</ele><time>2026-04-09T10:23:14Z</time></trkpt><trkpt lat="44.12610532746421" lon="3.906713852549867"><ele>201.0</ele><time>2026-04-09T10:23:15Z</time></trkpt><trkpt lat="44.126219963737924" lon="3.9068747052780886"><ele>203.66666666666669</ele><time>2026-04-09T10:23:16Z</time></trkpt><trkpt lat="44.126345460415926" lon="3.9070300258841364"><ele>206.33333333333334</ele><time>2026-04-09T10:23:17Z</time></trkpt><trkpt lat="44.12647404367513" lon="3.9071807453161216"><ele>209.0</ele><time>2026-04-09T10:23:18Z</time></trkpt><trkpt lat="44.12661243465424" lon="3.907313680789696"><ele>209.0</ele><time>2026-04-09T10:23:19Z</time></trkpt><trkpt lat="44.12675387012274" lon="3.90743651449576"><ele>209.0</ele><time>2026-04-09T10:23:20Z</time></trkpt><trkpt lat="44.126894696976336" lon="3.9075496153980644"><ele>209.0</ele><time>2026-04-09T10:23:21Z</time></trkpt><trkpt lat="44.12702062820518" lon="3.907681132939225"><ele>207.0</ele><time>2026-04-09T10:23:22Z</time></trkpt><trkpt lat="44.12715931415279" lon="3.907773575702086"><ele>205.0</ele><time>2026-04-09T10:23:23Z</time></trkpt><trkpt lat="44.12728540149295" lon="3.907877888311963"><ele>203.0</ele><time>2026-04-09T10:23:24Z</time></trkpt><trkpt lat="44.12739099648178" lon="3.9079697576880514"><ele>201.0</ele><time>2026-04-09T10:23:25Z</time></trkpt><trkpt lat="44.12747832488116" lon="3.9080861714891406"><ele>205.75</ele><time>2026-04-09T10:23:26Z</time></trkpt><trkpt lat="44.12752276585411" lon="3.9082473359693024"><ele>210.5</ele><time>2026-04-09T10:23:27Z</time></trkpt><trkpt lat="44.127542245038086" lon="3.9084065927137335"><ele>215.25</ele><time>2026-04-09T10:23:28Z</time></trkpt><trkpt lat="44.12752409789091" lon="3.9085570325697003"><ele>220.0</ele><time>2026-04-09T10:23:29Z</time></trkpt><trkpt lat="44.127482397858174" lon="3.908698499513717"><ele>219.5</ele><time>2026-04-09T10:23:30Z</time></trkpt><trkpt lat="44.12741165212584" lon="3.9088071971469738"><ele>219.0</ele><time>2026-04-09T10:23:31Z</time></trkpt><trkpt lat="44.1273216922817" lon="3.9089028497462754"><ele>218.5</ele><time>2026-04-09T10:23:32Z</time></trkpt><trkpt lat="44.12719571648587" lon="3.908944856395065"><ele>218.0</ele><time>2026-04-09T10:23:33Z</time></trkpt><trkpt lat="44.1270557519171" lon="3.90894247036309"><ele>218.0</ele><time>2026-04-09T10:23:34Z</time></trkpt><trkpt lat="44.1269167476544" lon="3.908938487710544"><ele>218.0</ele><time>2026-04-09T10:23:35Z</time></trkpt><trkpt lat="44.12676782364686" lon="3.9089716996799173"><ele>218.0</ele><time>2026-04-09T10:23:36Z</time></trkpt><trkpt lat="44.126621854177756" lon="3.9090409679955958"><ele>218.0</ele><time>2026-04-09T10:23:37Z</time></trkpt><trkpt lat="44.126482753951606" lon="3.9091426986540054"><ele>216.33333333333334</ele><time>2026-04-09T10:23:38Z</time></trkpt><trkpt lat="44.126361555797274" lon="3.909283111989408"><ele>214.66666666666669</ele><time>2026-04-09T10:23:39Z</time></trkpt><trkpt lat="44.12625441935312" lon="3.909446207708056"><ele>213.0</ele><time>2026-04-09T10:23:40Z</time></trkpt><trkpt lat="44.12617065652464" lon="3.909631716061029"><ele>213.0</ele><time>2026-04-09T10:23:41Z</time></trkpt><trkpt lat="44.12610034830038" lon="3.9098171564431063"><ele>213.0</ele><time>2026-04-09T10:23:42Z</time></trkpt><trkpt lat="44.126037226795845" lon="3.9099993030713915"><ele>213.0</ele><time>2026-04-09T10:23:43Z</time></trkpt><trkpt lat="44.125974399950955" lon="3.9101762500534085"><ele>213.0</ele><time>2026-04-09T10:23:44Z</time></trkpt><trkpt lat="44.125917643989474" lon="3.9103494322213836"><ele>214.0</ele><time>2026-04-09T10:23:45Z</time></trkpt><trkpt lat="44.125877712101875" lon="3.9105265341225866"><ele>215.0</ele><time>2026-04-09T10:23:46Z</time></trkpt><trkpt lat="44.12586946895211" lon="3.9107112315753296"><ele>216.0</ele><time>2026-04-09T10:23:47Z</time></trkpt><trkpt lat="44.125878903877805" lon="3.9108945863444884"><ele>217.0</ele><time>2026-04-09T10:23:48Z</time></trkpt><trkpt lat="44.12588447805603" lon="3.911069402308586"><ele>217.0</ele><time>2026-04-09T10:23:49Z</time></trkpt><trkpt lat="44.1258783627358" lon="3.9112415224911206"><ele>217.0</ele><time>2026-04-09T10:23:50Z</time></trkpt><trkpt lat="44.1258709702098" lon="3.9114059139309667"><ele>217.0</ele><time>2026-04-09T10:23:51Z</time></trkpt><trkpt lat="44.12587678741662" lon="3.911567413661818"><ele>217.0</ele><time>2026-04-09T10:23:52Z</time></trkpt><trkpt lat="44.12590671314608" lon="3.911727725411957"><ele>214.25</ele><time>2026-04-09T10:23:53Z</time></trkpt><trkpt lat="44.12596474403722" lon="3.9118724477606825"><ele>211.5</ele><time>2026-04-09T10:23:54Z</time></trkpt><trkpt lat="44.12604514558543" lon="3.9119994415791193"><ele>208.75</ele><time>2026-04-09T10:23:55Z</time></trkpt><trkpt lat="44.12614541894693" lon="3.9121120320478244"><ele>206.0</ele><time>2026-04-09T10:23:56Z</time></trkpt><trkpt lat="44.126254381711995" lon="3.912217666810922"><ele>206.0</ele><time>2026-04-09T10:23:57Z</time></trkpt><trkpt lat="44.12637159255312" lon="3.9123162789722636"><ele>206.0</ele><time>2026-04-09T10:23:58Z</time></trkpt><trkpt lat="44.12649536999015" lon="3.912415409365486"><ele>206.0</ele><time>2026-04-09T10:23:59Z</time></trkpt><trkpt lat="44.12662993963856" lon="3.91249832305216"><ele>206.0</ele><time>2026-04-09T10:24:00Z</time></trkpt><trkpt lat="44.126757673861384" lon="3.912592387173819"><ele>207.5</ele><time>2026-04-09T10:24:01Z</time></trkpt><trkpt lat="44.126888909055864" lon="3.912650725640928"><ele>209.0</ele><time>2026-04-09T10:24:02Z</time></trkpt><trkpt lat="44.12700453064568" lon="3.9127021787636687"><ele>210.5</ele><time>2026-04-09T10:24:03Z</time></trkpt><trkpt lat="44.12709323163092" lon="3.912732690632933"><ele>212.0</ele><time>2026-04-09T10:24:04Z</time></trkpt><trkpt lat="44.12713725938514" lon="3.9128566063406547"><ele>212.0</ele><time>2026-04-09T10:24:05Z</time></trkpt><trkpt lat="44.12716796807405" lon="3.9129705440484406"><ele>212.0</ele><time>2026-04-09T10:24:06Z</time></trkpt><trkpt lat="44.127125142267516" lon="3.9130922549215157"><ele>212.0</ele><time>2026-04-09T10:24:07Z</time></trkpt><trkpt lat="44.12704689353914" lon="3.9131783588177624"><ele>212.0</ele><time>2026-04-09T10:24:08Z</time></trkpt><trkpt lat="44.12696518142476" lon="3.9132537945300347"><ele>212.0</ele><time>2026-04-09T10:24:09Z</time></trkpt><trkpt lat="44.12688673918262" lon="3.913341177083305"><ele>214.39999999999998</ele><time>2026-04-09T10:24:10Z</time></trkpt><trkpt lat="44.126812519775484" lon="3.9134308268103695"><ele>216.79999999999998</ele><time>2026-04-09T10:24:11Z</time></trkpt><trkpt lat="44.12674029961864" lon="3.913516916175784"><ele>219.2</ele><time>2026-04-09T10:24:12Z</time></trkpt><trkpt lat="44.12666866632125" lon="3.9135880260404203"><ele>221.6</ele><time>2026-04-09T10:24:13Z</time></trkpt><trkpt lat="44.1266007090377" lon="3.913662917094052"><ele>224.0</ele><time>2026-04-09T10:24:14Z</time></trkpt><trkpt lat="44.12649487741354" lon="3.913646150374624"><ele>224.83333333333334</ele><time>2026-04-09T10:24:15Z</time></trkpt><trkpt lat="44.12640620295257" lon="3.9136137015693873"><ele>225.66666666666669</ele><time>2026-04-09T10:24:16Z</time></trkpt><trkpt lat="44.12632363057796" lon="3.9135825734218206"><ele>226.5</ele><time>2026-04-09T10:24:17Z</time></trkpt><trkpt lat="44.12625042500473" lon="3.9135490214588784"><ele>227.33333333333331</ele><time>2026-04-09T10:24:18Z</time></trkpt><trkpt lat="44.12617517564798" lon="3.9135171485601843"><ele>228.16666666666666</ele><time>2026-04-09T10:24:19Z</time></trkpt><trkpt lat="44.12609705088496" lon="3.913471663076798"><ele>229.0</ele><time>2026-04-09T10:24:20Z</time></trkpt><trkpt lat="44.126012909810825" lon="3.9134136775634314"><ele>225.6</ele><time>2026-04-09T10:24:21Z</time></trkpt><trkpt lat="44.12592169138715" lon="3.913349655364826"><ele>222.2</ele><time>2026-04-09T10:24:22Z</time></trkpt><trkpt lat="44.125824081550206" lon="3.9132776714842876"><ele>218.79999999999998</ele><time>2026-04-09T10:24:23Z</time></trkpt><trkpt lat="44.12572822745925" lon="3.9132072865069585"><ele>215.39999999999998</ele><time>2026-04-09T10:24:24Z</time></trkpt><trkpt lat="44.12563448924985" lon="3.913145366062168"><ele>212.0</ele><time>2026-04-09T10:24:25Z</time></trkpt><trkpt lat="44.1255437246487" lon="3.913092791575916"><ele>210.33333333333334</ele><time>2026-04-09T10:24:25.999Z</time></trkpt><trkpt lat="44.12545751981931" lon="3.9130669599502332"><ele>208.66666666666669</ele><time>2026-04-09T10:24:26.999Z</time></trkpt><trkpt lat="44.125365546595596" lon="3.913072211974153"><ele>207.0</ele><time>2026-04-09T10:24:27.999Z</time></trkpt><trkpt lat="44.12528536783878" lon="3.913108984707266"><ele>205.33333333333331</ele><time>2026-04-09T10:24:28.999Z</time></trkpt><trkpt lat="44.125227974232146" lon="3.9131905972633567"><ele>203.66666666666666</ele><time>2026-04-09T10:24:29.999Z</time></trkpt><trkpt lat="44.12519132362086" lon="3.913317107131449"><ele>202.0</ele><time>2026-04-09T10:24:30.999Z</time></trkpt><trkpt lat="44.12515393217455" lon="3.9134503618949843"><ele>202.0</ele><time>2026-04-09T10:24:31.999Z</time></trkpt><trkpt lat="44.1251239022903" lon="3.9135968853956222"><ele>202.0</ele><time>2026-04-09T10:24:32.999Z</time></trkpt><trkpt lat="44.12509293746029" lon="3.9137540469772114"><ele>202.0</ele><time>2026-04-09T10:24:33.999Z</time></trkpt><trkpt lat="44.12506088055266" lon="3.913916751453501"><ele>202.0</ele><time>2026-04-09T10:24:34.999Z</time></trkpt><trkpt lat="44.12502744864437" lon="3.9140844461480175"><ele>201.75</ele><time>2026-04-09T10:24:35.999Z</time></trkpt><trkpt lat="44.12500858608134" lon="3.9142587249236764"><ele>201.5</ele><time>2026-04-09T10:24:36.999Z</time></trkpt><trkpt lat="44.12497440940664" lon="3.9144122831753903"><ele>201.25</ele><time>2026-04-09T10:24:37.999Z</time></trkpt><trkpt lat="44.124944167152734" lon="3.914564003351128"><ele>201.0</ele><time>2026-04-09T10:24:38.999Z</time></trkpt><trkpt lat="44.12492448745987" lon="3.914714071231303"><ele>201.0</ele><time>2026-04-09T10:24:39.999Z</time></trkpt><trkpt lat="44.124929072757205" lon="3.9148695697146136"><ele>201.0</ele><time>2026-04-09T10:24:40.999Z</time></trkpt><trkpt lat="44.12495617646547" lon="3.915022911247532"><ele>201.0</ele><time>2026-04-09T10:24:41.999Z</time></trkpt><trkpt lat="44.124974976241724" lon="3.915179378829709"><ele>201.0</ele><time>2026-04-09T10:24:42.999Z</time></trkpt><trkpt lat="44.12501121328006" lon="3.915332051328069"><ele>199.25</ele><time>2026-04-09T10:24:43.999Z</time></trkpt><trkpt lat="44.12505046877279" lon="3.9154837880290994"><ele>197.5</ele><time>2026-04-09T10:24:44.999Z</time></trkpt><trkpt lat="44.12509517596885" lon="3.915637713844077"><ele>195.75</ele><time>2026-04-09T10:24:45.999Z</time></trkpt><trkpt lat="44.125155044680795" lon="3.915774415414517"><ele>194.0</ele><time>2026-04-09T10:24:46.999Z</time></trkpt><trkpt lat="44.12521344271063" lon="3.915908227983682"><ele>192.39999999999998</ele><time>2026-04-09T10:24:47.999Z</time></trkpt><trkpt lat="44.125286638733584" lon="3.9160325850788964"><ele>190.8</ele><time>2026-04-09T10:24:48.999Z</time></trkpt><trkpt lat="44.12536724001061" lon="3.916144961372544"><ele>189.2</ele><time>2026-04-09T10:24:49.999Z</time></trkpt><trkpt lat="44.12545919448734" lon="3.916236905624161"><ele>187.60000000000002</ele><time>2026-04-09T10:24:50.999Z</time></trkpt><trkpt lat="44.12554704115211" lon="3.9162892962399543"><ele>186.0</ele><time>2026-04-09T10:24:51.999Z</time></trkpt><trkpt lat="44.12562844031195" lon="3.9163362296795214"><ele>186.00000000000003</ele><time>2026-04-09T10:24:52.999Z</time></trkpt><trkpt lat="44.12570083432152" lon="3.916327115686126"><ele>186.0</ele><time>2026-04-09T10:24:53.999Z</time></trkpt><trkpt lat="44.125766894805544" lon="3.916341208762438"><ele>186.0</ele><time>2026-04-09T10:24:54.999Z</time></trkpt><trkpt lat="44.1258325692585" lon="3.9163671320440603"><ele>186.0</ele><time>2026-04-09T10:24:55.999Z</time></trkpt><trkpt lat="44.12588283988828" lon="3.916427691220648"><ele>186.0</ele><time>2026-04-09T10:24:56.999Z</time></trkpt><trkpt lat="44.125924405920856" lon="3.9164975160390636"><ele>186.00000000000003</ele><time>2026-04-09T10:24:57.999Z</time></trkpt><trkpt lat="44.12596950012419" lon="3.9166363482775903"><ele>186.0</ele><time>2026-04-09T10:24:59.999Z</time></trkpt><trkpt lat="44.1259758612358" lon="3.9167462793967216"><ele>187.33333333333334</ele><time>2026-04-09T10:25:01.999Z</time></trkpt><trkpt lat="44.12597425201843" lon="3.916839587325402"><ele>188.66666666666669</ele><time>2026-04-09T10:25:05.999Z</time></trkpt><trkpt lat="44.12611042837468" lon="3.9168306973048663"><ele>190.0</ele><time>2026-04-09T10:25:07.999Z</time></trkpt><trkpt lat="44.12619181950121" lon="3.9167970716302163"><ele>191.33333333333334</ele><time>2026-04-09T10:25:09.999Z</time></trkpt><trkpt lat="44.12625679893558" lon="3.916737815322404"><ele>192.66666666666669</ele><time>2026-04-09T10:25:12.999Z</time></trkpt><trkpt lat="44.12630785398003" lon="3.9166522452064525"><ele>194.0</ele><time>2026-04-09T10:25:15.999Z</time></trkpt><trkpt lat="44.126254931617915" lon="3.916739871599403"><ele>194.16666666666669</ele><time>2026-04-09T10:27:37Z</time></trkpt><trkpt lat="44.12619965287745" lon="3.916667330929051"><ele>194.33333333333334</ele><time>2026-04-09T10:28:39Z</time></trkpt><trkpt lat="44.12626527345348" lon="3.9166197560998794"><ele>194.5</ele><time>2026-04-09T11:37:47Z</time></trkpt><trkpt lat="44.12632146424697" lon="3.916564023539158"><ele>194.66666666666669</ele><time>2026-04-09T11:37:53Z</time></trkpt><trkpt lat="44.12629052272469" lon="3.9166431807063304"><ele>194.83333333333334</ele><time>2026-04-09T11:38:59Z</time></trkpt><trkpt lat="44.126195486625164" lon="3.916686725195485"><ele>195.0</ele><time>2026-04-09T11:39:20Z</time></trkpt><trkpt lat="44.12613179752977" lon="3.916645580042267"><ele>195.0</ele><time>2026-04-09T11:39:53Z</time></trkpt><trkpt lat="44.12619461153491" lon="3.916674923074334"><ele>195.0</ele><time>2026-04-09T11:40:31Z</time></trkpt><trkpt lat="44.12626111732504" lon="3.9166801521097367"><ele>195.0</ele><time>2026-04-09T11:48:41Z</time></trkpt><trkpt lat="44.12631089911215" lon="3.9166053682160133"><ele>195.0</ele><time>2026-04-09T11:48:48Z</time></trkpt><trkpt lat="44.12635654031166" lon="3.9165236992101287"><ele>195.0</ele><time>2026-04-09T11:49:09Z</time></trkpt><trkpt lat="44.12630657100864" lon="3.9165884811651597"><ele>195.0</ele><time>2026-04-09T11:49:18Z</time></trkpt><trkpt lat="44.12624090515872" lon="3.916629216156674"><ele>195.0</ele><time>2026-04-09T11:49:24Z</time></trkpt><trkpt lat="44.12630686886341" lon="3.9166092078070083"><ele>195.0</ele><time>2026-04-09T11:53:12Z</time></trkpt><trkpt lat="44.12634206400046" lon="3.916522088082387"><ele>195.0</ele><time>2026-04-09T11:53:15Z</time></trkpt><trkpt lat="44.12632805304787" lon="3.9164148835368993"><ele>195.0</ele><time>2026-04-09T11:53:18Z</time></trkpt><trkpt lat="44.12627404156164" lon="3.916334178507233"><ele>195.0</ele><time>2026-04-09T11:53:21Z</time></trkpt><trkpt lat="44.12621977672966" lon="3.9162847831123226"><ele>195.0</ele><time>2026-04-09T11:53:23Z</time></trkpt><trkpt lat="44.12614866020305" lon="3.916241411057857"><ele>195.0</ele><time>2026-04-09T11:53:25Z</time></trkpt><trkpt lat="44.126069636533344" lon="3.916223873386901"><ele>195.0</ele><time>2026-04-09T11:53:27Z</time></trkpt><trkpt lat="44.12599277235332" lon="3.9162310642540477"><ele>195.0</ele><time>2026-04-09T11:53:29Z</time></trkpt><trkpt lat="44.125920247986684" lon="3.9162403516302375"><ele>195.0</ele><time>2026-04-09T11:53:31Z</time></trkpt><trkpt lat="44.125854954973406" lon="3.91625184789826"><ele>195.0</ele><time>2026-04-09T11:53:34Z</time></trkpt><trkpt lat="44.12579996775689" lon="3.916318673454187"><ele>195.0</ele><time>2026-04-09T12:02:32Z</time></trkpt><trkpt lat="44.125823456289964" lon="3.91645367523529"><ele>195.0</ele><time>2026-04-09T12:02:35Z</time></trkpt><trkpt lat="44.12586993369197" lon="3.9165345688302855"><ele>195.0</ele><time>2026-04-09T12:02:36Z</time></trkpt><trkpt lat="44.12593415869483" lon="3.9166598651709688"><ele>195.0</ele><time>2026-04-09T12:02:37Z</time></trkpt><trkpt lat="44.125954421397374" lon="3.916770031945683"><ele>195.0</ele><time>2026-04-09T12:02:38Z</time></trkpt><trkpt lat="44.12595018904288" lon="3.916888356760914"><ele>195.0</ele><time>2026-04-09T12:02:39Z</time></trkpt><trkpt lat="44.12591555419012" lon="3.916998902116812"><ele>195.0</ele><time>2026-04-09T12:02:40Z</time></trkpt><trkpt lat="44.12586260940812" lon="3.9170976408769183"><ele>194.8</ele><time>2026-04-09T12:02:41Z</time></trkpt><trkpt lat="44.12579819447938" lon="3.917184680849545"><ele>194.6</ele><time>2026-04-09T12:02:42Z</time></trkpt><trkpt lat="44.125729472511296" lon="3.9172803092608826"><ele>194.39999999999998</ele><time>2026-04-09T12:02:43Z</time></trkpt><trkpt lat="44.1256552809302" lon="3.9173775720903925"><ele>194.2</ele><time>2026-04-09T12:02:44Z</time></trkpt><trkpt lat="44.125579214301524" lon="3.9174757116874126"><ele>194.0</ele><time>2026-04-09T12:02:45Z</time></trkpt><trkpt lat="44.1255078799161" lon="3.9175821710877132"><ele>193.0</ele><time>2026-04-09T12:02:46Z</time></trkpt><trkpt lat="44.12543422889318" lon="3.9176816496529616"><ele>192.0</ele><time>2026-04-09T12:02:47Z</time></trkpt><trkpt lat="44.12536479109328" lon="3.9177826967912854"><ele>191.0</ele><time>2026-04-09T12:02:48Z</time></trkpt><trkpt lat="44.1253019724477" lon="3.917887991568619"><ele>190.0</ele><time>2026-04-09T12:02:49Z</time></trkpt><trkpt lat="44.125240827338644" lon="3.917991400179448"><ele>189.0</ele><time>2026-04-09T12:02:50Z</time></trkpt><trkpt lat="44.12518012793903" lon="3.9180976085518617"><ele>189.0</ele><time>2026-04-09T12:02:51Z</time></trkpt><trkpt lat="44.12511853525083" lon="3.918214929415301"><ele>189.0</ele><time>2026-04-09T12:02:52Z</time></trkpt><trkpt lat="44.12505639981154" lon="3.918339898070294"><ele>189.0</ele><time>2026-04-09T12:02:53Z</time></trkpt><trkpt lat="44.12499629968384" lon="3.9184748371628624"><ele>189.0</ele><time>2026-04-09T12:02:54Z</time></trkpt><trkpt lat="44.124937502092344" lon="3.918609973521055"><ele>189.0</ele><time>2026-04-09T12:02:55Z</time></trkpt><trkpt lat="44.124877333968875" lon="3.918746414261346"><ele>188.0</ele><time>2026-04-09T12:02:56Z</time></trkpt><trkpt lat="44.12481325000284" lon="3.91888115709057"><ele>187.0</ele><time>2026-04-09T12:02:57Z</time></trkpt><trkpt lat="44.124747647942186" lon="3.9190115574015163"><ele>186.0</ele><time>2026-04-09T12:02:58Z</time></trkpt><trkpt lat="44.12467813043143" lon="3.9191355554804224"><ele>185.0</ele><time>2026-04-09T12:02:59Z</time></trkpt><trkpt lat="44.124607931967034" lon="3.9192589332451004"><ele>185.0</ele><time>2026-04-09T12:03:00Z</time></trkpt><trkpt lat="44.12453720106766" lon="3.9193876570834867"><ele>185.0</ele><time>2026-04-09T12:03:01Z</time></trkpt><trkpt lat="44.12446386145968" lon="3.919516719092791"><ele>185.0</ele><time>2026-04-09T12:03:02Z</time></trkpt><trkpt lat="44.12438649915159" lon="3.9196480202742836"><ele>185.0</ele><time>2026-04-09T12:03:03Z</time></trkpt><trkpt lat="44.12430975607517" lon="3.919781837648048"><ele>185.0</ele><time>2026-04-09T12:03:04Z</time></trkpt><trkpt lat="44.12423190834355" lon="3.9199133716217265"><ele>185.0</ele><time>2026-04-09T12:03:05Z</time></trkpt><trkpt lat="44.124153488618695" lon="3.9200496257370365"><ele>185.0</ele><time>2026-04-09T12:03:06Z</time></trkpt><trkpt lat="44.124067844253524" lon="3.9201874277880955"><ele>185.0</ele><time>2026-04-09T12:03:07Z</time></trkpt><trkpt lat="44.12397472848235" lon="3.920327195936863"><ele>184.75</ele><time>2026-04-09T12:03:08Z</time></trkpt><trkpt lat="44.12387233676268" lon="3.9204642226447457"><ele>184.5</ele><time>2026-04-09T12:03:09Z</time></trkpt><trkpt lat="44.12376443564149" lon="3.9205954171800452"><ele>184.25</ele><time>2026-04-09T12:03:10Z</time></trkpt><trkpt lat="44.12364962422795" lon="3.9207217694317844"><ele>184.0</ele><time>2026-04-09T12:03:11Z</time></trkpt><trkpt lat="44.12352822399939" lon="3.920846315996856"><ele>183.33333333333334</ele><time>2026-04-09T12:03:12Z</time></trkpt><trkpt lat="44.12340307672399" lon="3.9209645258613484"><ele>182.66666666666666</ele><time>2026-04-09T12:03:13Z</time></trkpt><trkpt lat="44.123276847697056" lon="3.921077358135161"><ele>182.0</ele><time>2026-04-09T12:03:14Z</time></trkpt><trkpt lat="44.1231412446016" lon="3.9211705218203905"><ele>182.0</ele><time>2026-04-09T12:03:15Z</time></trkpt><trkpt lat="44.12301695499491" lon="3.921289326567801"><ele>182.0</ele><time>2026-04-09T12:03:16Z</time></trkpt><trkpt lat="44.12290157706358" lon="3.921426100000739"><ele>182.0</ele><time>2026-04-09T12:03:17Z</time></trkpt><trkpt lat="44.122777796744266" lon="3.921545061696514"><ele>182.0</ele><time>2026-04-09T12:03:18Z</time></trkpt><trkpt lat="44.12265427895533" lon="3.921665262387013"><ele>182.0</ele><time>2026-04-09T12:03:19Z</time></trkpt><trkpt lat="44.12253142949241" lon="3.9217846546220945"><ele>182.0</ele><time>2026-04-09T12:03:20Z</time></trkpt><trkpt lat="44.12240568080316" lon="3.9219058063385392"><ele>181.25</ele><time>2026-04-09T12:03:21Z</time></trkpt><trkpt lat="44.12228480204484" lon="3.9220264445944872"><ele>180.5</ele><time>2026-04-09T12:03:22Z</time></trkpt><trkpt lat="44.12216745933837" lon="3.922149759636911"><ele>179.75</ele><time>2026-04-09T12:03:23Z</time></trkpt><trkpt lat="44.12204859384163" lon="3.9222722763361837"><ele>179.0</ele><time>2026-04-09T12:03:24Z</time></trkpt><trkpt lat="44.121929117152774" lon="3.922395716196236"><ele>179.0</ele><time>2026-04-09T12:03:25Z</time></trkpt><trkpt lat="44.12180998966154" lon="3.9225208089626924"><ele>179.0</ele><time>2026-04-09T12:03:26Z</time></trkpt><trkpt lat="44.121678098366466" lon="3.922626333093236"><ele>179.0</ele><time>2026-04-09T12:03:27Z</time></trkpt><trkpt lat="44.121563283201866" lon="3.9227688673438252"><ele>178.0</ele><time>2026-04-09T12:03:28Z</time></trkpt><trkpt lat="44.12143807850209" lon="3.922892544467778"><ele>177.0</ele><time>2026-04-09T12:03:29Z</time></trkpt><trkpt lat="44.121312499157575" lon="3.923017351421411"><ele>176.0</ele><time>2026-04-09T12:03:30Z</time></trkpt><trkpt lat="44.12117720059649" lon="3.923124595281652"><ele>176.0</ele><time>2026-04-09T12:03:31Z</time></trkpt><trkpt lat="44.1210525060827" lon="3.9232478229886825"><ele>176.0</ele><time>2026-04-09T12:03:32Z</time></trkpt><trkpt lat="44.12092697688369" lon="3.9233718758609935"><ele>176.0</ele><time>2026-04-09T12:03:33Z</time></trkpt><trkpt lat="44.12080248383713" lon="3.9234952278769306"><ele>175.33333333333331</ele><time>2026-04-09T12:03:34Z</time></trkpt><trkpt lat="44.12068170738715" lon="3.923626073840226"><ele>174.66666666666666</ele><time>2026-04-09T12:03:35Z</time></trkpt><trkpt lat="44.12056662821172" lon="3.923768938952873"><ele>174.0</ele><time>2026-04-09T12:03:36Z</time></trkpt><trkpt lat="44.12046119728589" lon="3.923932454216532"><ele>174.0</ele><time>2026-04-09T12:03:37Z</time></trkpt><trkpt lat="44.12034257889773" lon="3.924070267752509"><ele>174.0</ele><time>2026-04-09T12:03:38Z</time></trkpt><trkpt lat="44.12022141441313" lon="3.9241984923283226"><ele>174.0</ele><time>2026-04-09T12:03:39Z</time></trkpt><trkpt lat="44.12010159371432" lon="3.924318721752621"><ele>176.75</ele><time>2026-04-09T12:03:40Z</time></trkpt><trkpt lat="44.119978501508015" lon="3.924409157426871"><ele>179.5</ele><time>2026-04-09T12:03:41Z</time></trkpt><trkpt lat="44.11986595832044" lon="3.924517451555668"><ele>182.25</ele><time>2026-04-09T12:03:42Z</time></trkpt><trkpt lat="44.11974852278796" lon="3.9245969997657566"><ele>185.0</ele><time>2026-04-09T12:03:43Z</time></trkpt><trkpt lat="44.119631809004446" lon="3.9246682475716783"><ele>185.0</ele><time>2026-04-09T12:03:44Z</time></trkpt><trkpt lat="44.11950936461389" lon="3.9247216807543346"><ele>185.0</ele><time>2026-04-09T12:03:45Z</time></trkpt><trkpt lat="44.11937675241002" lon="3.9247786958759376"><ele>185.0</ele><time>2026-04-09T12:03:46Z</time></trkpt><trkpt lat="44.11923716393871" lon="3.924847198563235"><ele>185.0</ele><time>2026-04-09T12:03:47Z</time></trkpt><trkpt lat="44.11909883756163" lon="3.924927690649808"><ele>184.5</ele><time>2026-04-09T12:03:48Z</time></trkpt><trkpt lat="44.1189648894444" lon="3.925006760919891"><ele>184.0</ele><time>2026-04-09T12:03:49Z</time></trkpt><trkpt lat="44.118838094997855" lon="3.9250822500170046"><ele>183.5</ele><time>2026-04-09T12:03:50Z</time></trkpt><trkpt lat="44.11871969893638" lon="3.925162434495981"><ele>183.0</ele><time>2026-04-09T12:03:51Z</time></trkpt><trkpt lat="44.118614403692064" lon="3.9252438723037093"><ele>183.0</ele><time>2026-04-09T12:03:52Z</time></trkpt><trkpt lat="44.11851327446848" lon="3.9253284680931952"><ele>183.0</ele><time>2026-04-09T12:03:53Z</time></trkpt><trkpt lat="44.11842553698561" lon="3.925426682514079"><ele>183.0</ele><time>2026-04-09T12:03:54Z</time></trkpt><trkpt lat="44.118357434059895" lon="3.9255433806887505"><ele>183.0</ele><time>2026-04-09T12:03:55Z</time></trkpt><trkpt lat="44.118312686912645" lon="3.9256782179328993"><ele>183.0</ele><time>2026-04-09T12:03:56Z</time></trkpt><trkpt lat="44.11829077921705" lon="3.925826942989049"><ele>184.5</ele><time>2026-04-09T12:03:57Z</time></trkpt><trkpt lat="44.11828754484558" lon="3.925987218291813"><ele>186.0</ele><time>2026-04-09T12:03:58Z</time></trkpt><trkpt lat="44.11828482937927" lon="3.926162061278389"><ele>187.5</ele><time>2026-04-09T12:03:59Z</time></trkpt><trkpt lat="44.11828216733174" lon="3.9263467165544035"><ele>189.0</ele><time>2026-04-09T12:04:00Z</time></trkpt><trkpt lat="44.118248534208384" lon="3.926528919760349"><ele>186.0</ele><time>2026-04-09T12:04:01Z</time></trkpt><trkpt lat="44.11821270773772" lon="3.9267121220047776"><ele>183.0</ele><time>2026-04-09T12:04:02Z</time></trkpt><trkpt lat="44.11819367677451" lon="3.9269041208078863"><ele>180.0</ele><time>2026-04-09T12:04:03Z</time></trkpt><trkpt lat="44.11819002880177" lon="3.9270999893472878"><ele>177.0</ele><time>2026-04-09T12:04:04Z</time></trkpt><trkpt lat="44.11818639536045" lon="3.9272999893763303"><ele>177.0</ele><time>2026-04-09T12:04:05Z</time></trkpt><trkpt lat="44.11817369567629" lon="3.9275008187435527"><ele>177.0</ele><time>2026-04-09T12:04:06Z</time></trkpt><trkpt lat="44.118138063016936" lon="3.9277014877457463"><ele>177.0</ele><time>2026-04-09T12:04:07Z</time></trkpt><trkpt lat="44.11808873982447" lon="3.927899765965171"><ele>177.0</ele><time>2026-04-09T12:04:08Z</time></trkpt><trkpt lat="44.11804529821306" lon="3.9280924110297954"><ele>176.75</ele><time>2026-04-09T12:04:09Z</time></trkpt><trkpt lat="44.11800972336423" lon="3.9282841913525877"><ele>176.5</ele><time>2026-04-09T12:04:10Z</time></trkpt><trkpt lat="44.1179587035293" lon="3.9284614394442454"><ele>176.25</ele><time>2026-04-09T12:04:11Z</time></trkpt><trkpt lat="44.11794414965532" lon="3.9286427875177408"><ele>176.0</ele><time>2026-04-09T12:04:12Z</time></trkpt><trkpt lat="44.11790651844756" lon="3.9288199633974483"><ele>175.75</ele><time>2026-04-09T12:04:13Z</time></trkpt><trkpt lat="44.1178582733132" lon="3.928987794910563"><ele>175.5</ele><time>2026-04-09T12:04:14Z</time></trkpt><trkpt lat="44.117870408001686" lon="3.929176989400998"><ele>175.25</ele><time>2026-04-09T12:04:15Z</time></trkpt><trkpt lat="44.11787587552045" lon="3.929370543883992"><ele>175.0</ele><time>2026-04-09T12:04:16Z</time></trkpt><trkpt lat="44.11789339144013" lon="3.92956130643558"><ele>174.25</ele><time>2026-04-09T12:04:17Z</time></trkpt><trkpt lat="44.11790993787185" lon="3.929751283103227"><ele>173.5</ele><time>2026-04-09T12:04:18Z</time></trkpt><trkpt lat="44.11790263935625" lon="3.9299452518776397"><ele>172.75</ele><time>2026-04-09T12:04:19Z</time></trkpt><trkpt lat="44.11791288927863" lon="3.930140620294138"><ele>172.0</ele><time>2026-04-09T12:04:20Z</time></trkpt><trkpt lat="44.117940160396685" lon="3.9303267962172868"><ele>171.5</ele><time>2026-04-09T12:04:21Z</time></trkpt><trkpt lat="44.11796556754144" lon="3.930514008931785"><ele>171.0</ele><time>2026-04-09T12:04:22Z</time></trkpt><trkpt lat="44.11796900864078" lon="3.9307022462718297"><ele>170.5</ele><time>2026-04-09T12:04:23Z</time></trkpt><trkpt lat="44.11797430023594" lon="3.9308900189936073"><ele>170.0</ele><time>2026-04-09T12:04:24Z</time></trkpt><trkpt lat="44.11797877795362" lon="3.9310750322378216"><ele>169.75</ele><time>2026-04-09T12:04:25Z</time></trkpt><trkpt lat="44.11798115355508" lon="3.9312576139290454"><ele>169.5</ele><time>2026-04-09T12:04:26Z</time></trkpt><trkpt lat="44.117975529831114" lon="3.9314401895579114"><ele>169.25</ele><time>2026-04-09T12:04:27Z</time></trkpt><trkpt lat="44.117951046439664" lon="3.931620560402918"><ele>169.0</ele><time>2026-04-09T12:04:28Z</time></trkpt><trkpt lat="44.117958678809025" lon="3.9318004407947353"><ele>169.5</ele><time>2026-04-09T12:04:29Z</time></trkpt><trkpt lat="44.117943207577454" lon="3.931973656043961"><ele>170.0</ele><time>2026-04-09T12:04:30Z</time></trkpt><trkpt lat="44.11792665731191" lon="3.932144359419411"><ele>170.5</ele><time>2026-04-09T12:04:31Z</time></trkpt><trkpt lat="44.117911997682455" lon="3.9323121044957894"><ele>171.0</ele><time>2026-04-09T12:04:32Z</time></trkpt><trkpt lat="44.1179020855312" lon="3.9324809535532594"><ele>171.25</ele><time>2026-04-09T12:04:33Z</time></trkpt><trkpt lat="44.11788859165994" lon="3.9326479018307494"><ele>171.5</ele><time>2026-04-09T12:04:34Z</time></trkpt><trkpt lat="44.11787107924135" lon="3.932816625939819"><ele>171.75</ele><time>2026-04-09T12:04:35Z</time></trkpt><trkpt lat="44.1178501158817" lon="3.9329886321596166"><ele>172.0</ele><time>2026-04-09T12:04:36Z</time></trkpt><trkpt lat="44.117824328160715" lon="3.9331616071638646"><ele>172.0</ele><time>2026-04-09T12:04:37Z</time></trkpt><trkpt lat="44.11780115448323" lon="3.933342538547061"><ele>172.0</ele><time>2026-04-09T12:04:38Z</time></trkpt><trkpt lat="44.11777967096777" lon="3.9335274324446807"><ele>172.0</ele><time>2026-04-09T12:04:39Z</time></trkpt><trkpt lat="44.11775960585299" lon="3.9337161569713666"><ele>172.0</ele><time>2026-04-09T12:04:40Z</time></trkpt><trkpt lat="44.11773939696773" lon="3.9339077892784093"><ele>172.75</ele><time>2026-04-09T12:04:41Z</time></trkpt><trkpt lat="44.11772104150872" lon="3.9341011138191786"><ele>173.5</ele><time>2026-04-09T12:04:42Z</time></trkpt><trkpt lat="44.11770224439181" lon="3.934297772437619"><ele>174.25</ele><time>2026-04-09T12:04:43Z</time></trkpt><trkpt lat="44.11768420046976" lon="3.93449436346034"><ele>175.0</ele><time>2026-04-09T12:04:44Z</time></trkpt><trkpt lat="44.11764724140476" lon="3.9346907970143015"><ele>175.75</ele><time>2026-04-09T12:04:45Z</time></trkpt><trkpt lat="44.11762445905882" lon="3.934889166599274"><ele>176.5</ele><time>2026-04-09T12:04:46Z</time></trkpt><trkpt lat="44.11760643545371" lon="3.935090549372622"><ele>177.25</ele><time>2026-04-09T12:04:47Z</time></trkpt><trkpt lat="44.117595830385135" lon="3.9352908995454796"><ele>178.0</ele><time>2026-04-09T12:04:48Z</time></trkpt><trkpt lat="44.117601366857706" lon="3.9354893355711984"><ele>178.25</ele><time>2026-04-09T12:04:49Z</time></trkpt><trkpt lat="44.11759139243496" lon="3.9356867976179535"><ele>178.5</ele><time>2026-04-09T12:04:50Z</time></trkpt><trkpt lat="44.11757700413193" lon="3.935882171046015"><ele>178.75</ele><time>2026-04-09T12:04:51Z</time></trkpt><trkpt lat="44.117565427155185" lon="3.9360765361620365"><ele>179.0</ele><time>2026-04-09T12:04:52Z</time></trkpt><trkpt lat="44.117553634316614" lon="3.9362694012265584"><ele>179.0</ele><time>2026-04-09T12:04:53Z</time></trkpt><trkpt lat="44.11752145108934" lon="3.9364595847543833"><ele>179.0</ele><time>2026-04-09T12:04:54Z</time></trkpt><trkpt lat="44.1175049907144" lon="3.93664746790081"><ele>179.0</ele><time>2026-04-09T12:04:55Z</time></trkpt><trkpt lat="44.11748621876213" lon="3.936832571618907"><ele>179.0</ele><time>2026-04-09T12:04:56Z</time></trkpt><trkpt lat="44.11746415214853" lon="3.937017263131808"><ele>180.0</ele><time>2026-04-09T12:04:57Z</time></trkpt><trkpt lat="44.117440847847" lon="3.9371976915632807"><ele>181.0</ele><time>2026-04-09T12:04:58Z</time></trkpt><trkpt lat="44.11743169601826" lon="3.9373800341955096"><ele>182.0</ele><time>2026-04-09T12:04:59Z</time></trkpt><trkpt lat="44.117405128425695" lon="3.937551857039229"><ele>183.0</ele><time>2026-04-09T12:05:00Z</time></trkpt><trkpt lat="44.11737976522834" lon="3.937715073865779"><ele>181.75</ele><time>2026-04-09T12:05:01Z</time></trkpt><trkpt lat="44.11734831132895" lon="3.93787604123861"><ele>180.5</ele><time>2026-04-09T12:05:02Z</time></trkpt><trkpt lat="44.11735206309639" lon="3.9380440706623876"><ele>179.25</ele><time>2026-04-09T12:05:03Z</time></trkpt><trkpt lat="44.117396509440056" lon="3.9381985582128634"><ele>178.0</ele><time>2026-04-09T12:05:04Z</time></trkpt><trkpt lat="44.11743092233907" lon="3.938344049617235"><ele>178.4</ele><time>2026-04-09T12:05:05Z</time></trkpt><trkpt lat="44.11745487621139" lon="3.9384898313322"><ele>178.8</ele><time>2026-04-09T12:05:06Z</time></trkpt><trkpt lat="44.11745606941602" lon="3.938656763930391"><ele>179.2</ele><time>2026-04-09T12:05:07Z</time></trkpt><trkpt lat="44.11741488754159" lon="3.938761515977949"><ele>179.6</ele><time>2026-04-09T12:05:08Z</time></trkpt><trkpt lat="44.11733933484905" lon="3.938866479012843"><ele>180.0</ele><time>2026-04-09T12:05:09Z</time></trkpt><trkpt lat="44.1172387857935" lon="3.938903541135795"><ele>178.0</ele><time>2026-04-09T12:05:10Z</time></trkpt><trkpt lat="44.117143061120544" lon="3.9389846595883156"><ele>176.0</ele><time>2026-04-09T12:05:11Z</time></trkpt><trkpt lat="44.11703043787147" lon="3.9390490109689793"><ele>174.0</ele><time>2026-04-09T12:05:12Z</time></trkpt><trkpt lat="44.11692583192995" lon="3.939139532513654"><ele>172.0</ele><time>2026-04-09T12:05:13Z</time></trkpt><trkpt lat="44.11683447551872" lon="3.9392493253896905"><ele>175.75</ele><time>2026-04-09T12:05:14Z</time></trkpt><trkpt lat="44.11673607021618" lon="3.9393726533155218"><ele>179.5</ele><time>2026-04-09T12:05:15Z</time></trkpt><trkpt lat="44.11662408008726" lon="3.939478139944471"><ele>183.25</ele><time>2026-04-09T12:05:16Z</time></trkpt><trkpt lat="44.116523181840066" lon="3.9396092764031962"><ele>187.0</ele><time>2026-04-09T12:05:17Z</time></trkpt><trkpt lat="44.1164127852808" lon="3.9397184977084914"><ele>187.0</ele><time>2026-04-09T12:05:18Z</time></trkpt><trkpt lat="44.116304147504735" lon="3.939821304522759"><ele>187.0</ele><time>2026-04-09T12:05:19Z</time></trkpt><trkpt lat="44.116189781970895" lon="3.939901711567868"><ele>187.0</ele><time>2026-04-09T12:05:20Z</time></trkpt><trkpt lat="44.1160633300412" lon="3.9399592790080393"><ele>187.0</ele><time>2026-04-09T12:05:21Z</time></trkpt><trkpt lat="44.11592474483113" lon="3.939990307804267"><ele>200.75</ele><time>2026-04-09T12:05:22Z</time></trkpt><trkpt lat="44.11580209223619" lon="3.940068250935284"><ele>214.5</ele><time>2026-04-09T12:05:23Z</time></trkpt><trkpt lat="44.115676994603795" lon="3.9401220529188117"><ele>228.25</ele><time>2026-04-09T12:05:24Z</time></trkpt><trkpt lat="44.11554649209942" lon="3.9401336325916803"><ele>242.0</ele><time>2026-04-09T12:05:25Z</time></trkpt><trkpt lat="44.11541822201037" lon="3.9401539108778345"><ele>246.0</ele><time>2026-04-09T12:05:26Z</time></trkpt><trkpt lat="44.11528961415918" lon="3.940182177052113"><ele>250.0</ele><time>2026-04-09T12:05:27Z</time></trkpt><trkpt lat="44.11515996775009" lon="3.940176476358167"><ele>254.0</ele><time>2026-04-09T12:05:28Z</time></trkpt><trkpt lat="44.115031848698145" lon="3.9401473945353978"><ele>258.0</ele><time>2026-04-09T12:05:29Z</time></trkpt><trkpt lat="44.11490586750611" lon="3.940099925560144"><ele>246.5</ele><time>2026-04-09T12:05:30Z</time></trkpt><trkpt lat="44.11479069670944" lon="3.940027728277297"><ele>235.0</ele><time>2026-04-09T12:05:31Z</time></trkpt><trkpt lat="44.11465787164935" lon="3.939981235831376"><ele>223.5</ele><time>2026-04-09T12:05:32Z</time></trkpt><trkpt lat="44.11452606238521" lon="3.939902960753102"><ele>212.0</ele><time>2026-04-09T12:05:33Z</time></trkpt><trkpt lat="44.114397070679416" lon="3.939824885307068"><ele>212.0</ele><time>2026-04-09T12:05:34Z</time></trkpt><trkpt lat="44.11427173359389" lon="3.9397360238258896"><ele>212.0</ele><time>2026-04-09T12:05:35Z</time></trkpt><trkpt lat="44.11415929582758" lon="3.9396314623186983"><ele>212.0</ele><time>2026-04-09T12:05:36Z</time></trkpt><trkpt lat="44.11404821601647" lon="3.9395257939245982"><ele>212.0</ele><time>2026-04-09T12:05:37Z</time></trkpt><trkpt lat="44.11392493162286" lon="3.9394466340904746"><ele>210.25</ele><time>2026-04-09T12:05:38Z</time></trkpt><trkpt lat="44.11378712495283" lon="3.939402401268847"><ele>208.5</ele><time>2026-04-09T12:05:39Z</time></trkpt><trkpt lat="44.11364184461597" lon="3.939370846744824"><ele>206.75</ele><time>2026-04-09T12:05:40Z</time></trkpt><trkpt lat="44.11349815372496" lon="3.9393397941524286"><ele>205.0</ele><time>2026-04-09T12:05:41Z</time></trkpt><trkpt lat="44.11335272003142" lon="3.9393168646005936"><ele>202.75</ele><time>2026-04-09T12:05:42Z</time></trkpt><trkpt lat="44.113209067406274" lon="3.9392983297157085"><ele>200.5</ele><time>2026-04-09T12:05:43Z</time></trkpt><trkpt lat="44.11306515933298" lon="3.9392754222831243"><ele>198.25</ele><time>2026-04-09T12:05:44Z</time></trkpt><trkpt lat="44.11292230362129" lon="3.939258056804811"><ele>196.0</ele><time>2026-04-09T12:05:45Z</time></trkpt><trkpt lat="44.112779997507076" lon="3.9392402879380137"><ele>196.0</ele><time>2026-04-09T12:05:46Z</time></trkpt><trkpt lat="44.11263762686213" lon="3.9392288499117982"><ele>196.0</ele><time>2026-04-09T12:05:47Z</time></trkpt><trkpt lat="44.11249780627657" lon="3.9392239861097806"><ele>196.0</ele><time>2026-04-09T12:05:48Z</time></trkpt><trkpt lat="44.112360175214974" lon="3.939234667626555"><ele>196.0</ele><time>2026-04-09T12:05:49Z</time></trkpt><trkpt lat="44.11223047159898" lon="3.9392745136153464"><ele>192.0</ele><time>2026-04-09T12:05:50Z</time></trkpt><trkpt lat="44.11211076187629" lon="3.9393266819823687"><ele>188.0</ele><time>2026-04-09T12:05:51Z</time></trkpt><trkpt lat="44.11199883484268" lon="3.9393702520442724"><ele>184.0</ele><time>2026-04-09T12:05:52Z</time></trkpt><trkpt lat="44.11188843822596" lon="3.9394058812683186"><ele>180.0</ele><time>2026-04-09T12:05:53Z</time></trkpt><trkpt lat="44.11178625268827" lon="3.939479628584569"><ele>180.0</ele><time>2026-04-09T12:05:54Z</time></trkpt><trkpt lat="44.11169724326386" lon="3.9395934023040393"><ele>180.0</ele><time>2026-04-09T12:05:55Z</time></trkpt><trkpt lat="44.111616298665474" lon="3.93970660688779"><ele>180.0</ele><time>2026-04-09T12:05:56Z</time></trkpt><trkpt lat="44.111541086589234" lon="3.939814329163324"><ele>180.0</ele><time>2026-04-09T12:05:57Z</time></trkpt><trkpt lat="44.111475013096374" lon="3.9399140423285948"><ele>180.0</ele><time>2026-04-09T12:05:58Z</time></trkpt><trkpt lat="44.11142297808871" lon="3.940024547576745"><ele>178.5</ele><time>2026-04-09T12:05:59Z</time></trkpt><trkpt lat="44.11139113116327" lon="3.940141064059897"><ele>177.0</ele><time>2026-04-09T12:06:00Z</time></trkpt><trkpt lat="44.111361453335455" lon="3.940257415959827"><ele>175.5</ele><time>2026-04-09T12:06:01Z</time></trkpt><trkpt lat="44.111335793313515" lon="3.9403709764374146"><ele>174.0</ele><time>2026-04-09T12:06:02Z</time></trkpt><trkpt lat="44.11131918783303" lon="3.9404837488039535"><ele>172.5</ele><time>2026-04-09T12:06:03Z</time></trkpt><trkpt lat="44.11131597808291" lon="3.9405951698173576"><ele>171.0</ele><time>2026-04-09T12:06:04Z</time></trkpt><trkpt lat="44.11132096493697" lon="3.9407056176243747"><ele>171.0</ele><time>2026-04-09T12:06:05Z</time></trkpt><trkpt lat="44.111323969470575" lon="3.9408216022652276"><ele>171.0</ele><time>2026-04-09T12:06:06Z</time></trkpt><trkpt lat="44.111319952098825" lon="3.9409435766264274"><ele>171.0</ele><time>2026-04-09T12:06:07Z</time></trkpt><trkpt lat="44.11130319429605" lon="3.941067820957213"><ele>171.0</ele><time>2026-04-09T12:06:08Z</time></trkpt><trkpt lat="44.111280197170146" lon="3.941195424574943"><ele>171.0</ele><time>2026-04-09T12:06:09Z</time></trkpt><trkpt lat="44.111243627559084" lon="3.941322948323341"><ele>171.4</ele><time>2026-04-09T12:06:10Z</time></trkpt><trkpt lat="44.11118963541168" lon="3.9414422580027906"><ele>171.8</ele><time>2026-04-09T12:06:11Z</time></trkpt><trkpt lat="44.11111050951068" lon="3.94153216189575"><ele>172.20000000000002</ele><time>2026-04-09T12:06:12Z</time></trkpt><trkpt lat="44.11105459343069" lon="3.9416542825059606"><ele>172.60000000000002</ele><time>2026-04-09T12:06:13Z</time></trkpt><trkpt lat="44.110988463543606" lon="3.9417651911655467"><ele>173.0</ele><time>2026-04-09T12:06:14Z</time></trkpt><trkpt lat="44.110937174438305" lon="3.9418935847850407"><ele>174.25</ele><time>2026-04-09T12:06:15Z</time></trkpt><trkpt lat="44.11089826531769" lon="3.9420410267546035"><ele>175.5</ele><time>2026-04-09T12:06:16Z</time></trkpt><trkpt lat="44.11087415446489" lon="3.9421954940314867"><ele>176.75</ele><time>2026-04-09T12:06:17Z</time></trkpt><trkpt lat="44.11085791232716" lon="3.9423541340213175"><ele>178.0</ele><time>2026-04-09T12:06:18Z</time></trkpt><trkpt lat="44.11082454936897" lon="3.9425069192339564"><ele>177.8</ele><time>2026-04-09T12:06:19Z</time></trkpt><trkpt lat="44.11078920000469" lon="3.9426556591820643"><ele>177.60000000000002</ele><time>2026-04-09T12:06:20Z</time></trkpt><trkpt lat="44.11072405625518" lon="3.942779286867456"><ele>177.39999999999998</ele><time>2026-04-09T12:06:21Z</time></trkpt><trkpt lat="44.11065191624823" lon="3.942902685093593"><ele>177.2</ele><time>2026-04-09T12:06:22Z</time></trkpt><trkpt lat="44.11060071325646" lon="3.943042327272399"><ele>177.0</ele><time>2026-04-09T12:06:23Z</time></trkpt><trkpt lat="44.11055846442654" lon="3.9431836353233862"><ele>174.6</ele><time>2026-04-09T12:06:24Z</time></trkpt><trkpt lat="44.1105145521628" lon="3.9433257069156347"><ele>172.2</ele><time>2026-04-09T12:06:25Z</time></trkpt><trkpt lat="44.110485028980854" lon="3.943470744105359"><ele>169.8</ele><time>2026-04-09T12:06:26Z</time></trkpt><trkpt lat="44.11047304840692" lon="3.9436266087402556"><ele>167.4</ele><time>2026-04-09T12:06:27Z</time></trkpt><trkpt lat="44.110438130079096" lon="3.943782876927882"><ele>165.0</ele><time>2026-04-09T12:06:28Z</time></trkpt><trkpt lat="44.11040385175003" lon="3.9439388902435666"><ele>165.0</ele><time>2026-04-09T12:06:29Z</time></trkpt><trkpt lat="44.1103664364779" lon="3.9441002290431935"><ele>165.0</ele><time>2026-04-09T12:06:30Z</time></trkpt><trkpt lat="44.11033621689427" lon="3.9442684296061095"><ele>165.0</ele><time>2026-04-09T12:06:31Z</time></trkpt><trkpt lat="44.11031940700219" lon="3.9444411202512213"><ele>165.0</ele><time>2026-04-09T12:06:32Z</time></trkpt><trkpt lat="44.1103050289195" lon="3.9446131963389126"><ele>165.25</ele><time>2026-04-09T12:06:33Z</time></trkpt><trkpt lat="44.110273321569494" lon="3.944781191591248"><ele>165.5</ele><time>2026-04-09T12:06:34Z</time></trkpt><trkpt lat="44.11025138893263" lon="3.9449488518317914"><ele>165.75</ele><time>2026-04-09T12:06:35Z</time></trkpt><trkpt lat="44.110221021712434" lon="3.945116393885795"><ele>166.0</ele><time>2026-04-09T12:06:36Z</time></trkpt><trkpt lat="44.11018473454224" lon="3.9452821477400133"><ele>166.25</ele><time>2026-04-09T12:06:37Z</time></trkpt><trkpt lat="44.11014618081844" lon="3.9454462188160524"><ele>166.5</ele><time>2026-04-09T12:06:38Z</time></trkpt><trkpt lat="44.11010582389235" lon="3.945603511771834"><ele>166.75</ele><time>2026-04-09T12:06:39Z</time></trkpt><trkpt lat="44.11007486012921" lon="3.9457674997913403"><ele>167.0</ele><time>2026-04-09T12:06:40Z</time></trkpt><trkpt lat="44.10999989792125" lon="3.945905010026178"><ele>167.8</ele><time>2026-04-09T12:06:41Z</time></trkpt><trkpt lat="44.10994506147466" lon="3.9460420083020025"><ele>168.6</ele><time>2026-04-09T12:06:42Z</time></trkpt><trkpt lat="44.10987853449773" lon="3.9461313423273032"><ele>169.4</ele><time>2026-04-09T12:06:43Z</time></trkpt><trkpt lat="44.10981482703476" lon="3.946226223472949"><ele>170.20000000000002</ele><time>2026-04-09T12:06:44Z</time></trkpt><trkpt lat="44.109746324127286" lon="3.9463250857439705"><ele>171.0</ele><time>2026-04-09T12:06:45Z</time></trkpt><trkpt lat="44.10966848894693" lon="3.9464358572663394"><ele>169.75</ele><time>2026-04-09T12:06:46Z</time></trkpt><trkpt lat="44.1095856965978" lon="3.9465495471041714"><ele>168.5</ele><time>2026-04-09T12:06:47Z</time></trkpt><trkpt lat="44.10949873696397" lon="3.9466701741723353"><ele>167.25</ele><time>2026-04-09T12:06:48Z</time></trkpt><trkpt lat="44.10940784354197" lon="3.9467960636759973"><ele>166.0</ele><time>2026-04-09T12:06:49Z</time></trkpt><trkpt lat="44.10931450621516" lon="3.946925444208934"><ele>166.0</ele><time>2026-04-09T12:06:50Z</time></trkpt><trkpt lat="44.109219294442035" lon="3.947061027701383"><ele>166.0</ele><time>2026-04-09T12:06:51Z</time></trkpt><trkpt lat="44.109126159935386" lon="3.947200160599015"><ele>166.0</ele><time>2026-04-09T12:06:52Z</time></trkpt><trkpt lat="44.1090289357039" lon="3.9473357097619237"><ele>166.0</ele><time>2026-04-09T12:06:53Z</time></trkpt><trkpt lat="44.108926339041105" lon="3.9474607380354585"><ele>170.25</ele><time>2026-04-09T12:06:54Z</time></trkpt><trkpt lat="44.108809689638" lon="3.9475628765592985"><ele>174.5</ele><time>2026-04-09T12:06:55Z</time></trkpt><trkpt lat="44.10868341837563" lon="3.9476361200421586"><ele>178.75</ele><time>2026-04-09T12:06:56Z</time></trkpt><trkpt lat="44.10854442541095" lon="3.9476649755614583"><ele>183.0</ele><time>2026-04-09T12:06:57Z</time></trkpt><trkpt lat="44.10840693976719" lon="3.947740185766241"><ele>183.0</ele><time>2026-04-09T12:06:58Z</time></trkpt><trkpt lat="44.10826039726833" lon="3.9477926497176212"><ele>183.0</ele><time>2026-04-09T12:06:59Z</time></trkpt><trkpt lat="44.10811369864978" lon="3.9478459154235988"><ele>183.0</ele><time>2026-04-09T12:07:00Z</time></trkpt><trkpt lat="44.10796769010051" lon="3.947900431545971"><ele>181.0</ele><time>2026-04-09T12:07:01Z</time></trkpt><trkpt lat="44.107821601826366" lon="3.947956564000656"><ele>179.0</ele><time>2026-04-09T12:07:02Z</time></trkpt><trkpt lat="44.10767130706568" lon="3.948018767522148"><ele>177.0</ele><time>2026-04-09T12:07:03Z</time></trkpt><trkpt lat="44.10751295024929" lon="3.948067133986541"><ele>173.33333333333334</ele><time>2026-04-09T12:07:04Z</time></trkpt><trkpt lat="44.10736934156908" lon="3.948168369385263"><ele>169.66666666666669</ele><time>2026-04-09T12:07:05Z</time></trkpt><trkpt lat="44.10721625420289" lon="3.9482364966442036"><ele>166.0</ele><time>2026-04-09T12:07:06Z</time></trkpt><trkpt lat="44.1070612416027" lon="3.948288089235391"><ele>166.0</ele><time>2026-04-09T12:07:07Z</time></trkpt><trkpt lat="44.10690886113944" lon="3.948365528003287"><ele>166.0</ele><time>2026-04-09T12:07:08Z</time></trkpt><trkpt lat="44.10676344809129" lon="3.9484759889697756"><ele>166.0</ele><time>2026-04-09T12:07:09Z</time></trkpt><trkpt lat="44.10661124837065" lon="3.94857373808379"><ele>171.0</ele><time>2026-04-09T12:07:10Z</time></trkpt><trkpt lat="44.10645977623515" lon="3.948661976852545"><ele>176.0</ele><time>2026-04-09T12:07:11Z</time></trkpt><trkpt lat="44.10630582130583" lon="3.948731092352842"><ele>181.0</ele><time>2026-04-09T12:07:12Z</time></trkpt><trkpt lat="44.10614838730053" lon="3.9487742564194166"><ele>181.0</ele><time>2026-04-09T12:07:13Z</time></trkpt><trkpt lat="44.10598208254479" lon="3.9487885163644214"><ele>181.0</ele><time>2026-04-09T12:07:14Z</time></trkpt><trkpt lat="44.10581977620336" lon="3.948848577741148"><ele>181.0</ele><time>2026-04-09T12:07:15Z</time></trkpt><trkpt lat="44.10565502119122" lon="3.948884589706082"><ele>181.33333333333334</ele><time>2026-04-09T12:07:16Z</time></trkpt><trkpt lat="44.10548850118853" lon="3.948897412642501"><ele>181.66666666666666</ele><time>2026-04-09T12:07:17Z</time></trkpt><trkpt lat="44.10532515659164" lon="3.948927484326932"><ele>182.0</ele><time>2026-04-09T12:07:18Z</time></trkpt><trkpt lat="44.105159831056234" lon="3.9489409312437496"><ele>182.0</ele><time>2026-04-09T12:07:19Z</time></trkpt><trkpt lat="44.104991808883355" lon="3.9489651084250323"><ele>182.0</ele><time>2026-04-09T12:07:20Z</time></trkpt><trkpt lat="44.104828574822825" lon="3.9489665553705513"><ele>182.0</ele><time>2026-04-09T12:07:21Z</time></trkpt><trkpt lat="44.10467120210048" lon="3.9489646573194945"><ele>180.66666666666666</ele><time>2026-04-09T12:07:22Z</time></trkpt><trkpt lat="44.10451203607297" lon="3.9489616321259082"><ele>179.33333333333334</ele><time>2026-04-09T12:07:23Z</time></trkpt><trkpt lat="44.10435719388087" lon="3.948960917656944"><ele>178.0</ele><time>2026-04-09T12:07:24Z</time></trkpt><trkpt lat="44.10420379096634" lon="3.9489371311191017"><ele>176.75</ele><time>2026-04-09T12:07:25Z</time></trkpt><trkpt lat="44.104057245057376" lon="3.9489350539278543"><ele>175.5</ele><time>2026-04-09T12:07:26Z</time></trkpt><trkpt lat="44.103907401389144" lon="3.9489548229809865"><ele>174.25</ele><time>2026-04-09T12:07:27Z</time></trkpt><trkpt lat="44.103758183181846" lon="3.9489291496654797"><ele>173.0</ele><time>2026-04-09T12:07:28Z</time></trkpt><trkpt lat="44.103609873198586" lon="3.9489240887033428"><ele>173.0</ele><time>2026-04-09T12:07:29Z</time></trkpt><trkpt lat="44.103466065871494" lon="3.948930156858828"><ele>173.0</ele><time>2026-04-09T12:07:30Z</time></trkpt><trkpt lat="44.103321473889096" lon="3.948888712638469"><ele>173.0</ele><time>2026-04-09T12:07:31Z</time></trkpt><trkpt lat="44.103179172398654" lon="3.9488159715358915"><ele>173.0</ele><time>2026-04-09T12:07:32Z</time></trkpt><trkpt lat="44.103046193375214" lon="3.9487056270454644"><ele>173.66666666666666</ele><time>2026-04-09T12:07:33Z</time></trkpt><trkpt lat="44.102918246717756" lon="3.948581894800579"><ele>174.33333333333334</ele><time>2026-04-09T12:07:34Z</time></trkpt><trkpt lat="44.10279373043042" lon="3.948455500871969"><ele>175.0</ele><time>2026-04-09T12:07:35Z</time></trkpt><trkpt lat="44.102669606137574" lon="3.948333724430562"><ele>173.0</ele><time>2026-04-09T12:07:36Z</time></trkpt><trkpt lat="44.102550658135335" lon="3.948206103855459"><ele>171.0</ele><time>2026-04-09T12:07:37Z</time></trkpt><trkpt lat="44.10240807299684" lon="3.9481447277619366"><ele>169.0</ele><time>2026-04-09T12:07:38Z</time></trkpt><trkpt lat="44.102268567591615" lon="3.9480850318398715"><ele>167.0</ele><time>2026-04-09T12:07:39Z</time></trkpt><trkpt lat="44.102127150890574" lon="3.948071850665489"><ele>167.0</ele><time>2026-04-09T12:07:40Z</time></trkpt><trkpt lat="44.10198594448815" lon="3.9480630465115194"><ele>167.0</ele><time>2026-04-09T12:07:41Z</time></trkpt><trkpt lat="44.10184584879494" lon="3.948056770820845"><ele>167.0</ele><time>2026-04-09T12:07:42Z</time></trkpt><trkpt lat="44.101703861076345" lon="3.948051429600708"><ele>167.0</ele><time>2026-04-09T12:07:43Z</time></trkpt><trkpt lat="44.10155952065817" lon="3.948048608229829"><ele>169.25</ele><time>2026-04-09T12:07:44Z</time></trkpt><trkpt lat="44.10141381248994" lon="3.948044497038076"><ele>171.5</ele><time>2026-04-09T12:07:45Z</time></trkpt><trkpt lat="44.101265498110074" lon="3.9480357071629064"><ele>173.75</ele><time>2026-04-09T12:07:46Z</time></trkpt><trkpt lat="44.10111974634203" lon="3.9480250318533407"><ele>176.0</ele><time>2026-04-09T12:07:47Z</time></trkpt><trkpt lat="44.10098050717845" lon="3.9480073863289284"><ele>176.0</ele><time>2026-04-09T12:07:48Z</time></trkpt><trkpt lat="44.100844684915884" lon="3.947982850925889"><ele>176.0</ele><time>2026-04-09T12:07:49Z</time></trkpt><trkpt lat="44.100711532632936" lon="3.9479405567389856"><ele>176.0</ele><time>2026-04-09T12:07:50Z</time></trkpt><trkpt lat="44.10057632688749" lon="3.947895029222888"><ele>176.0</ele><time>2026-04-09T12:07:51Z</time></trkpt><trkpt lat="44.1004402294069" lon="3.947857795969998"><ele>176.25</ele><time>2026-04-09T12:07:52Z</time></trkpt><trkpt lat="44.10030244501621" lon="3.947835419929776"><ele>176.5</ele><time>2026-04-09T12:07:53Z</time></trkpt><trkpt lat="44.100162426387186" lon="3.9478292188344217"><ele>176.75</ele><time>2026-04-09T12:07:54Z</time></trkpt><trkpt lat="44.1000201634846" lon="3.9478303415730136"><ele>177.0</ele><time>2026-04-09T12:07:55Z</time></trkpt><trkpt lat="44.09987563063165" lon="3.947825585812215"><ele>177.0</ele><time>2026-04-09T12:07:56Z</time></trkpt><trkpt lat="44.09973062088495" lon="3.947820308779718"><ele>177.0</ele><time>2026-04-09T12:07:57Z</time></trkpt><trkpt lat="44.09958413008064" lon="3.9478072039827237"><ele>177.0</ele><time>2026-04-09T12:07:58Z</time></trkpt><trkpt lat="44.09944462584911" lon="3.947784195751589"><ele>177.0</ele><time>2026-04-09T12:07:59Z</time></trkpt><trkpt lat="44.099310662782436" lon="3.9477539445484835"><ele>177.0</ele><time>2026-04-09T12:08:00Z</time></trkpt><trkpt lat="44.09918271687378" lon="3.947708740299679"><ele>177.0</ele><time>2026-04-09T12:08:01Z</time></trkpt><trkpt lat="44.09906455027321" lon="3.9476743579673235"><ele>177.0</ele><time>2026-04-09T12:08:02Z</time></trkpt><trkpt lat="44.098962443563956" lon="3.947637515148251"><ele>177.0</ele><time>2026-04-09T12:08:03Z</time></trkpt><trkpt lat="44.098866673928526" lon="3.9476020178367226"><ele>177.33333333333334</ele><time>2026-04-09T12:08:04Z</time></trkpt><trkpt lat="44.098778529972186" lon="3.9475603151951244"><ele>177.66666666666666</ele><time>2026-04-09T12:08:05Z</time></trkpt><trkpt lat="44.09869249655563" lon="3.947521689792555"><ele>178.0</ele><time>2026-04-09T12:08:06Z</time></trkpt><trkpt lat="44.09861725640388" lon="3.9474953349467676"><ele>178.33333333333331</ele><time>2026-04-09T12:08:07Z</time></trkpt><trkpt lat="44.09855149137808" lon="3.947474085906606"><ele>178.66666666666666</ele><time>2026-04-09T12:08:08Z</time></trkpt><trkpt lat="44.09844902309244" lon="3.9474508570408657"><ele>179.0</ele><time>2026-04-09T12:08:10Z</time></trkpt><trkpt lat="44.09837579226878" lon="3.9474342257417754"><ele>176.5</ele><time>2026-04-09T12:08:13Z</time></trkpt><trkpt lat="44.09827325654999" lon="3.947444554163091"><ele>174.0</ele><time>2026-04-09T12:08:24Z</time></trkpt><trkpt lat="44.09819155531483" lon="3.947448525569466"><ele>171.5</ele><time>2026-04-09T12:08:26Z</time></trkpt><trkpt lat="44.098128103122086" lon="3.9474507253684252"><ele>169.0</ele><time>2026-04-09T12:08:28Z</time></trkpt><trkpt lat="44.0980602417249" lon="3.947455930769802"><ele>166.5</ele><time>2026-04-09T12:08:32Z</time></trkpt><trkpt lat="44.097995732352175" lon="3.947461806142574"><ele>164.0</ele><time>2026-04-09T12:08:35Z</time></trkpt><trkpt lat="44.09791620447537" lon="3.947469147863121"><ele>163.33333333333331</ele><time>2026-04-09T12:08:37Z</time></trkpt><trkpt lat="44.09782462954458" lon="3.9474819995939843"><ele>162.66666666666666</ele><time>2026-04-09T12:08:39Z</time></trkpt><trkpt lat="44.097714583754644" lon="3.94748549713139"><ele>162.0</ele><time>2026-04-09T12:08:41Z</time></trkpt><trkpt lat="44.097651424488326" lon="3.9475040468167495"><ele>161.33333333333334</ele><time>2026-04-09T12:08:42Z</time></trkpt><trkpt lat="44.09758822506625" lon="3.9475397764934685"><ele>160.66666666666669</ele><time>2026-04-09T12:08:43Z</time></trkpt><trkpt lat="44.09751803596908" lon="3.9475566472181334"><ele>160.0</ele><time>2026-04-09T12:08:44Z</time></trkpt><trkpt lat="44.09744636830687" lon="3.9475748287507932"><ele>162.16666666666669</ele><time>2026-04-09T12:08:45Z</time></trkpt><trkpt lat="44.097369702865365" lon="3.9475994185461265"><ele>164.33333333333334</ele><time>2026-04-09T12:08:46Z</time></trkpt><trkpt lat="44.09729157169247" lon="3.9476293655938286"><ele>166.5</ele><time>2026-04-09T12:08:47Z</time></trkpt><trkpt lat="44.09721087013357" lon="3.9476617123137903"><ele>168.66666666666666</ele><time>2026-04-09T12:08:48Z</time></trkpt><trkpt lat="44.09712784434373" lon="3.9476997155634588"><ele>170.83333333333331</ele><time>2026-04-09T12:08:49Z</time></trkpt><trkpt lat="44.09704477066513" lon="3.94773688542444"><ele>173.0</ele><time>2026-04-09T12:08:50Z</time></trkpt><trkpt lat="44.09695953813487" lon="3.9477698077637706"><ele>173.0</ele><time>2026-04-09T12:08:51Z</time></trkpt><trkpt lat="44.09687155230405" lon="3.9478051442763804"><ele>173.0</ele><time>2026-04-09T12:08:52Z</time></trkpt><trkpt lat="44.096780810921786" lon="3.9478417392954883"><ele>173.0</ele><time>2026-04-09T12:08:53Z</time></trkpt><trkpt lat="44.09669098800465" lon="3.947878468853331"><ele>173.0</ele><time>2026-04-09T12:08:54Z</time></trkpt><trkpt lat="44.09660112100451" lon="3.94791515802672"><ele>173.0</ele><time>2026-04-09T12:08:55Z</time></trkpt><trkpt lat="44.09651296968317" lon="3.94795498875385"><ele>170.8</ele><time>2026-04-09T12:08:56Z</time></trkpt><trkpt lat="44.096422923017116" lon="3.9479930324655563"><ele>168.60000000000002</ele><time>2026-04-09T12:08:57Z</time></trkpt><trkpt lat="44.09633189012412" lon="3.9480329694368548"><ele>166.39999999999998</ele><time>2026-04-09T12:08:58Z</time></trkpt><trkpt lat="44.09624003824005" lon="3.9480850109370036"><ele>164.2</ele><time>2026-04-09T12:08:59Z</time></trkpt><trkpt lat="44.09614494681448" lon="3.9481418103039396"><ele>162.0</ele><time>2026-04-09T12:09:00Z</time></trkpt><trkpt lat="44.09605014456169" lon="3.9482076405211197"><ele>162.0</ele><time>2026-04-09T12:09:01Z</time></trkpt><trkpt lat="44.09595653739759" lon="3.9482818866171336"><ele>162.0</ele><time>2026-04-09T12:09:02Z</time></trkpt><trkpt lat="44.095863343834736" lon="3.948365587117049"><ele>162.0</ele><time>2026-04-09T12:09:03Z</time></trkpt><trkpt lat="44.09577642600673" lon="3.948460800832478"><ele>162.0</ele><time>2026-04-09T12:09:04Z</time></trkpt><trkpt lat="44.09569243881276" lon="3.94856594048954"><ele>162.0</ele><time>2026-04-09T12:09:05Z</time></trkpt><trkpt lat="44.095611544167085" lon="3.948679731374489"><ele>161.5</ele><time>2026-04-09T12:09:06Z</time></trkpt><trkpt lat="44.095537624734966" lon="3.948801164103975"><ele>161.0</ele><time>2026-04-09T12:09:07Z</time></trkpt><trkpt lat="44.09546280750637" lon="3.9489218320789248"><ele>160.5</ele><time>2026-04-09T12:09:08Z</time></trkpt><trkpt lat="44.09538691224457" lon="3.949041274356389"><ele>160.0</ele><time>2026-04-09T12:09:09Z</time></trkpt><trkpt lat="44.095313961745674" lon="3.9491613901987326"><ele>160.8</ele><time>2026-04-09T12:09:10Z</time></trkpt><trkpt lat="44.095240853387885" lon="3.949279495306199"><ele>161.6</ele><time>2026-04-09T12:09:11Z</time></trkpt><trkpt lat="44.09516692025214" lon="3.9493951533444855"><ele>162.39999999999998</ele><time>2026-04-09T12:09:12Z</time></trkpt><trkpt lat="44.095099242719904" lon="3.949509618867681"><ele>163.2</ele><time>2026-04-09T12:09:13Z</time></trkpt><trkpt lat="44.095035475882305" lon="3.949622221045333"><ele>164.0</ele><time>2026-04-09T12:09:14Z</time></trkpt><trkpt lat="44.094971880393764" lon="3.949734160342683"><ele>162.2</ele><time>2026-04-09T12:09:15Z</time></trkpt><trkpt lat="44.094907344628695" lon="3.9498411287586515"><ele>160.39999999999998</ele><time>2026-04-09T12:09:16Z</time></trkpt><trkpt lat="44.094843805749136" lon="3.949948358951653"><ele>158.6</ele><time>2026-04-09T12:09:17Z</time></trkpt><trkpt lat="44.09478061221611" lon="3.9500527133928283"><ele>156.8</ele><time>2026-04-09T12:09:18Z</time></trkpt><trkpt lat="44.09471984994031" lon="3.9501584292650898"><ele>155.0</ele><time>2026-04-09T12:09:19Z</time></trkpt><trkpt lat="44.094662903925204" lon="3.950263940658152"><ele>155.0</ele><time>2026-04-09T12:09:20Z</time></trkpt><trkpt lat="44.09461611669277" lon="3.9503755219942094"><ele>155.0</ele><time>2026-04-09T12:09:21Z</time></trkpt><trkpt lat="44.09457715987563" lon="3.9505011504834813"><ele>155.0</ele><time>2026-04-09T12:09:22Z</time></trkpt><trkpt lat="44.09454922735714" lon="3.95063894675578"><ele>155.0</ele><time>2026-04-09T12:09:23Z</time></trkpt><trkpt lat="44.09453851327821" lon="3.9507893292316547"><ele>155.0</ele><time>2026-04-09T12:09:24Z</time></trkpt><trkpt lat="44.094544987036116" lon="3.9509453542200106"><ele>154.75</ele><time>2026-04-09T12:09:25Z</time></trkpt><trkpt lat="44.094562058517184" lon="3.951108743895596"><ele>154.5</ele><time>2026-04-09T12:09:26Z</time></trkpt><trkpt lat="44.094583766741444" lon="3.9512807896198234"><ele>154.25</ele><time>2026-04-09T12:09:27Z</time></trkpt><trkpt lat="44.094605621570864" lon="3.9514597452696285"><ele>154.0</ele><time>2026-04-09T12:09:28Z</time></trkpt><trkpt lat="44.094627077145184" lon="3.951642990649756"><ele>153.25</ele><time>2026-04-09T12:09:29Z</time></trkpt><trkpt lat="44.09465006460929" lon="3.951829865776163"><ele>152.5</ele><time>2026-04-09T12:09:30Z</time></trkpt><trkpt lat="44.09467590644237" lon="3.952022141080823"><ele>151.75</ele><time>2026-04-09T12:09:31Z</time></trkpt><trkpt lat="44.094701431849074" lon="3.952216980385877"><ele>151.0</ele><time>2026-04-09T12:09:32Z</time></trkpt><trkpt lat="44.094725466025515" lon="3.952412186344879"><ele>151.0</ele><time>2026-04-09T12:09:33Z</time></trkpt><trkpt lat="44.09475164221963" lon="3.952608782341464"><ele>151.0</ele><time>2026-04-09T12:09:34Z</time></trkpt><trkpt lat="44.094773908613675" lon="3.952805903405588"><ele>151.0</ele><time>2026-04-09T12:09:35Z</time></trkpt><trkpt lat="44.094793588818526" lon="3.953005035448255"><ele>151.0</ele><time>2026-04-09T12:09:36Z</time></trkpt><trkpt lat="44.09480639281487" lon="3.953206516354542"><ele>151.0</ele><time>2026-04-09T12:09:37Z</time></trkpt><trkpt lat="44.09480824699781" lon="3.9534047144614513"><ele>151.0</ele><time>2026-04-09T12:09:38Z</time></trkpt><trkpt lat="44.09480185536474" lon="3.9536004638373354"><ele>151.0</ele><time>2026-04-09T12:09:39Z</time></trkpt><trkpt lat="44.094791366635945" lon="3.9537993929051587"><ele>151.0</ele><time>2026-04-09T12:09:40Z</time></trkpt><trkpt lat="44.094777560834224" lon="3.9539954376780995"><ele>151.0</ele><time>2026-04-09T12:09:41Z</time></trkpt><trkpt lat="44.09475897788429" lon="3.954191584404652"><ele>151.0</ele><time>2026-04-09T12:09:42Z</time></trkpt><trkpt lat="44.09473638158786" lon="3.9543901265143924"><ele>151.0</ele><time>2026-04-09T12:09:43Z</time></trkpt><trkpt lat="44.0947055044591" lon="3.9545852243654203"><ele>151.0</ele><time>2026-04-09T12:09:44Z</time></trkpt><trkpt lat="44.09466847306365" lon="3.9547805636277644"><ele>152.0</ele><time>2026-04-09T12:09:45Z</time></trkpt><trkpt lat="44.09462641875608" lon="3.9549741473159785"><ele>153.0</ele><time>2026-04-09T12:09:46Z</time></trkpt><trkpt lat="44.094583086793854" lon="3.9551671172555416"><ele>154.0</ele><time>2026-04-09T12:09:47Z</time></trkpt><trkpt lat="44.09453756286516" lon="3.9553534603183014"><ele>155.0</ele><time>2026-04-09T12:09:48Z</time></trkpt><trkpt lat="44.09448354602557" lon="3.955535744597877"><ele>156.25</ele><time>2026-04-09T12:09:49Z</time></trkpt><trkpt lat="44.094424262683816" lon="3.955715670889541"><ele>157.5</ele><time>2026-04-09T12:09:50Z</time></trkpt><trkpt lat="44.09435996111182" lon="3.955887290352814"><ele>158.75</ele><time>2026-04-09T12:09:51Z</time></trkpt><trkpt lat="44.09429028718339" lon="3.956049892630999"><ele>160.0</ele><time>2026-04-09T12:09:52Z</time></trkpt><trkpt lat="44.09421586226118" lon="3.95620679834321"><ele>160.25</ele><time>2026-04-09T12:09:53Z</time></trkpt><trkpt lat="44.09414117744279" lon="3.9563606468116523"><ele>160.5</ele><time>2026-04-09T12:09:54Z</time></trkpt><trkpt lat="44.094073484415844" lon="3.956504686420563"><ele>160.75</ele><time>2026-04-09T12:09:55Z</time></trkpt><trkpt lat="44.0940026564502" lon="3.956643724640182"><ele>161.0</ele><time>2026-04-09T12:09:56Z</time></trkpt><trkpt lat="44.093913130651586" lon="3.956759799784139"><ele>161.0</ele><time>2026-04-09T12:09:57Z</time></trkpt><trkpt lat="44.09381868774502" lon="3.9568649075044524"><ele>161.0</ele><time>2026-04-09T12:09:58Z</time></trkpt><trkpt lat="44.09372187992573" lon="3.9569657591251075"><ele>161.0</ele><time>2026-04-09T12:09:59Z</time></trkpt><trkpt lat="44.09362404148355" lon="3.9570653454062237"><ele>161.0</ele><time>2026-04-09T12:10:00Z</time></trkpt><trkpt lat="44.09352438204996" lon="3.95715850972496"><ele>161.0</ele><time>2026-04-09T12:10:01Z</time></trkpt><trkpt lat="44.09342933758942" lon="3.9572543649563396"><ele>161.0</ele><time>2026-04-09T12:10:02Z</time></trkpt><trkpt lat="44.09334231228763" lon="3.957362579700776"><ele>161.0</ele><time>2026-04-09T12:10:03Z</time></trkpt><trkpt lat="44.09326344851451" lon="3.9574759902432564"><ele>161.0</ele><time>2026-04-09T12:10:04Z</time></trkpt><trkpt lat="44.093184862066195" lon="3.9575956295553416"><ele>159.75</ele><time>2026-04-09T12:10:05Z</time></trkpt><trkpt lat="44.09311856847807" lon="3.957736648259125"><ele>158.5</ele><time>2026-04-09T12:10:06Z</time></trkpt><trkpt lat="44.093064777225145" lon="3.9578910680131107"><ele>157.25</ele><time>2026-04-09T12:10:07Z</time></trkpt><trkpt lat="44.093020744580485" lon="3.958044745660427"><ele>156.0</ele><time>2026-04-09T12:10:08Z</time></trkpt><trkpt lat="44.09297802553594" lon="3.9581898845443173"><ele>156.0</ele><time>2026-04-09T12:10:09Z</time></trkpt><trkpt lat="44.092935173537775" lon="3.958329053658091"><ele>156.0</ele><time>2026-04-09T12:10:10Z</time></trkpt><trkpt lat="44.09289302543335" lon="3.958462086989001"><ele>156.0</ele><time>2026-04-09T12:10:11Z</time></trkpt><trkpt lat="44.092851838595806" lon="3.9585898039828664"><ele>156.0</ele><time>2026-04-09T12:10:12Z</time></trkpt><trkpt lat="44.092813066401874" lon="3.9587197716171048"><ele>156.0</ele><time>2026-04-09T12:10:13Z</time></trkpt><trkpt lat="44.09277441077247" lon="3.958847838306929"><ele>155.8</ele><time>2026-04-09T12:10:14Z</time></trkpt><trkpt lat="44.09273645219134" lon="3.95897514426102"><ele>155.6</ele><time>2026-04-09T12:10:15Z</time></trkpt><trkpt lat="44.09269488651801" lon="3.9590969243615386"><ele>155.4</ele><time>2026-04-09T12:10:16Z</time></trkpt><trkpt lat="44.092654134716966" lon="3.9592157219017015"><ele>155.2</ele><time>2026-04-09T12:10:17Z</time></trkpt><trkpt lat="44.09261440650519" lon="3.959329507426195"><ele>155.0</ele><time>2026-04-09T12:10:18Z</time></trkpt><trkpt lat="44.09257482465688" lon="3.9594444627657155"><ele>155.5</ele><time>2026-04-09T12:10:19Z</time></trkpt><trkpt lat="44.09254850422667" lon="3.9595597319104887"><ele>156.0</ele><time>2026-04-09T12:10:20Z</time></trkpt><trkpt lat="44.09253527422011" lon="3.9596755512947768"><ele>156.5</ele><time>2026-04-09T12:10:21Z</time></trkpt><trkpt lat="44.092541538304424" lon="3.959793510363647"><ele>157.0</ele><time>2026-04-09T12:10:22Z</time></trkpt><trkpt lat="44.09256067971739" lon="3.959914275061489"><ele>157.5</ele><time>2026-04-09T12:10:23Z</time></trkpt><trkpt lat="44.09258176890824" lon="3.9600347247355803"><ele>158.0</ele><time>2026-04-09T12:10:24Z</time></trkpt><trkpt lat="44.092607960719114" lon="3.960156230694628"><ele>158.0</ele><time>2026-04-09T12:10:25Z</time></trkpt><trkpt lat="44.09264269986102" lon="3.96027710930776"><ele>158.0</ele><time>2026-04-09T12:10:26Z</time></trkpt><trkpt lat="44.0926740842185" lon="3.960396132206255"><ele>158.0</ele><time>2026-04-09T12:10:27Z</time></trkpt><trkpt lat="44.092699131090484" lon="3.960519114508917"><ele>158.0</ele><time>2026-04-09T12:10:28Z</time></trkpt><trkpt lat="44.092702207330696" lon="3.9606474291636395"><ele>158.0</ele><time>2026-04-09T12:10:29Z</time></trkpt><trkpt lat="44.092685275281596" lon="3.9607609248994766"><ele>158.0</ele><time>2026-04-09T12:10:30Z</time></trkpt><trkpt lat="44.09266004456844" lon="3.9608615680038883"><ele>158.0</ele><time>2026-04-09T12:10:31Z</time></trkpt><trkpt lat="44.0926245379718" lon="3.9609617062829656"><ele>158.0</ele><time>2026-04-09T12:10:32Z</time></trkpt><trkpt lat="44.09258508224601" lon="3.961060165652121"><ele>158.0</ele><time>2026-04-09T12:10:33Z</time></trkpt><trkpt lat="44.092542508529064" lon="3.9611683010488328"><ele>158.0</ele><time>2026-04-09T12:10:34Z</time></trkpt><trkpt lat="44.09250408984498" lon="3.961288033062125"><ele>158.0</ele><time>2026-04-09T12:10:35Z</time></trkpt><trkpt lat="44.092475403543446" lon="3.9614166486769467"><ele>158.0</ele><time>2026-04-09T12:10:36Z</time></trkpt><trkpt lat="44.09245804884996" lon="3.96155560309913"><ele>158.0</ele><time>2026-04-09T12:10:37Z</time></trkpt><trkpt lat="44.09244772620296" lon="3.961697676937103"><ele>158.0</ele><time>2026-04-09T12:10:38Z</time></trkpt><trkpt lat="44.0924380556174" lon="3.961837922868758"><ele>158.0</ele><time>2026-04-09T12:10:39Z</time></trkpt><trkpt lat="44.092425745749566" lon="3.9619789765724422"><ele>158.0</ele><time>2026-04-09T12:10:40Z</time></trkpt><trkpt lat="44.09241288653321" lon="3.9621224151447474"><ele>158.8</ele><time>2026-04-09T12:10:41Z</time></trkpt><trkpt lat="44.09239988259291" lon="3.962267811943346"><ele>159.60000000000002</ele><time>2026-04-09T12:10:42Z</time></trkpt><trkpt lat="44.092383088236026" lon="3.962410183068505"><ele>160.39999999999998</ele><time>2026-04-09T12:10:43Z</time></trkpt><trkpt lat="44.092348475057975" lon="3.962547260305035"><ele>161.2</ele><time>2026-04-09T12:10:44Z</time></trkpt><trkpt lat="44.09229432000109" lon="3.9626730331657383"><ele>162.0</ele><time>2026-04-09T12:10:45Z</time></trkpt><trkpt lat="44.09220862957099" lon="3.962759857472092"><ele>162.0</ele><time>2026-04-09T12:10:46Z</time></trkpt><trkpt lat="44.092118160247914" lon="3.96282149372505"><ele>162.0</ele><time>2026-04-09T12:10:47Z</time></trkpt><trkpt lat="44.09201763217154" lon="3.962893607319687"><ele>162.0</ele><time>2026-04-09T12:10:48Z</time></trkpt><trkpt lat="44.09191343251457" lon="3.962964594166307"><ele>162.0</ele><time>2026-04-09T12:10:49Z</time></trkpt><trkpt lat="44.09181107795756" lon="3.963051650798338"><ele>162.0</ele><time>2026-04-09T12:10:50Z</time></trkpt><trkpt lat="44.09169067085489" lon="3.9630917806615495"><ele>162.0</ele><time>2026-04-09T12:10:51Z</time></trkpt><trkpt lat="44.09156633727867" lon="3.963103040160295"><ele>162.0</ele><time>2026-04-09T12:10:52Z</time></trkpt><trkpt lat="44.091447768397536" lon="3.9630475101554223"><ele>162.0</ele><time>2026-04-09T12:10:53Z</time></trkpt><trkpt lat="44.09134540650706" lon="3.963001662843405"><ele>162.83333333333334</ele><time>2026-04-09T12:10:54Z</time></trkpt><trkpt lat="44.09125603826954" lon="3.962978774935791"><ele>163.66666666666666</ele><time>2026-04-09T12:10:55Z</time></trkpt><trkpt lat="44.09117892645073" lon="3.962936248585136"><ele>164.5</ele><time>2026-04-09T12:10:56Z</time></trkpt><trkpt lat="44.09111718749147" lon="3.9629048821261486"><ele>165.33333333333331</ele><time>2026-04-09T12:10:57Z</time></trkpt><trkpt lat="44.09101317475253" lon="3.9628477086155756"><ele>166.16666666666666</ele><time>2026-04-09T12:10:59Z</time></trkpt><trkpt lat="44.09094098299669" lon="3.962814199225374"><ele>167.0</ele><time>2026-04-09T12:11:00Z</time></trkpt><trkpt lat="44.09085001552985" lon="3.9627742598183193"><ele>172.0</ele><time>2026-04-09T12:11:01Z</time></trkpt><trkpt lat="44.09074940631462" lon="3.9627376727897503"><ele>177.0</ele><time>2026-04-09T12:11:02Z</time></trkpt><trkpt lat="44.09064475439481" lon="3.9626820221517134"><ele>182.0</ele><time>2026-04-09T12:11:03Z</time></trkpt><trkpt lat="44.09053100893147" lon="3.9626334241657712"><ele>187.0</ele><time>2026-04-09T12:11:04Z</time></trkpt><trkpt lat="44.09041147864333" lon="3.962583641979718"><ele>187.0</ele><time>2026-04-09T12:11:05Z</time></trkpt><trkpt lat="44.090298999283874" lon="3.9625347805799285"><ele>187.0</ele><time>2026-04-09T12:11:06Z</time></trkpt><trkpt lat="44.0901908950958" lon="3.9624618670872978"><ele>187.0</ele><time>2026-04-09T12:11:07Z</time></trkpt><trkpt lat="44.09009193572573" lon="3.962365687912955"><ele>187.0</ele><time>2026-04-09T12:11:08Z</time></trkpt><trkpt lat="44.09000040975642" lon="3.9622576440876145"><ele>187.8</ele><time>2026-04-09T12:11:09Z</time></trkpt><trkpt lat="44.08991392819038" lon="3.962156749834612"><ele>188.6</ele><time>2026-04-09T12:11:10Z</time></trkpt><trkpt lat="44.08984115507835" lon="3.962064154242666"><ele>189.4</ele><time>2026-04-09T12:11:11Z</time></trkpt><trkpt lat="44.08978227175991" lon="3.9619865134645518"><ele>190.20000000000002</ele><time>2026-04-09T12:11:12Z</time></trkpt><trkpt lat="44.08972869090897" lon="3.961877675066925"><ele>191.0</ele><time>2026-04-09T12:11:14Z</time></trkpt><trkpt lat="44.08982839709159" lon="3.961765027689003"><ele>191.0</ele><time>2026-04-09T12:11:17Z</time></trkpt><trkpt lat="44.08988055413172" lon="3.961711502757692"><ele>191.0</ele><time>2026-04-09T12:11:18Z</time></trkpt><trkpt lat="44.08993625011949" lon="3.961639807566202"><ele>191.0</ele><time>2026-04-09T12:11:19Z</time></trkpt><trkpt lat="44.08997561614037" lon="3.961542187492823"><ele>191.0</ele><time>2026-04-09T12:11:20Z</time></trkpt><trkpt lat="44.09002711884425" lon="3.961465770199582"><ele>191.0</ele><time>2026-04-09T12:11:21Z</time></trkpt><trkpt lat="44.090081514672974" lon="3.961383587346929"><ele>191.0</ele><time>2026-04-09T12:11:22Z</time></trkpt><trkpt lat="44.090129343165955" lon="3.9612908144069263"><ele>185.16666666666666</ele><time>2026-04-09T12:11:23Z</time></trkpt><trkpt lat="44.090175363946635" lon="3.961195776200963"><ele>179.33333333333331</ele><time>2026-04-09T12:11:24Z</time></trkpt><trkpt lat="44.09021710319897" lon="3.961102778312947"><ele>173.5</ele><time>2026-04-09T12:11:25Z</time></trkpt><trkpt lat="44.09025583558518" lon="3.961017685134166"><ele>167.66666666666666</ele><time>2026-04-09T12:11:26Z</time></trkpt><trkpt lat="44.09029321041696" lon="3.960934701745226"><ele>161.83333333333334</ele><time>2026-04-09T12:11:27Z</time></trkpt><trkpt lat="44.0903292488592" lon="3.960857200671942"><ele>156.0</ele><time>2026-04-09T12:11:28Z</time></trkpt><trkpt lat="44.090400194855285" lon="3.960733327165394"><ele>155.8</ele><time>2026-04-09T12:11:30Z</time></trkpt><trkpt lat="44.090481440344576" lon="3.9606515258542636"><ele>155.6</ele><time>2026-04-09T12:11:32Z</time></trkpt><trkpt lat="44.09057035155604" lon="3.960640351833879"><ele>155.4</ele><time>2026-04-09T12:11:34Z</time></trkpt><trkpt lat="44.09066972564943" lon="3.9606490102422622"><ele>155.2</ele><time>2026-04-09T12:11:36Z</time></trkpt><trkpt lat="44.09077395675894" lon="3.9606743671081808"><ele>155.0</ele><time>2026-04-09T12:11:38Z</time></trkpt><trkpt lat="44.09087166409921" lon="3.9607174782124104"><ele>154.83333333333331</ele><time>2026-04-09T12:11:40Z</time></trkpt><trkpt lat="44.090978361802634" lon="3.9607571777383663"><ele>154.66666666666666</ele><time>2026-04-09T12:11:42Z</time></trkpt><trkpt lat="44.09106683506899" lon="3.960813846726688"><ele>154.5</ele><time>2026-04-09T12:11:44Z</time></trkpt><trkpt lat="44.09114043888695" lon="3.960889876826633"><ele>154.33333333333334</ele><time>2026-04-09T12:11:46Z</time></trkpt><trkpt lat="44.091203659653026" lon="3.9609224894006667"><ele>154.16666666666669</ele><time>2026-04-09T12:11:48Z</time></trkpt><trkpt lat="44.091266161907505" lon="3.960939934749114"><ele>154.0</ele><time>2026-04-09T12:11:52Z</time></trkpt><trkpt lat="44.09133257055134" lon="3.960963181959648"><ele>154.0</ele><time>2026-04-09T12:11:56Z</time></trkpt><trkpt lat="44.09139908814079" lon="3.9608747944758274"><ele>154.0</ele><time>2026-04-09T12:11:58Z</time></trkpt><trkpt lat="44.0914655499783" lon="3.960849241697632"><ele>154.0</ele><time>2026-04-09T12:12:01Z</time></trkpt><trkpt lat="44.09154882380398" lon="3.9608368704331935"><ele>154.0</ele><time>2026-04-09T12:12:04Z</time></trkpt><trkpt lat="44.091600844873604" lon="3.960756622606588"><ele>154.0</ele><time>2026-04-09T12:12:06Z</time></trkpt><trkpt lat="44.091648688328085" lon="3.9606945091662"><ele>154.0</ele><time>2026-04-09T12:12:08Z</time></trkpt><trkpt lat="44.09169957507955" lon="3.960624937225732"><ele>153.4</ele><time>2026-04-09T12:12:10Z</time></trkpt><trkpt lat="44.09174408294831" lon="3.960553109457109"><ele>152.8</ele><time>2026-04-09T12:12:12Z</time></trkpt><trkpt lat="44.09179121805943" lon="3.9604862433936106"><ele>152.2</ele><time>2026-04-09T12:12:14Z</time></trkpt><trkpt lat="44.09185199729347" lon="3.960453929359684"><ele>151.6</ele><time>2026-04-09T12:12:17Z</time></trkpt><trkpt lat="44.09192232623536" lon="3.960463900693062"><ele>151.0</ele><time>2026-04-09T12:12:28Z</time></trkpt><trkpt lat="44.092214948147735" lon="3.9598678384736643"><ele>151.0</ele><time>2026-04-09T12:12:40Z</time></trkpt><trkpt lat="44.09226168996248" lon="3.9597909722940274"><ele>151.0</ele><time>2026-04-09T12:12:42Z</time></trkpt><trkpt lat="44.092289502065405" lon="3.9596977918020215"><ele>151.0</ele><time>2026-04-09T12:12:44Z</time></trkpt><trkpt lat="44.09229341652822" lon="3.9595927613889064"><ele>151.0</ele><time>2026-04-09T12:12:46Z</time></trkpt><trkpt lat="44.092311947927996" lon="3.9595087584237647"><ele>151.0</ele><time>2026-04-09T12:12:48Z</time></trkpt><trkpt lat="44.09236347382081" lon="3.959411574725811"><ele>151.0</ele><time>2026-04-09T12:12:51Z</time></trkpt><trkpt lat="44.092402095826884" lon="3.9593115913955983"><ele>152.0</ele><time>2026-04-09T12:12:54Z</time></trkpt><trkpt lat="44.09242902789874" lon="3.959231001474596"><ele>153.0</ele><time>2026-04-09T12:12:58Z</time></trkpt><trkpt lat="44.092705900679746" lon="3.95917326859858"><ele>154.0</ele><time>2026-04-09T12:14:31Z</time></trkpt><trkpt lat="44.09274861842039" lon="3.959042856403827"><ele>155.0</ele><time>2026-04-09T12:14:33Z</time></trkpt><trkpt lat="44.092783710708105" lon="3.9589357239057277"><ele>155.0</ele><time>2026-04-09T12:14:35Z</time></trkpt><trkpt lat="44.09280942902066" lon="3.9588535318311755"><ele>155.0</ele><time>2026-04-09T12:14:37Z</time></trkpt><trkpt lat="44.092782855418555" lon="3.9589383349759086"><ele>155.0</ele><time>2026-04-09T12:14:52Z</time></trkpt><trkpt lat="44.092753661822954" lon="3.95902745956731"><ele>155.0</ele><time>2026-04-09T12:15:21Z</time></trkpt><trkpt lat="44.09258328427551" lon="3.9589283966859825"><ele>155.0</ele><time>2026-04-09T12:15:58Z</time></trkpt><trkpt lat="44.09258992690793" lon="3.9588363302956915"><ele>155.0</ele><time>2026-04-09T12:18:01Z</time></trkpt><trkpt lat="44.09257015241628" lon="3.9589336946035414"><ele>155.0</ele><time>2026-04-09T12:18:17Z</time></trkpt><trkpt lat="44.092545913631355" lon="3.9588458289680406"><ele>155.0</ele><time>2026-04-09T12:20:56Z</time></trkpt><trkpt lat="44.09255162833748" lon="3.9587518097033687"><ele>155.0</ele><time>2026-04-09T12:21:18Z</time></trkpt><trkpt lat="44.09256677484845" lon="3.9586613328411677"><ele>155.0</ele><time>2026-04-09T12:21:27Z</time></trkpt><trkpt lat="44.09254079357875" lon="3.958563618133604"><ele>155.0</ele><time>2026-04-09T12:22:48Z</time></trkpt><trkpt lat="44.09247279638605" lon="3.9585622161955403"><ele>155.0</ele><time>2026-04-09T12:33:29Z</time></trkpt><trkpt lat="44.092405501139346" lon="3.9585651738950123"><ele>155.0</ele><time>2026-04-09T12:34:09Z</time></trkpt><trkpt lat="44.092342841367476" lon="3.9585524524476368"><ele>155.0</ele><time>2026-04-09T12:34:23Z</time></trkpt><trkpt lat="44.092384660492314" lon="3.958480792888143"><ele>155.0</ele><time>2026-04-09T12:36:07Z</time></trkpt><trkpt lat="44.09237646109814" lon="3.9583934894218804"><ele>155.0</ele><time>2026-04-09T12:36:30Z</time></trkpt><trkpt lat="44.09240955178197" lon="3.95829354632702"><ele>155.0</ele><time>2026-04-09T12:37:42Z</time></trkpt><trkpt lat="44.09243770812531" lon="3.958211989352404"><ele>155.0</ele><time>2026-04-09T12:41:04Z</time></trkpt><trkpt lat="44.092505731344495" lon="3.958292560039817"><ele>155.0</ele><time>2026-04-09T12:42:26Z</time></trkpt><trkpt lat="44.09248804777371" lon="3.9583834172714947"><ele>155.0</ele><time>2026-04-09T12:43:36Z</time></trkpt><trkpt lat="44.092548860812414" lon="3.958345334535685"><ele>155.0</ele><time>2026-04-09T12:53:09Z</time></trkpt><trkpt lat="44.092492252582716" lon="3.9583933152979336"><ele>155.0</ele><time>2026-04-09T12:53:27Z</time></trkpt><trkpt lat="44.092452764794665" lon="3.9584968948114536"><ele>155.0</ele><time>2026-04-09T12:54:05Z</time></trkpt><trkpt lat="44.09249340367949" lon="3.958565367814223"><ele>155.0</ele><time>2026-04-09T12:54:35Z</time></trkpt><trkpt lat="44.09256022280112" lon="3.9585780865198466"><ele>155.0</ele><time>2026-04-09T13:29:45Z</time></trkpt><trkpt lat="44.09256210808533" lon="3.958666047319727"><ele>155.0</ele><time>2026-04-09T13:29:54Z</time></trkpt><trkpt lat="44.09254739310169" lon="3.9587588842402566"><ele>155.0</ele><time>2026-04-09T13:30:05Z</time></trkpt><trkpt lat="44.09254364028654" lon="3.958849605365893"><ele>155.0</ele><time>2026-04-09T13:30:15Z</time></trkpt><trkpt lat="44.09260792741174" lon="3.9588245371637387"><ele>155.0</ele><time>2026-04-09T13:46:56Z</time></trkpt><trkpt lat="44.09265715784895" lon="3.958723576988122"><ele>155.0</ele><time>2026-04-09T13:46:59Z</time></trkpt><trkpt lat="44.0926925933889" lon="3.958633878354413"><ele>155.0</ele><time>2026-04-09T13:47:01Z</time></trkpt><trkpt lat="44.09272735390808" lon="3.9585607267704463"><ele>155.0</ele><time>2026-04-09T13:47:03Z</time></trkpt><trkpt lat="44.092765543080255" lon="3.95846902270841"><ele>155.0</ele><time>2026-04-09T13:47:06Z</time></trkpt><trkpt lat="44.09280377055594" lon="3.958381919361765"><ele>155.16666666666666</ele><time>2026-04-09T13:47:09Z</time></trkpt><trkpt lat="44.092849507035474" lon="3.9582833233234074"><ele>155.33333333333331</ele><time>2026-04-09T13:47:12Z</time></trkpt><trkpt lat="44.09289398933173" lon="3.9581910629207044"><ele>155.5</ele><time>2026-04-09T13:47:15Z</time></trkpt><trkpt lat="44.092938531745304" lon="3.9580882443296854"><ele>155.66666666666666</ele><time>2026-04-09T13:47:18Z</time></trkpt><trkpt lat="44.092976494296984" lon="3.9580003295016204"><ele>155.83333333333334</ele><time>2026-04-09T13:47:21Z</time></trkpt><trkpt lat="44.09300697674231" lon="3.957923353361686"><ele>156.0</ele><time>2026-04-09T13:47:23Z</time></trkpt><trkpt lat="44.093036808620134" lon="3.9578349797514107"><ele>156.0</ele><time>2026-04-09T13:47:25Z</time></trkpt><trkpt lat="44.093077417494015" lon="3.957753397469863"><ele>156.0</ele><time>2026-04-09T13:47:27Z</time></trkpt><trkpt lat="44.093110567054055" lon="3.9576592569670397"><ele>156.0</ele><time>2026-04-09T13:47:30Z</time></trkpt><trkpt lat="44.09315534603421" lon="3.957557045130527"><ele>156.0</ele><time>2026-04-09T13:47:37Z</time></trkpt><trkpt lat="44.09321443526736" lon="3.957469569722651"><ele>156.0</ele><time>2026-04-09T13:47:40Z</time></trkpt><trkpt lat="44.09325789331645" lon="3.9574030515432517"><ele>156.0</ele><time>2026-04-09T13:47:42Z</time></trkpt><trkpt lat="44.093323652060654" lon="3.9573155629861807"><ele>156.71428571428572</ele><time>2026-04-09T13:47:45Z</time></trkpt><trkpt lat="44.093373695757705" lon="3.9572534075457217"><ele>157.42857142857142</ele><time>2026-04-09T13:47:47Z</time></trkpt><trkpt lat="44.0934317669468" lon="3.95719579329189"><ele>158.14285714285714</ele><time>2026-04-09T13:47:49Z</time></trkpt><trkpt lat="44.09348908500237" lon="3.9571402384231438"><ele>158.85714285714286</ele><time>2026-04-09T13:47:51Z</time></trkpt><trkpt lat="44.09354195696421" lon="3.9570863502435247"><ele>159.57142857142856</ele><time>2026-04-09T13:47:53Z</time></trkpt><trkpt lat="44.09359625932041" lon="3.9570316780545958"><ele>160.28571428571428</ele><time>2026-04-09T13:47:55Z</time></trkpt><trkpt lat="44.09365134371934" lon="3.95696479533467"><ele>161.0</ele><time>2026-04-09T13:47:57Z</time></trkpt><trkpt lat="44.09370459104665" lon="3.95688268881018"><ele>161.0</ele><time>2026-04-09T13:47:59Z</time></trkpt><trkpt lat="44.09376140889055" lon="3.956777460144123"><ele>161.0</ele><time>2026-04-09T13:48:01Z</time></trkpt><trkpt lat="44.09381742377249" lon="3.9566639839659135"><ele>161.0</ele><time>2026-04-09T13:48:03Z</time></trkpt><trkpt lat="44.09386882841629" lon="3.9565534069538586"><ele>161.0</ele><time>2026-04-09T13:48:05Z</time></trkpt><trkpt lat="44.093912763959054" lon="3.9564662156641264"><ele>161.0</ele><time>2026-04-09T13:48:07Z</time></trkpt><trkpt lat="44.09396337219792" lon="3.9563950174529827"><ele>161.0</ele><time>2026-04-09T13:48:10Z</time></trkpt><trkpt lat="44.094016092645994" lon="3.9563296397167083"><ele>160.33333333333331</ele><time>2026-04-09T13:48:12Z</time></trkpt><trkpt lat="44.09406230008338" lon="3.956223616712344"><ele>159.66666666666666</ele><time>2026-04-09T13:48:14Z</time></trkpt><trkpt lat="44.09408756885662" lon="3.956103521953704"><ele>159.0</ele><time>2026-04-09T13:48:16Z</time></trkpt><trkpt lat="44.094105709423374" lon="3.956004779132104"><ele>158.33333333333334</ele><time>2026-04-09T13:48:18Z</time></trkpt><trkpt lat="44.09413740119007" lon="3.9559176291103166"><ele>157.66666666666669</ele><time>2026-04-09T13:48:21Z</time></trkpt><trkpt lat="44.09412867989781" lon="3.9560119318250075"><ele>157.0</ele><time>2026-04-09T13:50:19Z</time></trkpt><trkpt lat="44.09411243962893" lon="3.9560967841626127"><ele>157.0</ele><time>2026-04-09T13:50:24Z</time></trkpt><trkpt lat="44.09411115234599" lon="3.955983819131945"><ele>157.0</ele><time>2026-04-09T13:51:08Z</time></trkpt><trkpt lat="44.09411579798533" lon="3.9561043706796117"><ele>157.0</ele><time>2026-04-09T13:51:26Z</time></trkpt><trkpt lat="44.09407819817155" lon="3.9562200438804562"><ele>157.0</ele><time>2026-04-09T13:51:29Z</time></trkpt><trkpt lat="44.09404188284297" lon="3.9563070339523776"><ele>157.0</ele><time>2026-04-09T13:51:31Z</time></trkpt><trkpt lat="44.09400128375026" lon="3.956394824034565"><ele>157.0</ele><time>2026-04-09T13:51:33Z</time></trkpt><trkpt lat="44.09395441263706" lon="3.95646586547569"><ele>157.0</ele><time>2026-04-09T13:51:35Z</time></trkpt><trkpt lat="44.0938936986047" lon="3.9565405166859167"><ele>157.0</ele><time>2026-04-09T13:51:37Z</time></trkpt><trkpt lat="44.093814674884875" lon="3.956669341121542"><ele>157.0</ele><time>2026-04-09T13:51:39Z</time></trkpt><trkpt lat="44.093783569105" lon="3.9567462167043357"><ele>157.0</ele><time>2026-04-09T13:51:40Z</time></trkpt><trkpt lat="44.09377543486389" lon="3.9568435623114873"><ele>157.0</ele><time>2026-04-09T13:51:41Z</time></trkpt><trkpt lat="44.093694733385774" lon="3.9569261518563095"><ele>157.0</ele><time>2026-04-09T13:51:43Z</time></trkpt><trkpt lat="44.093644888668805" lon="3.9570013843528797"><ele>156.83333333333334</ele><time>2026-04-09T13:51:45Z</time></trkpt><trkpt lat="44.09358799711956" lon="3.9570700967411483"><ele>156.66666666666669</ele><time>2026-04-09T13:51:47Z</time></trkpt><trkpt lat="44.09351185814141" lon="3.9571356125470767"><ele>156.5</ele><time>2026-04-09T13:51:49Z</time></trkpt><trkpt lat="44.09343946157564" lon="3.9572144343984936"><ele>156.33333333333334</ele><time>2026-04-09T13:51:51Z</time></trkpt><trkpt lat="44.09337237232593" lon="3.9572961578072596"><ele>156.16666666666666</ele><time>2026-04-09T13:51:53Z</time></trkpt><trkpt lat="44.09329917468987" lon="3.9573899915002126"><ele>156.0</ele><time>2026-04-09T13:51:55Z</time></trkpt><trkpt lat="44.09323706832295" lon="3.957475821635155"><ele>156.0</ele><time>2026-04-09T13:51:57Z</time></trkpt><trkpt lat="44.09316886454287" lon="3.9575769353143055"><ele>156.0</ele><time>2026-04-09T13:51:59Z</time></trkpt><trkpt lat="44.093112463076494" lon="3.957693104576501"><ele>156.0</ele><time>2026-04-09T13:52:01Z</time></trkpt><trkpt lat="44.09304888470399" lon="3.9578348440333793"><ele>156.0</ele><time>2026-04-09T13:52:03Z</time></trkpt><trkpt lat="44.09298438362577" lon="3.95798474057291"><ele>156.0</ele><time>2026-04-09T13:52:05Z</time></trkpt><trkpt lat="44.09295168362763" lon="3.9580623396858226"><ele>156.0</ele><time>2026-04-09T13:52:06Z</time></trkpt><trkpt lat="44.09293757711818" lon="3.9581537867992482"><ele>156.0</ele><time>2026-04-09T13:52:07Z</time></trkpt><trkpt lat="44.09289093391612" lon="3.958310346000778"><ele>156.0</ele><time>2026-04-09T13:52:09Z</time></trkpt><trkpt lat="44.09284829408154" lon="3.9584570501661784"><ele>156.0</ele><time>2026-04-09T13:52:11Z</time></trkpt><trkpt lat="44.09280920723994" lon="3.958584810335363"><ele>156.0</ele><time>2026-04-09T13:52:13Z</time></trkpt><trkpt lat="44.09276922690485" lon="3.9587174160778327"><ele>155.75</ele><time>2026-04-09T13:52:15Z</time></trkpt><trkpt lat="44.09272731587867" lon="3.958856650574622"><ele>155.5</ele><time>2026-04-09T13:52:17Z</time></trkpt><trkpt lat="44.09268140094931" lon="3.958996823299534"><ele>155.25</ele><time>2026-04-09T13:52:19Z</time></trkpt><trkpt lat="44.09263073537311" lon="3.9591514992601238"><ele>155.0</ele><time>2026-04-09T13:52:21Z</time></trkpt><trkpt lat="44.092581665485355" lon="3.9592931930134094"><ele>155.5</ele><time>2026-04-09T13:52:23Z</time></trkpt><trkpt lat="44.09253879081718" lon="3.959432014660865"><ele>156.0</ele><time>2026-04-09T13:52:25Z</time></trkpt><trkpt lat="44.092508668940646" lon="3.9595635361183477"><ele>156.5</ele><time>2026-04-09T13:52:27Z</time></trkpt><trkpt lat="44.092490893452336" lon="3.959679743491329"><ele>157.0</ele><time>2026-04-09T13:52:29Z</time></trkpt><trkpt lat="44.09250400083758" lon="3.9597675383142783"><ele>157.5</ele><time>2026-04-09T13:52:32Z</time></trkpt><trkpt lat="44.09251327508618" lon="3.9598596791756124"><ele>158.0</ele><time>2026-04-09T13:52:35Z</time></trkpt><trkpt lat="44.09248382611385" lon="3.9599398807085735"><ele>158.0</ele><time>2026-04-09T13:52:37Z</time></trkpt><trkpt lat="44.09242546328855" lon="3.9599918999877777"><ele>158.0</ele><time>2026-04-09T13:52:39Z</time></trkpt><trkpt lat="44.092371375670524" lon="3.9600946304829283"><ele>158.0</ele><time>2026-04-09T13:52:42Z</time></trkpt><trkpt lat="44.09191900118345" lon="3.9603159569669"><ele>157.0</ele><time>2026-04-09T13:52:44Z</time></trkpt><trkpt lat="44.09187649258538" lon="3.960388840163615"><ele>156.0</ele><time>2026-04-09T13:52:46Z</time></trkpt><trkpt lat="44.09182021679647" lon="3.960489505560225"><ele>155.0</ele><time>2026-04-09T13:52:49Z</time></trkpt><trkpt lat="44.09176184049615" lon="3.9605704642672275"><ele>154.0</ele><time>2026-04-09T13:52:51Z</time></trkpt><trkpt lat="44.09169061648532" lon="3.9606683626378287"><ele>153.0</ele><time>2026-04-09T13:52:53Z</time></trkpt><trkpt lat="44.09158505983122" lon="3.9607344880830824"><ele>153.0</ele><time>2026-04-09T13:52:55Z</time></trkpt><trkpt lat="44.09150589263464" lon="3.9608180528669985"><ele>153.0</ele><time>2026-04-09T13:52:57Z</time></trkpt><trkpt lat="44.09141264406599" lon="3.960858205511556"><ele>153.0</ele><time>2026-04-09T13:52:59Z</time></trkpt><trkpt lat="44.09132751373045" lon="3.9608766494044754"><ele>153.0</ele><time>2026-04-09T13:53:01Z</time></trkpt><trkpt lat="44.09126237800708" lon="3.96088378105757"><ele>153.0</ele><time>2026-04-09T13:53:05Z</time></trkpt><trkpt lat="44.091174341944956" lon="3.9608777004869724"><ele>153.0</ele><time>2026-04-09T13:53:17Z</time></trkpt><trkpt lat="44.091116419633906" lon="3.9608153313748073"><ele>153.0</ele><time>2026-04-09T13:53:19Z</time></trkpt><trkpt lat="44.09101651941364" lon="3.9607303116993324"><ele>153.0</ele><time>2026-04-09T13:53:21Z</time></trkpt><trkpt lat="44.09090428533733" lon="3.9606837164349007"><ele>153.0</ele><time>2026-04-09T13:53:23Z</time></trkpt><trkpt lat="44.09080500398062" lon="3.960638854978012"><ele>153.0</ele><time>2026-04-09T13:53:25Z</time></trkpt><trkpt lat="44.09068569908541" lon="3.9606048931214777"><ele>153.4</ele><time>2026-04-09T13:53:27Z</time></trkpt><trkpt lat="44.0905660710347" lon="3.9605939720932506"><ele>153.8</ele><time>2026-04-09T13:53:29Z</time></trkpt><trkpt lat="44.090444262835" lon="3.9606356738136332"><ele>154.2</ele><time>2026-04-09T13:53:31Z</time></trkpt><trkpt lat="44.090391394891384" lon="3.960690902896865"><ele>154.6</ele><time>2026-04-09T13:53:32Z</time></trkpt><trkpt lat="44.09035012912582" lon="3.9607606124811583"><ele>155.0</ele><time>2026-04-09T13:53:33Z</time></trkpt><trkpt lat="44.09027922580295" lon="3.960899848793121"><ele>155.2</ele><time>2026-04-09T13:53:35Z</time></trkpt><trkpt lat="44.09021728789418" lon="3.9610372434391565"><ele>155.4</ele><time>2026-04-09T13:53:37Z</time></trkpt><trkpt lat="44.09015983998699" lon="3.9611612564212946"><ele>155.6</ele><time>2026-04-09T13:53:39Z</time></trkpt><trkpt lat="44.09010144615371" lon="3.9612831575234884"><ele>155.8</ele><time>2026-04-09T13:53:41Z</time></trkpt><trkpt lat="44.09003385927839" lon="3.961408655740257"><ele>156.0</ele><time>2026-04-09T13:53:43Z</time></trkpt><trkpt lat="44.08995964614652" lon="3.961531167219411"><ele>160.0</ele><time>2026-04-09T13:53:45Z</time></trkpt><trkpt lat="44.08988260226071" lon="3.9616464505155555"><ele>164.0</ele><time>2026-04-09T13:53:47Z</time></trkpt><trkpt lat="44.0898043329605" lon="3.9617322578614114"><ele>168.0</ele><time>2026-04-09T13:53:49Z</time></trkpt><trkpt lat="44.08973553631921" lon="3.9618002054696997"><ele>172.0</ele><time>2026-04-09T13:53:51Z</time></trkpt><trkpt lat="44.08964880135281" lon="3.961842843850131"><ele>176.0</ele><time>2026-04-09T13:53:57Z</time></trkpt><trkpt lat="44.089599985787665" lon="3.9617242762410783"><ele>176.0</ele><time>2026-04-09T13:53:58Z</time></trkpt><trkpt lat="44.089544790288905" lon="3.961674003666842"><ele>176.0</ele><time>2026-04-09T13:53:59Z</time></trkpt><trkpt lat="44.08949662297677" lon="3.961602409830128"><ele>176.0</ele><time>2026-04-09T13:54:00Z</time></trkpt><trkpt lat="44.08944475060202" lon="3.961519424985547"><ele>176.0</ele><time>2026-04-09T13:54:01Z</time></trkpt><trkpt lat="44.08939424841516" lon="3.961426001931428"><ele>176.0</ele><time>2026-04-09T13:54:02Z</time></trkpt><trkpt lat="44.089342359693596" lon="3.9613249926539407"><ele>176.0</ele><time>2026-04-09T13:54:03Z</time></trkpt><trkpt lat="44.08928870236834" lon="3.961220721237847"><ele>176.0</ele><time>2026-04-09T13:54:04Z</time></trkpt><trkpt lat="44.089226975770956" lon="3.961124201141505"><ele>176.0</ele><time>2026-04-09T13:54:05Z</time></trkpt><trkpt lat="44.089156638621645" lon="3.9610382949180063"><ele>176.0</ele><time>2026-04-09T13:54:06Z</time></trkpt><trkpt lat="44.08907157910305" lon="3.9609693519137146"><ele>176.0</ele><time>2026-04-09T13:54:07Z</time></trkpt><trkpt lat="44.088987074221464" lon="3.9608852659117075"><ele>176.0</ele><time>2026-04-09T13:54:08Z</time></trkpt><trkpt lat="44.08888663845049" lon="3.9608358750053947"><ele>174.5</ele><time>2026-04-09T13:54:09Z</time></trkpt><trkpt lat="44.088787139187396" lon="3.9607651884943547"><ele>173.0</ele><time>2026-04-09T13:54:10Z</time></trkpt><trkpt lat="44.08868392870444" lon="3.9606930345259066"><ele>171.5</ele><time>2026-04-09T13:54:11Z</time></trkpt><trkpt lat="44.08858485715106" lon="3.960616851711647"><ele>170.0</ele><time>2026-04-09T13:54:12Z</time></trkpt><trkpt lat="44.088482073246986" lon="3.9605472109074014"><ele>170.0</ele><time>2026-04-09T13:54:13Z</time></trkpt><trkpt lat="44.08838000088441" lon="3.960477548387917"><ele>170.0</ele><time>2026-04-09T13:54:14Z</time></trkpt><trkpt lat="44.08827553149879" lon="3.9604080845388014"><ele>170.0</ele><time>2026-04-09T13:54:15Z</time></trkpt><trkpt lat="44.08817206477429" lon="3.9603319407798816"><ele>170.0</ele><time>2026-04-09T13:54:16Z</time></trkpt><trkpt lat="44.088066557796516" lon="3.960251662961591"><ele>169.25</ele><time>2026-04-09T13:54:17Z</time></trkpt><trkpt lat="44.08795660990989" lon="3.960180504211091"><ele>168.5</ele><time>2026-04-09T13:54:18Z</time></trkpt><trkpt lat="44.0878502708253" lon="3.960122995018402"><ele>167.75</ele><time>2026-04-09T13:54:19Z</time></trkpt><trkpt lat="44.0877386200883" lon="3.96010000246032"><ele>167.0</ele><time>2026-04-09T13:54:20Z</time></trkpt><trkpt lat="44.087629139480704" lon="3.9601022199669442"><ele>167.0</ele><time>2026-04-09T13:54:21Z</time></trkpt><trkpt lat="44.08752449766851" lon="3.9601465164413208"><ele>167.0</ele><time>2026-04-09T13:54:22Z</time></trkpt><trkpt lat="44.087424522292196" lon="3.960222764456484"><ele>167.0</ele><time>2026-04-09T13:54:23Z</time></trkpt><trkpt lat="44.08733411989476" lon="3.9603225591973983"><ele>167.0</ele><time>2026-04-09T13:54:24Z</time></trkpt><trkpt lat="44.08725867864031" lon="3.9604464149670355"><ele>167.0</ele><time>2026-04-09T13:54:25Z</time></trkpt><trkpt lat="44.08718678720631" lon="3.960571221545666"><ele>167.0</ele><time>2026-04-09T13:54:26Z</time></trkpt><trkpt lat="44.08710729473611" lon="3.9606952750366142"><ele>167.0</ele><time>2026-04-09T13:54:27Z</time></trkpt><trkpt lat="44.087034475402284" lon="3.9608235043185407"><ele>167.0</ele><time>2026-04-09T13:54:28Z</time></trkpt><trkpt lat="44.08695285629196" lon="3.9609431955899748"><ele>167.0</ele><time>2026-04-09T13:54:29Z</time></trkpt><trkpt lat="44.08686937050631" lon="3.9610628758895348"><ele>167.0</ele><time>2026-04-09T13:54:30Z</time></trkpt><trkpt lat="44.086767305572806" lon="3.9611614167983706"><ele>167.0</ele><time>2026-04-09T13:54:31Z</time></trkpt><trkpt lat="44.086663293961045" lon="3.961248844981588"><ele>167.0</ele><time>2026-04-09T13:54:32Z</time></trkpt><trkpt lat="44.08656085898653" lon="3.9613390790390444"><ele>166.75</ele><time>2026-04-09T13:54:33Z</time></trkpt><trkpt lat="44.08646522456512" lon="3.9614474134531172"><ele>166.5</ele><time>2026-04-09T13:54:34Z</time></trkpt><trkpt lat="44.08638089611739" lon="3.9615714689672674"><ele>166.25</ele><time>2026-04-09T13:54:35Z</time></trkpt><trkpt lat="44.08630331885352" lon="3.9617023921534904"><ele>166.0</ele><time>2026-04-09T13:54:36Z</time></trkpt><trkpt lat="44.086221413519944" lon="3.9618302256586637"><ele>166.0</ele><time>2026-04-09T13:54:37Z</time></trkpt><trkpt lat="44.086121935529206" lon="3.9619302831364673"><ele>166.0</ele><time>2026-04-09T13:54:38Z</time></trkpt><trkpt lat="44.086029099802936" lon="3.9620351302485"><ele>166.0</ele><time>2026-04-09T13:54:39Z</time></trkpt><trkpt lat="44.08594837469919" lon="3.9621552080092672"><ele>166.0</ele><time>2026-04-09T13:54:40Z</time></trkpt><trkpt lat="44.08585431543426" lon="3.962246201558885"><ele>162.25</ele><time>2026-04-09T13:54:41Z</time></trkpt><trkpt lat="44.085754683029066" lon="3.9623330080141277"><ele>158.5</ele><time>2026-04-09T13:54:42Z</time></trkpt><trkpt lat="44.08565024804519" lon="3.962400376206186"><ele>154.75</ele><time>2026-04-09T13:54:43Z</time></trkpt><trkpt lat="44.08553968364653" lon="3.962444969629053"><ele>151.0</ele><time>2026-04-09T13:54:44Z</time></trkpt><trkpt lat="44.085424934659365" lon="3.962471659875082"><ele>151.0</ele><time>2026-04-09T13:54:45Z</time></trkpt><trkpt lat="44.085312536893326" lon="3.96249989055422"><ele>151.0</ele><time>2026-04-09T13:54:46Z</time></trkpt><trkpt lat="44.08520775137389" lon="3.9625558350810004"><ele>151.0</ele><time>2026-04-09T13:54:47Z</time></trkpt><trkpt lat="44.08511215326275" lon="3.962647378612551"><ele>151.0</ele><time>2026-04-09T13:54:48Z</time></trkpt><trkpt lat="44.085038079966935" lon="3.9627661687632822"><ele>151.25</ele><time>2026-04-09T13:54:49Z</time></trkpt><trkpt lat="44.0849631415537" lon="3.9628869389136905"><ele>151.5</ele><time>2026-04-09T13:54:50Z</time></trkpt><trkpt lat="44.08488400550803" lon="3.96300345866479"><ele>151.75</ele><time>2026-04-09T13:54:51Z</time></trkpt><trkpt lat="44.08479575809565" lon="3.9631092504628986"><ele>152.0</ele><time>2026-04-09T13:54:52Z</time></trkpt><trkpt lat="44.08470385319356" lon="3.963204027799528"><ele>152.0</ele><time>2026-04-09T13:54:53Z</time></trkpt><trkpt lat="44.084610548818844" lon="3.9632886076990665"><ele>152.0</ele><time>2026-04-09T13:54:54Z</time></trkpt><trkpt lat="44.08451767416422" lon="3.963368374174384"><ele>152.0</ele><time>2026-04-09T13:54:55Z</time></trkpt><trkpt lat="44.08442998773787" lon="3.963455434645722"><ele>152.0</ele><time>2026-04-09T13:54:56Z</time></trkpt><trkpt lat="44.08434060852358" lon="3.963538502175188"><ele>152.0</ele><time>2026-04-09T13:54:57Z</time></trkpt><trkpt lat="44.08426070670186" lon="3.9636234969158415"><ele>153.6</ele><time>2026-04-09T13:54:58Z</time></trkpt><trkpt lat="44.084201019999895" lon="3.9637319887222313"><ele>155.2</ele><time>2026-04-09T13:54:59Z</time></trkpt><trkpt lat="44.084171188979646" lon="3.9638639292991087"><ele>156.8</ele><time>2026-04-09T13:55:00Z</time></trkpt><trkpt lat="44.084165208172266" lon="3.9640046871474643"><ele>158.4</ele><time>2026-04-09T13:55:01Z</time></trkpt><trkpt lat="44.084176236881504" lon="3.96415742943923"><ele>160.0</ele><time>2026-04-09T13:55:02Z</time></trkpt><trkpt lat="44.08418118469784" lon="3.964320374305103"><ele>160.25</ele><time>2026-04-09T13:55:03Z</time></trkpt><trkpt lat="44.08418859338025" lon="3.964485184654527"><ele>160.5</ele><time>2026-04-09T13:55:04Z</time></trkpt><trkpt lat="44.08419763340774" lon="3.9646474750556466"><ele>160.75</ele><time>2026-04-09T13:55:05Z</time></trkpt><trkpt lat="44.084201256963055" lon="3.9648100501908425"><ele>161.0</ele><time>2026-04-09T13:55:06Z</time></trkpt><trkpt lat="44.08419933380311" lon="3.964969523476621"><ele>161.0</ele><time>2026-04-09T13:55:07Z</time></trkpt><trkpt lat="44.08418621573037" lon="3.965118824345938"><ele>161.0</ele><time>2026-04-09T13:55:08Z</time></trkpt><trkpt lat="44.084145011284896" lon="3.965261384530037"><ele>161.0</ele><time>2026-04-09T13:55:09Z</time></trkpt><trkpt lat="44.08408594668466" lon="3.9653927884789906"><ele>161.0</ele><time>2026-04-09T13:55:10Z</time></trkpt><trkpt lat="44.08401405079802" lon="3.965513312359137"><ele>161.0</ele><time>2026-04-09T13:55:11Z</time></trkpt><trkpt lat="44.0839310126692" lon="3.9656269293069877"><ele>161.5</ele><time>2026-04-09T13:55:12Z</time></trkpt><trkpt lat="44.083841184464376" lon="3.9657338415795427"><ele>162.0</ele><time>2026-04-09T13:55:13Z</time></trkpt><trkpt lat="44.08374997618088" lon="3.965840814089818"><ele>162.5</ele><time>2026-04-09T13:55:14Z</time></trkpt><trkpt lat="44.083659632075985" lon="3.9659511641006135"><ele>163.0</ele><time>2026-04-09T13:55:15Z</time></trkpt><trkpt lat="44.08356932274468" lon="3.966063573662915"><ele>163.0</ele><time>2026-04-09T13:55:16Z</time></trkpt><trkpt lat="44.08347962813483" lon="3.966174230446814"><ele>163.0</ele><time>2026-04-09T13:55:17Z</time></trkpt><trkpt lat="44.08339277655615" lon="3.966290382014228"><ele>163.0</ele><time>2026-04-09T13:55:18Z</time></trkpt><trkpt lat="44.083303405751344" lon="3.966401907059513"><ele>163.0</ele><time>2026-04-09T13:55:19Z</time></trkpt><trkpt lat="44.08320945625177" lon="3.9665005735255"><ele>162.75</ele><time>2026-04-09T13:55:20Z</time></trkpt><trkpt lat="44.08311117534867" lon="3.966586981778248"><ele>162.5</ele><time>2026-04-09T13:55:21Z</time></trkpt><trkpt lat="44.083011341083804" lon="3.966666184123766"><ele>162.25</ele><time>2026-04-09T13:55:22Z</time></trkpt><trkpt lat="44.08291221590678" lon="3.966748998686555"><ele>162.0</ele><time>2026-04-09T13:55:23Z</time></trkpt><trkpt lat="44.082819349793894" lon="3.9668400925616694"><ele>164.2</ele><time>2026-04-09T13:55:24Z</time></trkpt><trkpt lat="44.08273049395415" lon="3.966934478476143"><ele>166.39999999999998</ele><time>2026-04-09T13:55:25Z</time></trkpt><trkpt lat="44.08264215755684" lon="3.967025859027548"><ele>168.60000000000002</ele><time>2026-04-09T13:55:26Z</time></trkpt><trkpt lat="44.082560605107105" lon="3.9671206883663332"><ele>170.8</ele><time>2026-04-09T13:55:27Z</time></trkpt><trkpt lat="44.08248015794418" lon="3.967212121251877"><ele>173.0</ele><time>2026-04-09T13:55:28Z</time></trkpt><trkpt lat="44.08239888520663" lon="3.967302663205095"><ele>173.2</ele><time>2026-04-09T13:55:29Z</time></trkpt><trkpt lat="44.082316296430896" lon="3.9673942794390333"><ele>173.4</ele><time>2026-04-09T13:55:30Z</time></trkpt><trkpt lat="44.082235658816074" lon="3.96748042915136"><ele>173.6</ele><time>2026-04-09T13:55:31Z</time></trkpt><trkpt lat="44.08215486030907" lon="3.967567229086327"><ele>173.79999999999998</ele><time>2026-04-09T13:55:32Z</time></trkpt><trkpt lat="44.08207034095081" lon="3.967641838562171"><ele>174.0</ele><time>2026-04-09T13:55:33Z</time></trkpt><trkpt lat="44.08197051683464" lon="3.96768499714947"><ele>178.0</ele><time>2026-04-09T13:55:34Z</time></trkpt><trkpt lat="44.081858664510555" lon="3.967668303380009"><ele>182.0</ele><time>2026-04-09T13:55:35Z</time></trkpt><trkpt lat="44.081731360337535" lon="3.9676504896385687"><ele>186.0</ele><time>2026-04-09T13:55:36Z</time></trkpt><trkpt lat="44.081590424498195" lon="3.967626492947884"><ele>190.0</ele><time>2026-04-09T13:55:37Z</time></trkpt><trkpt lat="44.081445654140765" lon="3.967604307717281"><ele>190.0</ele><time>2026-04-09T13:55:38Z</time></trkpt><trkpt lat="44.08132354923051" lon="3.9675866848054113"><ele>190.0</ele><time>2026-04-09T13:55:39Z</time></trkpt><trkpt lat="44.08120304499669" lon="3.967575856903956"><ele>190.0</ele><time>2026-04-09T13:55:40Z</time></trkpt><trkpt lat="44.08109981861683" lon="3.9674965719780446"><ele>190.0</ele><time>2026-04-09T13:55:41Z</time></trkpt><trkpt lat="44.08099575894445" lon="3.967450905473183"><ele>187.66666666666669</ele><time>2026-04-09T13:55:42Z</time></trkpt><trkpt lat="44.0809053007162" lon="3.967443975481014"><ele>185.33333333333334</ele><time>2026-04-09T13:55:43Z</time></trkpt><trkpt lat="44.0808386047854" lon="3.9674460623905974"><ele>183.0</ele><time>2026-04-09T13:55:44Z</time></trkpt><trkpt lat="44.08074998985408" lon="3.967473335723293"><ele>180.66666666666666</ele><time>2026-04-09T13:55:46Z</time></trkpt><trkpt lat="44.08069694309952" lon="3.967520778854121"><ele>178.33333333333331</ele><time>2026-04-09T13:55:47Z</time></trkpt><trkpt lat="44.08064695840007" lon="3.9676270908274605"><ele>176.0</ele><time>2026-04-09T13:55:48Z</time></trkpt><trkpt lat="44.08058875854301" lon="3.9677483440519"><ele>176.0</ele><time>2026-04-09T13:55:49Z</time></trkpt><trkpt lat="44.08055305734111" lon="3.96789999720483"><ele>176.0</ele><time>2026-04-09T13:55:50Z</time></trkpt><trkpt lat="44.08054301068191" lon="3.9680844776996818"><ele>176.0</ele><time>2026-04-09T13:55:51Z</time></trkpt><trkpt lat="44.08051277084147" lon="3.9682594504407476"><ele>176.0</ele><time>2026-04-09T13:55:52Z</time></trkpt><trkpt lat="44.080506642108254" lon="3.968428923281274"><ele>176.0</ele><time>2026-04-09T13:55:53Z</time></trkpt><trkpt lat="44.08047286151953" lon="3.968583757257314"><ele>176.0</ele><time>2026-04-09T13:55:54Z</time></trkpt><trkpt lat="44.080407905665986" lon="3.968724354280664"><ele>176.0</ele><time>2026-04-09T13:55:55Z</time></trkpt><trkpt lat="44.08034882232595" lon="3.968869306835017"><ele>176.0</ele><time>2026-04-09T13:55:56Z</time></trkpt><trkpt lat="44.08029990446868" lon="3.969024597048137"><ele>176.0</ele><time>2026-04-09T13:55:57Z</time></trkpt><trkpt lat="44.08023833697066" lon="3.9691677065645004"><ele>176.0</ele><time>2026-04-09T13:55:58Z</time></trkpt><trkpt lat="44.08016939328357" lon="3.9693054378988237"><ele>176.0</ele><time>2026-04-09T13:55:59Z</time></trkpt><trkpt lat="44.08011154545023" lon="3.969455214399054"><ele>176.0</ele><time>2026-04-09T13:56:00Z</time></trkpt><trkpt lat="44.080054619048525" lon="3.9696019431159373"><ele>173.5</ele><time>2026-04-09T13:56:01Z</time></trkpt><trkpt lat="44.08000352602726" lon="3.969751514091437"><ele>171.0</ele><time>2026-04-09T13:56:02Z</time></trkpt><trkpt lat="44.079929961143456" lon="3.969879364182669"><ele>168.5</ele><time>2026-04-09T13:56:03Z</time></trkpt><trkpt lat="44.0798735221495" lon="3.9700217954247794"><ele>166.0</ele><time>2026-04-09T13:56:04Z</time></trkpt><trkpt lat="44.07976954380222" lon="3.9700957325043813"><ele>174.25</ele><time>2026-04-09T13:56:05Z</time></trkpt><trkpt lat="44.07967220143433" lon="3.9701793498668354"><ele>182.5</ele><time>2026-04-09T13:56:06Z</time></trkpt><trkpt lat="44.07957245689609" lon="3.97026671836594"><ele>190.75</ele><time>2026-04-09T13:56:07Z</time></trkpt><trkpt lat="44.07948304913654" lon="3.9703823060488275"><ele>199.0</ele><time>2026-04-09T13:56:08Z</time></trkpt><trkpt lat="44.0794097680455" lon="3.970505943169893"><ele>199.0</ele><time>2026-04-09T13:56:09Z</time></trkpt><trkpt lat="44.07931270177571" lon="3.9705972556763376"><ele>199.0</ele><time>2026-04-09T13:56:10Z</time></trkpt><trkpt lat="44.079218030277346" lon="3.970683581991371"><ele>199.0</ele><time>2026-04-09T13:56:11Z</time></trkpt><trkpt lat="44.07910876509969" lon="3.970772072083686"><ele>199.0</ele><time>2026-04-09T13:56:12Z</time></trkpt><trkpt lat="44.07900151046481" lon="3.970862217990784"><ele>200.5</ele><time>2026-04-09T13:56:13Z</time></trkpt><trkpt lat="44.078894305062995" lon="3.9709569951961385"><ele>202.0</ele><time>2026-04-09T13:56:14Z</time></trkpt><trkpt lat="44.07878902386167" lon="3.97105007120148"><ele>203.5</ele><time>2026-04-09T13:56:15Z</time></trkpt><trkpt lat="44.07868084657826" lon="3.9711462187869118"><ele>205.0</ele><time>2026-04-09T13:56:16Z</time></trkpt><trkpt lat="44.078576147842014" lon="3.9712428229728456"><ele>205.0</ele><time>2026-04-09T13:56:17Z</time></trkpt><trkpt lat="44.0784742118577" lon="3.9713440038059415"><ele>205.0</ele><time>2026-04-09T13:56:18Z</time></trkpt><trkpt lat="44.07837668640522" lon="3.971451934540243"><ele>205.0</ele><time>2026-04-09T13:56:19Z</time></trkpt><trkpt lat="44.078291176215245" lon="3.971556703100905"><ele>205.0</ele><time>2026-04-09T13:56:20Z</time></trkpt><trkpt lat="44.07820545835413" lon="3.9716570243135263"><ele>206.0</ele><time>2026-04-09T13:56:21Z</time></trkpt><trkpt lat="44.07811099409916" lon="3.971736615147469"><ele>207.0</ele><time>2026-04-09T13:56:22Z</time></trkpt><trkpt lat="44.07800543604713" lon="3.9717898839681935"><ele>208.0</ele><time>2026-04-09T13:56:23Z</time></trkpt><trkpt lat="44.07789318966588" lon="3.971825672023484"><ele>209.0</ele><time>2026-04-09T13:56:24Z</time></trkpt><trkpt lat="44.07777926598013" lon="3.971862951279612"><ele>209.0</ele><time>2026-04-09T13:56:25Z</time></trkpt><trkpt lat="44.07766285086351" lon="3.971899792643624"><ele>209.0</ele><time>2026-04-09T13:56:26Z</time></trkpt><trkpt lat="44.077541864951414" lon="3.9719371044021154"><ele>209.0</ele><time>2026-04-09T13:56:27Z</time></trkpt><trkpt lat="44.07741999635784" lon="3.9719724671746843"><ele>209.0</ele><time>2026-04-09T13:56:28Z</time></trkpt><trkpt lat="44.07729767281302" lon="3.972005622917339"><ele>206.5</ele><time>2026-04-09T13:56:29Z</time></trkpt><trkpt lat="44.07717492089472" lon="3.972039885425893"><ele>204.0</ele><time>2026-04-09T13:56:30Z</time></trkpt><trkpt lat="44.077053802214614" lon="3.972077578508366"><ele>201.5</ele><time>2026-04-09T13:56:31Z</time></trkpt><trkpt lat="44.07693661851519" lon="3.9721165152768303"><ele>199.0</ele><time>2026-04-09T13:56:32Z</time></trkpt><trkpt lat="44.07683427080897" lon="3.9721608288442485"><ele>198.99999999999997</ele><time>2026-04-09T13:56:33Z</time></trkpt><trkpt lat="44.07674732094153" lon="3.9722158442032174"><ele>199.0</ele><time>2026-04-09T13:56:34Z</time></trkpt><trkpt lat="44.076698467902325" lon="3.972316512208302"><ele>199.0</ele><time>2026-04-09T13:56:35Z</time></trkpt><trkpt lat="44.076655484271285" lon="3.9723973174268687"><ele>199.0</ele><time>2026-04-09T13:56:36Z</time></trkpt><trkpt lat="44.07663977233605" lon="3.972489916279605"><ele>198.99999999999997</ele><time>2026-04-09T13:56:37Z</time></trkpt><trkpt lat="44.07665190753157" lon="3.972581880803655"><ele>199.0</ele><time>2026-04-09T13:56:38Z</time></trkpt><trkpt lat="44.076694712093314" lon="3.9726641023704374"><ele>198.0</ele><time>2026-04-09T13:56:39Z</time></trkpt><trkpt lat="44.07675948126822" lon="3.9727305214716515"><ele>197.0</ele><time>2026-04-09T13:56:40Z</time></trkpt><trkpt lat="44.07682916279063" lon="3.972792611007343"><ele>196.0</ele><time>2026-04-09T13:56:41Z</time></trkpt><trkpt lat="44.07690948059196" lon="3.972858510654521"><ele>195.0</ele><time>2026-04-09T13:56:42Z</time></trkpt><trkpt lat="44.076994810346264" lon="3.972928720775036"><ele>194.0</ele><time>2026-04-09T13:56:43Z</time></trkpt><trkpt lat="44.07707956345963" lon="3.9730089790136804"><ele>194.0</ele><time>2026-04-09T13:56:44Z</time></trkpt><trkpt lat="44.07716391897921" lon="3.973107833896848"><ele>194.0</ele><time>2026-04-09T13:56:45Z</time></trkpt><trkpt lat="44.0772440770107" lon="3.973227035710036"><ele>194.0</ele><time>2026-04-09T13:56:46Z</time></trkpt><trkpt lat="44.07732433233909" lon="3.973359620120166"><ele>194.0</ele><time>2026-04-09T13:56:47Z</time></trkpt><trkpt lat="44.07740745779751" lon="3.9734938840635063"><ele>193.75</ele><time>2026-04-09T13:56:48Z</time></trkpt><trkpt lat="44.07749461098686" lon="3.9736282255418645"><ele>193.5</ele><time>2026-04-09T13:56:49Z</time></trkpt><trkpt lat="44.07758646115906" lon="3.973762096655441"><ele>193.25</ele><time>2026-04-09T13:56:50Z</time></trkpt><trkpt lat="44.077684694389745" lon="3.9738897723547386"><ele>193.0</ele><time>2026-04-09T13:56:51Z</time></trkpt><trkpt lat="44.07777807658952" lon="3.9740210925316743"><ele>193.0</ele><time>2026-04-09T13:56:52Z</time></trkpt><trkpt lat="44.07786455207406" lon="3.974164875970646"><ele>193.0</ele><time>2026-04-09T13:56:53Z</time></trkpt><trkpt lat="44.077936790947376" lon="3.974323166524538"><ele>193.0</ele><time>2026-04-09T13:56:54Z</time></trkpt><trkpt lat="44.07801058051296" lon="3.974475320790449"><ele>193.0</ele><time>2026-04-09T13:56:55Z</time></trkpt><trkpt lat="44.07810476242684" lon="3.974613403478831"><ele>194.0</ele><time>2026-04-09T13:56:56Z</time></trkpt><trkpt lat="44.078212602755116" lon="3.9747319959497007"><ele>195.0</ele><time>2026-04-09T13:56:57Z</time></trkpt><trkpt lat="44.07832113081893" lon="3.9748490811268895"><ele>196.0</ele><time>2026-04-09T13:56:58Z</time></trkpt><trkpt lat="44.07842916802123" lon="3.974984473561539"><ele>197.0</ele><time>2026-04-09T13:56:59Z</time></trkpt><trkpt lat="44.07861242882775" lon="3.9752953199544865"><ele>197.75</ele><time>2026-04-09T13:57:01Z</time></trkpt><trkpt lat="44.078683629106145" lon="3.9754562668665154"><ele>198.5</ele><time>2026-04-09T13:57:02Z</time></trkpt><trkpt lat="44.07875122286138" lon="3.975607626594368"><ele>199.25</ele><time>2026-04-09T13:57:03Z</time></trkpt><trkpt lat="44.078829538425204" lon="3.9757347185899103"><ele>200.0</ele><time>2026-04-09T13:57:04Z</time></trkpt><trkpt lat="44.078923625948036" lon="3.9758368575954406"><ele>200.5</ele><time>2026-04-09T13:57:05Z</time></trkpt><trkpt lat="44.079030279122016" lon="3.9759025744006147"><ele>201.0</ele><time>2026-04-09T13:57:06Z</time></trkpt><trkpt lat="44.07913915865127" lon="3.9759574887881484"><ele>201.5</ele><time>2026-04-09T13:57:07Z</time></trkpt><trkpt lat="44.07924971788712" lon="3.9760059071486618"><ele>202.0</ele><time>2026-04-09T13:57:08Z</time></trkpt><trkpt lat="44.07936264979674" lon="3.9760503067923354"><ele>202.0</ele><time>2026-04-09T13:57:09Z</time></trkpt><trkpt lat="44.079477772135206" lon="3.9760964699752868"><ele>202.0</ele><time>2026-04-09T13:57:10Z</time></trkpt><trkpt lat="44.07958871232771" lon="3.9761631008411054"><ele>202.0</ele><time>2026-04-09T13:57:11Z</time></trkpt><trkpt lat="44.07968603195848" lon="3.976263523554408"><ele>202.0</ele><time>2026-04-09T13:57:12Z</time></trkpt><trkpt lat="44.07975915889562" lon="3.976394896479956"><ele>202.0</ele><time>2026-04-09T13:57:13Z</time></trkpt><trkpt lat="44.079806519473415" lon="3.9765462746660236"><ele>202.0</ele><time>2026-04-09T13:57:14Z</time></trkpt><trkpt lat="44.07984635576159" lon="3.97670709963179"><ele>202.0</ele><time>2026-04-09T13:57:15Z</time></trkpt><trkpt lat="44.0798862119563" lon="3.976870086150247"><ele>202.0</ele><time>2026-04-09T13:57:16Z</time></trkpt><trkpt lat="44.079946372670335" lon="3.9770285499523195"><ele>199.25</ele><time>2026-04-09T13:57:17Z</time></trkpt><trkpt lat="44.079995251591534" lon="3.977194007621036"><ele>196.5</ele><time>2026-04-09T13:57:18Z</time></trkpt><trkpt lat="44.080055216824235" lon="3.9773551132190446"><ele>193.75</ele><time>2026-04-09T13:57:19Z</time></trkpt><trkpt lat="44.08011406448579" lon="3.9775150143066793"><ele>191.0</ele><time>2026-04-09T13:57:20Z</time></trkpt><trkpt lat="44.08018021856374" lon="3.977670576585961"><ele>188.75</ele><time>2026-04-09T13:57:21Z</time></trkpt><trkpt lat="44.08024383039244" lon="3.977830875545994"><ele>186.5</ele><time>2026-04-09T13:57:22Z</time></trkpt><trkpt lat="44.08031361449671" lon="3.977984327556931"><ele>184.25</ele><time>2026-04-09T13:57:23Z</time></trkpt><trkpt lat="44.080408387804226" lon="3.9781121950094764"><ele>182.0</ele><time>2026-04-09T13:57:24Z</time></trkpt><trkpt lat="44.08051854743337" lon="3.9782160165797458"><ele>182.0</ele><time>2026-04-09T13:57:25Z</time></trkpt><trkpt lat="44.080638081159876" lon="3.9783112147970776"><ele>182.0</ele><time>2026-04-09T13:57:26Z</time></trkpt><trkpt lat="44.080757976800456" lon="3.978407341286183"><ele>182.0</ele><time>2026-04-09T13:57:27Z</time></trkpt><trkpt lat="44.08087546073926" lon="3.9785111617051405"><ele>182.0</ele><time>2026-04-09T13:57:28Z</time></trkpt><trkpt lat="44.080992035553194" lon="3.9786180803241042"><ele>182.0</ele><time>2026-04-09T13:57:29Z</time></trkpt><trkpt lat="44.08110951805815" lon="3.978723872344939"><ele>182.0</ele><time>2026-04-09T13:57:30Z</time></trkpt><trkpt lat="44.08122956331952" lon="3.978825640156355"><ele>182.0</ele><time>2026-04-09T13:57:31Z</time></trkpt><trkpt lat="44.0813495918475" lon="3.9789292946510812"><ele>182.0</ele><time>2026-04-09T13:57:32Z</time></trkpt><trkpt lat="44.08145832755565" lon="3.97902492972085"><ele>182.0</ele><time>2026-04-09T13:57:33Z</time></trkpt><trkpt lat="44.08155860594858" lon="3.979114487555385"><ele>182.0</ele><time>2026-04-09T13:57:34Z</time></trkpt><trkpt lat="44.081643586953064" lon="3.9792047758442326"><ele>182.0</ele><time>2026-04-09T13:57:35Z</time></trkpt><trkpt lat="44.081701515961946" lon="3.979322338751666"><ele>182.0</ele><time>2026-04-09T13:57:36Z</time></trkpt><trkpt lat="44.08173480971595" lon="3.9794573828758377"><ele>182.0</ele><time>2026-04-09T13:57:37Z</time></trkpt><trkpt lat="44.08171730844092" lon="3.9796016323740755"><ele>180.75</ele><time>2026-04-09T13:57:38Z</time></trkpt><trkpt lat="44.08170141710657" lon="3.9797545949974213"><ele>179.5</ele><time>2026-04-09T13:57:39Z</time></trkpt><trkpt lat="44.08169423166914" lon="3.979912661891085"><ele>178.25</ele><time>2026-04-09T13:57:40Z</time></trkpt><trkpt lat="44.08167005934464" lon="3.980069811725511"><ele>177.0</ele><time>2026-04-09T13:57:41Z</time></trkpt><trkpt lat="44.08165008724884" lon="3.9802253508140026"><ele>175.75</ele><time>2026-04-09T13:57:42Z</time></trkpt><trkpt lat="44.08162931841338" lon="3.9803846368797116"><ele>174.5</ele><time>2026-04-09T13:57:43Z</time></trkpt><trkpt lat="44.08160446469445" lon="3.9805468868163674"><ele>173.25</ele><time>2026-04-09T13:57:44Z</time></trkpt><trkpt lat="44.08158003808035" lon="3.9807095345445154"><ele>172.0</ele><time>2026-04-09T13:57:45Z</time></trkpt><trkpt lat="44.08147081256326" lon="3.980849962163"><ele>169.75</ele><time>2026-04-09T13:57:46Z</time></trkpt><trkpt lat="44.08144653020835" lon="3.9810168140059385"><ele>167.5</ele><time>2026-04-09T13:57:47Z</time></trkpt><trkpt lat="44.08150775101037" lon="3.9812151955455146"><ele>165.25</ele><time>2026-04-09T13:57:48Z</time></trkpt><trkpt lat="44.081488415350336" lon="3.9813910039646383"><ele>163.0</ele><time>2026-04-09T13:57:49Z</time></trkpt><trkpt lat="44.08146575066862" lon="3.981562782155351"><ele>162.5</ele><time>2026-04-09T13:57:50Z</time></trkpt><trkpt lat="44.08144338518882" lon="3.9817409566031907"><ele>162.0</ele><time>2026-04-09T13:57:51Z</time></trkpt><trkpt lat="44.08141548085641" lon="3.98190874966457"><ele>161.5</ele><time>2026-04-09T13:57:52Z</time></trkpt><trkpt lat="44.08138778189941" lon="3.982083468057288"><ele>161.0</ele><time>2026-04-09T13:57:53Z</time></trkpt><trkpt lat="44.081361622106336" lon="3.9822562821993817"><ele>161.0</ele><time>2026-04-09T13:57:54Z</time></trkpt><trkpt lat="44.08133638218518" lon="3.982430180719381"><ele>161.0</ele><time>2026-04-09T13:57:55Z</time></trkpt><trkpt lat="44.081309691943154" lon="3.982604504467713"><ele>161.0</ele><time>2026-04-09T13:57:56Z</time></trkpt><trkpt lat="44.081283045365154" lon="3.9827720015925103"><ele>161.0</ele><time>2026-04-09T13:57:57Z</time></trkpt><trkpt lat="44.08125898545808" lon="3.9829178119714825"><ele>161.33333333333331</ele><time>2026-04-09T13:57:58Z</time></trkpt><trkpt lat="44.081241544380454" lon="3.9830419588553543"><ele>161.66666666666666</ele><time>2026-04-09T13:57:59Z</time></trkpt><trkpt lat="44.08122646518663" lon="3.983152505323235"><ele>162.0</ele><time>2026-04-09T13:58:00Z</time></trkpt><trkpt lat="44.08121754091313" lon="3.983262681537648"><ele>162.33333333333334</ele><time>2026-04-09T13:58:01Z</time></trkpt><trkpt lat="44.08121236416766" lon="3.9833714459554495"><ele>162.66666666666669</ele><time>2026-04-09T13:58:02Z</time></trkpt><trkpt lat="44.081208496236215" lon="3.9834815834816615"><ele>163.0</ele><time>2026-04-09T13:58:03Z</time></trkpt><trkpt lat="44.08120464794794" lon="3.983588642130081"><ele>163.16666666666669</ele><time>2026-04-09T13:58:04Z</time></trkpt><trkpt lat="44.081186334824906" lon="3.9836940034528006"><ele>163.33333333333334</ele><time>2026-04-09T13:58:05Z</time></trkpt><trkpt lat="44.0811545840589" lon="3.9837741868902214"><ele>163.5</ele><time>2026-04-09T13:58:06Z</time></trkpt><trkpt lat="44.081116002856774" lon="3.9838578981814057"><ele>163.66666666666666</ele><time>2026-04-09T13:58:10Z</time></trkpt><trkpt lat="44.08116036341307" lon="3.9840154433904518"><ele>163.83333333333331</ele><time>2026-04-09T13:58:13Z</time></trkpt><trkpt lat="44.081224747607195" lon="3.984103149159491"><ele>164.0</ele><time>2026-04-09T13:58:14Z</time></trkpt><trkpt lat="44.08130823684765" lon="3.984169298332861"><ele>163.39999999999998</ele><time>2026-04-09T13:58:15Z</time></trkpt><trkpt lat="44.08139712603907" lon="3.984216983716272"><ele>162.8</ele><time>2026-04-09T13:58:16Z</time></trkpt><trkpt lat="44.08148329608019" lon="3.984268167238122"><ele>162.2</ele><time>2026-04-09T13:58:17Z</time></trkpt><trkpt lat="44.081567630706886" lon="3.984325653508599"><ele>161.60000000000002</ele><time>2026-04-09T13:58:18Z</time></trkpt><trkpt lat="44.08165664944195" lon="3.984388071282538"><ele>161.0</ele><time>2026-04-09T13:58:19Z</time></trkpt><trkpt lat="44.081749791569365" lon="3.9844530247597167"><ele>161.0</ele><time>2026-04-09T13:58:20Z</time></trkpt><trkpt lat="44.08184500724372" lon="3.9845163055489534"><ele>161.0</ele><time>2026-04-09T13:58:21Z</time></trkpt><trkpt lat="44.0819557410153" lon="3.984545661870226"><ele>161.0</ele><time>2026-04-09T13:58:22Z</time></trkpt><trkpt lat="44.08207526600822" lon="3.984548025298984"><ele>161.0</ele><time>2026-04-09T13:58:23Z</time></trkpt><trkpt lat="44.08219675189091" lon="3.9845388968145166"><ele>161.0</ele><time>2026-04-09T13:58:24Z</time></trkpt><trkpt lat="44.082323546649164" lon="3.98452371556956"><ele>161.0</ele><time>2026-04-09T13:58:25Z</time></trkpt><trkpt lat="44.08245365019738" lon="3.9845038018729078"><ele>161.0</ele><time>2026-04-09T13:58:26Z</time></trkpt><trkpt lat="44.082587510317126" lon="3.9844922043713566"><ele>161.0</ele><time>2026-04-09T13:58:27Z</time></trkpt><trkpt lat="44.082726504301604" lon="3.984499759338519"><ele>160.5</ele><time>2026-04-09T13:58:28Z</time></trkpt><trkpt lat="44.082863865413344" lon="3.9845244890962968"><ele>160.0</ele><time>2026-04-09T13:58:29Z</time></trkpt><trkpt lat="44.08298984755468" lon="3.984567863765785"><ele>159.5</ele><time>2026-04-09T13:58:30Z</time></trkpt><trkpt lat="44.083118559570586" lon="3.984616032140229"><ele>159.0</ele><time>2026-04-09T13:58:31Z</time></trkpt><trkpt lat="44.08324131050119" lon="3.984674032215585"><ele>159.0</ele><time>2026-04-09T13:58:32Z</time></trkpt><trkpt lat="44.08335657389658" lon="3.9847360211499208"><ele>159.0</ele><time>2026-04-09T13:58:33Z</time></trkpt><trkpt lat="44.08346778780969" lon="3.984797356552568"><ele>159.0</ele><time>2026-04-09T13:58:34Z</time></trkpt><trkpt lat="44.08358202804775" lon="3.9848589453733396"><ele>159.0</ele><time>2026-04-09T13:58:35Z</time></trkpt><trkpt lat="44.08369588221324" lon="3.984919877998498"><ele>159.0</ele><time>2026-04-09T13:58:36Z</time></trkpt><trkpt lat="44.083807586240276" lon="3.9849806877126124"><ele>159.0</ele><time>2026-04-09T13:58:37Z</time></trkpt><trkpt lat="44.08391488201981" lon="3.9850404989570927"><ele>159.0</ele><time>2026-04-09T13:58:38Z</time></trkpt><trkpt lat="44.08402019843873" lon="3.98509992939529"><ele>159.0</ele><time>2026-04-09T13:58:39Z</time></trkpt><trkpt lat="44.08411794594076" lon="3.985171448187729"><ele>158.2</ele><time>2026-04-09T13:58:40Z</time></trkpt><trkpt lat="44.084215346084925" lon="3.985225765563016"><ele>157.4</ele><time>2026-04-09T13:58:41Z</time></trkpt><trkpt lat="44.084308704625556" lon="3.9852779869012567"><ele>156.6</ele><time>2026-04-09T13:58:42Z</time></trkpt><trkpt lat="44.084400204833955" lon="3.9853294090060376"><ele>155.8</ele><time>2026-04-09T13:58:43Z</time></trkpt><trkpt lat="44.084489286749395" lon="3.985378906687597"><ele>155.0</ele><time>2026-04-09T13:58:44Z</time></trkpt><trkpt lat="44.084575194612995" lon="3.9854276997228655"><ele>155.0</ele><time>2026-04-09T13:58:45Z</time></trkpt><trkpt lat="44.08465897936343" lon="3.9854750484170984"><ele>155.0</ele><time>2026-04-09T13:58:46Z</time></trkpt><trkpt lat="44.084742312558575" lon="3.985522996560281"><ele>155.0</ele><time>2026-04-09T13:58:47Z</time></trkpt><trkpt lat="44.08483057497689" lon="3.9855737408051843"><ele>155.0</ele><time>2026-04-09T13:58:48Z</time></trkpt><trkpt lat="44.08492307550866" lon="3.9856322581019152"><ele>155.0</ele><time>2026-04-09T13:58:49Z</time></trkpt><trkpt lat="44.08501443179956" lon="3.9856979585797454"><ele>155.4</ele><time>2026-04-09T13:58:50Z</time></trkpt><trkpt lat="44.085106101727874" lon="3.985772540703401"><ele>155.8</ele><time>2026-04-09T13:58:51Z</time></trkpt><trkpt lat="44.08519567627568" lon="3.9858487779787763"><ele>156.2</ele><time>2026-04-09T13:58:52Z</time></trkpt><trkpt lat="44.08528463541463" lon="3.985924268012466"><ele>156.6</ele><time>2026-04-09T13:58:53Z</time></trkpt><trkpt lat="44.08537155207304" lon="3.985999970942773"><ele>157.0</ele><time>2026-04-09T13:58:54Z</time></trkpt><trkpt lat="44.08545815640064" lon="3.986077127704818"><ele>157.0</ele><time>2026-04-09T13:58:55Z</time></trkpt><trkpt lat="44.085542803388726" lon="3.9861516318647343"><ele>157.0</ele><time>2026-04-09T13:58:56Z</time></trkpt><trkpt lat="44.08562650483972" lon="3.9862248218267045"><ele>157.0</ele><time>2026-04-09T13:58:57Z</time></trkpt><trkpt lat="44.08570564181442" lon="3.986296879707"><ele>157.0</ele><time>2026-04-09T13:58:58Z</time></trkpt><trkpt lat="44.08578768887171" lon="3.98636626421641"><ele>157.0</ele><time>2026-04-09T13:58:59Z</time></trkpt><trkpt lat="44.08587126914459" lon="3.986435754343516"><ele>157.8</ele><time>2026-04-09T13:59:00Z</time></trkpt><trkpt lat="44.085958364846185" lon="3.986499900024546"><ele>158.6</ele><time>2026-04-09T13:59:01Z</time></trkpt><trkpt lat="44.08605455808588" lon="3.9865512811040746"><ele>159.4</ele><time>2026-04-09T13:59:02Z</time></trkpt><trkpt lat="44.086154418669075" lon="3.986593526432223"><ele>160.20000000000002</ele><time>2026-04-09T13:59:03Z</time></trkpt><trkpt lat="44.086258414794216" lon="3.9866258062731816"><ele>161.0</ele><time>2026-04-09T13:59:04Z</time></trkpt><trkpt lat="44.08636461636613" lon="3.986647938497883"><ele>161.0</ele><time>2026-04-09T13:59:05Z</time></trkpt><trkpt lat="44.0864727719764" lon="3.9866630741309477"><ele>161.0</ele><time>2026-04-09T13:59:06Z</time></trkpt><trkpt lat="44.086582687856435" lon="3.9866758138311416"><ele>161.0</ele><time>2026-04-09T13:59:07Z</time></trkpt><trkpt lat="44.08669279027354" lon="3.986689061874122"><ele>161.0</ele><time>2026-04-09T13:59:08Z</time></trkpt><trkpt lat="44.086805725342984" lon="3.986703597136594"><ele>161.0</ele><time>2026-04-09T13:59:09Z</time></trkpt><trkpt lat="44.086921928970675" lon="3.9867196780717307"><ele>160.75</ele><time>2026-04-09T13:59:10Z</time></trkpt><trkpt lat="44.08703741181538" lon="3.9867363107263154"><ele>160.5</ele><time>2026-04-09T13:59:11Z</time></trkpt><trkpt lat="44.08715684350512" lon="3.9867523711498647"><ele>160.25</ele><time>2026-04-09T13:59:12Z</time></trkpt><trkpt lat="44.08727875078939" lon="3.9867707660120133"><ele>160.0</ele><time>2026-04-09T13:59:13Z</time></trkpt><trkpt lat="44.087401330278915" lon="3.9868016010997107"><ele>160.75</ele><time>2026-04-09T13:59:14Z</time></trkpt><trkpt lat="44.08751818631566" lon="3.9868507061028846"><ele>161.5</ele><time>2026-04-09T13:59:15Z</time></trkpt><trkpt lat="44.087632917579825" lon="3.9869125858520555"><ele>162.25</ele><time>2026-04-09T13:59:16Z</time></trkpt><trkpt lat="44.087745868664776" lon="3.9869816697561267"><ele>163.0</ele><time>2026-04-09T13:59:17Z</time></trkpt><trkpt lat="44.08785775055824" lon="3.987052015802063"><ele>163.0</ele><time>2026-04-09T13:59:18Z</time></trkpt><trkpt lat="44.087966837546254" lon="3.9871191722566377"><ele>163.0</ele><time>2026-04-09T13:59:19Z</time></trkpt><trkpt lat="44.088082073615034" lon="3.987188251610117"><ele>163.0</ele><time>2026-04-09T13:59:20Z</time></trkpt><trkpt lat="44.08820313013256" lon="3.987292516038035"><ele>163.0</ele><time>2026-04-09T13:59:21Z</time></trkpt><trkpt lat="44.08834310904468" lon="3.987385455659447"><ele>164.33333333333334</ele><time>2026-04-09T13:59:22Z</time></trkpt><trkpt lat="44.088493051258425" lon="3.9874871674283496"><ele>165.66666666666666</ele><time>2026-04-09T13:59:23Z</time></trkpt><trkpt lat="44.08865538680036" lon="3.9875814261832128"><ele>167.0</ele><time>2026-04-09T13:59:24Z</time></trkpt><trkpt lat="44.08879876136593" lon="3.987702100930456"><ele>167.66666666666666</ele><time>2026-04-09T13:59:25Z</time></trkpt><trkpt lat="44.08894122597762" lon="3.9878187036924175"><ele>168.33333333333334</ele><time>2026-04-09T13:59:26Z</time></trkpt><trkpt lat="44.0890769371771" lon="3.98793508213683"><ele>169.0</ele><time>2026-04-09T13:59:27Z</time></trkpt><trkpt lat="44.089209065134554" lon="3.9880500643936245"><ele>169.0</ele><time>2026-04-09T13:59:28Z</time></trkpt><trkpt lat="44.089341697572266" lon="3.98815915887417"><ele>169.0</ele><time>2026-04-09T13:59:29Z</time></trkpt><trkpt lat="44.08946800286987" lon="3.9882679116080744"><ele>169.0</ele><time>2026-04-09T13:59:30Z</time></trkpt><trkpt lat="44.089597515525284" lon="3.9883840825690466"><ele>168.33333333333334</ele><time>2026-04-09T13:59:31Z</time></trkpt><trkpt lat="44.08973067348432" lon="3.9884908671654697"><ele>167.66666666666666</ele><time>2026-04-09T13:59:32Z</time></trkpt><trkpt lat="44.08987094938729" lon="3.988582111488328"><ele>167.0</ele><time>2026-04-09T13:59:33Z</time></trkpt><trkpt lat="44.090015191404454" lon="3.9886548822494547"><ele>167.0</ele><time>2026-04-09T13:59:34Z</time></trkpt><trkpt lat="44.09016617387754" lon="3.988718896702073"><ele>167.0</ele><time>2026-04-09T13:59:35Z</time></trkpt><trkpt lat="44.09031161988267" lon="3.9887809212333623"><ele>167.0</ele><time>2026-04-09T13:59:36Z</time></trkpt><trkpt lat="44.09045805405989" lon="3.988842024143026"><ele>167.0</ele><time>2026-04-09T13:59:37Z</time></trkpt><trkpt lat="44.09060367496245" lon="3.9889028261815764"><ele>167.0</ele><time>2026-04-09T13:59:38Z</time></trkpt><trkpt lat="44.09074711389989" lon="3.988966679006389"><ele>167.0</ele><time>2026-04-09T13:59:39Z</time></trkpt><trkpt lat="44.090890178664814" lon="3.98903044572911"><ele>167.0</ele><time>2026-04-09T13:59:40Z</time></trkpt><trkpt lat="44.09103394554245" lon="3.9890928816876903"><ele>167.0</ele><time>2026-04-09T13:59:41Z</time></trkpt><trkpt lat="44.091176132636214" lon="3.9891544921752895"><ele>167.0</ele><time>2026-04-09T13:59:42Z</time></trkpt><trkpt lat="44.0913143713749" lon="3.9892238236387536"><ele>167.0</ele><time>2026-04-09T13:59:43Z</time></trkpt><trkpt lat="44.091445138930716" lon="3.9893053244193033"><ele>168.0</ele><time>2026-04-09T13:59:44Z</time></trkpt><trkpt lat="44.09156444685368" lon="3.9894144895175274"><ele>169.0</ele><time>2026-04-09T13:59:45Z</time></trkpt><trkpt lat="44.09167526828193" lon="3.9895370236373324"><ele>170.0</ele><time>2026-04-09T13:59:46Z</time></trkpt><trkpt lat="44.09178747653404" lon="3.989661896487632"><ele>171.0</ele><time>2026-04-09T13:59:47Z</time></trkpt><trkpt lat="44.0919003935302" lon="3.989787565099264"><ele>171.0</ele><time>2026-04-09T13:59:48Z</time></trkpt><trkpt lat="44.09201494378915" lon="3.98991136224537"><ele>171.0</ele><time>2026-04-09T13:59:49Z</time></trkpt><trkpt lat="44.0921349400504" lon="3.9900318876475054"><ele>171.0</ele><time>2026-04-09T13:59:50Z</time></trkpt><trkpt lat="44.0922625656584" lon="3.990145355506179"><ele>171.0</ele><time>2026-04-09T13:59:51Z</time></trkpt><trkpt lat="44.09239508473272" lon="3.990250098428829"><ele>172.33333333333334</ele><time>2026-04-09T13:59:52Z</time></trkpt><trkpt lat="44.09253417757597" lon="3.99034724518299"><ele>173.66666666666669</ele><time>2026-04-09T13:59:53Z</time></trkpt><trkpt lat="44.092674645112005" lon="3.990440730128212"><ele>175.0</ele><time>2026-04-09T13:59:54Z</time></trkpt><trkpt lat="44.092814929584485" lon="3.9905316901301355"><ele>175.0</ele><time>2026-04-09T13:59:55Z</time></trkpt><trkpt lat="44.09295940090987" lon="3.9906198385739144"><ele>175.0</ele><time>2026-04-09T13:59:56Z</time></trkpt><trkpt lat="44.09310290930493" lon="3.990705223473642"><ele>175.0</ele><time>2026-04-09T13:59:57Z</time></trkpt><trkpt lat="44.09324801159089" lon="3.990787604828898"><ele>176.0</ele><time>2026-04-09T13:59:58Z</time></trkpt><trkpt lat="44.09339305847898" lon="3.990867288775309"><ele>177.0</ele><time>2026-04-09T13:59:59Z</time></trkpt><trkpt lat="44.09354095229849" lon="3.990945653782401"><ele>178.0</ele><time>2026-04-09T14:00:00Z</time></trkpt><trkpt lat="44.093692323911014" lon="3.9910116995978977"><ele>178.0</ele><time>2026-04-09T14:00:01Z</time></trkpt><trkpt lat="44.09384690720037" lon="3.9910671767323764"><ele>178.0</ele><time>2026-04-09T14:00:02Z</time></trkpt><trkpt lat="44.09400365041073" lon="3.991113471131482"><ele>178.0</ele><time>2026-04-09T14:00:03Z</time></trkpt><trkpt lat="44.0941628715463" lon="3.991148178952003"><ele>176.66666666666669</ele><time>2026-04-09T14:00:04Z</time></trkpt><trkpt lat="44.09432109678781" lon="3.991174095735765"><ele>175.33333333333334</ele><time>2026-04-09T14:00:05Z</time></trkpt><trkpt lat="44.0944809494453" lon="3.9911891014678775"><ele>174.0</ele><time>2026-04-09T14:00:06Z</time></trkpt><trkpt lat="44.09464200193107" lon="3.9911923328711203"><ele>174.0</ele><time>2026-04-09T14:00:07Z</time></trkpt><trkpt lat="44.094799914672464" lon="3.991191168256584"><ele>174.0</ele><time>2026-04-09T14:00:08Z</time></trkpt><trkpt lat="44.09495839768063" lon="3.9911928439629363"><ele>174.0</ele><time>2026-04-09T14:00:09Z</time></trkpt><trkpt lat="44.09511611241312" lon="3.991210137485987"><ele>173.66666666666666</ele><time>2026-04-09T14:00:10Z</time></trkpt><trkpt lat="44.09527315966298" lon="3.991240625423112"><ele>173.33333333333331</ele><time>2026-04-09T14:00:11Z</time></trkpt><trkpt lat="44.095430487508715" lon="3.991274918635183"><ele>173.0</ele><time>2026-04-09T14:00:12Z</time></trkpt><trkpt lat="44.095587889142784" lon="3.9913119793099447"><ele>173.0</ele><time>2026-04-09T14:00:13Z</time></trkpt><trkpt lat="44.095745090984714" lon="3.991350405729814"><ele>173.0</ele><time>2026-04-09T14:00:14Z</time></trkpt><trkpt lat="44.0959008950132" lon="3.991392165981191"><ele>173.0</ele><time>2026-04-09T14:00:15Z</time></trkpt><trkpt lat="44.09605576505338" lon="3.991442949191639"><ele>173.33333333333331</ele><time>2026-04-09T14:00:16Z</time></trkpt><trkpt lat="44.09620862769858" lon="3.991499312419332"><ele>173.66666666666666</ele><time>2026-04-09T14:00:17Z</time></trkpt><trkpt lat="44.096359047275484" lon="3.9915593698748424"><ele>174.0</ele><time>2026-04-09T14:00:18Z</time></trkpt><trkpt lat="44.09650772388486" lon="3.9916158348555597"><ele>174.5</ele><time>2026-04-09T14:00:19Z</time></trkpt><trkpt lat="44.0966528748164" lon="3.9916589924986807"><ele>175.0</ele><time>2026-04-09T14:00:20Z</time></trkpt><trkpt lat="44.096799567272264" lon="3.991699594937082"><ele>175.5</ele><time>2026-04-09T14:00:21Z</time></trkpt><trkpt lat="44.09693990093258" lon="3.9917555042907753"><ele>176.0</ele><time>2026-04-09T14:00:22Z</time></trkpt><trkpt lat="44.097073372620464" lon="3.9918371735098956"><ele>176.0</ele><time>2026-04-09T14:00:23Z</time></trkpt><trkpt lat="44.09720476023215" lon="3.9919279043840254"><ele>176.0</ele><time>2026-04-09T14:00:24Z</time></trkpt><trkpt lat="44.097329739972196" lon="3.9920189730879607"><ele>176.0</ele><time>2026-04-09T14:00:25Z</time></trkpt><trkpt lat="44.097452091765014" lon="3.9921045913836495"><ele>176.0</ele><time>2026-04-09T14:00:26Z</time></trkpt><trkpt lat="44.09756433907904" lon="3.992185136147962"><ele>176.60000000000002</ele><time>2026-04-09T14:00:27Z</time></trkpt><trkpt lat="44.09765929679899" lon="3.99226974120431"><ele>177.2</ele><time>2026-04-09T14:00:28Z</time></trkpt><trkpt lat="44.09772986386197" lon="3.9923939112113884"><ele>177.8</ele><time>2026-04-09T14:00:29Z</time></trkpt><trkpt lat="44.09774844591968" lon="3.9924997445791854"><ele>178.39999999999998</ele><time>2026-04-09T14:00:30Z</time></trkpt><trkpt lat="44.09774175799364" lon="3.9926220623670288"><ele>179.0</ele><time>2026-04-09T14:00:31Z</time></trkpt><trkpt lat="44.09769662225669" lon="3.992735285176465"><ele>179.0</ele><time>2026-04-09T14:00:32Z</time></trkpt><trkpt lat="44.097654895702554" lon="3.992864905774004"><ele>179.0</ele><time>2026-04-09T14:00:33Z</time></trkpt><trkpt lat="44.097616855941205" lon="3.9930375025065494"><ele>179.0</ele><time>2026-04-09T14:00:34Z</time></trkpt><trkpt lat="44.0975523882594" lon="3.993221050776385"><ele>179.0</ele><time>2026-04-09T14:00:35Z</time></trkpt><trkpt lat="44.09749865949523" lon="3.9933997970386965"><ele>179.75</ele><time>2026-04-09T14:00:36Z</time></trkpt><trkpt lat="44.097444705428245" lon="3.9935662758129866"><ele>180.5</ele><time>2026-04-09T14:00:37Z</time></trkpt><trkpt lat="44.09739524570088" lon="3.9937220913850644"><ele>181.25</ele><time>2026-04-09T14:00:38Z</time></trkpt><trkpt lat="44.09736393510245" lon="3.9938816732642834"><ele>182.0</ele><time>2026-04-09T14:00:39Z</time></trkpt><trkpt lat="44.09735096506228" lon="3.99404851135684"><ele>183.75</ele><time>2026-04-09T14:00:40Z</time></trkpt><trkpt lat="44.09737619184327" lon="3.9942072529960755"><ele>185.5</ele><time>2026-04-09T14:00:41Z</time></trkpt><trkpt lat="44.09743421179486" lon="3.9943530452599556"><ele>187.25</ele><time>2026-04-09T14:00:42Z</time></trkpt><trkpt lat="44.097519980626544" lon="3.9944937234993665"><ele>189.0</ele><time>2026-04-09T14:00:43Z</time></trkpt><trkpt lat="44.09762388853837" lon="3.99461003724581"><ele>189.0</ele><time>2026-04-09T14:00:44Z</time></trkpt><trkpt lat="44.097731089130406" lon="3.9947383406578076"><ele>189.0</ele><time>2026-04-09T14:00:45Z</time></trkpt><trkpt lat="44.09783878122067" lon="3.9948755453030262"><ele>189.0</ele><time>2026-04-09T14:00:46Z</time></trkpt><trkpt lat="44.09794736541439" lon="3.9950141060524382"><ele>189.0</ele><time>2026-04-09T14:00:47Z</time></trkpt><trkpt lat="44.098058293519486" lon="3.9951476559222865"><ele>188.75</ele><time>2026-04-09T14:00:48Z</time></trkpt><trkpt lat="44.098168948899456" lon="3.9952806972625523"><ele>188.5</ele><time>2026-04-09T14:00:49Z</time></trkpt><trkpt lat="44.09828123544778" lon="3.995413155883337"><ele>188.25</ele><time>2026-04-09T14:00:50Z</time></trkpt><trkpt lat="44.09839164092013" lon="3.99554698146444"><ele>188.0</ele><time>2026-04-09T14:00:51Z</time></trkpt><trkpt lat="44.098493628118646" lon="3.9956934250085534"><ele>189.0</ele><time>2026-04-09T14:00:52Z</time></trkpt><trkpt lat="44.09858129045877" lon="3.995858736658439"><ele>190.0</ele><time>2026-04-09T14:00:53Z</time></trkpt><trkpt lat="44.09864291744681" lon="3.996042368095184"><ele>191.0</ele><time>2026-04-09T14:00:54Z</time></trkpt><trkpt lat="44.098677689750005" lon="3.9962352355732498"><ele>192.0</ele><time>2026-04-09T14:00:55Z</time></trkpt><trkpt lat="44.09869347660027" lon="3.9964349345466044"><ele>192.0</ele><time>2026-04-09T14:00:56Z</time></trkpt><trkpt lat="44.0986828120465" lon="3.9966375835503043"><ele>192.0</ele><time>2026-04-09T14:00:57Z</time></trkpt><trkpt lat="44.09867273294651" lon="3.996842888406138"><ele>192.0</ele><time>2026-04-09T14:00:58Z</time></trkpt><trkpt lat="44.09865786685208" lon="3.997051693728966"><ele>192.0</ele><time>2026-04-09T14:00:59Z</time></trkpt><trkpt lat="44.098636949599936" lon="3.9972605249438558"><ele>193.33333333333331</ele><time>2026-04-09T14:01:00Z</time></trkpt><trkpt lat="44.09859496158192" lon="3.9974690782410467"><ele>194.66666666666666</ele><time>2026-04-09T14:01:01Z</time></trkpt><trkpt lat="44.09853145415331" lon="3.9976780299630335"><ele>196.0</ele><time>2026-04-09T14:01:02Z</time></trkpt><trkpt lat="44.09844566671992" lon="3.997878640162884"><ele>198.33333333333331</ele><time>2026-04-09T14:01:03Z</time></trkpt><trkpt lat="44.09838603448445" lon="3.998110959105624"><ele>200.66666666666669</ele><time>2026-04-09T14:01:04Z</time></trkpt><trkpt lat="44.09834767658794" lon="3.9983585975250917"><ele>203.0</ele><time>2026-04-09T14:01:05Z</time></trkpt><trkpt lat="44.098293316542055" lon="3.9986060933227265"><ele>204.33333333333334</ele><time>2026-04-09T14:01:06Z</time></trkpt><trkpt lat="44.09823959362274" lon="3.9988585033186923"><ele>205.66666666666669</ele><time>2026-04-09T14:01:07Z</time></trkpt><trkpt lat="44.098178341005344" lon="3.9991039266751836"><ele>207.0</ele><time>2026-04-09T14:01:08Z</time></trkpt><trkpt lat="44.09810890259186" lon="3.999341819281143"><ele>207.0</ele><time>2026-04-09T14:01:09Z</time></trkpt><trkpt lat="44.09803709749899" lon="3.9995630332706043"><ele>207.0</ele><time>2026-04-09T14:01:10Z</time></trkpt><trkpt lat="44.0979692089619" lon="3.999775988457923"><ele>207.0</ele><time>2026-04-09T14:01:11Z</time></trkpt><trkpt lat="44.097903869333464" lon="3.9999792188438095"><ele>207.0</ele><time>2026-04-09T14:01:12Z</time></trkpt><trkpt lat="44.09785096793116" lon="4.0001838347845995"><ele>207.0</ele><time>2026-04-09T14:01:13Z</time></trkpt><trkpt lat="44.0978301891781" lon="4.000401716857292"><ele>207.0</ele><time>2026-04-09T14:01:14Z</time></trkpt><trkpt lat="44.097844413053586" lon="4.000622740484897"><ele>206.66666666666669</ele><time>2026-04-09T14:01:15Z</time></trkpt><trkpt lat="44.09789456357991" lon="4.000833647703362"><ele>206.33333333333334</ele><time>2026-04-09T14:01:16Z</time></trkpt><trkpt lat="44.09796722515506" lon="4.001018689919098"><ele>206.0</ele><time>2026-04-09T14:01:17Z</time></trkpt><trkpt lat="44.09803214671042" lon="4.001201470967832"><ele>206.0</ele><time>2026-04-09T14:01:18Z</time></trkpt><trkpt lat="44.09809394835429" lon="4.00138197844867"><ele>206.0</ele><time>2026-04-09T14:01:19Z</time></trkpt><trkpt lat="44.09813568940413" lon="4.001571038497401"><ele>206.0</ele><time>2026-04-09T14:01:20Z</time></trkpt><trkpt lat="44.09815196340341" lon="4.001766017378889"><ele>206.0</ele><time>2026-04-09T14:01:21Z</time></trkpt><trkpt lat="44.09812500863309" lon="4.001957515557391"><ele>206.0</ele><time>2026-04-09T14:01:22Z</time></trkpt><trkpt lat="44.09807015304168" lon="4.002129129770525"><ele>206.0</ele><time>2026-04-09T14:01:23Z</time></trkpt><trkpt lat="44.097992023809155" lon="4.0022846054152525"><ele>206.0</ele><time>2026-04-09T14:01:24Z</time></trkpt><trkpt lat="44.09789445351655" lon="4.002413595426881"><ele>206.0</ele><time>2026-04-09T14:01:25Z</time></trkpt><trkpt lat="44.0977870371741" lon="4.002535775059092"><ele>207.5</ele><time>2026-04-09T14:01:26Z</time></trkpt><trkpt lat="44.09767917217881" lon="4.0026670546466745"><ele>209.0</ele><time>2026-04-09T14:01:27Z</time></trkpt><trkpt lat="44.09757463370872" lon="4.002797963938457"><ele>210.5</ele><time>2026-04-09T14:01:28Z</time></trkpt><trkpt lat="44.09747017872364" lon="4.002926735374438"><ele>212.0</ele><time>2026-04-09T14:01:29Z</time></trkpt><trkpt lat="44.097368726061354" lon="4.003054305118378"><ele>217.25</ele><time>2026-04-09T14:01:30Z</time></trkpt><trkpt lat="44.097273908723025" lon="4.003202319239006"><ele>222.5</ele><time>2026-04-09T14:01:31Z</time></trkpt><trkpt lat="44.097206417096274" lon="4.003377292754329"><ele>227.75</ele><time>2026-04-09T14:01:32Z</time></trkpt><trkpt lat="44.09718399503155" lon="4.0035721374655315"><ele>233.0</ele><time>2026-04-09T14:01:33Z</time></trkpt><trkpt lat="44.09718298811569" lon="4.003760298451157"><ele>233.0</ele><time>2026-04-09T14:01:34Z</time></trkpt><trkpt lat="44.097177878441876" lon="4.003953744245567"><ele>233.0</ele><time>2026-04-09T14:01:35Z</time></trkpt><trkpt lat="44.097157794872764" lon="4.0041428476627"><ele>233.0</ele><time>2026-04-09T14:01:36Z</time></trkpt><trkpt lat="44.09711541142236" lon="4.004325333751051"><ele>233.0</ele><time>2026-04-09T14:01:37Z</time></trkpt><trkpt lat="44.097072296383885" lon="4.004498233834132"><ele>232.0</ele><time>2026-04-09T14:01:38Z</time></trkpt><trkpt lat="44.09704670804688" lon="4.004673388487505"><ele>231.0</ele><time>2026-04-09T14:01:39Z</time></trkpt><trkpt lat="44.09705371507088" lon="4.004850644159129"><ele>230.0</ele><time>2026-04-09T14:01:40Z</time></trkpt><trkpt lat="44.09709512001949" lon="4.005017857082156"><ele>229.0</ele><time>2026-04-09T14:01:41Z</time></trkpt><trkpt lat="44.09717122514273" lon="4.0051609131223795"><ele>228.0</ele><time>2026-04-09T14:01:42Z</time></trkpt><trkpt lat="44.09725585513954" lon="4.005289207137646"><ele>227.0</ele><time>2026-04-09T14:01:43Z</time></trkpt><trkpt lat="44.0973394399657" lon="4.005424926079737"><ele>226.0</ele><time>2026-04-09T14:01:44Z</time></trkpt><trkpt lat="44.09742470170143" lon="4.005563434116704"><ele>225.0</ele><time>2026-04-09T14:01:45Z</time></trkpt><trkpt lat="44.09750550876245" lon="4.005708504982389"><ele>226.75</ele><time>2026-04-09T14:01:46Z</time></trkpt><trkpt lat="44.09756438688921" lon="4.005873574341131"><ele>228.5</ele><time>2026-04-09T14:01:47Z</time></trkpt><trkpt lat="44.09759238508611" lon="4.006053002877171"><ele>230.25</ele><time>2026-04-09T14:01:48Z</time></trkpt><trkpt lat="44.0975931522558" lon="4.006239202286735"><ele>232.0</ele><time>2026-04-09T14:01:49Z</time></trkpt><trkpt lat="44.097566636944315" lon="4.006425892866197"><ele>232.0</ele><time>2026-04-09T14:01:50Z</time></trkpt><trkpt lat="44.09753792501844" lon="4.006613478606757"><ele>232.0</ele><time>2026-04-09T14:01:51Z</time></trkpt><trkpt lat="44.097508822879654" lon="4.006802254193138"><ele>232.0</ele><time>2026-04-09T14:01:52Z</time></trkpt><trkpt lat="44.09748321286077" lon="4.006993647904092"><ele>232.0</ele><time>2026-04-09T14:01:53Z</time></trkpt><trkpt lat="44.09746568059698" lon="4.007189290574029"><ele>232.0</ele><time>2026-04-09T14:01:54Z</time></trkpt><trkpt lat="44.097475178859284" lon="4.007382222892417"><ele>232.0</ele><time>2026-04-09T14:01:55Z</time></trkpt><trkpt lat="44.09751758545786" lon="4.007569459828895"><ele>232.0</ele><time>2026-04-09T14:01:56Z</time></trkpt><trkpt lat="44.09759495152651" lon="4.007728374960217"><ele>232.0</ele><time>2026-04-09T14:01:57Z</time></trkpt><trkpt lat="44.097699403377646" lon="4.00785436686326"><ele>233.75</ele><time>2026-04-09T14:01:58Z</time></trkpt><trkpt lat="44.097813483800905" lon="4.0079534913920005"><ele>235.5</ele><time>2026-04-09T14:01:59Z</time></trkpt><trkpt lat="44.097926165256524" lon="4.008051832134915"><ele>237.25</ele><time>2026-04-09T14:02:00Z</time></trkpt><trkpt lat="44.09803693898994" lon="4.008157556953391"><ele>239.0</ele><time>2026-04-09T14:02:01Z</time></trkpt><trkpt lat="44.09814299935885" lon="4.00827607793452"><ele>241.25</ele><time>2026-04-09T14:02:02Z</time></trkpt><trkpt lat="44.098245557436705" lon="4.008404372207069"><ele>243.5</ele><time>2026-04-09T14:02:03Z</time></trkpt><trkpt lat="44.098352710764566" lon="4.008532081501809"><ele>245.75</ele><time>2026-04-09T14:02:04Z</time></trkpt><trkpt lat="44.09846676142043" lon="4.008664750246528"><ele>248.0</ele><time>2026-04-09T14:02:05Z</time></trkpt><trkpt lat="44.098586357428076" lon="4.008796161344399"><ele>249.33333333333334</ele><time>2026-04-09T14:02:06Z</time></trkpt><trkpt lat="44.09870954325871" lon="4.008922198626929"><ele>250.66666666666669</ele><time>2026-04-09T14:02:07Z</time></trkpt><trkpt lat="44.098849915905625" lon="4.009006033735906"><ele>252.0</ele><time>2026-04-09T14:02:08Z</time></trkpt><trkpt lat="44.09899924817659" lon="4.009047571988656"><ele>254.66666666666669</ele><time>2026-04-09T14:02:09Z</time></trkpt><trkpt lat="44.09914885847006" lon="4.009059130037687"><ele>257.33333333333337</ele><time>2026-04-09T14:02:10Z</time></trkpt><trkpt lat="44.09929873876267" lon="4.009078790106382"><ele>260.0</ele><time>2026-04-09T14:02:11Z</time></trkpt><trkpt lat="44.099453677154656" lon="4.0091040745731"><ele>260.0</ele><time>2026-04-09T14:02:12Z</time></trkpt><trkpt lat="44.09960703529693" lon="4.00914127166312"><ele>260.0</ele><time>2026-04-09T14:02:13Z</time></trkpt><trkpt lat="44.099756307567354" lon="4.009210268553555"><ele>260.0</ele><time>2026-04-09T14:02:14Z</time></trkpt><trkpt lat="44.09989856629314" lon="4.009307630259486"><ele>259.0</ele><time>2026-04-09T14:02:15Z</time></trkpt><trkpt lat="44.100031059257944" lon="4.009425297424934"><ele>258.0</ele><time>2026-04-09T14:02:16Z</time></trkpt><trkpt lat="44.10015471239049" lon="4.009564370024383"><ele>257.0</ele><time>2026-04-09T14:02:17Z</time></trkpt><trkpt lat="44.10026443048719" lon="4.009723887589082"><ele>257.0</ele><time>2026-04-09T14:02:18Z</time></trkpt><trkpt lat="44.10036937886816" lon="4.0098901971860546"><ele>257.0</ele><time>2026-04-09T14:02:19Z</time></trkpt><trkpt lat="44.1004744110847" lon="4.010055982184808"><ele>257.0</ele><time>2026-04-09T14:02:20Z</time></trkpt><trkpt lat="44.100578524919754" lon="4.010224879438702"><ele>258.0</ele><time>2026-04-09T14:02:21Z</time></trkpt><trkpt lat="44.100673053487206" lon="4.010407180708223"><ele>259.0</ele><time>2026-04-09T14:02:22Z</time></trkpt><trkpt lat="44.100750379618546" lon="4.010607518660279"><ele>260.0</ele><time>2026-04-09T14:02:23Z</time></trkpt><trkpt lat="44.10082174337727" lon="4.010815215557817"><ele>261.6666666666667</ele><time>2026-04-09T14:02:24Z</time></trkpt><trkpt lat="44.10089493244933" lon="4.011022618298594"><ele>263.3333333333333</ele><time>2026-04-09T14:02:25Z</time></trkpt><trkpt lat="44.10096765224569" lon="4.011233336675888"><ele>265.0</ele><time>2026-04-09T14:02:26Z</time></trkpt><trkpt lat="44.10103677287678" lon="4.0114458826220645"><ele>267.0</ele><time>2026-04-09T14:02:27Z</time></trkpt><trkpt lat="44.101102251383985" lon="4.011661177485463"><ele>269.0</ele><time>2026-04-09T14:02:28Z</time></trkpt><trkpt lat="44.10116293079977" lon="4.011880434893403"><ele>271.0</ele><time>2026-04-09T14:02:29Z</time></trkpt><trkpt lat="44.10121962811356" lon="4.0121001694329355"><ele>271.0</ele><time>2026-04-09T14:02:30Z</time></trkpt><trkpt lat="44.10127551214663" lon="4.012317866047382"><ele>271.0</ele><time>2026-04-09T14:02:31Z</time></trkpt><trkpt lat="44.10132361922157" lon="4.012525633503615"><ele>271.0</ele><time>2026-04-09T14:02:32Z</time></trkpt><trkpt lat="44.101333241075174" lon="4.012732256648506"><ele>271.75</ele><time>2026-04-09T14:02:33Z</time></trkpt><trkpt lat="44.101326588111895" lon="4.012927505223009"><ele>272.5</ele><time>2026-04-09T14:02:34Z</time></trkpt><trkpt lat="44.10131673908834" lon="4.013122127974194"><ele>273.25</ele><time>2026-04-09T14:02:35Z</time></trkpt><trkpt lat="44.10132085677114" lon="4.013316445813308"><ele>274.0</ele><time>2026-04-09T14:02:36Z</time></trkpt><trkpt lat="44.10131173559061" lon="4.013513932166505"><ele>274.0</ele><time>2026-04-09T14:02:37Z</time></trkpt><trkpt lat="44.10130298690925" lon="4.013712317615436"><ele>274.0</ele><time>2026-04-09T14:02:38Z</time></trkpt><trkpt lat="44.101293466384845" lon="4.013906518504276"><ele>274.0</ele><time>2026-04-09T14:02:39Z</time></trkpt><trkpt lat="44.10128537478934" lon="4.014097248684266"><ele>274.0</ele><time>2026-04-09T14:02:40Z</time></trkpt><trkpt lat="44.10128507865022" lon="4.014285878186406"><ele>274.0</ele><time>2026-04-09T14:02:41Z</time></trkpt><trkpt lat="44.10130648884378" lon="4.014474485122968"><ele>274.0</ele><time>2026-04-09T14:02:42Z</time></trkpt><trkpt lat="44.10135319646163" lon="4.014652576962353"><ele>274.0</ele><time>2026-04-09T14:02:43Z</time></trkpt><trkpt lat="44.10144028211317" lon="4.014799383390207"><ele>274.0</ele><time>2026-04-09T14:02:44Z</time></trkpt><trkpt lat="44.101555564101595" lon="4.014898726059672"><ele>272.5</ele><time>2026-04-09T14:02:45Z</time></trkpt><trkpt lat="44.10168680545578" lon="4.014977298896752"><ele>271.0</ele><time>2026-04-09T14:02:46Z</time></trkpt><trkpt lat="44.10182877741358" lon="4.015046145999854"><ele>269.5</ele><time>2026-04-09T14:02:47Z</time></trkpt><trkpt lat="44.10197059570065" lon="4.015129150345541"><ele>268.0</ele><time>2026-04-09T14:02:48Z</time></trkpt><trkpt lat="44.10211264160105" lon="4.015217363309528"><ele>268.0</ele><time>2026-04-09T14:02:49Z</time></trkpt><trkpt lat="44.102253586314625" lon="4.015315823971868"><ele>268.0</ele><time>2026-04-09T14:02:50Z</time></trkpt><trkpt lat="44.10239342869685" lon="4.015417812242037"><ele>268.0</ele><time>2026-04-09T14:02:51Z</time></trkpt><trkpt lat="44.102531827058684" lon="4.015525276185722"><ele>269.3333333333333</ele><time>2026-04-09T14:02:52Z</time></trkpt><trkpt lat="44.10267007476329" lon="4.015631495218016"><ele>270.6666666666667</ele><time>2026-04-09T14:02:53Z</time></trkpt><trkpt lat="44.10280848268832" lon="4.0157402785213705"><ele>272.0</ele><time>2026-04-09T14:02:54Z</time></trkpt><trkpt lat="44.10294622656788" lon="4.01585164478339"><ele>272.6666666666667</ele><time>2026-04-09T14:02:55Z</time></trkpt><trkpt lat="44.10308358511509" lon="4.015965893729063"><ele>273.3333333333333</ele><time>2026-04-09T14:02:56Z</time></trkpt><trkpt lat="44.103219762280766" lon="4.016083237082862"><ele>274.0</ele><time>2026-04-09T14:02:57Z</time></trkpt><trkpt lat="44.10334940454004" lon="4.016216123776764"><ele>274.0</ele><time>2026-04-09T14:02:58Z</time></trkpt><trkpt lat="44.10347184771207" lon="4.016369074649429"><ele>274.0</ele><time>2026-04-09T14:02:59Z</time></trkpt><trkpt lat="44.103584769922335" lon="4.016542707002184"><ele>274.0</ele><time>2026-04-09T14:03:00Z</time></trkpt><trkpt lat="44.10368092477094" lon="4.016735022098797"><ele>275.3333333333333</ele><time>2026-04-09T14:03:01Z</time></trkpt><trkpt lat="44.103767954066754" lon="4.016938667204581"><ele>276.6666666666667</ele><time>2026-04-09T14:03:02Z</time></trkpt><trkpt lat="44.103841927615726" lon="4.017156562032516"><ele>278.0</ele><time>2026-04-09T14:03:03Z</time></trkpt><trkpt lat="44.103918026286586" lon="4.017376193044078"><ele>277.6666666666667</ele><time>2026-04-09T14:03:04Z</time></trkpt><trkpt lat="44.10399829518695" lon="4.017596488516222"><ele>277.3333333333333</ele><time>2026-04-09T14:03:05Z</time></trkpt><trkpt lat="44.10407816504716" lon="4.017820942263161"><ele>277.0</ele><time>2026-04-09T14:03:06Z</time></trkpt><trkpt lat="44.10415970742882" lon="4.018049708981703"><ele>277.3333333333333</ele><time>2026-04-09T14:03:07Z</time></trkpt><trkpt lat="44.10424072188734" lon="4.018282310115652"><ele>277.6666666666667</ele><time>2026-04-09T14:03:08Z</time></trkpt><trkpt lat="44.10432130497243" lon="4.01851749797511"><ele>278.0</ele><time>2026-04-09T14:03:09Z</time></trkpt><trkpt lat="44.10440392159605" lon="4.018758320532341"><ele>278.0</ele><time>2026-04-09T14:03:10Z</time></trkpt><trkpt lat="44.10448873230041" lon="4.019000345891618"><ele>278.0</ele><time>2026-04-09T14:03:11Z</time></trkpt><trkpt lat="44.10457437680536" lon="4.019245442267514"><ele>278.0</ele><time>2026-04-09T14:03:12Z</time></trkpt><trkpt lat="44.104660781329535" lon="4.019494747745148"><ele>278.6666666666667</ele><time>2026-04-09T14:03:13Z</time></trkpt><trkpt lat="44.10474965269514" lon="4.019739420925854"><ele>279.3333333333333</ele><time>2026-04-09T14:03:14Z</time></trkpt><trkpt lat="44.10484070652442" lon="4.01997741434322"><ele>280.0</ele><time>2026-04-09T14:03:15Z</time></trkpt><trkpt lat="44.104937518742176" lon="4.020209065907796"><ele>278.66666666666663</ele><time>2026-04-09T14:03:16Z</time></trkpt><trkpt lat="44.105038284560976" lon="4.020437406247296"><ele>277.3333333333333</ele><time>2026-04-09T14:03:17Z</time></trkpt><trkpt lat="44.105143155057085" lon="4.020665155285124"><ele>276.0</ele><time>2026-04-09T14:03:18Z</time></trkpt><trkpt lat="44.1052452890991" lon="4.020896964292107"><ele>275.3333333333333</ele><time>2026-04-09T14:03:19Z</time></trkpt><trkpt lat="44.105346232716485" lon="4.021130998750696"><ele>274.66666666666663</ele><time>2026-04-09T14:03:20Z</time></trkpt><trkpt lat="44.10545083624912" lon="4.02136296686731"><ele>274.0</ele><time>2026-04-09T14:03:21Z</time></trkpt><trkpt lat="44.10555760350003" lon="4.021593713785348"><ele>273.0</ele><time>2026-04-09T14:03:22Z</time></trkpt><trkpt lat="44.10566013006143" lon="4.021827912271987"><ele>272.0</ele><time>2026-04-09T14:03:23Z</time></trkpt><trkpt lat="44.10576494966043" lon="4.022046696155831"><ele>271.0</ele><time>2026-04-09T14:03:24Z</time></trkpt><trkpt lat="44.10586607767346" lon="4.022273829362199"><ele>271.0</ele><time>2026-04-09T14:03:25Z</time></trkpt><trkpt lat="44.105965939932034" lon="4.022494763245835"><ele>271.0</ele><time>2026-04-09T14:03:26Z</time></trkpt><trkpt lat="44.106064761384026" lon="4.022720907908136"><ele>271.0</ele><time>2026-04-09T14:03:27Z</time></trkpt><trkpt lat="44.10616022727632" lon="4.022945260715229"><ele>271.0</ele><time>2026-04-09T14:03:28Z</time></trkpt><trkpt lat="44.10625587689712" lon="4.023163091134692"><ele>271.0</ele><time>2026-04-09T14:03:29Z</time></trkpt><trkpt lat="44.10634983095846" lon="4.023379332396729"><ele>271.0</ele><time>2026-04-09T14:03:30Z</time></trkpt><trkpt lat="44.10644147889329" lon="4.023590407254559"><ele>271.0</ele><time>2026-04-09T14:03:31Z</time></trkpt><trkpt lat="44.10653441515766" lon="4.023806105886844"><ele>271.0</ele><time>2026-04-09T14:03:32Z</time></trkpt><trkpt lat="44.1066343725288" lon="4.024020967640285"><ele>271.0</ele><time>2026-04-09T14:03:33Z</time></trkpt><trkpt lat="44.10673658895676" lon="4.0242083874757615"><ele>271.0</ele><time>2026-04-09T14:03:34Z</time></trkpt><trkpt lat="44.10684462096797" lon="4.024399813015139"><ele>271.0</ele><time>2026-04-09T14:03:35Z</time></trkpt><trkpt lat="44.10695304284384" lon="4.0245879677138205"><ele>271.0</ele><time>2026-04-09T14:03:36Z</time></trkpt><trkpt lat="44.10706649382754" lon="4.024773793901276"><ele>271.0</ele><time>2026-04-09T14:03:37Z</time></trkpt><trkpt lat="44.10717873928156" lon="4.024956916863071"><ele>271.0</ele><time>2026-04-09T14:03:38Z</time></trkpt><trkpt lat="44.10728706932679" lon="4.025143427317587"><ele>271.0</ele><time>2026-04-09T14:03:39Z</time></trkpt><trkpt lat="44.1073851059215" lon="4.0253408302184726"><ele>270.0</ele><time>2026-04-09T14:03:40Z</time></trkpt><trkpt lat="44.107480109583356" lon="4.025534505213521"><ele>269.0</ele><time>2026-04-09T14:03:41Z</time></trkpt><trkpt lat="44.10756965424806" lon="4.025732544674022"><ele>268.0</ele><time>2026-04-09T14:03:42Z</time></trkpt><trkpt lat="44.10765799975673" lon="4.0259219432370665"><ele>267.0</ele><time>2026-04-09T14:03:43Z</time></trkpt><trkpt lat="44.107744785291075" lon="4.026119879317196"><ele>266.0</ele><time>2026-04-09T14:03:44Z</time></trkpt><trkpt lat="44.1078222812769" lon="4.02631304462831"><ele>265.0</ele><time>2026-04-09T14:03:45Z</time></trkpt><trkpt lat="44.107892681615795" lon="4.026506620838512"><ele>266.0</ele><time>2026-04-09T14:03:46Z</time></trkpt><trkpt lat="44.10795350736619" lon="4.026705446520735"><ele>267.0</ele><time>2026-04-09T14:03:47Z</time></trkpt><trkpt lat="44.10799864860216" lon="4.026907008693891"><ele>268.0</ele><time>2026-04-09T14:03:48Z</time></trkpt><trkpt lat="44.108017667048934" lon="4.027118643240809"><ele>268.0</ele><time>2026-04-09T14:03:49Z</time></trkpt><trkpt lat="44.10802176473105" lon="4.02732999865294"><ele>268.0</ele><time>2026-04-09T14:03:50Z</time></trkpt><trkpt lat="44.108019413271464" lon="4.027537481041578"><ele>268.0</ele><time>2026-04-09T14:03:51Z</time></trkpt><trkpt lat="44.10800590502237" lon="4.027745347647507"><ele>268.25</ele><time>2026-04-09T14:03:52Z</time></trkpt><trkpt lat="44.10798543318425" lon="4.027948977720201"><ele>268.5</ele><time>2026-04-09T14:03:53Z</time></trkpt><trkpt lat="44.10797719104782" lon="4.028150117783017"><ele>268.75</ele><time>2026-04-09T14:03:54Z</time></trkpt><trkpt lat="44.10799459635193" lon="4.028348541100645"><ele>269.0</ele><time>2026-04-09T14:03:55Z</time></trkpt><trkpt lat="44.10803479928596" lon="4.028538896389523"><ele>269.0</ele><time>2026-04-09T14:03:56Z</time></trkpt><trkpt lat="44.108092606721875" lon="4.028722069898064"><ele>269.0</ele><time>2026-04-09T14:03:57Z</time></trkpt><trkpt lat="44.10817245531629" lon="4.0288863278280775"><ele>269.0</ele><time>2026-04-09T14:03:58Z</time></trkpt><trkpt lat="44.10825627797675" lon="4.029047239283541"><ele>269.0</ele><time>2026-04-09T14:03:59Z</time></trkpt><trkpt lat="44.10832063352068" lon="4.029219433142293"><ele>269.5</ele><time>2026-04-09T14:04:00Z</time></trkpt><trkpt lat="44.10834951571032" lon="4.0294097441854015"><ele>270.0</ele><time>2026-04-09T14:04:01Z</time></trkpt><trkpt lat="44.10833613567876" lon="4.029619533168854"><ele>270.5</ele><time>2026-04-09T14:04:02Z</time></trkpt><trkpt lat="44.10828502526834" lon="4.0298021016690395"><ele>271.0</ele><time>2026-04-09T14:04:03Z</time></trkpt><trkpt lat="44.1082132745333" lon="4.029966643667875"><ele>272.5</ele><time>2026-04-09T14:04:04Z</time></trkpt><trkpt lat="44.10814567387723" lon="4.030134013488169"><ele>274.0</ele><time>2026-04-09T14:04:05Z</time></trkpt><trkpt lat="44.108108990538504" lon="4.030318656118003"><ele>275.5</ele><time>2026-04-09T14:04:06Z</time></trkpt><trkpt lat="44.10809734672469" lon="4.030514429205791"><ele>277.0</ele><time>2026-04-09T14:04:07Z</time></trkpt><trkpt lat="44.108118492312045" lon="4.0307002696244805"><ele>277.75</ele><time>2026-04-09T14:04:08Z</time></trkpt><trkpt lat="44.10813161189031" lon="4.030881068959143"><ele>278.5</ele><time>2026-04-09T14:04:09Z</time></trkpt><trkpt lat="44.10814270253039" lon="4.03105810636939"><ele>279.25</ele><time>2026-04-09T14:04:10Z</time></trkpt><trkpt lat="44.108154302067135" lon="4.031222446680201"><ele>280.0</ele><time>2026-04-09T14:04:11Z</time></trkpt><trkpt lat="44.10816375243803" lon="4.031390708155241"><ele>280.0</ele><time>2026-04-09T14:04:12Z</time></trkpt><trkpt lat="44.108171840331984" lon="4.031554345884894"><ele>280.0</ele><time>2026-04-09T14:04:13Z</time></trkpt><trkpt lat="44.10818247857958" lon="4.03171816533143"><ele>280.0</ele><time>2026-04-09T14:04:14Z</time></trkpt><trkpt lat="44.10819472340525" lon="4.031885530456266"><ele>280.0</ele><time>2026-04-09T14:04:15Z</time></trkpt><trkpt lat="44.10820495323642" lon="4.032054474885506"><ele>278.5</ele><time>2026-04-09T14:04:16Z</time></trkpt><trkpt lat="44.10821358544419" lon="4.032226583563119"><ele>277.0</ele><time>2026-04-09T14:04:17Z</time></trkpt><trkpt lat="44.10822088229589" lon="4.03239959073483"><ele>275.5</ele><time>2026-04-09T14:04:18Z</time></trkpt><trkpt lat="44.10822078164026" lon="4.032573334577446"><ele>274.0</ele><time>2026-04-09T14:04:19Z</time></trkpt><trkpt lat="44.10819744935122" lon="4.032743758457818"><ele>272.25</ele><time>2026-04-09T14:04:20Z</time></trkpt><trkpt lat="44.108147005662744" lon="4.032907623016484"><ele>270.5</ele><time>2026-04-09T14:04:21Z</time></trkpt><trkpt lat="44.10808671048851" lon="4.0330647094805006"><ele>268.75</ele><time>2026-04-09T14:04:22Z</time></trkpt><trkpt lat="44.10803028292964" lon="4.033223265202762"><ele>267.0</ele><time>2026-04-09T14:04:23Z</time></trkpt><trkpt lat="44.1079803883815" lon="4.033386455903346"><ele>266.0</ele><time>2026-04-09T14:04:24Z</time></trkpt><trkpt lat="44.107927069975574" lon="4.033546500390931"><ele>265.0</ele><time>2026-04-09T14:04:25Z</time></trkpt><trkpt lat="44.10792070967821" lon="4.033733063346381"><ele>264.0</ele><time>2026-04-09T14:04:26Z</time></trkpt><trkpt lat="44.10793150647306" lon="4.033918729464717"><ele>263.0</ele><time>2026-04-09T14:04:27Z</time></trkpt><trkpt lat="44.10796397617253" lon="4.034099488187067"><ele>263.25</ele><time>2026-04-09T14:04:28Z</time></trkpt><trkpt lat="44.10801694007446" lon="4.034278945979203"><ele>263.5</ele><time>2026-04-09T14:04:29Z</time></trkpt><trkpt lat="44.10809526393556" lon="4.0344460650280505"><ele>263.75</ele><time>2026-04-09T14:04:30Z</time></trkpt><trkpt lat="44.1081837885483" lon="4.0346070095534285"><ele>264.0</ele><time>2026-04-09T14:04:31Z</time></trkpt><trkpt lat="44.10827161907479" lon="4.034768782460724"><ele>258.5</ele><time>2026-04-09T14:04:32Z</time></trkpt><trkpt lat="44.10835678695163" lon="4.034927305842193"><ele>253.0</ele><time>2026-04-09T14:04:33Z</time></trkpt><trkpt lat="44.10843728425942" lon="4.035088503759632"><ele>247.5</ele><time>2026-04-09T14:04:34Z</time></trkpt><trkpt lat="44.10851810663857" lon="4.035250909638915"><ele>242.0</ele><time>2026-04-09T14:04:35Z</time></trkpt><trkpt lat="44.108612311317565" lon="4.0354038197888835"><ele>242.0</ele><time>2026-04-09T14:04:36Z</time></trkpt><trkpt lat="44.10871794348613" lon="4.035545413966843"><ele>242.0</ele><time>2026-04-09T14:04:37Z</time></trkpt><trkpt lat="44.10884042203133" lon="4.0356661477665465"><ele>242.0</ele><time>2026-04-09T14:04:38Z</time></trkpt><trkpt lat="44.1089731398413" lon="4.035769656178635"><ele>242.0</ele><time>2026-04-09T14:04:39Z</time></trkpt><trkpt lat="44.109108865765975" lon="4.035870015066925"><ele>240.0</ele><time>2026-04-09T14:04:40Z</time></trkpt><trkpt lat="44.10924231602732" lon="4.035963072316474"><ele>238.0</ele><time>2026-04-09T14:04:41Z</time></trkpt><trkpt lat="44.109368051502805" lon="4.0360501522782775"><ele>236.0</ele><time>2026-04-09T14:04:42Z</time></trkpt><trkpt lat="44.1094954575032" lon="4.036136317106116"><ele>234.0</ele><time>2026-04-09T14:04:43Z</time></trkpt><trkpt lat="44.10961958335592" lon="4.036236621688513"><ele>234.0</ele><time>2026-04-09T14:04:44Z</time></trkpt><trkpt lat="44.10973735504761" lon="4.036353265231037"><ele>234.0</ele><time>2026-04-09T14:04:45Z</time></trkpt><trkpt lat="44.109847156514356" lon="4.036492169932072"><ele>234.0</ele><time>2026-04-09T14:04:46Z</time></trkpt><trkpt lat="44.10995101687988" lon="4.036645414602743"><ele>234.0</ele><time>2026-04-09T14:04:47Z</time></trkpt><trkpt lat="44.11004537791482" lon="4.036811095759901"><ele>231.66666666666669</ele><time>2026-04-09T14:04:48Z</time></trkpt><trkpt lat="44.11013834603177" lon="4.036979645913213"><ele>229.33333333333334</ele><time>2026-04-09T14:04:49Z</time></trkpt><trkpt lat="44.11022954207626" lon="4.037148530724721"><ele>227.0</ele><time>2026-04-09T14:04:50Z</time></trkpt><trkpt lat="44.11032714748518" lon="4.037313424618519"><ele>230.66666666666669</ele><time>2026-04-09T14:04:51Z</time></trkpt><trkpt lat="44.11042613406007" lon="4.037478444860093"><ele>234.33333333333331</ele><time>2026-04-09T14:04:52Z</time></trkpt><trkpt lat="44.110525518724664" lon="4.037645380905391"><ele>238.0</ele><time>2026-04-09T14:04:53Z</time></trkpt><trkpt lat="44.11062523582089" lon="4.037812474493789"><ele>238.0</ele><time>2026-04-09T14:04:54Z</time></trkpt><trkpt lat="44.11073235385344" lon="4.037973865664948"><ele>238.0</ele><time>2026-04-09T14:04:55Z</time></trkpt><trkpt lat="44.11084762246499" lon="4.038126338348321"><ele>238.0</ele><time>2026-04-09T14:04:56Z</time></trkpt><trkpt lat="44.11096110533962" lon="4.038280214655519"><ele>233.0</ele><time>2026-04-09T14:04:57Z</time></trkpt><trkpt lat="44.11107028414723" lon="4.0384327782331795"><ele>228.0</ele><time>2026-04-09T14:04:58Z</time></trkpt><trkpt lat="44.11117650170569" lon="4.038580620796447"><ele>223.0</ele><time>2026-04-09T14:04:59Z</time></trkpt><trkpt lat="44.11128171514933" lon="4.038723183393018"><ele>223.0</ele><time>2026-04-09T14:05:00Z</time></trkpt><trkpt lat="44.11138401132554" lon="4.038857360553916"><ele>223.0</ele><time>2026-04-09T14:05:01Z</time></trkpt><trkpt lat="44.11148457299061" lon="4.038987159808815"><ele>223.0</ele><time>2026-04-09T14:05:02Z</time></trkpt><trkpt lat="44.11159003908159" lon="4.039106691823185"><ele>223.0</ele><time>2026-04-09T14:05:03Z</time></trkpt><trkpt lat="44.11171218090112" lon="4.039200952308097"><ele>220.0</ele><time>2026-04-09T14:05:04Z</time></trkpt><trkpt lat="44.111838083675316" lon="4.039254439928542"><ele>217.0</ele><time>2026-04-09T14:05:05Z</time></trkpt><trkpt lat="44.11195849151888" lon="4.03926772460847"><ele>214.0</ele><time>2026-04-09T14:05:06Z</time></trkpt><trkpt lat="44.11207093370241" lon="4.039281106273591"><ele>211.0</ele><time>2026-04-09T14:05:07Z</time></trkpt><trkpt lat="44.112178104938934" lon="4.039311006484309"><ele>211.0</ele><time>2026-04-09T14:05:08Z</time></trkpt><trkpt lat="44.11227176376875" lon="4.039366078036488"><ele>211.0</ele><time>2026-04-09T14:05:09Z</time></trkpt><trkpt lat="44.11235556781201" lon="4.039451748048103"><ele>211.0</ele><time>2026-04-09T14:05:10Z</time></trkpt><trkpt lat="44.11241352435027" lon="4.039575216243456"><ele>211.0</ele><time>2026-04-09T14:05:11Z</time></trkpt><trkpt lat="44.11245172515658" lon="4.039713854893046"><ele>211.0</ele><time>2026-04-09T14:05:12Z</time></trkpt><trkpt lat="44.11248386374755" lon="4.039853111016951"><ele>210.4</ele><time>2026-04-09T14:05:13Z</time></trkpt><trkpt lat="44.11251121984331" lon="4.039992927368659"><ele>209.8</ele><time>2026-04-09T14:05:14Z</time></trkpt><trkpt lat="44.11253385338147" lon="4.040134419690149"><ele>209.20000000000002</ele><time>2026-04-09T14:05:15Z</time></trkpt><trkpt lat="44.112550610676514" lon="4.040276728123287"><ele>208.60000000000002</ele><time>2026-04-09T14:05:16Z</time></trkpt><trkpt lat="44.11256209256799" lon="4.040424723455122"><ele>208.0</ele><time>2026-04-09T14:05:17Z</time></trkpt><trkpt lat="44.1125640723806" lon="4.040574322446159"><ele>208.0</ele><time>2026-04-09T14:05:18Z</time></trkpt><trkpt lat="44.112554117066836" lon="4.0407283839381"><ele>208.0</ele><time>2026-04-09T14:05:19Z</time></trkpt><trkpt lat="44.112532858490816" lon="4.040883973064254"><ele>208.0</ele><time>2026-04-09T14:05:20Z</time></trkpt><trkpt lat="44.11249848519483" lon="4.041039333355213"><ele>208.0</ele><time>2026-04-09T14:05:21Z</time></trkpt><trkpt lat="44.11244812078214" lon="4.041190628625484"><ele>207.75</ele><time>2026-04-09T14:05:22Z</time></trkpt><trkpt lat="44.11239303325021" lon="4.041340542177713"><ele>207.5</ele><time>2026-04-09T14:05:23Z</time></trkpt><trkpt lat="44.11233940208322" lon="4.041493167318773"><ele>207.25</ele><time>2026-04-09T14:05:24Z</time></trkpt><trkpt lat="44.11229049010106" lon="4.041649256836302"><ele>207.0</ele><time>2026-04-09T14:05:25Z</time></trkpt><trkpt lat="44.11224276691282" lon="4.04180994476799"><ele>207.0</ele><time>2026-04-09T14:05:26Z</time></trkpt><trkpt lat="44.11219934863907" lon="4.041975097806381"><ele>207.0</ele><time>2026-04-09T14:05:27Z</time></trkpt><trkpt lat="44.11216801823406" lon="4.042148645212593"><ele>207.0</ele><time>2026-04-09T14:05:28Z</time></trkpt><trkpt lat="44.11214323978484" lon="4.0423286160821945"><ele>207.0</ele><time>2026-04-09T14:05:29Z</time></trkpt><trkpt lat="44.11212732083793" lon="4.042515983400269"><ele>204.25</ele><time>2026-04-09T14:05:30Z</time></trkpt><trkpt lat="44.11211061219387" lon="4.042709804525639"><ele>201.5</ele><time>2026-04-09T14:05:31Z</time></trkpt><trkpt lat="44.112087060273" lon="4.042905441809611"><ele>198.75</ele><time>2026-04-09T14:05:32Z</time></trkpt><trkpt lat="44.112049549974905" lon="4.043097258623352"><ele>196.0</ele><time>2026-04-09T14:05:33Z</time></trkpt><trkpt lat="44.11200304927696" lon="4.043288927294095"><ele>195.75</ele><time>2026-04-09T14:05:34Z</time></trkpt><trkpt lat="44.11194961290922" lon="4.043476272169342"><ele>195.5</ele><time>2026-04-09T14:05:35Z</time></trkpt><trkpt lat="44.111889948818465" lon="4.043659353124478"><ele>195.25</ele><time>2026-04-09T14:05:36Z</time></trkpt><trkpt lat="44.11183352766868" lon="4.043839765467488"><ele>195.0</ele><time>2026-04-09T14:05:37Z</time></trkpt><trkpt lat="44.1117898722737" lon="4.044024253599946"><ele>195.25</ele><time>2026-04-09T14:05:38Z</time></trkpt><trkpt lat="44.11176427331853" lon="4.04421887372936"><ele>195.5</ele><time>2026-04-09T14:05:39Z</time></trkpt><trkpt lat="44.11175592197048" lon="4.0444138349973855"><ele>195.75</ele><time>2026-04-09T14:05:40Z</time></trkpt><trkpt lat="44.11175616032215" lon="4.044606171250748"><ele>196.0</ele><time>2026-04-09T14:05:41Z</time></trkpt><trkpt lat="44.11178232601536" lon="4.044794603020898"><ele>195.0</ele><time>2026-04-09T14:05:42Z</time></trkpt><trkpt lat="44.1118239381189" lon="4.044977732027978"><ele>194.0</ele><time>2026-04-09T14:05:43Z</time></trkpt><trkpt lat="44.11188307136243" lon="4.045147973725703"><ele>193.0</ele><time>2026-04-09T14:05:44Z</time></trkpt><trkpt lat="44.1119533635794" lon="4.045309131578652"><ele>192.0</ele><time>2026-04-09T14:05:45Z</time></trkpt><trkpt lat="44.112024631413284" lon="4.045470034188912"><ele>192.0</ele><time>2026-04-09T14:05:46Z</time></trkpt><trkpt lat="44.1120967582778" lon="4.0456286948359095"><ele>192.0</ele><time>2026-04-09T14:05:47Z</time></trkpt><trkpt lat="44.11216887344326" lon="4.045789184538001"><ele>192.0</ele><time>2026-04-09T14:05:48Z</time></trkpt><trkpt lat="44.11223855201802" lon="4.04594220617654"><ele>192.0</ele><time>2026-04-09T14:05:49Z</time></trkpt><trkpt lat="44.11230922013921" lon="4.046089267720387"><ele>190.75</ele><time>2026-04-09T14:05:50Z</time></trkpt><trkpt lat="44.11238814060905" lon="4.046228293004048"><ele>189.5</ele><time>2026-04-09T14:05:51Z</time></trkpt><trkpt lat="44.112476364137805" lon="4.046353633846861"><ele>188.25</ele><time>2026-04-09T14:05:52Z</time></trkpt><trkpt lat="44.1125732399438" lon="4.0464678134312075"><ele>187.0</ele><time>2026-04-09T14:05:53Z</time></trkpt><trkpt lat="44.11267326720155" lon="4.046576175466914"><ele>187.5</ele><time>2026-04-09T14:05:54Z</time></trkpt><trkpt lat="44.1127690021716" lon="4.046694956295775"><ele>188.0</ele><time>2026-04-09T14:05:55Z</time></trkpt><trkpt lat="44.112855390045205" lon="4.046834909267349"><ele>188.5</ele><time>2026-04-09T14:05:56Z</time></trkpt><trkpt lat="44.11293276122359" lon="4.04699145619336"><ele>189.0</ele><time>2026-04-09T14:05:57Z</time></trkpt><trkpt lat="44.11300613686542" lon="4.047150707991148"><ele>189.0</ele><time>2026-04-09T14:05:58Z</time></trkpt><trkpt lat="44.113085787171265" lon="4.047301360809823"><ele>189.0</ele><time>2026-04-09T14:05:59Z</time></trkpt><trkpt lat="44.11317006562968" lon="4.047444312234613"><ele>189.0</ele><time>2026-04-09T14:06:00Z</time></trkpt><trkpt lat="44.1132611936837" lon="4.047577447660951"><ele>189.0</ele><time>2026-04-09T14:06:01Z</time></trkpt><trkpt lat="44.11335950842001" lon="4.047699995552425"><ele>188.79999999999998</ele><time>2026-04-09T14:06:02Z</time></trkpt><trkpt lat="44.113458833727904" lon="4.047816062237616"><ele>188.6</ele><time>2026-04-09T14:06:03Z</time></trkpt><trkpt lat="44.11354525504834" lon="4.047916840067212"><ele>188.4</ele><time>2026-04-09T14:06:04Z</time></trkpt><trkpt lat="44.113622937698025" lon="4.0480056308649885"><ele>188.2</ele><time>2026-04-09T14:06:05Z</time></trkpt><trkpt lat="44.113693664199204" lon="4.048084462130461"><ele>188.0</ele><time>2026-04-09T14:06:06Z</time></trkpt><trkpt lat="44.11375021857346" lon="4.048146007019697"><ele>188.0</ele><time>2026-04-09T14:06:07Z</time></trkpt><trkpt lat="44.11381768911412" lon="4.048220441705149"><ele>188.0</ele><time>2026-04-09T14:06:09Z</time></trkpt><trkpt lat="44.11386797374915" lon="4.048274752947151"><ele>188.0</ele><time>2026-04-09T14:06:13Z</time></trkpt><trkpt lat="44.11393762834807" lon="4.048361082999511"><ele>188.0</ele><time>2026-04-09T14:06:15Z</time></trkpt><trkpt lat="44.11404117261758" lon="4.048468230892618"><ele>188.0</ele><time>2026-04-09T14:06:17Z</time></trkpt><trkpt lat="44.11410699337234" lon="4.048521736862283"><ele>188.0</ele><time>2026-04-09T14:06:18Z</time></trkpt><trkpt lat="44.114170370524405" lon="4.048591213375545"><ele>188.0</ele><time>2026-04-09T14:06:19Z</time></trkpt><trkpt lat="44.114238002217725" lon="4.048661035515158"><ele>188.0</ele><time>2026-04-09T14:06:20Z</time></trkpt><trkpt lat="44.11430404038016" lon="4.048732202679724"><ele>188.0</ele><time>2026-04-09T14:06:21Z</time></trkpt><trkpt lat="44.11436635629791" lon="4.048801930499751"><ele>188.0</ele><time>2026-04-09T14:06:22Z</time></trkpt><trkpt lat="44.11442649960987" lon="4.048874113309976"><ele>188.0</ele><time>2026-04-09T14:06:23Z</time></trkpt><trkpt lat="44.114482347071984" lon="4.04894461811297"><ele>188.0</ele><time>2026-04-09T14:06:24Z</time></trkpt><trkpt lat="44.11454311592139" lon="4.049011817621654"><ele>188.0</ele><time>2026-04-09T14:06:25Z</time></trkpt><trkpt lat="44.11460859151074" lon="4.0490749952934495"><ele>188.0</ele><time>2026-04-09T14:06:26Z</time></trkpt><trkpt lat="44.11467532106724" lon="4.049137967786078"><ele>188.0</ele><time>2026-04-09T14:06:27Z</time></trkpt><trkpt lat="44.1147439085812" lon="4.04920162236951"><ele>188.0</ele><time>2026-04-09T14:06:28Z</time></trkpt><trkpt lat="44.11481705521195" lon="4.049263202514974"><ele>188.0</ele><time>2026-04-09T14:06:29Z</time></trkpt><trkpt lat="44.114891269520776" lon="4.049321335162574"><ele>188.0</ele><time>2026-04-09T14:06:30Z</time></trkpt><trkpt lat="44.11495487416927" lon="4.049377772798223"><ele>188.71428571428572</ele><time>2026-04-09T14:06:31Z</time></trkpt><trkpt lat="44.11500494718848" lon="4.049434181031546"><ele>189.42857142857142</ele><time>2026-04-09T14:06:32Z</time></trkpt><trkpt lat="44.11505059184893" lon="4.0494961919340815"><ele>190.14285714285717</ele><time>2026-04-09T14:06:33Z</time></trkpt><trkpt lat="44.11509753552946" lon="4.049566148080133"><ele>190.85714285714286</ele><time>2026-04-09T14:06:34Z</time></trkpt><trkpt lat="44.11514413126709" lon="4.049633177028426"><ele>191.57142857142858</ele><time>2026-04-09T14:06:35Z</time></trkpt><trkpt lat="44.11519460910431" lon="4.049706383641781"><ele>192.2857142857143</ele><time>2026-04-09T14:06:36Z</time></trkpt><trkpt lat="44.11524654737614" lon="4.0497792625245745"><ele>193.0</ele><time>2026-04-09T14:06:37Z</time></trkpt><trkpt lat="44.11530100223934" lon="4.049856546007786"><ele>192.99999999999997</ele><time>2026-04-09T14:06:38Z</time></trkpt><trkpt lat="44.115356106576" lon="4.049932758059046"><ele>193.0</ele><time>2026-04-09T14:06:39Z</time></trkpt><trkpt lat="44.11540999618717" lon="4.050008662974735"><ele>193.0</ele><time>2026-04-09T14:06:40Z</time></trkpt><trkpt lat="44.11546198933216" lon="4.050083328451986"><ele>193.0</ele><time>2026-04-09T14:06:41Z</time></trkpt><trkpt lat="44.11551110685789" lon="4.050151414193143"><ele>192.99999999999997</ele><time>2026-04-09T14:06:42Z</time></trkpt><trkpt lat="44.115606271538034" lon="4.050276731581883"><ele>193.0</ele><time>2026-04-09T14:06:44Z</time></trkpt><trkpt lat="44.115688215157334" lon="4.0502825092033925"><ele>193.83333333333331</ele><time>2026-04-09T14:06:45Z</time></trkpt><trkpt lat="44.115764816413304" lon="4.050309025940035"><ele>194.66666666666666</ele><time>2026-04-09T14:06:46Z</time></trkpt><trkpt lat="44.11584562144172" lon="4.050334657820117"><ele>195.5</ele><time>2026-04-09T14:06:47Z</time></trkpt><trkpt lat="44.115933192849184" lon="4.050366070107416"><ele>196.33333333333331</ele><time>2026-04-09T14:06:48Z</time></trkpt><trkpt lat="44.11602454292117" lon="4.0503993285774715"><ele>197.16666666666666</ele><time>2026-04-09T14:06:49Z</time></trkpt><trkpt lat="44.11611556285474" lon="4.05043432029859"><ele>198.0</ele><time>2026-04-09T14:06:50Z</time></trkpt><trkpt lat="44.116207851257066" lon="4.050470086826018"><ele>198.0</ele><time>2026-04-09T14:06:51Z</time></trkpt><trkpt lat="44.11629882684653" lon="4.0505063430772825"><ele>198.0</ele><time>2026-04-09T14:06:52Z</time></trkpt><trkpt lat="44.11638686919445" lon="4.050541836915027"><ele>198.0</ele><time>2026-04-09T14:06:53Z</time></trkpt><trkpt lat="44.116475697723935" lon="4.050580664111223"><ele>198.0</ele><time>2026-04-09T14:06:54Z</time></trkpt><trkpt lat="44.11655790229273" lon="4.0506162790506215"><ele>198.0</ele><time>2026-04-09T14:06:55Z</time></trkpt><trkpt lat="44.11663753730829" lon="4.050645321880001"><ele>198.0</ele><time>2026-04-09T14:06:56Z</time></trkpt><trkpt lat="44.11671345485715" lon="4.05067159777791"><ele>197.33333333333334</ele><time>2026-04-09T14:06:57Z</time></trkpt><trkpt lat="44.1167861179579" lon="4.050697094047"><ele>196.66666666666669</ele><time>2026-04-09T14:06:58Z</time></trkpt><trkpt lat="44.11685751603799" lon="4.050721467398972"><ele>196.0</ele><time>2026-04-09T14:06:59Z</time></trkpt><trkpt lat="44.11692121088912" lon="4.050756760324"><ele>195.33333333333334</ele><time>2026-04-09T14:07:00Z</time></trkpt><trkpt lat="44.11700696981533" lon="4.050885755725746"><ele>194.66666666666669</ele><time>2026-04-09T14:07:02Z</time></trkpt><trkpt lat="44.117026528972865" lon="4.050973689843789"><ele>194.0</ele><time>2026-04-09T14:07:03Z</time></trkpt><trkpt lat="44.117033799291185" lon="4.051064144237345"><ele>194.00000000000003</ele><time>2026-04-09T14:07:04Z</time></trkpt><trkpt lat="44.11702010433746" lon="4.051165179788482"><ele>194.0</ele><time>2026-04-09T14:07:05Z</time></trkpt><trkpt lat="44.11698301965657" lon="4.051261428364326"><ele>194.0</ele><time>2026-04-09T14:07:06Z</time></trkpt><trkpt lat="44.11694413613164" lon="4.0513648889740175"><ele>194.0</ele><time>2026-04-09T14:07:07Z</time></trkpt><trkpt lat="44.1169036797182" lon="4.051473511650151"><ele>194.00000000000003</ele><time>2026-04-09T14:07:08Z</time></trkpt><trkpt lat="44.11686357842257" lon="4.05158203009011"><ele>194.0</ele><time>2026-04-09T14:07:09Z</time></trkpt><trkpt lat="44.116823602025555" lon="4.051690638127501"><ele>194.33333333333334</ele><time>2026-04-09T14:07:10Z</time></trkpt><trkpt lat="44.1167843056794" lon="4.0517984955058575"><ele>194.66666666666669</ele><time>2026-04-09T14:07:11Z</time></trkpt><trkpt lat="44.1167447987383" lon="4.0519032428886"><ele>195.0</ele><time>2026-04-09T14:07:12Z</time></trkpt><trkpt lat="44.116705511943195" lon="4.052006672068843"><ele>195.33333333333331</ele><time>2026-04-09T14:07:13Z</time></trkpt><trkpt lat="44.11666777692406" lon="4.052105723889853"><ele>195.66666666666666</ele><time>2026-04-09T14:07:14Z</time></trkpt><trkpt lat="44.11663406020847" lon="4.052201758914344"><ele>196.0</ele><time>2026-04-09T14:07:15Z</time></trkpt><trkpt lat="44.11660062152978" lon="4.052294868334756"><ele>195.83333333333331</ele><time>2026-04-09T14:07:16Z</time></trkpt><trkpt lat="44.11656893105264" lon="4.052386122414366"><ele>195.66666666666666</ele><time>2026-04-09T14:07:17Z</time></trkpt><trkpt lat="44.11654030080842" lon="4.052473642261473"><ele>195.5</ele><time>2026-04-09T14:07:18Z</time></trkpt><trkpt lat="44.116517112089596" lon="4.052558506144686"><ele>195.33333333333331</ele><time>2026-04-09T14:07:19Z</time></trkpt><trkpt lat="44.116492679663295" lon="4.052671780102978"><ele>195.16666666666666</ele><time>2026-04-09T14:07:21Z</time></trkpt><trkpt lat="44.11649350671959" lon="4.052810230159829"><ele>195.0</ele><time>2026-04-09T14:07:27Z</time></trkpt><trkpt lat="44.1165152957362" lon="4.052972123681327"><ele>195.0</ele><time>2026-04-09T14:07:29Z</time></trkpt><trkpt lat="44.11652628441987" lon="4.053058794849297"><ele>195.0</ele><time>2026-04-09T14:07:30Z</time></trkpt><trkpt lat="44.1165462761854" lon="4.0531446140487475"><ele>195.0</ele><time>2026-04-09T14:07:31Z</time></trkpt><trkpt lat="44.11657119935957" lon="4.053238284164966"><ele>195.0</ele><time>2026-04-09T14:07:32Z</time></trkpt><trkpt lat="44.11659864494926" lon="4.0533372949093565"><ele>195.0</ele><time>2026-04-09T14:07:33Z</time></trkpt><trkpt lat="44.116627970819756" lon="4.053441068420096"><ele>195.0</ele><time>2026-04-09T14:07:34Z</time></trkpt><trkpt lat="44.11666061189414" lon="4.053550352794039"><ele>195.0</ele><time>2026-04-09T14:07:35Z</time></trkpt><trkpt lat="44.11669431426021" lon="4.053661181040387"><ele>196.0</ele><time>2026-04-09T14:07:36Z</time></trkpt><trkpt lat="44.116728312975866" lon="4.053778300705513"><ele>197.0</ele><time>2026-04-09T14:07:37Z</time></trkpt><trkpt lat="44.11676442877201" lon="4.053904039735127"><ele>198.0</ele><time>2026-04-09T14:07:38Z</time></trkpt><trkpt lat="44.1168026685869" lon="4.054033812593955"><ele>199.0</ele><time>2026-04-09T14:07:39Z</time></trkpt><trkpt lat="44.11684181366487" lon="4.05416973045096"><ele>200.0</ele><time>2026-04-09T14:07:40Z</time></trkpt><trkpt lat="44.11688342883454" lon="4.054307276635412"><ele>200.0</ele><time>2026-04-09T14:07:41Z</time></trkpt><trkpt lat="44.11692942760645" lon="4.054444497758032"><ele>200.0</ele><time>2026-04-09T14:07:42Z</time></trkpt><trkpt lat="44.11697815101571" lon="4.054584009658681"><ele>200.0</ele><time>2026-04-09T14:07:43Z</time></trkpt><trkpt lat="44.11704626493479" lon="4.054713199392978"><ele>200.0</ele><time>2026-04-09T14:07:44Z</time></trkpt><trkpt lat="44.11712748914088" lon="4.05482666370471"><ele>200.0</ele><time>2026-04-09T14:07:45Z</time></trkpt><trkpt lat="44.1172447940578" lon="4.054897826612214"><ele>200.0</ele><time>2026-04-09T14:07:46Z</time></trkpt><trkpt lat="44.11736964993971" lon="4.054900296183217"><ele>200.0</ele><time>2026-04-09T14:07:47Z</time></trkpt><trkpt lat="44.11749312236351" lon="4.054859494698486"><ele>200.0</ele><time>2026-04-09T14:07:48Z</time></trkpt><trkpt lat="44.11761380412305" lon="4.0547982437045444"><ele>198.6</ele><time>2026-04-09T14:07:49Z</time></trkpt><trkpt lat="44.11772879135583" lon="4.054722440344654"><ele>197.2</ele><time>2026-04-09T14:07:50Z</time></trkpt><trkpt lat="44.117831439003986" lon="4.054663353471151"><ele>195.8</ele><time>2026-04-09T14:07:51Z</time></trkpt><trkpt lat="44.117930432765" lon="4.054625401362822"><ele>194.4</ele><time>2026-04-09T14:07:52Z</time></trkpt><trkpt lat="44.11803650299904" lon="4.054635311287086"><ele>193.0</ele><time>2026-04-09T14:07:53Z</time></trkpt><trkpt lat="44.11813257975714" lon="4.054702813394597"><ele>193.0</ele><time>2026-04-09T14:07:54Z</time></trkpt><trkpt lat="44.11820338530535" lon="4.054817323375306"><ele>193.0</ele><time>2026-04-09T14:07:55Z</time></trkpt><trkpt lat="44.11825646304556" lon="4.054955867245186"><ele>193.0</ele><time>2026-04-09T14:07:56Z</time></trkpt><trkpt lat="44.11832406663887" lon="4.055101114413281"><ele>193.0</ele><time>2026-04-09T14:07:57Z</time></trkpt><trkpt lat="44.11839458124282" lon="4.055244758381036"><ele>192.25</ele><time>2026-04-09T14:07:58Z</time></trkpt><trkpt lat="44.11848105266622" lon="4.055378419645365"><ele>191.5</ele><time>2026-04-09T14:07:59Z</time></trkpt><trkpt lat="44.11857710422972" lon="4.055515481152232"><ele>190.75</ele><time>2026-04-09T14:08:00Z</time></trkpt><trkpt lat="44.118672760846465" lon="4.055653309171798"><ele>190.0</ele><time>2026-04-09T14:08:01Z</time></trkpt><trkpt lat="44.11876975007083" lon="4.055793890969353"><ele>190.0</ele><time>2026-04-09T14:08:02Z</time></trkpt><trkpt lat="44.1188661593146" lon="4.055936054275817"><ele>190.0</ele><time>2026-04-09T14:08:03Z</time></trkpt><trkpt lat="44.11896248951646" lon="4.056082377341909"><ele>190.0</ele><time>2026-04-09T14:08:04Z</time></trkpt><trkpt lat="44.11904191030279" lon="4.056249015566998"><ele>190.0</ele><time>2026-04-09T14:08:05Z</time></trkpt><trkpt lat="44.11911561848605" lon="4.056419195944343"><ele>190.0</ele><time>2026-04-09T14:08:06Z</time></trkpt><trkpt lat="44.1191861627047" lon="4.056593702585857"><ele>190.0</ele><time>2026-04-09T14:08:07Z</time></trkpt><trkpt lat="44.11925469606103" lon="4.056772479975057"><ele>190.0</ele><time>2026-04-09T14:08:08Z</time></trkpt><trkpt lat="44.11932904166102" lon="4.056946057625417"><ele>190.0</ele><time>2026-04-09T14:08:09Z</time></trkpt><trkpt lat="44.119415570647774" lon="4.057108863320184"><ele>190.25</ele><time>2026-04-09T14:08:10Z</time></trkpt><trkpt lat="44.11950455056447" lon="4.057267174425584"><ele>190.5</ele><time>2026-04-09T14:08:11Z</time></trkpt><trkpt lat="44.119597022406694" lon="4.0574223212237"><ele>190.75</ele><time>2026-04-09T14:08:12Z</time></trkpt><trkpt lat="44.11969328842846" lon="4.057571669700824"><ele>191.0</ele><time>2026-04-09T14:08:13Z</time></trkpt><trkpt lat="44.11979455137336" lon="4.057713623204164"><ele>188.0</ele><time>2026-04-09T14:08:14Z</time></trkpt><trkpt lat="44.11990313515081" lon="4.057843504409589"><ele>185.0</ele><time>2026-04-09T14:08:15Z</time></trkpt><trkpt lat="44.12002191204109" lon="4.057953932682727"><ele>182.0</ele><time>2026-04-09T14:08:16Z</time></trkpt><trkpt lat="44.12015391385906" lon="4.058034952467027"><ele>179.0</ele><time>2026-04-09T14:08:17Z</time></trkpt><trkpt lat="44.120291214956815" lon="4.058088269396159"><ele>179.0</ele><time>2026-04-09T14:08:18Z</time></trkpt><trkpt lat="44.120431179128786" lon="4.058115716654493"><ele>179.0</ele><time>2026-04-09T14:08:19Z</time></trkpt><trkpt lat="44.12057131288182" lon="4.05814567901098"><ele>179.0</ele><time>2026-04-09T14:08:20Z</time></trkpt><trkpt lat="44.12070388137208" lon="4.058202498889675"><ele>179.0</ele><time>2026-04-09T14:08:21Z</time></trkpt><trkpt lat="44.120828470224566" lon="4.058286123324286"><ele>177.5</ele><time>2026-04-09T14:08:22Z</time></trkpt><trkpt lat="44.120943172044036" lon="4.058399943870014"><ele>176.0</ele><time>2026-04-09T14:08:23Z</time></trkpt><trkpt lat="44.12104827428356" lon="4.058517368777072"><ele>174.5</ele><time>2026-04-09T14:08:24Z</time></trkpt><trkpt lat="44.121148386576685" lon="4.058638241911207"><ele>173.0</ele><time>2026-04-09T14:08:25Z</time></trkpt><trkpt lat="44.12123647994962" lon="4.0587602040952255"><ele>173.0</ele><time>2026-04-09T14:08:26Z</time></trkpt><trkpt lat="44.12131826148819" lon="4.058873817452908"><ele>173.0</ele><time>2026-04-09T14:08:27Z</time></trkpt><trkpt lat="44.12139803017964" lon="4.058980427549794"><ele>173.0</ele><time>2026-04-09T14:08:28Z</time></trkpt><trkpt lat="44.12147156403989" lon="4.059084140738628"><ele>173.0</ele><time>2026-04-09T14:08:29Z</time></trkpt><trkpt lat="44.1215439647176" lon="4.0591893834918515"><ele>173.0</ele><time>2026-04-09T14:08:30Z</time></trkpt><trkpt lat="44.12160918371779" lon="4.059306520980105"><ele>171.2</ele><time>2026-04-09T14:08:31Z</time></trkpt><trkpt lat="44.12165728482188" lon="4.059443609652889"><ele>169.4</ele><time>2026-04-09T14:08:32Z</time></trkpt><trkpt lat="44.121691737799836" lon="4.059582048390431"><ele>167.6</ele><time>2026-04-09T14:08:33Z</time></trkpt><trkpt lat="44.12170769573603" lon="4.059710000777305"><ele>165.79999999999998</ele><time>2026-04-09T14:08:34Z</time></trkpt><trkpt lat="44.12171158661275" lon="4.059838969231006"><ele>164.0</ele><time>2026-04-09T14:08:35Z</time></trkpt><trkpt lat="44.12170256650842" lon="4.059966498188159"><ele>163.6</ele><time>2026-04-09T14:08:36Z</time></trkpt><trkpt lat="44.12168250190846" lon="4.060091548193698"><ele>163.2</ele><time>2026-04-09T14:08:37Z</time></trkpt><trkpt lat="44.121651554809944" lon="4.06022128465199"><ele>162.79999999999998</ele><time>2026-04-09T14:08:38Z</time></trkpt><trkpt lat="44.12160999496157" lon="4.060350927648491"><ele>162.39999999999998</ele><time>2026-04-09T14:08:39Z</time></trkpt><trkpt lat="44.12155903230038" lon="4.0604754632965925"><ele>162.0</ele><time>2026-04-09T14:08:40Z</time></trkpt><trkpt lat="44.12150185971075" lon="4.060593322915849"><ele>163.39999999999998</ele><time>2026-04-09T14:08:41Z</time></trkpt><trkpt lat="44.12145239729933" lon="4.060699564723332"><ele>164.79999999999998</ele><time>2026-04-09T14:08:42Z</time></trkpt><trkpt lat="44.121404433664345" lon="4.060800004120692"><ele>166.2</ele><time>2026-04-09T14:08:43Z</time></trkpt><trkpt lat="44.121353832156736" lon="4.060903181415538"><ele>167.6</ele><time>2026-04-09T14:08:44Z</time></trkpt><trkpt lat="44.12130260451182" lon="4.061009074459589"><ele>169.0</ele><time>2026-04-09T14:08:45Z</time></trkpt><trkpt lat="44.12125345740746" lon="4.061117494659635"><ele>169.0</ele><time>2026-04-09T14:08:46Z</time></trkpt><trkpt lat="44.1212205323546" lon="4.061237436658997"><ele>169.0</ele><time>2026-04-09T14:08:47Z</time></trkpt><trkpt lat="44.12119752034024" lon="4.061363125172319"><ele>169.0</ele><time>2026-04-09T14:08:48Z</time></trkpt><trkpt lat="44.12116974622676" lon="4.061484598781868"><ele>169.0</ele><time>2026-04-09T14:08:49Z</time></trkpt><trkpt lat="44.121137510228955" lon="4.061604879401731"><ele>169.0</ele><time>2026-04-09T14:08:50Z</time></trkpt><trkpt lat="44.1211116552458" lon="4.061727702189194"><ele>167.66666666666669</ele><time>2026-04-09T14:08:51Z</time></trkpt><trkpt lat="44.121089464102376" lon="4.06185346677049"><ele>166.33333333333334</ele><time>2026-04-09T14:08:52Z</time></trkpt><trkpt lat="44.121072354316375" lon="4.061979674483036"><ele>165.0</ele><time>2026-04-09T14:08:53Z</time></trkpt><trkpt lat="44.12105576538109" lon="4.062102195939903"><ele>163.66666666666666</ele><time>2026-04-09T14:08:54Z</time></trkpt><trkpt lat="44.12103376243916" lon="4.062219578356604"><ele>162.33333333333331</ele><time>2026-04-09T14:08:55Z</time></trkpt><trkpt lat="44.12101643491134" lon="4.062337768841828"><ele>161.0</ele><time>2026-04-09T14:08:56Z</time></trkpt><trkpt lat="44.1210064674942" lon="4.062454283753241"><ele>160.33333333333331</ele><time>2026-04-09T14:08:57Z</time></trkpt><trkpt lat="44.12100269616532" lon="4.062574694796426"><ele>159.66666666666666</ele><time>2026-04-09T14:08:58Z</time></trkpt><trkpt lat="44.120998157815116" lon="4.06269464395999"><ele>159.0</ele><time>2026-04-09T14:08:59Z</time></trkpt><trkpt lat="44.12099319527209" lon="4.062817122185079"><ele>158.33333333333334</ele><time>2026-04-09T14:09:00Z</time></trkpt><trkpt lat="44.12098837419513" lon="4.062944232609596"><ele>157.66666666666669</ele><time>2026-04-09T14:09:01Z</time></trkpt><trkpt lat="44.12098330139431" lon="4.0630754003491445"><ele>157.0</ele><time>2026-04-09T14:09:02Z</time></trkpt><trkpt lat="44.12097721506104" lon="4.0632111310661525"><ele>156.79999999999998</ele><time>2026-04-09T14:09:03Z</time></trkpt><trkpt lat="44.12096963611887" lon="4.063348088499598"><ele>156.6</ele><time>2026-04-09T14:09:04Z</time></trkpt><trkpt lat="44.12095943913145" lon="4.063488354327112"><ele>156.39999999999998</ele><time>2026-04-09T14:09:05Z</time></trkpt><trkpt lat="44.120948244564005" lon="4.06363489229244"><ele>156.2</ele><time>2026-04-09T14:09:06Z</time></trkpt><trkpt lat="44.12093537641954" lon="4.063788811770126"><ele>156.0</ele><time>2026-04-09T14:09:07Z</time></trkpt><trkpt lat="44.12091818809556" lon="4.063946308774926"><ele>156.0</ele><time>2026-04-09T14:09:08Z</time></trkpt><trkpt lat="44.12089114406489" lon="4.064105283020674"><ele>156.0</ele><time>2026-04-09T14:09:09Z</time></trkpt><trkpt lat="44.12085812292196" lon="4.06426238145335"><ele>156.0</ele><time>2026-04-09T14:09:10Z</time></trkpt><trkpt lat="44.1208205115998" lon="4.064423604815967"><ele>156.0</ele><time>2026-04-09T14:09:11Z</time></trkpt><trkpt lat="44.12078325490675" lon="4.064585089351"><ele>156.5</ele><time>2026-04-09T14:09:12Z</time></trkpt><trkpt lat="44.12074950136845" lon="4.064746160749581"><ele>157.0</ele><time>2026-04-09T14:09:13Z</time></trkpt><trkpt lat="44.12071619269503" lon="4.064904852566545"><ele>157.5</ele><time>2026-04-09T14:09:14Z</time></trkpt><trkpt lat="44.12068254806677" lon="4.065062663580519"><ele>158.0</ele><time>2026-04-09T14:09:15Z</time></trkpt><trkpt lat="44.12065246353902" lon="4.065216636005557"><ele>158.5</ele><time>2026-04-09T14:09:16Z</time></trkpt><trkpt lat="44.120629838837374" lon="4.065370456522311"><ele>159.0</ele><time>2026-04-09T14:09:17Z</time></trkpt><trkpt lat="44.12061765181524" lon="4.0655255738614775"><ele>159.5</ele><time>2026-04-09T14:09:18Z</time></trkpt><trkpt lat="44.12061181921867" lon="4.065684157805495"><ele>160.0</ele><time>2026-04-09T14:09:19Z</time></trkpt><trkpt lat="44.12061350487077" lon="4.065840942047723"><ele>159.0</ele><time>2026-04-09T14:09:20Z</time></trkpt><trkpt lat="44.12062253959176" lon="4.065996837314699"><ele>158.0</ele><time>2026-04-09T14:09:21Z</time></trkpt><trkpt lat="44.1206356553428" lon="4.066148997044037"><ele>157.0</ele><time>2026-04-09T14:09:22Z</time></trkpt><trkpt lat="44.12064994240777" lon="4.06628782275697"><ele>156.0</ele><time>2026-04-09T14:09:23Z</time></trkpt><trkpt lat="44.12066412250189" lon="4.0664156761858425"><ele>155.0</ele><time>2026-04-09T14:09:24Z</time></trkpt><trkpt lat="44.12067919778536" lon="4.066544074144245"><ele>154.6</ele><time>2026-04-09T14:09:25Z</time></trkpt><trkpt lat="44.12069533938171" lon="4.066673592753796"><ele>154.2</ele><time>2026-04-09T14:09:26Z</time></trkpt><trkpt lat="44.12071067099278" lon="4.066807642452099"><ele>153.8</ele><time>2026-04-09T14:09:27Z</time></trkpt><trkpt lat="44.120726254470995" lon="4.06694531311252"><ele>153.4</ele><time>2026-04-09T14:09:28Z</time></trkpt><trkpt lat="44.12074206748709" lon="4.06708414601397"><ele>153.0</ele><time>2026-04-09T14:09:29Z</time></trkpt><trkpt lat="44.12075664877319" lon="4.067222315659665"><ele>153.0</ele><time>2026-04-09T14:09:30Z</time></trkpt><trkpt lat="44.12077254486107" lon="4.067360169573604"><ele>153.0</ele><time>2026-04-09T14:09:31Z</time></trkpt><trkpt lat="44.120794519678945" lon="4.067498136311705"><ele>153.0</ele><time>2026-04-09T14:09:32Z</time></trkpt><trkpt lat="44.12082471388297" lon="4.067638655187867"><ele>153.0</ele><time>2026-04-09T14:09:33Z</time></trkpt><trkpt lat="44.120860917189695" lon="4.067782832371302"><ele>153.0</ele><time>2026-04-09T14:09:34Z</time></trkpt><trkpt lat="44.120901940290246" lon="4.067923367506649"><ele>152.0</ele><time>2026-04-09T14:09:35Z</time></trkpt><trkpt lat="44.12094621147569" lon="4.068061159539184"><ele>151.0</ele><time>2026-04-09T14:09:36Z</time></trkpt><trkpt lat="44.12099279095067" lon="4.068193243899202"><ele>150.0</ele><time>2026-04-09T14:09:37Z</time></trkpt><trkpt lat="44.1210384754298" lon="4.068325742453771"><ele>149.0</ele><time>2026-04-09T14:09:38Z</time></trkpt><trkpt lat="44.12108137664152" lon="4.068453922639503"><ele>148.0</ele><time>2026-04-09T14:09:39Z</time></trkpt><trkpt lat="44.12112724503807" lon="4.068577731536907"><ele>147.6</ele><time>2026-04-09T14:09:40Z</time></trkpt><trkpt lat="44.12117289021453" lon="4.068699044877122"><ele>147.20000000000002</ele><time>2026-04-09T14:09:41Z</time></trkpt><trkpt lat="44.121208328227944" lon="4.068820778807644"><ele>146.8</ele><time>2026-04-09T14:09:42Z</time></trkpt><trkpt lat="44.12123507624612" lon="4.068944237048174"><ele>146.4</ele><time>2026-04-09T14:09:43Z</time></trkpt><trkpt lat="44.12124977620887" lon="4.069065428642214"><ele>146.0</ele><time>2026-04-09T14:09:44Z</time></trkpt><trkpt lat="44.12125481842189" lon="4.0691893500196405"><ele>145.33333333333331</ele><time>2026-04-09T14:09:45Z</time></trkpt><trkpt lat="44.12125260477523" lon="4.0693044917405095"><ele>144.66666666666666</ele><time>2026-04-09T14:09:46Z</time></trkpt><trkpt lat="44.12124576191745" lon="4.069417053816477"><ele>144.0</ele><time>2026-04-09T14:09:47Z</time></trkpt><trkpt lat="44.121239739357506" lon="4.069533116757835"><ele>143.33333333333334</ele><time>2026-04-09T14:09:48Z</time></trkpt><trkpt lat="44.121236799963235" lon="4.069648112825661"><ele>142.66666666666669</ele><time>2026-04-09T14:09:49Z</time></trkpt><trkpt lat="44.121231835526125" lon="4.069763501776925"><ele>142.0</ele><time>2026-04-09T14:09:50Z</time></trkpt><trkpt lat="44.1212245651882" lon="4.0698807449624095"><ele>141.5</ele><time>2026-04-09T14:09:51Z</time></trkpt><trkpt lat="44.12121588688751" lon="4.070000409821312"><ele>141.0</ele><time>2026-04-09T14:09:52Z</time></trkpt><trkpt lat="44.12120237396456" lon="4.070121282288313"><ele>140.5</ele><time>2026-04-09T14:09:53Z</time></trkpt><trkpt lat="44.1211825306676" lon="4.070241189014551"><ele>140.0</ele><time>2026-04-09T14:09:54Z</time></trkpt><trkpt lat="44.121158302356484" lon="4.07036096757532"><ele>139.5</ele><time>2026-04-09T14:09:55Z</time></trkpt><trkpt lat="44.12113765568605" lon="4.070477283705632"><ele>139.0</ele><time>2026-04-09T14:09:56Z</time></trkpt><trkpt lat="44.12112183151624" lon="4.0705805658391805"><ele>139.0</ele><time>2026-04-09T14:09:57Z</time></trkpt><trkpt lat="44.12110830248846" lon="4.0707206707668275"><ele>139.0</ele><time>2026-04-09T14:09:59Z</time></trkpt><trkpt lat="44.12114012717382" lon="4.070855162012979"><ele>139.0</ele><time>2026-04-09T14:10:01Z</time></trkpt><trkpt lat="44.12118506662197" lon="4.070969296951351"><ele>139.0</ele><time>2026-04-09T14:10:03Z</time></trkpt><trkpt lat="44.12122436465328" lon="4.071070393442612"><ele>139.0</ele><time>2026-04-09T14:10:05Z</time></trkpt><trkpt lat="44.12126198462564" lon="4.0711808580137046"><ele>138.83333333333334</ele><time>2026-04-09T14:10:07Z</time></trkpt><trkpt lat="44.12131142266914" lon="4.0713492879930815"><ele>138.66666666666669</ele><time>2026-04-09T14:10:09Z</time></trkpt><trkpt lat="44.121341797230386" lon="4.071443949456313"><ele>138.5</ele><time>2026-04-09T14:10:10Z</time></trkpt><trkpt lat="44.121378972907436" lon="4.071533233116054"><ele>138.33333333333334</ele><time>2026-04-09T14:10:11Z</time></trkpt><trkpt lat="44.1214286366489" lon="4.071620224660576"><ele>138.16666666666666</ele><time>2026-04-09T14:10:12Z</time></trkpt><trkpt lat="44.12147914564415" lon="4.071710672315122"><ele>138.0</ele><time>2026-04-09T14:10:13Z</time></trkpt><trkpt lat="44.12153059067051" lon="4.07180112663035"><ele>137.8</ele><time>2026-04-09T14:10:14Z</time></trkpt><trkpt lat="44.121590551455306" lon="4.071879382363106"><ele>137.60000000000002</ele><time>2026-04-09T14:10:15Z</time></trkpt><trkpt lat="44.121662891819895" lon="4.071944855052577"><ele>137.39999999999998</ele><time>2026-04-09T14:10:16Z</time></trkpt><trkpt lat="44.121727381000944" lon="4.071996269272479"><ele>137.2</ele><time>2026-04-09T14:10:17Z</time></trkpt><trkpt lat="44.12182835672001" lon="4.072070822179127"><ele>137.0</ele><time>2026-04-09T14:10:19Z</time></trkpt><trkpt lat="44.121917881056824" lon="4.072139154500714"><ele>137.00000000000003</ele><time>2026-04-09T14:10:21Z</time></trkpt><trkpt lat="44.12198041343902" lon="4.072186485906065"><ele>137.0</ele><time>2026-04-09T14:10:23Z</time></trkpt><trkpt lat="44.122043261710886" lon="4.072234466780255"><ele>137.0</ele><time>2026-04-09T14:10:28Z</time></trkpt><trkpt lat="44.12209425396703" lon="4.072291303638818"><ele>137.0</ele><time>2026-04-09T14:10:37Z</time></trkpt><trkpt lat="44.12214511799502" lon="4.072366321858336"><ele>137.0</ele><time>2026-04-09T14:10:39Z</time></trkpt><trkpt lat="44.12216084663305" lon="4.072472182288024"><ele>137.00000000000003</ele><time>2026-04-09T14:10:41Z</time></trkpt><trkpt lat="44.12211067551163" lon="4.072567618398951"><ele>137.0</ele><time>2026-04-09T14:10:43Z</time></trkpt><trkpt lat="44.12204871200447" lon="4.072633196772525"><ele>136.2</ele><time>2026-04-09T14:10:44Z</time></trkpt><trkpt lat="44.12198571812328" lon="4.07271029624049"><ele>135.39999999999998</ele><time>2026-04-09T14:10:45Z</time></trkpt><trkpt lat="44.12191859137421" lon="4.072799214119642"><ele>134.60000000000002</ele><time>2026-04-09T14:10:46Z</time></trkpt><trkpt lat="44.12184929970335" lon="4.072888008601299"><ele>133.8</ele><time>2026-04-09T14:10:47Z</time></trkpt><trkpt lat="44.12177922727223" lon="4.0729831819440605"><ele>133.0</ele><time>2026-04-09T14:10:48Z</time></trkpt><trkpt lat="44.12170953938328" lon="4.073088162220563"><ele>133.0</ele><time>2026-04-09T14:10:49Z</time></trkpt><trkpt lat="44.12163933062515" lon="4.07319743255304"><ele>133.0</ele><time>2026-04-09T14:10:50Z</time></trkpt><trkpt lat="44.12157054246784" lon="4.0733140725536074"><ele>133.0</ele><time>2026-04-09T14:10:51Z</time></trkpt><trkpt lat="44.12150248887485" lon="4.073436224785562"><ele>133.0</ele><time>2026-04-09T14:10:52Z</time></trkpt><trkpt lat="44.12143326087661" lon="4.073561802408131"><ele>133.0</ele><time>2026-04-09T14:10:53Z</time></trkpt><trkpt lat="44.12136080079969" lon="4.07368851053881"><ele>133.0</ele><time>2026-04-09T14:10:54Z</time></trkpt><trkpt lat="44.121286098374966" lon="4.073817870137432"><ele>133.0</ele><time>2026-04-09T14:10:55Z</time></trkpt><trkpt lat="44.12121322350147" lon="4.073951176517247"><ele>133.0</ele><time>2026-04-09T14:10:56Z</time></trkpt><trkpt lat="44.1211390088294" lon="4.074085779140766"><ele>133.0</ele><time>2026-04-09T14:10:57Z</time></trkpt><trkpt lat="44.121067114415155" lon="4.074218974227965"><ele>132.5</ele><time>2026-04-09T14:10:58Z</time></trkpt><trkpt lat="44.120994487155606" lon="4.074349835811744"><ele>132.0</ele><time>2026-04-09T14:10:59Z</time></trkpt><trkpt lat="44.12092297006069" lon="4.07448276083354"><ele>131.5</ele><time>2026-04-09T14:11:00Z</time></trkpt><trkpt lat="44.12085126729518" lon="4.074616817530777"><ele>131.0</ele><time>2026-04-09T14:11:01Z</time></trkpt><trkpt lat="44.12078111008085" lon="4.0747523646726025"><ele>132.0</ele><time>2026-04-09T14:11:02Z</time></trkpt><trkpt lat="44.12071043836745" lon="4.074885452462985"><ele>133.0</ele><time>2026-04-09T14:11:03Z</time></trkpt><trkpt lat="44.12064018041975" lon="4.075018953307092"><ele>134.0</ele><time>2026-04-09T14:11:04Z</time></trkpt><trkpt lat="44.12057096128907" lon="4.075151338259174"><ele>135.0</ele><time>2026-04-09T14:11:05Z</time></trkpt><trkpt lat="44.12050230439139" lon="4.0752839626319695"><ele>135.0</ele><time>2026-04-09T14:11:06Z</time></trkpt><trkpt lat="44.12043370006708" lon="4.075417456764281"><ele>135.0</ele><time>2026-04-09T14:11:07Z</time></trkpt><trkpt lat="44.12036714681334" lon="4.075550122053941"><ele>135.0</ele><time>2026-04-09T14:11:08Z</time></trkpt><trkpt lat="44.120307826535736" lon="4.075690604207129"><ele>135.0</ele><time>2026-04-09T14:11:09Z</time></trkpt><trkpt lat="44.120256065663426" lon="4.075834690061005"><ele>134.6</ele><time>2026-04-09T14:11:10Z</time></trkpt><trkpt lat="44.12021162904335" lon="4.075980448308379"><ele>134.2</ele><time>2026-04-09T14:11:11Z</time></trkpt><trkpt lat="44.120178497369054" lon="4.0761250368356565"><ele>133.8</ele><time>2026-04-09T14:11:12Z</time></trkpt><trkpt lat="44.12014516226465" lon="4.0762598041254865"><ele>133.4</ele><time>2026-04-09T14:11:13Z</time></trkpt><trkpt lat="44.1201217219228" lon="4.076377443117425"><ele>133.0</ele><time>2026-04-09T14:11:14Z</time></trkpt><trkpt lat="44.12010653366896" lon="4.076469068550023"><ele>133.8</ele><time>2026-04-09T14:11:15Z</time></trkpt><trkpt lat="44.120095019866554" lon="4.076612186347758"><ele>134.60000000000002</ele><time>2026-04-09T14:11:17Z</time></trkpt><trkpt lat="44.120096685431456" lon="4.076708410512839"><ele>135.39999999999998</ele><time>2026-04-09T14:11:20Z</time></trkpt><trkpt lat="44.12009880689844" lon="4.076842319557433"><ele>136.2</ele><time>2026-04-09T14:11:56Z</time></trkpt><trkpt lat="44.12009933985195" lon="4.076971226723849"><ele>137.0</ele><time>2026-04-09T14:11:58Z</time></trkpt><trkpt lat="44.120102930401664" lon="4.077128998853903"><ele>137.0</ele><time>2026-04-09T14:12:00Z</time></trkpt><trkpt lat="44.12010613685994" lon="4.07730182890322"><ele>137.0</ele><time>2026-04-09T14:12:02Z</time></trkpt><trkpt lat="44.12010788724288" lon="4.077475750108344"><ele>137.0</ele><time>2026-04-09T14:12:04Z</time></trkpt><trkpt lat="44.12011007859559" lon="4.077629216564606"><ele>137.0</ele><time>2026-04-09T14:12:06Z</time></trkpt><trkpt lat="44.120111613861106" lon="4.077771486965317"><ele>137.16666666666666</ele><time>2026-04-09T14:12:08Z</time></trkpt><trkpt lat="44.12011274193974" lon="4.077867634753537"><ele>137.33333333333331</ele><time>2026-04-09T14:12:26Z</time></trkpt><trkpt lat="44.12010900827309" lon="4.0779761977547535"><ele>137.5</ele><time>2026-04-09T14:12:29Z</time></trkpt><trkpt lat="44.12010650818364" lon="4.078069237171083"><ele>137.66666666666666</ele><time>2026-04-09T14:12:32Z</time></trkpt><trkpt lat="44.12010024952493" lon="4.078173521849251"><ele>137.83333333333334</ele><time>2026-04-09T14:13:34Z</time></trkpt><trkpt lat="44.12009487386327" lon="4.078264266440117"><ele>138.0</ele><time>2026-04-09T14:13:36Z</time></trkpt><trkpt lat="44.12008413045203" lon="4.078397840632323"><ele>137.0</ele><time>2026-04-09T14:13:38Z</time></trkpt><trkpt lat="44.12007207376134" lon="4.078545182345754"><ele>136.0</ele><time>2026-04-09T14:13:40Z</time></trkpt><trkpt lat="44.12006510069974" lon="4.07863234742662"><ele>135.0</ele><time>2026-04-09T14:13:41Z</time></trkpt><trkpt lat="44.120058474263026" lon="4.078724198823265"><ele>134.0</ele><time>2026-04-09T14:13:42Z</time></trkpt><trkpt lat="44.12005113759384" lon="4.078821759473383"><ele>133.0</ele><time>2026-04-09T14:13:43Z</time></trkpt><trkpt lat="44.12003653983878" lon="4.0789276277076825"><ele>132.0</ele><time>2026-04-09T14:13:44Z</time></trkpt><trkpt lat="44.1200125115112" lon="4.079036090810219"><ele>132.0</ele><time>2026-04-09T14:13:45Z</time></trkpt><trkpt lat="44.1199944085256" lon="4.079156075265383"><ele>132.0</ele><time>2026-04-09T14:13:46Z</time></trkpt><trkpt lat="44.119998354221075" lon="4.079287977464054"><ele>132.0</ele><time>2026-04-09T14:13:47Z</time></trkpt><trkpt lat="44.120002362455544" lon="4.079427230093811"><ele>132.0</ele><time>2026-04-09T14:13:48Z</time></trkpt><trkpt lat="44.12000638686354" lon="4.079575727865431"><ele>132.0</ele><time>2026-04-09T14:13:49Z</time></trkpt><trkpt lat="44.12000878766791" lon="4.0797179611356835"><ele>132.0</ele><time>2026-04-09T14:13:50Z</time></trkpt><trkpt lat="44.12000725321965" lon="4.079862804949375"><ele>132.0</ele><time>2026-04-09T14:13:51Z</time></trkpt><trkpt lat="44.12000372154786" lon="4.080019800429236"><ele>132.0</ele><time>2026-04-09T14:13:52Z</time></trkpt><trkpt lat="44.11999713548976" lon="4.080184529473333"><ele>132.0</ele><time>2026-04-09T14:13:53Z</time></trkpt><trkpt lat="44.11999068261863" lon="4.080356786658722"><ele>131.5</ele><time>2026-04-09T14:13:54Z</time></trkpt><trkpt lat="44.11998369832482" lon="4.080532468502602"><ele>131.0</ele><time>2026-04-09T14:13:55Z</time></trkpt><trkpt lat="44.11997628253068" lon="4.080705505753832"><ele>130.5</ele><time>2026-04-09T14:13:56Z</time></trkpt><trkpt lat="44.11996984534402" lon="4.080875884233425"><ele>130.0</ele><time>2026-04-09T14:13:57Z</time></trkpt><trkpt lat="44.11996221166544" lon="4.08104350939169"><ele>129.25</ele><time>2026-04-09T14:13:58Z</time></trkpt><trkpt lat="44.11995342099822" lon="4.081209190699043"><ele>128.5</ele><time>2026-04-09T14:13:59Z</time></trkpt><trkpt lat="44.11994227476662" lon="4.0813711865351"><ele>127.75</ele><time>2026-04-09T14:14:00Z</time></trkpt><trkpt lat="44.11992817500898" lon="4.081530036308433"><ele>127.0</ele><time>2026-04-09T14:14:01Z</time></trkpt><trkpt lat="44.119924895917535" lon="4.081687163521557"><ele>126.8</ele><time>2026-04-09T14:14:02Z</time></trkpt><trkpt lat="44.11992112372547" lon="4.08184282110956"><ele>126.6</ele><time>2026-04-09T14:14:03Z</time></trkpt><trkpt lat="44.119916705645856" lon="4.081995645846285"><ele>126.39999999999999</ele><time>2026-04-09T14:14:04Z</time></trkpt><trkpt lat="44.11991015759217" lon="4.082143916709986"><ele>126.19999999999999</ele><time>2026-04-09T14:14:05Z</time></trkpt><trkpt lat="44.11990080348044" lon="4.0822911113853735"><ele>126.0</ele><time>2026-04-09T14:14:06Z</time></trkpt><trkpt lat="44.11988864053773" lon="4.082431071597292"><ele>126.6</ele><time>2026-04-09T14:14:07Z</time></trkpt><trkpt lat="44.11988242713212" lon="4.082572237927708"><ele>127.19999999999999</ele><time>2026-04-09T14:14:08Z</time></trkpt><trkpt lat="44.1198761208046" lon="4.082711036140895"><ele>127.80000000000001</ele><time>2026-04-09T14:14:09Z</time></trkpt><trkpt lat="44.11987151448787" lon="4.082850135915961"><ele>128.4</ele><time>2026-04-09T14:14:10Z</time></trkpt><trkpt lat="44.11986833736676" lon="4.082989476516016"><ele>129.0</ele><time>2026-04-09T14:14:11Z</time></trkpt><trkpt lat="44.11986726366084" lon="4.083130075125463"><ele>128.8</ele><time>2026-04-09T14:14:12Z</time></trkpt><trkpt lat="44.11986479204273" lon="4.083269856877347"><ele>128.60000000000002</ele><time>2026-04-09T14:14:13Z</time></trkpt><trkpt lat="44.11986142214763" lon="4.083409652597209"><ele>128.4</ele><time>2026-04-09T14:14:14Z</time></trkpt><trkpt lat="44.11985479265887" lon="4.083545330126112"><ele>128.20000000000002</ele><time>2026-04-09T14:14:15Z</time></trkpt><trkpt lat="44.11984841276834" lon="4.083677631097015"><ele>128.0</ele><time>2026-04-09T14:14:16Z</time></trkpt><trkpt lat="44.11984091081812" lon="4.083807940198281"><ele>127.99999999999999</ele><time>2026-04-09T14:14:17Z</time></trkpt><trkpt lat="44.11983366715688" lon="4.0839367504670765"><ele>128.0</ele><time>2026-04-09T14:14:18Z</time></trkpt><trkpt lat="44.119827294065466" lon="4.084062839357177"><ele>128.0</ele><time>2026-04-09T14:14:19Z</time></trkpt><trkpt lat="44.11982155329746" lon="4.084186049527624"><ele>128.0</ele><time>2026-04-09T14:14:20Z</time></trkpt><trkpt lat="44.119816186503414" lon="4.084298667583245"><ele>127.99999999999999</ele><time>2026-04-09T14:14:21Z</time></trkpt><trkpt lat="44.11981231232373" lon="4.084399519711131"><ele>128.0</ele><time>2026-04-09T14:14:22Z</time></trkpt><trkpt lat="44.11981378381065" lon="4.084501015223593"><ele>127.99999999999999</ele><time>2026-04-09T14:14:23Z</time></trkpt><trkpt lat="44.11981928697319" lon="4.084595585553302"><ele>128.0</ele><time>2026-04-09T14:14:24Z</time></trkpt><trkpt lat="44.119825758152146" lon="4.0846904515879805"><ele>128.0</ele><time>2026-04-09T14:14:26Z</time></trkpt><trkpt lat="44.11982961161314" lon="4.084808103355082"><ele>128.0</ele><time>2026-04-09T14:14:31Z</time></trkpt><trkpt lat="44.11985721294592" lon="4.084941009873943"><ele>127.99999999999999</ele><time>2026-04-09T14:14:33Z</time></trkpt><trkpt lat="44.119963310299035" lon="4.084984758408948"><ele>128.0</ele><time>2026-04-09T14:14:35Z</time></trkpt><trkpt lat="44.12006823928078" lon="4.084897010809711"><ele>128.14285714285714</ele><time>2026-04-09T14:14:37Z</time></trkpt><trkpt lat="44.120128447332306" lon="4.084861080259334"><ele>128.28571428571428</ele><time>2026-04-09T14:14:38Z</time></trkpt><trkpt lat="44.120195050209524" lon="4.08485694352199"><ele>128.42857142857142</ele><time>2026-04-09T14:14:39Z</time></trkpt><trkpt lat="44.12026485062984" lon="4.084853775337897"><ele>128.57142857142856</ele><time>2026-04-09T14:14:40Z</time></trkpt><trkpt lat="44.12033442638247" lon="4.084850924024553"><ele>128.71428571428572</ele><time>2026-04-09T14:14:41Z</time></trkpt><trkpt lat="44.12040062796148" lon="4.084849039798795"><ele>128.85714285714283</ele><time>2026-04-09T14:14:42Z</time></trkpt><trkpt lat="44.120466983042014" lon="4.0848449264639175"><ele>129.0</ele><time>2026-04-09T14:14:43Z</time></trkpt><trkpt lat="44.12053439611941" lon="4.084839833595025"><ele>129.0</ele><time>2026-04-09T14:14:44Z</time></trkpt><trkpt lat="44.12059751459602" lon="4.084836007843303"><ele>129.0</ele><time>2026-04-09T14:14:45Z</time></trkpt><trkpt lat="44.1207189511283" lon="4.084831446790042"><ele>129.0</ele><time>2026-04-09T14:14:47Z</time></trkpt><trkpt lat="44.12081656839925" lon="4.084829445221144"><ele>129.0</ele><time>2026-04-09T14:14:49Z</time></trkpt><trkpt lat="44.12088660434551" lon="4.0848293121801245"><ele>129.0</ele><time>2026-04-09T14:14:53Z</time></trkpt><trkpt lat="44.1209575615291" lon="4.084824245936915"><ele>129.0</ele><time>2026-04-09T14:14:57Z</time></trkpt><trkpt lat="44.121026459137596" lon="4.084817095955255"><ele>128.83333333333334</ele><time>2026-04-09T14:15:01Z</time></trkpt><trkpt lat="44.12111109872604" lon="4.084823474229489"><ele>128.66666666666666</ele><time>2026-04-09T14:15:04Z</time></trkpt><trkpt lat="44.121167923572514" lon="4.084876932703746"><ele>128.5</ele><time>2026-04-09T14:15:12Z</time></trkpt><trkpt lat="44.12123490552419" lon="4.08493780217908"><ele>128.33333333333331</ele><time>2026-04-09T14:15:16Z</time></trkpt><trkpt lat="44.12127758158484" lon="4.085015264057628"><ele>128.16666666666666</ele><time>2026-04-09T14:15:18Z</time></trkpt><trkpt lat="44.121298402493665" lon="4.0851356770987115"><ele>128.0</ele><time>2026-04-09T14:15:20Z</time></trkpt><trkpt lat="44.121307971173295" lon="4.085289036615567"><ele>127.33333333333333</ele><time>2026-04-09T14:15:22Z</time></trkpt><trkpt lat="44.12130051039361" lon="4.085450788577494"><ele>126.66666666666666</ele><time>2026-04-09T14:15:24Z</time></trkpt><trkpt lat="44.121296460115545" lon="4.085538319554438"><ele>126.0</ele><time>2026-04-09T14:15:25Z</time></trkpt><trkpt lat="44.12129387176143" lon="4.085634784744405"><ele>125.33333333333334</ele><time>2026-04-09T14:15:26Z</time></trkpt><trkpt lat="44.12129322644596" lon="4.085745502927729"><ele>124.66666666666667</ele><time>2026-04-09T14:15:27Z</time></trkpt><trkpt lat="44.1212965444967" lon="4.085852182140539"><ele>124.0</ele><time>2026-04-09T14:15:28Z</time></trkpt><trkpt lat="44.121303831730174" lon="4.085960721554441"><ele>124.0</ele><time>2026-04-09T14:15:29Z</time></trkpt><trkpt lat="44.121314441851446" lon="4.086067032058482"><ele>124.00000000000001</ele><time>2026-04-09T14:15:30Z</time></trkpt><trkpt lat="44.1213254199267" lon="4.08616911826143"><ele>124.0</ele><time>2026-04-09T14:15:31Z</time></trkpt><trkpt lat="44.1213342797671" lon="4.08626646608246"><ele>124.0</ele><time>2026-04-09T14:15:32Z</time></trkpt><trkpt lat="44.121341284783576" lon="4.086364197445828"><ele>124.00000000000001</ele><time>2026-04-09T14:15:33Z</time></trkpt><trkpt lat="44.12134590794125" lon="4.086462808153143"><ele>124.0</ele><time>2026-04-09T14:15:34Z</time></trkpt><trkpt lat="44.12134950000792" lon="4.086564202926213"><ele>124.0</ele><time>2026-04-09T14:15:35Z</time></trkpt><trkpt lat="44.121352139897986" lon="4.086670908050997"><ele>124.16666666666667</ele><time>2026-04-09T14:15:36Z</time></trkpt><trkpt lat="44.12135421222696" lon="4.086775999673521"><ele>124.33333333333334</ele><time>2026-04-09T14:15:37Z</time></trkpt><trkpt lat="44.12135579603809" lon="4.086882751724909"><ele>124.5</ele><time>2026-04-09T14:15:38Z</time></trkpt><trkpt lat="44.12135648401229" lon="4.086991038401311"><ele>124.66666666666666</ele><time>2026-04-09T14:15:39Z</time></trkpt><trkpt lat="44.12135583747144" lon="4.087096315708434"><ele>124.83333333333333</ele><time>2026-04-09T14:15:40Z</time></trkpt><trkpt lat="44.12135142316884" lon="4.087199532967551"><ele>125.0</ele><time>2026-04-09T14:15:41Z</time></trkpt><trkpt lat="44.121342288816564" lon="4.08730103708405"><ele>124.99999999999999</ele><time>2026-04-09T14:15:42Z</time></trkpt><trkpt lat="44.121335865432656" lon="4.087406493110054"><ele>125.0</ele><time>2026-04-09T14:15:43Z</time></trkpt><trkpt lat="44.12133544280832" lon="4.0875139433629455"><ele>125.0</ele><time>2026-04-09T14:15:44Z</time></trkpt><trkpt lat="44.12134053312848" lon="4.0876210334984595"><ele>125.0</ele><time>2026-04-09T14:15:45Z</time></trkpt><trkpt lat="44.12134869152064" lon="4.087726993674394"><ele>124.99999999999999</ele><time>2026-04-09T14:15:46Z</time></trkpt><trkpt lat="44.121359550026845" lon="4.087833830264848"><ele>125.0</ele><time>2026-04-09T14:15:47Z</time></trkpt><trkpt lat="44.12136784406796" lon="4.087938895469501"><ele>124.83333333333333</ele><time>2026-04-09T14:15:48Z</time></trkpt><trkpt lat="44.121373141155686" lon="4.088044662984271"><ele>124.66666666666666</ele><time>2026-04-09T14:15:49Z</time></trkpt><trkpt lat="44.12137380810415" lon="4.088152993864188"><ele>124.5</ele><time>2026-04-09T14:15:50Z</time></trkpt><trkpt lat="44.121368985303775" lon="4.088260333144365"><ele>124.33333333333334</ele><time>2026-04-09T14:15:51Z</time></trkpt><trkpt lat="44.12136455840518" lon="4.088374354930703"><ele>124.16666666666667</ele><time>2026-04-09T14:15:52Z</time></trkpt><trkpt lat="44.12136104850103" lon="4.088488509391702"><ele>124.0</ele><time>2026-04-09T14:15:53Z</time></trkpt><trkpt lat="44.12135911591926" lon="4.088611133586076"><ele>123.80000000000001</ele><time>2026-04-09T14:15:54Z</time></trkpt><trkpt lat="44.121365243954436" lon="4.088747550093296"><ele>123.60000000000001</ele><time>2026-04-09T14:15:55Z</time></trkpt><trkpt lat="44.121377855928806" lon="4.088893217087298"><ele>123.4</ele><time>2026-04-09T14:15:56Z</time></trkpt><trkpt lat="44.12139274037223" lon="4.089040450970263"><ele>123.2</ele><time>2026-04-09T14:15:57Z</time></trkpt><trkpt lat="44.12140457312547" lon="4.089187019020999"><ele>123.0</ele><time>2026-04-09T14:15:58Z</time></trkpt><trkpt lat="44.121408318887454" lon="4.08933652096238"><ele>122.80000000000001</ele><time>2026-04-09T14:15:59Z</time></trkpt><trkpt lat="44.12140728731508" lon="4.0894859482972805"><ele>122.60000000000001</ele><time>2026-04-09T14:16:00Z</time></trkpt><trkpt lat="44.12140946017983" lon="4.089632133867706"><ele>122.39999999999999</ele><time>2026-04-09T14:16:01Z</time></trkpt><trkpt lat="44.12141255913798" lon="4.0897792825111745"><ele>122.19999999999999</ele><time>2026-04-09T14:16:02Z</time></trkpt><trkpt lat="44.12141226065796" lon="4.089921683526226"><ele>122.0</ele><time>2026-04-09T14:16:03Z</time></trkpt><trkpt lat="44.12140975120043" lon="4.090068228060391"><ele>121.75</ele><time>2026-04-09T14:16:04Z</time></trkpt><trkpt lat="44.12140647447782" lon="4.090217399261065"><ele>121.5</ele><time>2026-04-09T14:16:05Z</time></trkpt><trkpt lat="44.12140624559067" lon="4.090375752650313"><ele>121.25</ele><time>2026-04-09T14:16:06Z</time></trkpt><trkpt lat="44.12141047934689" lon="4.09053681364334"><ele>121.0</ele><time>2026-04-09T14:16:07Z</time></trkpt><trkpt lat="44.121415880076405" lon="4.090694795852514"><ele>121.6</ele><time>2026-04-09T14:16:08Z</time></trkpt><trkpt lat="44.121420719563325" lon="4.090856954010375"><ele>122.19999999999999</ele><time>2026-04-09T14:16:09Z</time></trkpt><trkpt lat="44.12142357197324" lon="4.091013547702033"><ele>122.80000000000001</ele><time>2026-04-09T14:16:10Z</time></trkpt><trkpt lat="44.12142320524324" lon="4.091160636015238"><ele>123.4</ele><time>2026-04-09T14:16:11Z</time></trkpt><trkpt lat="44.121418311503916" lon="4.091299468816488"><ele>124.0</ele><time>2026-04-09T14:16:12Z</time></trkpt><trkpt lat="44.12140824119161" lon="4.091435156496545"><ele>124.00000000000001</ele><time>2026-04-09T14:16:13Z</time></trkpt><trkpt lat="44.12139436037223" lon="4.091556282636345"><ele>124.0</ele><time>2026-04-09T14:16:14Z</time></trkpt><trkpt lat="44.12137472608255" lon="4.091674830442949"><ele>124.0</ele><time>2026-04-09T14:16:15Z</time></trkpt><trkpt lat="44.121348924951796" lon="4.091787961981405"><ele>124.0</ele><time>2026-04-09T14:16:16Z</time></trkpt><trkpt lat="44.12131699244884" lon="4.091894806174642"><ele>124.00000000000001</ele><time>2026-04-09T14:16:17Z</time></trkpt><trkpt lat="44.12127981491428" lon="4.092001376650594"><ele>124.0</ele><time>2026-04-09T14:16:18Z</time></trkpt><trkpt lat="44.12123394881029" lon="4.092119357316645"><ele>124.0</ele><time>2026-04-09T14:16:19Z</time></trkpt><trkpt lat="44.121185169439265" lon="4.092246753496266"><ele>124.0</ele><time>2026-04-09T14:16:20Z</time></trkpt><trkpt lat="44.121135705395446" lon="4.092387212483721"><ele>124.0</ele><time>2026-04-09T14:16:21Z</time></trkpt><trkpt lat="44.121082747519125" lon="4.092527346539679"><ele>124.0</ele><time>2026-04-09T14:16:22Z</time></trkpt><trkpt lat="44.121018759771545" lon="4.092649553063409"><ele>124.0</ele><time>2026-04-09T14:16:23Z</time></trkpt><trkpt lat="44.1209456496423" lon="4.092752585389285"><ele>124.2</ele><time>2026-04-09T14:16:24Z</time></trkpt><trkpt lat="44.120865491934104" lon="4.092845064254782"><ele>124.4</ele><time>2026-04-09T14:16:25Z</time></trkpt><trkpt lat="44.12078052831692" lon="4.092935515700301"><ele>124.6</ele><time>2026-04-09T14:16:26Z</time></trkpt><trkpt lat="44.12069108311164" lon="4.093031026625209"><ele>124.8</ele><time>2026-04-09T14:16:27Z</time></trkpt><trkpt lat="44.120600957121006" lon="4.093131944022767"><ele>125.0</ele><time>2026-04-09T14:16:28Z</time></trkpt><trkpt lat="44.12050831385833" lon="4.093237175165654"><ele>124.5</ele><time>2026-04-09T14:16:29Z</time></trkpt><trkpt lat="44.12041448418564" lon="4.093341693993205"><ele>124.0</ele><time>2026-04-09T14:16:30Z</time></trkpt><trkpt lat="44.12031881712538" lon="4.09344484579851"><ele>123.5</ele><time>2026-04-09T14:16:31Z</time></trkpt><trkpt lat="44.12022517227839" lon="4.093551177130928"><ele>123.0</ele><time>2026-04-09T14:16:32Z</time></trkpt><trkpt lat="44.120133781314465" lon="4.093662047552618"><ele>123.0</ele><time>2026-04-09T14:16:33Z</time></trkpt><trkpt lat="44.120033371409924" lon="4.093752710805244"><ele>123.0</ele><time>2026-04-09T14:16:34Z</time></trkpt><trkpt lat="44.11992694973758" lon="4.09382021006615"><ele>123.0</ele><time>2026-04-09T14:16:35Z</time></trkpt><trkpt lat="44.11981761646935" lon="4.093882231663987"><ele>123.0</ele><time>2026-04-09T14:16:36Z</time></trkpt><trkpt lat="44.11970813023941" lon="4.093943023596773"><ele>122.5</ele><time>2026-04-09T14:16:37Z</time></trkpt><trkpt lat="44.119595109699056" lon="4.094001146996045"><ele>122.0</ele><time>2026-04-09T14:16:38Z</time></trkpt><trkpt lat="44.119483115631105" lon="4.094058980681916"><ele>121.5</ele><time>2026-04-09T14:16:39Z</time></trkpt><trkpt lat="44.119372036926066" lon="4.094135093003576"><ele>121.0</ele><time>2026-04-09T14:16:40Z</time></trkpt><trkpt lat="44.11926645466337" lon="4.0942323737386115"><ele>121.0</ele><time>2026-04-09T14:16:41Z</time></trkpt><trkpt lat="44.119172259450224" lon="4.09434885182496"><ele>121.0</ele><time>2026-04-09T14:16:42Z</time></trkpt><trkpt lat="44.11908811551632" lon="4.094484093242874"><ele>121.0</ele><time>2026-04-09T14:16:43Z</time></trkpt><trkpt lat="44.119010702688556" lon="4.094621965565503"><ele>121.0</ele><time>2026-04-09T14:16:44Z</time></trkpt><trkpt lat="44.11893406879846" lon="4.094753122778073"><ele>121.0</ele><time>2026-04-09T14:16:45Z</time></trkpt><trkpt lat="44.11885693919816" lon="4.094880016442332"><ele>121.0</ele><time>2026-04-09T14:16:46Z</time></trkpt><trkpt lat="44.11878043395079" lon="4.0950032646824885"><ele>121.0</ele><time>2026-04-09T14:16:47Z</time></trkpt><trkpt lat="44.1187013984897" lon="4.095114310307916"><ele>121.0</ele><time>2026-04-09T14:16:48Z</time></trkpt><trkpt lat="44.11861589041931" lon="4.095217782588528"><ele>120.75</ele><time>2026-04-09T14:16:49Z</time></trkpt><trkpt lat="44.11851995979853" lon="4.095311481152861"><ele>120.5</ele><time>2026-04-09T14:16:50Z</time></trkpt><trkpt lat="44.11841449743431" lon="4.095390084326556"><ele>120.25</ele><time>2026-04-09T14:16:51Z</time></trkpt><trkpt lat="44.11830243401275" lon="4.09545630665638"><ele>120.0</ele><time>2026-04-09T14:16:52Z</time></trkpt><trkpt lat="44.118183243886165" lon="4.095507294095881"><ele>120.0</ele><time>2026-04-09T14:16:53Z</time></trkpt><trkpt lat="44.11806039007482" lon="4.095548784891453"><ele>120.0</ele><time>2026-04-09T14:16:54Z</time></trkpt><trkpt lat="44.1179386190752" lon="4.095590220365458"><ele>120.0</ele><time>2026-04-09T14:16:55Z</time></trkpt><trkpt lat="44.117814514743856" lon="4.095632986538442"><ele>120.0</ele><time>2026-04-09T14:16:56Z</time></trkpt><trkpt lat="44.11769173598268" lon="4.095674655237731"><ele>120.0</ele><time>2026-04-09T14:16:57Z</time></trkpt><trkpt lat="44.11757077575149" lon="4.095716440709121"><ele>120.0</ele><time>2026-04-09T14:16:58Z</time></trkpt><trkpt lat="44.117452235716854" lon="4.095756400737127"><ele>120.0</ele><time>2026-04-09T14:16:59Z</time></trkpt><trkpt lat="44.11733609182417" lon="4.0957946165283605"><ele>120.0</ele><time>2026-04-09T14:17:00Z</time></trkpt><trkpt lat="44.11722019580965" lon="4.095840884513682"><ele>121.75</ele><time>2026-04-09T14:17:01Z</time></trkpt><trkpt lat="44.11710793451879" lon="4.095899230041741"><ele>123.5</ele><time>2026-04-09T14:17:02Z</time></trkpt><trkpt lat="44.11699875087108" lon="4.095965252059307"><ele>125.25</ele><time>2026-04-09T14:17:03Z</time></trkpt><trkpt lat="44.11689205299966" lon="4.096030900168802"><ele>127.0</ele><time>2026-04-09T14:17:04Z</time></trkpt><trkpt lat="44.11678696382717" lon="4.096094300873956"><ele>127.0</ele><time>2026-04-09T14:17:05Z</time></trkpt><trkpt lat="44.116683350677036" lon="4.096157770718026"><ele>126.99999999999999</ele><time>2026-04-09T14:17:06Z</time></trkpt><trkpt lat="44.11658530051495" lon="4.096216145788919"><ele>126.99999999999999</ele><time>2026-04-09T14:17:07Z</time></trkpt><trkpt lat="44.11649412420797" lon="4.096269885562103"><ele>127.0</ele><time>2026-04-09T14:17:08Z</time></trkpt><trkpt lat="44.11640747942057" lon="4.096323564184937"><ele>127.0</ele><time>2026-04-09T14:17:09Z</time></trkpt><trkpt lat="44.11632411319683" lon="4.096399937287301"><ele>126.39999999999999</ele><time>2026-04-09T14:17:10Z</time></trkpt><trkpt lat="44.11625847909511" lon="4.096503669494845"><ele>125.79999999999998</ele><time>2026-04-09T14:17:11Z</time></trkpt><trkpt lat="44.11620397724988" lon="4.096625391945359"><ele>125.2</ele><time>2026-04-09T14:17:12Z</time></trkpt><trkpt lat="44.11614956397766" lon="4.096751735149878"><ele>124.6</ele><time>2026-04-09T14:17:13Z</time></trkpt><trkpt lat="44.11608832064667" lon="4.096888556451061"><ele>124.0</ele><time>2026-04-09T14:17:14Z</time></trkpt><trkpt lat="44.11602849660868" lon="4.097019336079837"><ele>125.2</ele><time>2026-04-09T14:17:15Z</time></trkpt><trkpt lat="44.11596712789014" lon="4.097150813390442"><ele>126.4</ele><time>2026-04-09T14:17:16Z</time></trkpt><trkpt lat="44.1159057314514" lon="4.0972799248076806"><ele>127.6</ele><time>2026-04-09T14:17:17Z</time></trkpt><trkpt lat="44.11584726675475" lon="4.097411716006986"><ele>128.8</ele><time>2026-04-09T14:17:18Z</time></trkpt><trkpt lat="44.11579026381776" lon="4.0975417216778105"><ele>130.0</ele><time>2026-04-09T14:17:19Z</time></trkpt><trkpt lat="44.115735798500154" lon="4.097660776375952"><ele>130.0</ele><time>2026-04-09T14:17:20Z</time></trkpt><trkpt lat="44.115685455020895" lon="4.097769518349093"><ele>130.0</ele><time>2026-04-09T14:17:21Z</time></trkpt><trkpt lat="44.11563858547239" lon="4.097869595053762"><ele>130.0</ele><time>2026-04-09T14:17:22Z</time></trkpt><trkpt lat="44.115595011768164" lon="4.0979641027136555"><ele>130.0</ele><time>2026-04-09T14:17:23Z</time></trkpt><trkpt lat="44.11555817360975" lon="4.098056161485235"><ele>130.0</ele><time>2026-04-09T14:17:24Z</time></trkpt><trkpt lat="44.11552681579128" lon="4.0981425056806"><ele>130.0</ele><time>2026-04-09T14:17:25Z</time></trkpt><trkpt lat="44.115488067488705" lon="4.098219205795078"><ele>130.42857142857144</ele><time>2026-04-09T14:17:26Z</time></trkpt><trkpt lat="44.115443175041634" lon="4.098286659400761"><ele>130.85714285714286</ele><time>2026-04-09T14:17:27Z</time></trkpt><trkpt lat="44.11540207056794" lon="4.098356219507999"><ele>131.28571428571428</ele><time>2026-04-09T14:17:28Z</time></trkpt><trkpt lat="44.11537637030241" lon="4.098443977372181"><ele>131.71428571428572</ele><time>2026-04-09T14:17:29Z</time></trkpt><trkpt lat="44.11537381232935" lon="4.098550994953629"><ele>132.14285714285714</ele><time>2026-04-09T14:17:30Z</time></trkpt><trkpt lat="44.115375009458845" lon="4.0986557401008294"><ele>132.57142857142858</ele><time>2026-04-09T14:17:31Z</time></trkpt><trkpt lat="44.11536019462008" lon="4.098750455244545"><ele>133.0</ele><time>2026-04-09T14:17:32Z</time></trkpt><trkpt lat="44.115333484336986" lon="4.09884894191446"><ele>133.0</ele><time>2026-04-09T14:17:33Z</time></trkpt><trkpt lat="44.11530373096214" lon="4.098959662263472"><ele>133.0</ele><time>2026-04-09T14:17:34Z</time></trkpt><trkpt lat="44.115273962726796" lon="4.099082635830895"><ele>133.0</ele><time>2026-04-09T14:17:35Z</time></trkpt><trkpt lat="44.11524182052663" lon="4.099212472237957"><ele>133.0</ele><time>2026-04-09T14:17:36Z</time></trkpt><trkpt lat="44.115208499272526" lon="4.099350280651979"><ele>133.0</ele><time>2026-04-09T14:17:37Z</time></trkpt><trkpt lat="44.11517390030731" lon="4.099491116982913"><ele>133.6</ele><time>2026-04-09T14:17:38Z</time></trkpt><trkpt lat="44.115135945156034" lon="4.099631745271763"><ele>134.20000000000002</ele><time>2026-04-09T14:17:39Z</time></trkpt><trkpt lat="44.11510102893871" lon="4.099780838716809"><ele>134.8</ele><time>2026-04-09T14:17:40Z</time></trkpt><trkpt lat="44.115065689743886" lon="4.099928962584356"><ele>135.4</ele><time>2026-04-09T14:17:41Z</time></trkpt><trkpt lat="44.115030039776606" lon="4.100075928733015"><ele>136.0</ele><time>2026-04-09T14:17:42Z</time></trkpt><trkpt lat="44.11499312030591" lon="4.100224944745006"><ele>136.0</ele><time>2026-04-09T14:17:43Z</time></trkpt><trkpt lat="44.1149571935661" lon="4.100373430239685"><ele>136.0</ele><time>2026-04-09T14:17:44Z</time></trkpt><trkpt lat="44.11492133141961" lon="4.100518506186706"><ele>136.0</ele><time>2026-04-09T14:17:45Z</time></trkpt><trkpt lat="44.11488715436739" lon="4.10066294552814"><ele>136.0</ele><time>2026-04-09T14:17:46Z</time></trkpt><trkpt lat="44.114854573723996" lon="4.100798504817193"><ele>136.0</ele><time>2026-04-09T14:17:47Z</time></trkpt><trkpt lat="44.11482678644377" lon="4.100913076009956"><ele>135.8</ele><time>2026-04-09T14:17:48Z</time></trkpt><trkpt lat="44.114803635197134" lon="4.101010970223936"><ele>135.6</ele><time>2026-04-09T14:17:49Z</time></trkpt><trkpt lat="44.11477982310038" lon="4.101096114216608"><ele>135.4</ele><time>2026-04-09T14:17:50Z</time></trkpt><trkpt lat="44.11469822526117" lon="4.101197585741271"><ele>135.2</ele><time>2026-04-09T14:17:52Z</time></trkpt><trkpt lat="44.114600869230244" lon="4.1012576243404935"><ele>135.0</ele><time>2026-04-09T14:17:54Z</time></trkpt><trkpt lat="44.11454519416842" lon="4.101369376932259"><ele>135.0</ele><time>2026-04-09T14:17:56Z</time></trkpt><trkpt lat="44.114576981699706" lon="4.10151413524705"><ele>135.0</ele><time>2026-04-09T14:17:58Z</time></trkpt><trkpt lat="44.114630834534644" lon="4.101651581776348"><ele>135.0</ele><time>2026-04-09T14:18:00Z</time></trkpt><trkpt lat="44.11462798614786" lon="4.101808723713319"><ele>135.0</ele><time>2026-04-09T14:18:02Z</time></trkpt><trkpt lat="44.11458035777081" lon="4.1019676385338855"><ele>136.2</ele><time>2026-04-09T14:18:04Z</time></trkpt><trkpt lat="44.11454334805149" lon="4.102115158900341"><ele>137.4</ele><time>2026-04-09T14:18:06Z</time></trkpt><trkpt lat="44.114511665065976" lon="4.102249310319266"><ele>138.6</ele><time>2026-04-09T14:18:08Z</time></trkpt><trkpt lat="44.114478750284874" lon="4.102389887601198"><ele>139.8</ele><time>2026-04-09T14:18:10Z</time></trkpt><trkpt lat="44.11445161336205" lon="4.102507624535988"><ele>141.0</ele><time>2026-04-09T14:18:12Z</time></trkpt><trkpt lat="44.114428424165105" lon="4.102612149743424"><ele>141.14285714285714</ele><time>2026-04-09T14:18:14Z</time></trkpt><trkpt lat="44.114408554953485" lon="4.102701004164167"><ele>141.28571428571428</ele><time>2026-04-09T14:18:18Z</time></trkpt><trkpt lat="44.11438647219842" lon="4.102796225244392"><ele>141.42857142857142</ele><time>2026-04-09T14:18:23Z</time></trkpt><trkpt lat="44.11436512148271" lon="4.102883066915838"><ele>141.57142857142856</ele><time>2026-04-09T14:18:25Z</time></trkpt><trkpt lat="44.114337571394785" lon="4.102973755628357"><ele>141.7142857142857</ele><time>2026-04-09T14:18:27Z</time></trkpt><trkpt lat="44.11428822893694" lon="4.103059303839339"><ele>141.85714285714286</ele><time>2026-04-09T14:18:37Z</time></trkpt><trkpt lat="44.114217774636955" lon="4.103136065500389"><ele>142.0</ele><time>2026-04-09T14:18:39Z</time></trkpt><trkpt lat="44.11416080667083" lon="4.1032700928119485"><ele>142.2</ele><time>2026-04-09T14:18:41Z</time></trkpt><trkpt lat="44.11418128940801" lon="4.1034422923107075"><ele>142.39999999999998</ele><time>2026-04-09T14:18:43Z</time></trkpt><trkpt lat="44.11419210004734" lon="4.103542503878215"><ele>142.60000000000002</ele><time>2026-04-09T14:18:44Z</time></trkpt><trkpt lat="44.11418387235835" lon="4.10365344319703"><ele>142.8</ele><time>2026-04-09T14:18:45Z</time></trkpt><trkpt lat="44.114159190457336" lon="4.103768760185989"><ele>143.0</ele><time>2026-04-09T14:18:46Z</time></trkpt><trkpt lat="44.11412557461252" lon="4.103898368447364"><ele>143.0</ele><time>2026-04-09T14:18:47Z</time></trkpt><trkpt lat="44.114090965436716" lon="4.104042253490124"><ele>143.0</ele><time>2026-04-09T14:18:48Z</time></trkpt><trkpt lat="44.114054869794636" lon="4.104193910558669"><ele>143.0</ele><time>2026-04-09T14:18:49Z</time></trkpt><trkpt lat="44.114018345858604" lon="4.10434005926291"><ele>143.0</ele><time>2026-04-09T14:18:50Z</time></trkpt><trkpt lat="44.11398081911177" lon="4.104483889557578"><ele>143.0</ele><time>2026-04-09T14:18:51Z</time></trkpt><trkpt lat="44.1139429772554" lon="4.104627473609506"><ele>142.6</ele><time>2026-04-09T14:18:52Z</time></trkpt><trkpt lat="44.113899885397934" lon="4.104769086467651"><ele>142.20000000000002</ele><time>2026-04-09T14:18:53Z</time></trkpt><trkpt lat="44.11385291235786" lon="4.10490863384571"><ele>141.8</ele><time>2026-04-09T14:18:54Z</time></trkpt><trkpt lat="44.11380400739847" lon="4.105043908717136"><ele>141.4</ele><time>2026-04-09T14:18:55Z</time></trkpt><trkpt lat="44.113752927479666" lon="4.10517674237263"><ele>141.0</ele><time>2026-04-09T14:18:56Z</time></trkpt><trkpt lat="44.11370382420618" lon="4.1053067003284625"><ele>141.0</ele><time>2026-04-09T14:18:57Z</time></trkpt><trkpt lat="44.113654045622646" lon="4.105434195663724"><ele>141.0</ele><time>2026-04-09T14:18:58Z</time></trkpt><trkpt lat="44.11360760425146" lon="4.105556331214679"><ele>141.0</ele><time>2026-04-09T14:18:59Z</time></trkpt><trkpt lat="44.11356243389025" lon="4.105674417820482"><ele>141.0</ele><time>2026-04-09T14:19:00Z</time></trkpt><trkpt lat="44.113518208255" lon="4.10577155447131"><ele>141.0</ele><time>2026-04-09T14:19:01Z</time></trkpt><trkpt lat="44.11347597296882" lon="4.105837429302665"><ele>141.0</ele><time>2026-04-09T14:19:02Z</time></trkpt><trkpt lat="44.11342909368431" lon="4.105899723999959"><ele>141.0</ele><time>2026-04-09T14:19:04Z</time></trkpt><trkpt lat="44.11335104566464" lon="4.105982369183378"><ele>141.0</ele><time>2026-04-09T14:19:25Z</time></trkpt><trkpt lat="44.113292860637124" lon="4.106028043773083"><ele>141.0</ele><time>2026-04-09T14:19:29Z</time></trkpt><trkpt lat="44.11319353541149" lon="4.106090626035478"><ele>141.0</ele><time>2026-04-09T14:19:38Z</time></trkpt><trkpt lat="44.113118563768715" lon="4.106112364013856"><ele>141.0</ele><time>2026-04-09T14:19:40Z</time></trkpt><trkpt lat="44.11300266616051" lon="4.1061082008372844"><ele>141.0</ele><time>2026-04-09T14:19:42Z</time></trkpt><trkpt lat="44.112936131734536" lon="4.106116220465096"><ele>141.0</ele><time>2026-04-09T14:19:43Z</time></trkpt><trkpt lat="44.112863275284454" lon="4.106163073563718"><ele>141.0</ele><time>2026-04-09T14:19:44Z</time></trkpt><trkpt lat="44.11280460526716" lon="4.106234586442185"><ele>141.0</ele><time>2026-04-09T14:19:45Z</time></trkpt><trkpt lat="44.11276897331283" lon="4.106328521334507"><ele>141.0</ele><time>2026-04-09T14:19:46Z</time></trkpt><trkpt lat="44.11275389315445" lon="4.106425160174558"><ele>141.0</ele><time>2026-04-09T14:19:47Z</time></trkpt><trkpt lat="44.112748303326796" lon="4.1065234055731175"><ele>141.0</ele><time>2026-04-09T14:19:48Z</time></trkpt><trkpt lat="44.112737919128634" lon="4.106631545232488"><ele>141.2</ele><time>2026-04-09T14:19:49Z</time></trkpt><trkpt lat="44.112713648689805" lon="4.106738158802186"><ele>141.39999999999998</ele><time>2026-04-09T14:19:50Z</time></trkpt><trkpt lat="44.11267425362075" lon="4.106841811942852"><ele>141.6</ele><time>2026-04-09T14:19:51Z</time></trkpt><trkpt lat="44.1126211414388" lon="4.106942931085352"><ele>141.79999999999998</ele><time>2026-04-09T14:19:52Z</time></trkpt><trkpt lat="44.11255506456913" lon="4.107053731372574"><ele>142.0</ele><time>2026-04-09T14:19:53Z</time></trkpt><trkpt lat="44.11248315162689" lon="4.107175533395878"><ele>142.0</ele><time>2026-04-09T14:19:54Z</time></trkpt><trkpt lat="44.112409144881305" lon="4.107300508596917"><ele>142.0</ele><time>2026-04-09T14:19:55Z</time></trkpt><trkpt lat="44.11233301961984" lon="4.1074282694752"><ele>142.0</ele><time>2026-04-09T14:19:56Z</time></trkpt><trkpt lat="44.112255090982494" lon="4.107560726613939"><ele>142.0</ele><time>2026-04-09T14:19:57Z</time></trkpt><trkpt lat="44.112176617915665" lon="4.107691372569669"><ele>143.75</ele><time>2026-04-09T14:19:58Z</time></trkpt><trkpt lat="44.11209509202193" lon="4.107822789526916"><ele>145.5</ele><time>2026-04-09T14:19:59Z</time></trkpt><trkpt lat="44.112011392957584" lon="4.107954629133067"><ele>147.25</ele><time>2026-04-09T14:20:00Z</time></trkpt><trkpt lat="44.11192507099761" lon="4.1080893825933815"><ele>149.0</ele><time>2026-04-09T14:20:01Z</time></trkpt><trkpt lat="44.11183844832947" lon="4.10822432884219"><ele>149.0</ele><time>2026-04-09T14:20:02Z</time></trkpt><trkpt lat="44.11174824891631" lon="4.108364398754655"><ele>149.0</ele><time>2026-04-09T14:20:03Z</time></trkpt><trkpt lat="44.111658529685656" lon="4.108508139154216"><ele>149.0</ele><time>2026-04-09T14:20:04Z</time></trkpt><trkpt lat="44.11156931900063" lon="4.108656154471227"><ele>149.0</ele><time>2026-04-09T14:20:05Z</time></trkpt><trkpt lat="44.11148185802776" lon="4.108809921484323"><ele>149.25</ele><time>2026-04-09T14:20:06Z</time></trkpt><trkpt lat="44.11139527873058" lon="4.108963985701816"><ele>149.5</ele><time>2026-04-09T14:20:07Z</time></trkpt><trkpt lat="44.11131165587668" lon="4.109117921568414"><ele>149.75</ele><time>2026-04-09T14:20:08Z</time></trkpt><trkpt lat="44.11122898294967" lon="4.109271755627392"><ele>150.0</ele><time>2026-04-09T14:20:09Z</time></trkpt><trkpt lat="44.1111490642761" lon="4.10942641935747"><ele>150.0</ele><time>2026-04-09T14:20:10Z</time></trkpt><trkpt lat="44.11107189134946" lon="4.109582467030386"><ele>150.0</ele><time>2026-04-09T14:20:11Z</time></trkpt><trkpt lat="44.110993658255545" lon="4.1097387489361585"><ele>150.0</ele><time>2026-04-09T14:20:12Z</time></trkpt><trkpt lat="44.11091531462922" lon="4.109894366839313"><ele>150.0</ele><time>2026-04-09T14:20:13Z</time></trkpt><trkpt lat="44.11083411898045" lon="4.110054521549238"><ele>149.75</ele><time>2026-04-09T14:20:14Z</time></trkpt><trkpt lat="44.11075110237422" lon="4.110217087591128"><ele>149.5</ele><time>2026-04-09T14:20:15Z</time></trkpt><trkpt lat="44.110667883724524" lon="4.110382138645569"><ele>149.25</ele><time>2026-04-09T14:20:16Z</time></trkpt><trkpt lat="44.11058579290811" lon="4.110547449833255"><ele>149.0</ele><time>2026-04-09T14:20:17Z</time></trkpt><trkpt lat="44.11050508384478" lon="4.110714068258636"><ele>148.0</ele><time>2026-04-09T14:20:18Z</time></trkpt><trkpt lat="44.11042236227379" lon="4.110879705670182"><ele>147.0</ele><time>2026-04-09T14:20:19Z</time></trkpt><trkpt lat="44.11034055206388" lon="4.111042670736429"><ele>146.0</ele><time>2026-04-09T14:20:20Z</time></trkpt><trkpt lat="44.11025924524835" lon="4.111203853044972"><ele>145.0</ele><time>2026-04-09T14:20:21Z</time></trkpt><trkpt lat="44.11017827483259" lon="4.111362021000446"><ele>145.0</ele><time>2026-04-09T14:20:22Z</time></trkpt><trkpt lat="44.11009897910959" lon="4.111521692932636"><ele>145.0</ele><time>2026-04-09T14:20:23Z</time></trkpt><trkpt lat="44.11001946456756" lon="4.111678616135949"><ele>145.0</ele><time>2026-04-09T14:20:24Z</time></trkpt><trkpt lat="44.109941791096595" lon="4.111829109240633"><ele>145.0</ele><time>2026-04-09T14:20:25Z</time></trkpt><trkpt lat="44.10986556024361" lon="4.111980513573762"><ele>145.0</ele><time>2026-04-09T14:20:26Z</time></trkpt><trkpt lat="44.10979230216668" lon="4.112124563734201"><ele>145.0</ele><time>2026-04-09T14:20:27Z</time></trkpt><trkpt lat="44.10972851654911" lon="4.112253703794501"><ele>145.0</ele><time>2026-04-09T14:20:28Z</time></trkpt><trkpt lat="44.109680496331" lon="4.112350364654746"><ele>145.0</ele><time>2026-04-09T14:20:29Z</time></trkpt><trkpt lat="44.10964135353358" lon="4.112437565670816"><ele>145.0</ele><time>2026-04-09T14:20:32Z</time></trkpt><trkpt lat="44.10959471451373" lon="4.11255156757939"><ele>144.4</ele><time>2026-04-09T14:20:34Z</time></trkpt><trkpt lat="44.109554464523185" lon="4.1126493715946895"><ele>143.8</ele><time>2026-04-09T14:20:35Z</time></trkpt><trkpt lat="44.10950415887111" lon="4.112774270402645"><ele>143.2</ele><time>2026-04-09T14:20:36Z</time></trkpt><trkpt lat="44.10944833674258" lon="4.112925003344926"><ele>142.6</ele><time>2026-04-09T14:20:37Z</time></trkpt><trkpt lat="44.10939262317822" lon="4.113090803634496"><ele>142.0</ele><time>2026-04-09T14:20:38Z</time></trkpt><trkpt lat="44.10934203933877" lon="4.113254182297575"><ele>142.0</ele><time>2026-04-09T14:20:39Z</time></trkpt><trkpt lat="44.10929086633207" lon="4.113415663691006"><ele>142.0</ele><time>2026-04-09T14:20:40Z</time></trkpt><trkpt lat="44.10924218435655" lon="4.113584735475067"><ele>142.0</ele><time>2026-04-09T14:20:41Z</time></trkpt><trkpt lat="44.109192502310094" lon="4.113757188202161"><ele>142.0</ele><time>2026-04-09T14:20:42Z</time></trkpt><trkpt lat="44.109140891564465" lon="4.1139350287924605"><ele>141.75</ele><time>2026-04-09T14:20:43Z</time></trkpt><trkpt lat="44.10908992428814" lon="4.114111293016118"><ele>141.5</ele><time>2026-04-09T14:20:44Z</time></trkpt><trkpt lat="44.109039366585414" lon="4.114286929693452"><ele>141.25</ele><time>2026-04-09T14:20:45Z</time></trkpt><trkpt lat="44.1089887602643" lon="4.114461343848663"><ele>141.0</ele><time>2026-04-09T14:20:46Z</time></trkpt><trkpt lat="44.1089396714059" lon="4.114636102196464"><ele>141.0</ele><time>2026-04-09T14:20:47Z</time></trkpt><trkpt lat="44.108890183318465" lon="4.114809869628909"><ele>141.0</ele><time>2026-04-09T14:20:48Z</time></trkpt><trkpt lat="44.10884045024914" lon="4.114971099080245"><ele>141.0</ele><time>2026-04-09T14:20:49Z</time></trkpt><trkpt lat="44.10879867903638" lon="4.115112401556527"><ele>141.0</ele><time>2026-04-09T14:20:50Z</time></trkpt><trkpt lat="44.108761496128906" lon="4.115239259650657"><ele>140.5</ele><time>2026-04-09T14:20:51Z</time></trkpt><trkpt lat="44.10873427403332" lon="4.115332519162254"><ele>140.0</ele><time>2026-04-09T14:20:52Z</time></trkpt><trkpt lat="44.108704332938544" lon="4.115436111391809"><ele>139.5</ele><time>2026-04-09T14:20:53Z</time></trkpt><trkpt lat="44.108679805944284" lon="4.115522811369414"><ele>139.0</ele><time>2026-04-09T14:20:54Z</time></trkpt><trkpt lat="44.108650779478566" lon="4.115622664325913"><ele>138.5</ele><time>2026-04-09T14:20:55Z</time></trkpt><trkpt lat="44.10861933539429" lon="4.115736619526184"><ele>138.0</ele><time>2026-04-09T14:20:56Z</time></trkpt><trkpt lat="44.10858394290473" lon="4.115856352572966"><ele>137.8</ele><time>2026-04-09T14:20:57Z</time></trkpt><trkpt lat="44.10854765244725" lon="4.115975409911623"><ele>137.60000000000002</ele><time>2026-04-09T14:20:58Z</time></trkpt><trkpt lat="44.10850954414322" lon="4.116096114117618"><ele>137.39999999999998</ele><time>2026-04-09T14:20:59Z</time></trkpt><trkpt lat="44.108469678687925" lon="4.116223843879546"><ele>137.2</ele><time>2026-04-09T14:21:00Z</time></trkpt><trkpt lat="44.108431710928" lon="4.116355900059512"><ele>137.0</ele><time>2026-04-09T14:21:01Z</time></trkpt><trkpt lat="44.10839286678076" lon="4.116492893658224"><ele>137.0</ele><time>2026-04-09T14:21:02Z</time></trkpt><trkpt lat="44.1083544096566" lon="4.116630356456631"><ele>137.0</ele><time>2026-04-09T14:21:03Z</time></trkpt><trkpt lat="44.108319394907916" lon="4.1167693589034595"><ele>137.0</ele><time>2026-04-09T14:21:04Z</time></trkpt><trkpt lat="44.10828324199609" lon="4.116911290468754"><ele>137.0</ele><time>2026-04-09T14:21:05Z</time></trkpt><trkpt lat="44.10824466251251" lon="4.117049547322674"><ele>137.0</ele><time>2026-04-09T14:21:06Z</time></trkpt><trkpt lat="44.10820314423587" lon="4.117188213027809"><ele>136.6</ele><time>2026-04-09T14:21:07Z</time></trkpt><trkpt lat="44.10816107447194" lon="4.117321365641245"><ele>136.2</ele><time>2026-04-09T14:21:08Z</time></trkpt><trkpt lat="44.10811661818524" lon="4.117453188041129"><ele>135.8</ele><time>2026-04-09T14:21:09Z</time></trkpt><trkpt lat="44.108073836438834" lon="4.117586074231219"><ele>135.4</ele><time>2026-04-09T14:21:10Z</time></trkpt><trkpt lat="44.10803631283467" lon="4.117710833525075"><ele>135.0</ele><time>2026-04-09T14:21:11Z</time></trkpt><trkpt lat="44.10800255174885" lon="4.117820728054761"><ele>134.5</ele><time>2026-04-09T14:21:12Z</time></trkpt><trkpt lat="44.10797462818056" lon="4.117914820467347"><ele>134.0</ele><time>2026-04-09T14:21:13Z</time></trkpt><trkpt lat="44.10794930741055" lon="4.118004809255389"><ele>133.5</ele><time>2026-04-09T14:21:14Z</time></trkpt><trkpt lat="44.1079257637067" lon="4.118089167624425"><ele>133.0</ele><time>2026-04-09T14:21:15Z</time></trkpt><trkpt lat="44.10788559225358" lon="4.118228062443232"><ele>132.5</ele><time>2026-04-09T14:21:17Z</time></trkpt><trkpt lat="44.10785075649261" lon="4.118347833194495"><ele>132.0</ele><time>2026-04-09T14:21:19Z</time></trkpt><trkpt lat="44.10782525531347" lon="4.11843732329687"><ele>132.0</ele><time>2026-04-09T14:21:22Z</time></trkpt><trkpt lat="44.10779070266367" lon="4.118548709974598"><ele>132.0</ele><time>2026-04-09T14:21:29Z</time></trkpt><trkpt lat="44.107762781346096" lon="4.1186387113966765"><ele>132.0</ele><time>2026-04-09T14:21:31Z</time></trkpt><trkpt lat="44.107721044503926" lon="4.11876863417571"><ele>132.0</ele><time>2026-04-09T14:21:33Z</time></trkpt><trkpt lat="44.10767099027133" lon="4.1189189433371025"><ele>132.0</ele><time>2026-04-09T14:21:35Z</time></trkpt><trkpt lat="44.10764379217294" lon="4.118998285794814"><ele>132.0</ele><time>2026-04-09T14:21:36Z</time></trkpt><trkpt lat="44.10761513841535" lon="4.119077091321869"><ele>132.0</ele><time>2026-04-09T14:21:37Z</time></trkpt><trkpt lat="44.10758558326819" lon="4.11915654880582"><ele>132.0</ele><time>2026-04-09T14:21:38Z</time></trkpt><trkpt lat="44.10755491603343" lon="4.119240438394783"><ele>132.0</ele><time>2026-04-09T14:21:39Z</time></trkpt><trkpt lat="44.1075220601609" lon="4.119321741668841"><ele>132.0</ele><time>2026-04-09T14:21:40Z</time></trkpt><trkpt lat="44.10748701248978" lon="4.119402888315856"><ele>132.0</ele><time>2026-04-09T14:21:41Z</time></trkpt><trkpt lat="44.107451369106116" lon="4.119483154256"><ele>132.0</ele><time>2026-04-09T14:21:42Z</time></trkpt><trkpt lat="44.10741362148921" lon="4.119567791409291"><ele>132.0</ele><time>2026-04-09T14:21:43Z</time></trkpt><trkpt lat="44.10737611058483" lon="4.119651849021846"><ele>132.0</ele><time>2026-04-09T14:21:44Z</time></trkpt><trkpt lat="44.10733921113947" lon="4.119736797965549"><ele>132.0</ele><time>2026-04-09T14:21:45Z</time></trkpt><trkpt lat="44.107301849766294" lon="4.119823492052508"><ele>132.0</ele><time>2026-04-09T14:21:46Z</time></trkpt><trkpt lat="44.107264806077886" lon="4.119908244385278"><ele>132.0</ele><time>2026-04-09T14:21:47Z</time></trkpt><trkpt lat="44.10722707508478" lon="4.119992947186478"><ele>132.0</ele><time>2026-04-09T14:21:48Z</time></trkpt><trkpt lat="44.10718937047323" lon="4.120078687699788"><ele>132.0</ele><time>2026-04-09T14:21:49Z</time></trkpt><trkpt lat="44.10715183299065" lon="4.120163768931597"><ele>132.0</ele><time>2026-04-09T14:21:50Z</time></trkpt><trkpt lat="44.10711256969325" lon="4.120250434270074"><ele>131.5</ele><time>2026-04-09T14:21:51Z</time></trkpt><trkpt lat="44.10707290779214" lon="4.120336901307786"><ele>131.0</ele><time>2026-04-09T14:21:52Z</time></trkpt><trkpt lat="44.10703153052169" lon="4.120426579858405"><ele>130.5</ele><time>2026-04-09T14:21:53Z</time></trkpt><trkpt lat="44.106988471076484" lon="4.120521571109149"><ele>130.0</ele><time>2026-04-09T14:21:54Z</time></trkpt><trkpt lat="44.10694511668182" lon="4.120619980041334"><ele>129.5</ele><time>2026-04-09T14:21:55Z</time></trkpt><trkpt lat="44.10690324818147" lon="4.120717911193427"><ele>129.0</ele><time>2026-04-09T14:21:56Z</time></trkpt><trkpt lat="44.10686164192585" lon="4.120818674894771"><ele>129.0</ele><time>2026-04-09T14:21:57Z</time></trkpt><trkpt lat="44.10681777694143" lon="4.120918581994443"><ele>129.0</ele><time>2026-04-09T14:21:58Z</time></trkpt><trkpt lat="44.10677510654515" lon="4.121020551520213"><ele>129.0</ele><time>2026-04-09T14:21:59Z</time></trkpt><trkpt lat="44.106729674173266" lon="4.121124139370832"><ele>129.0</ele><time>2026-04-09T14:22:00Z</time></trkpt><trkpt lat="44.10668734753556" lon="4.1212328599665575"><ele>129.0</ele><time>2026-04-09T14:22:01Z</time></trkpt><trkpt lat="44.10664631543429" lon="4.121345248797854"><ele>129.0</ele><time>2026-04-09T14:22:02Z</time></trkpt><trkpt lat="44.10660702560364" lon="4.1214622826678"><ele>128.8</ele><time>2026-04-09T14:22:03Z</time></trkpt><trkpt lat="44.10656967665875" lon="4.1215783166360875"><ele>128.60000000000002</ele><time>2026-04-09T14:22:04Z</time></trkpt><trkpt lat="44.10653358338485" lon="4.121694302506572"><ele>128.4</ele><time>2026-04-09T14:22:05Z</time></trkpt><trkpt lat="44.10649671832674" lon="4.121810428348949"><ele>128.20000000000002</ele><time>2026-04-09T14:22:06Z</time></trkpt><trkpt lat="44.10646535892759" lon="4.121931651396697"><ele>128.0</ele><time>2026-04-09T14:22:07Z</time></trkpt><trkpt lat="44.10643281477868" lon="4.12206063058807"><ele>128.0</ele><time>2026-04-09T14:22:08Z</time></trkpt><trkpt lat="44.10639990880234" lon="4.122202698352239"><ele>128.0</ele><time>2026-04-09T14:22:09Z</time></trkpt><trkpt lat="44.106370374825154" lon="4.122363525472079"><ele>128.0</ele><time>2026-04-09T14:22:10Z</time></trkpt><trkpt lat="44.10633534320266" lon="4.122528997837338"><ele>128.0</ele><time>2026-04-09T14:22:11Z</time></trkpt><trkpt lat="44.10630046284586" lon="4.122701605347676"><ele>127.5</ele><time>2026-04-09T14:22:12Z</time></trkpt><trkpt lat="44.10626562023903" lon="4.122874310155267"><ele>127.0</ele><time>2026-04-09T14:22:13Z</time></trkpt><trkpt lat="44.10623080009863" lon="4.123046751111065"><ele>126.5</ele><time>2026-04-09T14:22:14Z</time></trkpt><trkpt lat="44.106196768608676" lon="4.123216190577058"><ele>126.0</ele><time>2026-04-09T14:22:15Z</time></trkpt><trkpt lat="44.106164889979006" lon="4.1233890019661406"><ele>127.25</ele><time>2026-04-09T14:22:16Z</time></trkpt><trkpt lat="44.10613025699006" lon="4.123562971643516"><ele>128.5</ele><time>2026-04-09T14:22:17Z</time></trkpt><trkpt lat="44.106094684925495" lon="4.123738040224797"><ele>129.75</ele><time>2026-04-09T14:22:18Z</time></trkpt><trkpt lat="44.106059944103094" lon="4.1239095625646085"><ele>131.0</ele><time>2026-04-09T14:22:19Z</time></trkpt><trkpt lat="44.10602354416241" lon="4.1240790242574485"><ele>132.0</ele><time>2026-04-09T14:22:20Z</time></trkpt><trkpt lat="44.10598411134732" lon="4.124249114377639"><ele>133.0</ele><time>2026-04-09T14:22:21Z</time></trkpt><trkpt lat="44.105939164536906" lon="4.124416950090382"><ele>134.0</ele><time>2026-04-09T14:22:22Z</time></trkpt><trkpt lat="44.10588714879007" lon="4.124580264360498"><ele>135.0</ele><time>2026-04-09T14:22:23Z</time></trkpt><trkpt lat="44.10582853555886" lon="4.124738855008896"><ele>135.0</ele><time>2026-04-09T14:22:24Z</time></trkpt><trkpt lat="44.10576397425818" lon="4.124890085336084"><ele>135.0</ele><time>2026-04-09T14:22:25Z</time></trkpt><trkpt lat="44.105690941563644" lon="4.125038538797159"><ele>135.0</ele><time>2026-04-09T14:22:26Z</time></trkpt><trkpt lat="44.105613228904936" lon="4.125183564320388"><ele>135.0</ele><time>2026-04-09T14:22:27Z</time></trkpt><trkpt lat="44.10553096950071" lon="4.125327696710329"><ele>136.0</ele><time>2026-04-09T14:22:28Z</time></trkpt><trkpt lat="44.10544594024339" lon="4.125475425618238"><ele>137.0</ele><time>2026-04-09T14:22:29Z</time></trkpt><trkpt lat="44.10536171120099" lon="4.125619040897445"><ele>138.0</ele><time>2026-04-09T14:22:30Z</time></trkpt><trkpt lat="44.105278891226924" lon="4.125757964308259"><ele>139.0</ele><time>2026-04-09T14:22:31Z</time></trkpt><trkpt lat="44.10519744557725" lon="4.12589145794565"><ele>139.0</ele><time>2026-04-09T14:22:32Z</time></trkpt><trkpt lat="44.10511843856817" lon="4.12602144746867"><ele>139.0</ele><time>2026-04-09T14:22:33Z</time></trkpt><trkpt lat="44.10504037727109" lon="4.126145963573871"><ele>139.0</ele><time>2026-04-09T14:22:34Z</time></trkpt><trkpt lat="44.104965011585406" lon="4.126268767298676"><ele>139.0</ele><time>2026-04-09T14:22:35Z</time></trkpt><trkpt lat="44.10489280726621" lon="4.126387497895092"><ele>140.8</ele><time>2026-04-09T14:22:36Z</time></trkpt><trkpt lat="44.10482269365454" lon="4.126504400913712"><ele>142.60000000000002</ele><time>2026-04-09T14:22:37Z</time></trkpt><trkpt lat="44.10475340169905" lon="4.126621068508435"><ele>144.4</ele><time>2026-04-09T14:22:38Z</time></trkpt><trkpt lat="44.104681994531255" lon="4.126739621499282"><ele>146.20000000000002</ele><time>2026-04-09T14:22:39Z</time></trkpt><trkpt lat="44.104607041571086" lon="4.126861501100968"><ele>148.0</ele><time>2026-04-09T14:22:40Z</time></trkpt><trkpt lat="44.1045317471944" lon="4.126985352187948"><ele>148.0</ele><time>2026-04-09T14:22:41Z</time></trkpt><trkpt lat="44.104454916150964" lon="4.12711076944856"><ele>148.0</ele><time>2026-04-09T14:22:42Z</time></trkpt><trkpt lat="44.10437694682592" lon="4.12723460619405"><ele>148.0</ele><time>2026-04-09T14:22:43Z</time></trkpt><trkpt lat="44.10429799751196" lon="4.127358054306117"><ele>148.0</ele><time>2026-04-09T14:22:44Z</time></trkpt><trkpt lat="44.104218245474094" lon="4.127482797613423"><ele>147.5</ele><time>2026-04-09T14:22:45Z</time></trkpt><trkpt lat="44.10413904940871" lon="4.127607897323589"><ele>147.0</ele><time>2026-04-09T14:22:46Z</time></trkpt><trkpt lat="44.10406045925782" lon="4.127733086819021"><ele>146.5</ele><time>2026-04-09T14:22:47Z</time></trkpt><trkpt lat="44.103982518853904" lon="4.127857234072136"><ele>146.0</ele><time>2026-04-09T14:22:48Z</time></trkpt><trkpt lat="44.103903775313086" lon="4.127981745403004"><ele>146.0</ele><time>2026-04-09T14:22:49Z</time></trkpt><trkpt lat="44.1038237447292" lon="4.128106097410354"><ele>146.0</ele><time>2026-04-09T14:22:50Z</time></trkpt><trkpt lat="44.10374530010187" lon="4.128235629371315"><ele>146.0</ele><time>2026-04-09T14:22:51Z</time></trkpt><trkpt lat="44.10366512561519" lon="4.128369423387778"><ele>146.0</ele><time>2026-04-09T14:22:52Z</time></trkpt><trkpt lat="44.10358210259744" lon="4.128504461554377"><ele>145.75</ele><time>2026-04-09T14:22:53Z</time></trkpt><trkpt lat="44.10349785232366" lon="4.128641091257112"><ele>145.5</ele><time>2026-04-09T14:22:54Z</time></trkpt><trkpt lat="44.10341752930999" lon="4.1287857732518845"><ele>145.25</ele><time>2026-04-09T14:22:55Z</time></trkpt><trkpt lat="44.103337749100454" lon="4.128928458598796"><ele>145.0</ele><time>2026-04-09T14:22:56Z</time></trkpt><trkpt lat="44.10325807771221" lon="4.129074455002486"><ele>146.25</ele><time>2026-04-09T14:22:57Z</time></trkpt><trkpt lat="44.10317974508766" lon="4.129220604619008"><ele>147.5</ele><time>2026-04-09T14:22:58Z</time></trkpt><trkpt lat="44.103102488018855" lon="4.129369934136716"><ele>148.75</ele><time>2026-04-09T14:22:59Z</time></trkpt><trkpt lat="44.10302924959441" lon="4.129524405012619"><ele>150.0</ele><time>2026-04-09T14:23:00Z</time></trkpt><trkpt lat="44.102958846865874" lon="4.129682247741349"><ele>150.0</ele><time>2026-04-09T14:23:01Z</time></trkpt><trkpt lat="44.10289406634475" lon="4.129845896735917"><ele>150.0</ele><time>2026-04-09T14:23:02Z</time></trkpt><trkpt lat="44.1028295930063" lon="4.130011483794143"><ele>150.0</ele><time>2026-04-09T14:23:03Z</time></trkpt><trkpt lat="44.10277036049788" lon="4.130184075605801"><ele>150.0</ele><time>2026-04-09T14:23:04Z</time></trkpt><trkpt lat="44.102715494103165" lon="4.130359070039364"><ele>151.25</ele><time>2026-04-09T14:23:05Z</time></trkpt><trkpt lat="44.102662014952344" lon="4.130535753624837"><ele>152.5</ele><time>2026-04-09T14:23:06Z</time></trkpt><trkpt lat="44.10261056309725" lon="4.130718733175596"><ele>153.75</ele><time>2026-04-09T14:23:07Z</time></trkpt><trkpt lat="44.102558358539724" lon="4.130904799785989"><ele>155.0</ele><time>2026-04-09T14:23:08Z</time></trkpt><trkpt lat="44.10250484771437" lon="4.131093315388275"><ele>155.33333333333331</ele><time>2026-04-09T14:23:09Z</time></trkpt><trkpt lat="44.10244838909151" lon="4.131284608751971"><ele>155.66666666666666</ele><time>2026-04-09T14:23:10Z</time></trkpt><trkpt lat="44.10238514904308" lon="4.131475848825021"><ele>156.0</ele><time>2026-04-09T14:23:11Z</time></trkpt><trkpt lat="44.102317387409066" lon="4.131668554203672"><ele>156.0</ele><time>2026-04-09T14:23:12Z</time></trkpt><trkpt lat="44.102241508487715" lon="4.131861015004068"><ele>156.0</ele><time>2026-04-09T14:23:13Z</time></trkpt><trkpt lat="44.10216138331276" lon="4.1320557377384635"><ele>156.0</ele><time>2026-04-09T14:23:14Z</time></trkpt><trkpt lat="44.10207712921085" lon="4.132249270145502"><ele>154.0</ele><time>2026-04-09T14:23:15Z</time></trkpt><trkpt lat="44.10199010906525" lon="4.13243967241562"><ele>152.0</ele><time>2026-04-09T14:23:16Z</time></trkpt><trkpt lat="44.101902342120326" lon="4.132631290212728"><ele>150.0</ele><time>2026-04-09T14:23:17Z</time></trkpt><trkpt lat="44.10181814872677" lon="4.132815869287786"><ele>150.0</ele><time>2026-04-09T14:23:18Z</time></trkpt><trkpt lat="44.10173161301901" lon="4.133004262053599"><ele>150.0</ele><time>2026-04-09T14:23:19Z</time></trkpt><trkpt lat="44.10164617651432" lon="4.133187083383962"><ele>150.0</ele><time>2026-04-09T14:23:20Z</time></trkpt><trkpt lat="44.10156134979293" lon="4.133370796568371"><ele>148.0</ele><time>2026-04-09T14:23:21Z</time></trkpt><trkpt lat="44.10147583300624" lon="4.1335542280559725"><ele>146.0</ele><time>2026-04-09T14:23:22Z</time></trkpt><trkpt lat="44.10138990746245" lon="4.133737266076746"><ele>144.0</ele><time>2026-04-09T14:23:23Z</time></trkpt><trkpt lat="44.10130575706515" lon="4.133923060082824"><ele>144.0</ele><time>2026-04-09T14:23:24Z</time></trkpt><trkpt lat="44.10122256247603" lon="4.1341066798338275"><ele>144.0</ele><time>2026-04-09T14:23:25Z</time></trkpt><trkpt lat="44.10113943277791" lon="4.134289563228011"><ele>144.0</ele><time>2026-04-09T14:23:26Z</time></trkpt><trkpt lat="44.10105651193408" lon="4.134467317082443"><ele>144.0</ele><time>2026-04-09T14:23:27Z</time></trkpt><trkpt lat="44.100973861155886" lon="4.134643332530432"><ele>144.0</ele><time>2026-04-09T14:23:28Z</time></trkpt><trkpt lat="44.10089305749376" lon="4.13481678900618"><ele>144.0</ele><time>2026-04-09T14:23:29Z</time></trkpt><trkpt lat="44.10081535189246" lon="4.134986926981904"><ele>144.0</ele><time>2026-04-09T14:23:30Z</time></trkpt><trkpt lat="44.100739479504085" lon="4.135154619335976"><ele>143.75</ele><time>2026-04-09T14:23:31Z</time></trkpt><trkpt lat="44.100663803605215" lon="4.135324672946283"><ele>143.5</ele><time>2026-04-09T14:23:32Z</time></trkpt><trkpt lat="44.10058891212994" lon="4.135490586769318"><ele>143.25</ele><time>2026-04-09T14:23:33Z</time></trkpt><trkpt lat="44.10051394900768" lon="4.135656037696536"><ele>143.0</ele><time>2026-04-09T14:23:34Z</time></trkpt><trkpt lat="44.100437221692445" lon="4.135819693743274"><ele>143.0</ele><time>2026-04-09T14:23:35Z</time></trkpt><trkpt lat="44.10035949745612" lon="4.135981968387592"><ele>143.0</ele><time>2026-04-09T14:23:36Z</time></trkpt><trkpt lat="44.10027947635509" lon="4.136145188602403"><ele>143.0</ele><time>2026-04-09T14:23:37Z</time></trkpt><trkpt lat="44.100200727939225" lon="4.136311002250994"><ele>143.0</ele><time>2026-04-09T14:23:38Z</time></trkpt><trkpt lat="44.100122350095816" lon="4.1364783227473945"><ele>143.25</ele><time>2026-04-09T14:23:39Z</time></trkpt><trkpt lat="44.10004330412286" lon="4.13664804024174"><ele>143.5</ele><time>2026-04-09T14:23:40Z</time></trkpt><trkpt lat="44.09996269183068" lon="4.136819771902082"><ele>143.75</ele><time>2026-04-09T14:23:41Z</time></trkpt><trkpt lat="44.09987932519884" lon="4.136992370715253"><ele>144.0</ele><time>2026-04-09T14:23:42Z</time></trkpt><trkpt lat="44.099797657407606" lon="4.1371692874331485"><ele>144.0</ele><time>2026-04-09T14:23:43Z</time></trkpt><trkpt lat="44.099716418659945" lon="4.137347648371666"><ele>144.0</ele><time>2026-04-09T14:23:44Z</time></trkpt><trkpt lat="44.09963620018986" lon="4.137524670275548"><ele>144.0</ele><time>2026-04-09T14:23:45Z</time></trkpt><trkpt lat="44.09955505146269" lon="4.137702645645634"><ele>145.33333333333334</ele><time>2026-04-09T14:23:46Z</time></trkpt><trkpt lat="44.09947431664294" lon="4.137880525603507"><ele>146.66666666666669</ele><time>2026-04-09T14:23:47Z</time></trkpt><trkpt lat="44.09939059806506" lon="4.138055525893722"><ele>148.0</ele><time>2026-04-09T14:23:48Z</time></trkpt><trkpt lat="44.09930732945188" lon="4.138232288516023"><ele>148.25</ele><time>2026-04-09T14:23:49Z</time></trkpt><trkpt lat="44.09922389890934" lon="4.138406682938164"><ele>148.5</ele><time>2026-04-09T14:23:50Z</time></trkpt><trkpt lat="44.099141396131536" lon="4.138580240070246"><ele>148.75</ele><time>2026-04-09T14:23:51Z</time></trkpt><trkpt lat="44.099060189688174" lon="4.138751531763716"><ele>149.0</ele><time>2026-04-09T14:23:52Z</time></trkpt><trkpt lat="44.098979693646484" lon="4.138921209972307"><ele>149.5</ele><time>2026-04-09T14:23:53Z</time></trkpt><trkpt lat="44.098900219731576" lon="4.13908938598614"><ele>150.0</ele><time>2026-04-09T14:23:54Z</time></trkpt><trkpt lat="44.09882061471585" lon="4.1392552822877375"><ele>150.5</ele><time>2026-04-09T14:23:55Z</time></trkpt><trkpt lat="44.09874321518362" lon="4.139422153595009"><ele>151.0</ele><time>2026-04-09T14:23:56Z</time></trkpt><trkpt lat="44.09866730219024" lon="4.139589568222541"><ele>151.0</ele><time>2026-04-09T14:23:57Z</time></trkpt><trkpt lat="44.09859460815882" lon="4.1397623505442125"><ele>151.0</ele><time>2026-04-09T14:23:58Z</time></trkpt><trkpt lat="44.09852484594121" lon="4.139939329956701"><ele>151.0</ele><time>2026-04-09T14:23:59Z</time></trkpt><trkpt lat="44.09846085728674" lon="4.140121086019986"><ele>151.0</ele><time>2026-04-09T14:24:00Z</time></trkpt><trkpt lat="44.09840406398349" lon="4.140310362345346"><ele>150.66666666666669</ele><time>2026-04-09T14:24:01Z</time></trkpt><trkpt lat="44.09835518487321" lon="4.1405080413731925"><ele>150.33333333333334</ele><time>2026-04-09T14:24:02Z</time></trkpt><trkpt lat="44.09831346360434" lon="4.140712564703762"><ele>150.0</ele><time>2026-04-09T14:24:03Z</time></trkpt><trkpt lat="44.0982754415033" lon="4.140920695371307"><ele>149.66666666666666</ele><time>2026-04-09T14:24:04Z</time></trkpt><trkpt lat="44.09823957572302" lon="4.141133546964404"><ele>149.33333333333331</ele><time>2026-04-09T14:24:05Z</time></trkpt><trkpt lat="44.098207816307905" lon="4.141348984395547"><ele>149.0</ele><time>2026-04-09T14:24:06Z</time></trkpt><trkpt lat="44.09817694534713" lon="4.141565721682477"><ele>148.0</ele><time>2026-04-09T14:24:07Z</time></trkpt><trkpt lat="44.09814519469226" lon="4.141781070561263"><ele>147.0</ele><time>2026-04-09T14:24:08Z</time></trkpt><trkpt lat="44.09811489848795" lon="4.141996063601192"><ele>146.0</ele><time>2026-04-09T14:24:09Z</time></trkpt><trkpt lat="44.0980842392008" lon="4.142207053855556"><ele>145.66666666666666</ele><time>2026-04-09T14:24:10Z</time></trkpt><trkpt lat="44.09805383254703" lon="4.142413507805836"><ele>145.33333333333334</ele><time>2026-04-09T14:24:11Z</time></trkpt><trkpt lat="44.09802750128682" lon="4.142621420067403"><ele>145.0</ele><time>2026-04-09T14:24:12Z</time></trkpt><trkpt lat="44.09799857354649" lon="4.142828872690543"><ele>145.0</ele><time>2026-04-09T14:24:13Z</time></trkpt><trkpt lat="44.09797014863972" lon="4.143034125310709"><ele>145.0</ele><time>2026-04-09T14:24:14Z</time></trkpt><trkpt lat="44.09794141661514" lon="4.143239601944585"><ele>145.0</ele><time>2026-04-09T14:24:15Z</time></trkpt><trkpt lat="44.097913268534384" lon="4.1434450108885015"><ele>144.25</ele><time>2026-04-09T14:24:16Z</time></trkpt><trkpt lat="44.09788409993743" lon="4.143649841211884"><ele>143.5</ele><time>2026-04-09T14:24:17Z</time></trkpt><trkpt lat="44.0978546331464" lon="4.143853995374878"><ele>142.75</ele><time>2026-04-09T14:24:18Z</time></trkpt><trkpt lat="44.09782518129466" lon="4.144058155428828"><ele>142.0</ele><time>2026-04-09T14:24:19Z</time></trkpt><trkpt lat="44.097794493011655" lon="4.144261205345396"><ele>141.5</ele><time>2026-04-09T14:24:20Z</time></trkpt><trkpt lat="44.09776474017012" lon="4.144463679824485"><ele>141.0</ele><time>2026-04-09T14:24:21Z</time></trkpt><trkpt lat="44.09773581196026" lon="4.144666018534807"><ele>140.5</ele><time>2026-04-09T14:24:22Z</time></trkpt><trkpt lat="44.09770718180543" lon="4.14486536499773"><ele>140.0</ele><time>2026-04-09T14:24:23Z</time></trkpt><trkpt lat="44.0976788431268" lon="4.145064027434711"><ele>139.75</ele><time>2026-04-09T14:24:24Z</time></trkpt><trkpt lat="44.09765234938693" lon="4.1452595020899885"><ele>139.5</ele><time>2026-04-09T14:24:25Z</time></trkpt><trkpt lat="44.09762626475416" lon="4.14545496803169"><ele>139.25</ele><time>2026-04-09T14:24:26Z</time></trkpt><trkpt lat="44.0976012518003" lon="4.145648907927182"><ele>139.0</ele><time>2026-04-09T14:24:27Z</time></trkpt><trkpt lat="44.097574365516415" lon="4.145844027780471"><ele>138.75</ele><time>2026-04-09T14:24:28Z</time></trkpt><trkpt lat="44.097547330077944" lon="4.146037033077411"><ele>138.5</ele><time>2026-04-09T14:24:29Z</time></trkpt><trkpt lat="44.09751972636136" lon="4.146229244200277"><ele>138.25</ele><time>2026-04-09T14:24:30Z</time></trkpt><trkpt lat="44.097492824580264" lon="4.1464174154574795"><ele>138.0</ele><time>2026-04-09T14:24:31Z</time></trkpt><trkpt lat="44.097464807931715" lon="4.146603182033657"><ele>138.0</ele><time>2026-04-09T14:24:32Z</time></trkpt><trkpt lat="44.09743741162101" lon="4.146785852925847"><ele>138.0</ele><time>2026-04-09T14:24:33Z</time></trkpt><trkpt lat="44.09741190434384" lon="4.146965445692465"><ele>138.0</ele><time>2026-04-09T14:24:34Z</time></trkpt><trkpt lat="44.09738625225245" lon="4.147143380258684"><ele>138.0</ele><time>2026-04-09T14:24:35Z</time></trkpt><trkpt lat="44.09736257441406" lon="4.147321098443367"><ele>138.5</ele><time>2026-04-09T14:24:36Z</time></trkpt><trkpt lat="44.09733917570816" lon="4.147494857702856"><ele>139.0</ele><time>2026-04-09T14:24:37Z</time></trkpt><trkpt lat="44.09731571312129" lon="4.147666285496203"><ele>139.5</ele><time>2026-04-09T14:24:38Z</time></trkpt><trkpt lat="44.09729245841478" lon="4.147835295068469"><ele>140.0</ele><time>2026-04-09T14:24:39Z</time></trkpt><trkpt lat="44.09727051448152" lon="4.148003952538793"><ele>140.0</ele><time>2026-04-09T14:24:40Z</time></trkpt><trkpt lat="44.09724658437662" lon="4.1481700165192406"><ele>140.0</ele><time>2026-04-09T14:24:41Z</time></trkpt><trkpt lat="44.09722455225957" lon="4.148334372929654"><ele>140.0</ele><time>2026-04-09T14:24:42Z</time></trkpt><trkpt lat="44.097203117932516" lon="4.148496160999645"><ele>140.0</ele><time>2026-04-09T14:24:43Z</time></trkpt><trkpt lat="44.09718108731177" lon="4.148655970627385"><ele>140.0</ele><time>2026-04-09T14:24:44Z</time></trkpt><trkpt lat="44.09715807511781" lon="4.148813931436356"><ele>140.0</ele><time>2026-04-09T14:24:45Z</time></trkpt><trkpt lat="44.09713502018106" lon="4.148972736934076"><ele>140.0</ele><time>2026-04-09T14:24:46Z</time></trkpt><trkpt lat="44.09711078929652" lon="4.14912905532887"><ele>140.0</ele><time>2026-04-09T14:24:47Z</time></trkpt><trkpt lat="44.097086501115974" lon="4.149286743080118"><ele>140.0</ele><time>2026-04-09T14:24:48Z</time></trkpt><trkpt lat="44.097057215577685" lon="4.149440962110715"><ele>140.0</ele><time>2026-04-09T14:24:49Z</time></trkpt><trkpt lat="44.09702017604426" lon="4.149592353091094"><ele>140.0</ele><time>2026-04-09T14:24:50Z</time></trkpt><trkpt lat="44.09697580632701" lon="4.149738336768925"><ele>140.0</ele><time>2026-04-09T14:24:51Z</time></trkpt><trkpt lat="44.09693218344122" lon="4.149887266726953"><ele>140.5</ele><time>2026-04-09T14:24:52Z</time></trkpt><trkpt lat="44.096888550633174" lon="4.150035810547131"><ele>141.0</ele><time>2026-04-09T14:24:53Z</time></trkpt><trkpt lat="44.0968021715204" lon="4.150319020803835"><ele>141.5</ele><time>2026-04-09T14:24:55Z</time></trkpt><trkpt lat="44.096759915214754" lon="4.150452517115612"><ele>142.0</ele><time>2026-04-09T14:24:56Z</time></trkpt><trkpt lat="44.09670978662518" lon="4.150576845454957"><ele>142.0</ele><time>2026-04-09T14:24:57Z</time></trkpt><trkpt lat="44.09664884533677" lon="4.150690184354921"><ele>142.0</ele><time>2026-04-09T14:24:58Z</time></trkpt><trkpt lat="44.096592501255635" lon="4.150804005915931"><ele>142.0</ele><time>2026-04-09T14:24:59Z</time></trkpt><trkpt lat="44.09655246634782" lon="4.150948084846671"><ele>142.0</ele><time>2026-04-09T14:25:00Z</time></trkpt><trkpt lat="44.096557204259" lon="4.151070572712822"><ele>142.0</ele><time>2026-04-09T14:25:01Z</time></trkpt><trkpt lat="44.09659310796135" lon="4.1512014359934515"><ele>142.0</ele><time>2026-04-09T14:25:02Z</time></trkpt><trkpt lat="44.09664648360052" lon="4.151320056453917"><ele>142.0</ele><time>2026-04-09T14:25:03Z</time></trkpt><trkpt lat="44.09669377972991" lon="4.151438966335175"><ele>142.0</ele><time>2026-04-09T14:25:04Z</time></trkpt><trkpt lat="44.09671080334535" lon="4.1515800530984865"><ele>142.0</ele><time>2026-04-09T14:25:05Z</time></trkpt><trkpt lat="44.09671283996166" lon="4.151725177041245"><ele>142.0</ele><time>2026-04-09T14:25:06Z</time></trkpt><trkpt lat="44.096701995701196" lon="4.151874649042216"><ele>142.25</ele><time>2026-04-09T14:25:07Z</time></trkpt><trkpt lat="44.09667925973467" lon="4.152029867635102"><ele>142.5</ele><time>2026-04-09T14:25:08Z</time></trkpt><trkpt lat="44.09665302004923" lon="4.152191820875039"><ele>142.75</ele><time>2026-04-09T14:25:09Z</time></trkpt><trkpt lat="44.09662829097217" lon="4.1523629411910425"><ele>143.0</ele><time>2026-04-09T14:25:10Z</time></trkpt><trkpt lat="44.09660141478427" lon="4.152541015698879"><ele>141.75</ele><time>2026-04-09T14:25:11Z</time></trkpt><trkpt lat="44.096574491505244" lon="4.152731838479025"><ele>140.5</ele><time>2026-04-09T14:25:12Z</time></trkpt><trkpt lat="44.09654655816987" lon="4.152927256045494"><ele>139.25</ele><time>2026-04-09T14:25:13Z</time></trkpt><trkpt lat="44.096516879213276" lon="4.1531258531161415"><ele>138.0</ele><time>2026-04-09T14:25:14Z</time></trkpt><trkpt lat="44.09648969770455" lon="4.15332631606945"><ele>137.0</ele><time>2026-04-09T14:25:15Z</time></trkpt><trkpt lat="44.09646222741473" lon="4.153530294029029"><ele>136.0</ele><time>2026-04-09T14:25:16Z</time></trkpt><trkpt lat="44.09643242131103" lon="4.153735226396535"><ele>135.0</ele><time>2026-04-09T14:25:17Z</time></trkpt><trkpt lat="44.09640325366353" lon="4.1539432958455675"><ele>135.0</ele><time>2026-04-09T14:25:18Z</time></trkpt><trkpt lat="44.096378855635464" lon="4.154148922794064"><ele>135.0</ele><time>2026-04-09T14:25:19Z</time></trkpt><trkpt lat="44.096356059980685" lon="4.154358063714375"><ele>135.0</ele><time>2026-04-09T14:25:20Z</time></trkpt><trkpt lat="44.096342773273555" lon="4.154569810383139"><ele>135.0</ele><time>2026-04-09T14:25:21Z</time></trkpt><trkpt lat="44.09634171602201" lon="4.15478180352702"><ele>135.0</ele><time>2026-04-09T14:25:22Z</time></trkpt><trkpt lat="44.09634614478366" lon="4.154997161153113"><ele>135.0</ele><time>2026-04-09T14:25:23Z</time></trkpt><trkpt lat="44.09636142550463" lon="4.155211907061319"><ele>134.66666666666666</ele><time>2026-04-09T14:25:24Z</time></trkpt><trkpt lat="44.09637533342227" lon="4.155428040916314"><ele>134.33333333333331</ele><time>2026-04-09T14:25:25Z</time></trkpt><trkpt lat="44.09639632211928" lon="4.1556413631844915"><ele>134.0</ele><time>2026-04-09T14:25:26Z</time></trkpt><trkpt lat="44.09641619819093" lon="4.155853741967993"><ele>133.33333333333331</ele><time>2026-04-09T14:25:27Z</time></trkpt><trkpt lat="44.09643407985169" lon="4.156062612851201"><ele>132.66666666666666</ele><time>2026-04-09T14:25:28Z</time></trkpt><trkpt lat="44.09644924864082" lon="4.156271396040425"><ele>132.0</ele><time>2026-04-09T14:25:29Z</time></trkpt><trkpt lat="44.0964633866237" lon="4.156483130610352"><ele>131.66666666666666</ele><time>2026-04-09T14:25:30Z</time></trkpt><trkpt lat="44.09646650956175" lon="4.156694665409037"><ele>131.33333333333331</ele><time>2026-04-09T14:25:31Z</time></trkpt><trkpt lat="44.09646006722627" lon="4.156903765292752"><ele>131.0</ele><time>2026-04-09T14:25:32Z</time></trkpt><trkpt lat="44.09643511406874" lon="4.157109598765729"><ele>131.0</ele><time>2026-04-09T14:25:33Z</time></trkpt><trkpt lat="44.096399272981266" lon="4.157309696975666"><ele>131.0</ele><time>2026-04-09T14:25:34Z</time></trkpt><trkpt lat="44.09634665874395" lon="4.157499483285533"><ele>131.0</ele><time>2026-04-09T14:25:35Z</time></trkpt><trkpt lat="44.09628161580767" lon="4.157677170969578"><ele>131.0</ele><time>2026-04-09T14:25:36Z</time></trkpt><trkpt lat="44.096208691293704" lon="4.157850055412782"><ele>131.0</ele><time>2026-04-09T14:25:37Z</time></trkpt><trkpt lat="44.09612356077357" lon="4.158011640909802"><ele>131.0</ele><time>2026-04-09T14:25:38Z</time></trkpt><trkpt lat="44.096031412541286" lon="4.158165493864411"><ele>131.0</ele><time>2026-04-09T14:25:39Z</time></trkpt><trkpt lat="44.095940178615365" lon="4.158314251156766"><ele>131.0</ele><time>2026-04-09T14:25:40Z</time></trkpt><trkpt lat="44.095846287342475" lon="4.1584643685934"><ele>131.0</ele><time>2026-04-09T14:25:41Z</time></trkpt><trkpt lat="44.09574788994619" lon="4.1586190325309085"><ele>131.0</ele><time>2026-04-09T14:25:42Z</time></trkpt><trkpt lat="44.09564949569189" lon="4.158777833774912"><ele>131.0</ele><time>2026-04-09T14:25:43Z</time></trkpt><trkpt lat="44.09554649333129" lon="4.158940716220397"><ele>132.0</ele><time>2026-04-09T14:25:44Z</time></trkpt><trkpt lat="44.09544158309242" lon="4.159107451751407"><ele>133.0</ele><time>2026-04-09T14:25:45Z</time></trkpt><trkpt lat="44.09533395573335" lon="4.159276198602724"><ele>134.0</ele><time>2026-04-09T14:25:46Z</time></trkpt><trkpt lat="44.09522453579678" lon="4.159450856937975"><ele>134.0</ele><time>2026-04-09T14:25:47Z</time></trkpt><trkpt lat="44.09511308914135" lon="4.159626418621466"><ele>134.0</ele><time>2026-04-09T14:25:48Z</time></trkpt><trkpt lat="44.09500148528357" lon="4.1598004738617"><ele>134.0</ele><time>2026-04-09T14:25:49Z</time></trkpt><trkpt lat="44.09477818816718" lon="4.160145923504976"><ele>133.0</ele><time>2026-04-09T14:25:51Z</time></trkpt><trkpt lat="44.09466801839727" lon="4.160319004913085"><ele>132.0</ele><time>2026-04-09T14:25:52Z</time></trkpt><trkpt lat="44.09455895965634" lon="4.160492667380857"><ele>131.0</ele><time>2026-04-09T14:25:53Z</time></trkpt><trkpt lat="44.09444823190609" lon="4.160668734246701"><ele>131.66666666666666</ele><time>2026-04-09T14:25:54Z</time></trkpt><trkpt lat="44.094335194046245" lon="4.16084796189258"><ele>132.33333333333334</ele><time>2026-04-09T14:25:55Z</time></trkpt><trkpt lat="44.09422275105805" lon="4.161032162721028"><ele>133.0</ele><time>2026-04-09T14:25:56Z</time></trkpt><trkpt lat="44.09410988041836" lon="4.161220053017829"><ele>132.66666666666669</ele><time>2026-04-09T14:25:57Z</time></trkpt><trkpt lat="44.09399848123449" lon="4.161410711565445"><ele>132.33333333333334</ele><time>2026-04-09T14:25:58Z</time></trkpt><trkpt lat="44.093892309569405" lon="4.161611472270643"><ele>132.0</ele><time>2026-04-09T14:25:59Z</time></trkpt><trkpt lat="44.09379018500201" lon="4.161818526224538"><ele>132.0</ele><time>2026-04-09T14:26:00Z</time></trkpt><trkpt lat="44.09369621657092" lon="4.1620346069121945"><ele>132.0</ele><time>2026-04-09T14:26:01Z</time></trkpt><trkpt lat="44.093607310235825" lon="4.162257134670443"><ele>132.0</ele><time>2026-04-09T14:26:02Z</time></trkpt><trkpt lat="44.09352437752357" lon="4.162487153959004"><ele>133.0</ele><time>2026-04-09T14:26:03Z</time></trkpt><trkpt lat="44.09344675436933" lon="4.162723938671369"><ele>134.0</ele><time>2026-04-09T14:26:04Z</time></trkpt><trkpt lat="44.09337799378805" lon="4.162965850907589"><ele>135.0</ele><time>2026-04-09T14:26:05Z</time></trkpt><trkpt lat="44.09331648824409" lon="4.163212200412332"><ele>135.0</ele><time>2026-04-09T14:26:06Z</time></trkpt><trkpt lat="44.09326740134904" lon="4.163460053647741"><ele>135.0</ele><time>2026-04-09T14:26:07Z</time></trkpt><trkpt lat="44.09322407581034" lon="4.163708691759602"><ele>135.0</ele><time>2026-04-09T14:26:08Z</time></trkpt><trkpt lat="44.0931812946563" lon="4.1639571147332335"><ele>137.33333333333334</ele><time>2026-04-09T14:26:09Z</time></trkpt><trkpt lat="44.093140909210625" lon="4.16420647547377"><ele>139.66666666666669</ele><time>2026-04-09T14:26:10Z</time></trkpt><trkpt lat="44.0930994397387" lon="4.1644538041279"><ele>142.0</ele><time>2026-04-09T14:26:11Z</time></trkpt><trkpt lat="44.09305833080047" lon="4.164701816460522"><ele>145.0</ele><time>2026-04-09T14:26:12Z</time></trkpt><trkpt lat="44.09301747601248" lon="4.164947585957953"><ele>148.0</ele><time>2026-04-09T14:26:13Z</time></trkpt><trkpt lat="44.09297705014371" lon="4.165194848654735"><ele>151.0</ele><time>2026-04-09T14:26:14Z</time></trkpt><trkpt lat="44.09293524664825" lon="4.1654404039315445"><ele>151.0</ele><time>2026-04-09T14:26:15Z</time></trkpt><trkpt lat="44.09289227830025" lon="4.165688192088046"><ele>151.0</ele><time>2026-04-09T14:26:16Z</time></trkpt><trkpt lat="44.092849608538785" lon="4.165938793353142"><ele>151.0</ele><time>2026-04-09T14:26:17Z</time></trkpt><trkpt lat="44.092806946567" lon="4.166191409741164"><ele>152.66666666666669</ele><time>2026-04-09T14:26:18Z</time></trkpt><trkpt lat="44.092763673966246" lon="4.166447251623305"><ele>154.33333333333334</ele><time>2026-04-09T14:26:19Z</time></trkpt><trkpt lat="44.09271896903368" lon="4.16670745795561"><ele>156.0</ele><time>2026-04-09T14:26:20Z</time></trkpt><trkpt lat="44.092677319932434" lon="4.1669768882631555"><ele>157.0</ele><time>2026-04-09T14:26:21Z</time></trkpt><trkpt lat="44.0926333204127" lon="4.167253579998454"><ele>158.0</ele><time>2026-04-09T14:26:22Z</time></trkpt><trkpt lat="44.0925910389783" lon="4.167537366535551"><ele>159.0</ele><time>2026-04-09T14:26:23Z</time></trkpt><trkpt lat="44.092550344367176" lon="4.167826270455929"><ele>161.0</ele><time>2026-04-09T14:26:24Z</time></trkpt><trkpt lat="44.09251146341734" lon="4.168123143106797"><ele>163.0</ele><time>2026-04-09T14:26:25Z</time></trkpt><trkpt lat="44.09247428574488" lon="4.168419920024472"><ele>165.0</ele><time>2026-04-09T14:26:26Z</time></trkpt><trkpt lat="44.09243940871089" lon="4.168719827862893"><ele>165.0</ele><time>2026-04-09T14:26:27Z</time></trkpt><trkpt lat="44.09240791815808" lon="4.169022679936467"><ele>165.0</ele><time>2026-04-09T14:26:28Z</time></trkpt><trkpt lat="44.092377814519494" lon="4.169328249513297"><ele>165.0</ele><time>2026-04-09T14:26:29Z</time></trkpt><trkpt lat="44.0923481093328" lon="4.169638129335807"><ele>166.66666666666666</ele><time>2026-04-09T14:26:30Z</time></trkpt><trkpt lat="44.09232193555055" lon="4.169947768431857"><ele>168.33333333333331</ele><time>2026-04-09T14:26:31Z</time></trkpt><trkpt lat="44.092296963901354" lon="4.1702577714064235"><ele>170.0</ele><time>2026-04-09T14:26:32Z</time></trkpt><trkpt lat="44.09227475296396" lon="4.170569372295616"><ele>171.0</ele><time>2026-04-09T14:26:33Z</time></trkpt><trkpt lat="44.0922576804187" lon="4.170881160438136"><ele>172.0</ele><time>2026-04-09T14:26:34Z</time></trkpt><trkpt lat="44.09224577734087" lon="4.171192578968006"><ele>173.0</ele><time>2026-04-09T14:26:35Z</time></trkpt><trkpt lat="44.0922332296941" lon="4.171504256909015"><ele>173.0</ele><time>2026-04-09T14:26:36Z</time></trkpt><trkpt lat="44.09222110900127" lon="4.171804175566267"><ele>173.0</ele><time>2026-04-09T14:26:37Z</time></trkpt><trkpt lat="44.09221275361399" lon="4.172104975044075"><ele>173.0</ele><time>2026-04-09T14:26:38Z</time></trkpt><trkpt lat="44.09220789866338" lon="4.172405475234593"><ele>172.66666666666666</ele><time>2026-04-09T14:26:39Z</time></trkpt><trkpt lat="44.09220292786672" lon="4.172704030628471"><ele>172.33333333333334</ele><time>2026-04-09T14:26:40Z</time></trkpt><trkpt lat="44.0921989523602" lon="4.1730032220151925"><ele>172.0</ele><time>2026-04-09T14:26:41Z</time></trkpt><trkpt lat="44.092199873934334" lon="4.173303723737524"><ele>173.0</ele><time>2026-04-09T14:26:42Z</time></trkpt><trkpt lat="44.09220741359865" lon="4.1736023319725435"><ele>174.0</ele><time>2026-04-09T14:26:43Z</time></trkpt><trkpt lat="44.09222423470816" lon="4.173895148112556"><ele>175.0</ele><time>2026-04-09T14:26:44Z</time></trkpt><trkpt lat="44.092247188717025" lon="4.174188306357226"><ele>177.33333333333334</ele><time>2026-04-09T14:26:45Z</time></trkpt><trkpt lat="44.09227466341607" lon="4.174478291423585"><ele>179.66666666666666</ele><time>2026-04-09T14:26:46Z</time></trkpt><trkpt lat="44.09230717306608" lon="4.174768765405956"><ele>182.0</ele><time>2026-04-09T14:26:47Z</time></trkpt><trkpt lat="44.092344859568215" lon="4.175059695000256"><ele>183.66666666666666</ele><time>2026-04-09T14:26:48Z</time></trkpt><trkpt lat="44.0923848506902" lon="4.175350025444211"><ele>185.33333333333334</ele><time>2026-04-09T14:26:49Z</time></trkpt><trkpt lat="44.0924267931366" lon="4.175640257127329"><ele>187.0</ele><time>2026-04-09T14:26:50Z</time></trkpt><trkpt lat="44.09246740908615" lon="4.175922777600434"><ele>187.33333333333334</ele><time>2026-04-09T14:26:51Z</time></trkpt><trkpt lat="44.092505575834195" lon="4.176199934771956"><ele>187.66666666666666</ele><time>2026-04-09T14:26:52Z</time></trkpt><trkpt lat="44.092543406247536" lon="4.176475213804861"><ele>188.0</ele><time>2026-04-09T14:26:53Z</time></trkpt><trkpt lat="44.09258057848391" lon="4.17674898805144"><ele>186.33333333333331</ele><time>2026-04-09T14:26:54Z</time></trkpt><trkpt lat="44.092618660632255" lon="4.177023816325322"><ele>184.66666666666666</ele><time>2026-04-09T14:26:55Z</time></trkpt><trkpt lat="44.0926583872036" lon="4.1772963815476505"><ele>183.0</ele><time>2026-04-09T14:26:56Z</time></trkpt><trkpt lat="44.09269441425182" lon="4.177570409368354"><ele>182.0</ele><time>2026-04-09T14:26:57Z</time></trkpt><trkpt lat="44.092730089042675" lon="4.177841207840401"><ele>181.0</ele><time>2026-04-09T14:26:58Z</time></trkpt><trkpt lat="44.0927671382443" lon="4.1781075471414475"><ele>180.0</ele><time>2026-04-09T14:26:59Z</time></trkpt><trkpt lat="44.09280508120664" lon="4.178369913258267"><ele>180.0</ele><time>2026-04-09T14:27:00Z</time></trkpt><trkpt lat="44.09284208841635" lon="4.178626823665922"><ele>180.0</ele><time>2026-04-09T14:27:01Z</time></trkpt><trkpt lat="44.09287817213242" lon="4.178880092060977"><ele>180.0</ele><time>2026-04-09T14:27:02Z</time></trkpt><trkpt lat="44.09291216593432" lon="4.179131184124046"><ele>181.0</ele><time>2026-04-09T14:27:03Z</time></trkpt><trkpt lat="44.09294294132268" lon="4.179379235375767"><ele>182.0</ele><time>2026-04-09T14:27:04Z</time></trkpt><trkpt lat="44.092971055958614" lon="4.17962565405455"><ele>183.0</ele><time>2026-04-09T14:27:05Z</time></trkpt><trkpt lat="44.092996766373474" lon="4.179869056673674"><ele>184.33333333333334</ele><time>2026-04-09T14:27:06Z</time></trkpt><trkpt lat="44.09302239189298" lon="4.180107519442672"><ele>185.66666666666669</ele><time>2026-04-09T14:27:07Z</time></trkpt><trkpt lat="44.093050086314044" lon="4.180344238380515"><ele>187.0</ele><time>2026-04-09T14:27:08Z</time></trkpt><trkpt lat="44.09308013989263" lon="4.180571865485741"><ele>189.33333333333334</ele><time>2026-04-09T14:27:09Z</time></trkpt><trkpt lat="44.0931088641315" lon="4.180796610301194"><ele>191.66666666666669</ele><time>2026-04-09T14:27:10Z</time></trkpt><trkpt lat="44.09313552499242" lon="4.181012436272565"><ele>194.0</ele><time>2026-04-09T14:27:11Z</time></trkpt><trkpt lat="44.09315875818413" lon="4.181226242033798"><ele>194.0</ele><time>2026-04-09T14:27:12Z</time></trkpt><trkpt lat="44.0931683748453" lon="4.1814409787195865"><ele>194.0</ele><time>2026-04-09T14:27:13Z</time></trkpt><trkpt lat="44.09315859072836" lon="4.181656114354334"><ele>194.0</ele><time>2026-04-09T14:27:14Z</time></trkpt><trkpt lat="44.093126701713054" lon="4.18186821360868"><ele>193.0</ele><time>2026-04-09T14:27:15Z</time></trkpt><trkpt lat="44.09307856394333" lon="4.182076344590892"><ele>192.0</ele><time>2026-04-09T14:27:16Z</time></trkpt><trkpt lat="44.093015471279585" lon="4.1822808523013695"><ele>191.0</ele><time>2026-04-09T14:27:17Z</time></trkpt><trkpt lat="44.09293779324463" lon="4.182478527454496"><ele>191.0</ele><time>2026-04-09T14:27:18Z</time></trkpt><trkpt lat="44.09284747082959" lon="4.182670766291164"><ele>191.0</ele><time>2026-04-09T14:27:19Z</time></trkpt><trkpt lat="44.092755418309515" lon="4.182860029330974"><ele>191.0</ele><time>2026-04-09T14:27:20Z</time></trkpt><trkpt lat="44.092663603155714" lon="4.183044558703711"><ele>187.66666666666666</ele><time>2026-04-09T14:27:21Z</time></trkpt><trkpt lat="44.09257448114063" lon="4.18322815591936"><ele>184.33333333333334</ele><time>2026-04-09T14:27:22Z</time></trkpt><trkpt lat="44.09248836235777" lon="4.1834068418822055"><ele>181.0</ele><time>2026-04-09T14:27:23Z</time></trkpt><trkpt lat="44.092410219974106" lon="4.18357929753361"><ele>179.66666666666669</ele><time>2026-04-09T14:27:24Z</time></trkpt><trkpt lat="44.09232923431614" lon="4.18375622367617"><ele>178.33333333333334</ele><time>2026-04-09T14:27:25Z</time></trkpt><trkpt lat="44.092246803931204" lon="4.183936981457256"><ele>177.0</ele><time>2026-04-09T14:27:26Z</time></trkpt><trkpt lat="44.092160252061575" lon="4.184121669894693"><ele>174.33333333333334</ele><time>2026-04-09T14:27:27Z</time></trkpt><trkpt lat="44.092073409922214" lon="4.184311578960377"><ele>171.66666666666669</ele><time>2026-04-09T14:27:28Z</time></trkpt><trkpt lat="44.09198775570223" lon="4.1845099072694145"><ele>169.0</ele><time>2026-04-09T14:27:29Z</time></trkpt><trkpt lat="44.09190668767434" lon="4.1847193133925"><ele>169.0</ele><time>2026-04-09T14:27:30Z</time></trkpt><trkpt lat="44.09182223020165" lon="4.184941873127863"><ele>169.0</ele><time>2026-04-09T14:27:31Z</time></trkpt><trkpt lat="44.091735345277" lon="4.18516832335012"><ele>169.0</ele><time>2026-04-09T14:27:32Z</time></trkpt><trkpt lat="44.091646410712144" lon="4.185399032591872"><ele>168.66666666666669</ele><time>2026-04-09T14:27:33Z</time></trkpt><trkpt lat="44.091557152582844" lon="4.185628584421434"><ele>168.33333333333334</ele><time>2026-04-09T14:27:34Z</time></trkpt><trkpt lat="44.091470223069855" lon="4.185853093378381"><ele>168.0</ele><time>2026-04-09T14:27:35Z</time></trkpt><trkpt lat="44.09138582479152" lon="4.186072641983454"><ele>168.0</ele><time>2026-04-09T14:27:36Z</time></trkpt><trkpt lat="44.091302510182075" lon="4.186288291740443"><ele>168.0</ele><time>2026-04-09T14:27:37Z</time></trkpt><trkpt lat="44.09122110470274" lon="4.186499782589777"><ele>168.0</ele><time>2026-04-09T14:27:38Z</time></trkpt><trkpt lat="44.09113917884309" lon="4.1867111840388995"><ele>168.66666666666666</ele><time>2026-04-09T14:27:39Z</time></trkpt><trkpt lat="44.09105495229756" lon="4.1869232082045515"><ele>169.33333333333331</ele><time>2026-04-09T14:27:40Z</time></trkpt><trkpt lat="44.090966985858756" lon="4.187138897148464"><ele>170.0</ele><time>2026-04-09T14:27:41Z</time></trkpt><trkpt lat="44.09087941651308" lon="4.187354209239409"><ele>171.33333333333331</ele><time>2026-04-09T14:27:42Z</time></trkpt><trkpt lat="44.090791176078945" lon="4.187566444058817"><ele>172.66666666666666</ele><time>2026-04-09T14:27:43Z</time></trkpt><trkpt lat="44.090700866444394" lon="4.187776253490677"><ele>174.0</ele><time>2026-04-09T14:27:44Z</time></trkpt><trkpt lat="44.09060916744671" lon="4.187983800978477"><ele>177.33333333333334</ele><time>2026-04-09T14:27:45Z</time></trkpt><trkpt lat="44.09051522272128" lon="4.188188494038652"><ele>180.66666666666669</ele><time>2026-04-09T14:27:46Z</time></trkpt><trkpt lat="44.09041848355133" lon="4.188393151937158"><ele>184.0</ele><time>2026-04-09T14:27:47Z</time></trkpt><trkpt lat="44.090317492891025" lon="4.188593794876662"><ele>184.0</ele><time>2026-04-09T14:27:48Z</time></trkpt><trkpt lat="44.090209699522234" lon="4.1887889209500875"><ele>184.0</ele><time>2026-04-09T14:27:49Z</time></trkpt><trkpt lat="44.090100999855686" lon="4.188981457869056"><ele>184.0</ele><time>2026-04-09T14:27:50Z</time></trkpt><trkpt lat="44.08998702280583" lon="4.189170936774538"><ele>184.0</ele><time>2026-04-09T14:27:51Z</time></trkpt><trkpt lat="44.0898697479068" lon="4.189360520326959"><ele>184.0</ele><time>2026-04-09T14:27:52Z</time></trkpt><trkpt lat="44.08975069269918" lon="4.1895576591077575"><ele>184.0</ele><time>2026-04-09T14:27:53Z</time></trkpt><trkpt lat="44.08963087499164" lon="4.189757307625252"><ele>181.0</ele><time>2026-04-09T14:27:54Z</time></trkpt><trkpt lat="44.08951266001308" lon="4.18995503311338"><ele>178.0</ele><time>2026-04-09T14:27:55Z</time></trkpt><trkpt lat="44.08939571340046" lon="4.190150589169015"><ele>175.0</ele><time>2026-04-09T14:27:56Z</time></trkpt><trkpt lat="44.08927808299597" lon="4.1903473284443935"><ele>175.0</ele><time>2026-04-09T14:27:57Z</time></trkpt><trkpt lat="44.089159457379175" lon="4.190544971181251"><ele>175.0</ele><time>2026-04-09T14:27:58Z</time></trkpt><trkpt lat="44.08904102943843" lon="4.190744129571823"><ele>175.0</ele><time>2026-04-09T14:27:59Z</time></trkpt><trkpt lat="44.08892043466288" lon="4.190943032611295"><ele>172.66666666666669</ele><time>2026-04-09T14:28:00Z</time></trkpt><trkpt lat="44.088799371538" lon="4.191142695493639"><ele>170.33333333333334</ele><time>2026-04-09T14:28:01Z</time></trkpt><trkpt lat="44.08867873602324" lon="4.191342849097945"><ele>168.0</ele><time>2026-04-09T14:28:02Z</time></trkpt><trkpt lat="44.08855897676825" lon="4.191543595595995"><ele>168.0</ele><time>2026-04-09T14:28:03Z</time></trkpt><trkpt lat="44.08843934530326" lon="4.1917455030021245"><ele>168.0</ele><time>2026-04-09T14:28:04Z</time></trkpt><trkpt lat="44.0883176950279" lon="4.191950912577519"><ele>168.0</ele><time>2026-04-09T14:28:05Z</time></trkpt><trkpt lat="44.088192903299536" lon="4.192157366906598"><ele>167.0</ele><time>2026-04-09T14:28:06Z</time></trkpt><trkpt lat="44.088065044855924" lon="4.192365710303555"><ele>166.0</ele><time>2026-04-09T14:28:07Z</time></trkpt><trkpt lat="44.08793571709106" lon="4.1925735055681415"><ele>165.0</ele><time>2026-04-09T14:28:08Z</time></trkpt><trkpt lat="44.087805017232924" lon="4.192778536238403"><ele>165.0</ele><time>2026-04-09T14:28:09Z</time></trkpt><trkpt lat="44.08767284170143" lon="4.19298198233168"><ele>165.0</ele><time>2026-04-09T14:28:10Z</time></trkpt><trkpt lat="44.08753929243783" lon="4.1931826040128195"><ele>165.0</ele><time>2026-04-09T14:28:11Z</time></trkpt><trkpt lat="44.08740264005877" lon="4.193382366003651"><ele>169.0</ele><time>2026-04-09T14:28:12Z</time></trkpt><trkpt lat="44.08726194433205" lon="4.193579234406093"><ele>173.0</ele><time>2026-04-09T14:28:13Z</time></trkpt><trkpt lat="44.08711794880592" lon="4.193775019427717"><ele>177.0</ele><time>2026-04-09T14:28:14Z</time></trkpt><trkpt lat="44.08697224304196" lon="4.193965823649219"><ele>175.0</ele><time>2026-04-09T14:28:15Z</time></trkpt><trkpt lat="44.086823152220596" lon="4.194153089278222"><ele>173.0</ele><time>2026-04-09T14:28:16Z</time></trkpt><trkpt lat="44.08667285273655" lon="4.194336991014443"><ele>171.0</ele><time>2026-04-09T14:28:17Z</time></trkpt><trkpt lat="44.086522688048134" lon="4.194513828700828"><ele>171.0</ele><time>2026-04-09T14:28:18Z</time></trkpt><trkpt lat="44.086369231509764" lon="4.194684675907866"><ele>171.0</ele><time>2026-04-09T14:28:19Z</time></trkpt><trkpt lat="44.086215275719205" lon="4.1948507213253245"><ele>171.0</ele><time>2026-04-09T14:28:20Z</time></trkpt><trkpt lat="44.08606279867929" lon="4.195012566877665"><ele>168.0</ele><time>2026-04-09T14:28:21Z</time></trkpt><trkpt lat="44.08590652365045" lon="4.195166815563837"><ele>165.0</ele><time>2026-04-09T14:28:22Z</time></trkpt><trkpt lat="44.08575225722241" lon="4.195316238685656"><ele>162.0</ele><time>2026-04-09T14:28:23Z</time></trkpt><trkpt lat="44.08559699459637" lon="4.195462664763362"><ele>162.0</ele><time>2026-04-09T14:28:24Z</time></trkpt><trkpt lat="44.08543898644956" lon="4.195601253315998"><ele>162.0</ele><time>2026-04-09T14:28:25Z</time></trkpt><trkpt lat="44.085281781921125" lon="4.195736206660971"><ele>162.0</ele><time>2026-04-09T14:28:26Z</time></trkpt><trkpt lat="44.08512503155051" lon="4.195867001430293"><ele>160.33333333333334</ele><time>2026-04-09T14:28:27Z</time></trkpt><trkpt lat="44.08496824909914" lon="4.195994642918458"><ele>158.66666666666669</ele><time>2026-04-09T14:28:28Z</time></trkpt><trkpt lat="44.084808768754364" lon="4.19612187025632"><ele>157.0</ele><time>2026-04-09T14:28:29Z</time></trkpt><trkpt lat="44.08464646397858" lon="4.196246911230555"><ele>157.0</ele><time>2026-04-09T14:28:30Z</time></trkpt><trkpt lat="44.08448052757394" lon="4.196368054385554"><ele>157.0</ele><time>2026-04-09T14:28:31Z</time></trkpt><trkpt lat="44.08431060034275" lon="4.196479648331873"><ele>157.0</ele><time>2026-04-09T14:28:32Z</time></trkpt><trkpt lat="44.084137499122896" lon="4.196584719253331"><ele>155.33333333333334</ele><time>2026-04-09T14:28:33Z</time></trkpt><trkpt lat="44.08396871229485" lon="4.196703061008365"><ele>153.66666666666666</ele><time>2026-04-09T14:28:34Z</time></trkpt><trkpt lat="44.0838019339714" lon="4.1968263246703765"><ele>152.0</ele><time>2026-04-09T14:28:35Z</time></trkpt><trkpt lat="44.08363623829311" lon="4.1969516896682935"><ele>152.0</ele><time>2026-04-09T14:28:36Z</time></trkpt><trkpt lat="44.08346904347501" lon="4.197072436916119"><ele>152.0</ele><time>2026-04-09T14:28:37Z</time></trkpt><trkpt lat="44.083301849597014" lon="4.197192923122085"><ele>152.0</ele><time>2026-04-09T14:28:38Z</time></trkpt><trkpt lat="44.08313492038106" lon="4.197313387448156"><ele>150.0</ele><time>2026-04-09T14:28:39Z</time></trkpt><trkpt lat="44.08296913324485" lon="4.197429902408933"><ele>148.0</ele><time>2026-04-09T14:28:40Z</time></trkpt><trkpt lat="44.08280328139621" lon="4.197549156248204"><ele>146.0</ele><time>2026-04-09T14:28:41Z</time></trkpt><trkpt lat="44.08263847811728" lon="4.1976675891544835"><ele>146.0</ele><time>2026-04-09T14:28:42Z</time></trkpt><trkpt lat="44.08247402461547" lon="4.1977866976962"><ele>146.0</ele><time>2026-04-09T14:28:43Z</time></trkpt><trkpt lat="44.08231188111785" lon="4.197902071036512"><ele>146.0</ele><time>2026-04-09T14:28:44Z</time></trkpt><trkpt lat="44.082150081641" lon="4.1980150834745595"><ele>146.33333333333331</ele><time>2026-04-09T14:28:45Z</time></trkpt><trkpt lat="44.0819887507467" lon="4.198131868899824"><ele>146.66666666666666</ele><time>2026-04-09T14:28:46Z</time></trkpt><trkpt lat="44.0818274002333" lon="4.1982476706152765"><ele>147.0</ele><time>2026-04-09T14:28:47Z</time></trkpt><trkpt lat="44.081667317371135" lon="4.198363861393217"><ele>146.5</ele><time>2026-04-09T14:28:48Z</time></trkpt><trkpt lat="44.08150377098743" lon="4.198479955192722"><ele>146.0</ele><time>2026-04-09T14:28:49Z</time></trkpt><trkpt lat="44.08117606841702" lon="4.198710665352153"><ele>146.0</ele><time>2026-04-09T14:28:51Z</time></trkpt><trkpt lat="44.08101483660934" lon="4.198837156364331"><ele>146.0</ele><time>2026-04-09T14:28:52Z</time></trkpt><trkpt lat="44.080856482814646" lon="4.198977927483535"><ele>146.0</ele><time>2026-04-09T14:28:53Z</time></trkpt><trkpt lat="44.08070583102201" lon="4.199139445871432"><ele>143.66666666666666</ele><time>2026-04-09T14:28:54Z</time></trkpt><trkpt lat="44.08056384791333" lon="4.199322611197219"><ele>141.33333333333334</ele><time>2026-04-09T14:28:55Z</time></trkpt><trkpt lat="44.08043063221007" lon="4.199523223840501"><ele>139.0</ele><time>2026-04-09T14:28:56Z</time></trkpt><trkpt lat="44.080304891042104" lon="4.199735178384157"><ele>139.33333333333334</ele><time>2026-04-09T14:28:57Z</time></trkpt><trkpt lat="44.08018642965842" lon="4.199967221281066"><ele>139.66666666666666</ele><time>2026-04-09T14:28:58Z</time></trkpt><trkpt lat="44.08008071921788" lon="4.200217138748762"><ele>140.0</ele><time>2026-04-09T14:28:59Z</time></trkpt><trkpt lat="44.07998499047757" lon="4.200480892305263"><ele>141.33333333333331</ele><time>2026-04-09T14:29:00Z</time></trkpt><trkpt lat="44.07990326397553" lon="4.200758115923559"><ele>142.66666666666666</ele><time>2026-04-09T14:29:01Z</time></trkpt><trkpt lat="44.0798289578098" lon="4.201042355475567"><ele>144.0</ele><time>2026-04-09T14:29:02Z</time></trkpt><trkpt lat="44.07976672409953" lon="4.201332833191821"><ele>143.66666666666666</ele><time>2026-04-09T14:29:03Z</time></trkpt><trkpt lat="44.07970710486835" lon="4.2016215824479755"><ele>143.33333333333331</ele><time>2026-04-09T14:29:04Z</time></trkpt><trkpt lat="44.07964941457291" lon="4.201905901881395"><ele>143.0</ele><time>2026-04-09T14:29:05Z</time></trkpt><trkpt lat="44.0795935631853" lon="4.202187696517077"><ele>141.66666666666666</ele><time>2026-04-09T14:29:06Z</time></trkpt><trkpt lat="44.07953876630995" lon="4.2024654037340925"><ele>140.33333333333334</ele><time>2026-04-09T14:29:07Z</time></trkpt><trkpt lat="44.07948482582243" lon="4.202739108602539"><ele>139.0</ele><time>2026-04-09T14:29:08Z</time></trkpt><trkpt lat="44.079430418150174" lon="4.2030082906674755"><ele>137.0</ele><time>2026-04-09T14:29:09Z</time></trkpt><trkpt lat="44.07937684497136" lon="4.2032750662426235"><ele>135.0</ele><time>2026-04-09T14:29:10Z</time></trkpt><trkpt lat="44.079322240601996" lon="4.203538249471608"><ele>133.0</ele><time>2026-04-09T14:29:11Z</time></trkpt><trkpt lat="44.07926325841678" lon="4.2038006184683905"><ele>132.66666666666669</ele><time>2026-04-09T14:29:12Z</time></trkpt><trkpt lat="44.07919575635762" lon="4.204055700974142"><ele>132.33333333333334</ele><time>2026-04-09T14:29:13Z</time></trkpt><trkpt lat="44.07911994730422" lon="4.2043077932373585"><ele>132.0</ele><time>2026-04-09T14:29:14Z</time></trkpt><trkpt lat="44.07903110028447" lon="4.204553270933749"><ele>133.0</ele><time>2026-04-09T14:29:15Z</time></trkpt><trkpt lat="44.078925934303925" lon="4.204791394931549"><ele>134.0</ele><time>2026-04-09T14:29:16Z</time></trkpt><trkpt lat="44.0787981701732" lon="4.2050136840657775"><ele>135.0</ele><time>2026-04-09T14:29:17Z</time></trkpt><trkpt lat="44.078652078431936" lon="4.205221295506659"><ele>133.0</ele><time>2026-04-09T14:29:18Z</time></trkpt><trkpt lat="44.078491620317706" lon="4.205410111711677"><ele>131.0</ele><time>2026-04-09T14:29:19Z</time></trkpt><trkpt lat="44.07831917717289" lon="4.205575744614413"><ele>129.0</ele><time>2026-04-09T14:29:20Z</time></trkpt><trkpt lat="44.078143257201134" lon="4.205727276189075"><ele>128.66666666666666</ele><time>2026-04-09T14:29:21Z</time></trkpt><trkpt lat="44.07796364033197" lon="4.205879858667964"><ele>128.33333333333331</ele><time>2026-04-09T14:29:22Z</time></trkpt><trkpt lat="44.0777912109246" lon="4.206044427622906"><ele>128.0</ele><time>2026-04-09T14:29:23Z</time></trkpt><trkpt lat="44.07762788993388" lon="4.206222352305186"><ele>128.0</ele><time>2026-04-09T14:29:24Z</time></trkpt><trkpt lat="44.0774761337635" lon="4.206418857480762"><ele>128.0</ele><time>2026-04-09T14:29:25Z</time></trkpt><trkpt lat="44.077337613627094" lon="4.206631140672332"><ele>128.0</ele><time>2026-04-09T14:29:26Z</time></trkpt><trkpt lat="44.077215733096196" lon="4.206860722735326"><ele>129.0</ele><time>2026-04-09T14:29:27Z</time></trkpt><trkpt lat="44.07711109623949" lon="4.207107954967599"><ele>130.0</ele><time>2026-04-09T14:29:28Z</time></trkpt><trkpt lat="44.077024157394725" lon="4.207362870156267"><ele>131.0</ele><time>2026-04-09T14:29:29Z</time></trkpt><trkpt lat="44.076955535495614" lon="4.207622540521611"><ele>133.0</ele><time>2026-04-09T14:29:30Z</time></trkpt><trkpt lat="44.07690485607391" lon="4.207884564444905"><ele>135.0</ele><time>2026-04-09T14:29:31Z</time></trkpt><trkpt lat="44.07686753439935" lon="4.208152107143634"><ele>137.0</ele><time>2026-04-09T14:29:32Z</time></trkpt><trkpt lat="44.076835443732975" lon="4.208417559866365"><ele>137.0</ele><time>2026-04-09T14:29:33Z</time></trkpt><trkpt lat="44.076801343691145" lon="4.208675569853258"><ele>137.0</ele><time>2026-04-09T14:29:34Z</time></trkpt><trkpt lat="44.0767668651131" lon="4.208932321666257"><ele>137.0</ele><time>2026-04-09T14:29:35Z</time></trkpt><trkpt lat="44.0767301189435" lon="4.209184369677288"><ele>135.33333333333331</ele><time>2026-04-09T14:29:36Z</time></trkpt><trkpt lat="44.07668966853875" lon="4.20943195080098"><ele>133.66666666666666</ele><time>2026-04-09T14:29:37Z</time></trkpt><trkpt lat="44.07664581249356" lon="4.20967510120191"><ele>132.0</ele><time>2026-04-09T14:29:38Z</time></trkpt><trkpt lat="44.07659848789415" lon="4.209914692515303"><ele>131.33333333333334</ele><time>2026-04-09T14:29:39Z</time></trkpt><trkpt lat="44.076549049885045" lon="4.210159018749852"><ele>130.66666666666669</ele><time>2026-04-09T14:29:40Z</time></trkpt><trkpt lat="44.07650288631516" lon="4.210407614098595"><ele>130.0</ele><time>2026-04-09T14:29:41Z</time></trkpt><trkpt lat="44.07645734650822" lon="4.2106601000271615"><ele>128.66666666666669</ele><time>2026-04-09T14:29:42Z</time></trkpt><trkpt lat="44.07641330546148" lon="4.2109153046384415"><ele>127.33333333333334</ele><time>2026-04-09T14:29:43Z</time></trkpt><trkpt lat="44.07637346666598" lon="4.211172260108156"><ele>126.0</ele><time>2026-04-09T14:29:44Z</time></trkpt><trkpt lat="44.07634189190623" lon="4.211433758680135"><ele>125.33333333333334</ele><time>2026-04-09T14:29:45Z</time></trkpt><trkpt lat="44.076322582810675" lon="4.21169973681696"><ele>124.66666666666667</ele><time>2026-04-09T14:29:46Z</time></trkpt><trkpt lat="44.07630789165703" lon="4.211972698532052"><ele>124.0</ele><time>2026-04-09T14:29:47Z</time></trkpt><trkpt lat="44.07629901677456" lon="4.212260705906009"><ele>124.0</ele><time>2026-04-09T14:29:48Z</time></trkpt><trkpt lat="44.076292932116445" lon="4.21256020210184"><ele>124.0</ele><time>2026-04-09T14:29:49Z</time></trkpt><trkpt lat="44.07629596150267" lon="4.212868584702069"><ele>124.0</ele><time>2026-04-09T14:29:50Z</time></trkpt><trkpt lat="44.07629810201808" lon="4.2131670891624715"><ele>124.0</ele><time>2026-04-09T14:29:51Z</time></trkpt><trkpt lat="44.07630135871567" lon="4.213462441221367"><ele>124.0</ele><time>2026-04-09T14:29:52Z</time></trkpt><trkpt lat="44.07630104018862" lon="4.2137508778568105"><ele>124.0</ele><time>2026-04-09T14:29:53Z</time></trkpt><trkpt lat="44.076296301386" lon="4.214035032084436"><ele>124.0</ele><time>2026-04-09T14:29:54Z</time></trkpt><trkpt lat="44.07628449275" lon="4.2143102177464495"><ele>124.0</ele><time>2026-04-09T14:29:55Z</time></trkpt><trkpt lat="44.07626635819306" lon="4.2145791106595105"><ele>124.0</ele><time>2026-04-09T14:29:56Z</time></trkpt><trkpt lat="44.07624685834684" lon="4.214841546631852"><ele>125.33333333333334</ele><time>2026-04-09T14:29:57Z</time></trkpt><trkpt lat="44.07622494831143" lon="4.215103505893289"><ele>126.66666666666666</ele><time>2026-04-09T14:29:58Z</time></trkpt><trkpt lat="44.0761998581533" lon="4.215363427391674"><ele>128.0</ele><time>2026-04-09T14:29:59Z</time></trkpt><trkpt lat="44.076173338808985" lon="4.2156243719131155"><ele>128.66666666666666</ele><time>2026-04-09T14:30:00Z</time></trkpt><trkpt lat="44.07614939284267" lon="4.215884743665735"><ele>129.33333333333334</ele><time>2026-04-09T14:30:01Z</time></trkpt><trkpt lat="44.07612593998892" lon="4.216144204375586"><ele>130.0</ele><time>2026-04-09T14:30:02Z</time></trkpt><trkpt lat="44.07610349866974" lon="4.216402774748678"><ele>130.33333333333334</ele><time>2026-04-09T14:30:03Z</time></trkpt><trkpt lat="44.07607976302559" lon="4.216659581788971"><ele>130.66666666666666</ele><time>2026-04-09T14:30:04Z</time></trkpt><trkpt lat="44.076055641277975" lon="4.216913185044075"><ele>131.0</ele><time>2026-04-09T14:30:05Z</time></trkpt><trkpt lat="44.07603320199058" lon="4.217166421312081"><ele>131.33333333333331</ele><time>2026-04-09T14:30:06Z</time></trkpt><trkpt lat="44.07601025242602" lon="4.217416403142146"><ele>131.66666666666666</ele><time>2026-04-09T14:30:07Z</time></trkpt><trkpt lat="44.0759857369686" lon="4.217671091639257"><ele>132.0</ele><time>2026-04-09T14:30:08Z</time></trkpt><trkpt lat="44.0759607383757" lon="4.217928736839326"><ele>133.0</ele><time>2026-04-09T14:30:09Z</time></trkpt><trkpt lat="44.07593622567347" lon="4.218189941459441"><ele>134.0</ele><time>2026-04-09T14:30:10Z</time></trkpt><trkpt lat="44.07591251377726" lon="4.218438449990584"><ele>135.0</ele><time>2026-04-09T14:30:11Z</time></trkpt><trkpt lat="44.07588813419452" lon="4.218662910140363"><ele>135.0</ele><time>2026-04-09T14:30:12Z</time></trkpt><trkpt lat="44.075867878195076" lon="4.2188650093791065"><ele>135.0</ele><time>2026-04-09T14:30:13Z</time></trkpt><trkpt lat="44.07584493460549" lon="4.219016364597828"><ele>135.0</ele><time>2026-04-09T14:30:14Z</time></trkpt><trkpt lat="44.075813324746186" lon="4.2191583564524775"><ele>135.0</ele><time>2026-04-09T14:30:15Z</time></trkpt><trkpt lat="44.07573033591408" lon="4.219327333730362"><ele>135.2</ele><time>2026-04-09T14:30:16Z</time></trkpt><trkpt lat="44.075675325067245" lon="4.2193779206124855"><ele>135.4</ele><time>2026-04-09T14:30:17Z</time></trkpt><trkpt lat="44.0755791691757" lon="4.219458242938852"><ele>135.6</ele><time>2026-04-09T14:30:18Z</time></trkpt><trkpt lat="44.07546290428897" lon="4.2194882981371595"><ele>135.8</ele><time>2026-04-09T14:30:19Z</time></trkpt><trkpt lat="44.07535190965675" lon="4.219469312795584"><ele>136.0</ele><time>2026-04-09T14:30:20Z</time></trkpt><trkpt lat="44.07523837333132" lon="4.219455216022875"><ele>136.0</ele><time>2026-04-09T14:30:21Z</time></trkpt><trkpt lat="44.075112844765414" lon="4.219436168451312"><ele>136.0</ele><time>2026-04-09T14:30:22Z</time></trkpt><trkpt lat="44.07497895367356" lon="4.2194276079217605"><ele>136.0</ele><time>2026-04-09T14:30:23Z</time></trkpt><trkpt lat="44.07484372053601" lon="4.219430707984004"><ele>136.0</ele><time>2026-04-09T14:30:24Z</time></trkpt><trkpt lat="44.07470660018647" lon="4.219448835510036"><ele>136.0</ele><time>2026-04-09T14:30:25Z</time></trkpt><trkpt lat="44.07456678263988" lon="4.21948822692518"><ele>136.0</ele><time>2026-04-09T14:30:26Z</time></trkpt><trkpt lat="44.07442738052735" lon="4.219550331223191"><ele>136.0</ele><time>2026-04-09T14:30:27Z</time></trkpt><trkpt lat="44.07429074667238" lon="4.219637040025609"><ele>136.0</ele><time>2026-04-09T14:30:28Z</time></trkpt><trkpt lat="44.07415710999625" lon="4.219727425488134"><ele>135.66666666666669</ele><time>2026-04-09T14:30:29Z</time></trkpt><trkpt lat="44.07402774837065" lon="4.21982371208721"><ele>135.33333333333334</ele><time>2026-04-09T14:30:30Z</time></trkpt><trkpt lat="44.073894395667374" lon="4.21992271599259"><ele>135.0</ele><time>2026-04-09T14:30:31Z</time></trkpt><trkpt lat="44.07375821910514" lon="4.220027183218337"><ele>135.0</ele><time>2026-04-09T14:30:32Z</time></trkpt><trkpt lat="44.07361985370713" lon="4.220132691820925"><ele>135.0</ele><time>2026-04-09T14:30:33Z</time></trkpt><trkpt lat="44.07347766283171" lon="4.220240157502393"><ele>135.0</ele><time>2026-04-09T14:30:34Z</time></trkpt><trkpt lat="44.07333898776791" lon="4.220346081126134"><ele>134.66666666666666</ele><time>2026-04-09T14:30:35Z</time></trkpt><trkpt lat="44.073199844162374" lon="4.220456355708933"><ele>134.33333333333331</ele><time>2026-04-09T14:30:36Z</time></trkpt><trkpt lat="44.07306100683017" lon="4.220565423297265"><ele>134.0</ele><time>2026-04-09T14:30:37Z</time></trkpt><trkpt lat="44.07292431498577" lon="4.220687253694908"><ele>134.0</ele><time>2026-04-09T14:30:38Z</time></trkpt><trkpt lat="44.07278792563714" lon="4.220820166750154"><ele>134.0</ele><time>2026-04-09T14:30:39Z</time></trkpt><trkpt lat="44.07265128314819" lon="4.2209619619346945"><ele>134.0</ele><time>2026-04-09T14:30:40Z</time></trkpt><trkpt lat="44.07251541021157" lon="4.22110693754958"><ele>133.0</ele><time>2026-04-09T14:30:41Z</time></trkpt><trkpt lat="44.07237869838614" lon="4.22126048697627"><ele>132.0</ele><time>2026-04-09T14:30:42Z</time></trkpt><trkpt lat="44.072242330613435" lon="4.221416376867319"><ele>131.0</ele><time>2026-04-09T14:30:43Z</time></trkpt><trkpt lat="44.07211002639131" lon="4.221570526934131"><ele>131.0</ele><time>2026-04-09T14:30:44Z</time></trkpt><trkpt lat="44.071979496221" lon="4.221724020044649"><ele>131.0</ele><time>2026-04-09T14:30:45Z</time></trkpt><trkpt lat="44.0718518337863" lon="4.221876987190752"><ele>131.0</ele><time>2026-04-09T14:30:46Z</time></trkpt><trkpt lat="44.07172556681786" lon="4.222026390012113"><ele>130.66666666666666</ele><time>2026-04-09T14:30:47Z</time></trkpt><trkpt lat="44.07159925203566" lon="4.222172741248446"><ele>130.33333333333334</ele><time>2026-04-09T14:30:48Z</time></trkpt><trkpt lat="44.07147581345653" lon="4.22230405324069"><ele>130.0</ele><time>2026-04-09T14:30:49Z</time></trkpt><trkpt lat="44.07135839036212" lon="4.222429839094847"><ele>130.0</ele><time>2026-04-09T14:30:50Z</time></trkpt><trkpt lat="44.071247479529646" lon="4.222547826318286"><ele>130.0</ele><time>2026-04-09T14:30:51Z</time></trkpt><trkpt lat="44.07114474999972" lon="4.222654778825118"><ele>130.0</ele><time>2026-04-09T14:30:52Z</time></trkpt><trkpt lat="44.07105261444816" lon="4.222753754512221"><ele>130.0</ele><time>2026-04-09T14:30:53Z</time></trkpt><trkpt lat="44.07097200025859" lon="4.222842263017534"><ele>130.0</ele><time>2026-04-09T14:30:54Z</time></trkpt><trkpt lat="44.07089688008857" lon="4.222923360723241"><ele>130.0</ele><time>2026-04-09T14:30:55Z</time></trkpt><trkpt lat="44.07081905503435" lon="4.22300260511892"><ele>130.0</ele><time>2026-04-09T14:30:56Z</time></trkpt><trkpt lat="44.070730682093036" lon="4.223052051664938"><ele>130.0</ele><time>2026-04-09T14:30:57Z</time></trkpt><trkpt lat="44.07064727886226" lon="4.223094408407872"><ele>130.0</ele><time>2026-04-09T14:30:58Z</time></trkpt><trkpt lat="44.07057615266504" lon="4.223156177829795"><ele>129.83333333333334</ele><time>2026-04-09T14:30:59Z</time></trkpt><trkpt lat="44.07052880356119" lon="4.2232360464579495"><ele>129.66666666666669</ele><time>2026-04-09T14:31:00Z</time></trkpt><trkpt lat="44.070515467373056" lon="4.223339914459549"><ele>129.5</ele><time>2026-04-09T14:31:01Z</time></trkpt><trkpt lat="44.07051968848547" lon="4.223438783671545"><ele>129.33333333333334</ele><time>2026-04-09T14:31:02Z</time></trkpt><trkpt lat="44.07052057918239" lon="4.2235469000142105"><ele>129.16666666666666</ele><time>2026-04-09T14:31:03Z</time></trkpt><trkpt lat="44.070515129263946" lon="4.223669646227001"><ele>129.0</ele><time>2026-04-09T14:31:04Z</time></trkpt><trkpt lat="44.07049012320789" lon="4.223798023701916"><ele>129.0</ele><time>2026-04-09T14:31:05Z</time></trkpt><trkpt lat="44.070458209303155" lon="4.22392078287435"><ele>129.0</ele><time>2026-04-09T14:31:06Z</time></trkpt><trkpt lat="44.07041986559894" lon="4.224057627572013"><ele>129.0</ele><time>2026-04-09T14:31:07Z</time></trkpt><trkpt lat="44.07037583684532" lon="4.224198256982767"><ele>129.0</ele><time>2026-04-09T14:31:08Z</time></trkpt><trkpt lat="44.070328841441274" lon="4.224334799896305"><ele>129.0</ele><time>2026-04-09T14:31:09Z</time></trkpt><trkpt lat="44.07027760114482" lon="4.224476487205329"><ele>129.0</ele><time>2026-04-09T14:31:10Z</time></trkpt><trkpt lat="44.07022007102521" lon="4.224621598969007"><ele>129.0</ele><time>2026-04-09T14:31:11Z</time></trkpt><trkpt lat="44.070154388863386" lon="4.224767505134871"><ele>129.0</ele><time>2026-04-09T14:31:12Z</time></trkpt><trkpt lat="44.07007317074563" lon="4.224906009649293"><ele>129.0</ele><time>2026-04-09T14:31:13Z</time></trkpt><trkpt lat="44.06997362334872" lon="4.225030263271957"><ele>128.25</ele><time>2026-04-09T14:31:14Z</time></trkpt><trkpt lat="44.06986904869637" lon="4.225154612962198"><ele>127.5</ele><time>2026-04-09T14:31:15Z</time></trkpt><trkpt lat="44.069754959213455" lon="4.225270893752307"><ele>126.75</ele><time>2026-04-09T14:31:16Z</time></trkpt><trkpt lat="44.069639064257444" lon="4.225391322339022"><ele>126.0</ele><time>2026-04-09T14:31:17Z</time></trkpt><trkpt lat="44.06952130575319" lon="4.225517732265991"><ele>124.33333333333334</ele><time>2026-04-09T14:31:18Z</time></trkpt><trkpt lat="44.06940233200445" lon="4.225650254988869"><ele>122.66666666666667</ele><time>2026-04-09T14:31:19Z</time></trkpt><trkpt lat="44.069282505882676" lon="4.225793883806192"><ele>121.0</ele><time>2026-04-09T14:31:20Z</time></trkpt><trkpt lat="44.06916168073546" lon="4.225942089908801"><ele>120.66666666666667</ele><time>2026-04-09T14:31:21Z</time></trkpt><trkpt lat="44.06904348753995" lon="4.226100833873795"><ele>120.33333333333334</ele><time>2026-04-09T14:31:22Z</time></trkpt><trkpt lat="44.06892465652904" lon="4.226262417733123"><ele>120.0</ele><time>2026-04-09T14:31:23Z</time></trkpt><trkpt lat="44.06880468153025" lon="4.226422992452722"><ele>119.66666666666666</ele><time>2026-04-09T14:31:24Z</time></trkpt><trkpt lat="44.06868486155441" lon="4.2265840575743905"><ele>119.33333333333333</ele><time>2026-04-09T14:31:25Z</time></trkpt><trkpt lat="44.06856788895524" lon="4.22674710599523"><ele>119.0</ele><time>2026-04-09T14:31:26Z</time></trkpt><trkpt lat="44.068454586227" lon="4.226909621177355"><ele>119.0</ele><time>2026-04-09T14:31:27Z</time></trkpt><trkpt lat="44.06835667489257" lon="4.22708722612129"><ele>119.0</ele><time>2026-04-09T14:31:28Z</time></trkpt><trkpt lat="44.0682755468671" lon="4.227276805369662"><ele>119.0</ele><time>2026-04-09T14:31:29Z</time></trkpt><trkpt lat="44.06820900239496" lon="4.227470473087155"><ele>119.0</ele><time>2026-04-09T14:31:30Z</time></trkpt><trkpt lat="44.06814951009445" lon="4.227664728278292"><ele>119.0</ele><time>2026-04-09T14:31:31Z</time></trkpt><trkpt lat="44.068091445595634" lon="4.227850211612239"><ele>119.0</ele><time>2026-04-09T14:31:32Z</time></trkpt><trkpt lat="44.06803589996305" lon="4.228034499519921"><ele>119.0</ele><time>2026-04-09T14:31:33Z</time></trkpt><trkpt lat="44.06797969876135" lon="4.228214928722887"><ele>119.0</ele><time>2026-04-09T14:31:34Z</time></trkpt><trkpt lat="44.06792591498869" lon="4.228394183609005"><ele>119.0</ele><time>2026-04-09T14:31:35Z</time></trkpt><trkpt lat="44.06787173964918" lon="4.22857161119702"><ele>119.0</ele><time>2026-04-09T14:31:36Z</time></trkpt><trkpt lat="44.06781845403685" lon="4.228745439803638"><ele>119.0</ele><time>2026-04-09T14:31:37Z</time></trkpt><trkpt lat="44.06776529493838" lon="4.228919726606398"><ele>119.75</ele><time>2026-04-09T14:31:38Z</time></trkpt><trkpt lat="44.06771222076363" lon="4.229093948867448"><ele>120.5</ele><time>2026-04-09T14:31:39Z</time></trkpt><trkpt lat="44.06766128535387" lon="4.229268969616068"><ele>121.25</ele><time>2026-04-09T14:31:40Z</time></trkpt><trkpt lat="44.06761616006882" lon="4.229445962779454"><ele>122.0</ele><time>2026-04-09T14:31:41Z</time></trkpt><trkpt lat="44.067578482717614" lon="4.229627894917212"><ele>122.0</ele><time>2026-04-09T14:31:42Z</time></trkpt><trkpt lat="44.06754808740981" lon="4.229813900003747"><ele>122.0</ele><time>2026-04-09T14:31:43Z</time></trkpt><trkpt lat="44.067519423949264" lon="4.2300016951767585"><ele>122.0</ele><time>2026-04-09T14:31:44Z</time></trkpt><trkpt lat="44.067492727980024" lon="4.230190634813451"><ele>122.0</ele><time>2026-04-09T14:31:45Z</time></trkpt><trkpt lat="44.06746559691033" lon="4.230379465410374"><ele>122.0</ele><time>2026-04-09T14:31:46Z</time></trkpt><trkpt lat="44.0674382410597" lon="4.230569598994438"><ele>122.0</ele><time>2026-04-09T14:31:47Z</time></trkpt><trkpt lat="44.06741119577517" lon="4.230757983136017"><ele>122.0</ele><time>2026-04-09T14:31:48Z</time></trkpt><trkpt lat="44.067384712957654" lon="4.230947283661424"><ele>122.0</ele><time>2026-04-09T14:31:49Z</time></trkpt><trkpt lat="44.06736051161701" lon="4.231136893232574"><ele>122.0</ele><time>2026-04-09T14:31:50Z</time></trkpt><trkpt lat="44.06733405742178" lon="4.231327374814999"><ele>122.0</ele><time>2026-04-09T14:31:51Z</time></trkpt><trkpt lat="44.06730816329752" lon="4.231522576467865"><ele>122.0</ele><time>2026-04-09T14:31:52Z</time></trkpt><trkpt lat="44.067284375224" lon="4.2317200170592315"><ele>122.0</ele><time>2026-04-09T14:31:53Z</time></trkpt><trkpt lat="44.06725901016127" lon="4.231922747585283"><ele>122.0</ele><time>2026-04-09T14:31:54Z</time></trkpt><trkpt lat="44.06723136249473" lon="4.232128182327548"><ele>122.0</ele><time>2026-04-09T14:31:55Z</time></trkpt><trkpt lat="44.06720454436555" lon="4.232342167279903"><ele>122.0</ele><time>2026-04-09T14:31:56Z</time></trkpt><trkpt lat="44.0671765970439" lon="4.23256067109705"><ele>123.0</ele><time>2026-04-09T14:31:57Z</time></trkpt><trkpt lat="44.067115823249225" lon="4.233014879779248"><ele>124.0</ele><time>2026-04-09T14:31:59Z</time></trkpt><trkpt lat="44.06708176263424" lon="4.233251705081623"><ele>124.0</ele><time>2026-04-09T14:32:00Z</time></trkpt><trkpt lat="44.067048205970586" lon="4.233494613261312"><ele>124.0</ele><time>2026-04-09T14:32:01Z</time></trkpt><trkpt lat="44.06701363596497" lon="4.233742416683435"><ele>124.0</ele><time>2026-04-09T14:32:02Z</time></trkpt><trkpt lat="44.06697867767228" lon="4.233993749736958"><ele>124.66666666666667</ele><time>2026-04-09T14:32:03Z</time></trkpt><trkpt lat="44.066942616507006" lon="4.23424251389842"><ele>125.33333333333334</ele><time>2026-04-09T14:32:04Z</time></trkpt><trkpt lat="44.06690809073959" lon="4.234495230722284"><ele>126.0</ele><time>2026-04-09T14:32:05Z</time></trkpt><trkpt lat="44.06687168226764" lon="4.234749340109204"><ele>126.66666666666666</ele><time>2026-04-09T14:32:06Z</time></trkpt><trkpt lat="44.06683626801303" lon="4.235003685620435"><ele>127.33333333333333</ele><time>2026-04-09T14:32:07Z</time></trkpt><trkpt lat="44.066799572153904" lon="4.235260864340666"><ele>128.0</ele><time>2026-04-09T14:32:08Z</time></trkpt><trkpt lat="44.0667633602131" lon="4.235518745481696"><ele>129.0</ele><time>2026-04-09T14:32:09Z</time></trkpt><trkpt lat="44.06672843779489" lon="4.235778823438206"><ele>130.0</ele><time>2026-04-09T14:32:10Z</time></trkpt><trkpt lat="44.06669366114245" lon="4.236041845336486"><ele>131.0</ele><time>2026-04-09T14:32:11Z</time></trkpt><trkpt lat="44.066656920347626" lon="4.236310093771827"><ele>131.0</ele><time>2026-04-09T14:32:12Z</time></trkpt><trkpt lat="44.06661953799065" lon="4.236579850370415"><ele>131.0</ele><time>2026-04-09T14:32:13Z</time></trkpt><trkpt lat="44.06657788387702" lon="4.236844724277477"><ele>131.0</ele><time>2026-04-09T14:32:14Z</time></trkpt><trkpt lat="44.06654475415645" lon="4.237108064134213"><ele>131.66666666666666</ele><time>2026-04-09T14:32:15Z</time></trkpt><trkpt lat="44.066508407846584" lon="4.237362747939039"><ele>132.33333333333334</ele><time>2026-04-09T14:32:16Z</time></trkpt><trkpt lat="44.06647276766441" lon="4.237612314970458"><ele>133.0</ele><time>2026-04-09T14:32:17Z</time></trkpt><trkpt lat="44.06643994059575" lon="4.2378571075913944"><ele>133.0</ele><time>2026-04-09T14:32:18Z</time></trkpt><trkpt lat="44.06640739868708" lon="4.23810033554008"><ele>133.0</ele><time>2026-04-09T14:32:19Z</time></trkpt><trkpt lat="44.066376364507114" lon="4.238339816024328"><ele>133.0</ele><time>2026-04-09T14:32:20Z</time></trkpt><trkpt lat="44.06634452878165" lon="4.238575174133765"><ele>133.0</ele><time>2026-04-09T14:32:21Z</time></trkpt><trkpt lat="44.06631143917261" lon="4.238811020571524"><ele>133.0</ele><time>2026-04-09T14:32:22Z</time></trkpt><trkpt lat="44.06627737837188" lon="4.239048168825189"><ele>133.0</ele><time>2026-04-09T14:32:23Z</time></trkpt><trkpt lat="44.0662452694441" lon="4.239285461436439"><ele>134.0</ele><time>2026-04-09T14:32:24Z</time></trkpt><trkpt lat="44.06621285070327" lon="4.2395221794766105"><ele>135.0</ele><time>2026-04-09T14:32:25Z</time></trkpt><trkpt lat="44.06618695279286" lon="4.239761517272983"><ele>136.0</ele><time>2026-04-09T14:32:26Z</time></trkpt><trkpt lat="44.06616642553408" lon="4.240001897698849"><ele>137.33333333333334</ele><time>2026-04-09T14:32:27Z</time></trkpt><trkpt lat="44.066148465230256" lon="4.240244433174451"><ele>138.66666666666666</ele><time>2026-04-09T14:32:28Z</time></trkpt><trkpt lat="44.06613187929232" lon="4.240490791557347"><ele>140.0</ele><time>2026-04-09T14:32:29Z</time></trkpt><trkpt lat="44.06611598085107" lon="4.240742882559118"><ele>141.33333333333331</ele><time>2026-04-09T14:32:30Z</time></trkpt><trkpt lat="44.06610020560605" lon="4.240999543856524"><ele>142.66666666666666</ele><time>2026-04-09T14:32:31Z</time></trkpt><trkpt lat="44.06608513631293" lon="4.241259167092036"><ele>144.0</ele><time>2026-04-09T14:32:32Z</time></trkpt><trkpt lat="44.06606867395271" lon="4.241519051733362"><ele>144.66666666666666</ele><time>2026-04-09T14:32:33Z</time></trkpt><trkpt lat="44.066051673093256" lon="4.241777308418619"><ele>145.33333333333331</ele><time>2026-04-09T14:32:34Z</time></trkpt><trkpt lat="44.066032667794936" lon="4.242030500883782"><ele>146.0</ele><time>2026-04-09T14:32:35Z</time></trkpt><trkpt lat="44.066014606372235" lon="4.242275546386803"><ele>146.66666666666666</ele><time>2026-04-09T14:32:36Z</time></trkpt><trkpt lat="44.0659960681404" lon="4.242511264998665"><ele>147.33333333333334</ele><time>2026-04-09T14:32:37Z</time></trkpt><trkpt lat="44.06597885800443" lon="4.242738065681945"><ele>148.0</ele><time>2026-04-09T14:32:38Z</time></trkpt><trkpt lat="44.06596155859082" lon="4.242956483936585"><ele>149.0</ele><time>2026-04-09T14:32:39Z</time></trkpt><trkpt lat="44.06594659378285" lon="4.2431659262342"><ele>150.0</ele><time>2026-04-09T14:32:40Z</time></trkpt><trkpt lat="44.06593208599134" lon="4.2433692827789855"><ele>151.0</ele><time>2026-04-09T14:32:41Z</time></trkpt><trkpt lat="44.06591724852201" lon="4.243569810164899"><ele>152.0</ele><time>2026-04-09T14:32:42Z</time></trkpt><trkpt lat="44.06590243646379" lon="4.243770797424391"><ele>152.25</ele><time>2026-04-09T14:32:43Z</time></trkpt><trkpt lat="44.06588739348616" lon="4.243972439006924"><ele>152.5</ele><time>2026-04-09T14:32:44Z</time></trkpt><trkpt lat="44.065872570457856" lon="4.244171769064868"><ele>152.75</ele><time>2026-04-09T14:32:45Z</time></trkpt><trkpt lat="44.06585705318903" lon="4.244369963867447"><ele>153.0</ele><time>2026-04-09T14:32:46Z</time></trkpt><trkpt lat="44.06584233691471" lon="4.244566399856032"><ele>153.0</ele><time>2026-04-09T14:32:47Z</time></trkpt><trkpt lat="44.065827156086854" lon="4.244754183761411"><ele>153.0</ele><time>2026-04-09T14:32:48Z</time></trkpt><trkpt lat="44.065788965261085" lon="4.245119701883873"><ele>153.0</ele><time>2026-04-09T14:32:50Z</time></trkpt><trkpt lat="44.06576609699425" lon="4.2453078783901175"><ele>153.0</ele><time>2026-04-09T14:32:51Z</time></trkpt><trkpt lat="44.06574075564173" lon="4.245506101463301"><ele>153.0</ele><time>2026-04-09T14:32:52Z</time></trkpt><trkpt lat="44.06571570382514" lon="4.245716604310479"><ele>153.0</ele><time>2026-04-09T14:32:53Z</time></trkpt><trkpt lat="44.065687059645775" lon="4.2459427299854315"><ele>153.33333333333334</ele><time>2026-04-09T14:32:54Z</time></trkpt><trkpt lat="44.06565713437472" lon="4.246178387182859"><ele>153.66666666666669</ele><time>2026-04-09T14:32:55Z</time></trkpt><trkpt lat="44.06562816747458" lon="4.246427453814218"><ele>154.0</ele><time>2026-04-09T14:32:56Z</time></trkpt><trkpt lat="44.065598277849105" lon="4.246678980190546"><ele>154.33333333333334</ele><time>2026-04-09T14:32:57Z</time></trkpt><trkpt lat="44.06556756565368" lon="4.246922596307076"><ele>154.66666666666666</ele><time>2026-04-09T14:32:58Z</time></trkpt><trkpt lat="44.06553807014605" lon="4.247165861354296"><ele>155.0</ele><time>2026-04-09T14:32:59Z</time></trkpt><trkpt lat="44.06550789459593" lon="4.24740477014618"><ele>156.0</ele><time>2026-04-09T14:33:00Z</time></trkpt><trkpt lat="44.065478747445184" lon="4.247643155088715"><ele>157.0</ele><time>2026-04-09T14:33:01Z</time></trkpt><trkpt lat="44.06545065683685" lon="4.247875405043065"><ele>158.0</ele><time>2026-04-09T14:33:02Z</time></trkpt><trkpt lat="44.06542383336906" lon="4.24809592643512"><ele>158.66666666666666</ele><time>2026-04-09T14:33:03Z</time></trkpt><trkpt lat="44.06539781491577" lon="4.248310195077398"><ele>159.33333333333334</ele><time>2026-04-09T14:33:04Z</time></trkpt><trkpt lat="44.06537164662222" lon="4.248522559490691"><ele>160.0</ele><time>2026-04-09T14:33:05Z</time></trkpt><trkpt lat="44.06534567093284" lon="4.248736241671162"><ele>160.0</ele><time>2026-04-09T14:33:06Z</time></trkpt><trkpt lat="44.06531908600583" lon="4.248953556645475"><ele>160.0</ele><time>2026-04-09T14:33:07Z</time></trkpt><trkpt lat="44.06529218808773" lon="4.2491724889232545"><ele>160.0</ele><time>2026-04-09T14:33:08Z</time></trkpt><trkpt lat="44.06526703877099" lon="4.249392915564501"><ele>162.0</ele><time>2026-04-09T14:33:09Z</time></trkpt><trkpt lat="44.065246950441775" lon="4.249614623484615"><ele>164.0</ele><time>2026-04-09T14:33:10Z</time></trkpt><trkpt lat="44.06522772038919" lon="4.249842051355344"><ele>166.0</ele><time>2026-04-09T14:33:11Z</time></trkpt><trkpt lat="44.065206173214435" lon="4.250075755392155"><ele>167.66666666666669</ele><time>2026-04-09T14:33:12Z</time></trkpt><trkpt lat="44.065173006840325" lon="4.2503177807858865"><ele>169.33333333333334</ele><time>2026-04-09T14:33:13Z</time></trkpt><trkpt lat="44.06512577970824" lon="4.250535375076029"><ele>171.0</ele><time>2026-04-09T14:33:14Z</time></trkpt><trkpt lat="44.06508439244914" lon="4.250730930478598"><ele>171.75</ele><time>2026-04-09T14:33:15Z</time></trkpt><trkpt lat="44.065043988144964" lon="4.250915663231681"><ele>172.5</ele><time>2026-04-09T14:33:16Z</time></trkpt><trkpt lat="44.06500043439911" lon="4.251093054247822"><ele>173.25</ele><time>2026-04-09T14:33:17Z</time></trkpt><trkpt lat="44.06495316093146" lon="4.251268660674619"><ele>174.0</ele><time>2026-04-09T14:33:18Z</time></trkpt><trkpt lat="44.06491036519658" lon="4.2514395048766485"><ele>173.5</ele><time>2026-04-09T14:33:19Z</time></trkpt><trkpt lat="44.06486968782355" lon="4.251605325783139"><ele>173.0</ele><time>2026-04-09T14:33:20Z</time></trkpt><trkpt lat="44.06482783396352" lon="4.251769973003825"><ele>172.5</ele><time>2026-04-09T14:33:21Z</time></trkpt><trkpt lat="44.06478512991736" lon="4.251933664813072"><ele>172.0</ele><time>2026-04-09T14:33:22Z</time></trkpt><trkpt lat="44.06474124828692" lon="4.252100896902978"><ele>172.0</ele><time>2026-04-09T14:33:23Z</time></trkpt><trkpt lat="44.064696253659086" lon="4.252275655059191"><ele>172.0</ele><time>2026-04-09T14:33:24Z</time></trkpt><trkpt lat="44.06464643512815" lon="4.252464455207126"><ele>172.0</ele><time>2026-04-09T14:33:25Z</time></trkpt><trkpt lat="44.06459516611793" lon="4.2526610892143575"><ele>172.0</ele><time>2026-04-09T14:33:26Z</time></trkpt><trkpt lat="44.06454205926848" lon="4.252859164473397"><ele>173.0</ele><time>2026-04-09T14:33:27Z</time></trkpt><trkpt lat="44.064491237945546" lon="4.253049215612051"><ele>174.0</ele><time>2026-04-09T14:33:28Z</time></trkpt><trkpt lat="44.06444137948941" lon="4.2532329369419015"><ele>175.0</ele><time>2026-04-09T14:33:29Z</time></trkpt><trkpt lat="44.064391802808885" lon="4.253414315910979"><ele>176.0</ele><time>2026-04-09T14:33:30Z</time></trkpt><trkpt lat="44.06434404775071" lon="4.253597775710172"><ele>177.66666666666666</ele><time>2026-04-09T14:33:31Z</time></trkpt><trkpt lat="44.064295279590766" lon="4.253786658690009"><ele>179.33333333333334</ele><time>2026-04-09T14:33:32Z</time></trkpt><trkpt lat="44.06424321024537" lon="4.253983396383175"><ele>181.0</ele><time>2026-04-09T14:33:33Z</time></trkpt><trkpt lat="44.06419041440609" lon="4.254186128120133"><ele>182.66666666666669</ele><time>2026-04-09T14:33:34Z</time></trkpt><trkpt lat="44.06413532027939" lon="4.254387671636715"><ele>184.33333333333334</ele><time>2026-04-09T14:33:35Z</time></trkpt><trkpt lat="44.064075958874064" lon="4.254591775725632"><ele>186.0</ele><time>2026-04-09T14:33:36Z</time></trkpt><trkpt lat="44.06400985011474" lon="4.254795632097647"><ele>187.33333333333334</ele><time>2026-04-09T14:33:37Z</time></trkpt><trkpt lat="44.06393822648377" lon="4.254999565043689"><ele>188.66666666666669</ele><time>2026-04-09T14:33:38Z</time></trkpt><trkpt lat="44.063860736903806" lon="4.2552030108024"><ele>190.0</ele><time>2026-04-09T14:33:39Z</time></trkpt><trkpt lat="44.06377614766477" lon="4.255405398628222"><ele>190.0</ele><time>2026-04-09T14:33:40Z</time></trkpt><trkpt lat="44.063687399499884" lon="4.255606005307153"><ele>190.0</ele><time>2026-04-09T14:33:41Z</time></trkpt><trkpt lat="44.06359489046156" lon="4.255805483077914"><ele>190.0</ele><time>2026-04-09T14:33:42Z</time></trkpt><trkpt lat="44.06349918687861" lon="4.25600488897123"><ele>191.33333333333334</ele><time>2026-04-09T14:33:43Z</time></trkpt><trkpt lat="44.063402958234896" lon="4.256205886997029"><ele>192.66666666666669</ele><time>2026-04-09T14:33:44Z</time></trkpt><trkpt lat="44.06330403943765" lon="4.256410362228603"><ele>194.0</ele><time>2026-04-09T14:33:45Z</time></trkpt><trkpt lat="44.06319948083126" lon="4.256620486583697"><ele>194.0</ele><time>2026-04-09T14:33:46Z</time></trkpt><trkpt lat="44.06309329248999" lon="4.256832265923467"><ele>194.0</ele><time>2026-04-09T14:33:47Z</time></trkpt><trkpt lat="44.06298695364098" lon="4.257046692117789"><ele>194.0</ele><time>2026-04-09T14:33:48Z</time></trkpt><trkpt lat="44.062882543917496" lon="4.257266485845033"><ele>192.33333333333334</ele><time>2026-04-09T14:33:49Z</time></trkpt><trkpt lat="44.06277797215275" lon="4.257489059956547"><ele>190.66666666666669</ele><time>2026-04-09T14:33:50Z</time></trkpt><trkpt lat="44.06267436613043" lon="4.257717998374528"><ele>189.0</ele><time>2026-04-09T14:33:51Z</time></trkpt><trkpt lat="44.06257214340999" lon="4.257952801779768"><ele>189.0</ele><time>2026-04-09T14:33:52Z</time></trkpt><trkpt lat="44.06247138686776" lon="4.258190891415731"><ele>189.0</ele><time>2026-04-09T14:33:53Z</time></trkpt><trkpt lat="44.062374276342034" lon="4.258437548948689"><ele>189.0</ele><time>2026-04-09T14:33:54Z</time></trkpt><trkpt lat="44.06227693915216" lon="4.258691056946386"><ele>185.0</ele><time>2026-04-09T14:33:55Z</time></trkpt><trkpt lat="44.0621803093276" lon="4.258947523667086"><ele>181.0</ele><time>2026-04-09T14:33:56Z</time></trkpt><trkpt lat="44.06208336869307" lon="4.259201043041462"><ele>177.0</ele><time>2026-04-09T14:33:57Z</time></trkpt><trkpt lat="44.06198495813742" lon="4.259455615863185"><ele>176.66666666666666</ele><time>2026-04-09T14:33:58Z</time></trkpt><trkpt lat="44.06188486565068" lon="4.259708372825636"><ele>176.33333333333331</ele><time>2026-04-09T14:33:59Z</time></trkpt><trkpt lat="44.06178462260416" lon="4.259960640488345"><ele>176.0</ele><time>2026-04-09T14:34:00Z</time></trkpt><trkpt lat="44.06168407167128" lon="4.260212706072867"><ele>174.66666666666666</ele><time>2026-04-09T14:34:01Z</time></trkpt><trkpt lat="44.061581736190256" lon="4.2604623979710325"><ele>173.33333333333334</ele><time>2026-04-09T14:34:02Z</time></trkpt><trkpt lat="44.061479666861615" lon="4.260707152475376"><ele>172.0</ele><time>2026-04-09T14:34:03Z</time></trkpt><trkpt lat="44.06136762868942" lon="4.2609469445670864"><ele>172.0</ele><time>2026-04-09T14:34:04Z</time></trkpt><trkpt lat="44.061247671650605" lon="4.2611756048282485"><ele>172.0</ele><time>2026-04-09T14:34:05Z</time></trkpt><trkpt lat="44.06111859673999" lon="4.261388765192556"><ele>172.0</ele><time>2026-04-09T14:34:06Z</time></trkpt><trkpt lat="44.06098036930419" lon="4.261592119362387"><ele>173.0</ele><time>2026-04-09T14:34:07Z</time></trkpt><trkpt lat="44.060836196653426" lon="4.261780861658549"><ele>174.0</ele><time>2026-04-09T14:34:08Z</time></trkpt><trkpt lat="44.06068588173895" lon="4.261966037550619"><ele>175.0</ele><time>2026-04-09T14:34:09Z</time></trkpt><trkpt lat="44.06053137781847" lon="4.262144968890118"><ele>173.66666666666669</ele><time>2026-04-09T14:34:10Z</time></trkpt><trkpt lat="44.06037302094034" lon="4.262315340778545"><ele>172.33333333333334</ele><time>2026-04-09T14:34:11Z</time></trkpt><trkpt lat="44.06021335858125" lon="4.262475992946287"><ele>171.0</ele><time>2026-04-09T14:34:12Z</time></trkpt><trkpt lat="44.06005537624134" lon="4.262638693785784"><ele>169.66666666666666</ele><time>2026-04-09T14:34:13Z</time></trkpt><trkpt lat="44.05989608138257" lon="4.262799966510033"><ele>168.33333333333331</ele><time>2026-04-09T14:34:14Z</time></trkpt><trkpt lat="44.059738977215574" lon="4.262960094512055"><ele>167.0</ele><time>2026-04-09T14:34:15Z</time></trkpt><trkpt lat="44.059581097666765" lon="4.263123679510672"><ele>167.0</ele><time>2026-04-09T14:34:16Z</time></trkpt><trkpt lat="44.059423089411816" lon="4.263287416077006"><ele>167.0</ele><time>2026-04-09T14:34:17Z</time></trkpt><trkpt lat="44.059265935612345" lon="4.2634523897821435"><ele>167.0</ele><time>2026-04-09T14:34:18Z</time></trkpt><trkpt lat="44.059108445912955" lon="4.263618464286897"><ele>166.66666666666666</ele><time>2026-04-09T14:34:19Z</time></trkpt><trkpt lat="44.058951153901866" lon="4.263784460682074"><ele>166.33333333333334</ele><time>2026-04-09T14:34:20Z</time></trkpt><trkpt lat="44.05879349184258" lon="4.263956730686325"><ele>166.0</ele><time>2026-04-09T14:34:21Z</time></trkpt><trkpt lat="44.05863831825908" lon="4.26413718934845"><ele>167.33333333333334</ele><time>2026-04-09T14:34:22Z</time></trkpt><trkpt lat="44.0584905046483" lon="4.264332296433302"><ele>168.66666666666666</ele><time>2026-04-09T14:34:23Z</time></trkpt><trkpt lat="44.05835310322913" lon="4.264538708902421"><ele>170.0</ele><time>2026-04-09T14:34:24Z</time></trkpt><trkpt lat="44.058222390193414" lon="4.264755756058302"><ele>174.33333333333331</ele><time>2026-04-09T14:34:25Z</time></trkpt><trkpt lat="44.058098730760044" lon="4.264979790322894"><ele>178.66666666666666</ele><time>2026-04-09T14:34:26Z</time></trkpt><trkpt lat="44.05798236214829" lon="4.2652066024783295"><ele>183.0</ele><time>2026-04-09T14:34:27Z</time></trkpt><trkpt lat="44.05787336756402" lon="4.265432160735525"><ele>183.0</ele><time>2026-04-09T14:34:28Z</time></trkpt><trkpt lat="44.05776482331088" lon="4.265653428004433"><ele>183.0</ele><time>2026-04-09T14:34:29Z</time></trkpt><trkpt lat="44.05765881843825" lon="4.265874028247138"><ele>183.0</ele><time>2026-04-09T14:34:30Z</time></trkpt><trkpt lat="44.05755215849934" lon="4.266096232357111"><ele>184.33333333333334</ele><time>2026-04-09T14:34:31Z</time></trkpt><trkpt lat="44.05744945884471" lon="4.2663188294480365"><ele>185.66666666666669</ele><time>2026-04-09T14:34:32Z</time></trkpt><trkpt lat="44.057343763901706" lon="4.2665410409017825"><ele>187.0</ele><time>2026-04-09T14:34:33Z</time></trkpt><trkpt lat="44.05723624338464" lon="4.266766438919594"><ele>187.0</ele><time>2026-04-09T14:34:34Z</time></trkpt><trkpt lat="44.05712456972554" lon="4.266990297306421"><ele>187.0</ele><time>2026-04-09T14:34:35Z</time></trkpt><trkpt lat="44.0570175946302" lon="4.267219425629687"><ele>187.0</ele><time>2026-04-09T14:34:36Z</time></trkpt><trkpt lat="44.056911627342046" lon="4.267453851031287"><ele>187.0</ele><time>2026-04-09T14:34:37Z</time></trkpt><trkpt lat="44.05681213424596" lon="4.267692102321628"><ele>187.0</ele><time>2026-04-09T14:34:38Z</time></trkpt><trkpt lat="44.05672002101395" lon="4.267938619524617"><ele>187.0</ele><time>2026-04-09T14:34:39Z</time></trkpt><trkpt lat="44.05663119933072" lon="4.268189599000227"><ele>191.33333333333334</ele><time>2026-04-09T14:34:40Z</time></trkpt><trkpt lat="44.056546687647504" lon="4.268444423475054"><ele>195.66666666666669</ele><time>2026-04-09T14:34:41Z</time></trkpt><trkpt lat="44.0564662968259" lon="4.268703449685564"><ele>200.0</ele><time>2026-04-09T14:34:42Z</time></trkpt><trkpt lat="44.05639251016499" lon="4.2689658233559555"><ele>201.0</ele><time>2026-04-09T14:34:43Z</time></trkpt><trkpt lat="44.05632553819047" lon="4.269231868970874"><ele>202.0</ele><time>2026-04-09T14:34:44Z</time></trkpt><trkpt lat="44.05626656088685" lon="4.269500254191191"><ele>203.0</ele><time>2026-04-09T14:34:45Z</time></trkpt><trkpt lat="44.056213301801236" lon="4.269767106191186"><ele>203.0</ele><time>2026-04-09T14:34:46Z</time></trkpt><trkpt lat="44.056166981000864" lon="4.2700377514730565"><ele>203.0</ele><time>2026-04-09T14:34:47Z</time></trkpt><trkpt lat="44.056125963971844" lon="4.270307084283579"><ele>203.0</ele><time>2026-04-09T14:34:48Z</time></trkpt><trkpt lat="44.05608969165262" lon="4.270578761976315"><ele>201.0</ele><time>2026-04-09T14:34:49Z</time></trkpt><trkpt lat="44.05605841507921" lon="4.270854115417412"><ele>199.0</ele><time>2026-04-09T14:34:50Z</time></trkpt><trkpt lat="44.05603343606006" lon="4.271132245896246"><ele>197.0</ele><time>2026-04-09T14:34:51Z</time></trkpt><trkpt lat="44.05601403001892" lon="4.271413341584745"><ele>195.33333333333334</ele><time>2026-04-09T14:34:52Z</time></trkpt><trkpt lat="44.05599988118523" lon="4.271698157995877"><ele>193.66666666666669</ele><time>2026-04-09T14:34:53Z</time></trkpt><trkpt lat="44.05599098109456" lon="4.2719862462626725"><ele>192.0</ele><time>2026-04-09T14:34:54Z</time></trkpt><trkpt lat="44.055987933668284" lon="4.272275451565356"><ele>190.33333333333334</ele><time>2026-04-09T14:34:55Z</time></trkpt><trkpt lat="44.05598816453272" lon="4.2725649161816355"><ele>188.66666666666669</ele><time>2026-04-09T14:34:56Z</time></trkpt><trkpt lat="44.05599052552818" lon="4.2728583011209675"><ele>187.0</ele><time>2026-04-09T14:34:57Z</time></trkpt><trkpt lat="44.0559889819343" lon="4.2731489224447845"><ele>185.66666666666669</ele><time>2026-04-09T14:34:58Z</time></trkpt><trkpt lat="44.055980189712265" lon="4.273445626061865"><ele>184.33333333333334</ele><time>2026-04-09T14:34:59Z</time></trkpt><trkpt lat="44.05595956568079" lon="4.273740874067733"><ele>183.0</ele><time>2026-04-09T14:35:00Z</time></trkpt><trkpt lat="44.05593692928299" lon="4.274039035041633"><ele>181.66666666666666</ele><time>2026-04-09T14:35:01Z</time></trkpt><trkpt lat="44.05590781724645" lon="4.274337109178796"><ele>180.33333333333331</ele><time>2026-04-09T14:35:02Z</time></trkpt><trkpt lat="44.05587321646977" lon="4.274631556881805"><ele>179.0</ele><time>2026-04-09T14:35:03Z</time></trkpt><trkpt lat="44.05583245061379" lon="4.274925102970492"><ele>179.0</ele><time>2026-04-09T14:35:04Z</time></trkpt><trkpt lat="44.05579278544937" lon="4.275207794923638"><ele>179.0</ele><time>2026-04-09T14:35:05Z</time></trkpt><trkpt lat="44.055753451983556" lon="4.2754855254732895"><ele>179.0</ele><time>2026-04-09T14:35:06Z</time></trkpt><trkpt lat="44.055714250013736" lon="4.275760938418368"><ele>179.0</ele><time>2026-04-09T14:35:07Z</time></trkpt><trkpt lat="44.05566986716422" lon="4.276037865136483"><ele>179.0</ele><time>2026-04-09T14:35:08Z</time></trkpt><trkpt lat="44.055630322318756" lon="4.276312398802754"><ele>179.0</ele><time>2026-04-09T14:35:09Z</time></trkpt><trkpt lat="44.05559230755578" lon="4.276586552710189"><ele>178.0</ele><time>2026-04-09T14:35:10Z</time></trkpt><trkpt lat="44.055557632715654" lon="4.276851214467523"><ele>177.0</ele><time>2026-04-09T14:35:11Z</time></trkpt><trkpt lat="44.05552291391299" lon="4.277116305372661"><ele>176.0</ele><time>2026-04-09T14:35:12Z</time></trkpt><trkpt lat="44.05548612812462" lon="4.27737678917737"><ele>176.0</ele><time>2026-04-09T14:35:13Z</time></trkpt><trkpt lat="44.055450085903786" lon="4.2776352999784555"><ele>176.0</ele><time>2026-04-09T14:35:14Z</time></trkpt><trkpt lat="44.055415950421725" lon="4.277891049303433"><ele>176.0</ele><time>2026-04-09T14:35:15Z</time></trkpt><trkpt lat="44.05538713649893" lon="4.278145329798377"><ele>176.0</ele><time>2026-04-09T14:35:16Z</time></trkpt><trkpt lat="44.05536263562814" lon="4.278397364124319"><ele>176.0</ele><time>2026-04-09T14:35:17Z</time></trkpt><trkpt lat="44.05534085624777" lon="4.27864926882649"><ele>176.0</ele><time>2026-04-09T14:35:18Z</time></trkpt><trkpt lat="44.055320631812634" lon="4.278900849837876"><ele>175.0</ele><time>2026-04-09T14:35:19Z</time></trkpt><trkpt lat="44.05530440544224" lon="4.279150205697741"><ele>174.0</ele><time>2026-04-09T14:35:20Z</time></trkpt><trkpt lat="44.055289526814875" lon="4.279398457450692"><ele>173.0</ele><time>2026-04-09T14:35:21Z</time></trkpt><trkpt lat="44.05527727966917" lon="4.279645252056148"><ele>171.0</ele><time>2026-04-09T14:35:22Z</time></trkpt><trkpt lat="44.055267586417685" lon="4.279889639676196"><ele>169.0</ele><time>2026-04-09T14:35:23Z</time></trkpt><trkpt lat="44.055259682499376" lon="4.280132408696373"><ele>167.0</ele><time>2026-04-09T14:35:24Z</time></trkpt><trkpt lat="44.05525258998073" lon="4.280376804404947"><ele>166.66666666666666</ele><time>2026-04-09T14:35:25Z</time></trkpt><trkpt lat="44.055246141719074" lon="4.280618270092595"><ele>166.33333333333334</ele><time>2026-04-09T14:35:26Z</time></trkpt><trkpt lat="44.0552413776942" lon="4.280856687800858"><ele>166.0</ele><time>2026-04-09T14:35:27Z</time></trkpt><trkpt lat="44.05523826430421" lon="4.281090437808231"><ele>166.0</ele><time>2026-04-09T14:35:28Z</time></trkpt><trkpt lat="44.05523824513473" lon="4.281319789614741"><ele>166.0</ele><time>2026-04-09T14:35:29Z</time></trkpt><trkpt lat="44.05523609678802" lon="4.281544826166122"><ele>166.0</ele><time>2026-04-09T14:35:30Z</time></trkpt><trkpt lat="44.05522992011849" lon="4.2817652551523295"><ele>165.66666666666669</ele><time>2026-04-09T14:35:31Z</time></trkpt><trkpt lat="44.055224896255076" lon="4.281984851577962"><ele>165.33333333333334</ele><time>2026-04-09T14:35:32Z</time></trkpt><trkpt lat="44.05521789025369" lon="4.282204134222432"><ele>165.0</ele><time>2026-04-09T14:35:33Z</time></trkpt><trkpt lat="44.05520776794003" lon="4.282424527619776"><ele>165.0</ele><time>2026-04-09T14:35:34Z</time></trkpt><trkpt lat="44.0551943919097" lon="4.282643495376212"><ele>165.0</ele><time>2026-04-09T14:35:35Z</time></trkpt><trkpt lat="44.05517519586966" lon="4.282864739808379"><ele>165.0</ele><time>2026-04-09T14:35:36Z</time></trkpt><trkpt lat="44.055148391431686" lon="4.283087854932046"><ele>165.0</ele><time>2026-04-09T14:35:37Z</time></trkpt><trkpt lat="44.05511275508324" lon="4.283310527662357"><ele>165.0</ele><time>2026-04-09T14:35:38Z</time></trkpt><trkpt lat="44.05507560858973" lon="4.283533366159775"><ele>165.0</ele><time>2026-04-09T14:35:39Z</time></trkpt><trkpt lat="44.05503524410787" lon="4.28375473507789"><ele>165.66666666666666</ele><time>2026-04-09T14:35:40Z</time></trkpt><trkpt lat="44.054992303685786" lon="4.28397539483867"><ele>166.33333333333331</ele><time>2026-04-09T14:35:41Z</time></trkpt><trkpt lat="44.054943329422734" lon="4.284197495734636"><ele>167.0</ele><time>2026-04-09T14:35:42Z</time></trkpt><trkpt lat="44.05488544630268" lon="4.2844238123890035"><ele>165.33333333333331</ele><time>2026-04-09T14:35:43Z</time></trkpt><trkpt lat="44.054813220201765" lon="4.284647597063066"><ele>163.66666666666666</ele><time>2026-04-09T14:35:44Z</time></trkpt><trkpt lat="44.0547194009992" lon="4.284863908365463"><ele>162.0</ele><time>2026-04-09T14:35:45Z</time></trkpt><trkpt lat="44.05461196697013" lon="4.285066031734113"><ele>162.0</ele><time>2026-04-09T14:35:46Z</time></trkpt><trkpt lat="44.05448617818251" lon="4.285248926609208"><ele>162.0</ele><time>2026-04-09T14:35:47Z</time></trkpt><trkpt lat="44.05434859306031" lon="4.285401156945817"><ele>162.0</ele><time>2026-04-09T14:35:48Z</time></trkpt><trkpt lat="44.05419896440824" lon="4.285538547465897"><ele>161.0</ele><time>2026-04-09T14:35:49Z</time></trkpt><trkpt lat="44.05404707037137" lon="4.285675405645546"><ele>160.0</ele><time>2026-04-09T14:35:50Z</time></trkpt><trkpt lat="44.053899548147776" lon="4.285814693742577"><ele>159.0</ele><time>2026-04-09T14:35:51Z</time></trkpt><trkpt lat="44.05375623805518" lon="4.285960346062772"><ele>159.0</ele><time>2026-04-09T14:35:52Z</time></trkpt><trkpt lat="44.053607842222824" lon="4.286101092241008"><ele>159.0</ele><time>2026-04-09T14:35:53Z</time></trkpt><trkpt lat="44.05346081279159" lon="4.28624147011582"><ele>159.0</ele><time>2026-04-09T14:35:54Z</time></trkpt><trkpt lat="44.05331738437268" lon="4.2863842046628395"><ele>158.33333333333334</ele><time>2026-04-09T14:35:55Z</time></trkpt><trkpt lat="44.05317373384645" lon="4.286525791874765"><ele>157.66666666666669</ele><time>2026-04-09T14:35:56Z</time></trkpt><trkpt lat="44.05303212187913" lon="4.286662713542425"><ele>157.0</ele><time>2026-04-09T14:35:57Z</time></trkpt><trkpt lat="44.052887800602896" lon="4.286802714530245"><ele>157.0</ele><time>2026-04-09T14:35:58Z</time></trkpt><trkpt lat="44.052744486059886" lon="4.286938899884241"><ele>157.0</ele><time>2026-04-09T14:35:59Z</time></trkpt><trkpt lat="44.052604257961" lon="4.287077798209817"><ele>157.0</ele><time>2026-04-09T14:36:00Z</time></trkpt><trkpt lat="44.052461556897946" lon="4.287215361474078"><ele>156.0</ele><time>2026-04-09T14:36:01Z</time></trkpt><trkpt lat="44.052319647649355" lon="4.287350200866518"><ele>155.0</ele><time>2026-04-09T14:36:02Z</time></trkpt><trkpt lat="44.052179787076206" lon="4.287484412498208"><ele>154.0</ele><time>2026-04-09T14:36:03Z</time></trkpt><trkpt lat="44.05203989249406" lon="4.287617435949591"><ele>154.0</ele><time>2026-04-09T14:36:04Z</time></trkpt><trkpt lat="44.05190169034684" lon="4.28774918005772"><ele>154.0</ele><time>2026-04-09T14:36:05Z</time></trkpt><trkpt lat="44.051763166456205" lon="4.287883197314651"><ele>154.0</ele><time>2026-04-09T14:36:06Z</time></trkpt><trkpt lat="44.05162863702764" lon="4.288013813385369"><ele>153.0</ele><time>2026-04-09T14:36:07Z</time></trkpt><trkpt lat="44.05149498084525" lon="4.288144829733276"><ele>152.0</ele><time>2026-04-09T14:36:08Z</time></trkpt><trkpt lat="44.05135673931363" lon="4.288274349490924"><ele>151.0</ele><time>2026-04-09T14:36:09Z</time></trkpt><trkpt lat="44.051223998339786" lon="4.2884008763117025"><ele>151.0</ele><time>2026-04-09T14:36:10Z</time></trkpt><trkpt lat="44.051093720260745" lon="4.2885268914127055"><ele>151.0</ele><time>2026-04-09T14:36:11Z</time></trkpt><trkpt lat="44.05096528257553" lon="4.288655043003331"><ele>151.0</ele><time>2026-04-09T14:36:12Z</time></trkpt><trkpt lat="44.050833570225336" lon="4.288782376899044"><ele>150.66666666666669</ele><time>2026-04-09T14:36:13Z</time></trkpt><trkpt lat="44.05070282024202" lon="4.288907402883607"><ele>150.33333333333334</ele><time>2026-04-09T14:36:14Z</time></trkpt><trkpt lat="44.05057157842205" lon="4.289037283460296"><ele>150.0</ele><time>2026-04-09T14:36:15Z</time></trkpt><trkpt lat="44.05044181836175" lon="4.289164613866131"><ele>151.66666666666666</ele><time>2026-04-09T14:36:16Z</time></trkpt><trkpt lat="44.0503132813656" lon="4.289283103704195"><ele>153.33333333333331</ele><time>2026-04-09T14:36:17Z</time></trkpt><trkpt lat="44.05018166040942" lon="4.289406845311811"><ele>155.0</ele><time>2026-04-09T14:36:18Z</time></trkpt><trkpt lat="44.0500505381195" lon="4.289532219774214"><ele>153.66666666666666</ele><time>2026-04-09T14:36:19Z</time></trkpt><trkpt lat="44.04991646508826" lon="4.289657862614205"><ele>152.33333333333334</ele><time>2026-04-09T14:36:20Z</time></trkpt><trkpt lat="44.04978808470943" lon="4.289793641231309"><ele>151.0</ele><time>2026-04-09T14:36:21Z</time></trkpt><trkpt lat="44.04965303236397" lon="4.2899230281458545"><ele>151.0</ele><time>2026-04-09T14:36:22Z</time></trkpt><trkpt lat="44.04951766130978" lon="4.290053478902103"><ele>151.0</ele><time>2026-04-09T14:36:23Z</time></trkpt><trkpt lat="44.04938099288631" lon="4.290182768437504"><ele>151.0</ele><time>2026-04-09T14:36:24Z</time></trkpt><trkpt lat="44.04924085296828" lon="4.290317099474825"><ele>149.33333333333334</ele><time>2026-04-09T14:36:25Z</time></trkpt><trkpt lat="44.04910224338076" lon="4.29045301034742"><ele>147.66666666666666</ele><time>2026-04-09T14:36:26Z</time></trkpt><trkpt lat="44.04896414666263" lon="4.290589381483187"><ele>146.0</ele><time>2026-04-09T14:36:27Z</time></trkpt><trkpt lat="44.04882306792326" lon="4.29071879083485"><ele>146.0</ele><time>2026-04-09T14:36:28Z</time></trkpt><trkpt lat="44.04867970585551" lon="4.29086089880269"><ele>146.0</ele><time>2026-04-09T14:36:29Z</time></trkpt><trkpt lat="44.04854817310879" lon="4.291021534827173"><ele>146.0</ele><time>2026-04-09T14:36:30Z</time></trkpt><trkpt lat="44.04842226351798" lon="4.2912053871807005"><ele>146.0</ele><time>2026-04-09T14:36:31Z</time></trkpt><trkpt lat="44.048306763897635" lon="4.291418388514466"><ele>146.0</ele><time>2026-04-09T14:36:32Z</time></trkpt><trkpt lat="44.048185839449985" lon="4.291643247045934"><ele>146.0</ele><time>2026-04-09T14:36:33Z</time></trkpt><trkpt lat="44.04805882868122" lon="4.291883734328926"><ele>145.66666666666666</ele><time>2026-04-09T14:36:34Z</time></trkpt><trkpt lat="44.04792684577612" lon="4.29211908793798"><ele>145.33333333333334</ele><time>2026-04-09T14:36:35Z</time></trkpt><trkpt lat="44.04780362270343" lon="4.292350677974113"><ele>145.0</ele><time>2026-04-09T14:36:36Z</time></trkpt><trkpt lat="44.04768952134649" lon="4.292572465655192"><ele>145.0</ele><time>2026-04-09T14:36:37Z</time></trkpt><trkpt lat="44.0475806133781" lon="4.292791520140888"><ele>145.0</ele><time>2026-04-09T14:36:38Z</time></trkpt><trkpt lat="44.04747646123744" lon="4.293009785544928"><ele>145.0</ele><time>2026-04-09T14:36:39Z</time></trkpt><trkpt lat="44.04737482751338" lon="4.293225663806662"><ele>145.66666666666669</ele><time>2026-04-09T14:36:40Z</time></trkpt><trkpt lat="44.04727932282148" lon="4.293435179931187"><ele>146.33333333333334</ele><time>2026-04-09T14:36:41Z</time></trkpt><trkpt lat="44.04718543269843" lon="4.293639387354501"><ele>147.0</ele><time>2026-04-09T14:36:42Z</time></trkpt><trkpt lat="44.047092825834014" lon="4.293840740256043"><ele>146.66666666666666</ele><time>2026-04-09T14:36:43Z</time></trkpt><trkpt lat="44.04700052336785" lon="4.294038187867114"><ele>146.33333333333331</ele><time>2026-04-09T14:36:44Z</time></trkpt><trkpt lat="44.04690807503251" lon="4.29423250927942"><ele>146.0</ele><time>2026-04-09T14:36:45Z</time></trkpt><trkpt lat="44.046817567194665" lon="4.294427123942323"><ele>146.0</ele><time>2026-04-09T14:36:46Z</time></trkpt><trkpt lat="44.0467277114678" lon="4.294623293296684"><ele>146.0</ele><time>2026-04-09T14:36:47Z</time></trkpt><trkpt lat="44.046637626786584" lon="4.294819230255668"><ele>146.0</ele><time>2026-04-09T14:36:48Z</time></trkpt><trkpt lat="44.046547699270654" lon="4.295016703875286"><ele>146.33333333333331</ele><time>2026-04-09T14:36:49Z</time></trkpt><trkpt lat="44.04645510091163" lon="4.295211698363097"><ele>146.66666666666666</ele><time>2026-04-09T14:36:50Z</time></trkpt><trkpt lat="44.04636358507968" lon="4.2954083031516035"><ele>147.0</ele><time>2026-04-09T14:36:51Z</time></trkpt><trkpt lat="44.04627403877979" lon="4.295609579685064"><ele>147.66666666666666</ele><time>2026-04-09T14:36:52Z</time></trkpt><trkpt lat="44.04618278960696" lon="4.295809717254836"><ele>148.33333333333331</ele><time>2026-04-09T14:36:53Z</time></trkpt><trkpt lat="44.04608863174595" lon="4.296010103425977"><ele>149.0</ele><time>2026-04-09T14:36:54Z</time></trkpt><trkpt lat="44.0459999213956" lon="4.296208828017241"><ele>149.0</ele><time>2026-04-09T14:36:55Z</time></trkpt><trkpt lat="44.04591270265492" lon="4.296402384937976"><ele>149.0</ele><time>2026-04-09T14:36:56Z</time></trkpt><trkpt lat="44.04582712672679" lon="4.296590162548515"><ele>149.0</ele><time>2026-04-09T14:36:57Z</time></trkpt><trkpt lat="44.045742151492625" lon="4.296776029570733"><ele>148.33333333333331</ele><time>2026-04-09T14:36:58Z</time></trkpt><trkpt lat="44.04565675968673" lon="4.296960953491339"><ele>147.66666666666666</ele><time>2026-04-09T14:36:59Z</time></trkpt><trkpt lat="44.045570918933066" lon="4.297146448840746"><ele>147.0</ele><time>2026-04-09T14:37:00Z</time></trkpt><trkpt lat="44.045486837421606" lon="4.297328586090537"><ele>148.33333333333334</ele><time>2026-04-09T14:37:01Z</time></trkpt><trkpt lat="44.04540345274751" lon="4.297511131385296"><ele>149.66666666666669</ele><time>2026-04-09T14:37:02Z</time></trkpt><trkpt lat="44.045320100773964" lon="4.2976919715197335"><ele>151.0</ele><time>2026-04-09T14:37:03Z</time></trkpt><trkpt lat="44.04524202948649" lon="4.297860900132097"><ele>151.0</ele><time>2026-04-09T14:37:04Z</time></trkpt><trkpt lat="44.045166299332806" lon="4.298023407290157"><ele>151.0</ele><time>2026-04-09T14:37:05Z</time></trkpt><trkpt lat="44.04509343832999" lon="4.298180043025423"><ele>151.0</ele><time>2026-04-09T14:37:06Z</time></trkpt><trkpt lat="44.04502468850214" lon="4.29832737288088"><ele>151.0</ele><time>2026-04-09T14:37:07Z</time></trkpt><trkpt lat="44.044963208315984" lon="4.298451590018708"><ele>151.2</ele><time>2026-04-09T14:37:08Z</time></trkpt><trkpt lat="44.04490334407737" lon="4.298558192761649"><ele>151.39999999999998</ele><time>2026-04-09T14:37:09Z</time></trkpt><trkpt lat="44.04484935955038" lon="4.298658404138458"><ele>151.6</ele><time>2026-04-09T14:37:10Z</time></trkpt><trkpt lat="44.04479202786004" lon="4.298761837362114"><ele>151.79999999999998</ele><time>2026-04-09T14:37:11Z</time></trkpt><trkpt lat="44.04472186394705" lon="4.2988452390535254"><ele>152.0</ele><time>2026-04-09T14:37:12Z</time></trkpt><trkpt lat="44.04465297263722" lon="4.298920250538287"><ele>152.0</ele><time>2026-04-09T14:37:13Z</time></trkpt><trkpt lat="44.044595499734655" lon="4.29898592565703"><ele>152.0</ele><time>2026-04-09T14:37:14Z</time></trkpt><trkpt lat="44.04454154975057" lon="4.299046520810757"><ele>152.0</ele><time>2026-04-09T14:37:15Z</time></trkpt><trkpt lat="44.04448376029869" lon="4.299098341887973"><ele>152.0</ele><time>2026-04-09T14:37:16Z</time></trkpt><trkpt lat="44.044413478680575" lon="4.299123505466011"><ele>152.0</ele><time>2026-04-09T14:37:17Z</time></trkpt><trkpt lat="44.04433746893584" lon="4.2991261720173295"><ele>152.0</ele><time>2026-04-09T14:37:18Z</time></trkpt><trkpt lat="44.044263703787564" lon="4.299135621621381"><ele>152.0</ele><time>2026-04-09T14:37:19Z</time></trkpt><trkpt lat="44.044194872042034" lon="4.299170057561516"><ele>152.0</ele><time>2026-04-09T14:37:20Z</time></trkpt><trkpt lat="44.04413715946271" lon="4.299225001626301"><ele>152.0</ele><time>2026-04-09T14:37:21Z</time></trkpt><trkpt lat="44.04410840548314" lon="4.299317809262701"><ele>152.0</ele><time>2026-04-09T14:37:22Z</time></trkpt><trkpt lat="44.04411205492618" lon="4.2994283473537305"><ele>152.0</ele><time>2026-04-09T14:37:23Z</time></trkpt><trkpt lat="44.044136525768" lon="4.299532747095063"><ele>152.0</ele><time>2026-04-09T14:37:24Z</time></trkpt><trkpt lat="44.04416789837335" lon="4.299660648662834"><ele>152.0</ele><time>2026-04-09T14:37:25Z</time></trkpt><trkpt lat="44.04418241693365" lon="4.299819723617984"><ele>152.0</ele><time>2026-04-09T14:37:26Z</time></trkpt><trkpt lat="44.044162060160346" lon="4.300000163023772"><ele>152.0</ele><time>2026-04-09T14:37:27Z</time></trkpt><trkpt lat="44.044116170862836" lon="4.300189110771595"><ele>152.0</ele><time>2026-04-09T14:37:28Z</time></trkpt><trkpt lat="44.044057639523714" lon="4.300385485162429"><ele>152.0</ele><time>2026-04-09T14:37:29Z</time></trkpt><trkpt lat="44.04398328641348" lon="4.300584858492303"><ele>152.33333333333331</ele><time>2026-04-09T14:37:30Z</time></trkpt><trkpt lat="44.04389340461962" lon="4.300785952836713"><ele>152.66666666666666</ele><time>2026-04-09T14:37:31Z</time></trkpt><trkpt lat="44.04379863325408" lon="4.300985970012388"><ele>153.0</ele><time>2026-04-09T14:37:32Z</time></trkpt><trkpt lat="44.04370583480249" lon="4.301177717839435"><ele>153.0</ele><time>2026-04-09T14:37:33Z</time></trkpt><trkpt lat="44.04362118488783" lon="4.3013670263782515"><ele>153.0</ele><time>2026-04-09T14:37:34Z</time></trkpt><trkpt lat="44.04353932332713" lon="4.301549777234467"><ele>153.0</ele><time>2026-04-09T14:37:35Z</time></trkpt><trkpt lat="44.04345991916071" lon="4.301726435089924"><ele>153.5</ele><time>2026-04-09T14:37:36Z</time></trkpt><trkpt lat="44.04338194248044" lon="4.301900973628553"><ele>154.0</ele><time>2026-04-09T14:37:37Z</time></trkpt><trkpt lat="44.04330269031572" lon="4.302076586293165"><ele>154.5</ele><time>2026-04-09T14:37:38Z</time></trkpt><trkpt lat="44.04322195961557" lon="4.302250249123356"><ele>155.0</ele><time>2026-04-09T14:37:39Z</time></trkpt><trkpt lat="44.04314292005696" lon="4.302421836819828"><ele>155.75</ele><time>2026-04-09T14:37:40Z</time></trkpt><trkpt lat="44.043065632267705" lon="4.302591994103799"><ele>156.5</ele><time>2026-04-09T14:37:41Z</time></trkpt><trkpt lat="44.04298835111164" lon="4.302766033620198"><ele>157.25</ele><time>2026-04-09T14:37:42Z</time></trkpt><trkpt lat="44.04291244528963" lon="4.302949026327002"><ele>158.0</ele><time>2026-04-09T14:37:43Z</time></trkpt><trkpt lat="44.04283826894162" lon="4.303137665814731"><ele>158.0</ele><time>2026-04-09T14:37:44Z</time></trkpt><trkpt lat="44.042772112737545" lon="4.303330312323477"><ele>158.0</ele><time>2026-04-09T14:37:45Z</time></trkpt><trkpt lat="44.04270196657895" lon="4.303525659341565"><ele>158.0</ele><time>2026-04-09T14:37:46Z</time></trkpt><trkpt lat="44.04264018118449" lon="4.303727872277755"><ele>156.66666666666666</ele><time>2026-04-09T14:37:47Z</time></trkpt><trkpt lat="44.04260251032235" lon="4.303946318647778"><ele>155.33333333333334</ele><time>2026-04-09T14:37:48Z</time></trkpt><trkpt lat="44.042588820997594" lon="4.304175202489379"><ele>154.0</ele><time>2026-04-09T14:37:49Z</time></trkpt><trkpt lat="44.0425815224857" lon="4.304409725301461"><ele>154.0</ele><time>2026-04-09T14:37:50Z</time></trkpt><trkpt lat="44.04257805573366" lon="4.304647903201864"><ele>154.0</ele><time>2026-04-09T14:37:51Z</time></trkpt><trkpt lat="44.04257533090508" lon="4.304895526500623"><ele>154.0</ele><time>2026-04-09T14:37:52Z</time></trkpt><trkpt lat="44.04257061903298" lon="4.305137750544664"><ele>153.0</ele><time>2026-04-09T14:37:53Z</time></trkpt><trkpt lat="44.042563616845776" lon="4.30538159304311"><ele>152.0</ele><time>2026-04-09T14:37:54Z</time></trkpt><trkpt lat="44.04255725886936" lon="4.3056314638589654"><ele>151.0</ele><time>2026-04-09T14:37:55Z</time></trkpt><trkpt lat="44.04254989365509" lon="4.3058845832272405"><ele>149.66666666666669</ele><time>2026-04-09T14:37:56Z</time></trkpt><trkpt lat="44.042543505165405" lon="4.306139157987867"><ele>148.33333333333334</ele><time>2026-04-09T14:37:57Z</time></trkpt><trkpt lat="44.042538656969604" lon="4.306396505518802"><ele>147.0</ele><time>2026-04-09T14:37:58Z</time></trkpt><trkpt lat="44.04253324422206" lon="4.306654490395004"><ele>145.66666666666666</ele><time>2026-04-09T14:37:59Z</time></trkpt><trkpt lat="44.0425292109261" lon="4.306914491178726"><ele>144.33333333333331</ele><time>2026-04-09T14:38:00Z</time></trkpt><trkpt lat="44.042522795457806" lon="4.307175816459023"><ele>143.0</ele><time>2026-04-09T14:38:01Z</time></trkpt><trkpt lat="44.04251633409252" lon="4.30743624067609"><ele>142.66666666666666</ele><time>2026-04-09T14:38:02Z</time></trkpt><trkpt lat="44.042509256404934" lon="4.307697060663772"><ele>142.33333333333334</ele><time>2026-04-09T14:38:03Z</time></trkpt><trkpt lat="44.04250288569946" lon="4.307957524496234"><ele>142.0</ele><time>2026-04-09T14:38:04Z</time></trkpt><trkpt lat="44.042498803441134" lon="4.308216716832215"><ele>142.0</ele><time>2026-04-09T14:38:05Z</time></trkpt><trkpt lat="44.042492367763856" lon="4.308470906092031"><ele>142.0</ele><time>2026-04-09T14:38:06Z</time></trkpt><trkpt lat="44.04248503420383" lon="4.308720583372468"><ele>142.0</ele><time>2026-04-09T14:38:07Z</time></trkpt><trkpt lat="44.0424751187185" lon="4.308965641511368"><ele>143.33333333333334</ele><time>2026-04-09T14:38:08Z</time></trkpt><trkpt lat="44.04243908242861" lon="4.309207264223138"><ele>144.66666666666666</ele><time>2026-04-09T14:38:09Z</time></trkpt><trkpt lat="44.042378776137056" lon="4.309446409841118"><ele>146.0</ele><time>2026-04-09T14:38:10Z</time></trkpt><trkpt lat="44.04229105343058" lon="4.309676378647127"><ele>146.0</ele><time>2026-04-09T14:38:11Z</time></trkpt><trkpt lat="44.04218329862165" lon="4.309895544993398"><ele>146.0</ele><time>2026-04-09T14:38:12Z</time></trkpt><trkpt lat="44.042068703817364" lon="4.310110652059077"><ele>146.0</ele><time>2026-04-09T14:38:13Z</time></trkpt><trkpt lat="44.04195280952216" lon="4.310321698829973"><ele>146.0</ele><time>2026-04-09T14:38:14Z</time></trkpt><trkpt lat="44.04183571141004" lon="4.310534536046592"><ele>146.0</ele><time>2026-04-09T14:38:15Z</time></trkpt><trkpt lat="44.04171448379219" lon="4.310747414105019"><ele>146.0</ele><time>2026-04-09T14:38:16Z</time></trkpt><trkpt lat="44.04159155441319" lon="4.310962307739744"><ele>143.0</ele><time>2026-04-09T14:38:17Z</time></trkpt><trkpt lat="44.04146854885731" lon="4.311176284820533"><ele>140.0</ele><time>2026-04-09T14:38:18Z</time></trkpt><trkpt lat="44.04134842147947" lon="4.311383638540074"><ele>137.0</ele><time>2026-04-09T14:38:19Z</time></trkpt><trkpt lat="44.041236079548746" lon="4.311580649044692"><ele>137.0</ele><time>2026-04-09T14:38:20Z</time></trkpt><trkpt lat="44.04112530538487" lon="4.3117791260462495"><ele>137.0</ele><time>2026-04-09T14:38:21Z</time></trkpt><trkpt lat="44.041020206959324" lon="4.311972382249697"><ele>137.0</ele><time>2026-04-09T14:38:22Z</time></trkpt><trkpt lat="44.04091124969363" lon="4.31216360394693"><ele>137.33333333333331</ele><time>2026-04-09T14:38:23Z</time></trkpt><trkpt lat="44.04079985718364" lon="4.312360693572669"><ele>137.66666666666666</ele><time>2026-04-09T14:38:24Z</time></trkpt><trkpt lat="44.0406909629158" lon="4.312562045018534"><ele>138.0</ele><time>2026-04-09T14:38:25Z</time></trkpt><trkpt lat="44.04058163064037" lon="4.312766562107455"><ele>138.0</ele><time>2026-04-09T14:38:26Z</time></trkpt><trkpt lat="44.040467484118594" lon="4.312970989849242"><ele>138.0</ele><time>2026-04-09T14:38:27Z</time></trkpt><trkpt lat="44.040350738901274" lon="4.313175329609675"><ele>138.0</ele><time>2026-04-09T14:38:28Z</time></trkpt><trkpt lat="44.04023343191306" lon="4.31338331589526"><ele>138.33333333333334</ele><time>2026-04-09T14:38:29Z</time></trkpt><trkpt lat="44.040115883678475" lon="4.313588653405591"><ele>138.66666666666669</ele><time>2026-04-09T14:38:30Z</time></trkpt><trkpt lat="44.039999391769705" lon="4.3137950422317894"><ele>139.0</ele><time>2026-04-09T14:38:31Z</time></trkpt><trkpt lat="44.03988441748161" lon="4.313995163711555"><ele>140.0</ele><time>2026-04-09T14:38:32Z</time></trkpt><trkpt lat="44.03976917779886" lon="4.314192383464102"><ele>141.0</ele><time>2026-04-09T14:38:33Z</time></trkpt><trkpt lat="44.039658203215744" lon="4.314393474253188"><ele>142.0</ele><time>2026-04-09T14:38:34Z</time></trkpt><trkpt lat="44.03954468034922" lon="4.314589716308413"><ele>143.66666666666669</ele><time>2026-04-09T14:38:35Z</time></trkpt><trkpt lat="44.03943214733236" lon="4.314788114339598"><ele>145.33333333333334</ele><time>2026-04-09T14:38:36Z</time></trkpt><trkpt lat="44.03933749210699" lon="4.314999358214099"><ele>147.0</ele><time>2026-04-09T14:38:37Z</time></trkpt><trkpt lat="44.039266932106315" lon="4.315220951721151"><ele>147.0</ele><time>2026-04-09T14:38:38Z</time></trkpt><trkpt lat="44.03922688000651" lon="4.31546629756213"><ele>147.0</ele><time>2026-04-09T14:38:39Z</time></trkpt><trkpt lat="44.0392000759768" lon="4.315716402862067"><ele>147.0</ele><time>2026-04-09T14:38:40Z</time></trkpt><trkpt lat="44.039167072039255" lon="4.315969453216781"><ele>147.66666666666666</ele><time>2026-04-09T14:38:41Z</time></trkpt><trkpt lat="44.03913206598406" lon="4.316219750949405"><ele>148.33333333333331</ele><time>2026-04-09T14:38:42Z</time></trkpt><trkpt lat="44.039099671994855" lon="4.316475134001703"><ele>149.0</ele><time>2026-04-09T14:38:43Z</time></trkpt><trkpt lat="44.03906988694208" lon="4.3167279642980105"><ele>150.33333333333331</ele><time>2026-04-09T14:38:44Z</time></trkpt><trkpt lat="44.03903574854724" lon="4.316981372749701"><ele>151.66666666666666</ele><time>2026-04-09T14:38:45Z</time></trkpt><trkpt lat="44.03900115196193" lon="4.317232304452586"><ele>153.0</ele><time>2026-04-09T14:38:46Z</time></trkpt><trkpt lat="44.038967984056924" lon="4.317477271209229"><ele>154.0</ele><time>2026-04-09T14:38:47Z</time></trkpt><trkpt lat="44.03893519418161" lon="4.317720858232851"><ele>155.0</ele><time>2026-04-09T14:38:48Z</time></trkpt><trkpt lat="44.03890112456994" lon="4.317965221892542"><ele>156.0</ele><time>2026-04-09T14:38:49Z</time></trkpt><trkpt lat="44.03886675691893" lon="4.318211854664125"><ele>157.33333333333334</ele><time>2026-04-09T14:38:50Z</time></trkpt><trkpt lat="44.038832894432495" lon="4.318457540585594"><ele>158.66666666666669</ele><time>2026-04-09T14:38:51Z</time></trkpt><trkpt lat="44.03879925737181" lon="4.318703188592724"><ele>160.0</ele><time>2026-04-09T14:38:52Z</time></trkpt><trkpt lat="44.038767794491214" lon="4.3189526198013155"><ele>160.0</ele><time>2026-04-09T14:38:53Z</time></trkpt><trkpt lat="44.03873410174289" lon="4.319204016001112"><ele>160.0</ele><time>2026-04-09T14:38:54Z</time></trkpt><trkpt lat="44.03870068261643" lon="4.319459154003575"><ele>160.0</ele><time>2026-04-09T14:38:55Z</time></trkpt><trkpt lat="44.03866812199761" lon="4.319719070120698"><ele>160.66666666666669</ele><time>2026-04-09T14:38:56Z</time></trkpt><trkpt lat="44.03863317110233" lon="4.319980632902499"><ele>161.33333333333334</ele><time>2026-04-09T14:38:57Z</time></trkpt><trkpt lat="44.038598899215074" lon="4.32024445146444"><ele>162.0</ele><time>2026-04-09T14:38:58Z</time></trkpt><trkpt lat="44.03856347213506" lon="4.320509928376755"><ele>163.0</ele><time>2026-04-09T14:38:59Z</time></trkpt><trkpt lat="44.038531683062295" lon="4.320774597833766"><ele>164.0</ele><time>2026-04-09T14:39:00Z</time></trkpt><trkpt lat="44.03849873399661" lon="4.3210351974054815"><ele>165.0</ele><time>2026-04-09T14:39:01Z</time></trkpt><trkpt lat="44.038466580783286" lon="4.321289873645275"><ele>165.33333333333334</ele><time>2026-04-09T14:39:02Z</time></trkpt><trkpt lat="44.03843383633749" lon="4.321544014366284"><ele>165.66666666666669</ele><time>2026-04-09T14:39:03Z</time></trkpt><trkpt lat="44.03840007130335" lon="4.321796499234768"><ele>166.0</ele><time>2026-04-09T14:39:04Z</time></trkpt><trkpt lat="44.03836545588567" lon="4.322045920743633"><ele>167.0</ele><time>2026-04-09T14:39:05Z</time></trkpt><trkpt lat="44.038332159240746" lon="4.322293068910913"><ele>168.0</ele><time>2026-04-09T14:39:06Z</time></trkpt><trkpt lat="44.038299388380864" lon="4.3225380466252155"><ele>169.0</ele><time>2026-04-09T14:39:07Z</time></trkpt><trkpt lat="44.03826731942217" lon="4.322781445520945"><ele>168.33333333333334</ele><time>2026-04-09T14:39:08Z</time></trkpt><trkpt lat="44.03823557883096" lon="4.323022603713669"><ele>167.66666666666666</ele><time>2026-04-09T14:39:09Z</time></trkpt><trkpt lat="44.03820603729606" lon="4.323263398492658"><ele>167.0</ele><time>2026-04-09T14:39:10Z</time></trkpt><trkpt lat="44.03817149738751" lon="4.3235008472424346"><ele>167.0</ele><time>2026-04-09T14:39:11Z</time></trkpt><trkpt lat="44.038142000805784" lon="4.323731730693407"><ele>167.0</ele><time>2026-04-09T14:39:12Z</time></trkpt><trkpt lat="44.03810152513073" lon="4.323964669559596"><ele>167.0</ele><time>2026-04-09T14:39:13Z</time></trkpt><trkpt lat="44.038058099186976" lon="4.324193375505137"><ele>169.0</ele><time>2026-04-09T14:39:14Z</time></trkpt><trkpt lat="44.03800286262001" lon="4.324415620074078"><ele>171.0</ele><time>2026-04-09T14:39:15Z</time></trkpt><trkpt lat="44.03794609886571" lon="4.32463495405589"><ele>173.0</ele><time>2026-04-09T14:39:16Z</time></trkpt><trkpt lat="44.03788247774196" lon="4.324855485147789"><ele>173.66666666666666</ele><time>2026-04-09T14:39:17Z</time></trkpt><trkpt lat="44.037814534328845" lon="4.32507635467072"><ele>174.33333333333334</ele><time>2026-04-09T14:39:18Z</time></trkpt><trkpt lat="44.03774791751749" lon="4.3253059964279075"><ele>175.0</ele><time>2026-04-09T14:39:19Z</time></trkpt><trkpt lat="44.03768103006042" lon="4.325545527223952"><ele>173.33333333333334</ele><time>2026-04-09T14:39:20Z</time></trkpt><trkpt lat="44.03761909146289" lon="4.32578880183097"><ele>171.66666666666666</ele><time>2026-04-09T14:39:21Z</time></trkpt><trkpt lat="44.0375648335487" lon="4.32604090439699"><ele>170.0</ele><time>2026-04-09T14:39:22Z</time></trkpt><trkpt lat="44.03752614305079" lon="4.326307333303624"><ele>168.66666666666666</ele><time>2026-04-09T14:39:23Z</time></trkpt><trkpt lat="44.03750098495646" lon="4.326583130843519"><ele>167.33333333333334</ele><time>2026-04-09T14:39:24Z</time></trkpt><trkpt lat="44.037482289605855" lon="4.326860294194503"><ele>166.0</ele><time>2026-04-09T14:39:25Z</time></trkpt><trkpt lat="44.03746660378994" lon="4.327139334347939"><ele>164.66666666666669</ele><time>2026-04-09T14:39:26Z</time></trkpt><trkpt lat="44.037449961987505" lon="4.327420318045261"><ele>163.33333333333334</ele><time>2026-04-09T14:39:27Z</time></trkpt><trkpt lat="44.03743222221138" lon="4.3277090621072185"><ele>162.0</ele><time>2026-04-09T14:39:28Z</time></trkpt><trkpt lat="44.037410302803224" lon="4.327996632548518"><ele>161.0</ele><time>2026-04-09T14:39:29Z</time></trkpt><trkpt lat="44.037392015428765" lon="4.328283800545061"><ele>160.0</ele><time>2026-04-09T14:39:30Z</time></trkpt><trkpt lat="44.03737823276401" lon="4.328570606457044"><ele>159.0</ele><time>2026-04-09T14:39:31Z</time></trkpt><trkpt lat="44.03737806745004" lon="4.328857861581516"><ele>158.0</ele><time>2026-04-09T14:39:32Z</time></trkpt><trkpt lat="44.03739722226572" lon="4.329144722525036"><ele>157.0</ele><time>2026-04-09T14:39:33Z</time></trkpt><trkpt lat="44.03742623600379" lon="4.329430861053838"><ele>156.0</ele><time>2026-04-09T14:39:34Z</time></trkpt><trkpt lat="44.0374714776976" lon="4.329721904770868"><ele>155.0</ele><time>2026-04-09T14:39:35Z</time></trkpt><trkpt lat="44.03751353968441" lon="4.330011542346223"><ele>154.0</ele><time>2026-04-09T14:39:36Z</time></trkpt><trkpt lat="44.03755052918573" lon="4.330294511199142"><ele>153.0</ele><time>2026-04-09T14:39:37Z</time></trkpt><trkpt lat="44.03758840329872" lon="4.330577094378553"><ele>152.0</ele><time>2026-04-09T14:39:38Z</time></trkpt><trkpt lat="44.03762783369332" lon="4.330854726965563"><ele>151.0</ele><time>2026-04-09T14:39:39Z</time></trkpt><trkpt lat="44.03766759943623" lon="4.331134869396451"><ele>150.0</ele><time>2026-04-09T14:39:40Z</time></trkpt><trkpt lat="44.037707782796815" lon="4.331416501641462"><ele>149.0</ele><time>2026-04-09T14:39:41Z</time></trkpt><trkpt lat="44.03774851381436" lon="4.331698118127466"><ele>148.0</ele><time>2026-04-09T14:39:42Z</time></trkpt><trkpt lat="44.037789973510364" lon="4.33198341024943"><ele>147.0</ele><time>2026-04-09T14:39:43Z</time></trkpt><trkpt lat="44.03783235727546" lon="4.3322628286623095"><ele>146.66666666666666</ele><time>2026-04-09T14:39:44Z</time></trkpt><trkpt lat="44.037874626718306" lon="4.332546501541066"><ele>146.33333333333331</ele><time>2026-04-09T14:39:45Z</time></trkpt><trkpt lat="44.03791313169851" lon="4.332829307773754"><ele>146.0</ele><time>2026-04-09T14:39:46Z</time></trkpt><trkpt lat="44.037951587797174" lon="4.333110228422336"><ele>145.33333333333331</ele><time>2026-04-09T14:39:47Z</time></trkpt><trkpt lat="44.0379903639703" lon="4.33339072326154"><ele>144.66666666666666</ele><time>2026-04-09T14:39:48Z</time></trkpt><trkpt lat="44.03803127364747" lon="4.333670474783361"><ele>144.0</ele><time>2026-04-09T14:39:49Z</time></trkpt><trkpt lat="44.03807204624767" lon="4.333949154041773"><ele>143.33333333333334</ele><time>2026-04-09T14:39:50Z</time></trkpt><trkpt lat="44.0381155353842" lon="4.334226223651068"><ele>142.66666666666669</ele><time>2026-04-09T14:39:51Z</time></trkpt><trkpt lat="44.038154822146105" lon="4.334504146464268"><ele>142.0</ele><time>2026-04-09T14:39:52Z</time></trkpt><trkpt lat="44.03819506479776" lon="4.334777784219152"><ele>141.33333333333334</ele><time>2026-04-09T14:39:53Z</time></trkpt><trkpt lat="44.038233945408294" lon="4.335051774803835"><ele>140.66666666666666</ele><time>2026-04-09T14:39:54Z</time></trkpt><trkpt lat="44.038273311783605" lon="4.335326045502331"><ele>140.0</ele><time>2026-04-09T14:39:55Z</time></trkpt><trkpt lat="44.0383107457586" lon="4.335599738181999"><ele>138.66666666666666</ele><time>2026-04-09T14:39:56Z</time></trkpt><trkpt lat="44.03834799239923" lon="4.335868764159688"><ele>137.33333333333334</ele><time>2026-04-09T14:39:57Z</time></trkpt><trkpt lat="44.038388623180396" lon="4.336138905941629"><ele>136.0</ele><time>2026-04-09T14:39:58Z</time></trkpt><trkpt lat="44.038428709495115" lon="4.336420722524044"><ele>135.66666666666669</ele><time>2026-04-09T14:39:59Z</time></trkpt><trkpt lat="44.038469769725495" lon="4.336707439872352"><ele>135.33333333333334</ele><time>2026-04-09T14:40:00Z</time></trkpt><trkpt lat="44.038510905487904" lon="4.336997580768301"><ele>135.0</ele><time>2026-04-09T14:40:01Z</time></trkpt><trkpt lat="44.03855273046996" lon="4.337289376055198"><ele>133.66666666666666</ele><time>2026-04-09T14:40:02Z</time></trkpt><trkpt lat="44.038592894455945" lon="4.3375784767223715"><ele>132.33333333333331</ele><time>2026-04-09T14:40:03Z</time></trkpt><trkpt lat="44.03863320012125" lon="4.337866958226594"><ele>131.0</ele><time>2026-04-09T14:40:04Z</time></trkpt><trkpt lat="44.038672902137485" lon="4.338156685921753"><ele>130.33333333333331</ele><time>2026-04-09T14:40:05Z</time></trkpt><trkpt lat="44.03871291415075" lon="4.338444765152146"><ele>129.66666666666666</ele><time>2026-04-09T14:40:06Z</time></trkpt><trkpt lat="44.038751520412426" lon="4.338733258606928"><ele>129.0</ele><time>2026-04-09T14:40:07Z</time></trkpt><trkpt lat="44.038790884534016" lon="4.339017009008419"><ele>128.33333333333334</ele><time>2026-04-09T14:40:08Z</time></trkpt><trkpt lat="44.038829317297356" lon="4.339297628711446"><ele>127.66666666666667</ele><time>2026-04-09T14:40:09Z</time></trkpt><trkpt lat="44.038869013312954" lon="4.339573546747465"><ele>127.0</ele><time>2026-04-09T14:40:10Z</time></trkpt><trkpt lat="44.03890870098703" lon="4.339849536993917"><ele>126.66666666666667</ele><time>2026-04-09T14:40:11Z</time></trkpt><trkpt lat="44.038943908745075" lon="4.3401255686262585"><ele>126.33333333333334</ele><time>2026-04-09T14:40:12Z</time></trkpt><trkpt lat="44.03897854509355" lon="4.340404237543903"><ele>126.0</ele><time>2026-04-09T14:40:13Z</time></trkpt><trkpt lat="44.03901328750209" lon="4.340681834520124"><ele>125.66666666666666</ele><time>2026-04-09T14:40:14Z</time></trkpt><trkpt lat="44.039050030578196" lon="4.34095426185722"><ele>125.33333333333333</ele><time>2026-04-09T14:40:15Z</time></trkpt><trkpt lat="44.03908995457905" lon="4.341218894132877"><ele>125.0</ele><time>2026-04-09T14:40:16Z</time></trkpt><trkpt lat="44.03913681304537" lon="4.341472852420967"><ele>124.33333333333333</ele><time>2026-04-09T14:40:17Z</time></trkpt><trkpt lat="44.039191396527535" lon="4.34172167648332"><ele>123.66666666666666</ele><time>2026-04-09T14:40:18Z</time></trkpt><trkpt lat="44.03924326310012" lon="4.341971021395387"><ele>123.0</ele><time>2026-04-09T14:40:19Z</time></trkpt><trkpt lat="44.03928827538767" lon="4.342217440763146"><ele>122.33333333333334</ele><time>2026-04-09T14:40:20Z</time></trkpt><trkpt lat="44.03931606605309" lon="4.342468024579897"><ele>121.66666666666667</ele><time>2026-04-09T14:40:21Z</time></trkpt><trkpt lat="44.03932658269236" lon="4.342724191065654"><ele>121.0</ele><time>2026-04-09T14:40:22Z</time></trkpt><trkpt lat="44.03931136955134" lon="4.342981637997647"><ele>120.66666666666667</ele><time>2026-04-09T14:40:23Z</time></trkpt><trkpt lat="44.0392851810247" lon="4.343242004824596"><ele>120.33333333333334</ele><time>2026-04-09T14:40:24Z</time></trkpt><trkpt lat="44.03926275900125" lon="4.3435030446933895"><ele>120.0</ele><time>2026-04-09T14:40:25Z</time></trkpt><trkpt lat="44.03923744097894" lon="4.34376783375109"><ele>119.33333333333334</ele><time>2026-04-09T14:40:26Z</time></trkpt><trkpt lat="44.03921401553882" lon="4.344035813033673"><ele>118.66666666666667</ele><time>2026-04-09T14:40:27Z</time></trkpt><trkpt lat="44.039188548251644" lon="4.344303488889428"><ele>118.0</ele><time>2026-04-09T14:40:28Z</time></trkpt><trkpt lat="44.039159526574316" lon="4.344572245851805"><ele>116.66666666666667</ele><time>2026-04-09T14:40:29Z</time></trkpt><trkpt lat="44.03912887405983" lon="4.344839742118787"><ele>115.33333333333334</ele><time>2026-04-09T14:40:30Z</time></trkpt><trkpt lat="44.039100126019704" lon="4.345104818725877"><ele>114.0</ele><time>2026-04-09T14:40:31Z</time></trkpt><trkpt lat="44.03907319194845" lon="4.345365211228684"><ele>113.33333333333334</ele><time>2026-04-09T14:40:32Z</time></trkpt><trkpt lat="44.03904730323389" lon="4.345624747306943"><ele>112.66666666666667</ele><time>2026-04-09T14:40:33Z</time></trkpt><trkpt lat="44.03901897513981" lon="4.345883087274008"><ele>112.0</ele><time>2026-04-09T14:40:34Z</time></trkpt><trkpt lat="44.03898928091952" lon="4.346138780503905"><ele>112.66666666666667</ele><time>2026-04-09T14:40:35Z</time></trkpt><trkpt lat="44.03895925349883" lon="4.346394710454669"><ele>113.33333333333334</ele><time>2026-04-09T14:40:36Z</time></trkpt><trkpt lat="44.03893044228413" lon="4.3466529708948585"><ele>114.0</ele><time>2026-04-09T14:40:37Z</time></trkpt><trkpt lat="44.038902951008694" lon="4.34690219528905"><ele>114.0</ele><time>2026-04-09T14:40:38Z</time></trkpt><trkpt lat="44.03887748440134" lon="4.347148497246751"><ele>114.0</ele><time>2026-04-09T14:40:39Z</time></trkpt><trkpt lat="44.03886322868705" lon="4.347392727223437"><ele>114.0</ele><time>2026-04-09T14:40:40Z</time></trkpt><trkpt lat="44.03886445742294" lon="4.347638723932131"><ele>116.33333333333334</ele><time>2026-04-09T14:40:41Z</time></trkpt><trkpt lat="44.03888262123598" lon="4.347881513566268"><ele>118.66666666666667</ele><time>2026-04-09T14:40:42Z</time></trkpt><trkpt lat="44.038912244273966" lon="4.348122638271937"><ele>121.0</ele><time>2026-04-09T14:40:43Z</time></trkpt><trkpt lat="44.03894704838694" lon="4.348364212623113"><ele>121.0</ele><time>2026-04-09T14:40:44Z</time></trkpt><trkpt lat="44.03897824536394" lon="4.348604915140884"><ele>121.0</ele><time>2026-04-09T14:40:45Z</time></trkpt><trkpt lat="44.03900760046923" lon="4.348848600663132"><ele>121.0</ele><time>2026-04-09T14:40:46Z</time></trkpt><trkpt lat="44.03904095668099" lon="4.349094356067383"><ele>120.66666666666667</ele><time>2026-04-09T14:40:47Z</time></trkpt><trkpt lat="44.039075003434235" lon="4.3493377522643"><ele>120.33333333333334</ele><time>2026-04-09T14:40:48Z</time></trkpt><trkpt lat="44.03910746152025" lon="4.349584133315525"><ele>120.0</ele><time>2026-04-09T14:40:49Z</time></trkpt><trkpt lat="44.03914103206249" lon="4.349833713474208"><ele>120.66666666666666</ele><time>2026-04-09T14:40:50Z</time></trkpt><trkpt lat="44.03917239279845" lon="4.3500856616734875"><ele>121.33333333333333</ele><time>2026-04-09T14:40:51Z</time></trkpt><trkpt lat="44.03920284875897" lon="4.3503405269638415"><ele>122.0</ele><time>2026-04-09T14:40:52Z</time></trkpt><trkpt lat="44.03923092217753" lon="4.350598405362712"><ele>121.0</ele><time>2026-04-09T14:40:53Z</time></trkpt><trkpt lat="44.03925712825168" lon="4.350859477386517"><ele>120.0</ele><time>2026-04-09T14:40:54Z</time></trkpt><trkpt lat="44.039273171739474" lon="4.351121232344721"><ele>119.0</ele><time>2026-04-09T14:40:55Z</time></trkpt><trkpt lat="44.03927425903925" lon="4.351383091755345"><ele>119.0</ele><time>2026-04-09T14:40:56Z</time></trkpt><trkpt lat="44.039256319460385" lon="4.351642226942259"><ele>119.0</ele><time>2026-04-09T14:40:57Z</time></trkpt><trkpt lat="44.03922288574256" lon="4.351898802719527"><ele>119.0</ele><time>2026-04-09T14:40:58Z</time></trkpt><trkpt lat="44.03918236268206" lon="4.3521526676027005"><ele>118.66666666666666</ele><time>2026-04-09T14:40:59Z</time></trkpt><trkpt lat="44.03914244381423" lon="4.35240849528513"><ele>118.33333333333334</ele><time>2026-04-09T14:41:00Z</time></trkpt><trkpt lat="44.03910267731509" lon="4.352664388884541"><ele>118.0</ele><time>2026-04-09T14:41:01Z</time></trkpt><trkpt lat="44.03907070774039" lon="4.352930864242567"><ele>118.33333333333334</ele><time>2026-04-09T14:41:02Z</time></trkpt><trkpt lat="44.03905058274682" lon="4.353202054902969"><ele>118.66666666666666</ele><time>2026-04-09T14:41:03Z</time></trkpt><trkpt lat="44.03904590552694" lon="4.353479000338428"><ele>119.0</ele><time>2026-04-09T14:41:04Z</time></trkpt><trkpt lat="44.0390572865694" lon="4.353759051621072"><ele>120.0</ele><time>2026-04-09T14:41:05Z</time></trkpt><trkpt lat="44.039086972981806" lon="4.354037869698861"><ele>121.0</ele><time>2026-04-09T14:41:06Z</time></trkpt><trkpt lat="44.03912207170126" lon="4.354311693366951"><ele>122.0</ele><time>2026-04-09T14:41:07Z</time></trkpt><trkpt lat="44.03915504035357" lon="4.354588774745514"><ele>119.0</ele><time>2026-04-09T14:41:08Z</time></trkpt><trkpt lat="44.03919337348171" lon="4.35485949152665"><ele>116.0</ele><time>2026-04-09T14:41:09Z</time></trkpt><trkpt lat="44.039229769544235" lon="4.355128968486407"><ele>113.0</ele><time>2026-04-09T14:41:10Z</time></trkpt><trkpt lat="44.03926578899723" lon="4.355393913221638"><ele>112.33333333333333</ele><time>2026-04-09T14:41:11Z</time></trkpt><trkpt lat="44.03930145416485" lon="4.355654587308661"><ele>111.66666666666666</ele><time>2026-04-09T14:41:12Z</time></trkpt><trkpt lat="44.03933366539705" lon="4.355910414523986"><ele>111.0</ele><time>2026-04-09T14:41:13Z</time></trkpt><trkpt lat="44.03935984423643" lon="4.356160286379079"><ele>110.33333333333334</ele><time>2026-04-09T14:41:14Z</time></trkpt><trkpt lat="44.03937306865949" lon="4.3564158900221255"><ele>109.66666666666667</ele><time>2026-04-09T14:41:15Z</time></trkpt><trkpt lat="44.039366827937116" lon="4.356669147378171"><ele>109.0</ele><time>2026-04-09T14:41:16Z</time></trkpt><trkpt lat="44.039337631366266" lon="4.3569262614175175"><ele>109.0</ele><time>2026-04-09T14:41:17Z</time></trkpt><trkpt lat="44.039285367115795" lon="4.357181626854703"><ele>109.0</ele><time>2026-04-09T14:41:18Z</time></trkpt><trkpt lat="44.039211262107756" lon="4.357422294185453"><ele>109.0</ele><time>2026-04-09T14:41:19Z</time></trkpt><trkpt lat="44.039109329285395" lon="4.3576416637299"><ele>110.0</ele><time>2026-04-09T14:41:20Z</time></trkpt><trkpt lat="44.03898449217282" lon="4.357839227722925"><ele>111.0</ele><time>2026-04-09T14:41:21Z</time></trkpt><trkpt lat="44.03884321046509" lon="4.358001020724934"><ele>112.0</ele><time>2026-04-09T14:41:22Z</time></trkpt><trkpt lat="44.03870190723932" lon="4.358151403456433"><ele>113.33333333333334</ele><time>2026-04-09T14:41:23Z</time></trkpt><trkpt lat="44.038560970932544" lon="4.3582928905992055"><ele>114.66666666666666</ele><time>2026-04-09T14:41:24Z</time></trkpt><trkpt lat="44.03842760056586" lon="4.3584232798599905"><ele>116.0</ele><time>2026-04-09T14:41:25Z</time></trkpt><trkpt lat="44.03830908854041" lon="4.358536292584281"><ele>115.83333333333333</ele><time>2026-04-09T14:41:26Z</time></trkpt><trkpt lat="44.03820472222992" lon="4.358628970258595"><ele>115.66666666666666</ele><time>2026-04-09T14:41:27Z</time></trkpt><trkpt lat="44.038114441871485" lon="4.358706227833587"><ele>115.5</ele><time>2026-04-09T14:41:28Z</time></trkpt><trkpt lat="44.03805311179262" lon="4.358754649340626"><ele>115.33333333333334</ele><time>2026-04-09T14:41:29Z</time></trkpt><trkpt lat="44.03798842204139" lon="4.358799075564828"><ele>115.16666666666667</ele><time>2026-04-09T14:41:31Z</time></trkpt><trkpt lat="44.03791457745371" lon="4.358824990427961"><ele>115.0</ele><time>2026-04-09T14:41:33Z</time></trkpt><trkpt lat="44.03781759310893" lon="4.358828160545966"><ele>115.4</ele><time>2026-04-09T14:41:35Z</time></trkpt><trkpt lat="44.03769026615924" lon="4.358886727028062"><ele>115.8</ele><time>2026-04-09T14:41:37Z</time></trkpt><trkpt lat="44.037630457036265" lon="4.358960477896478"><ele>116.19999999999999</ele><time>2026-04-09T14:41:38Z</time></trkpt><trkpt lat="44.03758844413118" lon="4.359062686081759"><ele>116.6</ele><time>2026-04-09T14:41:39Z</time></trkpt><trkpt lat="44.03755338445551" lon="4.359179256294568"><ele>117.0</ele><time>2026-04-09T14:41:40Z</time></trkpt><trkpt lat="44.03751226792362" lon="4.359296559140269"><ele>117.19999999999999</ele><time>2026-04-09T14:41:41Z</time></trkpt><trkpt lat="44.03745556017798" lon="4.359410512093765"><ele>117.39999999999999</ele><time>2026-04-09T14:41:42Z</time></trkpt><trkpt lat="44.037381389913726" lon="4.35951334550565"><ele>117.60000000000001</ele><time>2026-04-09T14:41:43Z</time></trkpt><trkpt lat="44.037287449985584" lon="4.359600069824754"><ele>117.80000000000001</ele><time>2026-04-09T14:41:44Z</time></trkpt><trkpt lat="44.037190302290135" lon="4.359686860482821"><ele>118.0</ele><time>2026-04-09T14:41:45Z</time></trkpt><trkpt lat="44.037090949473345" lon="4.35978037472022"><ele>118.0</ele><time>2026-04-09T14:41:46Z</time></trkpt><trkpt lat="44.036989184334566" lon="4.359878402997453"><ele>118.0</ele><time>2026-04-09T14:41:47Z</time></trkpt><trkpt lat="44.0368835841523" lon="4.3599832909988026"><ele>118.0</ele><time>2026-04-09T14:41:48Z</time></trkpt><trkpt lat="44.03677469417085" lon="4.3600959973055575"><ele>118.0</ele><time>2026-04-09T14:41:49Z</time></trkpt><trkpt lat="44.03666199395616" lon="4.3602121741904885"><ele>117.5</ele><time>2026-04-09T14:41:50Z</time></trkpt><trkpt lat="44.03654804627828" lon="4.360327940291176"><ele>117.0</ele><time>2026-04-09T14:41:51Z</time></trkpt><trkpt lat="44.036429390721615" lon="4.360448727405482"><ele>116.5</ele><time>2026-04-09T14:41:52Z</time></trkpt><trkpt lat="44.0363084606605" lon="4.360573372999444"><ele>116.0</ele><time>2026-04-09T14:41:53Z</time></trkpt><trkpt lat="44.03618406970239" lon="4.360703713944984"><ele>116.0</ele><time>2026-04-09T14:41:54Z</time></trkpt><trkpt lat="44.03605813010815" lon="4.360842091212216"><ele>116.0</ele><time>2026-04-09T14:41:55Z</time></trkpt><trkpt lat="44.03593001116125" lon="4.360989182291415"><ele>116.0</ele><time>2026-04-09T14:41:56Z</time></trkpt><trkpt lat="44.03579971647202" lon="4.361143222359311"><ele>114.33333333333333</ele><time>2026-04-09T14:41:57Z</time></trkpt><trkpt lat="44.03567340885115" lon="4.361311064947444"><ele>112.66666666666666</ele><time>2026-04-09T14:41:58Z</time></trkpt><trkpt lat="44.0355522081857" lon="4.361493913418537"><ele>111.0</ele><time>2026-04-09T14:41:59Z</time></trkpt><trkpt lat="44.035437682113624" lon="4.361689734588371"><ele>111.0</ele><time>2026-04-09T14:42:00Z</time></trkpt><trkpt lat="44.03532609663553" lon="4.361891712111001"><ele>111.0</ele><time>2026-04-09T14:42:01Z</time></trkpt><trkpt lat="44.035216252502074" lon="4.362095930506795"><ele>111.0</ele><time>2026-04-09T14:42:02Z</time></trkpt><trkpt lat="44.035107373575876" lon="4.362305865162629"><ele>110.0</ele><time>2026-04-09T14:42:03Z</time></trkpt><trkpt lat="44.03500137099806" lon="4.362514467223613"><ele>109.0</ele><time>2026-04-09T14:42:04Z</time></trkpt><trkpt lat="44.034894622835196" lon="4.362723152695154"><ele>108.0</ele><time>2026-04-09T14:42:05Z</time></trkpt><trkpt lat="44.034788434020605" lon="4.3629320724723"><ele>108.66666666666666</ele><time>2026-04-09T14:42:06Z</time></trkpt><trkpt lat="44.034689309110476" lon="4.36314729718553"><ele>109.33333333333333</ele><time>2026-04-09T14:42:07Z</time></trkpt><trkpt lat="44.0345963780546" lon="4.363368739681955"><ele>110.0</ele><time>2026-04-09T14:42:08Z</time></trkpt><trkpt lat="44.03450483197628" lon="4.363593634933142"><ele>110.0</ele><time>2026-04-09T14:42:09Z</time></trkpt><trkpt lat="44.03441554628266" lon="4.36382144613357"><ele>110.0</ele><time>2026-04-09T14:42:10Z</time></trkpt><trkpt lat="44.03432737589944" lon="4.3640522204546"><ele>110.0</ele><time>2026-04-09T14:42:11Z</time></trkpt><trkpt lat="44.0342358256935" lon="4.364282089268698"><ele>111.33333333333333</ele><time>2026-04-09T14:42:12Z</time></trkpt><trkpt lat="44.03414500466401" lon="4.364516262720082"><ele>112.66666666666666</ele><time>2026-04-09T14:42:13Z</time></trkpt><trkpt lat="44.034056589204944" lon="4.364750037305225"><ele>114.0</ele><time>2026-04-09T14:42:14Z</time></trkpt><trkpt lat="44.033964978420414" lon="4.364980168479007"><ele>111.33333333333334</ele><time>2026-04-09T14:42:15Z</time></trkpt><trkpt lat="44.03387401087891" lon="4.365211746861909"><ele>108.66666666666667</ele><time>2026-04-09T14:42:16Z</time></trkpt><trkpt lat="44.033785725875966" lon="4.3654452195151725"><ele>106.0</ele><time>2026-04-09T14:42:17Z</time></trkpt><trkpt lat="44.033695968542226" lon="4.36568158681992"><ele>106.0</ele><time>2026-04-09T14:42:18Z</time></trkpt><trkpt lat="44.03360620261322" lon="4.36591627722731"><ele>106.0</ele><time>2026-04-09T14:42:19Z</time></trkpt><trkpt lat="44.03351563230656" lon="4.366154288427994"><ele>106.0</ele><time>2026-04-09T14:42:20Z</time></trkpt><trkpt lat="44.033425163293266" lon="4.366390686844761"><ele>106.66666666666667</ele><time>2026-04-09T14:42:21Z</time></trkpt><trkpt lat="44.03333392438977" lon="4.366623939771406"><ele>107.33333333333334</ele><time>2026-04-09T14:42:22Z</time></trkpt><trkpt lat="44.0332438188756" lon="4.366857230417082"><ele>108.0</ele><time>2026-04-09T14:42:23Z</time></trkpt><trkpt lat="44.03315444338649" lon="4.367087493251626"><ele>107.33333333333334</ele><time>2026-04-09T14:42:24Z</time></trkpt><trkpt lat="44.03306644997648" lon="4.367316739983936"><ele>106.66666666666667</ele><time>2026-04-09T14:42:25Z</time></trkpt><trkpt lat="44.032978289863046" lon="4.367545996543803"><ele>106.0</ele><time>2026-04-09T14:42:26Z</time></trkpt><trkpt lat="44.03288626345462" lon="4.367775375767078"><ele>106.0</ele><time>2026-04-09T14:42:27Z</time></trkpt><trkpt lat="44.032795552726924" lon="4.368006029867195"><ele>106.0</ele><time>2026-04-09T14:42:28Z</time></trkpt><trkpt lat="44.03270758018846" lon="4.3682375896890875"><ele>106.0</ele><time>2026-04-09T14:42:29Z</time></trkpt><trkpt lat="44.03261807287201" lon="4.368469157847072"><ele>106.33333333333334</ele><time>2026-04-09T14:42:30Z</time></trkpt><trkpt lat="44.032528991468396" lon="4.3687002046057275"><ele>106.66666666666666</ele><time>2026-04-09T14:42:31Z</time></trkpt><trkpt lat="44.03243852582012" lon="4.3689312843334775"><ele>107.0</ele><time>2026-04-09T14:42:32Z</time></trkpt><trkpt lat="44.032348709792096" lon="4.369160625666969"><ele>107.0</ele><time>2026-04-09T14:42:33Z</time></trkpt><trkpt lat="44.032260058046376" lon="4.369390260090762"><ele>107.0</ele><time>2026-04-09T14:42:34Z</time></trkpt><trkpt lat="44.032171323481464" lon="4.369618014004354"><ele>107.0</ele><time>2026-04-09T14:42:35Z</time></trkpt><trkpt lat="44.032083954508856" lon="4.369844384812771"><ele>107.0</ele><time>2026-04-09T14:42:36Z</time></trkpt><trkpt lat="44.0319962186765" lon="4.370068323541005"><ele>107.0</ele><time>2026-04-09T14:42:37Z</time></trkpt><trkpt lat="44.03190919815462" lon="4.3702915186280356"><ele>107.0</ele><time>2026-04-09T14:42:38Z</time></trkpt><trkpt lat="44.031821184486276" lon="4.370516937203767"><ele>107.0</ele><time>2026-04-09T14:42:39Z</time></trkpt><trkpt lat="44.03173157772044" lon="4.37074862223951"><ele>107.0</ele><time>2026-04-09T14:42:40Z</time></trkpt><trkpt lat="44.031642854670615" lon="4.370974504225531"><ele>107.0</ele><time>2026-04-09T14:42:41Z</time></trkpt><trkpt lat="44.03155833056839" lon="4.371196854718547"><ele>106.0</ele><time>2026-04-09T14:42:42Z</time></trkpt><trkpt lat="44.031472761467796" lon="4.371413340230204"><ele>105.0</ele><time>2026-04-09T14:42:43Z</time></trkpt><trkpt lat="44.03138846841886" lon="4.371623991865734"><ele>104.0</ele><time>2026-04-09T14:42:44Z</time></trkpt><trkpt lat="44.031307406882135" lon="4.371831312916397"><ele>104.0</ele><time>2026-04-09T14:42:45Z</time></trkpt><trkpt lat="44.03122681489467" lon="4.37203961868549"><ele>104.0</ele><time>2026-04-09T14:42:46Z</time></trkpt><trkpt lat="44.03114364081492" lon="4.372247635040697"><ele>104.0</ele><time>2026-04-09T14:42:47Z</time></trkpt><trkpt lat="44.03106284359633" lon="4.3724553365368815"><ele>103.66666666666666</ele><time>2026-04-09T14:42:48Z</time></trkpt><trkpt lat="44.030981743961966" lon="4.372660993426324"><ele>103.33333333333334</ele><time>2026-04-09T14:42:49Z</time></trkpt><trkpt lat="44.030905301648566" lon="4.372861609625505"><ele>103.0</ele><time>2026-04-09T14:42:50Z</time></trkpt><trkpt lat="44.03083067037495" lon="4.373059540392777"><ele>104.0</ele><time>2026-04-09T14:42:51Z</time></trkpt><trkpt lat="44.0307532741113" lon="4.3732549674110555"><ele>105.0</ele><time>2026-04-09T14:42:52Z</time></trkpt><trkpt lat="44.03067677544456" lon="4.373451621709387"><ele>106.0</ele><time>2026-04-09T14:42:53Z</time></trkpt><trkpt lat="44.030601375919126" lon="4.373650947450217"><ele>106.0</ele><time>2026-04-09T14:42:54Z</time></trkpt><trkpt lat="44.030524164115434" lon="4.373849372188511"><ele>106.0</ele><time>2026-04-09T14:42:55Z</time></trkpt><trkpt lat="44.03044888672607" lon="4.374039138290447"><ele>106.0</ele><time>2026-04-09T14:42:56Z</time></trkpt><trkpt lat="44.030376064696426" lon="4.37422363290911"><ele>106.0</ele><time>2026-04-09T14:42:57Z</time></trkpt><trkpt lat="44.030303800823035" lon="4.374404089608577"><ele>106.0</ele><time>2026-04-09T14:42:58Z</time></trkpt><trkpt lat="44.030234606730495" lon="4.374580541492924"><ele>106.0</ele><time>2026-04-09T14:42:59Z</time></trkpt><trkpt lat="44.03016673195283" lon="4.374751018987281"><ele>106.0</ele><time>2026-04-09T14:43:00Z</time></trkpt><trkpt lat="44.030101837585086" lon="4.374915413166048"><ele>105.5</ele><time>2026-04-09T14:43:01Z</time></trkpt><trkpt lat="44.030039965193865" lon="4.375071796438811"><ele>105.0</ele><time>2026-04-09T14:43:02Z</time></trkpt><trkpt lat="44.0299808992939" lon="4.375223966052927"><ele>104.5</ele><time>2026-04-09T14:43:03Z</time></trkpt><trkpt lat="44.02992516426441" lon="4.375371327267351"><ele>104.0</ele><time>2026-04-09T14:43:04Z</time></trkpt><trkpt lat="44.02987026383237" lon="4.375514726835763"><ele>104.5</ele><time>2026-04-09T14:43:05Z</time></trkpt><trkpt lat="44.029815107814095" lon="4.3756536655757685"><ele>105.0</ele><time>2026-04-09T14:43:06Z</time></trkpt><trkpt lat="44.029760927866505" lon="4.375792375353338"><ele>105.5</ele><time>2026-04-09T14:43:07Z</time></trkpt><trkpt lat="44.029706269583045" lon="4.375929667965408"><ele>106.0</ele><time>2026-04-09T14:43:08Z</time></trkpt><trkpt lat="44.02965379025312" lon="4.376066370294248"><ele>106.0</ele><time>2026-04-09T14:43:09Z</time></trkpt><trkpt lat="44.029599609954765" lon="4.376204552996656"><ele>106.0</ele><time>2026-04-09T14:43:10Z</time></trkpt><trkpt lat="44.02954425980015" lon="4.376344045771097"><ele>106.0</ele><time>2026-04-09T14:43:11Z</time></trkpt><trkpt lat="44.02948694032556" lon="4.376487658484244"><ele>106.0</ele><time>2026-04-09T14:43:12Z</time></trkpt><trkpt lat="44.02943073609194" lon="4.376635162530141"><ele>106.5</ele><time>2026-04-09T14:43:13Z</time></trkpt><trkpt lat="44.02937349704069" lon="4.376781025073196"><ele>107.0</ele><time>2026-04-09T14:43:14Z</time></trkpt><trkpt lat="44.02931605697226" lon="4.376927805778369"><ele>107.5</ele><time>2026-04-09T14:43:15Z</time></trkpt><trkpt lat="44.029259854915296" lon="4.37707334505251"><ele>108.0</ele><time>2026-04-09T14:43:16Z</time></trkpt><trkpt lat="44.02920422672697" lon="4.377215594457784"><ele>108.5</ele><time>2026-04-09T14:43:17Z</time></trkpt><trkpt lat="44.02914795693973" lon="4.377355544756248"><ele>109.0</ele><time>2026-04-09T14:43:18Z</time></trkpt><trkpt lat="44.029090335869355" lon="4.37749474452175"><ele>109.5</ele><time>2026-04-09T14:43:19Z</time></trkpt><trkpt lat="44.029033936177434" lon="4.3776354821660295"><ele>110.0</ele><time>2026-04-09T14:43:20Z</time></trkpt><trkpt lat="44.02897839064811" lon="4.377778290656943"><ele>109.75</ele><time>2026-04-09T14:43:21Z</time></trkpt><trkpt lat="44.028922377979725" lon="4.377921193772658"><ele>109.5</ele><time>2026-04-09T14:43:22Z</time></trkpt><trkpt lat="44.028866920057794" lon="4.3780672149517015"><ele>109.25</ele><time>2026-04-09T14:43:23Z</time></trkpt><trkpt lat="44.028812164156264" lon="4.3782089240168265"><ele>109.0</ele><time>2026-04-09T14:43:24Z</time></trkpt><trkpt lat="44.028759324276834" lon="4.378347739605819"><ele>109.0</ele><time>2026-04-09T14:43:25Z</time></trkpt><trkpt lat="44.02870677858411" lon="4.378483783395558"><ele>109.0</ele><time>2026-04-09T14:43:26Z</time></trkpt><trkpt lat="44.02865714767661" lon="4.37861504653384"><ele>109.0</ele><time>2026-04-09T14:43:27Z</time></trkpt><trkpt lat="44.02860951666429" lon="4.378741470810542"><ele>109.0</ele><time>2026-04-09T14:43:28Z</time></trkpt><trkpt lat="44.02856169741598" lon="4.378863424319098"><ele>109.0</ele><time>2026-04-09T14:43:29Z</time></trkpt><trkpt lat="44.02851706257135" lon="4.378978468234434"><ele>109.33333333333334</ele><time>2026-04-09T14:43:30Z</time></trkpt><trkpt lat="44.02847369345399" lon="4.379090558606973"><ele>109.66666666666667</ele><time>2026-04-09T14:43:31Z</time></trkpt><trkpt lat="44.02843290121268" lon="4.379196411092046"><ele>110.0</ele><time>2026-04-09T14:43:32Z</time></trkpt><trkpt lat="44.028392989690246" lon="4.379299145515718"><ele>110.33333333333334</ele><time>2026-04-09T14:43:33Z</time></trkpt><trkpt lat="44.028354979438014" lon="4.379396303465464"><ele>110.66666666666667</ele><time>2026-04-09T14:43:34Z</time></trkpt><trkpt lat="44.028318107528314" lon="4.379488071425099"><ele>111.0</ele><time>2026-04-09T14:43:35Z</time></trkpt><trkpt lat="44.02828068398053" lon="4.3795808228226285"><ele>111.0</ele><time>2026-04-09T14:43:36Z</time></trkpt><trkpt lat="44.02824691085617" lon="4.3796649150089255"><ele>111.0</ele><time>2026-04-09T14:43:37Z</time></trkpt><trkpt lat="44.028193959878685" lon="4.379811953028929"><ele>111.0</ele><time>2026-04-09T14:43:39Z</time></trkpt><trkpt lat="44.02814037769639" lon="4.379950961771895"><ele>111.0</ele><time>2026-04-09T14:43:41Z</time></trkpt><trkpt lat="44.02810911185068" lon="4.380030804747692"><ele>111.0</ele><time>2026-04-09T14:43:42Z</time></trkpt><trkpt lat="44.02807612043227" lon="4.380116352606516"><ele>111.0</ele><time>2026-04-09T14:43:43Z</time></trkpt><trkpt lat="44.02804011022381" lon="4.380209355159459"><ele>111.16666666666667</ele><time>2026-04-09T14:43:44Z</time></trkpt><trkpt lat="44.02800092629229" lon="4.380308910512303"><ele>111.33333333333334</ele><time>2026-04-09T14:43:45Z</time></trkpt><trkpt lat="44.027959277872455" lon="4.38041250891105"><ele>111.5</ele><time>2026-04-09T14:43:46Z</time></trkpt><trkpt lat="44.02791792280995" lon="4.380518192051363"><ele>111.66666666666667</ele><time>2026-04-09T14:43:47Z</time></trkpt><trkpt lat="44.02787639727926" lon="4.380622331426086"><ele>111.83333333333334</ele><time>2026-04-09T14:43:48Z</time></trkpt><trkpt lat="44.02783589142548" lon="4.380725588980886"><ele>112.0</ele><time>2026-04-09T14:43:49Z</time></trkpt><trkpt lat="44.027795436905365" lon="4.380829015941483"><ele>112.00000000000001</ele><time>2026-04-09T14:43:50Z</time></trkpt><trkpt lat="44.027755209413066" lon="4.380932597667838"><ele>112.0</ele><time>2026-04-09T14:43:51Z</time></trkpt><trkpt lat="44.02771556936599" lon="4.3810345882944945"><ele>112.0</ele><time>2026-04-09T14:43:52Z</time></trkpt><trkpt lat="44.02767618654723" lon="4.381136781679905"><ele>112.0</ele><time>2026-04-09T14:43:53Z</time></trkpt><trkpt lat="44.027636608103975" lon="4.381237679329894"><ele>112.00000000000001</ele><time>2026-04-09T14:43:54Z</time></trkpt><trkpt lat="44.027598386912885" lon="4.381338472652683"><ele>112.0</ele><time>2026-04-09T14:43:55Z</time></trkpt><trkpt lat="44.027560236518795" lon="4.381438504285211"><ele>112.00000000000001</ele><time>2026-04-09T14:43:56Z</time></trkpt><trkpt lat="44.02752111397874" lon="4.38153765089986"><ele>112.0</ele><time>2026-04-09T14:43:57Z</time></trkpt><trkpt lat="44.027481676604054" lon="4.381636433082538"><ele>112.0</ele><time>2026-04-09T14:43:58Z</time></trkpt><trkpt lat="44.02744389704048" lon="4.381735985888473"><ele>112.0</ele><time>2026-04-09T14:43:59Z</time></trkpt><trkpt lat="44.027405879839606" lon="4.381835130772565"><ele>112.00000000000001</ele><time>2026-04-09T14:44:00Z</time></trkpt><trkpt lat="44.027369520015675" lon="4.381933343440309"><ele>112.0</ele><time>2026-04-09T14:44:01Z</time></trkpt><trkpt lat="44.02733322356636" lon="4.3820285353872235"><ele>111.50000000000001</ele><time>2026-04-09T14:44:02Z</time></trkpt><trkpt lat="44.027294512946085" lon="4.382126051260542"><ele>111.0</ele><time>2026-04-09T14:44:03Z</time></trkpt><trkpt lat="44.027256151144506" lon="4.382224504116296"><ele>110.5</ele><time>2026-04-09T14:44:04Z</time></trkpt><trkpt lat="44.02721942988401" lon="4.382318796458832"><ele>110.0</ele><time>2026-04-09T14:44:05Z</time></trkpt><trkpt lat="44.027181208692035" lon="4.382410588472027"><ele>109.50000000000001</ele><time>2026-04-09T14:44:06Z</time></trkpt><trkpt lat="44.02714154950326" lon="4.382510340536243"><ele>109.0</ele><time>2026-04-09T14:44:07Z</time></trkpt><trkpt lat="44.0270975063808" lon="4.382619566899297"><ele>108.80000000000001</ele><time>2026-04-09T14:44:08Z</time></trkpt><trkpt lat="44.02704847923926" lon="4.382750679003742"><ele>108.60000000000001</ele><time>2026-04-09T14:44:09Z</time></trkpt><trkpt lat="44.026998648698104" lon="4.382875713480284"><ele>108.4</ele><time>2026-04-09T14:44:10Z</time></trkpt><trkpt lat="44.026947029935165" lon="4.383003653663066"><ele>108.2</ele><time>2026-04-09T14:44:11Z</time></trkpt><trkpt lat="44.02689464291134" lon="4.383134685742527"><ele>108.0</ele><time>2026-04-09T14:44:12Z</time></trkpt><trkpt lat="44.02684167401062" lon="4.383269662833131"><ele>108.5</ele><time>2026-04-09T14:44:13Z</time></trkpt><trkpt lat="44.026789971302804" lon="4.383404611207546"><ele>109.0</ele><time>2026-04-09T14:44:14Z</time></trkpt><trkpt lat="44.026737834152634" lon="4.383546229198985"><ele>109.5</ele><time>2026-04-09T14:44:15Z</time></trkpt><trkpt lat="44.026682530069046" lon="4.383688322937943"><ele>110.0</ele><time>2026-04-09T14:44:16Z</time></trkpt><trkpt lat="44.026626040273364" lon="4.383834472589113"><ele>109.25</ele><time>2026-04-09T14:44:17Z</time></trkpt><trkpt lat="44.02657229109278" lon="4.383976905307916"><ele>108.5</ele><time>2026-04-09T14:44:18Z</time></trkpt><trkpt lat="44.026518870271815" lon="4.384119084162384"><ele>107.75</ele><time>2026-04-09T14:44:19Z</time></trkpt><trkpt lat="44.026464937151054" lon="4.384261812795634"><ele>107.0</ele><time>2026-04-09T14:44:20Z</time></trkpt><trkpt lat="44.02640990228702" lon="4.384400917066283"><ele>107.0</ele><time>2026-04-09T14:44:21Z</time></trkpt><trkpt lat="44.02635532656154" lon="4.38454196070085"><ele>107.0</ele><time>2026-04-09T14:44:22Z</time></trkpt><trkpt lat="44.02629850728716" lon="4.3846834628173195"><ele>107.0</ele><time>2026-04-09T14:44:23Z</time></trkpt><trkpt lat="44.02624435727894" lon="4.384826234087594"><ele>107.0</ele><time>2026-04-09T14:44:24Z</time></trkpt><trkpt lat="44.026191615899734" lon="4.384958568065581"><ele>107.19999999999999</ele><time>2026-04-09T14:44:25Z</time></trkpt><trkpt lat="44.02613912647859" lon="4.385089031646953"><ele>107.39999999999999</ele><time>2026-04-09T14:44:26Z</time></trkpt><trkpt lat="44.02609106992072" lon="4.385214756045686"><ele>107.60000000000001</ele><time>2026-04-09T14:44:27Z</time></trkpt><trkpt lat="44.026040907628264" lon="4.385346926299253"><ele>107.80000000000001</ele><time>2026-04-09T14:44:28Z</time></trkpt><trkpt lat="44.02599273739293" lon="4.385475655093827"><ele>108.0</ele><time>2026-04-09T14:44:29Z</time></trkpt><trkpt lat="44.02594409115733" lon="4.385599737782105"><ele>108.60000000000001</ele><time>2026-04-09T14:44:30Z</time></trkpt><trkpt lat="44.02589368135553" lon="4.385727015809061"><ele>109.20000000000002</ele><time>2026-04-09T14:44:31Z</time></trkpt><trkpt lat="44.02584118187849" lon="4.3858568768618555"><ele>109.8</ele><time>2026-04-09T14:44:32Z</time></trkpt><trkpt lat="44.025791365397005" lon="4.385992047674885"><ele>110.4</ele><time>2026-04-09T14:44:33Z</time></trkpt><trkpt lat="44.025739814698234" lon="4.386132167883942"><ele>111.0</ele><time>2026-04-09T14:44:34Z</time></trkpt><trkpt lat="44.025683176654404" lon="4.386273345983558"><ele>111.5</ele><time>2026-04-09T14:44:35Z</time></trkpt><trkpt lat="44.02562685776559" lon="4.386421838549497"><ele>112.0</ele><time>2026-04-09T14:44:36Z</time></trkpt><trkpt lat="44.02557065995662" lon="4.38656388451678"><ele>112.5</ele><time>2026-04-09T14:44:37Z</time></trkpt><trkpt lat="44.02551328201819" lon="4.386711792704215"><ele>113.0</ele><time>2026-04-09T14:44:38Z</time></trkpt><trkpt lat="44.02545740704327" lon="4.386855691349484"><ele>113.0</ele><time>2026-04-09T14:44:39Z</time></trkpt><trkpt lat="44.025400619498676" lon="4.387003247549906"><ele>113.0</ele><time>2026-04-09T14:44:40Z</time></trkpt><trkpt lat="44.02534677004113" lon="4.3871487222350884"><ele>113.0</ele><time>2026-04-09T14:44:41Z</time></trkpt><trkpt lat="44.02529187412134" lon="4.387294914402375"><ele>113.0</ele><time>2026-04-09T14:44:42Z</time></trkpt><trkpt lat="44.02523814910933" lon="4.387436774062409"><ele>113.25</ele><time>2026-04-09T14:44:43Z</time></trkpt><trkpt lat="44.02518694487516" lon="4.387577995456323"><ele>113.5</ele><time>2026-04-09T14:44:44Z</time></trkpt><trkpt lat="44.02513370507068" lon="4.387718100599445"><ele>113.75</ele><time>2026-04-09T14:44:45Z</time></trkpt><trkpt lat="44.025080836379885" lon="4.387854173173067"><ele>114.0</ele><time>2026-04-09T14:44:46Z</time></trkpt><trkpt lat="44.02502957903425" lon="4.387993343246059"><ele>113.0</ele><time>2026-04-09T14:44:47Z</time></trkpt><trkpt lat="44.02497841887775" lon="4.388122983699051"><ele>112.0</ele><time>2026-04-09T14:44:48Z</time></trkpt><trkpt lat="44.02493077155814" lon="4.3882431794339265"><ele>111.0</ele><time>2026-04-09T14:44:49Z</time></trkpt><trkpt lat="44.02487427340966" lon="4.388355593520214"><ele>110.0</ele><time>2026-04-09T14:44:50Z</time></trkpt><trkpt lat="44.02479774030687" lon="4.388438102396386"><ele>109.0</ele><time>2026-04-09T14:44:51Z</time></trkpt><trkpt lat="44.024710066575636" lon="4.388489168306407"><ele>109.00000000000001</ele><time>2026-04-09T14:44:52Z</time></trkpt><trkpt lat="44.02462994742731" lon="4.388540088095835"><ele>109.0</ele><time>2026-04-09T14:44:53Z</time></trkpt><trkpt lat="44.02456482769382" lon="4.388613747959499"><ele>109.0</ele><time>2026-04-09T14:44:54Z</time></trkpt><trkpt lat="44.02451403543741" lon="4.388713260755559"><ele>109.0</ele><time>2026-04-09T14:44:55Z</time></trkpt><trkpt lat="44.024509876975365" lon="4.388828606854881"><ele>109.00000000000001</ele><time>2026-04-09T14:44:56Z</time></trkpt><trkpt lat="44.02452377003965" lon="4.388949777447957"><ele>109.0</ele><time>2026-04-09T14:44:57Z</time></trkpt><trkpt lat="44.02453368000193" lon="4.389084200757787"><ele>109.4</ele><time>2026-04-09T14:44:58Z</time></trkpt><trkpt lat="44.02451852914731" lon="4.389228557534447"><ele>109.80000000000001</ele><time>2026-04-09T14:44:59Z</time></trkpt><trkpt lat="44.0244845392589" lon="4.3893706763241145"><ele>110.19999999999999</ele><time>2026-04-09T14:45:00Z</time></trkpt><trkpt lat="44.024429148522074" lon="4.389499033919345"><ele>110.6</ele><time>2026-04-09T14:45:01Z</time></trkpt><trkpt lat="44.02438183023523" lon="4.389619099809358"><ele>111.0</ele><time>2026-04-09T14:45:02Z</time></trkpt><trkpt lat="44.02433623316632" lon="4.389741758235341"><ele>110.8</ele><time>2026-04-09T14:45:03Z</time></trkpt><trkpt lat="44.024292204487494" lon="4.389860281077505"><ele>110.6</ele><time>2026-04-09T14:45:04Z</time></trkpt><trkpt lat="44.02424379048048" lon="4.3899782327300105"><ele>110.4</ele><time>2026-04-09T14:45:05Z</time></trkpt><trkpt lat="44.024196046115875" lon="4.3900969333766495"><ele>110.2</ele><time>2026-04-09T14:45:06Z</time></trkpt><trkpt lat="44.024146732799046" lon="4.390220467706684"><ele>110.0</ele><time>2026-04-09T14:45:07Z</time></trkpt><trkpt lat="44.024095286627535" lon="4.390349174179468"><ele>110.0</ele><time>2026-04-09T14:45:08Z</time></trkpt><trkpt lat="44.024044347357695" lon="4.390483869139878"><ele>110.0</ele><time>2026-04-09T14:45:09Z</time></trkpt><trkpt lat="44.023991085077306" lon="4.390617166584118"><ele>110.0</ele><time>2026-04-09T14:45:10Z</time></trkpt><trkpt lat="44.023938759041314" lon="4.390755905103786"><ele>110.0</ele><time>2026-04-09T14:45:11Z</time></trkpt><trkpt lat="44.02388404638241" lon="4.390889226351769"><ele>110.0</ele><time>2026-04-09T14:45:12Z</time></trkpt><trkpt lat="44.0238353397182" lon="4.391024018210679"><ele>110.8</ele><time>2026-04-09T14:45:13Z</time></trkpt><trkpt lat="44.023778785840506" lon="4.391157183529253"><ele>111.6</ele><time>2026-04-09T14:45:14Z</time></trkpt><trkpt lat="44.02372787064226" lon="4.39128764586462"><ele>112.4</ele><time>2026-04-09T14:45:15Z</time></trkpt><trkpt lat="44.023676171240304" lon="4.391416730714394"><ele>113.2</ele><time>2026-04-09T14:45:16Z</time></trkpt><trkpt lat="44.02362644570125" lon="4.391546976983107"><ele>114.0</ele><time>2026-04-09T14:45:17Z</time></trkpt><trkpt lat="44.02357703959505" lon="4.391671607395023"><ele>114.4</ele><time>2026-04-09T14:45:18Z</time></trkpt><trkpt lat="44.02352924609064" lon="4.391797073894216"><ele>114.80000000000001</ele><time>2026-04-09T14:45:19Z</time></trkpt><trkpt lat="44.023477561205844" lon="4.391926754932556"><ele>115.19999999999999</ele><time>2026-04-09T14:45:20Z</time></trkpt><trkpt lat="44.023428906731866" lon="4.392059777530705"><ele>115.6</ele><time>2026-04-09T14:45:21Z</time></trkpt><trkpt lat="44.0233748983113" lon="4.392191858572715"><ele>116.0</ele><time>2026-04-09T14:45:22Z</time></trkpt><trkpt lat="44.02332648847873" lon="4.392324485893316"><ele>115.75</ele><time>2026-04-09T14:45:23Z</time></trkpt><trkpt lat="44.023271979974055" lon="4.3924608400263425"><ele>115.5</ele><time>2026-04-09T14:45:24Z</time></trkpt><trkpt lat="44.02321878936733" lon="4.392598139379654"><ele>115.25</ele><time>2026-04-09T14:45:25Z</time></trkpt><trkpt lat="44.023167395531225" lon="4.392735427002188"><ele>115.0</ele><time>2026-04-09T14:45:26Z</time></trkpt><trkpt lat="44.02311297098949" lon="4.392874668597633"><ele>115.0</ele><time>2026-04-09T14:45:27Z</time></trkpt><trkpt lat="44.023058919008726" lon="4.393014885921637"><ele>115.0</ele><time>2026-04-09T14:45:28Z</time></trkpt><trkpt lat="44.023003818260904" lon="4.3931557854892835"><ele>115.0</ele><time>2026-04-09T14:45:29Z</time></trkpt><trkpt lat="44.022947228149285" lon="4.393295451374056"><ele>115.0</ele><time>2026-04-09T14:45:30Z</time></trkpt><trkpt lat="44.022890344116654" lon="4.3934301375076545"><ele>115.0</ele><time>2026-04-09T14:45:31Z</time></trkpt><trkpt lat="44.022837787257174" lon="4.393565866773116"><ele>115.0</ele><time>2026-04-09T14:45:32Z</time></trkpt><trkpt lat="44.022787054476936" lon="4.393700874332448"><ele>115.0</ele><time>2026-04-09T14:45:33Z</time></trkpt><trkpt lat="44.0227352422593" lon="4.393837178191379"><ele>115.0</ele><time>2026-04-09T14:45:34Z</time></trkpt><trkpt lat="44.022683554725994" lon="4.3939748590553105"><ele>115.0</ele><time>2026-04-09T14:45:35Z</time></trkpt><trkpt lat="44.02262961791542" lon="4.3941149397216845"><ele>114.5</ele><time>2026-04-09T14:45:36Z</time></trkpt><trkpt lat="44.022573957731396" lon="4.3942599756707565"><ele>114.0</ele><time>2026-04-09T14:45:37Z</time></trkpt><trkpt lat="44.02251571589496" lon="4.394409407623046"><ele>113.5</ele><time>2026-04-09T14:45:38Z</time></trkpt><trkpt lat="44.02245672952755" lon="4.394565076408915"><ele>113.0</ele><time>2026-04-09T14:45:39Z</time></trkpt><trkpt lat="44.02239371902447" lon="4.394715915577958"><ele>113.0</ele><time>2026-04-09T14:45:40Z</time></trkpt><trkpt lat="44.02233305374331" lon="4.394871365419583"><ele>113.0</ele><time>2026-04-09T14:45:41Z</time></trkpt><trkpt lat="44.02227111251318" lon="4.395033293728864"><ele>113.0</ele><time>2026-04-09T14:45:42Z</time></trkpt><trkpt lat="44.02221055568694" lon="4.395197786892402"><ele>113.0</ele><time>2026-04-09T14:45:43Z</time></trkpt><trkpt lat="44.0221442878184" lon="4.3953654807198586"><ele>113.75</ele><time>2026-04-09T14:45:44Z</time></trkpt><trkpt lat="44.02207691386558" lon="4.395535577682627"><ele>114.5</ele><time>2026-04-09T14:45:45Z</time></trkpt><trkpt lat="44.02200907602941" lon="4.395712187893346"><ele>115.25</ele><time>2026-04-09T14:45:46Z</time></trkpt><trkpt lat="44.02194200492494" lon="4.395886415819173"><ele>116.0</ele><time>2026-04-09T14:45:47Z</time></trkpt><trkpt lat="44.021877145376564" lon="4.396054357392463"><ele>116.0</ele><time>2026-04-09T14:45:48Z</time></trkpt><trkpt lat="44.021812105315846" lon="4.396214900828943"><ele>116.0</ele><time>2026-04-09T14:45:49Z</time></trkpt><trkpt lat="44.02174944663329" lon="4.396371284919794"><ele>116.0</ele><time>2026-04-09T14:45:50Z</time></trkpt><trkpt lat="44.02168923645786" lon="4.396524555657959"><ele>116.0</ele><time>2026-04-09T14:45:51Z</time></trkpt><trkpt lat="44.02163128631938" lon="4.3966743705296025"><ele>116.0</ele><time>2026-04-09T14:45:52Z</time></trkpt><trkpt lat="44.021575605718745" lon="4.396821898771973"><ele>116.0</ele><time>2026-04-09T14:45:53Z</time></trkpt><trkpt lat="44.021519858495964" lon="4.396965824512535"><ele>116.0</ele><time>2026-04-09T14:45:54Z</time></trkpt><trkpt lat="44.02146395518593" lon="4.397109903001997"><ele>116.0</ele><time>2026-04-09T14:45:55Z</time></trkpt><trkpt lat="44.021406837949186" lon="4.39725320942472"><ele>116.0</ele><time>2026-04-09T14:45:56Z</time></trkpt><trkpt lat="44.02135086293645" lon="4.397400281057042"><ele>116.0</ele><time>2026-04-09T14:45:57Z</time></trkpt><trkpt lat="44.021296151662604" lon="4.397549333536957"><ele>116.0</ele><time>2026-04-09T14:45:58Z</time></trkpt><trkpt lat="44.021237580869794" lon="4.3977007444455145"><ele>116.0</ele><time>2026-04-09T14:45:59Z</time></trkpt><trkpt lat="44.021176191786076" lon="4.397856045155613"><ele>116.25</ele><time>2026-04-09T14:46:00Z</time></trkpt><trkpt lat="44.02111434038341" lon="4.398013855441125"><ele>116.5</ele><time>2026-04-09T14:46:01Z</time></trkpt><trkpt lat="44.02105107848072" lon="4.398172298901273"><ele>116.75</ele><time>2026-04-09T14:46:02Z</time></trkpt><trkpt lat="44.02098709522484" lon="4.398333368854104"><ele>117.0</ele><time>2026-04-09T14:46:03Z</time></trkpt><trkpt lat="44.02092492518205" lon="4.398495510813496"><ele>117.0</ele><time>2026-04-09T14:46:04Z</time></trkpt><trkpt lat="44.02086241151986" lon="4.398659385550137"><ele>117.0</ele><time>2026-04-09T14:46:05Z</time></trkpt><trkpt lat="44.02079929638858" lon="4.398821171267194"><ele>117.0</ele><time>2026-04-09T14:46:06Z</time></trkpt><trkpt lat="44.02073585256445" lon="4.39898200696619"><ele>117.0</ele><time>2026-04-09T14:46:07Z</time></trkpt><trkpt lat="44.020674155070154" lon="4.399142265171456"><ele>116.75</ele><time>2026-04-09T14:46:08Z</time></trkpt><trkpt lat="44.02061366260742" lon="4.399301983794315"><ele>116.5</ele><time>2026-04-09T14:46:09Z</time></trkpt><trkpt lat="44.02055427453644" lon="4.399457658949712"><ele>116.25</ele><time>2026-04-09T14:46:10Z</time></trkpt><trkpt lat="44.02049499550548" lon="4.399611409650534"><ele>116.0</ele><time>2026-04-09T14:46:11Z</time></trkpt><trkpt lat="44.02043743384817" lon="4.399763616959603"><ele>116.0</ele><time>2026-04-09T14:46:12Z</time></trkpt><trkpt lat="44.020381036953545" lon="4.3999121709675135"><ele>116.0</ele><time>2026-04-09T14:46:13Z</time></trkpt><trkpt lat="44.02032318542514" lon="4.40006193958315"><ele>116.0</ele><time>2026-04-09T14:46:14Z</time></trkpt><trkpt lat="44.02026579141048" lon="4.400206012343381"><ele>116.0</ele><time>2026-04-09T14:46:15Z</time></trkpt><trkpt lat="44.020209168061534" lon="4.400348919218728"><ele>116.0</ele><time>2026-04-09T14:46:16Z</time></trkpt><trkpt lat="44.020154140358024" lon="4.400488123913052"><ele>116.0</ele><time>2026-04-09T14:46:17Z</time></trkpt><trkpt lat="44.020102771181016" lon="4.400622032753759"><ele>116.0</ele><time>2026-04-09T14:46:18Z</time></trkpt><trkpt lat="44.020053310844446" lon="4.40075327935873"><ele>116.0</ele><time>2026-04-09T14:46:19Z</time></trkpt><trkpt lat="44.02000260732915" lon="4.400879549387762"><ele>116.0</ele><time>2026-04-09T14:46:20Z</time></trkpt><trkpt lat="44.01995382469187" lon="4.401002848203569"><ele>115.99999999999999</ele><time>2026-04-09T14:46:21Z</time></trkpt><trkpt lat="44.01990713253338" lon="4.401121935026672"><ele>116.0</ele><time>2026-04-09T14:46:22Z</time></trkpt><trkpt lat="44.01986471064854" lon="4.401228140200419"><ele>116.0</ele><time>2026-04-09T14:46:23Z</time></trkpt><trkpt lat="44.01982764839289" lon="4.4013211814626985"><ele>116.0</ele><time>2026-04-09T14:46:24Z</time></trkpt><trkpt lat="44.019795589546895" lon="4.4013994004325"><ele>115.99999999999999</ele><time>2026-04-09T14:46:25Z</time></trkpt><trkpt lat="44.01972729326998" lon="4.40152105823594"><ele>116.0</ele><time>2026-04-09T14:46:27Z</time></trkpt><trkpt lat="44.01963389878836" lon="4.401606171894371"><ele>115.99999999999999</ele><time>2026-04-09T14:46:29Z</time></trkpt><trkpt lat="44.01955388451043" lon="4.401721848223311"><ele>116.0</ele><time>2026-04-09T14:46:31Z</time></trkpt><trkpt lat="44.01953278291495" lon="4.4018065575130025"><ele>116.0</ele><time>2026-04-09T14:46:32Z</time></trkpt><trkpt lat="44.019521897154405" lon="4.401910018111221"><ele>116.0</ele><time>2026-04-09T14:46:33Z</time></trkpt><trkpt lat="44.019513317928805" lon="4.402016980730005"><ele>115.99999999999999</ele><time>2026-04-09T14:46:34Z</time></trkpt><trkpt lat="44.01949391150505" lon="4.402125203855677"><ele>116.0</ele><time>2026-04-09T14:46:35Z</time></trkpt><trkpt lat="44.01946317516174" lon="4.402232733822338"><ele>116.0</ele><time>2026-04-09T14:46:36Z</time></trkpt><trkpt lat="44.01942519261476" lon="4.402340330869092"><ele>116.0</ele><time>2026-04-09T14:46:37Z</time></trkpt><trkpt lat="44.019384003359185" lon="4.402450172848721"><ele>116.0</ele><time>2026-04-09T14:46:38Z</time></trkpt><trkpt lat="44.01933714897108" lon="4.402571185393839"><ele>116.0</ele><time>2026-04-09T14:46:39Z</time></trkpt><trkpt lat="44.01929228723617" lon="4.402687360734446"><ele>116.0</ele><time>2026-04-09T14:46:40Z</time></trkpt><trkpt lat="44.0192448170013" lon="4.402811869316227"><ele>116.0</ele><time>2026-04-09T14:46:41Z</time></trkpt><trkpt lat="44.019194503435045" lon="4.402938748251471"><ele>116.0</ele><time>2026-04-09T14:46:42Z</time></trkpt><trkpt lat="44.01914193330493" lon="4.403068435457903"><ele>116.0</ele><time>2026-04-09T14:46:43Z</time></trkpt><trkpt lat="44.01908756689891" lon="4.4032036515196955"><ele>116.0</ele><time>2026-04-09T14:46:44Z</time></trkpt><trkpt lat="44.01903361511426" lon="4.403351532655732"><ele>116.0</ele><time>2026-04-09T14:46:45Z</time></trkpt><trkpt lat="44.01897925926827" lon="4.403489967944011"><ele>116.19999999999999</ele><time>2026-04-09T14:46:46Z</time></trkpt><trkpt lat="44.01892506063242" lon="4.403627616752584"><ele>116.39999999999999</ele><time>2026-04-09T14:46:47Z</time></trkpt><trkpt lat="44.018874624623976" lon="4.403768936543476"><ele>116.6</ele><time>2026-04-09T14:46:48Z</time></trkpt><trkpt lat="44.018821740880675" lon="4.403902774343447"><ele>116.8</ele><time>2026-04-09T14:46:49Z</time></trkpt><trkpt lat="44.018771061494384" lon="4.404037353726317"><ele>117.0</ele><time>2026-04-09T14:46:50Z</time></trkpt><trkpt lat="44.01871947194322" lon="4.404168846323052"><ele>118.0</ele><time>2026-04-09T14:46:51Z</time></trkpt><trkpt lat="44.01866758928728" lon="4.404298388843971"><ele>118.99999999999999</ele><time>2026-04-09T14:46:52Z</time></trkpt><trkpt lat="44.01861629600821" lon="4.40442859433355"><ele>119.99999999999999</ele><time>2026-04-09T14:46:53Z</time></trkpt><trkpt lat="44.018565649834954" lon="4.404558470475905"><ele>121.0</ele><time>2026-04-09T14:46:54Z</time></trkpt><trkpt lat="44.01851512225289" lon="4.404687255687949"><ele>122.0</ele><time>2026-04-09T14:46:55Z</time></trkpt><trkpt lat="44.018462060854965" lon="4.404821138443696"><ele>122.0</ele><time>2026-04-09T14:46:56Z</time></trkpt><trkpt lat="44.0184067542818" lon="4.404963689600696"><ele>122.0</ele><time>2026-04-09T14:46:57Z</time></trkpt><trkpt lat="44.01834827268412" lon="4.405115079225339"><ele>122.0</ele><time>2026-04-09T14:46:58Z</time></trkpt><trkpt lat="44.01828904762823" lon="4.405266409793063"><ele>122.0</ele><time>2026-04-09T14:46:59Z</time></trkpt><trkpt lat="44.01822951611057" lon="4.405418361555112"><ele>121.25</ele><time>2026-04-09T14:47:00Z</time></trkpt><trkpt lat="44.01817075252308" lon="4.405568268431101"><ele>120.5</ele><time>2026-04-09T14:47:01Z</time></trkpt><trkpt lat="44.01811340858491" lon="4.405716523282834"><ele>119.75</ele><time>2026-04-09T14:47:02Z</time></trkpt><trkpt lat="44.01805665547656" lon="4.405862099170392"><ele>119.0</ele><time>2026-04-09T14:47:03Z</time></trkpt><trkpt lat="44.01800225508841" lon="4.40600707041698"><ele>119.0</ele><time>2026-04-09T14:47:04Z</time></trkpt><trkpt lat="44.01794862919457" lon="4.406149066147578"><ele>119.0</ele><time>2026-04-09T14:47:05Z</time></trkpt><trkpt lat="44.01789406811292" lon="4.4062901297129855"><ele>119.0</ele><time>2026-04-09T14:47:06Z</time></trkpt><trkpt lat="44.017838780706484" lon="4.406431145686871"><ele>119.0</ele><time>2026-04-09T14:47:07Z</time></trkpt><trkpt lat="44.01778185275959" lon="4.406573293820939"><ele>120.75</ele><time>2026-04-09T14:47:08Z</time></trkpt><trkpt lat="44.017723131744546" lon="4.406724078873505"><ele>122.5</ele><time>2026-04-09T14:47:09Z</time></trkpt><trkpt lat="44.01766091878477" lon="4.406878461717741"><ele>124.25</ele><time>2026-04-09T14:47:10Z</time></trkpt><trkpt lat="44.01759926789743" lon="4.407039681184864"><ele>126.0</ele><time>2026-04-09T14:47:11Z</time></trkpt><trkpt lat="44.017538091852174" lon="4.407202444456798"><ele>128.25</ele><time>2026-04-09T14:47:12Z</time></trkpt><trkpt lat="44.017473788109136" lon="4.407369696509573"><ele>130.5</ele><time>2026-04-09T14:47:13Z</time></trkpt><trkpt lat="44.017409390752995" lon="4.407535567819358"><ele>132.75</ele><time>2026-04-09T14:47:14Z</time></trkpt><trkpt lat="44.01734434044797" lon="4.407700507077965"><ele>135.0</ele><time>2026-04-09T14:47:15Z</time></trkpt><trkpt lat="44.01727867667385" lon="4.407864991329361"><ele>135.5</ele><time>2026-04-09T14:47:16Z</time></trkpt><trkpt lat="44.01721487074067" lon="4.408030959851538"><ele>136.0</ele><time>2026-04-09T14:47:17Z</time></trkpt><trkpt lat="44.01715012396737" lon="4.4081972718607405"><ele>136.5</ele><time>2026-04-09T14:47:18Z</time></trkpt><trkpt lat="44.01708581816316" lon="4.408365129259168"><ele>137.0</ele><time>2026-04-09T14:47:19Z</time></trkpt><trkpt lat="44.0170223504427" lon="4.408529802368618"><ele>137.0</ele><time>2026-04-09T14:47:20Z</time></trkpt><trkpt lat="44.0169589502172" lon="4.408694361659912"><ele>137.0</ele><time>2026-04-09T14:47:21Z</time></trkpt><trkpt lat="44.01689532935284" lon="4.408859551117015"><ele>137.0</ele><time>2026-04-09T14:47:22Z</time></trkpt><trkpt lat="44.01683263119225" lon="4.409021690017524"><ele>137.0</ele><time>2026-04-09T14:47:23Z</time></trkpt><trkpt lat="44.01677026648571" lon="4.409177645896747"><ele>137.25</ele><time>2026-04-09T14:47:24Z</time></trkpt><trkpt lat="44.0167102730191" lon="4.409331067360611"><ele>137.5</ele><time>2026-04-09T14:47:25Z</time></trkpt><trkpt lat="44.0166512585842" lon="4.409484903259249"><ele>137.75</ele><time>2026-04-09T14:47:26Z</time></trkpt><trkpt lat="44.0165962125466" lon="4.40963439629136"><ele>138.0</ele><time>2026-04-09T14:47:27Z</time></trkpt><trkpt lat="44.016537984259074" lon="4.409780273939111"><ele>138.5</ele><time>2026-04-09T14:47:28Z</time></trkpt><trkpt lat="44.01647676455091" lon="4.409934204301559"><ele>139.0</ele><time>2026-04-09T14:47:29Z</time></trkpt><trkpt lat="44.01641922992333" lon="4.410081948072906"><ele>139.5</ele><time>2026-04-09T14:47:30Z</time></trkpt><trkpt lat="44.016364162729" lon="4.410226592352807"><ele>140.0</ele><time>2026-04-09T14:47:31Z</time></trkpt><trkpt lat="44.0163085267923" lon="4.410367553892644"><ele>140.75</ele><time>2026-04-09T14:47:32Z</time></trkpt><trkpt lat="44.01625565811077" lon="4.410511277619681"><ele>141.5</ele><time>2026-04-09T14:47:33Z</time></trkpt><trkpt lat="44.01620432524231" lon="4.4106461175909075"><ele>142.25</ele><time>2026-04-09T14:47:34Z</time></trkpt><trkpt lat="44.01615012812384" lon="4.410785622062889"><ele>143.0</ele><time>2026-04-09T14:47:35Z</time></trkpt><trkpt lat="44.01609354295474" lon="4.41092695489133"><ele>143.0</ele><time>2026-04-09T14:47:36Z</time></trkpt><trkpt lat="44.01603621105043" lon="4.411069986145126"><ele>143.0</ele><time>2026-04-09T14:47:37Z</time></trkpt><trkpt lat="44.015981334504325" lon="4.411210988519096"><ele>143.0</ele><time>2026-04-09T14:47:38Z</time></trkpt><trkpt lat="44.0159275280579" lon="4.411353557394397"><ele>143.0</ele><time>2026-04-09T14:47:39Z</time></trkpt><trkpt lat="44.015872802184134" lon="4.411492021439539"><ele>142.25</ele><time>2026-04-09T14:47:40Z</time></trkpt><trkpt lat="44.015817609044156" lon="4.411632046070542"><ele>141.5</ele><time>2026-04-09T14:47:41Z</time></trkpt><trkpt lat="44.01576427171102" lon="4.411770796338584"><ele>140.75</ele><time>2026-04-09T14:47:42Z</time></trkpt><trkpt lat="44.01570973769941" lon="4.411906087830766"><ele>140.0</ele><time>2026-04-09T14:47:43Z</time></trkpt><trkpt lat="44.015657533253716" lon="4.412042627480988"><ele>140.0</ele><time>2026-04-09T14:47:44Z</time></trkpt><trkpt lat="44.0156042142596" lon="4.412178120014436"><ele>140.0</ele><time>2026-04-09T14:47:45Z</time></trkpt><trkpt lat="44.01555230595133" lon="4.41231198850936"><ele>140.0</ele><time>2026-04-09T14:47:46Z</time></trkpt><trkpt lat="44.01549924457614" lon="4.412444980465721"><ele>140.0</ele><time>2026-04-09T14:47:47Z</time></trkpt><trkpt lat="44.01544535765647" lon="4.412577055785083"><ele>140.0</ele><time>2026-04-09T14:47:48Z</time></trkpt><trkpt lat="44.01539222261383" lon="4.412709121042444"><ele>140.0</ele><time>2026-04-09T14:47:49Z</time></trkpt><trkpt lat="44.01534332268323" lon="4.412840359219991"><ele>140.0</ele><time>2026-04-09T14:47:50Z</time></trkpt><trkpt lat="44.01529023067034" lon="4.412970546283527"><ele>140.0</ele><time>2026-04-09T14:47:51Z</time></trkpt><trkpt lat="44.01524105348011" lon="4.413099529646324"><ele>140.0</ele><time>2026-04-09T14:47:52Z</time></trkpt><trkpt lat="44.015190539587635" lon="4.413230702448819"><ele>140.0</ele><time>2026-04-09T14:47:53Z</time></trkpt><trkpt lat="44.01514113373282" lon="4.413357754875008"><ele>139.8</ele><time>2026-04-09T14:47:54Z</time></trkpt><trkpt lat="44.01509184060488" lon="4.413485005309114"><ele>139.6</ele><time>2026-04-09T14:47:55Z</time></trkpt><trkpt lat="44.01504341174395" lon="4.413609188610642"><ele>139.4</ele><time>2026-04-09T14:47:56Z</time></trkpt><trkpt lat="44.01499514537462" lon="4.413729295307047"><ele>139.2</ele><time>2026-04-09T14:47:57Z</time></trkpt><trkpt lat="44.01494745690696" lon="4.41384964294104"><ele>139.0</ele><time>2026-04-09T14:47:58Z</time></trkpt><trkpt lat="44.01490153401128" lon="4.4139670834500535"><ele>138.66666666666669</ele><time>2026-04-09T14:47:59Z</time></trkpt><trkpt lat="44.01485721414866" lon="4.414082048463579"><ele>138.33333333333334</ele><time>2026-04-09T14:48:00Z</time></trkpt><trkpt lat="44.01481396150697" lon="4.414197453619814"><ele>138.0</ele><time>2026-04-09T14:48:01Z</time></trkpt><trkpt lat="44.01477230566567" lon="4.414306253773017"><ele>137.66666666666666</ele><time>2026-04-09T14:48:02Z</time></trkpt><trkpt lat="44.014727622640756" lon="4.414411030858973"><ele>137.33333333333331</ele><time>2026-04-09T14:48:03Z</time></trkpt><trkpt lat="44.014677074350466" lon="4.4144970627961895"><ele>137.0</ele><time>2026-04-09T14:48:04Z</time></trkpt><trkpt lat="44.01462171458012" lon="4.414566497086243"><ele>137.00000000000003</ele><time>2026-04-09T14:48:05Z</time></trkpt><trkpt lat="44.01455768545989" lon="4.414617278446422"><ele>137.0</ele><time>2026-04-09T14:48:06Z</time></trkpt><trkpt lat="44.01448406914444" lon="4.41463594111448"><ele>137.0</ele><time>2026-04-09T14:48:07Z</time></trkpt><trkpt lat="44.014412599272966" lon="4.41462439026407"><ele>137.0</ele><time>2026-04-09T14:48:08Z</time></trkpt><trkpt lat="44.01434944648116" lon="4.414607930876706"><ele>137.0</ele><time>2026-04-09T14:48:09Z</time></trkpt><trkpt lat="44.01428494112156" lon="4.414582863267951"><ele>137.00000000000003</ele><time>2026-04-09T14:48:10Z</time></trkpt><trkpt lat="44.01422140524136" lon="4.41456286922869"><ele>137.0</ele><time>2026-04-09T14:48:11Z</time></trkpt><trkpt lat="44.014157908809665" lon="4.414537952197677"><ele>136.83333333333331</ele><time>2026-04-09T14:48:12Z</time></trkpt><trkpt lat="44.01409670655814" lon="4.4145146817626655"><ele>136.66666666666666</ele><time>2026-04-09T14:48:13Z</time></trkpt><trkpt lat="44.01403172364357" lon="4.414492430852973"><ele>136.5</ele><time>2026-04-09T14:48:14Z</time></trkpt><trkpt lat="44.01396957852335" lon="4.414475400481251"><ele>136.33333333333334</ele><time>2026-04-09T14:48:15Z</time></trkpt><trkpt lat="44.013858138641005" lon="4.414453923417299"><ele>136.16666666666669</ele><time>2026-04-09T14:48:17Z</time></trkpt><trkpt lat="44.01377335032386" lon="4.414427286925077"><ele>136.0</ele><time>2026-04-09T14:48:19Z</time></trkpt><trkpt lat="44.013691510263925" lon="4.414410859539349"><ele>136.0</ele><time>2026-04-09T14:48:21Z</time></trkpt><trkpt lat="44.01360511622204" lon="4.414384800208021"><ele>136.0</ele><time>2026-04-09T14:48:23Z</time></trkpt><trkpt lat="44.01352993056398" lon="4.414379564523223"><ele>136.0</ele><time>2026-04-09T14:48:25Z</time></trkpt><trkpt lat="44.01346389899591" lon="4.414378597958021"><ele>136.0</ele><time>2026-04-09T14:48:27Z</time></trkpt><trkpt lat="44.01339840380367" lon="4.41438429752309"><ele>136.0</ele><time>2026-04-09T14:48:29Z</time></trkpt><trkpt lat="44.01331265204947" lon="4.414402951333527"><ele>136.0</ele><time>2026-04-09T14:48:32Z</time></trkpt><trkpt lat="44.013242257808244" lon="4.4144238289338595"><ele>135.28571428571428</ele><time>2026-04-09T14:48:36Z</time></trkpt><trkpt lat="44.013166509176884" lon="4.41445033237911"><ele>134.57142857142856</ele><time>2026-04-09T14:48:40Z</time></trkpt><trkpt lat="44.01309749666196" lon="4.41449000059303"><ele>133.85714285714286</ele><time>2026-04-09T14:48:43Z</time></trkpt><trkpt lat="44.01304224793369" lon="4.414536401616303"><ele>133.14285714285714</ele><time>2026-04-09T14:48:46Z</time></trkpt><trkpt lat="44.01299173843774" lon="4.4145910677839915"><ele>132.42857142857144</ele><time>2026-04-09T14:48:49Z</time></trkpt><trkpt lat="44.012928380421194" lon="4.414665535584377"><ele>131.71428571428572</ele><time>2026-04-09T14:48:53Z</time></trkpt><trkpt lat="44.01286960075354" lon="4.414743654060071"><ele>131.0</ele><time>2026-04-09T14:48:56Z</time></trkpt><trkpt lat="44.012796810975495" lon="4.414825088181695"><ele>131.0</ele><time>2026-04-09T14:48:59Z</time></trkpt><trkpt lat="44.01273609151063" lon="4.414904348143052"><ele>131.0</ele><time>2026-04-09T14:49:02Z</time></trkpt><trkpt lat="44.01266974787453" lon="4.414980211229024"><ele>131.0</ele><time>2026-04-09T14:49:05Z</time></trkpt><trkpt lat="44.01260154267325" lon="4.415044652788637"><ele>131.0</ele><time>2026-04-09T14:49:08Z</time></trkpt><trkpt lat="44.01254547282659" lon="4.415111171308732"><ele>131.0</ele><time>2026-04-09T14:49:13Z</time></trkpt><trkpt lat="44.01248499788369" lon="4.4151585527966875"><ele>131.0</ele><time>2026-04-09T14:49:17Z</time></trkpt><trkpt lat="44.012420348475175" lon="4.41520502247503"><ele>130.85714285714286</ele><time>2026-04-09T14:49:21Z</time></trkpt><trkpt lat="44.012363299556945" lon="4.41524716043003"><ele>130.71428571428572</ele><time>2026-04-09T14:49:25Z</time></trkpt><trkpt lat="44.01229859219934" lon="4.415263211126659"><ele>130.57142857142858</ele><time>2026-04-09T14:49:32Z</time></trkpt><trkpt lat="44.012218466536574" lon="4.415285327565716"><ele>130.42857142857144</ele><time>2026-04-09T14:49:41Z</time></trkpt><trkpt lat="44.01214372596172" lon="4.415320301510447"><ele>130.28571428571428</ele><time>2026-04-09T14:49:45Z</time></trkpt><trkpt lat="44.01206719485124" lon="4.4153244505088"><ele>130.14285714285717</ele><time>2026-04-09T14:49:50Z</time></trkpt><trkpt lat="44.01199302399322" lon="4.41535219254185"><ele>130.0</ele><time>2026-04-09T14:50:07Z</time></trkpt><trkpt lat="44.011929314060495" lon="4.415377541642475"><ele>130.0</ele><time>2026-04-09T14:50:16Z</time></trkpt><trkpt lat="44.01184987256783" lon="4.415387570528166"><ele>130.0</ele><time>2026-04-09T14:50:20Z</time></trkpt><trkpt lat="44.01178553625494" lon="4.4153928390011785"><ele>130.0</ele><time>2026-04-09T14:50:23Z</time></trkpt><trkpt lat="44.011714842990635" lon="4.415399926328494"><ele>130.0</ele><time>2026-04-09T14:50:34Z</time></trkpt><trkpt lat="44.011639961590625" lon="4.415383161067051"><ele>130.0</ele><time>2026-04-09T14:50:39Z</time></trkpt><trkpt lat="44.01156429072214" lon="4.415355097264537"><ele>130.0</ele><time>2026-04-09T14:50:42Z</time></trkpt><trkpt lat="44.011480317952504" lon="4.415318881955602"><ele>129.33333333333334</ele><time>2026-04-09T14:50:45Z</time></trkpt><trkpt lat="44.011397742742375" lon="4.4152965612528146"><ele>128.66666666666669</ele><time>2026-04-09T14:50:48Z</time></trkpt><trkpt lat="44.01131786310474" lon="4.415289473250821"><ele>128.0</ele><time>2026-04-09T14:50:51Z</time></trkpt><trkpt lat="44.01123273792041" lon="4.415282207430252"><ele>127.33333333333334</ele><time>2026-04-09T14:50:54Z</time></trkpt><trkpt lat="44.01116225808542" lon="4.415283630901682"><ele>126.66666666666667</ele><time>2026-04-09T14:50:56Z</time></trkpt><trkpt lat="44.011098336483116" lon="4.415287478897319"><ele>126.0</ele><time>2026-04-09T14:50:58Z</time></trkpt><trkpt lat="44.01101907899408" lon="4.415299877048493"><ele>126.0</ele><time>2026-04-09T14:51:01Z</time></trkpt><trkpt lat="44.01094737634017" lon="4.415319860115165"><ele>126.0</ele><time>2026-04-09T14:51:04Z</time></trkpt><trkpt lat="44.010845441438754" lon="4.415315980686989"><ele>126.0</ele><time>2026-04-09T14:51:07Z</time></trkpt><trkpt lat="44.01075777684253" lon="4.415303590463655"><ele>126.0</ele><time>2026-04-09T14:51:09Z</time></trkpt><trkpt lat="44.01064221101507" lon="4.415262948580661"><ele>126.0</ele><time>2026-04-09T14:51:11Z</time></trkpt><trkpt lat="44.01057505061549" lon="4.4152346978978585"><ele>125.83333333333333</ele><time>2026-04-09T14:51:12Z</time></trkpt><trkpt lat="44.01050904166852" lon="4.415196558273156"><ele>125.66666666666666</ele><time>2026-04-09T14:51:13Z</time></trkpt><trkpt lat="44.01043760464059" lon="4.415152340227703"><ele>125.5</ele><time>2026-04-09T14:51:14Z</time></trkpt><trkpt lat="44.010370010533265" lon="4.41511186253081"><ele>125.33333333333333</ele><time>2026-04-09T14:51:15Z</time></trkpt><trkpt lat="44.01030650500242" lon="4.415072217247039"><ele>125.16666666666666</ele><time>2026-04-09T14:51:16Z</time></trkpt><trkpt lat="44.010190870551845" lon="4.415000892911555"><ele>125.0</ele><time>2026-04-09T14:51:18Z</time></trkpt><trkpt lat="44.01008687433202" lon="4.414927673325043"><ele>125.33333333333333</ele><time>2026-04-09T14:51:20Z</time></trkpt><trkpt lat="44.00999038375716" lon="4.414851278368461"><ele>125.66666666666666</ele><time>2026-04-09T14:51:22Z</time></trkpt><trkpt lat="44.009885042598306" lon="4.414775764738386"><ele>126.0</ele><time>2026-04-09T14:51:24Z</time></trkpt><trkpt lat="44.00982788992076" lon="4.414732752790526"><ele>126.33333333333334</ele><time>2026-04-09T14:51:25Z</time></trkpt><trkpt lat="44.009767475094804" lon="4.414688558130672"><ele>126.66666666666667</ele><time>2026-04-09T14:51:26Z</time></trkpt><trkpt lat="44.009707353685606" lon="4.4146402553068835"><ele>127.0</ele><time>2026-04-09T14:51:27Z</time></trkpt><trkpt lat="44.00964352716031" lon="4.414596864631069"><ele>126.00000000000001</ele><time>2026-04-09T14:51:28Z</time></trkpt><trkpt lat="44.00957336588043" lon="4.414568299163877"><ele>125.0</ele><time>2026-04-09T14:51:29Z</time></trkpt><trkpt lat="44.00949990644114" lon="4.414563122521001"><ele>124.0</ele><time>2026-04-09T14:51:30Z</time></trkpt><trkpt lat="44.009420855755785" lon="4.414569156357029"><ele>123.0</ele><time>2026-04-09T14:51:31Z</time></trkpt><trkpt lat="44.00933440455254" lon="4.414571684700626"><ele>122.00000000000001</ele><time>2026-04-09T14:51:32Z</time></trkpt><trkpt lat="44.009226540804114" lon="4.414566275607703"><ele>121.0</ele><time>2026-04-09T14:51:33Z</time></trkpt><trkpt lat="44.00913506090892" lon="4.414560067712172"><ele>120.4</ele><time>2026-04-09T14:51:34Z</time></trkpt><trkpt lat="44.00904128472136" lon="4.414559841804029"><ele>119.8</ele><time>2026-04-09T14:51:35Z</time></trkpt><trkpt lat="44.00894818932609" lon="4.4145609430166415"><ele>119.20000000000002</ele><time>2026-04-09T14:51:36Z</time></trkpt><trkpt lat="44.0088520403679" lon="4.414559563853489"><ele>118.60000000000001</ele><time>2026-04-09T14:51:37Z</time></trkpt><trkpt lat="44.008756517658256" lon="4.414559667540618"><ele>118.0</ele><time>2026-04-09T14:51:38Z</time></trkpt><trkpt lat="44.00866175409491" lon="4.414559673687863"><ele>118.00000000000001</ele><time>2026-04-09T14:51:39Z</time></trkpt><trkpt lat="44.008567431352326" lon="4.4145626798402295"><ele>118.0</ele><time>2026-04-09T14:51:40Z</time></trkpt><trkpt lat="44.008475845759456" lon="4.4145651545825"><ele>118.0</ele><time>2026-04-09T14:51:41Z</time></trkpt><trkpt lat="44.00839003358611" lon="4.414566492665276"><ele>118.0</ele><time>2026-04-09T14:51:42Z</time></trkpt><trkpt lat="44.00830839161113" lon="4.414568586823865"><ele>118.00000000000001</ele><time>2026-04-09T14:51:43Z</time></trkpt><trkpt lat="44.00823158629115" lon="4.414569694781721"><ele>118.0</ele><time>2026-04-09T14:51:44Z</time></trkpt><trkpt lat="44.00815524057289" lon="4.414583730886072"><ele>117.85714285714286</ele><time>2026-04-09T14:51:45Z</time></trkpt><trkpt lat="44.00808360829761" lon="4.414608191588652"><ele>117.71428571428572</ele><time>2026-04-09T14:51:46Z</time></trkpt><trkpt lat="44.00801844478977" lon="4.414648930692967"><ele>117.57142857142858</ele><time>2026-04-09T14:51:47Z</time></trkpt><trkpt lat="44.00795838822821" lon="4.414703022291052"><ele>117.42857142857143</ele><time>2026-04-09T14:51:48Z</time></trkpt><trkpt lat="44.00790718594842" lon="4.414771081483303"><ele>117.2857142857143</ele><time>2026-04-09T14:51:49Z</time></trkpt><trkpt lat="44.00785738465725" lon="4.414848298432016"><ele>117.14285714285715</ele><time>2026-04-09T14:51:50Z</time></trkpt><trkpt lat="44.00780639605553" lon="4.414921282303389"><ele>117.0</ele><time>2026-04-09T14:51:51Z</time></trkpt><trkpt lat="44.007756165029704" lon="4.414990354962555"><ele>117.0</ele><time>2026-04-09T14:51:52Z</time></trkpt><trkpt lat="44.007703652084565" lon="4.415061535186262"><ele>117.0</ele><time>2026-04-09T14:51:53Z</time></trkpt><trkpt lat="44.00764944373789" lon="4.415137026038808"><ele>117.0</ele><time>2026-04-09T14:51:54Z</time></trkpt><trkpt lat="44.00759308119057" lon="4.415217359293046"><ele>117.0</ele><time>2026-04-09T14:51:55Z</time></trkpt><trkpt lat="44.00752896830126" lon="4.415303701190854"><ele>117.0</ele><time>2026-04-09T14:51:56Z</time></trkpt><trkpt lat="44.00746108344548" lon="4.415395710420938"><ele>117.0</ele><time>2026-04-09T14:51:57Z</time></trkpt><trkpt lat="44.00740192941772" lon="4.415501794549968"><ele>117.0</ele><time>2026-04-09T14:51:58Z</time></trkpt><trkpt lat="44.007351557767585" lon="4.415637406903986"><ele>116.99999999999999</ele><time>2026-04-09T14:51:59Z</time></trkpt><trkpt lat="44.00732078694993" lon="4.415794388379788"><ele>116.99999999999999</ele><time>2026-04-09T14:52:00Z</time></trkpt><trkpt lat="44.00729383068244" lon="4.415938197650847"><ele>117.0</ele><time>2026-04-09T14:52:01Z</time></trkpt><trkpt lat="44.00726406268696" lon="4.416068904768593"><ele>117.0</ele><time>2026-04-09T14:52:02Z</time></trkpt><trkpt lat="44.00723306107042" lon="4.4162039575763385"><ele>117.19999999999999</ele><time>2026-04-09T14:52:03Z</time></trkpt><trkpt lat="44.00720068599713" lon="4.416337202900429"><ele>117.39999999999999</ele><time>2026-04-09T14:52:04Z</time></trkpt><trkpt lat="44.0071688082543" lon="4.416470370026628"><ele>117.60000000000001</ele><time>2026-04-09T14:52:05Z</time></trkpt><trkpt lat="44.00714298652401" lon="4.416606374255004"><ele>117.80000000000001</ele><time>2026-04-09T14:52:06Z</time></trkpt><trkpt lat="44.007118293914786" lon="4.41673923847139"><ele>118.0</ele><time>2026-04-09T14:52:07Z</time></trkpt><trkpt lat="44.00708835084385" lon="4.416858316935938"><ele>118.0</ele><time>2026-04-09T14:52:08Z</time></trkpt><trkpt lat="44.00703298207016" lon="4.416952949280781"><ele>118.00000000000001</ele><time>2026-04-09T14:52:09Z</time></trkpt><trkpt lat="44.00696197890932" lon="4.417030720656215"><ele>118.00000000000001</ele><time>2026-04-09T14:52:10Z</time></trkpt><trkpt lat="44.00686828521746" lon="4.417053770346211"><ele>118.0</ele><time>2026-04-09T14:52:11Z</time></trkpt><trkpt lat="44.00677351009519" lon="4.417016941426975"><ele>118.0</ele><time>2026-04-09T14:52:12Z</time></trkpt><trkpt lat="44.006678068185835" lon="4.416966897806247"><ele>117.80000000000001</ele><time>2026-04-09T14:52:13Z</time></trkpt><trkpt lat="44.00657539446904" lon="4.416924959277784"><ele>117.60000000000001</ele><time>2026-04-09T14:52:14Z</time></trkpt><trkpt lat="44.0064617870109" lon="4.416906637809335"><ele>117.39999999999999</ele><time>2026-04-09T14:52:15Z</time></trkpt><trkpt lat="44.00635119317183" lon="4.416896909605671"><ele>117.19999999999999</ele><time>2026-04-09T14:52:16Z</time></trkpt><trkpt lat="44.0062396229943" lon="4.416887243517287"><ele>117.0</ele><time>2026-04-09T14:52:17Z</time></trkpt><trkpt lat="44.00612736325508" lon="4.4168679955552514"><ele>117.0</ele><time>2026-04-09T14:52:18Z</time></trkpt><trkpt lat="44.00601749539087" lon="4.416828293229265"><ele>116.99999999999999</ele><time>2026-04-09T14:52:19Z</time></trkpt><trkpt lat="44.00591154504715" lon="4.41677686009636"><ele>116.99999999999999</ele><time>2026-04-09T14:52:20Z</time></trkpt><trkpt lat="44.00580484012222" lon="4.416739221387461"><ele>117.0</ele><time>2026-04-09T14:52:21Z</time></trkpt><trkpt lat="44.00570082464052" lon="4.4167132337429535"><ele>117.0</ele><time>2026-04-09T14:52:22Z</time></trkpt><trkpt lat="44.00560192872874" lon="4.416689710006407"><ele>116.39999999999999</ele><time>2026-04-09T14:52:23Z</time></trkpt><trkpt lat="44.00550278734005" lon="4.416670633483841"><ele>115.79999999999998</ele><time>2026-04-09T14:52:24Z</time></trkpt><trkpt lat="44.00540234125269" lon="4.4166563427654495"><ele>115.2</ele><time>2026-04-09T14:52:25Z</time></trkpt><trkpt lat="44.0053018615306" lon="4.416645515925294"><ele>114.6</ele><time>2026-04-09T14:52:26Z</time></trkpt><trkpt lat="44.00520284541018" lon="4.416634833477943"><ele>114.0</ele><time>2026-04-09T14:52:27Z</time></trkpt><trkpt lat="44.00510623365859" lon="4.416623671181701"><ele>114.0</ele><time>2026-04-09T14:52:28Z</time></trkpt><trkpt lat="44.005007387060324" lon="4.416610699631627"><ele>114.0</ele><time>2026-04-09T14:52:29Z</time></trkpt><trkpt lat="44.00490779212711" lon="4.416585458403196"><ele>114.0</ele><time>2026-04-09T14:52:30Z</time></trkpt><trkpt lat="44.00480672472485" lon="4.416560237399669"><ele>114.0</ele><time>2026-04-09T14:52:31Z</time></trkpt><trkpt lat="44.00470626670802" lon="4.4165317264669826"><ele>114.0</ele><time>2026-04-09T14:52:32Z</time></trkpt><trkpt lat="44.00460570432689" lon="4.416493201179668"><ele>113.6</ele><time>2026-04-09T14:52:33Z</time></trkpt><trkpt lat="44.00450584138584" lon="4.416453506688903"><ele>113.2</ele><time>2026-04-09T14:52:34Z</time></trkpt><trkpt lat="44.004404887954976" lon="4.416418323069258"><ele>112.79999999999998</ele><time>2026-04-09T14:52:35Z</time></trkpt><trkpt lat="44.004303789056216" lon="4.416383675200476"><ele>112.39999999999999</ele><time>2026-04-09T14:52:36Z</time></trkpt><trkpt lat="44.00420316556879" lon="4.416348908580793"><ele>112.0</ele><time>2026-04-09T14:52:37Z</time></trkpt><trkpt lat="44.00410329563948" lon="4.416313761730501"><ele>111.0</ele><time>2026-04-09T14:52:38Z</time></trkpt><trkpt lat="44.004003357411484" lon="4.416280416068787"><ele>109.99999999999999</ele><time>2026-04-09T14:52:39Z</time></trkpt><trkpt lat="44.00390346409473" lon="4.416248127261758"><ele>108.99999999999999</ele><time>2026-04-09T14:52:40Z</time></trkpt><trkpt lat="44.00380422965818" lon="4.416217259100079"><ele>108.0</ele><time>2026-04-09T14:52:41Z</time></trkpt><trkpt lat="44.003704112053114" lon="4.416186142707506"><ele>107.0</ele><time>2026-04-09T14:52:42Z</time></trkpt><trkpt lat="44.00360516846622" lon="4.416160643801243"><ele>106.99999999999999</ele><time>2026-04-09T14:52:43Z</time></trkpt><trkpt lat="44.00350698498765" lon="4.416136347284399"><ele>107.0</ele><time>2026-04-09T14:52:44Z</time></trkpt><trkpt lat="44.003416504559844" lon="4.41611301215192"><ele>107.0</ele><time>2026-04-09T14:52:45Z</time></trkpt><trkpt lat="44.00333111691704" lon="4.416091728608717"><ele>107.0</ele><time>2026-04-09T14:52:46Z</time></trkpt><trkpt lat="44.00325260337703" lon="4.416067299816305"><ele>106.99999999999999</ele><time>2026-04-09T14:52:47Z</time></trkpt><trkpt lat="44.00317910690029" lon="4.416041139183595"><ele>107.0</ele><time>2026-04-09T14:52:48Z</time></trkpt><trkpt lat="44.00311427645144" lon="4.416013241197813"><ele>106.49999999999999</ele><time>2026-04-09T14:52:49Z</time></trkpt><trkpt lat="44.00305323456343" lon="4.41598440360481"><ele>106.0</ele><time>2026-04-09T14:52:50Z</time></trkpt><trkpt lat="44.00299740348241" lon="4.415934342491616"><ele>105.5</ele><time>2026-04-09T14:52:51Z</time></trkpt><trkpt lat="44.00293872436063" lon="4.4158909667570425"><ele>105.0</ele><time>2026-04-09T14:52:52Z</time></trkpt><trkpt lat="44.00287181791373" lon="4.415876855687208"><ele>104.49999999999999</ele><time>2026-04-09T14:52:53Z</time></trkpt><trkpt lat="44.00280564671381" lon="4.4158817375953765"><ele>104.0</ele><time>2026-04-09T14:52:54Z</time></trkpt><trkpt lat="44.00268752486767" lon="4.415915928187189"><ele>104.0</ele><time>2026-04-09T14:52:56Z</time></trkpt><trkpt lat="44.00256932237149" lon="4.415902086818569"><ele>104.0</ele><time>2026-04-09T14:52:58Z</time></trkpt><trkpt lat="44.002452837583675" lon="4.415870394761341"><ele>104.0</ele><time>2026-04-09T14:53:00Z</time></trkpt><trkpt lat="44.00239123486634" lon="4.415849992616816"><ele>104.0</ele><time>2026-04-09T14:53:01Z</time></trkpt><trkpt lat="44.002318768435956" lon="4.4158265073415555"><ele>104.0</ele><time>2026-04-09T14:53:02Z</time></trkpt><trkpt lat="44.002239943013606" lon="4.415802194845211"><ele>103.4</ele><time>2026-04-09T14:53:03Z</time></trkpt><trkpt lat="44.002155087806784" lon="4.415776917397829"><ele>102.80000000000001</ele><time>2026-04-09T14:53:04Z</time></trkpt><trkpt lat="44.002070070086646" lon="4.415750469393265"><ele>102.19999999999999</ele><time>2026-04-09T14:53:05Z</time></trkpt><trkpt lat="44.00197879802837" lon="4.415725130298411"><ele>101.6</ele><time>2026-04-09T14:53:06Z</time></trkpt><trkpt lat="44.00188654448355" lon="4.415698779127994"><ele>101.0</ele><time>2026-04-09T14:53:07Z</time></trkpt><trkpt lat="44.0017964630063" lon="4.415667631401615"><ele>100.99999999999999</ele><time>2026-04-09T14:53:08Z</time></trkpt><trkpt lat="44.001710034133765" lon="4.415633818706801"><ele>101.0</ele><time>2026-04-09T14:53:09Z</time></trkpt><trkpt lat="44.00162962047803" lon="4.415602715092342"><ele>101.0</ele><time>2026-04-09T14:53:10Z</time></trkpt><trkpt lat="44.00155756870577" lon="4.41557296612855"><ele>101.0</ele><time>2026-04-09T14:53:11Z</time></trkpt><trkpt lat="44.00148576931593" lon="4.415541689465229"><ele>100.99999999999999</ele><time>2026-04-09T14:53:12Z</time></trkpt><trkpt lat="44.00141235874592" lon="4.415510594127116"><ele>101.0</ele><time>2026-04-09T14:53:13Z</time></trkpt><trkpt lat="44.00133775910631" lon="4.4154803236208835"><ele>100.83333333333333</ele><time>2026-04-09T14:53:14Z</time></trkpt><trkpt lat="44.00126174651416" lon="4.415450507445254"><ele>100.66666666666666</ele><time>2026-04-09T14:53:15Z</time></trkpt><trkpt lat="44.00118173988111" lon="4.415421193362987"><ele>100.5</ele><time>2026-04-09T14:53:16Z</time></trkpt><trkpt lat="44.00109892837433" lon="4.415389945661942"><ele>100.33333333333334</ele><time>2026-04-09T14:53:17Z</time></trkpt><trkpt lat="44.00101268928226" lon="4.415357209138927"><ele>100.16666666666667</ele><time>2026-04-09T14:53:18Z</time></trkpt><trkpt lat="44.00092437651812" lon="4.415323129388789"><ele>100.0</ele><time>2026-04-09T14:53:19Z</time></trkpt><trkpt lat="44.000832968644865" lon="4.415287361317044"><ele>99.50000000000001</ele><time>2026-04-09T14:53:20Z</time></trkpt><trkpt lat="44.000748198228415" lon="4.415254240187506"><ele>99.0</ele><time>2026-04-09T14:53:21Z</time></trkpt><trkpt lat="44.00066722409929" lon="4.415222019014198"><ele>98.5</ele><time>2026-04-09T14:53:22Z</time></trkpt><trkpt lat="44.00058691570013" lon="4.41519073849752"><ele>98.0</ele><time>2026-04-09T14:53:23Z</time></trkpt><trkpt lat="44.0005142603972" lon="4.415162283539974"><ele>97.50000000000001</ele><time>2026-04-09T14:53:24Z</time></trkpt><trkpt lat="44.000449292332675" lon="4.415136691203424"><ele>97.0</ele><time>2026-04-09T14:53:25Z</time></trkpt><trkpt lat="44.00038692489857" lon="4.4151113882938"><ele>97.00000000000001</ele><time>2026-04-09T14:53:26Z</time></trkpt><trkpt lat="44.000321783406754" lon="4.4150832270776466"><ele>97.0</ele><time>2026-04-09T14:53:27Z</time></trkpt><trkpt lat="44.00025262907824" lon="4.4150545562950825"><ele>97.0</ele><time>2026-04-09T14:53:28Z</time></trkpt><trkpt lat="44.00017831154694" lon="4.415024905543332"><ele>97.0</ele><time>2026-04-09T14:53:29Z</time></trkpt><trkpt lat="44.000102464025545" lon="4.414995703288022"><ele>97.00000000000001</ele><time>2026-04-09T14:53:30Z</time></trkpt><trkpt lat="44.00002733987311" lon="4.414967119452284"><ele>97.0</ele><time>2026-04-09T14:53:31Z</time></trkpt><trkpt lat="43.99995416635937" lon="4.41493762995768"><ele>97.00000000000001</ele><time>2026-04-09T14:53:32Z</time></trkpt><trkpt lat="43.99987853143453" lon="4.414906292801566"><ele>97.0</ele><time>2026-04-09T14:53:33Z</time></trkpt><trkpt lat="43.999801401947096" lon="4.414876247377457"><ele>97.0</ele><time>2026-04-09T14:53:34Z</time></trkpt><trkpt lat="43.99972311872626" lon="4.414846131726161"><ele>97.0</ele><time>2026-04-09T14:53:35Z</time></trkpt><trkpt lat="43.99964532667266" lon="4.414816227320034"><ele>97.00000000000001</ele><time>2026-04-09T14:53:36Z</time></trkpt><trkpt lat="43.999566701465895" lon="4.414786095927948"><ele>97.0</ele><time>2026-04-09T14:53:37Z</time></trkpt><trkpt lat="43.999487617213035" lon="4.414756308066327"><ele>97.00000000000001</ele><time>2026-04-09T14:53:38Z</time></trkpt><trkpt lat="43.99940863992843" lon="4.414726068353285"><ele>97.0</ele><time>2026-04-09T14:53:39Z</time></trkpt><trkpt lat="43.99933997022868" lon="4.414699491674534"><ele>97.0</ele><time>2026-04-09T14:53:40Z</time></trkpt><trkpt lat="43.999243058577925" lon="4.414661942471987"><ele>97.0</ele><time>2026-04-09T14:53:42Z</time></trkpt><trkpt lat="43.999171666394474" lon="4.414636799901941"><ele>97.00000000000001</ele><time>2026-04-09T14:53:46Z</time></trkpt><trkpt lat="43.9991055443726" lon="4.4146148363008555"><ele>97.0</ele><time>2026-04-09T14:53:48Z</time></trkpt><trkpt lat="43.99903305438962" lon="4.414592731292485"><ele>96.39999999999999</ele><time>2026-04-09T14:53:50Z</time></trkpt><trkpt lat="43.998929241473185" lon="4.414554481806918"><ele>95.8</ele><time>2026-04-09T14:53:52Z</time></trkpt><trkpt lat="43.998855362813686" lon="4.4145230708453305"><ele>95.2</ele><time>2026-04-09T14:53:53Z</time></trkpt><trkpt lat="43.99878544953693" lon="4.41454218466937"><ele>94.6</ele><time>2026-04-09T14:53:54Z</time></trkpt><trkpt lat="43.99872949056987" lon="4.414607368494323"><ele>94.0</ele><time>2026-04-09T14:53:55Z</time></trkpt><trkpt lat="43.99869398611404" lon="4.414806756389259"><ele>94.0</ele><time>2026-04-09T14:53:57Z</time></trkpt><trkpt lat="43.99865328226368" lon="4.4148853124688765"><ele>94.0</ele><time>2026-04-09T14:53:58Z</time></trkpt><trkpt lat="43.998595999782424" lon="4.414954785094426"><ele>94.0</ele><time>2026-04-09T14:53:59Z</time></trkpt><trkpt lat="43.99852892077685" lon="4.415015280252797"><ele>94.0</ele><time>2026-04-09T14:54:00Z</time></trkpt><trkpt lat="43.99845773065205" lon="4.415074691981689"><ele>94.0</ele><time>2026-04-09T14:54:01Z</time></trkpt><trkpt lat="43.99838389544792" lon="4.415141449314763"><ele>94.0</ele><time>2026-04-09T14:54:02Z</time></trkpt><trkpt lat="43.99830312790403" lon="4.4152132755901805"><ele>93.6</ele><time>2026-04-09T14:54:03Z</time></trkpt><trkpt lat="43.998215651410185" lon="4.415290606033291"><ele>93.2</ele><time>2026-04-09T14:54:04Z</time></trkpt><trkpt lat="43.99812613263701" lon="4.41536855899489"><ele>92.8</ele><time>2026-04-09T14:54:05Z</time></trkpt><trkpt lat="43.998035404347334" lon="4.415447340259085"><ele>92.39999999999999</ele><time>2026-04-09T14:54:06Z</time></trkpt><trkpt lat="43.99794517490675" lon="4.415527478315905"><ele>92.0</ele><time>2026-04-09T14:54:07Z</time></trkpt><trkpt lat="43.99785455493781" lon="4.415606770962581"><ele>91.5</ele><time>2026-04-09T14:54:08Z</time></trkpt><trkpt lat="43.99775928407469" lon="4.415689416149036"><ele>91.0</ele><time>2026-04-09T14:54:09Z</time></trkpt><trkpt lat="43.99765249487887" lon="4.4157804769488305"><ele>90.5</ele><time>2026-04-09T14:54:10Z</time></trkpt><trkpt lat="43.997537933380436" lon="4.41587276177301"><ele>90.0</ele><time>2026-04-09T14:54:11Z</time></trkpt><trkpt lat="43.997420432585464" lon="4.415968382667802"><ele>89.75</ele><time>2026-04-09T14:54:12Z</time></trkpt><trkpt lat="43.99730402786077" lon="4.416074645600286"><ele>89.5</ele><time>2026-04-09T14:54:13Z</time></trkpt><trkpt lat="43.997191874421254" lon="4.416186845159321"><ele>89.25</ele><time>2026-04-09T14:54:14Z</time></trkpt><trkpt lat="43.997078344277966" lon="4.416295673395577"><ele>89.0</ele><time>2026-04-09T14:54:15Z</time></trkpt><trkpt lat="43.99696465788768" lon="4.4164044706226955"><ele>88.75</ele><time>2026-04-09T14:54:16Z</time></trkpt><trkpt lat="43.99685016088144" lon="4.4165124112012055"><ele>88.5</ele><time>2026-04-09T14:54:17Z</time></trkpt><trkpt lat="43.99673765898191" lon="4.416621346097892"><ele>88.25</ele><time>2026-04-09T14:54:18Z</time></trkpt><trkpt lat="43.99662420544108" lon="4.416731089700816"><ele>88.0</ele><time>2026-04-09T14:54:19Z</time></trkpt><trkpt lat="43.9965118295235" lon="4.416840929950789"><ele>87.75</ele><time>2026-04-09T14:54:20Z</time></trkpt><trkpt lat="43.996392202053606" lon="4.416949357601105"><ele>87.5</ele><time>2026-04-09T14:54:21Z</time></trkpt><trkpt lat="43.996268689180084" lon="4.417064523743132"><ele>87.25</ele><time>2026-04-09T14:54:22Z</time></trkpt><trkpt lat="43.996140055683135" lon="4.417188263173732"><ele>87.0</ele><time>2026-04-09T14:54:23Z</time></trkpt><trkpt lat="43.996007566147604" lon="4.417314089192972"><ele>87.0</ele><time>2026-04-09T14:54:24Z</time></trkpt><trkpt lat="43.99587483822527" lon="4.417442298208777"><ele>87.0</ele><time>2026-04-09T14:54:25Z</time></trkpt><trkpt lat="43.99574088442023" lon="4.417569642219581"><ele>87.0</ele><time>2026-04-09T14:54:26Z</time></trkpt><trkpt lat="43.99560908251579" lon="4.417693650982953"><ele>85.66666666666667</ele><time>2026-04-09T14:54:27Z</time></trkpt><trkpt lat="43.99548103254073" lon="4.4178143395389515"><ele>84.33333333333334</ele><time>2026-04-09T14:54:28Z</time></trkpt><trkpt lat="43.995354148979054" lon="4.4179353903649785"><ele>83.0</ele><time>2026-04-09T14:54:29Z</time></trkpt><trkpt lat="43.995227209087396" lon="4.418058383951054"><ele>83.0</ele><time>2026-04-09T14:54:30Z</time></trkpt><trkpt lat="43.99510215310841" lon="4.418185165143316"><ele>83.0</ele><time>2026-04-09T14:54:31Z</time></trkpt><trkpt lat="43.99497684165921" lon="4.418310596072677"><ele>83.0</ele><time>2026-04-09T14:54:32Z</time></trkpt><trkpt lat="43.994850638628606" lon="4.41843788457122"><ele>82.33333333333334</ele><time>2026-04-09T14:54:33Z</time></trkpt><trkpt lat="43.99472346625301" lon="4.418565972288887"><ele>81.66666666666667</ele><time>2026-04-09T14:54:34Z</time></trkpt><trkpt lat="43.994593242044864" lon="4.418689886786371"><ele>81.0</ele><time>2026-04-09T14:54:35Z</time></trkpt><trkpt lat="43.99445478135576" lon="4.418805511727051"><ele>80.0</ele><time>2026-04-09T14:54:36Z</time></trkpt><trkpt lat="43.99430803132421" lon="4.418901202030175"><ele>79.0</ele><time>2026-04-09T14:54:37Z</time></trkpt><trkpt lat="43.99415361380172" lon="4.418984116879552"><ele>78.0</ele><time>2026-04-09T14:54:38Z</time></trkpt><trkpt lat="43.99399293511985" lon="4.4190479915949705"><ele>77.0</ele><time>2026-04-09T14:54:39Z</time></trkpt><trkpt lat="43.993831306645355" lon="4.419103948778867"><ele>76.0</ele><time>2026-04-09T14:54:40Z</time></trkpt><trkpt lat="43.993668725021195" lon="4.4191590158373675"><ele>75.0</ele><time>2026-04-09T14:54:41Z</time></trkpt><trkpt lat="43.99350966437278" lon="4.419228922229536"><ele>75.0</ele><time>2026-04-09T14:54:42Z</time></trkpt><trkpt lat="43.99336008502693" lon="4.419316525414885"><ele>75.0</ele><time>2026-04-09T14:54:43Z</time></trkpt><trkpt lat="43.9932302638543" lon="4.419409502022811"><ele>75.0</ele><time>2026-04-09T14:54:44Z</time></trkpt><trkpt lat="43.99311566667775" lon="4.419531279951645"><ele>73.2</ele><time>2026-04-09T14:54:45Z</time></trkpt><trkpt lat="43.993022268309744" lon="4.419666803815933"><ele>71.4</ele><time>2026-04-09T14:54:46Z</time></trkpt><trkpt lat="43.99295344938615" lon="4.419801246234384"><ele>69.6</ele><time>2026-04-09T14:54:47Z</time></trkpt><trkpt lat="43.99290315311235" lon="4.419926960236958"><ele>67.8</ele><time>2026-04-09T14:54:48Z</time></trkpt><trkpt lat="43.99286997505085" lon="4.420034315117057"><ele>66.0</ele><time>2026-04-09T14:54:49Z</time></trkpt><trkpt lat="43.992844704806224" lon="4.420126613205089"><ele>66.0</ele><time>2026-04-09T14:54:50Z</time></trkpt><trkpt lat="43.99278381789962" lon="4.420282790721644"><ele>66.0</ele><time>2026-04-09T14:54:52Z</time></trkpt><trkpt lat="43.99274302252929" lon="4.420362814474106"><ele>66.0</ele><time>2026-04-09T14:54:53Z</time></trkpt><trkpt lat="43.99272158824323" lon="4.420448969424714"><ele>66.0</ele><time>2026-04-09T14:54:54Z</time></trkpt><trkpt lat="43.99272556045554" lon="4.420552601481483"><ele>66.0</ele><time>2026-04-09T14:54:55Z</time></trkpt><trkpt lat="43.99274866909721" lon="4.42065890324007"><ele>66.0</ele><time>2026-04-09T14:54:56Z</time></trkpt><trkpt lat="43.99277035228543" lon="4.42076966895657"><ele>65.8</ele><time>2026-04-09T14:54:57Z</time></trkpt><trkpt lat="43.99277830207817" lon="4.420897062198072"><ele>65.6</ele><time>2026-04-09T14:54:58Z</time></trkpt><trkpt lat="43.9927884325084" lon="4.421035079111115"><ele>65.4</ele><time>2026-04-09T14:54:59Z</time></trkpt><trkpt lat="43.99280307929655" lon="4.42119294602358"><ele>65.2</ele><time>2026-04-09T14:55:00Z</time></trkpt><trkpt lat="43.992819451521385" lon="4.4213705328759785"><ele>65.0</ele><time>2026-04-09T14:55:01Z</time></trkpt><trkpt lat="43.99283371990306" lon="4.421552775990079"><ele>64.5</ele><time>2026-04-09T14:55:02Z</time></trkpt><trkpt lat="43.99284518965256" lon="4.421738449306114"><ele>64.0</ele><time>2026-04-09T14:55:03Z</time></trkpt><trkpt lat="43.99285189194887" lon="4.421929998612011"><ele>63.5</ele><time>2026-04-09T14:55:04Z</time></trkpt><trkpt lat="43.99285540241013" lon="4.422121368630189"><ele>63.0</ele><time>2026-04-09T14:55:05Z</time></trkpt><trkpt lat="43.99285473790317" lon="4.422310109767271"><ele>63.0</ele><time>2026-04-09T14:55:06Z</time></trkpt><trkpt lat="43.992852076777254" lon="4.422497328075203"><ele>63.0</ele><time>2026-04-09T14:55:07Z</time></trkpt><trkpt lat="43.992848759959024" lon="4.422681742430845"><ele>63.0</ele><time>2026-04-09T14:55:08Z</time></trkpt><trkpt lat="43.992844917241555" lon="4.4228627580345545"><ele>63.0</ele><time>2026-04-09T14:55:09Z</time></trkpt><trkpt lat="43.992839983809205" lon="4.423047697645499"><ele>63.0</ele><time>2026-04-09T14:55:10Z</time></trkpt><trkpt lat="43.99283543642645" lon="4.423228747061664"><ele>63.0</ele><time>2026-04-09T14:55:11Z</time></trkpt><trkpt lat="43.992830654192865" lon="4.423406902779157"><ele>63.0</ele><time>2026-04-09T14:55:12Z</time></trkpt><trkpt lat="43.99282292278814" lon="4.423580821788126"><ele>63.0</ele><time>2026-04-09T14:55:13Z</time></trkpt><trkpt lat="43.99281853446397" lon="4.4237526166869126"><ele>63.5</ele><time>2026-04-09T14:55:14Z</time></trkpt><trkpt lat="43.992813212754506" lon="4.423928361605376"><ele>64.0</ele><time>2026-04-09T14:55:15Z</time></trkpt><trkpt lat="43.992806283830596" lon="4.424109636177539"><ele>64.5</ele><time>2026-04-09T14:55:16Z</time></trkpt><trkpt lat="43.9927948444037" lon="4.4242962879851975"><ele>65.0</ele><time>2026-04-09T14:55:17Z</time></trkpt><trkpt lat="43.99277911208165" lon="4.424481799982752"><ele>65.0</ele><time>2026-04-09T14:55:18Z</time></trkpt><trkpt lat="43.992762153403895" lon="4.4246695307215145"><ele>65.0</ele><time>2026-04-09T14:55:19Z</time></trkpt><trkpt lat="43.99274205408956" lon="4.424855157790948"><ele>65.0</ele><time>2026-04-09T14:55:20Z</time></trkpt><trkpt lat="43.992714844812156" lon="4.425041159048911"><ele>65.0</ele><time>2026-04-09T14:55:21Z</time></trkpt><trkpt lat="43.99267971941968" lon="4.425224806226426"><ele>65.0</ele><time>2026-04-09T14:55:22Z</time></trkpt><trkpt lat="43.992637236100705" lon="4.425406624614096"><ele>65.0</ele><time>2026-04-09T14:55:23Z</time></trkpt><trkpt lat="43.99259721414765" lon="4.425588499396997"><ele>65.0</ele><time>2026-04-09T14:55:24Z</time></trkpt><trkpt lat="43.99256077085316" lon="4.425769821127828"><ele>65.0</ele><time>2026-04-09T14:55:25Z</time></trkpt><trkpt lat="43.992523550886126" lon="4.425944580686242"><ele>64.5</ele><time>2026-04-09T14:55:26Z</time></trkpt><trkpt lat="43.99248056214799" lon="4.426123168159796"><ele>64.0</ele><time>2026-04-09T14:55:27Z</time></trkpt><trkpt lat="43.99243839364667" lon="4.426298568655805"><ele>63.5</ele><time>2026-04-09T14:55:28Z</time></trkpt><trkpt lat="43.99239388094519" lon="4.426476340884382"><ele>63.0</ele><time>2026-04-09T14:55:29Z</time></trkpt><trkpt lat="43.99234862637683" lon="4.4266539154771785"><ele>62.75</ele><time>2026-04-09T14:55:30Z</time></trkpt><trkpt lat="43.99230196764715" lon="4.426827237075751"><ele>62.5</ele><time>2026-04-09T14:55:31Z</time></trkpt><trkpt lat="43.99225633951537" lon="4.427001930059959"><ele>62.25</ele><time>2026-04-09T14:55:32Z</time></trkpt><trkpt lat="43.99221063576546" lon="4.427173513694407"><ele>62.0</ele><time>2026-04-09T14:55:33Z</time></trkpt><trkpt lat="43.99216510287834" lon="4.4273466142484015"><ele>62.0</ele><time>2026-04-09T14:55:34Z</time></trkpt><trkpt lat="43.99212051863824" lon="4.427518393172982"><ele>62.0</ele><time>2026-04-09T14:55:35Z</time></trkpt><trkpt lat="43.99207686434875" lon="4.427691599924741"><ele>62.0</ele><time>2026-04-09T14:55:36Z</time></trkpt><trkpt lat="43.992032452977845" lon="4.427861482730504"><ele>62.0</ele><time>2026-04-09T14:55:37Z</time></trkpt><trkpt lat="43.99198927146687" lon="4.428027358492116"><ele>62.0</ele><time>2026-04-09T14:55:38Z</time></trkpt><trkpt lat="43.99194638267734" lon="4.428191236138454"><ele>62.0</ele><time>2026-04-09T14:55:39Z</time></trkpt><trkpt lat="43.99190293866442" lon="4.428353039821466"><ele>62.0</ele><time>2026-04-09T14:55:40Z</time></trkpt><trkpt lat="43.99186358873009" lon="4.4284997239404325"><ele>62.0</ele><time>2026-04-09T14:55:41Z</time></trkpt><trkpt lat="43.99182629020715" lon="4.4286319059574195"><ele>62.0</ele><time>2026-04-09T14:55:42Z</time></trkpt><trkpt lat="43.99179022334707" lon="4.428743080828408"><ele>62.00000000000001</ele><time>2026-04-09T14:55:43Z</time></trkpt><trkpt lat="43.991750956989875" lon="4.428828325631575"><ele>62.0</ele><time>2026-04-09T14:55:44Z</time></trkpt><trkpt lat="43.9916986023187" lon="4.428899249556617"><ele>62.0</ele><time>2026-04-09T14:55:45Z</time></trkpt><trkpt lat="43.99163788557549" lon="4.428953788470379"><ele>62.00000000000001</ele><time>2026-04-09T14:55:46Z</time></trkpt><trkpt lat="43.991577508059784" lon="4.428993918356934"><ele>62.0</ele><time>2026-04-09T14:55:47Z</time></trkpt><trkpt lat="43.9915218307822" lon="4.429045097481929"><ele>62.0</ele><time>2026-04-09T14:55:48Z</time></trkpt><trkpt lat="43.99147687220072" lon="4.429109807321804"><ele>62.333333333333336</ele><time>2026-04-09T14:55:49Z</time></trkpt><trkpt lat="43.99144674529438" lon="4.429191972733789"><ele>62.66666666666667</ele><time>2026-04-09T14:55:50Z</time></trkpt><trkpt lat="43.99144601238009" lon="4.429294128395701"><ele>63.0</ele><time>2026-04-09T14:55:51Z</time></trkpt><trkpt lat="43.991475278864925" lon="4.429404063959446"><ele>63.33333333333333</ele><time>2026-04-09T14:55:52Z</time></trkpt><trkpt lat="43.99151482340415" lon="4.429518135752652"><ele>63.666666666666664</ele><time>2026-04-09T14:55:53Z</time></trkpt><trkpt lat="43.991543176803845" lon="4.4296348846545035"><ele>64.0</ele><time>2026-04-09T14:55:54Z</time></trkpt><trkpt lat="43.991553309591026" lon="4.429758125637886"><ele>63.99999999999999</ele><time>2026-04-09T14:55:55Z</time></trkpt><trkpt lat="43.99154067325859" lon="4.42987956957326"><ele>64.0</ele><time>2026-04-09T14:55:56Z</time></trkpt><trkpt lat="43.99152137935485" lon="4.429993606042449"><ele>64.0</ele><time>2026-04-09T14:55:57Z</time></trkpt><trkpt lat="43.99150040382914" lon="4.4300931582184155"><ele>64.0</ele><time>2026-04-09T14:55:58Z</time></trkpt><trkpt lat="43.991478130127796" lon="4.430195961926569"><ele>63.99999999999999</ele><time>2026-04-09T14:55:59Z</time></trkpt><trkpt lat="43.99144833324756" lon="4.430310073011868"><ele>64.0</ele><time>2026-04-09T14:56:00Z</time></trkpt><trkpt lat="43.991412652384696" lon="4.430459058668621"><ele>64.0</ele><time>2026-04-09T14:56:01Z</time></trkpt><trkpt lat="43.991369957244984" lon="4.430635142394133"><ele>64.0</ele><time>2026-04-09T14:56:02Z</time></trkpt><trkpt lat="43.9913251882298" lon="4.4308272864550755"><ele>64.0</ele><time>2026-04-09T14:56:03Z</time></trkpt><trkpt lat="43.99127716595743" lon="4.431039975225546"><ele>64.0</ele><time>2026-04-09T14:56:04Z</time></trkpt><trkpt lat="43.99122839398851" lon="4.431263655872745"><ele>64.33333333333333</ele><time>2026-04-09T14:56:05Z</time></trkpt><trkpt lat="43.99117822031904" lon="4.4314947643183915"><ele>64.66666666666667</ele><time>2026-04-09T14:56:06Z</time></trkpt><trkpt lat="43.99112700057983" lon="4.431740960062238"><ele>65.0</ele><time>2026-04-09T14:56:07Z</time></trkpt><trkpt lat="43.991074820640165" lon="4.431992398862979"><ele>65.33333333333334</ele><time>2026-04-09T14:56:08Z</time></trkpt><trkpt lat="43.99102370706224" lon="4.432244733112652"><ele>65.66666666666667</ele><time>2026-04-09T14:56:09Z</time></trkpt><trkpt lat="43.99097389774232" lon="4.432499582522238"><ele>66.0</ele><time>2026-04-09T14:56:10Z</time></trkpt><trkpt lat="43.99092263398922" lon="4.432759820161706"><ele>66.66666666666667</ele><time>2026-04-09T14:56:11Z</time></trkpt><trkpt lat="43.99087110705307" lon="4.433019639228759"><ele>67.33333333333334</ele><time>2026-04-09T14:56:12Z</time></trkpt><trkpt lat="43.990820562582854" lon="4.433273346423713"><ele>68.0</ele><time>2026-04-09T14:56:13Z</time></trkpt><trkpt lat="43.99076919994356" lon="4.43352478554869"><ele>66.66666666666667</ele><time>2026-04-09T14:56:14Z</time></trkpt><trkpt lat="43.99071687525747" lon="4.433774929997522"><ele>65.33333333333333</ele><time>2026-04-09T14:56:15Z</time></trkpt><trkpt lat="43.990662687048555" lon="4.434027471874924"><ele>64.0</ele><time>2026-04-09T14:56:16Z</time></trkpt><trkpt lat="43.990605746838355" lon="4.434278391811172"><ele>64.0</ele><time>2026-04-09T14:56:17Z</time></trkpt><trkpt lat="43.99054828044174" lon="4.434528724283801"><ele>64.0</ele><time>2026-04-09T14:56:18Z</time></trkpt><trkpt lat="43.99049162139286" lon="4.4347779473995645"><ele>64.0</ele><time>2026-04-09T14:56:19Z</time></trkpt><trkpt lat="43.9904353178175" lon="4.435023878044687"><ele>64.33333333333333</ele><time>2026-04-09T14:56:20Z</time></trkpt><trkpt lat="43.99037911166324" lon="4.4352697041558065"><ele>64.66666666666667</ele><time>2026-04-09T14:56:21Z</time></trkpt><trkpt lat="43.99032202204311" lon="4.435514542932114"><ele>65.0</ele><time>2026-04-09T14:56:22Z</time></trkpt><trkpt lat="43.99026517124084" lon="4.435761185244326"><ele>65.66666666666667</ele><time>2026-04-09T14:56:23Z</time></trkpt><trkpt lat="43.99020942391675" lon="4.436009018277794"><ele>66.33333333333333</ele><time>2026-04-09T14:56:24Z</time></trkpt><trkpt lat="43.990153297607726" lon="4.436257225834415"><ele>67.0</ele><time>2026-04-09T14:56:25Z</time></trkpt><trkpt lat="43.99009623979351" lon="4.4365028216740345"><ele>67.33333333333333</ele><time>2026-04-09T14:56:26Z</time></trkpt><trkpt lat="43.99003893209053" lon="4.436753145561619"><ele>67.66666666666667</ele><time>2026-04-09T14:56:27Z</time></trkpt><trkpt lat="43.98997866293995" lon="4.437006477029782"><ele>68.0</ele><time>2026-04-09T14:56:28Z</time></trkpt><trkpt lat="43.98991853326301" lon="4.43726161064242"><ele>67.33333333333334</ele><time>2026-04-09T14:56:29Z</time></trkpt><trkpt lat="43.98985876500201" lon="4.437520003443508"><ele>66.66666666666667</ele><time>2026-04-09T14:56:30Z</time></trkpt><trkpt lat="43.98979691672928" lon="4.437781681163584"><ele>66.0</ele><time>2026-04-09T14:56:31Z</time></trkpt><trkpt lat="43.989733767225005" lon="4.438046171350756"><ele>66.0</ele><time>2026-04-09T14:56:32Z</time></trkpt><trkpt lat="43.9896733965252" lon="4.43830909177173"><ele>66.0</ele><time>2026-04-09T14:56:33Z</time></trkpt><trkpt lat="43.98961234259241" lon="4.438574227203537"><ele>66.0</ele><time>2026-04-09T14:56:34Z</time></trkpt><trkpt lat="43.989551353777514" lon="4.438839691875534"><ele>66.33333333333333</ele><time>2026-04-09T14:56:35Z</time></trkpt><trkpt lat="43.98948923886296" lon="4.439106538955571"><ele>66.66666666666666</ele><time>2026-04-09T14:56:36Z</time></trkpt><trkpt lat="43.989427117235934" lon="4.439374817417503"><ele>67.0</ele><time>2026-04-09T14:56:37Z</time></trkpt><trkpt lat="43.98936372869202" lon="4.4396434046022994"><ele>67.0</ele><time>2026-04-09T14:56:38Z</time></trkpt><trkpt lat="43.9892992750759" lon="4.439914535979811"><ele>67.0</ele><time>2026-04-09T14:56:39Z</time></trkpt><trkpt lat="43.989234272421456" lon="4.4401879906635395"><ele>67.0</ele><time>2026-04-09T14:56:40Z</time></trkpt><trkpt lat="43.989169900916096" lon="4.440461287602598"><ele>66.33333333333333</ele><time>2026-04-09T14:56:41Z</time></trkpt><trkpt lat="43.98910533821181" lon="4.440736493968312"><ele>65.66666666666667</ele><time>2026-04-09T14:56:42Z</time></trkpt><trkpt lat="43.98904093357573" lon="4.4410109387246015"><ele>65.0</ele><time>2026-04-09T14:56:43Z</time></trkpt><trkpt lat="43.98897502532774" lon="4.441287446671748"><ele>64.66666666666667</ele><time>2026-04-09T14:56:44Z</time></trkpt><trkpt lat="43.98890896152769" lon="4.441565464150036"><ele>64.33333333333333</ele><time>2026-04-09T14:56:45Z</time></trkpt><trkpt lat="43.98884636637233" lon="4.4418426355591665"><ele>64.0</ele><time>2026-04-09T14:56:46Z</time></trkpt><trkpt lat="43.98878091037738" lon="4.442117881788592"><ele>64.66666666666666</ele><time>2026-04-09T14:56:47Z</time></trkpt><trkpt lat="43.98871657741937" lon="4.442390218540183"><ele>65.33333333333333</ele><time>2026-04-09T14:56:48Z</time></trkpt><trkpt lat="43.98865340318729" lon="4.442660426332965"><ele>66.0</ele><time>2026-04-09T14:56:49Z</time></trkpt><trkpt lat="43.9885914617828" lon="4.442925164933169"><ele>66.66666666666667</ele><time>2026-04-09T14:56:50Z</time></trkpt><trkpt lat="43.9885284504707" lon="4.443180348544978"><ele>67.33333333333334</ele><time>2026-04-09T14:56:51Z</time></trkpt><trkpt lat="43.9884678129971" lon="4.443435155091251"><ele>68.0</ele><time>2026-04-09T14:56:52Z</time></trkpt><trkpt lat="43.988408767020516" lon="4.443683441082849"><ele>68.0</ele><time>2026-04-09T14:56:53Z</time></trkpt><trkpt lat="43.988350859059594" lon="4.443924517744498"><ele>68.0</ele><time>2026-04-09T14:56:54Z</time></trkpt><trkpt lat="43.98829720459496" lon="4.444161988144629"><ele>68.0</ele><time>2026-04-09T14:56:55Z</time></trkpt><trkpt lat="43.98824466427981" lon="4.4443929092201575"><ele>67.33333333333334</ele><time>2026-04-09T14:56:56Z</time></trkpt><trkpt lat="43.98819328924086" lon="4.444617252552933"><ele>66.66666666666667</ele><time>2026-04-09T14:56:57Z</time></trkpt><trkpt lat="43.98814273941858" lon="4.444834242543788"><ele>66.0</ele><time>2026-04-09T14:56:58Z</time></trkpt><trkpt lat="43.98809376269177" lon="4.4450499788086155"><ele>66.0</ele><time>2026-04-09T14:56:59Z</time></trkpt><trkpt lat="43.98804121646325" lon="4.445267649265836"><ele>66.0</ele><time>2026-04-09T14:57:00Z</time></trkpt><trkpt lat="43.98798737048143" lon="4.445492688744466"><ele>66.0</ele><time>2026-04-09T14:57:01Z</time></trkpt><trkpt lat="43.987931308381704" lon="4.445718670673507"><ele>66.33333333333333</ele><time>2026-04-09T14:57:02Z</time></trkpt><trkpt lat="43.98787763510234" lon="4.445944760515956"><ele>66.66666666666666</ele><time>2026-04-09T14:57:03Z</time></trkpt><trkpt lat="43.98782354172962" lon="4.4461704936316275"><ele>67.0</ele><time>2026-04-09T14:57:04Z</time></trkpt><trkpt lat="43.9877694439038" lon="4.446396362601344"><ele>67.66666666666666</ele><time>2026-04-09T14:57:05Z</time></trkpt><trkpt lat="43.98771583048373" lon="4.446623420064648"><ele>68.33333333333333</ele><time>2026-04-09T14:57:06Z</time></trkpt><trkpt lat="43.98766301951481" lon="4.44684873315979"><ele>69.0</ele><time>2026-04-09T14:57:07Z</time></trkpt><trkpt lat="43.987608853701076" lon="4.447075081520995"><ele>68.66666666666667</ele><time>2026-04-09T14:57:08Z</time></trkpt><trkpt lat="43.98755294513152" lon="4.447300408989857"><ele>68.33333333333334</ele><time>2026-04-09T14:57:09Z</time></trkpt><trkpt lat="43.987495654059096" lon="4.447523091676554"><ele>68.0</ele><time>2026-04-09T14:57:10Z</time></trkpt><trkpt lat="43.98743699351546" lon="4.447746951108122"><ele>67.0</ele><time>2026-04-09T14:57:11Z</time></trkpt><trkpt lat="43.987379442581876" lon="4.447970907498562"><ele>66.0</ele><time>2026-04-09T14:57:12Z</time></trkpt><trkpt lat="43.98731999265127" lon="4.4481942850464415"><ele>65.0</ele><time>2026-04-09T14:57:13Z</time></trkpt><trkpt lat="43.987258746171676" lon="4.4484160143659315"><ele>65.0</ele><time>2026-04-09T14:57:14Z</time></trkpt><trkpt lat="43.987199423875175" lon="4.448638102057004"><ele>65.0</ele><time>2026-04-09T14:57:15Z</time></trkpt><trkpt lat="43.98714039839947" lon="4.448859979243742"><ele>65.0</ele><time>2026-04-09T14:57:16Z</time></trkpt><trkpt lat="43.98708239263956" lon="4.449067637092466"><ele>65.25</ele><time>2026-04-09T14:57:17Z</time></trkpt><trkpt lat="43.987025905766146" lon="4.449256312937546"><ele>65.5</ele><time>2026-04-09T14:57:18Z</time></trkpt><trkpt lat="43.98697268594274" lon="4.449420757173891"><ele>65.75</ele><time>2026-04-09T14:57:19Z</time></trkpt><trkpt lat="43.98691896962092" lon="4.4495452803890885"><ele>66.0</ele><time>2026-04-09T14:57:20Z</time></trkpt><trkpt lat="43.98685555971772" lon="4.449646810865506"><ele>66.75</ele><time>2026-04-09T14:57:21Z</time></trkpt><trkpt lat="43.98679548734501" lon="4.4497515425851315"><ele>67.5</ele><time>2026-04-09T14:57:22Z</time></trkpt><trkpt lat="43.98674671011432" lon="4.449952492930679"><ele>68.25</ele><time>2026-04-09T14:57:23Z</time></trkpt><trkpt lat="43.9867976332721" lon="4.450173900288418"><ele>69.0</ele><time>2026-04-09T14:57:25Z</time></trkpt><trkpt lat="43.98680777404026" lon="4.450346498163026"><ele>69.0</ele><time>2026-04-09T14:57:26Z</time></trkpt><trkpt lat="43.98678133333105" lon="4.45054232311234"><ele>69.0</ele><time>2026-04-09T14:57:27Z</time></trkpt><trkpt lat="43.98672642110995" lon="4.450743080924981"><ele>69.0</ele><time>2026-04-09T14:57:28Z</time></trkpt><trkpt lat="43.98667295998876" lon="4.4509656557339845"><ele>69.0</ele><time>2026-04-09T14:57:29Z</time></trkpt><trkpt lat="43.98661620817913" lon="4.4512037278911105"><ele>69.0</ele><time>2026-04-09T14:57:30Z</time></trkpt><trkpt lat="43.986559623379705" lon="4.451464460537559"><ele>69.0</ele><time>2026-04-09T14:57:31Z</time></trkpt><trkpt lat="43.98649816320855" lon="4.451736694344126"><ele>69.0</ele><time>2026-04-09T14:57:32Z</time></trkpt><trkpt lat="43.9864364682088" lon="4.45201700927539"><ele>69.0</ele><time>2026-04-09T14:57:33Z</time></trkpt><trkpt lat="43.98637900331417" lon="4.452303969262655"><ele>69.0</ele><time>2026-04-09T14:57:34Z</time></trkpt><trkpt lat="43.98632237138396" lon="4.4525937395154225"><ele>69.33333333333333</ele><time>2026-04-09T14:57:35Z</time></trkpt><trkpt lat="43.98626904227534" lon="4.452892866738285"><ele>69.66666666666666</ele><time>2026-04-09T14:57:36Z</time></trkpt><trkpt lat="43.98622756376854" lon="4.453197919220946"><ele>70.0</ele><time>2026-04-09T14:57:37Z</time></trkpt><trkpt lat="43.98619513011826" lon="4.453509585411917"><ele>70.0</ele><time>2026-04-09T14:57:38Z</time></trkpt><trkpt lat="43.98617142294532" lon="4.453815186178162"><ele>70.0</ele><time>2026-04-09T14:57:39Z</time></trkpt><trkpt lat="43.98615007832663" lon="4.454114135795111"><ele>70.0</ele><time>2026-04-09T14:57:40Z</time></trkpt><trkpt lat="43.98612771098323" lon="4.454405760025999"><ele>70.66666666666666</ele><time>2026-04-09T14:57:41Z</time></trkpt><trkpt lat="43.986101638023" lon="4.45469028822489"><ele>71.33333333333333</ele><time>2026-04-09T14:57:42Z</time></trkpt><trkpt lat="43.986075943381906" lon="4.454968615936014"><ele>72.0</ele><time>2026-04-09T14:57:43Z</time></trkpt><trkpt lat="43.9860452385377" lon="4.455239253178179"><ele>72.66666666666667</ele><time>2026-04-09T14:57:44Z</time></trkpt><trkpt lat="43.98600835267744" lon="4.455504148824747"><ele>73.33333333333334</ele><time>2026-04-09T14:57:45Z</time></trkpt><trkpt lat="43.98595909414098" lon="4.45576953680389"><ele>74.0</ele><time>2026-04-09T14:57:46Z</time></trkpt><trkpt lat="43.98589857222355" lon="4.4560394625342195"><ele>74.0</ele><time>2026-04-09T14:57:47Z</time></trkpt><trkpt lat="43.9858287112924" lon="4.456307245922136"><ele>74.0</ele><time>2026-04-09T14:57:48Z</time></trkpt><trkpt lat="43.98574890298849" lon="4.456577565453314"><ele>74.0</ele><time>2026-04-09T14:57:49Z</time></trkpt><trkpt lat="43.985670144084764" lon="4.456853831392684"><ele>74.0</ele><time>2026-04-09T14:57:50Z</time></trkpt><trkpt lat="43.98559552910622" lon="4.457128891268114"><ele>74.0</ele><time>2026-04-09T14:57:51Z</time></trkpt><trkpt lat="43.98552174174399" lon="4.457396052797844"><ele>74.0</ele><time>2026-04-09T14:57:52Z</time></trkpt><trkpt lat="43.98544570354945" lon="4.4576632725693965"><ele>74.0</ele><time>2026-04-09T14:57:53Z</time></trkpt><trkpt lat="43.98536748259083" lon="4.457933209077242"><ele>74.0</ele><time>2026-04-09T14:57:54Z</time></trkpt><trkpt lat="43.985292081529465" lon="4.458204029823736"><ele>74.0</ele><time>2026-04-09T14:57:55Z</time></trkpt><trkpt lat="43.98521753197174" lon="4.458471280649694"><ele>73.33333333333334</ele><time>2026-04-09T14:57:56Z</time></trkpt><trkpt lat="43.98514302738352" lon="4.458735924878179"><ele>72.66666666666667</ele><time>2026-04-09T14:57:57Z</time></trkpt><trkpt lat="43.985068700488604" lon="4.4589981565560395"><ele>72.0</ele><time>2026-04-09T14:57:58Z</time></trkpt><trkpt lat="43.98499503814877" lon="4.459257531646616"><ele>70.66666666666667</ele><time>2026-04-09T14:57:59Z</time></trkpt><trkpt lat="43.98492174872213" lon="4.4595120755036906"><ele>69.33333333333334</ele><time>2026-04-09T14:58:00Z</time></trkpt><trkpt lat="43.98484864819392" lon="4.459765075973242"><ele>68.0</ele><time>2026-04-09T14:58:01Z</time></trkpt><trkpt lat="43.98477538887683" lon="4.460013633910575"><ele>68.0</ele><time>2026-04-09T14:58:02Z</time></trkpt><trkpt lat="43.98470573243748" lon="4.460261375324548"><ele>68.0</ele><time>2026-04-09T14:58:03Z</time></trkpt><trkpt lat="43.98463484625081" lon="4.460507984920233"><ele>68.0</ele><time>2026-04-09T14:58:04Z</time></trkpt><trkpt lat="43.98456201470845" lon="4.460754389722388"><ele>68.0</ele><time>2026-04-09T14:58:05Z</time></trkpt><trkpt lat="43.984487477751436" lon="4.4609989006036415"><ele>68.0</ele><time>2026-04-09T14:58:06Z</time></trkpt><trkpt lat="43.98441026824518" lon="4.461240706379427"><ele>68.0</ele><time>2026-04-09T14:58:07Z</time></trkpt><trkpt lat="43.984329355181146" lon="4.461472868094923"><ele>68.0</ele><time>2026-04-09T14:58:08Z</time></trkpt><trkpt lat="43.98424747074216" lon="4.461712888535664"><ele>68.0</ele><time>2026-04-09T14:58:09Z</time></trkpt><trkpt lat="43.98416269305371" lon="4.4619486051114805"><ele>68.0</ele><time>2026-04-09T14:58:10Z</time></trkpt><trkpt lat="43.98407645453852" lon="4.462186540296092"><ele>67.66666666666667</ele><time>2026-04-09T14:58:11Z</time></trkpt><trkpt lat="43.983986731464256" lon="4.462424256574178"><ele>67.33333333333333</ele><time>2026-04-09T14:58:12Z</time></trkpt><trkpt lat="43.98389385519482" lon="4.46266263954016"><ele>67.0</ele><time>2026-04-09T14:58:13Z</time></trkpt><trkpt lat="43.98379836845505" lon="4.462899741901866"><ele>67.0</ele><time>2026-04-09T14:58:14Z</time></trkpt><trkpt lat="43.98369688148962" lon="4.463133354584481"><ele>67.0</ele><time>2026-04-09T14:58:15Z</time></trkpt><trkpt lat="43.983592892320274" lon="4.463364213490087"><ele>67.0</ele><time>2026-04-09T14:58:16Z</time></trkpt><trkpt lat="43.98348719088708" lon="4.463591764816276"><ele>66.66666666666666</ele><time>2026-04-09T14:58:17Z</time></trkpt><trkpt lat="43.983378050940495" lon="4.4638187544987185"><ele>66.33333333333333</ele><time>2026-04-09T14:58:18Z</time></trkpt><trkpt lat="43.98326803205183" lon="4.4640432080290395"><ele>66.0</ele><time>2026-04-09T14:58:19Z</time></trkpt><trkpt lat="43.98315650620624" lon="4.464269800969753"><ele>66.0</ele><time>2026-04-09T14:58:20Z</time></trkpt><trkpt lat="43.98304369180564" lon="4.464498198193274"><ele>66.0</ele><time>2026-04-09T14:58:21Z</time></trkpt><trkpt lat="43.98293270262363" lon="4.464727058338596"><ele>66.0</ele><time>2026-04-09T14:58:22Z</time></trkpt><trkpt lat="43.982822240213956" lon="4.4649566900954545"><ele>66.0</ele><time>2026-04-09T14:58:23Z</time></trkpt><trkpt lat="43.982715326628096" lon="4.4651906204688165"><ele>66.0</ele><time>2026-04-09T14:58:24Z</time></trkpt><trkpt lat="43.982611076925" lon="4.465427571606465"><ele>66.0</ele><time>2026-04-09T14:58:25Z</time></trkpt><trkpt lat="43.98250837334822" lon="4.465668881199975"><ele>65.66666666666667</ele><time>2026-04-09T14:58:26Z</time></trkpt><trkpt lat="43.98240722848045" lon="4.465908871134721"><ele>65.33333333333334</ele><time>2026-04-09T14:58:27Z</time></trkpt><trkpt lat="43.982309260414944" lon="4.466151880330541"><ele>65.0</ele><time>2026-04-09T14:58:28Z</time></trkpt><trkpt lat="43.98221474752077" lon="4.466396138083962"><ele>64.33333333333334</ele><time>2026-04-09T14:58:29Z</time></trkpt><trkpt lat="43.98212126591672" lon="4.466638996960554"><ele>63.66666666666667</ele><time>2026-04-09T14:58:30Z</time></trkpt><trkpt lat="43.98203408912014" lon="4.466881293843398"><ele>63.0</ele><time>2026-04-09T14:58:31Z</time></trkpt><trkpt lat="43.981948285481415" lon="4.467122193332644"><ele>62.66666666666667</ele><time>2026-04-09T14:58:32Z</time></trkpt><trkpt lat="43.98186490122863" lon="4.467353630302667"><ele>62.333333333333336</ele><time>2026-04-09T14:58:33Z</time></trkpt><trkpt lat="43.98178295543417" lon="4.467581871268806"><ele>62.0</ele><time>2026-04-09T14:58:34Z</time></trkpt><trkpt lat="43.98170412247072" lon="4.467805641270641"><ele>61.333333333333336</ele><time>2026-04-09T14:58:35Z</time></trkpt><trkpt lat="43.98162482824673" lon="4.468026916277828"><ele>60.66666666666667</ele><time>2026-04-09T14:58:36Z</time></trkpt><trkpt lat="43.98154843964153" lon="4.4682483584239785"><ele>60.0</ele><time>2026-04-09T14:58:37Z</time></trkpt><trkpt lat="43.981472050944824" lon="4.46847139512201"><ele>60.0</ele><time>2026-04-09T14:58:38Z</time></trkpt><trkpt lat="43.98139218187715" lon="4.468697223281549"><ele>60.0</ele><time>2026-04-09T14:58:39Z</time></trkpt><trkpt lat="43.98131188336329" lon="4.468922778063302"><ele>60.0</ele><time>2026-04-09T14:58:40Z</time></trkpt><trkpt lat="43.98122838233922" lon="4.469153876855726"><ele>60.0</ele><time>2026-04-09T14:58:41Z</time></trkpt><trkpt lat="43.981141705990645" lon="4.469389339458983"><ele>60.0</ele><time>2026-04-09T14:58:42Z</time></trkpt><trkpt lat="43.98105350439877" lon="4.469627513996715"><ele>60.0</ele><time>2026-04-09T14:58:43Z</time></trkpt><trkpt lat="43.98095866373294" lon="4.469866867492509"><ele>60.0</ele><time>2026-04-09T14:58:44Z</time></trkpt><trkpt lat="43.980855647023674" lon="4.4701045861932505"><ele>60.0</ele><time>2026-04-09T14:58:45Z</time></trkpt><trkpt lat="43.980749749613324" lon="4.470341812140246"><ele>60.0</ele><time>2026-04-09T14:58:46Z</time></trkpt><trkpt lat="43.980639858409646" lon="4.470579416564231"><ele>59.66666666666667</ele><time>2026-04-09T14:58:47Z</time></trkpt><trkpt lat="43.980529792286895" lon="4.470814270094517"><ele>59.333333333333336</ele><time>2026-04-09T14:58:48Z</time></trkpt><trkpt lat="43.98041780751378" lon="4.471048510546619"><ele>59.0</ele><time>2026-04-09T14:58:49Z</time></trkpt><trkpt lat="43.98030356933547" lon="4.471280367622464"><ele>59.0</ele><time>2026-04-09T14:58:50Z</time></trkpt><trkpt lat="43.980189702710994" lon="4.471510799524272"><ele>59.0</ele><time>2026-04-09T14:58:51Z</time></trkpt><trkpt lat="43.980076933834646" lon="4.471740050649648"><ele>59.0</ele><time>2026-04-09T14:58:52Z</time></trkpt><trkpt lat="43.97996537470114" lon="4.471965721950159"><ele>60.0</ele><time>2026-04-09T14:58:53Z</time></trkpt><trkpt lat="43.9798560907388" lon="4.472186813089888"><ele>61.0</ele><time>2026-04-09T14:58:54Z</time></trkpt><trkpt lat="43.97974854270739" lon="4.472406430560911"><ele>62.0</ele><time>2026-04-09T14:58:55Z</time></trkpt><trkpt lat="43.979643167155295" lon="4.472626879313075"><ele>62.0</ele><time>2026-04-09T14:58:56Z</time></trkpt><trkpt lat="43.979544926417404" lon="4.47285487534246"><ele>62.0</ele><time>2026-04-09T14:58:57Z</time></trkpt><trkpt lat="43.97945847619638" lon="4.473093924789957"><ele>62.0</ele><time>2026-04-09T14:58:58Z</time></trkpt><trkpt lat="43.979377417650866" lon="4.4733415091798525"><ele>62.333333333333336</ele><time>2026-04-09T14:58:59Z</time></trkpt><trkpt lat="43.97930159679202" lon="4.473591730509832"><ele>62.66666666666667</ele><time>2026-04-09T14:59:00Z</time></trkpt><trkpt lat="43.979232571810265" lon="4.473847413772204"><ele>63.0</ele><time>2026-04-09T14:59:01Z</time></trkpt><trkpt lat="43.97916385184219" lon="4.474095516579851"><ele>62.0</ele><time>2026-04-09T14:59:02Z</time></trkpt><trkpt lat="43.97909450945613" lon="4.474339001515404"><ele>61.0</ele><time>2026-04-09T14:59:03Z</time></trkpt><trkpt lat="43.97902887209042" lon="4.474577988433345"><ele>60.0</ele><time>2026-04-09T14:59:04Z</time></trkpt><trkpt lat="43.97896403730152" lon="4.474813982197807"><ele>59.66666666666667</ele><time>2026-04-09T14:59:05Z</time></trkpt><trkpt lat="43.9788997013134" lon="4.475044221063651"><ele>59.333333333333336</ele><time>2026-04-09T14:59:06Z</time></trkpt><trkpt lat="43.97883775816233" lon="4.4752668901695"><ele>59.0</ele><time>2026-04-09T14:59:07Z</time></trkpt><trkpt lat="43.97877782490606" lon="4.475486138104822"><ele>59.66666666666667</ele><time>2026-04-09T14:59:08Z</time></trkpt><trkpt lat="43.97871754845929" lon="4.4757010965520445"><ele>60.33333333333333</ele><time>2026-04-09T14:59:09Z</time></trkpt><trkpt lat="43.97865993166565" lon="4.4759131738042"><ele>61.0</ele><time>2026-04-09T14:59:10Z</time></trkpt><trkpt lat="43.97860314462008" lon="4.476123919278115"><ele>61.33333333333333</ele><time>2026-04-09T14:59:11Z</time></trkpt><trkpt lat="43.97854553332887" lon="4.476337425332579"><ele>61.66666666666667</ele><time>2026-04-09T14:59:12Z</time></trkpt><trkpt lat="43.978484801306394" lon="4.476549845704496"><ele>62.0</ele><time>2026-04-09T14:59:13Z</time></trkpt><trkpt lat="43.97842212903654" lon="4.476762308533119"><ele>62.0</ele><time>2026-04-09T14:59:14Z</time></trkpt><trkpt lat="43.97836055452982" lon="4.476977873264688"><ele>62.0</ele><time>2026-04-09T14:59:15Z</time></trkpt><trkpt lat="43.978298261803964" lon="4.4771949727431855"><ele>62.0</ele><time>2026-04-09T14:59:16Z</time></trkpt><trkpt lat="43.97823517325567" lon="4.4774127614552786"><ele>61.0</ele><time>2026-04-09T14:59:17Z</time></trkpt><trkpt lat="43.97817402150599" lon="4.4776285416163235"><ele>60.0</ele><time>2026-04-09T14:59:18Z</time></trkpt><trkpt lat="43.978112969272004" lon="4.477843187389545"><ele>59.0</ele><time>2026-04-09T14:59:19Z</time></trkpt><trkpt lat="43.978051149876485" lon="4.478059161798601"><ele>59.0</ele><time>2026-04-09T14:59:20Z</time></trkpt><trkpt lat="43.97798935937606" lon="4.47827685566841"><ele>59.0</ele><time>2026-04-09T14:59:21Z</time></trkpt><trkpt lat="43.977928121276925" lon="4.478498208362051"><ele>59.0</ele><time>2026-04-09T14:59:22Z</time></trkpt><trkpt lat="43.977865178214394" lon="4.478721971398786"><ele>58.0</ele><time>2026-04-09T14:59:23Z</time></trkpt><trkpt lat="43.97780377633325" lon="4.478948261273479"><ele>57.0</ele><time>2026-04-09T14:59:24Z</time></trkpt><trkpt lat="43.97774088944236" lon="4.479177073121052"><ele>56.0</ele><time>2026-04-09T14:59:25Z</time></trkpt><trkpt lat="43.97767690469143" lon="4.4794095142737005"><ele>56.0</ele><time>2026-04-09T14:59:26Z</time></trkpt><trkpt lat="43.9776118171086" lon="4.479647606798216"><ele>56.0</ele><time>2026-04-09T14:59:27Z</time></trkpt><trkpt lat="43.97754562402816" lon="4.479886986415299"><ele>56.0</ele><time>2026-04-09T14:59:28Z</time></trkpt><trkpt lat="43.9774797396579" lon="4.480128763157897"><ele>56.0</ele><time>2026-04-09T14:59:29Z</time></trkpt><trkpt lat="43.97741259974771" lon="4.480375580085492"><ele>56.0</ele><time>2026-04-09T14:59:30Z</time></trkpt><trkpt lat="43.977342984745846" lon="4.480623471244371"><ele>56.0</ele><time>2026-04-09T14:59:31Z</time></trkpt><trkpt lat="43.977272972597355" lon="4.480874975157044"><ele>56.0</ele><time>2026-04-09T14:59:32Z</time></trkpt><trkpt lat="43.97719940644809" lon="4.481128195560594"><ele>56.0</ele><time>2026-04-09T14:59:33Z</time></trkpt><trkpt lat="43.977126278949314" lon="4.481384539441182"><ele>56.0</ele><time>2026-04-09T14:59:34Z</time></trkpt><trkpt lat="43.977052807846846" lon="4.481641724606065"><ele>56.0</ele><time>2026-04-09T14:59:35Z</time></trkpt><trkpt lat="43.97697956717358" lon="4.481903720698536"><ele>56.0</ele><time>2026-04-09T14:59:36Z</time></trkpt><trkpt lat="43.97690585695548" lon="4.482168338250463"><ele>56.0</ele><time>2026-04-09T14:59:37Z</time></trkpt><trkpt lat="43.97683228472464" lon="4.482437016016239"><ele>56.0</ele><time>2026-04-09T14:59:38Z</time></trkpt><trkpt lat="43.976758028756635" lon="4.482710586380037"><ele>56.0</ele><time>2026-04-09T14:59:39Z</time></trkpt><trkpt lat="43.976683301335626" lon="4.4829863520852795"><ele>56.0</ele><time>2026-04-09T14:59:40Z</time></trkpt><trkpt lat="43.976607917659095" lon="4.483259862494616"><ele>56.0</ele><time>2026-04-09T14:59:41Z</time></trkpt><trkpt lat="43.97653101296142" lon="4.483533483622523"><ele>56.0</ele><time>2026-04-09T14:59:42Z</time></trkpt><trkpt lat="43.97645752914453" lon="4.483801242011868"><ele>56.0</ele><time>2026-04-09T14:59:43Z</time></trkpt><trkpt lat="43.97638383490234" lon="4.484067457309368"><ele>56.0</ele><time>2026-04-09T14:59:44Z</time></trkpt><trkpt lat="43.97630969345034" lon="4.484333519740805"><ele>56.0</ele><time>2026-04-09T14:59:45Z</time></trkpt><trkpt lat="43.97623386554264" lon="4.484598973759596"><ele>56.0</ele><time>2026-04-09T14:59:46Z</time></trkpt><trkpt lat="43.9761594917759" lon="4.4848667973730745"><ele>56.0</ele><time>2026-04-09T14:59:47Z</time></trkpt><trkpt lat="43.97608428213369" lon="4.48513523620595"><ele>56.0</ele><time>2026-04-09T14:59:48Z</time></trkpt><trkpt lat="43.97600988843055" lon="4.485404914845137"><ele>56.0</ele><time>2026-04-09T14:59:49Z</time></trkpt><trkpt lat="43.97593523111644" lon="4.485675702921788"><ele>56.0</ele><time>2026-04-09T14:59:50Z</time></trkpt><trkpt lat="43.975861136317086" lon="4.485948652342899"><ele>56.0</ele><time>2026-04-09T14:59:51Z</time></trkpt><trkpt lat="43.975785815055275" lon="4.486220738453827"><ele>56.0</ele><time>2026-04-09T14:59:52Z</time></trkpt><trkpt lat="43.97571169557038" lon="4.486487638186259"><ele>55.66666666666667</ele><time>2026-04-09T14:59:53Z</time></trkpt><trkpt lat="43.97563691401827" lon="4.486754534373985"><ele>55.33333333333333</ele><time>2026-04-09T14:59:54Z</time></trkpt><trkpt lat="43.97556167135487" lon="4.487025669777637"><ele>55.0</ele><time>2026-04-09T14:59:55Z</time></trkpt><trkpt lat="43.97548554523576" lon="4.487295584111949"><ele>55.0</ele><time>2026-04-09T14:59:56Z</time></trkpt><trkpt lat="43.97540988880108" lon="4.487569487321644"><ele>55.0</ele><time>2026-04-09T14:59:57Z</time></trkpt><trkpt lat="43.975334597169805" lon="4.487838897855917"><ele>55.0</ele><time>2026-04-09T14:59:58Z</time></trkpt><trkpt lat="43.97526089451805" lon="4.488107471085782"><ele>54.33333333333333</ele><time>2026-04-09T14:59:59Z</time></trkpt><trkpt lat="43.97518659237564" lon="4.48837625283164"><ele>53.66666666666667</ele><time>2026-04-09T15:00:00Z</time></trkpt><trkpt lat="43.97511211707114" lon="4.488646886016805"><ele>53.0</ele><time>2026-04-09T15:00:01Z</time></trkpt><trkpt lat="43.97503598185738" lon="4.488918877898641"><ele>53.0</ele><time>2026-04-09T15:00:02Z</time></trkpt><trkpt lat="43.97496053133733" lon="4.489195376857309"><ele>53.0</ele><time>2026-04-09T15:00:03Z</time></trkpt><trkpt lat="43.97488338028379" lon="4.489471472359283"><ele>53.0</ele><time>2026-04-09T15:00:04Z</time></trkpt><trkpt lat="43.97480631582977" lon="4.489749876050809"><ele>53.0</ele><time>2026-04-09T15:00:05Z</time></trkpt><trkpt lat="43.974731020965805" lon="4.490021716369659"><ele>53.0</ele><time>2026-04-09T15:00:06Z</time></trkpt><trkpt lat="43.974655108578695" lon="4.49029628255645"><ele>53.0</ele><time>2026-04-09T15:00:07Z</time></trkpt><trkpt lat="43.974580773068865" lon="4.49056541972946"><ele>53.0</ele><time>2026-04-09T15:00:08Z</time></trkpt><trkpt lat="43.97450737194239" lon="4.490828971164264"><ele>53.0</ele><time>2026-04-09T15:00:09Z</time></trkpt><trkpt lat="43.974434608599715" lon="4.491085584454527"><ele>53.0</ele><time>2026-04-09T15:00:10Z</time></trkpt><trkpt lat="43.97436133910642" lon="4.49133539565978"><ele>53.333333333333336</ele><time>2026-04-09T15:00:11Z</time></trkpt><trkpt lat="43.974287935404035" lon="4.491582404052484"><ele>53.66666666666667</ele><time>2026-04-09T15:00:12Z</time></trkpt><trkpt lat="43.97422036208832" lon="4.491821341707357"><ele>54.0</ele><time>2026-04-09T15:00:13Z</time></trkpt><trkpt lat="43.974156725209035" lon="4.492059019879646"><ele>54.33333333333333</ele><time>2026-04-09T15:00:14Z</time></trkpt><trkpt lat="43.97409203631465" lon="4.4922894678957555"><ele>54.666666666666664</ele><time>2026-04-09T15:00:15Z</time></trkpt><trkpt lat="43.97402987159041" lon="4.492514434279566"><ele>55.0</ele><time>2026-04-09T15:00:16Z</time></trkpt><trkpt lat="43.973967277634365" lon="4.492737842727928"><ele>55.0</ele><time>2026-04-09T15:00:17Z</time></trkpt><trkpt lat="43.97390715795439" lon="4.492959253562774"><ele>55.0</ele><time>2026-04-09T15:00:18Z</time></trkpt><trkpt lat="43.973849153239165" lon="4.493180466478374"><ele>55.0</ele><time>2026-04-09T15:00:19Z</time></trkpt><trkpt lat="43.9737924661388" lon="4.493400257666563"><ele>55.0</ele><time>2026-04-09T15:00:20Z</time></trkpt><trkpt lat="43.97373781085321" lon="4.493618351887923"><ele>55.0</ele><time>2026-04-09T15:00:21Z</time></trkpt><trkpt lat="43.97368318778838" lon="4.493839498060715"><ele>55.0</ele><time>2026-04-09T15:00:22Z</time></trkpt><trkpt lat="43.97363078902712" lon="4.494056722497708"><ele>55.0</ele><time>2026-04-09T15:00:23Z</time></trkpt><trkpt lat="43.97357907681877" lon="4.494271419873284"><ele>55.0</ele><time>2026-04-09T15:00:24Z</time></trkpt><trkpt lat="43.97352737763167" lon="4.494483408375674"><ele>55.0</ele><time>2026-04-09T15:00:25Z</time></trkpt><trkpt lat="43.9734753049618" lon="4.4946938075949365"><ele>55.0</ele><time>2026-04-09T15:00:26Z</time></trkpt><trkpt lat="43.97342315510364" lon="4.4949027705601345"><ele>55.0</ele><time>2026-04-09T15:00:27Z</time></trkpt><trkpt lat="43.973370761306775" lon="4.495108677778249"><ele>55.0</ele><time>2026-04-09T15:00:28Z</time></trkpt><trkpt lat="43.97331679763247" lon="4.495308476368931"><ele>55.0</ele><time>2026-04-09T15:00:29Z</time></trkpt><trkpt lat="43.97325469623123" lon="4.495500006730133"><ele>55.0</ele><time>2026-04-09T15:00:30Z</time></trkpt><trkpt lat="43.973185629287514" lon="4.495681799131205"><ele>55.0</ele><time>2026-04-09T15:00:31Z</time></trkpt><trkpt lat="43.97311309403678" lon="4.495856742454955"><ele>55.0</ele><time>2026-04-09T15:00:32Z</time></trkpt><trkpt lat="43.97303606820491" lon="4.496026373440343"><ele>55.0</ele><time>2026-04-09T15:00:33Z</time></trkpt><trkpt lat="43.97294874980945" lon="4.496187637706728"><ele>55.0</ele><time>2026-04-09T15:00:34Z</time></trkpt><trkpt lat="43.97285861484387" lon="4.496341545410963"><ele>55.0</ele><time>2026-04-09T15:00:35Z</time></trkpt><trkpt lat="43.972767349593724" lon="4.496489434664604"><ele>55.0</ele><time>2026-04-09T15:00:36Z</time></trkpt><trkpt lat="43.972678314000625" lon="4.496632509762603"><ele>55.25</ele><time>2026-04-09T15:00:37Z</time></trkpt><trkpt lat="43.97258548145878" lon="4.49677179967957"><ele>55.5</ele><time>2026-04-09T15:00:38Z</time></trkpt><trkpt lat="43.97249315049275" lon="4.496905288714481"><ele>55.75</ele><time>2026-04-09T15:00:39Z</time></trkpt><trkpt lat="43.9724016546923" lon="4.497033195941797"><ele>56.0</ele><time>2026-04-09T15:00:40Z</time></trkpt><trkpt lat="43.97230896588952" lon="4.49715927462214"><ele>56.5</ele><time>2026-04-09T15:00:41Z</time></trkpt><trkpt lat="43.972217502226705" lon="4.497280468645209"><ele>57.0</ele><time>2026-04-09T15:00:42Z</time></trkpt><trkpt lat="43.97212651230075" lon="4.497396748759332"><ele>57.5</ele><time>2026-04-09T15:00:43Z</time></trkpt><trkpt lat="43.972030815219675" lon="4.497489926586097"><ele>58.0</ele><time>2026-04-09T15:00:44Z</time></trkpt><trkpt lat="43.97193803270289" lon="4.497569364525656"><ele>58.0</ele><time>2026-04-09T15:00:45Z</time></trkpt><trkpt lat="43.97184670906915" lon="4.497640996104047"><ele>58.0</ele><time>2026-04-09T15:00:46Z</time></trkpt><trkpt lat="43.97176462462224" lon="4.497697290801996"><ele>58.0</ele><time>2026-04-09T15:00:47Z</time></trkpt><trkpt lat="43.97169214540862" lon="4.497767204921156"><ele>58.0</ele><time>2026-04-09T15:00:48Z</time></trkpt><trkpt lat="43.97164065306611" lon="4.4978598873531626"><ele>58.0</ele><time>2026-04-09T15:00:49Z</time></trkpt><trkpt lat="43.97161656228853" lon="4.497971134908701"><ele>57.4</ele><time>2026-04-09T15:00:50Z</time></trkpt><trkpt lat="43.971608858186535" lon="4.498099089415783"><ele>56.8</ele><time>2026-04-09T15:00:51Z</time></trkpt><trkpt lat="43.97158963553577" lon="4.498230295562258"><ele>56.2</ele><time>2026-04-09T15:00:52Z</time></trkpt><trkpt lat="43.97153552154346" lon="4.498361231182059"><ele>55.6</ele><time>2026-04-09T15:00:53Z</time></trkpt><trkpt lat="43.97146707040108" lon="4.4984961401877825"><ele>55.0</ele><time>2026-04-09T15:00:54Z</time></trkpt><trkpt lat="43.97139845334161" lon="4.498634702395422"><ele>55.75</ele><time>2026-04-09T15:00:55Z</time></trkpt><trkpt lat="43.97132795598421" lon="4.498778386692012"><ele>56.5</ele><time>2026-04-09T15:00:56Z</time></trkpt><trkpt lat="43.9712606871714" lon="4.498923894447286"><ele>57.25</ele><time>2026-04-09T15:00:57Z</time></trkpt><trkpt lat="43.97119509415707" lon="4.499069846385421"><ele>58.0</ele><time>2026-04-09T15:00:58Z</time></trkpt><trkpt lat="43.97112853576449" lon="4.499217509468505"><ele>58.0</ele><time>2026-04-09T15:00:59Z</time></trkpt><trkpt lat="43.97106061215853" lon="4.499367435734883"><ele>58.0</ele><time>2026-04-09T15:01:00Z</time></trkpt><trkpt lat="43.97099162208019" lon="4.4995191075706495"><ele>58.0</ele><time>2026-04-09T15:01:01Z</time></trkpt><trkpt lat="43.97091655516914" lon="4.499671418662313"><ele>58.0</ele><time>2026-04-09T15:01:02Z</time></trkpt><trkpt lat="43.97083255410505" lon="4.499819694027928"><ele>57.0</ele><time>2026-04-09T15:01:03Z</time></trkpt><trkpt lat="43.97074308036949" lon="4.499976173928966"><ele>56.0</ele><time>2026-04-09T15:01:04Z</time></trkpt><trkpt lat="43.970647903087816" lon="4.5001404533166385"><ele>55.0</ele><time>2026-04-09T15:01:05Z</time></trkpt><trkpt lat="43.9705482421899" lon="4.500308443581331"><ele>55.0</ele><time>2026-04-09T15:01:06Z</time></trkpt><trkpt lat="43.97044663164365" lon="4.500477185193607"><ele>55.0</ele><time>2026-04-09T15:01:07Z</time></trkpt><trkpt lat="43.970343430126704" lon="4.500647034215361"><ele>55.0</ele><time>2026-04-09T15:01:08Z</time></trkpt><trkpt lat="43.97024281719016" lon="4.500822044226001"><ele>55.0</ele><time>2026-04-09T15:01:09Z</time></trkpt><trkpt lat="43.97014280507983" lon="4.500992737480137"><ele>55.0</ele><time>2026-04-09T15:01:10Z</time></trkpt><trkpt lat="43.97004101190319" lon="4.501162169102346"><ele>55.0</ele><time>2026-04-09T15:01:11Z</time></trkpt><trkpt lat="43.96993781994942" lon="4.501336867629585"><ele>55.666666666666664</ele><time>2026-04-09T15:01:12Z</time></trkpt><trkpt lat="43.96983518064264" lon="4.501508756652285"><ele>56.33333333333333</ele><time>2026-04-09T15:01:13Z</time></trkpt><trkpt lat="43.96973220534457" lon="4.501684547050835"><ele>57.0</ele><time>2026-04-09T15:01:14Z</time></trkpt><trkpt lat="43.969628701128514" lon="4.501860513871431"><ele>57.0</ele><time>2026-04-09T15:01:15Z</time></trkpt><trkpt lat="43.969524725909785" lon="4.502035079183555"><ele>57.0</ele><time>2026-04-09T15:01:16Z</time></trkpt><trkpt lat="43.969422306183695" lon="4.502211942959951"><ele>57.0</ele><time>2026-04-09T15:01:17Z</time></trkpt><trkpt lat="43.9693268730273" lon="4.502396526824259"><ele>56.66666666666667</ele><time>2026-04-09T15:01:18Z</time></trkpt><trkpt lat="43.96923603688164" lon="4.502584215692536"><ele>56.333333333333336</ele><time>2026-04-09T15:01:19Z</time></trkpt><trkpt lat="43.96915064173073" lon="4.502779924272346"><ele>56.0</ele><time>2026-04-09T15:01:20Z</time></trkpt><trkpt lat="43.969063813458405" lon="4.502977031393661"><ele>55.66666666666667</ele><time>2026-04-09T15:01:21Z</time></trkpt><trkpt lat="43.96897800541478" lon="4.503173288199502"><ele>55.33333333333333</ele><time>2026-04-09T15:01:22Z</time></trkpt><trkpt lat="43.96889317566116" lon="4.5033715761088"><ele>55.0</ele><time>2026-04-09T15:01:23Z</time></trkpt><trkpt lat="43.968807954570444" lon="4.503569301313024"><ele>55.0</ele><time>2026-04-09T15:01:24Z</time></trkpt><trkpt lat="43.9687189682055" lon="4.50376742645171"><ele>55.0</ele><time>2026-04-09T15:01:25Z</time></trkpt><trkpt lat="43.9686282728602" lon="4.5039658899000266"><ele>55.0</ele><time>2026-04-09T15:01:26Z</time></trkpt><trkpt lat="43.968538039063674" lon="4.504167655259225"><ele>55.0</ele><time>2026-04-09T15:01:27Z</time></trkpt><trkpt lat="43.96845012572755" lon="4.504368075339579"><ele>55.0</ele><time>2026-04-09T15:01:28Z</time></trkpt><trkpt lat="43.96836456900875" lon="4.504565657562271"><ele>55.0</ele><time>2026-04-09T15:01:29Z</time></trkpt><trkpt lat="43.96827695000586" lon="4.504759638469394"><ele>55.0</ele><time>2026-04-09T15:01:30Z</time></trkpt><trkpt lat="43.96819139256263" lon="4.504951020006127"><ele>55.0</ele><time>2026-04-09T15:01:31Z</time></trkpt><trkpt lat="43.96810666911604" lon="4.505139768650786"><ele>55.0</ele><time>2026-04-09T15:01:32Z</time></trkpt><trkpt lat="43.96802171908196" lon="4.50532568202924"><ele>55.0</ele><time>2026-04-09T15:01:33Z</time></trkpt><trkpt lat="43.96793792174035" lon="4.505510396773697"><ele>55.0</ele><time>2026-04-09T15:01:34Z</time></trkpt><trkpt lat="43.96785670407225" lon="4.505695292816198"><ele>55.0</ele><time>2026-04-09T15:01:35Z</time></trkpt><trkpt lat="43.9677756040007" lon="4.5058825542780685"><ele>55.0</ele><time>2026-04-09T15:01:36Z</time></trkpt><trkpt lat="43.96769565225563" lon="4.506068195235215"><ele>55.0</ele><time>2026-04-09T15:01:37Z</time></trkpt><trkpt lat="43.967614685546316" lon="4.506253378347612"><ele>55.0</ele><time>2026-04-09T15:01:38Z</time></trkpt><trkpt lat="43.96753269412247" lon="4.50643495190222"><ele>54.666666666666664</ele><time>2026-04-09T15:01:39Z</time></trkpt><trkpt lat="43.96745267435017" lon="4.506613044088479"><ele>54.33333333333333</ele><time>2026-04-09T15:01:40Z</time></trkpt><trkpt lat="43.96736967921549" lon="4.506799631955288"><ele>54.0</ele><time>2026-04-09T15:01:41Z</time></trkpt><trkpt lat="43.967284743114256" lon="4.506986926260873"><ele>54.0</ele><time>2026-04-09T15:01:42Z</time></trkpt><trkpt lat="43.96719813186261" lon="4.507174658343411"><ele>54.0</ele><time>2026-04-09T15:01:43Z</time></trkpt><trkpt lat="43.96710818626171" lon="4.507366767506055"><ele>54.0</ele><time>2026-04-09T15:01:44Z</time></trkpt><trkpt lat="43.967018168312165" lon="4.5075569231794965"><ele>54.0</ele><time>2026-04-09T15:01:45Z</time></trkpt><trkpt lat="43.966925299053855" lon="4.507750299837971"><ele>54.0</ele><time>2026-04-09T15:01:46Z</time></trkpt><trkpt lat="43.96683187335424" lon="4.507940393103309"><ele>54.0</ele><time>2026-04-09T15:01:47Z</time></trkpt><trkpt lat="43.966735252483204" lon="4.508132967320267"><ele>53.33333333333333</ele><time>2026-04-09T15:01:48Z</time></trkpt><trkpt lat="43.966639201680294" lon="4.508326489552798"><ele>52.666666666666664</ele><time>2026-04-09T15:01:49Z</time></trkpt><trkpt lat="43.966545259528935" lon="4.5085218163004805"><ele>52.0</ele><time>2026-04-09T15:01:50Z</time></trkpt><trkpt lat="43.96645200713419" lon="4.508715620222916"><ele>51.666666666666664</ele><time>2026-04-09T15:01:51Z</time></trkpt><trkpt lat="43.96636022656516" lon="4.508908827159205"><ele>51.33333333333333</ele><time>2026-04-09T15:01:52Z</time></trkpt><trkpt lat="43.966270664886764" lon="4.509103615578582"><ele>51.0</ele><time>2026-04-09T15:01:53Z</time></trkpt><trkpt lat="43.966155554935604" lon="4.5092663793083005"><ele>51.0</ele><time>2026-04-09T15:01:54Z</time></trkpt><trkpt lat="43.96608829752789" lon="4.509489863852782"><ele>51.0</ele><time>2026-04-09T15:01:55Z</time></trkpt><trkpt lat="43.9659970062877" lon="4.509686521586769"><ele>51.0</ele><time>2026-04-09T15:01:56Z</time></trkpt><trkpt lat="43.965903369770345" lon="4.509882547040904"><ele>50.33333333333333</ele><time>2026-04-09T15:01:57Z</time></trkpt><trkpt lat="43.96580701211803" lon="4.510083029485367"><ele>49.666666666666664</ele><time>2026-04-09T15:01:58Z</time></trkpt><trkpt lat="43.9657075872946" lon="4.510288525028604"><ele>49.0</ele><time>2026-04-09T15:01:59Z</time></trkpt><trkpt lat="43.9656075764851" lon="4.510495051722833"><ele>48.666666666666664</ele><time>2026-04-09T15:02:00Z</time></trkpt><trkpt lat="43.96550896778456" lon="4.510699064226334"><ele>48.33333333333333</ele><time>2026-04-09T15:02:01Z</time></trkpt><trkpt lat="43.965408188808375" lon="4.510895904506225"><ele>48.0</ele><time>2026-04-09T15:02:02Z</time></trkpt><trkpt lat="43.96530973035344" lon="4.5110941842750405"><ele>48.0</ele><time>2026-04-09T15:02:03Z</time></trkpt><trkpt lat="43.96520664754777" lon="4.511285789346347"><ele>48.0</ele><time>2026-04-09T15:02:04Z</time></trkpt><trkpt lat="43.965102308685495" lon="4.511473185438771"><ele>48.0</ele><time>2026-04-09T15:02:05Z</time></trkpt><trkpt lat="43.96499754948365" lon="4.511655383531284"><ele>47.333333333333336</ele><time>2026-04-09T15:02:06Z</time></trkpt><trkpt lat="43.96488282183855" lon="4.5118222612952135"><ele>46.66666666666667</ele><time>2026-04-09T15:02:07Z</time></trkpt><trkpt lat="43.96477642039959" lon="4.511997450923971"><ele>46.0</ele><time>2026-04-09T15:02:08Z</time></trkpt><trkpt lat="43.96466267060088" lon="4.5121612112182445"><ele>46.0</ele><time>2026-04-09T15:02:09Z</time></trkpt><trkpt lat="43.964550777492754" lon="4.512322606240059"><ele>46.0</ele><time>2026-04-09T15:02:10Z</time></trkpt><trkpt lat="43.96443511652356" lon="4.512479904772298"><ele>46.0</ele><time>2026-04-09T15:02:11Z</time></trkpt><trkpt lat="43.96431734047827" lon="4.512630954231022"><ele>46.0</ele><time>2026-04-09T15:02:12Z</time></trkpt><trkpt lat="43.96419881092358" lon="4.512784638636341"><ele>46.0</ele><time>2026-04-09T15:02:13Z</time></trkpt><trkpt lat="43.9640781672777" lon="4.512944781535656"><ele>46.0</ele><time>2026-04-09T15:02:14Z</time></trkpt><trkpt lat="43.96395688778998" lon="4.513102166810604"><ele>45.333333333333336</ele><time>2026-04-09T15:02:15Z</time></trkpt><trkpt lat="43.96383153722392" lon="4.5132622112524645"><ele>44.666666666666664</ele><time>2026-04-09T15:02:16Z</time></trkpt><trkpt lat="43.963704791171764" lon="4.513423351436493"><ele>44.0</ele><time>2026-04-09T15:02:17Z</time></trkpt><trkpt lat="43.9635789102527" lon="4.513583093494279"><ele>43.666666666666664</ele><time>2026-04-09T15:02:18Z</time></trkpt><trkpt lat="43.96345170394939" lon="4.513744517724443"><ele>43.333333333333336</ele><time>2026-04-09T15:02:19Z</time></trkpt><trkpt lat="43.96332243009382" lon="4.513910976303764"><ele>43.0</ele><time>2026-04-09T15:02:20Z</time></trkpt><trkpt lat="43.963192473873605" lon="4.514077308649669"><ele>42.333333333333336</ele><time>2026-04-09T15:02:21Z</time></trkpt><trkpt lat="43.96306245016291" lon="4.514249661635368"><ele>41.666666666666664</ele><time>2026-04-09T15:02:22Z</time></trkpt><trkpt lat="43.962929985075725" lon="4.514420100759173"><ele>41.0</ele><time>2026-04-09T15:02:23Z</time></trkpt><trkpt lat="43.962798256954024" lon="4.514589147513665"><ele>41.0</ele><time>2026-04-09T15:02:24Z</time></trkpt><trkpt lat="43.96266652794952" lon="4.514754258088609"><ele>41.0</ele><time>2026-04-09T15:02:25Z</time></trkpt><trkpt lat="43.96253098087758" lon="4.514924288075113"><ele>41.0</ele><time>2026-04-09T15:02:26Z</time></trkpt><trkpt lat="43.9624003487957" lon="4.515087562416389"><ele>41.0</ele><time>2026-04-09T15:02:27Z</time></trkpt><trkpt lat="43.96227364112177" lon="4.515257046662396"><ele>41.0</ele><time>2026-04-09T15:02:28Z</time></trkpt><trkpt lat="43.96214734548826" lon="4.515421381717592"><ele>41.0</ele><time>2026-04-09T15:02:29Z</time></trkpt><trkpt lat="43.962022127306476" lon="4.515589555114072"><ele>40.0</ele><time>2026-04-09T15:02:30Z</time></trkpt><trkpt lat="43.96189700318179" lon="4.515755979995592"><ele>39.0</ele><time>2026-04-09T15:02:31Z</time></trkpt><trkpt lat="43.96177453041549" lon="4.515933258476521"><ele>38.0</ele><time>2026-04-09T15:02:32Z</time></trkpt><trkpt lat="43.96165244546398" lon="4.516116470169703"><ele>37.33333333333333</ele><time>2026-04-09T15:02:33Z</time></trkpt><trkpt lat="43.96153490927" lon="4.516301889633469"><ele>36.666666666666664</ele><time>2026-04-09T15:02:34Z</time></trkpt><trkpt lat="43.961414833133944" lon="4.516487868874595"><ele>36.0</ele><time>2026-04-09T15:02:35Z</time></trkpt><trkpt lat="43.96129390735949" lon="4.516673311738393"><ele>36.0</ele><time>2026-04-09T15:02:36Z</time></trkpt><trkpt lat="43.9611714695382" lon="4.516859519070904"><ele>36.0</ele><time>2026-04-09T15:02:37Z</time></trkpt><trkpt lat="43.96104421140079" lon="4.517036064560979"><ele>36.0</ele><time>2026-04-09T15:02:38Z</time></trkpt><trkpt lat="43.96091596864039" lon="4.5172131565417875"><ele>36.0</ele><time>2026-04-09T15:02:39Z</time></trkpt><trkpt lat="43.960785464462624" lon="4.517383545729398"><ele>36.0</ele><time>2026-04-09T15:02:40Z</time></trkpt><trkpt lat="43.96065340315934" lon="4.517548102593628"><ele>36.0</ele><time>2026-04-09T15:02:41Z</time></trkpt><trkpt lat="43.960524192195955" lon="4.517715511426873"><ele>36.0</ele><time>2026-04-09T15:02:42Z</time></trkpt><trkpt lat="43.96039870873742" lon="4.517880261477908"><ele>36.0</ele><time>2026-04-09T15:02:43Z</time></trkpt><trkpt lat="43.96027618864143" lon="4.5180440527094134"><ele>36.0</ele><time>2026-04-09T15:02:44Z</time></trkpt><trkpt lat="43.96014947457714" lon="4.518209866944472"><ele>36.0</ele><time>2026-04-09T15:02:45Z</time></trkpt><trkpt lat="43.96002798477184" lon="4.51838278317083"><ele>36.0</ele><time>2026-04-09T15:02:46Z</time></trkpt><trkpt lat="43.959906482037276" lon="4.518558822383427"><ele>36.0</ele><time>2026-04-09T15:02:47Z</time></trkpt><trkpt lat="43.95978620367172" lon="4.518739967438606"><ele>36.0</ele><time>2026-04-09T15:02:48Z</time></trkpt><trkpt lat="43.9596684836965" lon="4.518924934552388"><ele>36.0</ele><time>2026-04-09T15:02:49Z</time></trkpt><trkpt lat="43.95955464498847" lon="4.519116094497325"><ele>36.0</ele><time>2026-04-09T15:02:50Z</time></trkpt><trkpt lat="43.95944067437895" lon="4.519306110089614"><ele>36.0</ele><time>2026-04-09T15:02:51Z</time></trkpt><trkpt lat="43.95932669880386" lon="4.519494285681111"><ele>36.0</ele><time>2026-04-09T15:02:52Z</time></trkpt><trkpt lat="43.95921258359778" lon="4.519675691463269"><ele>36.0</ele><time>2026-04-09T15:02:53Z</time></trkpt><trkpt lat="43.959098584198834" lon="4.51985392281016"><ele>35.333333333333336</ele><time>2026-04-09T15:02:54Z</time></trkpt><trkpt lat="43.958986137801084" lon="4.520034946836743"><ele>34.66666666666667</ele><time>2026-04-09T15:02:55Z</time></trkpt><trkpt lat="43.958874020041584" lon="4.520209209714802"><ele>34.0</ele><time>2026-04-09T15:02:56Z</time></trkpt><trkpt lat="43.958751045713186" lon="4.520387188330037"><ele>34.333333333333336</ele><time>2026-04-09T15:02:57Z</time></trkpt><trkpt lat="43.95864490808472" lon="4.52056656567069"><ele>34.666666666666664</ele><time>2026-04-09T15:02:58Z</time></trkpt><trkpt lat="43.95853960361739" lon="4.520738664437469"><ele>35.0</ele><time>2026-04-09T15:02:59Z</time></trkpt><trkpt lat="43.958431582915814" lon="4.520912977497058"><ele>34.666666666666664</ele><time>2026-04-09T15:03:00Z</time></trkpt><trkpt lat="43.958328107405485" lon="4.521094972847186"><ele>34.333333333333336</ele><time>2026-04-09T15:03:01Z</time></trkpt><trkpt lat="43.95822918538222" lon="4.521282370456051"><ele>34.0</ele><time>2026-04-09T15:03:02Z</time></trkpt><trkpt lat="43.95813599532385" lon="4.521475251402394"><ele>34.0</ele><time>2026-04-09T15:03:03Z</time></trkpt><trkpt lat="43.95804066945005" lon="4.521667867006909"><ele>34.0</ele><time>2026-04-09T15:03:04Z</time></trkpt><trkpt lat="43.957950598013156" lon="4.521871019052036"><ele>34.0</ele><time>2026-04-09T15:03:05Z</time></trkpt><trkpt lat="43.95786384837894" lon="4.522077501515987"><ele>33.66666666666667</ele><time>2026-04-09T15:03:06Z</time></trkpt><trkpt lat="43.957782305327626" lon="4.522294107351223"><ele>33.333333333333336</ele><time>2026-04-09T15:03:07Z</time></trkpt><trkpt lat="43.957706973658766" lon="4.522516869706484"><ele>33.0</ele><time>2026-04-09T15:03:08Z</time></trkpt><trkpt lat="43.95764229065907" lon="4.522748290968138"><ele>32.666666666666664</ele><time>2026-04-09T15:03:09Z</time></trkpt><trkpt lat="43.95758453258887" lon="4.522988147163011"><ele>32.33333333333333</ele><time>2026-04-09T15:03:10Z</time></trkpt><trkpt lat="43.9575374126713" lon="4.523235090146159"><ele>32.0</ele><time>2026-04-09T15:03:11Z</time></trkpt><trkpt lat="43.957501947917926" lon="4.52348896965227"><ele>32.666666666666664</ele><time>2026-04-09T15:03:12Z</time></trkpt><trkpt lat="43.95748138784431" lon="4.523749277936627"><ele>33.333333333333336</ele><time>2026-04-09T15:03:13Z</time></trkpt><trkpt lat="43.957466610813675" lon="4.524010541197367"><ele>34.0</ele><time>2026-04-09T15:03:14Z</time></trkpt><trkpt lat="43.95745450467198" lon="4.524270694391085"><ele>34.0</ele><time>2026-04-09T15:03:15Z</time></trkpt><trkpt lat="43.95744603518729" lon="4.52453354788851"><ele>34.0</ele><time>2026-04-09T15:03:16Z</time></trkpt><trkpt lat="43.95742925122402" lon="4.524786686867799"><ele>34.0</ele><time>2026-04-09T15:03:17Z</time></trkpt><trkpt lat="43.95741674714229" lon="4.525042265400103"><ele>34.66666666666667</ele><time>2026-04-09T15:03:18Z</time></trkpt><trkpt lat="43.95740715291905" lon="4.525299275010548"><ele>35.333333333333336</ele><time>2026-04-09T15:03:19Z</time></trkpt><trkpt lat="43.957396542588505" lon="4.525557065319227"><ele>36.0</ele><time>2026-04-09T15:03:20Z</time></trkpt><trkpt lat="43.957383057102206" lon="4.525811313198884"><ele>36.0</ele><time>2026-04-09T15:03:21Z</time></trkpt><trkpt lat="43.957372878321564" lon="4.52606832973058"><ele>36.0</ele><time>2026-04-09T15:03:22Z</time></trkpt><trkpt lat="43.95736058059834" lon="4.526323720866693"><ele>36.0</ele><time>2026-04-09T15:03:23Z</time></trkpt><trkpt lat="43.95734717280463" lon="4.526582635716908"><ele>36.333333333333336</ele><time>2026-04-09T15:03:24Z</time></trkpt><trkpt lat="43.957331568714075" lon="4.526838959625529"><ele>36.66666666666667</ele><time>2026-04-09T15:03:25Z</time></trkpt><trkpt lat="43.9573117028255" lon="4.527097869136839"><ele>37.0</ele><time>2026-04-09T15:03:26Z</time></trkpt><trkpt lat="43.95728158458267" lon="4.527349432630556"><ele>37.0</ele><time>2026-04-09T15:03:27Z</time></trkpt><trkpt lat="43.95724617567878" lon="4.5276033227562555"><ele>37.0</ele><time>2026-04-09T15:03:28Z</time></trkpt><trkpt lat="43.95720418162206" lon="4.527849003244263"><ele>37.0</ele><time>2026-04-09T15:03:29Z</time></trkpt><trkpt lat="43.95716316178324" lon="4.5280851340648285"><ele>38.0</ele><time>2026-04-09T15:03:30Z</time></trkpt><trkpt lat="43.95712281007963" lon="4.5283103706179"><ele>39.0</ele><time>2026-04-09T15:03:31Z</time></trkpt><trkpt lat="43.957081184678145" lon="4.528524155857808"><ele>40.0</ele><time>2026-04-09T15:03:32Z</time></trkpt><trkpt lat="43.95703902631004" lon="4.528729824351755"><ele>41.0</ele><time>2026-04-09T15:03:33Z</time></trkpt><trkpt lat="43.956998365496574" lon="4.5289282762672824"><ele>42.0</ele><time>2026-04-09T15:03:34Z</time></trkpt><trkpt lat="43.95695891330122" lon="4.529117013023066"><ele>43.0</ele><time>2026-04-09T15:03:35Z</time></trkpt><trkpt lat="43.95692027809758" lon="4.529298892754016"><ele>44.0</ele><time>2026-04-09T15:03:36Z</time></trkpt><trkpt lat="43.95688226817242" lon="4.529472874161956"><ele>43.75</ele><time>2026-04-09T15:03:37Z</time></trkpt><trkpt lat="43.95684556909711" lon="4.529640346566351"><ele>43.5</ele><time>2026-04-09T15:03:38Z</time></trkpt><trkpt lat="43.95681021456549" lon="4.529801411407147"><ele>43.25</ele><time>2026-04-09T15:03:39Z</time></trkpt><trkpt lat="43.95677573857457" lon="4.529956450684631"><ele>43.0</ele><time>2026-04-09T15:03:40Z</time></trkpt><trkpt lat="43.956742914128505" lon="4.53010305873629"><ele>43.0</ele><time>2026-04-09T15:03:41Z</time></trkpt><trkpt lat="43.95671110042075" lon="4.530236317498792"><ele>43.0</ele><time>2026-04-09T15:03:42Z</time></trkpt><trkpt lat="43.95667954213542" lon="4.5303628729958945"><ele>43.0</ele><time>2026-04-09T15:03:43Z</time></trkpt><trkpt lat="43.95664204845202" lon="4.5304824492745475"><ele>43.0</ele><time>2026-04-09T15:03:44Z</time></trkpt><trkpt lat="43.95658951741757" lon="4.530585922243535"><ele>43.0</ele><time>2026-04-09T15:03:45Z</time></trkpt><trkpt lat="43.95653544005743" lon="4.530682859611356"><ele>43.66666666666667</ele><time>2026-04-09T15:03:46Z</time></trkpt><trkpt lat="43.95650351045323" lon="4.530789341472052"><ele>44.333333333333336</ele><time>2026-04-09T15:03:47Z</time></trkpt><trkpt lat="43.956498459003555" lon="4.530904946882431"><ele>45.0</ele><time>2026-04-09T15:03:48Z</time></trkpt><trkpt lat="43.95651129970295" lon="4.531026636884365"><ele>45.666666666666664</ele><time>2026-04-09T15:03:49Z</time></trkpt><trkpt lat="43.95649944724986" lon="4.531151602979871"><ele>46.33333333333333</ele><time>2026-04-09T15:03:50Z</time></trkpt><trkpt lat="43.956467892604245" lon="4.531286707612375"><ele>47.0</ele><time>2026-04-09T15:03:51Z</time></trkpt><trkpt lat="43.9564268404724" lon="4.5314285830327785"><ele>47.25</ele><time>2026-04-09T15:03:52Z</time></trkpt><trkpt lat="43.95638223892907" lon="4.531575651372805"><ele>47.5</ele><time>2026-04-09T15:03:53Z</time></trkpt><trkpt lat="43.9563333064972" lon="4.531725412099785"><ele>47.75</ele><time>2026-04-09T15:03:54Z</time></trkpt><trkpt lat="43.95628147861436" lon="4.531878471414292"><ele>48.0</ele><time>2026-04-09T15:03:55Z</time></trkpt><trkpt lat="43.95622529615923" lon="4.532035697673342"><ele>49.25</ele><time>2026-04-09T15:03:56Z</time></trkpt><trkpt lat="43.9561628509002" lon="4.532194688361959"><ele>50.5</ele><time>2026-04-09T15:03:57Z</time></trkpt><trkpt lat="43.95609652502343" lon="4.532355724616588"><ele>51.75</ele><time>2026-04-09T15:03:58Z</time></trkpt><trkpt lat="43.956031092259515" lon="4.5325191989486955"><ele>53.0</ele><time>2026-04-09T15:03:59Z</time></trkpt><trkpt lat="43.95596166407575" lon="4.532686901497842"><ele>53.0</ele><time>2026-04-09T15:04:00Z</time></trkpt><trkpt lat="43.95589044947199" lon="4.5328571164847755"><ele>53.0</ele><time>2026-04-09T15:04:01Z</time></trkpt><trkpt lat="43.955817536794264" lon="4.533032601071864"><ele>53.0</ele><time>2026-04-09T15:04:02Z</time></trkpt><trkpt lat="43.95574378969587" lon="4.533211699895056"><ele>53.0</ele><time>2026-04-09T15:04:03Z</time></trkpt><trkpt lat="43.9556682867774" lon="4.533392573246419"><ele>50.66666666666667</ele><time>2026-04-09T15:04:04Z</time></trkpt><trkpt lat="43.95559134005481" lon="4.533575543020027"><ele>48.333333333333336</ele><time>2026-04-09T15:04:05Z</time></trkpt><trkpt lat="43.95551211035977" lon="4.533754577540261"><ele>46.0</ele><time>2026-04-09T15:04:06Z</time></trkpt><trkpt lat="43.95543201467062" lon="4.533938574811539"><ele>45.333333333333336</ele><time>2026-04-09T15:04:07Z</time></trkpt><trkpt lat="43.955353385464036" lon="4.53412462328235"><ele>44.666666666666664</ele><time>2026-04-09T15:04:08Z</time></trkpt><trkpt lat="43.955275168445404" lon="4.534312346303952"><ele>44.0</ele><time>2026-04-09T15:04:09Z</time></trkpt><trkpt lat="43.95519691008878" lon="4.534502513416584"><ele>43.0</ele><time>2026-04-09T15:04:10Z</time></trkpt><trkpt lat="43.95511970373961" lon="4.534690287774583"><ele>42.0</ele><time>2026-04-09T15:04:11Z</time></trkpt><trkpt lat="43.95504778008953" lon="4.534885136293159"><ele>41.0</ele><time>2026-04-09T15:04:12Z</time></trkpt><trkpt lat="43.95498408978389" lon="4.535087691053512"><ele>41.0</ele><time>2026-04-09T15:04:13Z</time></trkpt><trkpt lat="43.95493165409986" lon="4.535289448932363"><ele>41.0</ele><time>2026-04-09T15:04:14Z</time></trkpt><trkpt lat="43.95488267486774" lon="4.5354933107093265"><ele>41.0</ele><time>2026-04-09T15:04:15Z</time></trkpt><trkpt lat="43.95484276066923" lon="4.535699152320285"><ele>41.0</ele><time>2026-04-09T15:04:16Z</time></trkpt><trkpt lat="43.954809320272275" lon="4.535910123678474"><ele>41.0</ele><time>2026-04-09T15:04:17Z</time></trkpt><trkpt lat="43.9547852655154" lon="4.536124941145025"><ele>41.0</ele><time>2026-04-09T15:04:18Z</time></trkpt><trkpt lat="43.954773544288315" lon="4.536335579125387"><ele>40.666666666666664</ele><time>2026-04-09T15:04:19Z</time></trkpt><trkpt lat="43.95476824397515" lon="4.536547629367072"><ele>40.333333333333336</ele><time>2026-04-09T15:04:20Z</time></trkpt><trkpt lat="43.95476373296368" lon="4.536761338764952"><ele>40.0</ele><time>2026-04-09T15:04:21Z</time></trkpt><trkpt lat="43.954763032400834" lon="4.5369731036038825"><ele>39.25</ele><time>2026-04-09T15:04:22Z</time></trkpt><trkpt lat="43.954768245443354" lon="4.537172329404783"><ele>38.5</ele><time>2026-04-09T15:04:23Z</time></trkpt><trkpt lat="43.95475646398472" lon="4.537359393167602"><ele>37.75</ele><time>2026-04-09T15:04:24Z</time></trkpt><trkpt lat="43.954763734310454" lon="4.537533986847915"><ele>37.0</ele><time>2026-04-09T15:04:25Z</time></trkpt><trkpt lat="43.95478791989385" lon="4.537698576312822"><ele>37.0</ele><time>2026-04-09T15:04:26Z</time></trkpt><trkpt lat="43.95479489973792" lon="4.537854598807903"><ele>37.0</ele><time>2026-04-09T15:04:27Z</time></trkpt><trkpt lat="43.954802447003864" lon="4.538011110821973"><ele>37.0</ele><time>2026-04-09T15:04:28Z</time></trkpt><trkpt lat="43.95480794431974" lon="4.5381608340717206"><ele>37.0</ele><time>2026-04-09T15:04:29Z</time></trkpt><trkpt lat="43.954812977225984" lon="4.538298057522306"><ele>37.0</ele><time>2026-04-09T15:04:30Z</time></trkpt><trkpt lat="43.95481702849432" lon="4.538419019697621"><ele>37.0</ele><time>2026-04-09T15:04:31Z</time></trkpt><trkpt lat="43.954820446380936" lon="4.538532088525885"><ele>37.0</ele><time>2026-04-09T15:04:32Z</time></trkpt><trkpt lat="43.95482222463822" lon="4.538636881831247"><ele>37.0</ele><time>2026-04-09T15:04:33Z</time></trkpt><trkpt lat="43.95482060745071" lon="4.538739706692045"><ele>37.0</ele><time>2026-04-09T15:04:34Z</time></trkpt><trkpt lat="43.95481114999082" lon="4.538841497058779"><ele>37.0</ele><time>2026-04-09T15:04:35Z</time></trkpt><trkpt lat="43.95478318386651" lon="4.5389381226842715"><ele>37.0</ele><time>2026-04-09T15:04:36Z</time></trkpt><trkpt lat="43.954737731879284" lon="4.5390248040246295"><ele>36.85714285714286</ele><time>2026-04-09T15:04:37Z</time></trkpt><trkpt lat="43.95469031863835" lon="4.5391003339877445"><ele>36.714285714285715</ele><time>2026-04-09T15:04:38Z</time></trkpt><trkpt lat="43.95465900377057" lon="4.539180593000277"><ele>36.57142857142857</ele><time>2026-04-09T15:04:39Z</time></trkpt><trkpt lat="43.954652410153486" lon="4.539268025454952"><ele>36.42857142857143</ele><time>2026-04-09T15:04:40Z</time></trkpt><trkpt lat="43.95466974431851" lon="4.539355255271162"><ele>36.285714285714285</ele><time>2026-04-09T15:04:41Z</time></trkpt><trkpt lat="43.95470702071435" lon="4.539442291132987"><ele>36.142857142857146</ele><time>2026-04-09T15:04:42Z</time></trkpt><trkpt lat="43.95475510137712" lon="4.539529456624679"><ele>36.0</ele><time>2026-04-09T15:04:43Z</time></trkpt><trkpt lat="43.95481667010322" lon="4.539588138162196"><ele>35.8</ele><time>2026-04-09T15:04:44Z</time></trkpt><trkpt lat="43.954812193402596" lon="4.539731729441275"><ele>35.6</ele><time>2026-04-09T15:04:45Z</time></trkpt><trkpt lat="43.9548164507541" lon="4.539851158096402"><ele>35.4</ele><time>2026-04-09T15:04:46Z</time></trkpt><trkpt lat="43.954816514238935" lon="4.53997840829544"><ele>35.2</ele><time>2026-04-09T15:04:47Z</time></trkpt><trkpt lat="43.954815948411806" lon="4.540111721478484"><ele>35.0</ele><time>2026-04-09T15:04:48Z</time></trkpt><trkpt lat="43.95481255101187" lon="4.540248312881852"><ele>34.8</ele><time>2026-04-09T15:04:49Z</time></trkpt><trkpt lat="43.954804931926354" lon="4.540390394595124"><ele>34.6</ele><time>2026-04-09T15:04:50Z</time></trkpt><trkpt lat="43.95479611242476" lon="4.540535749103812"><ele>34.4</ele><time>2026-04-09T15:04:51Z</time></trkpt><trkpt lat="43.95478524373023" lon="4.540684524319709"><ele>34.2</ele><time>2026-04-09T15:04:52Z</time></trkpt><trkpt lat="43.95477229825117" lon="4.540837402055865"><ele>34.0</ele><time>2026-04-09T15:04:53Z</time></trkpt><trkpt lat="43.95476006900506" lon="4.54098911005448"><ele>34.0</ele><time>2026-04-09T15:04:54Z</time></trkpt><trkpt lat="43.95474826039342" lon="4.541143195798871"><ele>34.0</ele><time>2026-04-09T15:04:55Z</time></trkpt><trkpt lat="43.95473429604083" lon="4.541298599849226"><ele>34.0</ele><time>2026-04-09T15:04:56Z</time></trkpt><trkpt lat="43.95472076357034" lon="4.541451895465935"><ele>34.0</ele><time>2026-04-09T15:04:57Z</time></trkpt><trkpt lat="43.95470680405363" lon="4.541604666474306"><ele>34.0</ele><time>2026-04-09T15:04:58Z</time></trkpt><trkpt lat="43.954692846000505" lon="4.541755341771054"><ele>33.2</ele><time>2026-04-09T15:04:59Z</time></trkpt><trkpt lat="43.954679085135375" lon="4.541904605038783"><ele>32.4</ele><time>2026-04-09T15:05:00Z</time></trkpt><trkpt lat="43.95466561814713" lon="4.542052827964514"><ele>31.6</ele><time>2026-04-09T15:05:01Z</time></trkpt><trkpt lat="43.95465331792816" lon="4.542199975247586"><ele>30.8</ele><time>2026-04-09T15:05:02Z</time></trkpt><trkpt lat="43.95464036227958" lon="4.5423450259154174"><ele>30.0</ele><time>2026-04-09T15:05:03Z</time></trkpt><trkpt lat="43.954625888103024" lon="4.542488705444982"><ele>29.8</ele><time>2026-04-09T15:05:04Z</time></trkpt><trkpt lat="43.95461481302253" lon="4.5426294442287904"><ele>29.6</ele><time>2026-04-09T15:05:05Z</time></trkpt><trkpt lat="43.954600885408006" lon="4.542775551516469"><ele>29.4</ele><time>2026-04-09T15:05:06Z</time></trkpt><trkpt lat="43.954587862757315" lon="4.542922308928447"><ele>29.2</ele><time>2026-04-09T15:05:07Z</time></trkpt><trkpt lat="43.954576773526504" lon="4.543071453433722"><ele>29.0</ele><time>2026-04-09T15:05:08Z</time></trkpt><trkpt lat="43.954567837501706" lon="4.543221614746625"><ele>29.0</ele><time>2026-04-09T15:05:09Z</time></trkpt><trkpt lat="43.95455924338514" lon="4.54336980393336"><ele>29.0</ele><time>2026-04-09T15:05:10Z</time></trkpt><trkpt lat="43.954551469858764" lon="4.543515211112575"><ele>29.0</ele><time>2026-04-09T15:05:11Z</time></trkpt><trkpt lat="43.95453323297454" lon="4.543804735536343"><ele>29.0</ele><time>2026-04-09T15:05:13Z</time></trkpt><trkpt lat="43.95452396978989" lon="4.543957042297388"><ele>29.75</ele><time>2026-04-09T15:05:14Z</time></trkpt><trkpt lat="43.95451422586396" lon="4.54411631549807"><ele>30.5</ele><time>2026-04-09T15:05:15Z</time></trkpt><trkpt lat="43.95450333683668" lon="4.5442934126911"><ele>31.25</ele><time>2026-04-09T15:05:16Z</time></trkpt><trkpt lat="43.9544935891754" lon="4.544486629776815"><ele>32.0</ele><time>2026-04-09T15:05:17Z</time></trkpt><trkpt lat="43.95448428809548" lon="4.544675797958963"><ele>32.25</ele><time>2026-04-09T15:05:18Z</time></trkpt><trkpt lat="43.954475074158196" lon="4.544860045623497"><ele>32.5</ele><time>2026-04-09T15:05:19Z</time></trkpt><trkpt lat="43.95446597404048" lon="4.545036026865575"><ele>32.75</ele><time>2026-04-09T15:05:20Z</time></trkpt><trkpt lat="43.95445624149164" lon="4.545195430634407"><ele>33.0</ele><time>2026-04-09T15:05:21Z</time></trkpt><trkpt lat="43.95443921590073" lon="4.545338380566933"><ele>32.6</ele><time>2026-04-09T15:05:22Z</time></trkpt><trkpt lat="43.95440400251838" lon="4.5454751181229405"><ele>32.199999999999996</ele><time>2026-04-09T15:05:23Z</time></trkpt><trkpt lat="43.9543635179089" lon="4.545602463846989"><ele>31.8</ele><time>2026-04-09T15:05:24Z</time></trkpt><trkpt lat="43.95434051829499" lon="4.5457324974302775"><ele>31.4</ele><time>2026-04-09T15:05:25Z</time></trkpt><trkpt lat="43.954341525536755" lon="4.545861574139404"><ele>31.0</ele><time>2026-04-09T15:05:26Z</time></trkpt><trkpt lat="43.954367045683306" lon="4.545980785522538"><ele>31.0</ele><time>2026-04-09T15:05:27Z</time></trkpt><trkpt lat="43.95441576497253" lon="4.546078745246245"><ele>31.0</ele><time>2026-04-09T15:05:28Z</time></trkpt><trkpt lat="43.954472092511466" lon="4.546178715047052"><ele>31.0</ele><time>2026-04-09T15:05:29Z</time></trkpt><trkpt lat="43.95454409606148" lon="4.546240324727811"><ele>31.0</ele><time>2026-04-09T15:05:30Z</time></trkpt><trkpt lat="43.95454582546119" lon="4.546406371829654"><ele>31.0</ele><time>2026-04-09T15:05:31Z</time></trkpt><trkpt lat="43.95455488053601" lon="4.546541253314187"><ele>31.0</ele><time>2026-04-09T15:05:32Z</time></trkpt><trkpt lat="43.9545614197052" lon="4.546682227344329"><ele>31.0</ele><time>2026-04-09T15:05:33Z</time></trkpt><trkpt lat="43.954566762902395" lon="4.546832645664885"><ele>31.0</ele><time>2026-04-09T15:05:34Z</time></trkpt><trkpt lat="43.95457351034093" lon="4.546987477451656"><ele>31.0</ele><time>2026-04-09T15:05:35Z</time></trkpt><trkpt lat="43.954579891483036" lon="4.547148665292387"><ele>31.0</ele><time>2026-04-09T15:05:36Z</time></trkpt><trkpt lat="43.954585980549325" lon="4.547313158239347"><ele>31.0</ele><time>2026-04-09T15:05:37Z</time></trkpt><trkpt lat="43.95459201202605" lon="4.547480668192269"><ele>31.0</ele><time>2026-04-09T15:05:38Z</time></trkpt><trkpt lat="43.95459933396432" lon="4.547658529060102"><ele>31.0</ele><time>2026-04-09T15:05:39Z</time></trkpt><trkpt lat="43.95460625983015" lon="4.5478343421749985"><ele>31.0</ele><time>2026-04-09T15:05:40Z</time></trkpt><trkpt lat="43.95461307894031" lon="4.548017903348494"><ele>31.0</ele><time>2026-04-09T15:05:41Z</time></trkpt><trkpt lat="43.95462007576986" lon="4.548208735747625"><ele>31.0</ele><time>2026-04-09T15:05:42Z</time></trkpt><trkpt lat="43.95462790549952" lon="4.548400920670781"><ele>31.0</ele><time>2026-04-09T15:05:43Z</time></trkpt><trkpt lat="43.95463551351111" lon="4.548589449428653"><ele>31.0</ele><time>2026-04-09T15:05:44Z</time></trkpt><trkpt lat="43.954642401088265" lon="4.548774953685143"><ele>31.0</ele><time>2026-04-09T15:05:45Z</time></trkpt><trkpt lat="43.9546475981367" lon="4.548955046667167"><ele>31.0</ele><time>2026-04-09T15:05:46Z</time></trkpt><trkpt lat="43.954654862827475" lon="4.549138818599811"><ele>31.0</ele><time>2026-04-09T15:05:47Z</time></trkpt><trkpt lat="43.954660767928516" lon="4.549328473067486"><ele>31.0</ele><time>2026-04-09T15:05:48Z</time></trkpt><trkpt lat="43.95466521388893" lon="4.549520500060289"><ele>30.5</ele><time>2026-04-09T15:05:49Z</time></trkpt><trkpt lat="43.95467259018055" lon="4.5497121818562745"><ele>30.0</ele><time>2026-04-09T15:05:50Z</time></trkpt><trkpt lat="43.954681895722274" lon="4.549907236115019"><ele>29.5</ele><time>2026-04-09T15:05:51Z</time></trkpt><trkpt lat="43.954689071549176" lon="4.550100415864797"><ele>29.0</ele><time>2026-04-09T15:05:52Z</time></trkpt><trkpt lat="43.95469852472038" lon="4.550291862671762"><ele>28.75</ele><time>2026-04-09T15:05:53Z</time></trkpt><trkpt lat="43.954704901243275" lon="4.550480712393594"><ele>28.5</ele><time>2026-04-09T15:05:54Z</time></trkpt><trkpt lat="43.95470934137598" lon="4.550663810746583"><ele>28.25</ele><time>2026-04-09T15:05:55Z</time></trkpt><trkpt lat="43.954714823714745" lon="4.550832392173273"><ele>28.0</ele><time>2026-04-09T15:05:56Z</time></trkpt><trkpt lat="43.954720446748404" lon="4.5509832427275585"><ele>28.0</ele><time>2026-04-09T15:05:57Z</time></trkpt><trkpt lat="43.954725424671764" lon="4.5511261647640175"><ele>27.999999999999996</ele><time>2026-04-09T15:05:58Z</time></trkpt><trkpt lat="43.95472389374859" lon="4.551254102687353"><ele>27.999999999999996</ele><time>2026-04-09T15:05:59Z</time></trkpt><trkpt lat="43.95470150947582" lon="4.551377282224967"><ele>28.0</ele><time>2026-04-09T15:06:00Z</time></trkpt><trkpt lat="43.954663915094606" lon="4.551494173591802"><ele>28.0</ele><time>2026-04-09T15:06:01Z</time></trkpt><trkpt lat="43.9546094870257" lon="4.55159182972473"><ele>28.166666666666668</ele><time>2026-04-09T15:06:02Z</time></trkpt><trkpt lat="43.95458841943689" lon="4.551710225377329"><ele>28.333333333333336</ele><time>2026-04-09T15:06:03Z</time></trkpt><trkpt lat="43.95461416515969" lon="4.551826341599484"><ele>28.5</ele><time>2026-04-09T15:06:04Z</time></trkpt><trkpt lat="43.95464947430017" lon="4.5519412984323475"><ele>28.666666666666664</ele><time>2026-04-09T15:06:05Z</time></trkpt><trkpt lat="43.954704835572024" lon="4.552028509699727"><ele>28.833333333333332</ele><time>2026-04-09T15:06:06Z</time></trkpt><trkpt lat="43.954752722987664" lon="4.552142949324121"><ele>29.0</ele><time>2026-04-09T15:06:07Z</time></trkpt><trkpt lat="43.954772779636365" lon="4.552274317240069"><ele>29.0</ele><time>2026-04-09T15:06:08Z</time></trkpt><trkpt lat="43.95477934311847" lon="4.552421547764915"><ele>29.0</ele><time>2026-04-09T15:06:09Z</time></trkpt><trkpt lat="43.95478028782409" lon="4.552571116223058"><ele>29.0</ele><time>2026-04-09T15:06:10Z</time></trkpt><trkpt lat="43.95478494269161" lon="4.552731810757838"><ele>29.0</ele><time>2026-04-09T15:06:11Z</time></trkpt><trkpt lat="43.95479253131152" lon="4.552900821391314"><ele>29.0</ele><time>2026-04-09T15:06:12Z</time></trkpt><trkpt lat="43.954800780300914" lon="4.553062823449087"><ele>29.0</ele><time>2026-04-09T15:06:13Z</time></trkpt><trkpt lat="43.954809427258475" lon="4.55323829266109"><ele>29.0</ele><time>2026-04-09T15:06:14Z</time></trkpt><trkpt lat="43.95481614752532" lon="4.553418306741811"><ele>29.0</ele><time>2026-04-09T15:06:15Z</time></trkpt><trkpt lat="43.954825088278724" lon="4.553601852769455"><ele>29.0</ele><time>2026-04-09T15:06:16Z</time></trkpt><trkpt lat="43.954832913889724" lon="4.553791483777177"><ele>29.0</ele><time>2026-04-09T15:06:17Z</time></trkpt><trkpt lat="43.954840675649734" lon="4.553986140692126"><ele>29.0</ele><time>2026-04-09T15:06:18Z</time></trkpt><trkpt lat="43.95484857951933" lon="4.554181696193861"><ele>29.0</ele><time>2026-04-09T15:06:19Z</time></trkpt><trkpt lat="43.95485498035478" lon="4.554381701446854"><ele>28.75</ele><time>2026-04-09T15:06:20Z</time></trkpt><trkpt lat="43.954862902085225" lon="4.554583837223087"><ele>28.5</ele><time>2026-04-09T15:06:21Z</time></trkpt><trkpt lat="43.95487358156116" lon="4.554791831316339"><ele>28.25</ele><time>2026-04-09T15:06:22Z</time></trkpt><trkpt lat="43.95488236035154" lon="4.554999926529519"><ele>28.0</ele><time>2026-04-09T15:06:23Z</time></trkpt><trkpt lat="43.95489073801207" lon="4.555214143797808"><ele>28.0</ele><time>2026-04-09T15:06:24Z</time></trkpt><trkpt lat="43.95489743893162" lon="4.555430746399512"><ele>28.0</ele><time>2026-04-09T15:06:25Z</time></trkpt><trkpt lat="43.95490672882231" lon="4.555647850584915"><ele>28.0</ele><time>2026-04-09T15:06:26Z</time></trkpt><trkpt lat="43.95491595475518" lon="4.5558645016728985"><ele>28.0</ele><time>2026-04-09T15:06:27Z</time></trkpt><trkpt lat="43.9549238691803" lon="4.556079096048932"><ele>28.0</ele><time>2026-04-09T15:06:28Z</time></trkpt><trkpt lat="43.95493226829782" lon="4.55629484561222"><ele>28.0</ele><time>2026-04-09T15:06:29Z</time></trkpt><trkpt lat="43.95493989407758" lon="4.556507717779011"><ele>28.0</ele><time>2026-04-09T15:06:30Z</time></trkpt><trkpt lat="43.954949446316064" lon="4.556719611837077"><ele>28.0</ele><time>2026-04-09T15:06:31Z</time></trkpt><trkpt lat="43.95495920937655" lon="4.556925303375368"><ele>28.0</ele><time>2026-04-09T15:06:32Z</time></trkpt><trkpt lat="43.954967570964726" lon="4.55713099179"><ele>28.25</ele><time>2026-04-09T15:06:33Z</time></trkpt><trkpt lat="43.95497475364424" lon="4.557333167341832"><ele>28.5</ele><time>2026-04-09T15:06:34Z</time></trkpt><trkpt lat="43.95498287622091" lon="4.557537449051434"><ele>28.75</ele><time>2026-04-09T15:06:35Z</time></trkpt><trkpt lat="43.9549929562794" lon="4.557745109716086"><ele>29.0</ele><time>2026-04-09T15:06:36Z</time></trkpt><trkpt lat="43.95500292493087" lon="4.557955579418357"><ele>29.333333333333332</ele><time>2026-04-09T15:06:37Z</time></trkpt><trkpt lat="43.95501173340011" lon="4.5581680641867575"><ele>29.666666666666664</ele><time>2026-04-09T15:06:38Z</time></trkpt><trkpt lat="43.95501770578733" lon="4.558385609746495"><ele>30.0</ele><time>2026-04-09T15:06:39Z</time></trkpt><trkpt lat="43.955023584326135" lon="4.558603719445114"><ele>30.0</ele><time>2026-04-09T15:06:40Z</time></trkpt><trkpt lat="43.955030013337144" lon="4.558824348694112"><ele>30.0</ele><time>2026-04-09T15:06:41Z</time></trkpt><trkpt lat="43.95503750419656" lon="4.559046792899629"><ele>30.0</ele><time>2026-04-09T15:06:42Z</time></trkpt><trkpt lat="43.955045875372775" lon="4.5592688701072"><ele>30.0</ele><time>2026-04-09T15:06:43Z</time></trkpt><trkpt lat="43.95505434574965" lon="4.559493837424197"><ele>30.0</ele><time>2026-04-09T15:06:44Z</time></trkpt><trkpt lat="43.9550643572929" lon="4.559719594744115"><ele>30.0</ele><time>2026-04-09T15:06:45Z</time></trkpt><trkpt lat="43.95507263002471" lon="4.559946581895192"><ele>30.333333333333336</ele><time>2026-04-09T15:06:46Z</time></trkpt><trkpt lat="43.955081005223846" lon="4.560173276517721"><ele>30.666666666666668</ele><time>2026-04-09T15:06:47Z</time></trkpt><trkpt lat="43.955088426612924" lon="4.560400328451261"><ele>31.0</ele><time>2026-04-09T15:06:48Z</time></trkpt><trkpt lat="43.955098080790236" lon="4.56062626850885"><ele>31.0</ele><time>2026-04-09T15:06:49Z</time></trkpt><trkpt lat="43.95510740510272" lon="4.56085396031473"><ele>31.0</ele><time>2026-04-09T15:06:50Z</time></trkpt><trkpt lat="43.95511685305437" lon="4.561081343878798"><ele>31.0</ele><time>2026-04-09T15:06:51Z</time></trkpt><trkpt lat="43.955126267159336" lon="4.561310545155579"><ele>31.333333333333336</ele><time>2026-04-09T15:06:52Z</time></trkpt><trkpt lat="43.95513453498295" lon="4.561537252423569"><ele>31.666666666666664</ele><time>2026-04-09T15:06:53Z</time></trkpt><trkpt lat="43.95514332011522" lon="4.561761622324442"><ele>32.0</ele><time>2026-04-09T15:06:54Z</time></trkpt><trkpt lat="43.95515181371658" lon="4.561983555866124"><ele>32.33333333333333</ele><time>2026-04-09T15:06:55Z</time></trkpt><trkpt lat="43.955160459448486" lon="4.5621994625324955"><ele>32.666666666666664</ele><time>2026-04-09T15:06:56Z</time></trkpt><trkpt lat="43.95516949493041" lon="4.56241154388452"><ele>33.0</ele><time>2026-04-09T15:06:57Z</time></trkpt><trkpt lat="43.95517730634018" lon="4.56262176893844"><ele>33.0</ele><time>2026-04-09T15:06:58Z</time></trkpt><trkpt lat="43.95518245938235" lon="4.5628277035233324"><ele>33.0</ele><time>2026-04-09T15:06:59Z</time></trkpt><trkpt lat="43.95519363294533" lon="4.563034608439251"><ele>33.0</ele><time>2026-04-09T15:07:00Z</time></trkpt><trkpt lat="43.955200686986416" lon="4.563240598021653"><ele>33.0</ele><time>2026-04-09T15:07:01Z</time></trkpt><trkpt lat="43.955206543110236" lon="4.563444517020913"><ele>32.75</ele><time>2026-04-09T15:07:02Z</time></trkpt><trkpt lat="43.95521345408788" lon="4.563648139059895"><ele>32.5</ele><time>2026-04-09T15:07:03Z</time></trkpt><trkpt lat="43.95521939335826" lon="4.5638509427655904"><ele>32.25</ele><time>2026-04-09T15:07:04Z</time></trkpt><trkpt lat="43.95522572210383" lon="4.564053959709417"><ele>32.0</ele><time>2026-04-09T15:07:05Z</time></trkpt><trkpt lat="43.955234160922416" lon="4.564255163790011"><ele>31.75</ele><time>2026-04-09T15:07:06Z</time></trkpt><trkpt lat="43.95524366356919" lon="4.564455497563722"><ele>31.5</ele><time>2026-04-09T15:07:07Z</time></trkpt><trkpt lat="43.95525303946826" lon="4.564654119910141"><ele>31.25</ele><time>2026-04-09T15:07:08Z</time></trkpt><trkpt lat="43.9552621041341" lon="4.564849920707458"><ele>31.0</ele><time>2026-04-09T15:07:09Z</time></trkpt><trkpt lat="43.95527084130192" lon="4.565044164878536"><ele>30.25</ele><time>2026-04-09T15:07:10Z</time></trkpt><trkpt lat="43.955278714231554" lon="4.565235967074136"><ele>29.5</ele><time>2026-04-09T15:07:11Z</time></trkpt><trkpt lat="43.95528278349737" lon="4.565422009219332"><ele>28.75</ele><time>2026-04-09T15:07:12Z</time></trkpt><trkpt lat="43.955282481306845" lon="4.565604163195903"><ele>28.0</ele><time>2026-04-09T15:07:13Z</time></trkpt><trkpt lat="43.95527139604329" lon="4.565783995533996"><ele>27.75</ele><time>2026-04-09T15:07:14Z</time></trkpt><trkpt lat="43.95523529675257" lon="4.56595303408416"><ele>27.5</ele><time>2026-04-09T15:07:15Z</time></trkpt><trkpt lat="43.955182988421484" lon="4.566114601487979"><ele>27.25</ele><time>2026-04-09T15:07:16Z</time></trkpt><trkpt lat="43.95510943743597" lon="4.566249846895641"><ele>27.0</ele><time>2026-04-09T15:07:17Z</time></trkpt><trkpt lat="43.955019256916756" lon="4.566359572156898"><ele>27.0</ele><time>2026-04-09T15:07:18Z</time></trkpt><trkpt lat="43.95491903054961" lon="4.566436959014287"><ele>27.000000000000004</ele><time>2026-04-09T15:07:19Z</time></trkpt><trkpt lat="43.95482775613082" lon="4.5664920121838035"><ele>27.000000000000004</ele><time>2026-04-09T15:07:20Z</time></trkpt><trkpt lat="43.954748784590485" lon="4.566539321708407"><ele>27.0</ele><time>2026-04-09T15:07:21Z</time></trkpt><trkpt lat="43.95468975617894" lon="4.566587696434858"><ele>27.0</ele><time>2026-04-09T15:07:22Z</time></trkpt><trkpt lat="43.95460906792172" lon="4.566682590550473"><ele>27.0</ele><time>2026-04-09T15:07:24Z</time></trkpt><trkpt lat="43.954558287603035" lon="4.56675622049763"><ele>27.000000000000004</ele><time>2026-04-09T15:07:26Z</time></trkpt><trkpt lat="43.95447965368834" lon="4.56684912881434"><ele>27.000000000000004</ele><time>2026-04-09T15:07:29Z</time></trkpt><trkpt lat="43.95436741811371" lon="4.566909117586196"><ele>27.0</ele><time>2026-04-09T15:07:31Z</time></trkpt><trkpt lat="43.95427404208752" lon="4.5668789093867534"><ele>27.0</ele><time>2026-04-09T15:07:32Z</time></trkpt><trkpt lat="43.95417996814667" lon="4.566853862084317"><ele>27.400000000000002</ele><time>2026-04-09T15:07:33Z</time></trkpt><trkpt lat="43.95409267053225" lon="4.56682704177469"><ele>27.800000000000004</ele><time>2026-04-09T15:07:34Z</time></trkpt><trkpt lat="43.95399963426479" lon="4.566795576380227"><ele>28.2</ele><time>2026-04-09T15:07:35Z</time></trkpt><trkpt lat="43.953900321281814" lon="4.566763077360264"><ele>28.6</ele><time>2026-04-09T15:07:36Z</time></trkpt><trkpt lat="43.95379609734175" lon="4.566725996080841"><ele>29.0</ele><time>2026-04-09T15:07:37Z</time></trkpt><trkpt lat="43.95368627598375" lon="4.566685311023496"><ele>29.0</ele><time>2026-04-09T15:07:38Z</time></trkpt><trkpt lat="43.953570504315294" lon="4.566643312972251"><ele>29.0</ele><time>2026-04-09T15:07:39Z</time></trkpt><trkpt lat="43.953449869582684" lon="4.566605122531135"><ele>29.0</ele><time>2026-04-09T15:07:40Z</time></trkpt><trkpt lat="43.953327769184966" lon="4.566574415509428"><ele>29.0</ele><time>2026-04-09T15:07:41Z</time></trkpt><trkpt lat="43.9532048226364" lon="4.566559484851373"><ele>29.75</ele><time>2026-04-09T15:07:42Z</time></trkpt><trkpt lat="43.95308134513957" lon="4.5665556613283815"><ele>30.5</ele><time>2026-04-09T15:07:43Z</time></trkpt><trkpt lat="43.95295836502605" lon="4.566565667876395"><ele>31.25</ele><time>2026-04-09T15:07:44Z</time></trkpt><trkpt lat="43.95283826143186" lon="4.566588745531063"><ele>32.0</ele><time>2026-04-09T15:07:45Z</time></trkpt><trkpt lat="43.95272020108977" lon="4.566624119354986"><ele>32.0</ele><time>2026-04-09T15:07:46Z</time></trkpt><trkpt lat="43.9526036687609" lon="4.566669326621488"><ele>32.0</ele><time>2026-04-09T15:07:47Z</time></trkpt><trkpt lat="43.9524881157042" lon="4.566725602256227"><ele>32.0</ele><time>2026-04-09T15:07:48Z</time></trkpt><trkpt lat="43.95237163847128" lon="4.566792408389094"><ele>32.0</ele><time>2026-04-09T15:07:49Z</time></trkpt><trkpt lat="43.95225694236275" lon="4.56686539744255"><ele>31.75</ele><time>2026-04-09T15:07:50Z</time></trkpt><trkpt lat="43.95213865461038" lon="4.566941359005882"><ele>31.5</ele><time>2026-04-09T15:07:51Z</time></trkpt><trkpt lat="43.9520177483958" lon="4.56701970451246"><ele>31.25</ele><time>2026-04-09T15:07:52Z</time></trkpt><trkpt lat="43.95189537723859" lon="4.567098541431796"><ele>31.0</ele><time>2026-04-09T15:07:53Z</time></trkpt><trkpt lat="43.95177313626288" lon="4.567178322284573"><ele>30.75</ele><time>2026-04-09T15:07:54Z</time></trkpt><trkpt lat="43.95164933540547" lon="4.567259003049185"><ele>30.5</ele><time>2026-04-09T15:07:55Z</time></trkpt><trkpt lat="43.95152520367355" lon="4.56733685977823"><ele>30.25</ele><time>2026-04-09T15:07:56Z</time></trkpt><trkpt lat="43.951402303370344" lon="4.567415549695377"><ele>30.0</ele><time>2026-04-09T15:07:57Z</time></trkpt><trkpt lat="43.95127939219476" lon="4.567494395757452"><ele>30.0</ele><time>2026-04-09T15:07:58Z</time></trkpt><trkpt lat="43.95115591654196" lon="4.567574104414131"><ele>30.0</ele><time>2026-04-09T15:07:59Z</time></trkpt><trkpt lat="43.951028143994506" lon="4.567657766149119"><ele>30.0</ele><time>2026-04-09T15:08:00Z</time></trkpt><trkpt lat="43.950900587044806" lon="4.56773875788157"><ele>30.0</ele><time>2026-04-09T15:08:01Z</time></trkpt><trkpt lat="43.950770612674226" lon="4.567822141927245"><ele>30.0</ele><time>2026-04-09T15:08:02Z</time></trkpt><trkpt lat="43.95063807288043" lon="4.567907794803285"><ele>30.0</ele><time>2026-04-09T15:08:03Z</time></trkpt><trkpt lat="43.95050503784967" lon="4.567995796133479"><ele>30.0</ele><time>2026-04-09T15:08:04Z</time></trkpt><trkpt lat="43.95036901411999" lon="4.568083434987805"><ele>30.0</ele><time>2026-04-09T15:08:05Z</time></trkpt><trkpt lat="43.95023049548829" lon="4.568172511281988"><ele>30.0</ele><time>2026-04-09T15:08:06Z</time></trkpt><trkpt lat="43.95008931853104" lon="4.568262478990052"><ele>30.0</ele><time>2026-04-09T15:08:07Z</time></trkpt><trkpt lat="43.94994571924721" lon="4.568355367388026"><ele>30.0</ele><time>2026-04-09T15:08:08Z</time></trkpt><trkpt lat="43.9497999262291" lon="4.568449666888969"><ele>30.0</ele><time>2026-04-09T15:08:09Z</time></trkpt><trkpt lat="43.94965232845284" lon="4.56854588839323"><ele>30.0</ele><time>2026-04-09T15:08:10Z</time></trkpt><trkpt lat="43.94950414757985" lon="4.568643015133248"><ele>30.0</ele><time>2026-04-09T15:08:11Z</time></trkpt><trkpt lat="43.94935808610357" lon="4.568737391745965"><ele>29.666666666666664</ele><time>2026-04-09T15:08:12Z</time></trkpt><trkpt lat="43.94921162346292" lon="4.568831883406798"><ele>29.333333333333332</ele><time>2026-04-09T15:08:13Z</time></trkpt><trkpt lat="43.94906594226564" lon="4.568926622081015"><ele>29.0</ele><time>2026-04-09T15:08:14Z</time></trkpt><trkpt lat="43.948919405398925" lon="4.569021330987181"><ele>28.666666666666664</ele><time>2026-04-09T15:08:15Z</time></trkpt><trkpt lat="43.94877267916976" lon="4.569115691536375"><ele>28.333333333333336</ele><time>2026-04-09T15:08:16Z</time></trkpt><trkpt lat="43.948624923440086" lon="4.5692099787331575"><ele>28.0</ele><time>2026-04-09T15:08:17Z</time></trkpt><trkpt lat="43.94847783790657" lon="4.569305730167378"><ele>27.666666666666668</ele><time>2026-04-09T15:08:18Z</time></trkpt><trkpt lat="43.94832950308205" lon="4.569403687355583"><ele>27.333333333333336</ele><time>2026-04-09T15:08:19Z</time></trkpt><trkpt lat="43.94818441955542" lon="4.569497421083366"><ele>27.0</ele><time>2026-04-09T15:08:20Z</time></trkpt><trkpt lat="43.948040374090716" lon="4.569590060710596"><ele>27.0</ele><time>2026-04-09T15:08:21Z</time></trkpt><trkpt lat="43.94789922004462" lon="4.569680336274447"><ele>27.0</ele><time>2026-04-09T15:08:22Z</time></trkpt><trkpt lat="43.947761786293825" lon="4.5697689375440955"><ele>27.0</ele><time>2026-04-09T15:08:23Z</time></trkpt><trkpt lat="43.947639470168845" lon="4.569847496588066"><ele>27.0</ele><time>2026-04-09T15:08:24Z</time></trkpt><trkpt lat="43.947520055946924" lon="4.569924226248959"><ele>27.25</ele><time>2026-04-09T15:08:25Z</time></trkpt><trkpt lat="43.94740431274239" lon="4.570000439909089"><ele>27.5</ele><time>2026-04-09T15:08:26Z</time></trkpt><trkpt lat="43.94729415655703" lon="4.570072926709944"><ele>27.75</ele><time>2026-04-09T15:08:27Z</time></trkpt><trkpt lat="43.94718444588348" lon="4.570145727653436"><ele>28.0</ele><time>2026-04-09T15:08:28Z</time></trkpt><trkpt lat="43.94707333354812" lon="4.570217689749369"><ele>28.0</ele><time>2026-04-09T15:08:29Z</time></trkpt><trkpt lat="43.946962097148884" lon="4.570287065300442"><ele>28.0</ele><time>2026-04-09T15:08:30Z</time></trkpt><trkpt lat="43.946852906877915" lon="4.570355454418147"><ele>28.0</ele><time>2026-04-09T15:08:31Z</time></trkpt><trkpt lat="43.946739605571636" lon="4.570423213752642"><ele>28.0</ele><time>2026-04-09T15:08:32Z</time></trkpt><trkpt lat="43.94662819804692" lon="4.570489966558851"><ele>27.75</ele><time>2026-04-09T15:08:33Z</time></trkpt><trkpt lat="43.94651638292683" lon="4.5705550550240135"><ele>27.5</ele><time>2026-04-09T15:08:34Z</time></trkpt><trkpt lat="43.94640714055282" lon="4.570609398972281"><ele>27.25</ele><time>2026-04-09T15:08:35Z</time></trkpt><trkpt lat="43.94629667907806" lon="4.570660275479319"><ele>27.0</ele><time>2026-04-09T15:08:36Z</time></trkpt><trkpt lat="43.94618779122143" lon="4.570708694366777"><ele>27.0</ele><time>2026-04-09T15:08:37Z</time></trkpt><trkpt lat="43.946080388416654" lon="4.570751630590334"><ele>27.000000000000004</ele><time>2026-04-09T15:08:38Z</time></trkpt><trkpt lat="43.945972506577675" lon="4.570791079064645"><ele>27.000000000000004</ele><time>2026-04-09T15:08:39Z</time></trkpt><trkpt lat="43.945862559594836" lon="4.570827047842044"><ele>27.0</ele><time>2026-04-09T15:08:40Z</time></trkpt><trkpt lat="43.94575741529" lon="4.570856385640495"><ele>27.0</ele><time>2026-04-09T15:08:41Z</time></trkpt><trkpt lat="43.9456518287385" lon="4.5708831695254215"><ele>26.8</ele><time>2026-04-09T15:08:42Z</time></trkpt><trkpt lat="43.94554199445208" lon="4.5709035401965386"><ele>26.6</ele><time>2026-04-09T15:08:43Z</time></trkpt><trkpt lat="43.945432852555044" lon="4.570921031737812"><ele>26.400000000000002</ele><time>2026-04-09T15:08:44Z</time></trkpt><trkpt lat="43.945323789525624" lon="4.570936944383228"><ele>26.200000000000003</ele><time>2026-04-09T15:08:45Z</time></trkpt><trkpt lat="43.9452123844802" lon="4.57095079346549"><ele>26.0</ele><time>2026-04-09T15:08:46Z</time></trkpt><trkpt lat="43.94509959266536" lon="4.570964886980544"><ele>25.4</ele><time>2026-04-09T15:08:47Z</time></trkpt><trkpt lat="43.94498720061676" lon="4.570974686476021"><ele>24.8</ele><time>2026-04-09T15:08:48Z</time></trkpt><trkpt lat="43.94487781142096" lon="4.570982337282741"><ele>24.2</ele><time>2026-04-09T15:08:49Z</time></trkpt><trkpt lat="43.94476933911666" lon="4.57098189094447"><ele>23.599999999999998</ele><time>2026-04-09T15:08:50Z</time></trkpt><trkpt lat="43.94466654203374" lon="4.570977378364663"><ele>23.0</ele><time>2026-04-09T15:08:51Z</time></trkpt><trkpt lat="43.944567001760014" lon="4.570972532665015"><ele>23.0</ele><time>2026-04-09T15:08:52Z</time></trkpt><trkpt lat="43.944475336296016" lon="4.570966492122042"><ele>23.0</ele><time>2026-04-09T15:08:53Z</time></trkpt><trkpt lat="43.94439377622261" lon="4.570957177010828"><ele>23.0</ele><time>2026-04-09T15:08:54Z</time></trkpt><trkpt lat="43.94431692790216" lon="4.570940931476667"><ele>23.0</ele><time>2026-04-09T15:08:55Z</time></trkpt><trkpt lat="43.944240768055664" lon="4.570911926305778"><ele>23.0</ele><time>2026-04-09T15:08:56Z</time></trkpt><trkpt lat="43.9441676814232" lon="4.570861809332526"><ele>23.0</ele><time>2026-04-09T15:08:57Z</time></trkpt><trkpt lat="43.944099352082624" lon="4.570799028532036"><ele>23.333333333333336</ele><time>2026-04-09T15:08:58Z</time></trkpt><trkpt lat="43.94402784734966" lon="4.570740402768851"><ele>23.666666666666668</ele><time>2026-04-09T15:08:59Z</time></trkpt><trkpt lat="43.943951143412164" lon="4.570706314437066"><ele>24.0</ele><time>2026-04-09T15:09:00Z</time></trkpt><trkpt lat="43.943865819023095" lon="4.57070001992611"><ele>24.333333333333336</ele><time>2026-04-09T15:09:01Z</time></trkpt><trkpt lat="43.943783993856115" lon="4.570720369103976"><ele>24.666666666666668</ele><time>2026-04-09T15:09:02Z</time></trkpt><trkpt lat="43.943707739934496" lon="4.570764415437098"><ele>25.0</ele><time>2026-04-09T15:09:03Z</time></trkpt><trkpt lat="43.94364253137558" lon="4.570838677032798"><ele>25.0</ele><time>2026-04-09T15:09:04Z</time></trkpt><trkpt lat="43.943595936104366" lon="4.570932739014607"><ele>25.0</ele><time>2026-04-09T15:09:05Z</time></trkpt><trkpt lat="43.9435549665075" lon="4.57104585960409"><ele>25.0</ele><time>2026-04-09T15:09:06Z</time></trkpt><trkpt lat="43.94355519689306" lon="4.571173574055205"><ele>25.0</ele><time>2026-04-09T15:09:07Z</time></trkpt><trkpt lat="43.943464274181736" lon="4.571279878615358"><ele>25.0</ele><time>2026-04-09T15:09:08Z</time></trkpt><trkpt lat="43.9434012923762" lon="4.57139176993699"><ele>25.5</ele><time>2026-04-09T15:09:09Z</time></trkpt><trkpt lat="43.943330223296336" lon="4.571505984351998"><ele>26.0</ele><time>2026-04-09T15:09:10Z</time></trkpt><trkpt lat="43.94325089191795" lon="4.571616682486303"><ele>26.5</ele><time>2026-04-09T15:09:11Z</time></trkpt><trkpt lat="43.943164270633545" lon="4.571723129936506"><ele>27.0</ele><time>2026-04-09T15:09:12Z</time></trkpt><trkpt lat="43.94308648040259" lon="4.571849019536268"><ele>27.0</ele><time>2026-04-09T15:09:13Z</time></trkpt><trkpt lat="43.94296815137059" lon="4.571924286970681"><ele>27.0</ele><time>2026-04-09T15:09:14Z</time></trkpt><trkpt lat="43.942859131303834" lon="4.572014373993017"><ele>27.0</ele><time>2026-04-09T15:09:15Z</time></trkpt><trkpt lat="43.942743321750534" lon="4.572094940336415"><ele>27.0</ele><time>2026-04-09T15:09:16Z</time></trkpt><trkpt lat="43.94262434088975" lon="4.572172042693737"><ele>26.5</ele><time>2026-04-09T15:09:17Z</time></trkpt><trkpt lat="43.942505596508425" lon="4.572249057319342"><ele>26.0</ele><time>2026-04-09T15:09:18Z</time></trkpt><trkpt lat="43.94238772396504" lon="4.572326304547592"><ele>25.5</ele><time>2026-04-09T15:09:19Z</time></trkpt><trkpt lat="43.942271672157474" lon="4.572402764965363"><ele>25.0</ele><time>2026-04-09T15:09:20Z</time></trkpt><trkpt lat="43.94215696695585" lon="4.572477283294683"><ele>25.0</ele><time>2026-04-09T15:09:21Z</time></trkpt><trkpt lat="43.9420441057244" lon="4.572548922585337"><ele>25.0</ele><time>2026-04-09T15:09:22Z</time></trkpt><trkpt lat="43.94193108171274" lon="4.572621622081247"><ele>25.0</ele><time>2026-04-09T15:09:23Z</time></trkpt><trkpt lat="43.94181845162039" lon="4.57269308932179"><ele>25.0</ele><time>2026-04-09T15:09:24Z</time></trkpt><trkpt lat="43.94170760429005" lon="4.572764432310806"><ele>25.25</ele><time>2026-04-09T15:09:25Z</time></trkpt><trkpt lat="43.94159313820908" lon="4.572838451073051"><ele>25.5</ele><time>2026-04-09T15:09:26Z</time></trkpt><trkpt lat="43.94147611141196" lon="4.572912368947511"><ele>25.75</ele><time>2026-04-09T15:09:27Z</time></trkpt><trkpt lat="43.94135864790005" lon="4.572987595279217"><ele>26.0</ele><time>2026-04-09T15:09:28Z</time></trkpt><trkpt lat="43.941241593197546" lon="4.573064895092722"><ele>26.0</ele><time>2026-04-09T15:09:29Z</time></trkpt><trkpt lat="43.94112775105669" lon="4.573139850020491"><ele>26.0</ele><time>2026-04-09T15:09:30Z</time></trkpt><trkpt lat="43.9410141135767" lon="4.573214919887939"><ele>26.0</ele><time>2026-04-09T15:09:31Z</time></trkpt><trkpt lat="43.94090181463239" lon="4.573288102096938"><ele>26.0</ele><time>2026-04-09T15:09:32Z</time></trkpt><trkpt lat="43.940790961886876" lon="4.573361860200815"><ele>25.75</ele><time>2026-04-09T15:09:33Z</time></trkpt><trkpt lat="43.94068173195655" lon="4.573436819624015"><ele>25.5</ele><time>2026-04-09T15:09:34Z</time></trkpt><trkpt lat="43.94057473125789" lon="4.573510352446444"><ele>25.25</ele><time>2026-04-09T15:09:35Z</time></trkpt><trkpt lat="43.940468756941186" lon="4.573581046085772"><ele>25.0</ele><time>2026-04-09T15:09:36Z</time></trkpt><trkpt lat="43.940363314862665" lon="4.573651115981379"><ele>25.0</ele><time>2026-04-09T15:09:37Z</time></trkpt><trkpt lat="43.9402595553563" lon="4.573718761808761"><ele>25.0</ele><time>2026-04-09T15:09:38Z</time></trkpt><trkpt lat="43.94015706369968" lon="4.573785643518512"><ele>25.0</ele><time>2026-04-09T15:09:39Z</time></trkpt><trkpt lat="43.94005635798256" lon="4.573851759324505"><ele>25.0</ele><time>2026-04-09T15:09:40Z</time></trkpt><trkpt lat="43.93996077888942" lon="4.573913517735048"><ele>25.0</ele><time>2026-04-09T15:09:41Z</time></trkpt><trkpt lat="43.93987279908139" lon="4.573969440298329"><ele>25.000000000000004</ele><time>2026-04-09T15:09:42Z</time></trkpt><trkpt lat="43.93979769595147" lon="4.574017846565002"><ele>25.0</ele><time>2026-04-09T15:09:43Z</time></trkpt><trkpt lat="43.93971694857142" lon="4.574070586528672"><ele>25.0</ele><time>2026-04-09T15:09:45Z</time></trkpt><trkpt lat="43.93963895672282" lon="4.574116651949022"><ele>25.0</ele><time>2026-04-09T15:09:52Z</time></trkpt><trkpt lat="43.93957518984369" lon="4.574155326008827"><ele>25.000000000000004</ele><time>2026-04-09T15:09:54Z</time></trkpt><trkpt lat="43.939504032771445" lon="4.574178290169059"><ele>25.0</ele><time>2026-04-09T15:09:56Z</time></trkpt><trkpt lat="43.93940634086654" lon="4.574178301423007"><ele>25.000000000000004</ele><time>2026-04-09T15:09:58Z</time></trkpt><trkpt lat="43.93928408632501" lon="4.574206486839314"><ele>25.0</ele><time>2026-04-09T15:10:00Z</time></trkpt><trkpt lat="43.93921613494277" lon="4.574215804412058"><ele>25.0</ele><time>2026-04-09T15:10:01Z</time></trkpt><trkpt lat="43.93914974097149" lon="4.574275655739177"><ele>25.0</ele><time>2026-04-09T15:10:02Z</time></trkpt><trkpt lat="43.93909864491757" lon="4.574361040795988"><ele>25.000000000000004</ele><time>2026-04-09T15:10:03Z</time></trkpt><trkpt lat="43.93907239937154" lon="4.574470977244043"><ele>25.0</ele><time>2026-04-09T15:10:04Z</time></trkpt><trkpt lat="43.939069049938894" lon="4.574580379515337"><ele>24.666666666666668</ele><time>2026-04-09T15:10:05Z</time></trkpt><trkpt lat="43.93909182497175" lon="4.574681920600983"><ele>24.333333333333336</ele><time>2026-04-09T15:10:06Z</time></trkpt><trkpt lat="43.93911277609872" lon="4.574775600928936"><ele>24.0</ele><time>2026-04-09T15:10:07Z</time></trkpt><trkpt lat="43.93918835497581" lon="4.574856964186763"><ele>23.666666666666668</ele><time>2026-04-09T15:10:08Z</time></trkpt><trkpt lat="43.939225899277105" lon="4.574975188877271"><ele>23.333333333333336</ele><time>2026-04-09T15:10:09Z</time></trkpt><trkpt lat="43.939241453418035" lon="4.575117979990362"><ele>23.0</ele><time>2026-04-09T15:10:10Z</time></trkpt><trkpt lat="43.93924179254537" lon="4.575269718456513"><ele>23.0</ele><time>2026-04-09T15:10:11Z</time></trkpt><trkpt lat="43.93926892224614" lon="4.575427176749087"><ele>23.0</ele><time>2026-04-09T15:10:12Z</time></trkpt><trkpt lat="43.939242223823285" lon="4.575615151877718"><ele>23.0</ele><time>2026-04-09T15:10:13Z</time></trkpt><trkpt lat="43.93924503934907" lon="4.575806200765691"><ele>23.0</ele><time>2026-04-09T15:10:14Z</time></trkpt><trkpt lat="43.93924845796468" lon="4.5760045179423"><ele>23.0</ele><time>2026-04-09T15:10:15Z</time></trkpt><trkpt lat="43.9392529815534" lon="4.576215711036216"><ele>23.0</ele><time>2026-04-09T15:10:16Z</time></trkpt><trkpt lat="43.93925812416527" lon="4.576434249332935"><ele>23.0</ele><time>2026-04-09T15:10:17Z</time></trkpt><trkpt lat="43.939264896945296" lon="4.57665304968399"><ele>23.0</ele><time>2026-04-09T15:10:18Z</time></trkpt><trkpt lat="43.93927070660905" lon="4.5768712253783335"><ele>23.0</ele><time>2026-04-09T15:10:19Z</time></trkpt><trkpt lat="43.939275880598345" lon="4.57709138924605"><ele>23.0</ele><time>2026-04-09T15:10:20Z</time></trkpt><trkpt lat="43.93928124909219" lon="4.577311118035192"><ele>22.333333333333336</ele><time>2026-04-09T15:10:21Z</time></trkpt><trkpt lat="43.93928724413749" lon="4.577533246648236"><ele>21.666666666666668</ele><time>2026-04-09T15:10:22Z</time></trkpt><trkpt lat="43.939294290141376" lon="4.577755361045131"><ele>21.0</ele><time>2026-04-09T15:10:23Z</time></trkpt><trkpt lat="43.939301147561196" lon="4.577977739079629"><ele>21.0</ele><time>2026-04-09T15:10:24Z</time></trkpt><trkpt lat="43.93930841975664" lon="4.5781976212116335"><ele>21.0</ele><time>2026-04-09T15:10:25Z</time></trkpt><trkpt lat="43.93931575404751" lon="4.578420786347202"><ele>21.0</ele><time>2026-04-09T15:10:26Z</time></trkpt><trkpt lat="43.9393216704933" lon="4.578643002705304"><ele>21.333333333333332</ele><time>2026-04-09T15:10:27Z</time></trkpt><trkpt lat="43.939328800613154" lon="4.578865762095504"><ele>21.666666666666664</ele><time>2026-04-09T15:10:28Z</time></trkpt><trkpt lat="43.93933498254275" lon="4.579086107688559"><ele>22.0</ele><time>2026-04-09T15:10:29Z</time></trkpt><trkpt lat="43.939340853064444" lon="4.579308384358981"><ele>22.333333333333332</ele><time>2026-04-09T15:10:30Z</time></trkpt><trkpt lat="43.93934746178485" lon="4.579533959046706"><ele>22.666666666666668</ele><time>2026-04-09T15:10:31Z</time></trkpt><trkpt lat="43.93935576707471" lon="4.579768762777056"><ele>23.0</ele><time>2026-04-09T15:10:32Z</time></trkpt><trkpt lat="43.93936564424747" lon="4.580014976814081"><ele>23.0</ele><time>2026-04-09T15:10:33Z</time></trkpt><trkpt lat="43.93937439032117" lon="4.580271737911855"><ele>23.0</ele><time>2026-04-09T15:10:34Z</time></trkpt><trkpt lat="43.939382532503984" lon="4.580538180097383"><ele>23.0</ele><time>2026-04-09T15:10:35Z</time></trkpt><trkpt lat="43.93938942493872" lon="4.580812732298584"><ele>23.666666666666668</ele><time>2026-04-09T15:10:36Z</time></trkpt><trkpt lat="43.939396578542244" lon="4.581096103863974"><ele>24.333333333333336</ele><time>2026-04-09T15:10:37Z</time></trkpt><trkpt lat="43.9394065936184" lon="4.5813784127791335"><ele>25.0</ele><time>2026-04-09T15:10:38Z</time></trkpt><trkpt lat="43.93941672422768" lon="4.581661589453562"><ele>26.666666666666668</ele><time>2026-04-09T15:10:39Z</time></trkpt><trkpt lat="43.939426188079466" lon="4.581943306776494"><ele>28.333333333333336</ele><time>2026-04-09T15:10:40Z</time></trkpt><trkpt lat="43.939433734267034" lon="4.582220865096829"><ele>30.0</ele><time>2026-04-09T15:10:41Z</time></trkpt><trkpt lat="43.9394415883529" lon="4.582499098855174"><ele>30.333333333333336</ele><time>2026-04-09T15:10:42Z</time></trkpt><trkpt lat="43.93944909446753" lon="4.582776718204593"><ele>30.666666666666668</ele><time>2026-04-09T15:10:43Z</time></trkpt><trkpt lat="43.93945485641727" lon="4.583054729577373"><ele>31.0</ele><time>2026-04-09T15:10:44Z</time></trkpt><trkpt lat="43.93946072355839" lon="4.5833303588186824"><ele>31.0</ele><time>2026-04-09T15:10:45Z</time></trkpt><trkpt lat="43.939470687853174" lon="4.583600728541905"><ele>31.0</ele><time>2026-04-09T15:10:46Z</time></trkpt><trkpt lat="43.9394811897939" lon="4.583863955219746"><ele>31.0</ele><time>2026-04-09T15:10:47Z</time></trkpt><trkpt lat="43.939490157916794" lon="4.584123670893976"><ele>31.333333333333336</ele><time>2026-04-09T15:10:48Z</time></trkpt><trkpt lat="43.93949869400424" lon="4.5843787699418"><ele>31.666666666666664</ele><time>2026-04-09T15:10:49Z</time></trkpt><trkpt lat="43.939506601079856" lon="4.584633724259736"><ele>32.0</ele><time>2026-04-09T15:10:50Z</time></trkpt><trkpt lat="43.939513705453024" lon="4.584889892430745"><ele>32.0</ele><time>2026-04-09T15:10:51Z</time></trkpt><trkpt lat="43.93952235420313" lon="4.5851512616672245"><ele>32.0</ele><time>2026-04-09T15:10:52Z</time></trkpt><trkpt lat="43.93953126334529" lon="4.585414539575066"><ele>32.0</ele><time>2026-04-09T15:10:53Z</time></trkpt><trkpt lat="43.939539921474946" lon="4.585681017596141"><ele>32.0</ele><time>2026-04-09T15:10:54Z</time></trkpt><trkpt lat="43.93954761595799" lon="4.585947687061972"><ele>32.0</ele><time>2026-04-09T15:10:55Z</time></trkpt><trkpt lat="43.939555458135615" lon="4.586215649376008"><ele>32.0</ele><time>2026-04-09T15:10:56Z</time></trkpt><trkpt lat="43.93956474337719" lon="4.586483685761423"><ele>32.0</ele><time>2026-04-09T15:10:57Z</time></trkpt><trkpt lat="43.939572525695425" lon="4.586750809182201"><ele>32.0</ele><time>2026-04-09T15:10:58Z</time></trkpt><trkpt lat="43.93958160642596" lon="4.587017265648449"><ele>32.0</ele><time>2026-04-09T15:10:59Z</time></trkpt><trkpt lat="43.93959030968591" lon="4.587281914405162"><ele>32.0</ele><time>2026-04-09T15:11:00Z</time></trkpt><trkpt lat="43.9395993783373" lon="4.587544788168905"><ele>32.0</ele><time>2026-04-09T15:11:01Z</time></trkpt><trkpt lat="43.9396079791053" lon="4.587806019092569"><ele>32.0</ele><time>2026-04-09T15:11:02Z</time></trkpt><trkpt lat="43.93961647001429" lon="4.588068135012256"><ele>32.0</ele><time>2026-04-09T15:11:03Z</time></trkpt><trkpt lat="43.939625280398424" lon="4.588329563899163"><ele>32.0</ele><time>2026-04-09T15:11:04Z</time></trkpt><trkpt lat="43.939634068285066" lon="4.58859055340599"><ele>32.0</ele><time>2026-04-09T15:11:05Z</time></trkpt><trkpt lat="43.93964373823862" lon="4.5888498570668155"><ele>32.33333333333333</ele><time>2026-04-09T15:11:06Z</time></trkpt><trkpt lat="43.93965338439571" lon="4.589107988972774"><ele>32.666666666666664</ele><time>2026-04-09T15:11:07Z</time></trkpt><trkpt lat="43.93966295572312" lon="4.589363094017623"><ele>33.0</ele><time>2026-04-09T15:11:08Z</time></trkpt><trkpt lat="43.939671499258424" lon="4.589613745675886"><ele>33.666666666666664</ele><time>2026-04-09T15:11:09Z</time></trkpt><trkpt lat="43.939679823514425" lon="4.58986559505016"><ele>34.33333333333333</ele><time>2026-04-09T15:11:10Z</time></trkpt><trkpt lat="43.9396870277778" lon="4.590116880151877"><ele>35.0</ele><time>2026-04-09T15:11:11Z</time></trkpt><trkpt lat="43.93969517236916" lon="4.590367916085867"><ele>35.0</ele><time>2026-04-09T15:11:12Z</time></trkpt><trkpt lat="43.93970426081844" lon="4.5906202962499085"><ele>35.0</ele><time>2026-04-09T15:11:13Z</time></trkpt><trkpt lat="43.93971324464227" lon="4.590869816321546"><ele>35.0</ele><time>2026-04-09T15:11:14Z</time></trkpt><trkpt lat="43.93972162578839" lon="4.591122489640358"><ele>35.0</ele><time>2026-04-09T15:11:15Z</time></trkpt><trkpt lat="43.93972847850866" lon="4.591377712547427"><ele>35.0</ele><time>2026-04-09T15:11:16Z</time></trkpt><trkpt lat="43.93973633430828" lon="4.591636753064264"><ele>35.0</ele><time>2026-04-09T15:11:17Z</time></trkpt><trkpt lat="43.93974498042092" lon="4.591899500725048"><ele>35.666666666666664</ele><time>2026-04-09T15:11:18Z</time></trkpt><trkpt lat="43.939753817220875" lon="4.5921671959210695"><ele>36.333333333333336</ele><time>2026-04-09T15:11:19Z</time></trkpt><trkpt lat="43.939763540723185" lon="4.592437544362674"><ele>37.0</ele><time>2026-04-09T15:11:20Z</time></trkpt><trkpt lat="43.93977162355106" lon="4.592695645524523"><ele>38.333333333333336</ele><time>2026-04-09T15:11:21Z</time></trkpt><trkpt lat="43.93977738011075" lon="4.592947806332608"><ele>39.666666666666664</ele><time>2026-04-09T15:11:22Z</time></trkpt><trkpt lat="43.93978029468114" lon="4.593197496647567"><ele>41.0</ele><time>2026-04-09T15:11:23Z</time></trkpt><trkpt lat="43.939785369765765" lon="4.593443480012016"><ele>42.0</ele><time>2026-04-09T15:11:24Z</time></trkpt><trkpt lat="43.93979184075284" lon="4.593679499403993"><ele>43.0</ele><time>2026-04-09T15:11:25Z</time></trkpt><trkpt lat="43.939797931049895" lon="4.5939110049843235"><ele>44.0</ele><time>2026-04-09T15:11:26Z</time></trkpt><trkpt lat="43.93980096917522" lon="4.594141442269167"><ele>44.0</ele><time>2026-04-09T15:11:27Z</time></trkpt><trkpt lat="43.9398027611589" lon="4.594369425111237"><ele>44.0</ele><time>2026-04-09T15:11:28Z</time></trkpt><trkpt lat="43.93980645280972" lon="4.594589423766723"><ele>44.0</ele><time>2026-04-09T15:11:29Z</time></trkpt><trkpt lat="43.93981244177073" lon="4.594802804673018"><ele>44.75</ele><time>2026-04-09T15:11:30Z</time></trkpt><trkpt lat="43.939817662165154" lon="4.5950085271402905"><ele>45.5</ele><time>2026-04-09T15:11:31Z</time></trkpt><trkpt lat="43.939823332767176" lon="4.5952053647329985"><ele>46.25</ele><time>2026-04-09T15:11:32Z</time></trkpt><trkpt lat="43.93982934438438" lon="4.595395007670669"><ele>47.0</ele><time>2026-04-09T15:11:33Z</time></trkpt><trkpt lat="43.939834763213945" lon="4.595576345143168"><ele>47.6</ele><time>2026-04-09T15:11:34Z</time></trkpt><trkpt lat="43.93984002537179" lon="4.5957498089113775"><ele>48.2</ele><time>2026-04-09T15:11:35Z</time></trkpt><trkpt lat="43.939844200306226" lon="4.595913811580527"><ele>48.8</ele><time>2026-04-09T15:11:36Z</time></trkpt><trkpt lat="43.93984698407825" lon="4.596054419287495"><ele>49.4</ele><time>2026-04-09T15:11:37Z</time></trkpt><trkpt lat="43.939840064628214" lon="4.596185631965491"><ele>50.0</ele><time>2026-04-09T15:11:38Z</time></trkpt><trkpt lat="43.93980637736171" lon="4.59637939714649"><ele>50.75</ele><time>2026-04-09T15:11:39Z</time></trkpt><trkpt lat="43.93967038168697" lon="4.596467204301718"><ele>51.5</ele><time>2026-04-09T15:11:41Z</time></trkpt><trkpt lat="43.93958936895594" lon="4.596533235218226"><ele>52.25</ele><time>2026-04-09T15:11:42Z</time></trkpt><trkpt lat="43.939523276052874" lon="4.596635020766772"><ele>53.0</ele><time>2026-04-09T15:11:43Z</time></trkpt><trkpt lat="43.939480508651414" lon="4.596771421233515"><ele>53.0</ele><time>2026-04-09T15:11:44Z</time></trkpt><trkpt lat="43.93947025873546" lon="4.596931525912058"><ele>53.0</ele><time>2026-04-09T15:11:45Z</time></trkpt><trkpt lat="43.93949616382755" lon="4.597097651005344"><ele>53.0</ele><time>2026-04-09T15:11:46Z</time></trkpt><trkpt lat="43.939560432183846" lon="4.59724866286895"><ele>53.0</ele><time>2026-04-09T15:11:47Z</time></trkpt><trkpt lat="43.93965338950753" lon="4.597392820763606"><ele>53.66666666666667</ele><time>2026-04-09T15:11:48Z</time></trkpt><trkpt lat="43.93977763468274" lon="4.59750179949298"><ele>54.33333333333333</ele><time>2026-04-09T15:11:49Z</time></trkpt><trkpt lat="43.939858285057916" lon="4.597727556703018"><ele>55.0</ele><time>2026-04-09T15:11:50Z</time></trkpt><trkpt lat="43.939918513535915" lon="4.597951320889586"><ele>55.33333333333333</ele><time>2026-04-09T15:11:51Z</time></trkpt><trkpt lat="43.93993737287581" lon="4.598206692263262"><ele>55.66666666666667</ele><time>2026-04-09T15:11:52Z</time></trkpt><trkpt lat="43.93994162701864" lon="4.598476427060611"><ele>56.0</ele><time>2026-04-09T15:11:53Z</time></trkpt><trkpt lat="43.939950954363546" lon="4.598760335635886"><ele>57.0</ele><time>2026-04-09T15:11:54Z</time></trkpt><trkpt lat="43.93996217988401" lon="4.599057063761056"><ele>58.0</ele><time>2026-04-09T15:11:55Z</time></trkpt><trkpt lat="43.939976609561896" lon="4.599363645266492"><ele>59.0</ele><time>2026-04-09T15:11:56Z</time></trkpt><trkpt lat="43.939991877789396" lon="4.5996755038842885"><ele>60.0</ele><time>2026-04-09T15:11:57Z</time></trkpt><trkpt lat="43.94000726857479" lon="4.599991576311247"><ele>61.0</ele><time>2026-04-09T15:11:58Z</time></trkpt><trkpt lat="43.94002202633156" lon="4.600292599645515"><ele>62.0</ele><time>2026-04-09T15:11:59Z</time></trkpt><trkpt lat="43.94003377118679" lon="4.600585922544176"><ele>62.333333333333336</ele><time>2026-04-09T15:12:00Z</time></trkpt><trkpt lat="43.940047512089954" lon="4.600876456858782"><ele>62.66666666666667</ele><time>2026-04-09T15:12:01Z</time></trkpt><trkpt lat="43.94006079898376" lon="4.601176195025989"><ele>63.0</ele><time>2026-04-09T15:12:02Z</time></trkpt><trkpt lat="43.94007484217422" lon="4.601487299446658"><ele>64.5</ele><time>2026-04-09T15:12:03Z</time></trkpt><trkpt lat="43.94008987567216" lon="4.601807562643265"><ele>66.0</ele><time>2026-04-09T15:12:04Z</time></trkpt><trkpt lat="43.940101592899815" lon="4.602125549186537"><ele>67.33333333333333</ele><time>2026-04-09T15:12:05Z</time></trkpt><trkpt lat="43.94011108249174" lon="4.602429676328287"><ele>68.66666666666666</ele><time>2026-04-09T15:12:06Z</time></trkpt><trkpt lat="43.94011954962708" lon="4.602735486245471"><ele>70.0</ele><time>2026-04-09T15:12:07Z</time></trkpt><trkpt lat="43.94012859516596" lon="4.603039440267089"><ele>71.0</ele><time>2026-04-09T15:12:08Z</time></trkpt><trkpt lat="43.94013664241285" lon="4.603348976516761"><ele>72.0</ele><time>2026-04-09T15:12:09Z</time></trkpt><trkpt lat="43.940143065251185" lon="4.6036585708460995"><ele>73.0</ele><time>2026-04-09T15:12:10Z</time></trkpt><trkpt lat="43.940153719839785" lon="4.603965987424947"><ele>73.66666666666666</ele><time>2026-04-09T15:12:11Z</time></trkpt><trkpt lat="43.940165686017224" lon="4.604272477489396"><ele>74.33333333333333</ele><time>2026-04-09T15:12:12Z</time></trkpt><trkpt lat="43.94017624395762" lon="4.604579640080869"><ele>75.0</ele><time>2026-04-09T15:12:13Z</time></trkpt><trkpt lat="43.94018678614325" lon="4.604876120871465"><ele>75.33333333333333</ele><time>2026-04-09T15:12:14Z</time></trkpt><trkpt lat="43.940197136319924" lon="4.605163608639655"><ele>75.66666666666666</ele><time>2026-04-09T15:12:15Z</time></trkpt><trkpt lat="43.9402030067297" lon="4.605452999863278"><ele>76.0</ele><time>2026-04-09T15:12:16Z</time></trkpt><trkpt lat="43.94021003941878" lon="4.605740075118525"><ele>77.0</ele><time>2026-04-09T15:12:17Z</time></trkpt><trkpt lat="43.94021888718237" lon="4.606023694345413"><ele>78.0</ele><time>2026-04-09T15:12:18Z</time></trkpt><trkpt lat="43.94022964042588" lon="4.606305838788392"><ele>79.0</ele><time>2026-04-09T15:12:19Z</time></trkpt><trkpt lat="43.94023935626849" lon="4.606589407231395"><ele>79.33333333333333</ele><time>2026-04-09T15:12:20Z</time></trkpt><trkpt lat="43.940249290667666" lon="4.606874482263379"><ele>79.66666666666667</ele><time>2026-04-09T15:12:21Z</time></trkpt><trkpt lat="43.940258274884386" lon="4.607158638169024"><ele>80.0</ele><time>2026-04-09T15:12:22Z</time></trkpt><trkpt lat="43.94026738792998" lon="4.607439864701927"><ele>80.0</ele><time>2026-04-09T15:12:23Z</time></trkpt><trkpt lat="43.9402761739073" lon="4.607723071795526"><ele>80.0</ele><time>2026-04-09T15:12:24Z</time></trkpt><trkpt lat="43.94028514686759" lon="4.608010527475324"><ele>80.0</ele><time>2026-04-09T15:12:25Z</time></trkpt><trkpt lat="43.94029286909428" lon="4.608294628944541"><ele>80.0</ele><time>2026-04-09T15:12:26Z</time></trkpt><trkpt lat="43.940301412382105" lon="4.608575520878179"><ele>80.0</ele><time>2026-04-09T15:12:27Z</time></trkpt><trkpt lat="43.94030869514698" lon="4.608854743409728"><ele>80.0</ele><time>2026-04-09T15:12:28Z</time></trkpt><trkpt lat="43.94031709217901" lon="4.609132190361312"><ele>80.66666666666667</ele><time>2026-04-09T15:12:29Z</time></trkpt><trkpt lat="43.94032651503377" lon="4.609410697105851"><ele>81.33333333333333</ele><time>2026-04-09T15:12:30Z</time></trkpt><trkpt lat="43.94033765963594" lon="4.609692336640936"><ele>82.0</ele><time>2026-04-09T15:12:31Z</time></trkpt><trkpt lat="43.94034717129427" lon="4.6099750912108455"><ele>84.33333333333333</ele><time>2026-04-09T15:12:32Z</time></trkpt><trkpt lat="43.94035730939146" lon="4.610261273797443"><ele>86.66666666666667</ele><time>2026-04-09T15:12:33Z</time></trkpt><trkpt lat="43.940368769403555" lon="4.610550965196635"><ele>89.0</ele><time>2026-04-09T15:12:34Z</time></trkpt><trkpt lat="43.940383115981355" lon="4.610840773179951"><ele>91.33333333333334</ele><time>2026-04-09T15:12:35Z</time></trkpt><trkpt lat="43.94040310476835" lon="4.611129762616191"><ele>93.66666666666667</ele><time>2026-04-09T15:12:36Z</time></trkpt><trkpt lat="43.940426135792215" lon="4.611412834438702"><ele>96.0</ele><time>2026-04-09T15:12:37Z</time></trkpt><trkpt lat="43.94045110665197" lon="4.611685894463931"><ele>97.0</ele><time>2026-04-09T15:12:38Z</time></trkpt><trkpt lat="43.94047485621848" lon="4.611948105939383"><ele>98.0</ele><time>2026-04-09T15:12:39Z</time></trkpt><trkpt lat="43.940498906333794" lon="4.612202230668761"><ele>99.0</ele><time>2026-04-09T15:12:40Z</time></trkpt><trkpt lat="43.940522325255294" lon="4.6124538374487845"><ele>99.33333333333334</ele><time>2026-04-09T15:12:41Z</time></trkpt><trkpt lat="43.94054667605497" lon="4.612709107453828"><ele>99.66666666666667</ele><time>2026-04-09T15:12:42Z</time></trkpt><trkpt lat="43.94056861289699" lon="4.612971243035804"><ele>100.0</ele><time>2026-04-09T15:12:43Z</time></trkpt><trkpt lat="43.9405958276661" lon="4.613238543293962"><ele>100.0</ele><time>2026-04-09T15:12:44Z</time></trkpt><trkpt lat="43.940625864760314" lon="4.6135098691306515"><ele>100.0</ele><time>2026-04-09T15:12:45Z</time></trkpt><trkpt lat="43.94065964811655" lon="4.61378935591389"><ele>100.0</ele><time>2026-04-09T15:12:46Z</time></trkpt><trkpt lat="43.94070538397565" lon="4.614073597811373"><ele>99.66666666666667</ele><time>2026-04-09T15:12:47Z</time></trkpt><trkpt lat="43.94076350233312" lon="4.614356918548645"><ele>99.33333333333334</ele><time>2026-04-09T15:12:48Z</time></trkpt><trkpt lat="43.9408306452709" lon="4.614639579240715"><ele>99.0</ele><time>2026-04-09T15:12:49Z</time></trkpt><trkpt lat="43.94088102578791" lon="4.614930539036356"><ele>103.0</ele><time>2026-04-09T15:12:50Z</time></trkpt><trkpt lat="43.9409965903483" lon="4.615199979503565"><ele>107.0</ele><time>2026-04-09T15:12:51Z</time></trkpt><trkpt lat="43.94110002051345" lon="4.615476926437436"><ele>107.0</ele><time>2026-04-09T15:12:52Z</time></trkpt><trkpt lat="43.941215283562016" lon="4.61575224852479"><ele>107.0</ele><time>2026-04-09T15:12:53Z</time></trkpt><trkpt lat="43.9413366879987" lon="4.616029046297384"><ele>103.0</ele><time>2026-04-09T15:12:54Z</time></trkpt><trkpt lat="43.94146403145267" lon="4.616309175045335"><ele>99.0</ele><time>2026-04-09T15:12:55Z</time></trkpt><trkpt lat="43.94159499118592" lon="4.61659909588269"><ele>100.0</ele><time>2026-04-09T15:12:56Z</time></trkpt><trkpt lat="43.94172640697446" lon="4.616894128169087"><ele>101.0</ele><time>2026-04-09T15:12:57Z</time></trkpt><trkpt lat="43.941858865700326" lon="4.617196630646415"><ele>101.0</ele><time>2026-04-09T15:12:58Z</time></trkpt><trkpt lat="43.94198703983252" lon="4.6175054324188"><ele>101.0</ele><time>2026-04-09T15:12:59Z</time></trkpt><trkpt lat="43.94210771040421" lon="4.61782135168808"><ele>100.5</ele><time>2026-04-09T15:13:00Z</time></trkpt><trkpt lat="43.94222311608637" lon="4.618144453443464"><ele>100.0</ele><time>2026-04-09T15:13:01Z</time></trkpt><trkpt lat="43.94233608276824" lon="4.6184721715421775"><ele>102.0</ele><time>2026-04-09T15:13:02Z</time></trkpt><trkpt lat="43.942449605955424" lon="4.618802405551523"><ele>104.0</ele><time>2026-04-09T15:13:03Z</time></trkpt><trkpt lat="43.94256302330775" lon="4.61913099072076"><ele>104.0</ele><time>2026-04-09T15:13:04Z</time></trkpt><trkpt lat="43.94267564780474" lon="4.619460037971418"><ele>104.0</ele><time>2026-04-09T15:13:05Z</time></trkpt><trkpt lat="43.942786926877666" lon="4.619786923676782"><ele>104.0</ele><time>2026-04-09T15:13:06Z</time></trkpt><trkpt lat="43.9428969522007" lon="4.62011361444373"><ele>104.0</ele><time>2026-04-09T15:13:07Z</time></trkpt><trkpt lat="43.94300774746625" lon="4.620441601190201"><ele>108.0</ele><time>2026-04-09T15:13:08Z</time></trkpt><trkpt lat="43.94311761295455" lon="4.62077192152869"><ele>112.0</ele><time>2026-04-09T15:13:09Z</time></trkpt><trkpt lat="43.94322838473649" lon="4.62110645784218"><ele>112.5</ele><time>2026-04-09T15:13:10Z</time></trkpt><trkpt lat="43.94334157557936" lon="4.62144358011883"><ele>113.0</ele><time>2026-04-09T15:13:11Z</time></trkpt><trkpt lat="43.9434560580816" lon="4.621785638735188"><ele>115.5</ele><time>2026-04-09T15:13:12Z</time></trkpt><trkpt lat="43.9435737649294" lon="4.6221299410910195"><ele>118.0</ele><time>2026-04-09T15:13:13Z</time></trkpt><trkpt lat="43.94369167272204" lon="4.622476009201423"><ele>120.5</ele><time>2026-04-09T15:13:14Z</time></trkpt><trkpt lat="43.9438103827732" lon="4.622825369467051"><ele>123.0</ele><time>2026-04-09T15:13:15Z</time></trkpt><trkpt lat="43.94393064375197" lon="4.623177824818238"><ele>123.0</ele><time>2026-04-09T15:13:16Z</time></trkpt><trkpt lat="43.94404877847573" lon="4.623524821533021"><ele>123.0</ele><time>2026-04-09T15:13:17Z</time></trkpt><trkpt lat="43.944170305489955" lon="4.623863094634405"><ele>124.0</ele><time>2026-04-09T15:13:18Z</time></trkpt><trkpt lat="43.944302779103644" lon="4.624200729917469"><ele>125.0</ele><time>2026-04-09T15:13:19Z</time></trkpt><trkpt lat="43.94445300261374" lon="4.624526030166538"><ele>128.0</ele><time>2026-04-09T15:13:20Z</time></trkpt><trkpt lat="43.94462047727664" lon="4.624838551409126"><ele>131.0</ele><time>2026-04-09T15:13:21Z</time></trkpt><trkpt lat="43.94480412631124" lon="4.625137854660045"><ele>133.5</ele><time>2026-04-09T15:13:22Z</time></trkpt><trkpt lat="43.94500478467381" lon="4.62541977419378"><ele>136.0</ele><time>2026-04-09T15:13:23Z</time></trkpt><trkpt lat="43.945219481267166" lon="4.625682191440116"><ele>136.0</ele><time>2026-04-09T15:13:24Z</time></trkpt><trkpt lat="43.94544685998595" lon="4.62592261118135"><ele>136.0</ele><time>2026-04-09T15:13:25Z</time></trkpt><trkpt lat="43.94567152245625" lon="4.626143533674963"><ele>142.0</ele><time>2026-04-09T15:13:26Z</time></trkpt><trkpt lat="43.945896596014705" lon="4.626364283972185"><ele>148.0</ele><time>2026-04-09T15:13:27Z</time></trkpt><trkpt lat="43.94612333549236" lon="4.626584805752167"><ele>148.0</ele><time>2026-04-09T15:13:28Z</time></trkpt><trkpt lat="43.946339402466116" lon="4.626799424391451"><ele>148.0</ele><time>2026-04-09T15:13:29Z</time></trkpt><trkpt lat="43.94654369383078" lon="4.627014191162543"><ele>151.0</ele><time>2026-04-09T15:13:30Z</time></trkpt><trkpt lat="43.94673256618216" lon="4.6272336999361405"><ele>154.0</ele><time>2026-04-09T15:13:31Z</time></trkpt><trkpt lat="43.94690531488851" lon="4.627460568762662"><ele>154.0</ele><time>2026-04-09T15:13:32Z</time></trkpt><trkpt lat="43.947064615198954" lon="4.627694141528704"><ele>154.0</ele><time>2026-04-09T15:13:33Z</time></trkpt><trkpt lat="43.94721078227548" lon="4.627934921943487"><ele>153.66666666666669</ele><time>2026-04-09T15:13:34Z</time></trkpt><trkpt lat="43.94734596191172" lon="4.628180093684843"><ele>153.33333333333334</ele><time>2026-04-09T15:13:35Z</time></trkpt><trkpt lat="43.947471095174144" lon="4.628427228762517"><ele>153.0</ele><time>2026-04-09T15:13:36Z</time></trkpt><trkpt lat="43.94758664069495" lon="4.62867635547038"><ele>153.66666666666666</ele><time>2026-04-09T15:13:37Z</time></trkpt><trkpt lat="43.94768662241762" lon="4.628919590305508"><ele>154.33333333333331</ele><time>2026-04-09T15:13:38Z</time></trkpt><trkpt lat="43.94777672529121" lon="4.629158001032315"><ele>155.0</ele><time>2026-04-09T15:13:39Z</time></trkpt><trkpt lat="43.94785846962054" lon="4.629381732658433"><ele>154.33333333333331</ele><time>2026-04-09T15:13:40Z</time></trkpt><trkpt lat="43.94793241579405" lon="4.629588940017389"><ele>153.66666666666666</ele><time>2026-04-09T15:13:41Z</time></trkpt><trkpt lat="43.94800354403737" lon="4.629791225348593"><ele>153.0</ele><time>2026-04-09T15:13:42Z</time></trkpt><trkpt lat="43.94807227148415" lon="4.629990915606474"><ele>153.0</ele><time>2026-04-09T15:13:43Z</time></trkpt><trkpt lat="43.948138612215686" lon="4.630184128437233"><ele>153.0</ele><time>2026-04-09T15:13:44Z</time></trkpt><trkpt lat="43.94820309463797" lon="4.630371972453679"><ele>153.0</ele><time>2026-04-09T15:13:45Z</time></trkpt><trkpt lat="43.94826664734611" lon="4.6305570351542"><ele>153.0</ele><time>2026-04-09T15:13:46Z</time></trkpt><trkpt lat="43.94833129179102" lon="4.630743561851654"><ele>153.0</ele><time>2026-04-09T15:13:47Z</time></trkpt><trkpt lat="43.948394933324536" lon="4.630929574996972"><ele>153.0</ele><time>2026-04-09T15:13:48Z</time></trkpt><trkpt lat="43.94845829609855" lon="4.631113922138527"><ele>153.0</ele><time>2026-04-09T15:13:49Z</time></trkpt><trkpt lat="43.94852019734838" lon="4.631295160572615"><ele>152.25</ele><time>2026-04-09T15:13:50Z</time></trkpt><trkpt lat="43.94858156674528" lon="4.631473740258504"><ele>151.5</ele><time>2026-04-09T15:13:51Z</time></trkpt><trkpt lat="43.948642439722185" lon="4.63164962071318"><ele>150.75</ele><time>2026-04-09T15:13:52Z</time></trkpt><trkpt lat="43.94870333402177" lon="4.631824760960297"><ele>150.0</ele><time>2026-04-09T15:13:53Z</time></trkpt><trkpt lat="43.94876411831377" lon="4.632001706795673"><ele>150.0</ele><time>2026-04-09T15:13:54Z</time></trkpt><trkpt lat="43.94882454820189" lon="4.632179624191358"><ele>150.0</ele><time>2026-04-09T15:13:55Z</time></trkpt><trkpt lat="43.94888621589513" lon="4.6323591637365595"><ele>150.0</ele><time>2026-04-09T15:13:56Z</time></trkpt><trkpt lat="43.94894840019618" lon="4.632539557762378"><ele>150.0</ele><time>2026-04-09T15:13:57Z</time></trkpt><trkpt lat="43.94901149039799" lon="4.632721664870578"><ele>150.33333333333334</ele><time>2026-04-09T15:13:58Z</time></trkpt><trkpt lat="43.949076346112136" lon="4.632909944621137"><ele>150.66666666666669</ele><time>2026-04-09T15:13:59Z</time></trkpt><trkpt lat="43.9491429459576" lon="4.633108056409993"><ele>151.0</ele><time>2026-04-09T15:14:00Z</time></trkpt><trkpt lat="43.949215042688806" lon="4.633315160888843"><ele>150.33333333333334</ele><time>2026-04-09T15:14:01Z</time></trkpt><trkpt lat="43.94928729279102" lon="4.633522034327475"><ele>149.66666666666666</ele><time>2026-04-09T15:14:02Z</time></trkpt><trkpt lat="43.949357905395324" lon="4.63372541435423"><ele>149.0</ele><time>2026-04-09T15:14:03Z</time></trkpt><trkpt lat="43.949426927314306" lon="4.633925896761808"><ele>149.0</ele><time>2026-04-09T15:14:04Z</time></trkpt><trkpt lat="43.94949434392252" lon="4.634123864515657"><ele>149.0</ele><time>2026-04-09T15:14:05Z</time></trkpt><trkpt lat="43.94956156365175" lon="4.634317923206121"><ele>149.0</ele><time>2026-04-09T15:14:06Z</time></trkpt><trkpt lat="43.94962504660329" lon="4.634503602901412"><ele>149.5</ele><time>2026-04-09T15:14:07Z</time></trkpt><trkpt lat="43.94968473015798" lon="4.634680692338934"><ele>150.0</ele><time>2026-04-09T15:14:08Z</time></trkpt><trkpt lat="43.94974125570836" lon="4.634850071593366"><ele>150.5</ele><time>2026-04-09T15:14:09Z</time></trkpt><trkpt lat="43.949797865356814" lon="4.6350174281280765"><ele>151.0</ele><time>2026-04-09T15:14:10Z</time></trkpt><trkpt lat="43.94985427229381" lon="4.635181449901462"><ele>151.0</ele><time>2026-04-09T15:14:11Z</time></trkpt><trkpt lat="43.949909329100834" lon="4.635343261679051"><ele>151.0</ele><time>2026-04-09T15:14:12Z</time></trkpt><trkpt lat="43.94996010951515" lon="4.635499642422189"><ele>151.0</ele><time>2026-04-09T15:14:13Z</time></trkpt><trkpt lat="43.950006247119184" lon="4.635650147138511"><ele>151.0</ele><time>2026-04-09T15:14:14Z</time></trkpt><trkpt lat="43.9500521069439" lon="4.63579505635968"><ele>151.0</ele><time>2026-04-09T15:14:15Z</time></trkpt><trkpt lat="43.950091873601025" lon="4.635921508319397"><ele>151.0</ele><time>2026-04-09T15:14:16Z</time></trkpt><trkpt lat="43.95012512663747" lon="4.636027992064705"><ele>151.0</ele><time>2026-04-09T15:14:17Z</time></trkpt><trkpt lat="43.950151690191966" lon="4.636117098563315"><ele>151.0</ele><time>2026-04-09T15:14:18Z</time></trkpt><trkpt lat="43.95018897905355" lon="4.636244117690621"><ele>151.0</ele><time>2026-04-09T15:14:20Z</time></trkpt><trkpt lat="43.95021274086693" lon="4.636361874621137"><ele>151.0</ele><time>2026-04-09T15:14:24Z</time></trkpt><trkpt lat="43.95023006241295" lon="4.636466108784803"><ele>151.0</ele><time>2026-04-09T15:14:26Z</time></trkpt><trkpt lat="43.9502274239531" lon="4.636628200867672"><ele>151.0</ele><time>2026-04-09T15:14:28Z</time></trkpt><trkpt lat="43.95021599851954" lon="4.6367251659915"><ele>151.0</ele><time>2026-04-09T15:14:29Z</time></trkpt><trkpt lat="43.950226637653685" lon="4.636830364111889"><ele>151.0</ele><time>2026-04-09T15:14:30Z</time></trkpt><trkpt lat="43.95025588275842" lon="4.6369330504263795"><ele>151.0</ele><time>2026-04-09T15:14:31Z</time></trkpt><trkpt lat="43.950283994420815" lon="4.637023433992382"><ele>151.0</ele><time>2026-04-09T15:14:32Z</time></trkpt><trkpt lat="43.95036165125033" lon="4.6370964570030235"><ele>151.2</ele><time>2026-04-09T15:14:33Z</time></trkpt><trkpt lat="43.950446313816194" lon="4.637093622539498"><ele>151.39999999999998</ele><time>2026-04-09T15:14:34Z</time></trkpt><trkpt lat="43.950519018987386" lon="4.637214632955651"><ele>151.6</ele><time>2026-04-09T15:14:35Z</time></trkpt><trkpt lat="43.95057827155628" lon="4.637331579725711"><ele>151.79999999999998</ele><time>2026-04-09T15:14:36Z</time></trkpt><trkpt lat="43.950629687319896" lon="4.637476013478271"><ele>152.0</ele><time>2026-04-09T15:14:37Z</time></trkpt><trkpt lat="43.950681981405005" lon="4.637631254068486"><ele>152.0</ele><time>2026-04-09T15:14:38Z</time></trkpt><trkpt lat="43.95074002629882" lon="4.6377901273939"><ele>152.0</ele><time>2026-04-09T15:14:39Z</time></trkpt><trkpt lat="43.95080234065259" lon="4.63795981729114"><ele>152.0</ele><time>2026-04-09T15:14:40Z</time></trkpt><trkpt lat="43.9508651251614" lon="4.638135687963184"><ele>152.0</ele><time>2026-04-09T15:14:41Z</time></trkpt><trkpt lat="43.95092956906069" lon="4.638319101940761"><ele>153.0</ele><time>2026-04-09T15:14:42Z</time></trkpt><trkpt lat="43.95099846040035" lon="4.638508044677409"><ele>154.0</ele><time>2026-04-09T15:14:43Z</time></trkpt><trkpt lat="43.95107071478772" lon="4.638703432574398"><ele>155.0</ele><time>2026-04-09T15:14:44Z</time></trkpt><trkpt lat="43.95114246731069" lon="4.63890207794306"><ele>155.0</ele><time>2026-04-09T15:14:45Z</time></trkpt><trkpt lat="43.95121214422809" lon="4.639096832278874"><ele>155.0</ele><time>2026-04-09T15:14:46Z</time></trkpt><trkpt lat="43.95128365698578" lon="4.639298436105211"><ele>155.0</ele><time>2026-04-09T15:14:47Z</time></trkpt><trkpt lat="43.95135461066306" lon="4.639504509678081"><ele>154.33333333333331</ele><time>2026-04-09T15:14:48Z</time></trkpt><trkpt lat="43.951425785165554" lon="4.6397081163525975"><ele>153.66666666666666</ele><time>2026-04-09T15:14:49Z</time></trkpt><trkpt lat="43.95149349659737" lon="4.639906584557553"><ele>153.0</ele><time>2026-04-09T15:14:50Z</time></trkpt><trkpt lat="43.95156120491249" lon="4.640107459170522"><ele>153.33333333333334</ele><time>2026-04-09T15:14:51Z</time></trkpt><trkpt lat="43.951630358436745" lon="4.640309704323653"><ele>153.66666666666669</ele><time>2026-04-09T15:14:52Z</time></trkpt><trkpt lat="43.9517006676911" lon="4.640512605272261"><ele>154.0</ele><time>2026-04-09T15:14:53Z</time></trkpt><trkpt lat="43.95177083260056" lon="4.640718764331724"><ele>154.33333333333334</ele><time>2026-04-09T15:14:54Z</time></trkpt><trkpt lat="43.95184310541233" lon="4.640924515232247"><ele>154.66666666666666</ele><time>2026-04-09T15:14:55Z</time></trkpt><trkpt lat="43.95191365421965" lon="4.641126945774174"><ele>155.0</ele><time>2026-04-09T15:14:56Z</time></trkpt><trkpt lat="43.95198174177407" lon="4.641326168814945"><ele>155.0</ele><time>2026-04-09T15:14:57Z</time></trkpt><trkpt lat="43.95205012246096" lon="4.641525335724926"><ele>155.0</ele><time>2026-04-09T15:14:58Z</time></trkpt><trkpt lat="43.95211778532256" lon="4.641725586956444"><ele>155.0</ele><time>2026-04-09T15:14:59Z</time></trkpt><trkpt lat="43.952184893468676" lon="4.641924292029435"><ele>155.0</ele><time>2026-04-09T15:15:00Z</time></trkpt><trkpt lat="43.952253654792884" lon="4.642123314661089"><ele>155.0</ele><time>2026-04-09T15:15:01Z</time></trkpt><trkpt lat="43.952321855764275" lon="4.642322993062126"><ele>155.0</ele><time>2026-04-09T15:15:02Z</time></trkpt><trkpt lat="43.952390051165246" lon="4.642524936506046"><ele>155.0</ele><time>2026-04-09T15:15:03Z</time></trkpt><trkpt lat="43.95245864779919" lon="4.642720468851722"><ele>155.0</ele><time>2026-04-09T15:15:04Z</time></trkpt><trkpt lat="43.95252520398621" lon="4.642912934760564"><ele>155.0</ele><time>2026-04-09T15:15:05Z</time></trkpt><trkpt lat="43.95259025238704" lon="4.643102369346373"><ele>155.0</ele><time>2026-04-09T15:15:06Z</time></trkpt><trkpt lat="43.952654814036165" lon="4.643289011154457"><ele>155.0</ele><time>2026-04-09T15:15:07Z</time></trkpt><trkpt lat="43.95271749654198" lon="4.6434710885553345"><ele>155.0</ele><time>2026-04-09T15:15:08Z</time></trkpt><trkpt lat="43.95277948441081" lon="4.643651021301526"><ele>155.0</ele><time>2026-04-09T15:15:09Z</time></trkpt><trkpt lat="43.95283836279473" lon="4.643826613362605"><ele>155.0</ele><time>2026-04-09T15:15:10Z</time></trkpt><trkpt lat="43.95289726596509" lon="4.6439994396063105"><ele>155.0</ele><time>2026-04-09T15:15:11Z</time></trkpt><trkpt lat="43.95295700967639" lon="4.644173608950419"><ele>155.0</ele><time>2026-04-09T15:15:12Z</time></trkpt><trkpt lat="43.95301809594947" lon="4.644351893745463"><ele>155.0</ele><time>2026-04-09T15:15:13Z</time></trkpt><trkpt lat="43.95308139520329" lon="4.64453206883686"><ele>155.0</ele><time>2026-04-09T15:15:14Z</time></trkpt><trkpt lat="43.95314361794505" lon="4.644713277483504"><ele>155.0</ele><time>2026-04-09T15:15:15Z</time></trkpt><trkpt lat="43.9532061646457" lon="4.644897193866814"><ele>155.0</ele><time>2026-04-09T15:15:16Z</time></trkpt><trkpt lat="43.95326935466239" lon="4.645082584978652"><ele>155.0</ele><time>2026-04-09T15:15:17Z</time></trkpt><trkpt lat="43.953335681751696" lon="4.645273432562193"><ele>155.33333333333331</ele><time>2026-04-09T15:15:18Z</time></trkpt><trkpt lat="43.95340373762889" lon="4.645472712550559"><ele>155.66666666666666</ele><time>2026-04-09T15:15:19Z</time></trkpt><trkpt lat="43.953474958807625" lon="4.645676318117557"><ele>156.0</ele><time>2026-04-09T15:15:20Z</time></trkpt><trkpt lat="43.953544655019954" lon="4.645885795580158"><ele>156.0</ele><time>2026-04-09T15:15:21Z</time></trkpt><trkpt lat="43.95361806898068" lon="4.6460970791411516"><ele>156.0</ele><time>2026-04-09T15:15:22Z</time></trkpt><trkpt lat="43.95369106405509" lon="4.646309993516654"><ele>156.0</ele><time>2026-04-09T15:15:23Z</time></trkpt><trkpt lat="43.95376707731084" lon="4.646528452159371"><ele>155.66666666666666</ele><time>2026-04-09T15:15:24Z</time></trkpt><trkpt lat="43.95384367072625" lon="4.646747224218763"><ele>155.33333333333331</ele><time>2026-04-09T15:15:25Z</time></trkpt><trkpt lat="43.95392157410822" lon="4.6469677329255035"><ele>155.0</ele><time>2026-04-09T15:15:26Z</time></trkpt><trkpt lat="43.95399948056659" lon="4.647191087383256"><ele>154.66666666666666</ele><time>2026-04-09T15:15:27Z</time></trkpt><trkpt lat="43.954075922614926" lon="4.647411980095135"><ele>154.33333333333334</ele><time>2026-04-09T15:15:28Z</time></trkpt><trkpt lat="43.95415099427389" lon="4.647629562862648"><ele>154.0</ele><time>2026-04-09T15:15:29Z</time></trkpt><trkpt lat="43.954226275748496" lon="4.647844935619819"><ele>154.0</ele><time>2026-04-09T15:15:30Z</time></trkpt><trkpt lat="43.954301660531115" lon="4.648064168121089"><ele>154.0</ele><time>2026-04-09T15:15:31Z</time></trkpt><trkpt lat="43.95437659804539" lon="4.648282289351675"><ele>154.0</ele><time>2026-04-09T15:15:32Z</time></trkpt><trkpt lat="43.95445231624541" lon="4.648501298923069"><ele>154.0</ele><time>2026-04-09T15:15:33Z</time></trkpt><trkpt lat="43.95452726916412" lon="4.648721695249386"><ele>154.0</ele><time>2026-04-09T15:15:34Z</time></trkpt><trkpt lat="43.95460213170056" lon="4.648943312408861"><ele>154.0</ele><time>2026-04-09T15:15:35Z</time></trkpt><trkpt lat="43.95467794307396" lon="4.649166545344868"><ele>154.0</ele><time>2026-04-09T15:15:36Z</time></trkpt><trkpt lat="43.95475655646695" lon="4.649392380777679"><ele>154.0</ele><time>2026-04-09T15:15:37Z</time></trkpt><trkpt lat="43.95483276473532" lon="4.649615613272472"><ele>154.0</ele><time>2026-04-09T15:15:38Z</time></trkpt><trkpt lat="43.95490498381524" lon="4.649835963591985"><ele>154.0</ele><time>2026-04-09T15:15:39Z</time></trkpt><trkpt lat="43.954982683638896" lon="4.650050208305462"><ele>154.0</ele><time>2026-04-09T15:15:40Z</time></trkpt><trkpt lat="43.95505688170452" lon="4.650264039122464"><ele>154.0</ele><time>2026-04-09T15:15:41Z</time></trkpt><trkpt lat="43.95512998957547" lon="4.650472439329477"><ele>153.66666666666669</ele><time>2026-04-09T15:15:42Z</time></trkpt><trkpt lat="43.955200679468156" lon="4.650680760244333"><ele>153.33333333333334</ele><time>2026-04-09T15:15:43Z</time></trkpt><trkpt lat="43.95527360802819" lon="4.6508841703267505"><ele>153.0</ele><time>2026-04-09T15:15:44Z</time></trkpt><trkpt lat="43.95534463195322" lon="4.651084031400325"><ele>153.0</ele><time>2026-04-09T15:15:45Z</time></trkpt><trkpt lat="43.955414238370565" lon="4.6512817344351784"><ele>153.0</ele><time>2026-04-09T15:15:46Z</time></trkpt><trkpt lat="43.95548294220472" lon="4.651474547403861"><ele>153.0</ele><time>2026-04-09T15:15:47Z</time></trkpt><trkpt lat="43.95554837577662" lon="4.651665408275602"><ele>153.0</ele><time>2026-04-09T15:15:48Z</time></trkpt><trkpt lat="43.95561525785017" lon="4.651850718473128"><ele>153.0</ele><time>2026-04-09T15:15:49Z</time></trkpt><trkpt lat="43.9556761123368" lon="4.652035449264007"><ele>153.0</ele><time>2026-04-09T15:15:50Z</time></trkpt><trkpt lat="43.9557379819515" lon="4.652216979818722"><ele>153.0</ele><time>2026-04-09T15:15:51Z</time></trkpt><trkpt lat="43.955795724079394" lon="4.652398486782878"><ele>153.25</ele><time>2026-04-09T15:15:52Z</time></trkpt><trkpt lat="43.95585470217152" lon="4.652579567018318"><ele>153.5</ele><time>2026-04-09T15:15:53Z</time></trkpt><trkpt lat="43.955907063883096" lon="4.652755879139098"><ele>153.75</ele><time>2026-04-09T15:15:54Z</time></trkpt><trkpt lat="43.95595674849231" lon="4.65293678273366"><ele>154.0</ele><time>2026-04-09T15:15:55Z</time></trkpt><trkpt lat="43.95599865953439" lon="4.653117667810659"><ele>154.0</ele><time>2026-04-09T15:15:56Z</time></trkpt><trkpt lat="43.95603248748517" lon="4.6533005846782896"><ele>154.0</ele><time>2026-04-09T15:15:57Z</time></trkpt><trkpt lat="43.95605774211948" lon="4.653484070324534"><ele>154.0</ele><time>2026-04-09T15:15:58Z</time></trkpt><trkpt lat="43.95607536484247" lon="4.653666656429713"><ele>154.0</ele><time>2026-04-09T15:15:59Z</time></trkpt><trkpt lat="43.95608063659336" lon="4.653847686472929"><ele>153.5</ele><time>2026-04-09T15:16:00Z</time></trkpt><trkpt lat="43.95607905365491" lon="4.654021383679198"><ele>153.0</ele><time>2026-04-09T15:16:01Z</time></trkpt><trkpt lat="43.95605813572268" lon="4.654174692598824"><ele>152.5</ele><time>2026-04-09T15:16:02Z</time></trkpt><trkpt lat="43.956019112530775" lon="4.654319305375467"><ele>152.0</ele><time>2026-04-09T15:16:03Z</time></trkpt><trkpt lat="43.95592778885408" lon="4.654415730725708"><ele>151.79999999999998</ele><time>2026-04-09T15:16:04Z</time></trkpt><trkpt lat="43.95585709478143" lon="4.65452875301529"><ele>151.6</ele><time>2026-04-09T15:16:05Z</time></trkpt><trkpt lat="43.95580368889138" lon="4.654639536341563"><ele>151.39999999999998</ele><time>2026-04-09T15:16:06Z</time></trkpt><trkpt lat="43.95579117051271" lon="4.6547797781403695"><ele>151.2</ele><time>2026-04-09T15:16:07Z</time></trkpt><trkpt lat="43.955815826179894" lon="4.65491641769334"><ele>151.0</ele><time>2026-04-09T15:16:08Z</time></trkpt><trkpt lat="43.95587691191905" lon="4.655029909454874"><ele>151.5</ele><time>2026-04-09T15:16:09Z</time></trkpt><trkpt lat="43.95595988816688" lon="4.655102754634389"><ele>152.0</ele><time>2026-04-09T15:16:10Z</time></trkpt><trkpt lat="43.95606995273332" lon="4.655108154812614"><ele>152.5</ele><time>2026-04-09T15:16:11Z</time></trkpt><trkpt lat="43.95618991120289" lon="4.655061557243725"><ele>153.0</ele><time>2026-04-09T15:16:12Z</time></trkpt><trkpt lat="43.95629106178998" lon="4.654966914309501"><ele>153.0</ele><time>2026-04-09T15:16:13Z</time></trkpt><trkpt lat="43.95644979141241" lon="4.65502928380955"><ele>153.0</ele><time>2026-04-09T15:16:14Z</time></trkpt><trkpt lat="43.956591936732764" lon="4.655105140685031"><ele>153.0</ele><time>2026-04-09T15:16:15Z</time></trkpt><trkpt lat="43.95673868170135" lon="4.655210731392878"><ele>153.33333333333334</ele><time>2026-04-09T15:16:16Z</time></trkpt><trkpt lat="43.95688632643473" lon="4.655347007315799"><ele>153.66666666666669</ele><time>2026-04-09T15:16:17Z</time></trkpt><trkpt lat="43.95703104527188" lon="4.655512086774572"><ele>154.0</ele><time>2026-04-09T15:16:18Z</time></trkpt><trkpt lat="43.95718014642152" lon="4.655686485998321"><ele>154.0</ele><time>2026-04-09T15:16:19Z</time></trkpt><trkpt lat="43.957337802484815" lon="4.6558723770994"><ele>154.0</ele><time>2026-04-09T15:16:20Z</time></trkpt><trkpt lat="43.95749812565413" lon="4.656064602659431"><ele>154.0</ele><time>2026-04-09T15:16:21Z</time></trkpt><trkpt lat="43.95766212424939" lon="4.656263841710328"><ele>154.0</ele><time>2026-04-09T15:16:22Z</time></trkpt><trkpt lat="43.95782821410537" lon="4.656470367568795"><ele>154.0</ele><time>2026-04-09T15:16:23Z</time></trkpt><trkpt lat="43.95799469043874" lon="4.656675717028091"><ele>154.0</ele><time>2026-04-09T15:16:24Z</time></trkpt><trkpt lat="43.95816109678152" lon="4.6568848769663465"><ele>154.33333333333334</ele><time>2026-04-09T15:16:25Z</time></trkpt><trkpt lat="43.95832642514044" lon="4.657090816376725"><ele>154.66666666666666</ele><time>2026-04-09T15:16:26Z</time></trkpt><trkpt lat="43.958487008154" lon="4.657290995341931"><ele>155.0</ele><time>2026-04-09T15:16:27Z</time></trkpt><trkpt lat="43.95864743859293" lon="4.657485085988205"><ele>155.0</ele><time>2026-04-09T15:16:28Z</time></trkpt><trkpt lat="43.95880513289635" lon="4.657675953791567"><ele>155.0</ele><time>2026-04-09T15:16:29Z</time></trkpt><trkpt lat="43.95895956569215" lon="4.657860126532086"><ele>155.0</ele><time>2026-04-09T15:16:30Z</time></trkpt><trkpt lat="43.95910994441994" lon="4.658044593023062"><ele>154.66666666666666</ele><time>2026-04-09T15:16:31Z</time></trkpt><trkpt lat="43.959257568622554" lon="4.658226886002044"><ele>154.33333333333334</ele><time>2026-04-09T15:16:32Z</time></trkpt><trkpt lat="43.95940342318114" lon="4.658404066818334"><ele>154.0</ele><time>2026-04-09T15:16:33Z</time></trkpt><trkpt lat="43.959546438262926" lon="4.658579587482265"><ele>154.0</ele><time>2026-04-09T15:16:34Z</time></trkpt><trkpt lat="43.959685119750326" lon="4.658753917697612"><ele>154.0</ele><time>2026-04-09T15:16:35Z</time></trkpt><trkpt lat="43.9598229926359" lon="4.658928257916467"><ele>154.0</ele><time>2026-04-09T15:16:36Z</time></trkpt><trkpt lat="43.959962606787066" lon="4.659106422633321"><ele>154.0</ele><time>2026-04-09T15:16:37Z</time></trkpt><trkpt lat="43.96010032830635" lon="4.659281796429631"><ele>154.0</ele><time>2026-04-09T15:16:38Z</time></trkpt><trkpt lat="43.960235465684775" lon="4.6594574596310245"><ele>154.0</ele><time>2026-04-09T15:16:39Z</time></trkpt><trkpt lat="43.960365522394575" lon="4.659637160165581"><ele>154.0</ele><time>2026-04-09T15:16:40Z</time></trkpt><trkpt lat="43.9604897967145" lon="4.659818780687598"><ele>154.0</ele><time>2026-04-09T15:16:41Z</time></trkpt><trkpt lat="43.96061326207039" lon="4.660003346489003"><ele>154.0</ele><time>2026-04-09T15:16:42Z</time></trkpt><trkpt lat="43.960726407521335" lon="4.660200108955391"><ele>153.66666666666669</ele><time>2026-04-09T15:16:43Z</time></trkpt><trkpt lat="43.96082066258767" lon="4.66041551010253"><ele>153.33333333333334</ele><time>2026-04-09T15:16:44Z</time></trkpt><trkpt lat="43.96090118333566" lon="4.6606497901656905"><ele>153.0</ele><time>2026-04-09T15:16:45Z</time></trkpt><trkpt lat="43.96098059043199" lon="4.660898217479425"><ele>152.33333333333334</ele><time>2026-04-09T15:16:46Z</time></trkpt><trkpt lat="43.96105513741039" lon="4.661157673037742"><ele>151.66666666666669</ele><time>2026-04-09T15:16:47Z</time></trkpt><trkpt lat="43.96113672535935" lon="4.6614101556121215"><ele>151.0</ele><time>2026-04-09T15:16:48Z</time></trkpt><trkpt lat="43.96121311842305" lon="4.661655244336974"><ele>151.0</ele><time>2026-04-09T15:16:49Z</time></trkpt><trkpt lat="43.961288748936624" lon="4.661898626017668"><ele>151.0</ele><time>2026-04-09T15:16:50Z</time></trkpt><trkpt lat="43.96136428405852" lon="4.66213469549801"><ele>151.0</ele><time>2026-04-09T15:16:51Z</time></trkpt><trkpt lat="43.96144388608628" lon="4.662365314191133"><ele>151.0</ele><time>2026-04-09T15:16:52Z</time></trkpt><trkpt lat="43.96152815730145" lon="4.662588351861312"><ele>151.0</ele><time>2026-04-09T15:16:53Z</time></trkpt><trkpt lat="43.96161281774434" lon="4.662805351437545"><ele>151.0</ele><time>2026-04-09T15:16:54Z</time></trkpt><trkpt lat="43.961700319396236" lon="4.663023322014378"><ele>151.0</ele><time>2026-04-09T15:16:55Z</time></trkpt><trkpt lat="43.96179058662556" lon="4.663245217132148"><ele>151.0</ele><time>2026-04-09T15:16:56Z</time></trkpt><trkpt lat="43.96188270879064" lon="4.663470876766692"><ele>151.0</ele><time>2026-04-09T15:16:57Z</time></trkpt><trkpt lat="43.961976221789406" lon="4.663698674422896"><ele>151.0</ele><time>2026-04-09T15:16:58Z</time></trkpt><trkpt lat="43.96207229889501" lon="4.663926811697566"><ele>151.0</ele><time>2026-04-09T15:16:59Z</time></trkpt><trkpt lat="43.96216593606988" lon="4.664157907769277"><ele>151.0</ele><time>2026-04-09T15:17:00Z</time></trkpt><trkpt lat="43.9622586698923" lon="4.664390604114248"><ele>151.33333333333334</ele><time>2026-04-09T15:17:01Z</time></trkpt><trkpt lat="43.962349472996685" lon="4.66461818642271"><ele>151.66666666666666</ele><time>2026-04-09T15:17:02Z</time></trkpt><trkpt lat="43.962438564511324" lon="4.664843471852733"><ele>152.0</ele><time>2026-04-09T15:17:03Z</time></trkpt><trkpt lat="43.9625307719637" lon="4.66506050716233"><ele>152.0</ele><time>2026-04-09T15:17:04Z</time></trkpt><trkpt lat="43.962623385585694" lon="4.665268396788449"><ele>152.0</ele><time>2026-04-09T15:17:05Z</time></trkpt><trkpt lat="43.96271469952255" lon="4.665475750075455"><ele>152.0</ele><time>2026-04-09T15:17:06Z</time></trkpt><trkpt lat="43.96280419245284" lon="4.665679742697505"><ele>152.5</ele><time>2026-04-09T15:17:07Z</time></trkpt><trkpt lat="43.96288918937324" lon="4.66587051168014"><ele>153.0</ele><time>2026-04-09T15:17:08Z</time></trkpt><trkpt lat="43.96296699542037" lon="4.666042044768292"><ele>153.5</ele><time>2026-04-09T15:17:09Z</time></trkpt><trkpt lat="43.96304394152804" lon="4.666204154074854"><ele>154.0</ele><time>2026-04-09T15:17:10Z</time></trkpt><trkpt lat="43.963121392031724" lon="4.666363926494946"><ele>154.0</ele><time>2026-04-09T15:17:11Z</time></trkpt><trkpt lat="43.963197585082334" lon="4.666520075746417"><ele>154.0</ele><time>2026-04-09T15:17:12Z</time></trkpt><trkpt lat="43.963272733908255" lon="4.666673415427884"><ele>154.0</ele><time>2026-04-09T15:17:13Z</time></trkpt><trkpt lat="43.9633483996848" lon="4.666822486061944"><ele>154.0</ele><time>2026-04-09T15:17:14Z</time></trkpt><trkpt lat="43.963424843341876" lon="4.66697065023221"><ele>153.75</ele><time>2026-04-09T15:17:15Z</time></trkpt><trkpt lat="43.96350278807995" lon="4.667118621170802"><ele>153.5</ele><time>2026-04-09T15:17:16Z</time></trkpt><trkpt lat="43.96358252677292" lon="4.667268707452517"><ele>153.25</ele><time>2026-04-09T15:17:17Z</time></trkpt><trkpt lat="43.9636604152007" lon="4.66741433581545"><ele>153.0</ele><time>2026-04-09T15:17:18Z</time></trkpt><trkpt lat="43.96373923826958" lon="4.667558336274678"><ele>153.0</ele><time>2026-04-09T15:17:19Z</time></trkpt><trkpt lat="43.963816917000685" lon="4.66770127192721"><ele>153.0</ele><time>2026-04-09T15:17:20Z</time></trkpt><trkpt lat="43.963893459130794" lon="4.667843034668142"><ele>153.0</ele><time>2026-04-09T15:17:21Z</time></trkpt><trkpt lat="43.963971273502615" lon="4.667984661893457"><ele>153.0</ele><time>2026-04-09T15:17:22Z</time></trkpt><trkpt lat="43.96404833251171" lon="4.668127066269311"><ele>153.0</ele><time>2026-04-09T15:17:23Z</time></trkpt><trkpt lat="43.964125011465065" lon="4.668269025306054"><ele>153.0</ele><time>2026-04-09T15:17:24Z</time></trkpt><trkpt lat="43.964201212349046" lon="4.668411845528278"><ele>153.0</ele><time>2026-04-09T15:17:25Z</time></trkpt><trkpt lat="43.96427679159987" lon="4.668555128166815"><ele>153.0</ele><time>2026-04-09T15:17:26Z</time></trkpt><trkpt lat="43.96435287852653" lon="4.6686988867149966"><ele>153.25</ele><time>2026-04-09T15:17:27Z</time></trkpt><trkpt lat="43.96442803388698" lon="4.668840102199438"><ele>153.5</ele><time>2026-04-09T15:17:28Z</time></trkpt><trkpt lat="43.964501607890995" lon="4.668980413644738"><ele>153.75</ele><time>2026-04-09T15:17:29Z</time></trkpt><trkpt lat="43.964574915704624" lon="4.6691191676018065"><ele>154.0</ele><time>2026-04-09T15:17:30Z</time></trkpt><trkpt lat="43.96464821318219" lon="4.6692575466500355"><ele>154.0</ele><time>2026-04-09T15:17:31Z</time></trkpt><trkpt lat="43.964721665819845" lon="4.6693960385912785"><ele>154.0</ele><time>2026-04-09T15:17:32Z</time></trkpt><trkpt lat="43.96479484925777" lon="4.669535208277248"><ele>154.0</ele><time>2026-04-09T15:17:33Z</time></trkpt><trkpt lat="43.96486895906595" lon="4.669673814939367"><ele>154.0</ele><time>2026-04-09T15:17:34Z</time></trkpt><trkpt lat="43.96494418813121" lon="4.669811896730735"><ele>154.0</ele><time>2026-04-09T15:17:35Z</time></trkpt><trkpt lat="43.96501931345858" lon="4.6699491460022005"><ele>154.0</ele><time>2026-04-09T15:17:36Z</time></trkpt><trkpt lat="43.96509392866221" lon="4.670086144099455"><ele>154.0</ele><time>2026-04-09T15:17:37Z</time></trkpt><trkpt lat="43.96516860517169" lon="4.670224773700224"><ele>154.0</ele><time>2026-04-09T15:17:38Z</time></trkpt><trkpt lat="43.96524306073037" lon="4.670363375223003"><ele>154.5</ele><time>2026-04-09T15:17:39Z</time></trkpt><trkpt lat="43.96531744539934" lon="4.670501632911288"><ele>155.0</ele><time>2026-04-09T15:17:40Z</time></trkpt><trkpt lat="43.96539218440936" lon="4.670639155588153"><ele>155.5</ele><time>2026-04-09T15:17:41Z</time></trkpt><trkpt lat="43.96546703535161" lon="4.670777490849538"><ele>156.0</ele><time>2026-04-09T15:17:42Z</time></trkpt><trkpt lat="43.965544704488295" lon="4.670912417326068"><ele>156.0</ele><time>2026-04-09T15:17:43Z</time></trkpt><trkpt lat="43.965625296174565" lon="4.671042993895631"><ele>156.0</ele><time>2026-04-09T15:17:44Z</time></trkpt><trkpt lat="43.965708987689275" lon="4.671168107294854"><ele>156.0</ele><time>2026-04-09T15:17:45Z</time></trkpt><trkpt lat="43.965796772003614" lon="4.671290937120533"><ele>156.0</ele><time>2026-04-09T15:17:46Z</time></trkpt><trkpt lat="43.965887269558515" lon="4.6714082679616284"><ele>156.0</ele><time>2026-04-09T15:17:47Z</time></trkpt><trkpt lat="43.9659790951964" lon="4.671523858362604"><ele>156.0</ele><time>2026-04-09T15:17:48Z</time></trkpt><trkpt lat="43.96607360074092" lon="4.671636104621894"><ele>156.0</ele><time>2026-04-09T15:17:49Z</time></trkpt><trkpt lat="43.966171525255525" lon="4.67174639579171"><ele>156.0</ele><time>2026-04-09T15:17:50Z</time></trkpt><trkpt lat="43.96626724697947" lon="4.671855374707631"><ele>156.0</ele><time>2026-04-09T15:17:51Z</time></trkpt><trkpt lat="43.96636274747283" lon="4.671965901706003"><ele>156.0</ele><time>2026-04-09T15:17:52Z</time></trkpt><trkpt lat="43.96645867148874" lon="4.672078867852567"><ele>156.0</ele><time>2026-04-09T15:17:53Z</time></trkpt><trkpt lat="43.966551500447665" lon="4.672193087332055"><ele>156.0</ele><time>2026-04-09T15:17:54Z</time></trkpt><trkpt lat="43.96664475737546" lon="4.672307863012734"><ele>156.25</ele><time>2026-04-09T15:17:55Z</time></trkpt><trkpt lat="43.96673700074758" lon="4.672423938461967"><ele>156.5</ele><time>2026-04-09T15:17:56Z</time></trkpt><trkpt lat="43.96682767226298" lon="4.672541316271678"><ele>156.75</ele><time>2026-04-09T15:17:57Z</time></trkpt><trkpt lat="43.966917152176855" lon="4.672661475914936"><ele>157.0</ele><time>2026-04-09T15:17:58Z</time></trkpt><trkpt lat="43.967008008715666" lon="4.672779897204827"><ele>156.5</ele><time>2026-04-09T15:17:59Z</time></trkpt><trkpt lat="43.96710062122505" lon="4.672895809130151"><ele>156.0</ele><time>2026-04-09T15:18:00Z</time></trkpt><trkpt lat="43.967195386514256" lon="4.673010518402964"><ele>155.5</ele><time>2026-04-09T15:18:01Z</time></trkpt><trkpt lat="43.96729299987501" lon="4.67311929555732"><ele>155.0</ele><time>2026-04-09T15:18:02Z</time></trkpt><trkpt lat="43.96739464274526" lon="4.6732233474473075"><ele>155.0</ele><time>2026-04-09T15:18:03Z</time></trkpt><trkpt lat="43.96749455880446" lon="4.673330432500571"><ele>155.0</ele><time>2026-04-09T15:18:04Z</time></trkpt><trkpt lat="43.96759256375016" lon="4.673439730553011"><ele>155.0</ele><time>2026-04-09T15:18:05Z</time></trkpt><trkpt lat="43.96769074028151" lon="4.67354910265778"><ele>155.0</ele><time>2026-04-09T15:18:06Z</time></trkpt><trkpt lat="43.967786382010814" lon="4.673657593489147"><ele>154.8</ele><time>2026-04-09T15:18:07Z</time></trkpt><trkpt lat="43.96787412343655" lon="4.673760164581262"><ele>154.6</ele><time>2026-04-09T15:18:08Z</time></trkpt><trkpt lat="43.96795186529531" lon="4.673853034645512"><ele>154.4</ele><time>2026-04-09T15:18:09Z</time></trkpt><trkpt lat="43.968021118118415" lon="4.6739358321027"><ele>154.2</ele><time>2026-04-09T15:18:10Z</time></trkpt><trkpt lat="43.968080868446876" lon="4.67401774090335"><ele>154.0</ele><time>2026-04-09T15:18:11Z</time></trkpt><trkpt lat="43.96812336428733" lon="4.674109196091478"><ele>154.0</ele><time>2026-04-09T15:18:12Z</time></trkpt><trkpt lat="43.96815099184218" lon="4.67420265260139"><ele>154.0</ele><time>2026-04-09T15:18:13Z</time></trkpt><trkpt lat="43.968174535838884" lon="4.67429690872839"><ele>154.0</ele><time>2026-04-09T15:18:14Z</time></trkpt><trkpt lat="43.96827510671116" lon="4.674362450788076"><ele>154.0</ele><time>2026-04-09T15:18:15Z</time></trkpt><trkpt lat="43.968383423900036" lon="4.674282149682192"><ele>154.0</ele><time>2026-04-09T15:18:17Z</time></trkpt><trkpt lat="43.9684226145218" lon="4.674194994649321"><ele>154.5</ele><time>2026-04-09T15:18:18Z</time></trkpt><trkpt lat="43.96849839082426" lon="4.6741464711479015"><ele>155.0</ele><time>2026-04-09T15:18:19Z</time></trkpt><trkpt lat="43.9685755097194" lon="4.674127646390749"><ele>155.5</ele><time>2026-04-09T15:18:20Z</time></trkpt><trkpt lat="43.96865052064498" lon="4.674150419186827"><ele>156.0</ele><time>2026-04-09T15:18:21Z</time></trkpt><trkpt lat="43.96872761523819" lon="4.674206399338501"><ele>156.5</ele><time>2026-04-09T15:18:22Z</time></trkpt><trkpt lat="43.9688079717623" lon="4.6742653975639366"><ele>157.0</ele><time>2026-04-09T15:18:23Z</time></trkpt><trkpt lat="43.96889932394393" lon="4.6743381086728775"><ele>157.0</ele><time>2026-04-09T15:18:24Z</time></trkpt><trkpt lat="43.96898617395748" lon="4.674435731249521"><ele>157.0</ele><time>2026-04-09T15:18:25Z</time></trkpt><trkpt lat="43.96908714179575" lon="4.674502623723877"><ele>157.0</ele><time>2026-04-09T15:18:26Z</time></trkpt><trkpt lat="43.96918597444311" lon="4.674588390650905"><ele>157.0</ele><time>2026-04-09T15:18:27Z</time></trkpt><trkpt lat="43.969286760335414" lon="4.674674796917471"><ele>157.0</ele><time>2026-04-09T15:18:28Z</time></trkpt><trkpt lat="43.96938940283179" lon="4.674764444774625"><ele>157.0</ele><time>2026-04-09T15:18:29Z</time></trkpt><trkpt lat="43.969497331477875" lon="4.674852101023562"><ele>157.0</ele><time>2026-04-09T15:18:30Z</time></trkpt><trkpt lat="43.96961856385678" lon="4.674942140440401"><ele>157.0</ele><time>2026-04-09T15:18:31Z</time></trkpt><trkpt lat="43.969742502911785" lon="4.675034696426555"><ele>157.0</ele><time>2026-04-09T15:18:32Z</time></trkpt><trkpt lat="43.969868201773416" lon="4.675122695093106"><ele>157.0</ele><time>2026-04-09T15:18:33Z</time></trkpt><trkpt lat="43.969991011516676" lon="4.675198618355994"><ele>157.0</ele><time>2026-04-09T15:18:34Z</time></trkpt><trkpt lat="43.97011058771113" lon="4.675275784710436"><ele>157.0</ele><time>2026-04-09T15:18:35Z</time></trkpt><trkpt lat="43.97022350197776" lon="4.675363615257172"><ele>158.0</ele><time>2026-04-09T15:18:36Z</time></trkpt><trkpt lat="43.97033499556839" lon="4.675445238964034"><ele>159.0</ele><time>2026-04-09T15:18:37Z</time></trkpt><trkpt lat="43.970443529245564" lon="4.675526184935416"><ele>160.0</ele><time>2026-04-09T15:18:38Z</time></trkpt><trkpt lat="43.97054567328509" lon="4.6756101029608566"><ele>161.0</ele><time>2026-04-09T15:18:39Z</time></trkpt><trkpt lat="43.97063449599559" lon="4.675711337687534"><ele>161.0</ele><time>2026-04-09T15:18:40Z</time></trkpt><trkpt lat="43.9707262257462" lon="4.675808642950905"><ele>161.0</ele><time>2026-04-09T15:18:41Z</time></trkpt><trkpt lat="43.97083364563438" lon="4.67592132410871"><ele>161.0</ele><time>2026-04-09T15:18:42Z</time></trkpt><trkpt lat="43.970944277293285" lon="4.67602212842739"><ele>161.0</ele><time>2026-04-09T15:18:43Z</time></trkpt><trkpt lat="43.97103881440881" lon="4.67613638096147"><ele>161.25</ele><time>2026-04-09T15:18:44Z</time></trkpt><trkpt lat="43.971130971496336" lon="4.676250122062689"><ele>161.5</ele><time>2026-04-09T15:18:45Z</time></trkpt><trkpt lat="43.97121835110867" lon="4.676358988608262"><ele>161.75</ele><time>2026-04-09T15:18:46Z</time></trkpt><trkpt lat="43.9713089274565" lon="4.676471996082955"><ele>162.0</ele><time>2026-04-09T15:18:47Z</time></trkpt><trkpt lat="43.971404230390725" lon="4.676598083041659"><ele>162.0</ele><time>2026-04-09T15:18:48Z</time></trkpt><trkpt lat="43.97149222759149" lon="4.67671761880669"><ele>162.0</ele><time>2026-04-09T15:18:49Z</time></trkpt><trkpt lat="43.971577650728854" lon="4.676834151911631"><ele>162.0</ele><time>2026-04-09T15:18:50Z</time></trkpt><trkpt lat="43.97166052290966" lon="4.67694377921381"><ele>162.0</ele><time>2026-04-09T15:18:51Z</time></trkpt><trkpt lat="43.97174218445969" lon="4.677048751147262"><ele>162.2</ele><time>2026-04-09T15:18:52Z</time></trkpt><trkpt lat="43.97181992484393" lon="4.677150323919459"><ele>162.39999999999998</ele><time>2026-04-09T15:18:53Z</time></trkpt><trkpt lat="43.97189575551699" lon="4.67724959696466"><ele>162.60000000000002</ele><time>2026-04-09T15:18:54Z</time></trkpt><trkpt lat="43.971961660471734" lon="4.677331831811755"><ele>162.8</ele><time>2026-04-09T15:18:55Z</time></trkpt><trkpt lat="43.97201506209751" lon="4.677408692772055"><ele>163.0</ele><time>2026-04-09T15:18:56Z</time></trkpt><trkpt lat="43.97207521814026" lon="4.677478304827532"><ele>163.0</ele><time>2026-04-09T15:18:57Z</time></trkpt><trkpt lat="43.97214073662129" lon="4.67754319703596"><ele>163.0</ele><time>2026-04-09T15:18:58Z</time></trkpt><trkpt lat="43.97220758303505" lon="4.6776040985960226"><ele>163.0</ele><time>2026-04-09T15:18:59Z</time></trkpt><trkpt lat="43.97227533376321" lon="4.677663151608968"><ele>163.0</ele><time>2026-04-09T15:19:00Z</time></trkpt><trkpt lat="43.97234783324243" lon="4.6777246162546415"><ele>163.0</ele><time>2026-04-09T15:19:01Z</time></trkpt><trkpt lat="43.97242577656675" lon="4.6777888201880184"><ele>163.0</ele><time>2026-04-09T15:19:02Z</time></trkpt><trkpt lat="43.972503717687886" lon="4.677852253593833"><ele>162.0</ele><time>2026-04-09T15:19:03Z</time></trkpt><trkpt lat="43.97258202121566" lon="4.677915941301325"><ele>161.0</ele><time>2026-04-09T15:19:04Z</time></trkpt><trkpt lat="43.97266079098738" lon="4.677979774767009"><ele>160.0</ele><time>2026-04-09T15:19:05Z</time></trkpt><trkpt lat="43.97272785260766" lon="4.6780360634361955"><ele>159.0</ele><time>2026-04-09T15:19:06Z</time></trkpt><trkpt lat="43.972786007634035" lon="4.678085259280976"><ele>158.0</ele><time>2026-04-09T15:19:07Z</time></trkpt><trkpt lat="43.972844162013374" lon="4.6781348207420566"><ele>157.0</ele><time>2026-04-09T15:19:08Z</time></trkpt><trkpt lat="43.972903880091415" lon="4.678178282309078"><ele>157.0</ele><time>2026-04-09T15:19:09Z</time></trkpt><trkpt lat="43.97304252857175" lon="4.678194132831106"><ele>157.0</ele><time>2026-04-09T15:19:11Z</time></trkpt><trkpt lat="43.97311685185322" lon="4.678142649323132"><ele>157.0</ele><time>2026-04-09T15:19:13Z</time></trkpt><trkpt lat="43.97319963154747" lon="4.678196467279769"><ele>157.0</ele><time>2026-04-09T15:19:15Z</time></trkpt><trkpt lat="43.97327830946149" lon="4.678229966104456"><ele>157.0</ele><time>2026-04-09T15:19:17Z</time></trkpt><trkpt lat="43.973388317210706" lon="4.678278620905711"><ele>157.33333333333334</ele><time>2026-04-09T15:19:19Z</time></trkpt><trkpt lat="43.973452804885234" lon="4.678310142497566"><ele>157.66666666666669</ele><time>2026-04-09T15:19:20Z</time></trkpt><trkpt lat="43.973529759761156" lon="4.678347030659833"><ele>158.0</ele><time>2026-04-09T15:19:21Z</time></trkpt><trkpt lat="43.97361041936499" lon="4.678382533933448"><ele>158.33333333333334</ele><time>2026-04-09T15:19:22Z</time></trkpt><trkpt lat="43.97369769655803" lon="4.678424069118522"><ele>158.66666666666666</ele><time>2026-04-09T15:19:23Z</time></trkpt><trkpt lat="43.973785282789855" lon="4.678468362246574"><ele>159.0</ele><time>2026-04-09T15:19:24Z</time></trkpt><trkpt lat="43.97386977033929" lon="4.678516228452362"><ele>159.0</ele><time>2026-04-09T15:19:25Z</time></trkpt><trkpt lat="43.973961362576574" lon="4.678567279004727"><ele>159.0</ele><time>2026-04-09T15:19:26Z</time></trkpt><trkpt lat="43.974053780285956" lon="4.678622002310903"><ele>159.0</ele><time>2026-04-09T15:19:27Z</time></trkpt><trkpt lat="43.97413892489957" lon="4.678675015775468"><ele>159.0</ele><time>2026-04-09T15:19:28Z</time></trkpt><trkpt lat="43.97421076730891" lon="4.67872256468312"><ele>159.0</ele><time>2026-04-09T15:19:29Z</time></trkpt><trkpt lat="43.97430142298698" lon="4.678788184473661"><ele>158.0</ele><time>2026-04-09T15:19:31Z</time></trkpt><trkpt lat="43.974371701515565" lon="4.678879925644514"><ele>157.0</ele><time>2026-04-09T15:19:33Z</time></trkpt><trkpt lat="43.974498141939854" lon="4.6789596424003905"><ele>156.0</ele><time>2026-04-09T15:19:35Z</time></trkpt><trkpt lat="43.97457739974077" lon="4.679025829779828"><ele>155.0</ele><time>2026-04-09T15:19:36Z</time></trkpt><trkpt lat="43.9746662682888" lon="4.6791108635817915"><ele>154.0</ele><time>2026-04-09T15:19:37Z</time></trkpt><trkpt lat="43.9747509887749" lon="4.67919429625151"><ele>154.0</ele><time>2026-04-09T15:19:38Z</time></trkpt><trkpt lat="43.97483544312132" lon="4.679281500797757"><ele>154.0</ele><time>2026-04-09T15:19:39Z</time></trkpt><trkpt lat="43.97491576489994" lon="4.679370810183855"><ele>154.0</ele><time>2026-04-09T15:19:40Z</time></trkpt><trkpt lat="43.974994164482574" lon="4.679460761185243"><ele>154.0</ele><time>2026-04-09T15:19:41Z</time></trkpt><trkpt lat="43.97507216271042" lon="4.679552604094975"><ele>154.0</ele><time>2026-04-09T15:19:42Z</time></trkpt><trkpt lat="43.97514866953589" lon="4.679646774710018"><ele>153.4</ele><time>2026-04-09T15:19:43Z</time></trkpt><trkpt lat="43.97522169990067" lon="4.679742530731996"><ele>152.8</ele><time>2026-04-09T15:19:44Z</time></trkpt><trkpt lat="43.97528660543455" lon="4.679846970329213"><ele>152.2</ele><time>2026-04-09T15:19:45Z</time></trkpt><trkpt lat="43.97534620088748" lon="4.679958401868731"><ele>151.6</ele><time>2026-04-09T15:19:46Z</time></trkpt><trkpt lat="43.9754016547549" lon="4.680069385961002"><ele>151.0</ele><time>2026-04-09T15:19:47Z</time></trkpt><trkpt lat="43.9754579705183" lon="4.680181701162009"><ele>150.8</ele><time>2026-04-09T15:19:48Z</time></trkpt><trkpt lat="43.975521764305796" lon="4.680283449382723"><ele>150.6</ele><time>2026-04-09T15:19:49Z</time></trkpt><trkpt lat="43.975591784070346" lon="4.680372682140178"><ele>150.4</ele><time>2026-04-09T15:19:50Z</time></trkpt><trkpt lat="43.97566830826516" lon="4.680449565105092"><ele>150.2</ele><time>2026-04-09T15:19:51Z</time></trkpt><trkpt lat="43.975749488422395" lon="4.680522618542901"><ele>150.0</ele><time>2026-04-09T15:19:52Z</time></trkpt><trkpt lat="43.97583153218953" lon="4.68058299531648"><ele>150.0</ele><time>2026-04-09T15:19:53Z</time></trkpt><trkpt lat="43.97590471730446" lon="4.6806308614007595"><ele>150.0</ele><time>2026-04-09T15:19:54Z</time></trkpt><trkpt lat="43.975974973823966" lon="4.680669471825386"><ele>150.0</ele><time>2026-04-09T15:19:55Z</time></trkpt><trkpt lat="43.97604837143061" lon="4.680711761860467"><ele>150.0</ele><time>2026-04-09T15:19:56Z</time></trkpt><trkpt lat="43.97611774945872" lon="4.6807642007038"><ele>150.0</ele><time>2026-04-09T15:19:57Z</time></trkpt><trkpt lat="43.9761885484166" lon="4.680825105047985"><ele>150.0</ele><time>2026-04-09T15:19:58Z</time></trkpt><trkpt lat="43.97626542292653" lon="4.680888404962772"><ele>150.0</ele><time>2026-04-09T15:19:59Z</time></trkpt><trkpt lat="43.97635247528893" lon="4.680964494686799"><ele>150.0</ele><time>2026-04-09T15:20:00Z</time></trkpt><trkpt lat="43.976432245794065" lon="4.681064497194778"><ele>150.0</ele><time>2026-04-09T15:20:01Z</time></trkpt><trkpt lat="43.97650425919323" lon="4.681172948789113"><ele>150.0</ele><time>2026-04-09T15:20:02Z</time></trkpt><trkpt lat="43.97657120499246" lon="4.681285106915169"><ele>150.0</ele><time>2026-04-09T15:20:03Z</time></trkpt><trkpt lat="43.9766341523268" lon="4.681400898487805"><ele>149.33333333333334</ele><time>2026-04-09T15:20:04Z</time></trkpt><trkpt lat="43.976693615676524" lon="4.681520243450671"><ele>148.66666666666666</ele><time>2026-04-09T15:20:05Z</time></trkpt><trkpt lat="43.97675649768628" lon="4.681629754031206"><ele>148.0</ele><time>2026-04-09T15:20:06Z</time></trkpt><trkpt lat="43.97680037735089" lon="4.681718582375012"><ele>147.33333333333331</ele><time>2026-04-09T15:20:07Z</time></trkpt><trkpt lat="43.97684118196056" lon="4.681813549184124"><ele>146.66666666666666</ele><time>2026-04-09T15:20:09Z</time></trkpt><trkpt lat="43.976877987991685" lon="4.68189699754806"><ele>146.0</ele><time>2026-04-09T15:20:11Z</time></trkpt><trkpt lat="43.976956959297006" lon="4.682019905120506"><ele>146.0</ele><time>2026-04-09T15:20:13Z</time></trkpt><trkpt lat="43.97701727883551" lon="4.682098585372665"><ele>146.0</ele><time>2026-04-09T15:20:14Z</time></trkpt><trkpt lat="43.97707561443446" lon="4.682185291771158"><ele>146.0</ele><time>2026-04-09T15:20:15Z</time></trkpt><trkpt lat="43.977140098430795" lon="4.682285654514842"><ele>146.0</ele><time>2026-04-09T15:20:16Z</time></trkpt><trkpt lat="43.97720926118623" lon="4.682386278500548"><ele>146.0</ele><time>2026-04-09T15:20:17Z</time></trkpt><trkpt lat="43.97727782266882" lon="4.682486667959591"><ele>146.0</ele><time>2026-04-09T15:20:18Z</time></trkpt><trkpt lat="43.97734698324784" lon="4.682584853981196"><ele>146.0</ele><time>2026-04-09T15:20:19Z</time></trkpt><trkpt lat="43.9774151543041" lon="4.682682424239945"><ele>146.0</ele><time>2026-04-09T15:20:20Z</time></trkpt><trkpt lat="43.97748519067191" lon="4.682779104652599"><ele>146.0</ele><time>2026-04-09T15:20:21Z</time></trkpt><trkpt lat="43.977556963308125" lon="4.6828743721345205"><ele>146.0</ele><time>2026-04-09T15:20:22Z</time></trkpt><trkpt lat="43.9776266292398" lon="4.682970561407587"><ele>145.83333333333331</ele><time>2026-04-09T15:20:23Z</time></trkpt><trkpt lat="43.97769557801663" lon="4.683066783403791"><ele>145.66666666666666</ele><time>2026-04-09T15:20:24Z</time></trkpt><trkpt lat="43.97775756720534" lon="4.683165399130467"><ele>145.5</ele><time>2026-04-09T15:20:25Z</time></trkpt><trkpt lat="43.97781085254829" lon="4.683260571389325"><ele>145.33333333333334</ele><time>2026-04-09T15:20:26Z</time></trkpt><trkpt lat="43.97785644666242" lon="4.683344710501009"><ele>145.16666666666669</ele><time>2026-04-09T15:20:27Z</time></trkpt><trkpt lat="43.97789737994152" lon="4.683417925811209"><ele>145.0</ele><time>2026-04-09T15:20:28Z</time></trkpt><trkpt lat="43.9779406888213" lon="4.6834995167051074"><ele>145.0</ele><time>2026-04-09T15:20:30Z</time></trkpt><trkpt lat="43.977979685757674" lon="4.683569457410772"><ele>145.0</ele><time>2026-04-09T15:20:35Z</time></trkpt><trkpt lat="43.97802720716778" lon="4.683655111305507"><ele>145.0</ele><time>2026-04-09T15:20:37Z</time></trkpt><trkpt lat="43.978083672253796" lon="4.683767550503547"><ele>145.0</ele><time>2026-04-09T15:20:39Z</time></trkpt><trkpt lat="43.97815386270774" lon="4.683881300906307"><ele>145.0</ele><time>2026-04-09T15:20:41Z</time></trkpt><trkpt lat="43.97820801099685" lon="4.684017211906713"><ele>144.83333333333334</ele><time>2026-04-09T15:20:43Z</time></trkpt><trkpt lat="43.97827525894723" lon="4.684150183635671"><ele>144.66666666666669</ele><time>2026-04-09T15:20:45Z</time></trkpt><trkpt lat="43.97834963937033" lon="4.684291155646926"><ele>144.5</ele><time>2026-04-09T15:20:47Z</time></trkpt><trkpt lat="43.9783870966173" lon="4.684365383375739"><ele>144.33333333333334</ele><time>2026-04-09T15:20:48Z</time></trkpt><trkpt lat="43.97842380907646" lon="4.684438257613095"><ele>144.16666666666666</ele><time>2026-04-09T15:20:49Z</time></trkpt><trkpt lat="43.978463339076015" lon="4.684511307410004"><ele>144.0</ele><time>2026-04-09T15:20:50Z</time></trkpt><trkpt lat="43.97850536115316" lon="4.684581370964854"><ele>143.5</ele><time>2026-04-09T15:20:51Z</time></trkpt><trkpt lat="43.978553600728894" lon="4.684642154207903"><ele>143.0</ele><time>2026-04-09T15:20:52Z</time></trkpt><trkpt lat="43.978606694172136" lon="4.684698354571058"><ele>142.5</ele><time>2026-04-09T15:20:53Z</time></trkpt><trkpt lat="43.978658449772205" lon="4.684755566673505"><ele>142.0</ele><time>2026-04-09T15:20:54Z</time></trkpt><trkpt lat="43.9787560646552" lon="4.6848716710472935"><ele>141.5</ele><time>2026-04-09T15:20:56Z</time></trkpt><trkpt lat="43.97880466498559" lon="4.684931641333399"><ele>141.0</ele><time>2026-04-09T15:20:57Z</time></trkpt><trkpt lat="43.97885414085284" lon="4.68499510503932"><ele>141.0</ele><time>2026-04-09T15:20:58Z</time></trkpt><trkpt lat="43.97894178834802" lon="4.6851155708313375"><ele>141.0</ele><time>2026-04-09T15:21:00Z</time></trkpt><trkpt lat="43.97901064054729" lon="4.685233606325667"><ele>141.0</ele><time>2026-04-09T15:21:02Z</time></trkpt><trkpt lat="43.979065202585254" lon="4.6853499397154605"><ele>141.0</ele><time>2026-04-09T15:21:04Z</time></trkpt><trkpt lat="43.97910346130514" lon="4.685468805419212"><ele>141.0</ele><time>2026-04-09T15:21:06Z</time></trkpt><trkpt lat="43.97915401009421" lon="4.685563307448398"><ele>140.0</ele><time>2026-04-09T15:21:08Z</time></trkpt><trkpt lat="43.97924576978342" lon="4.685591802950092"><ele>139.0</ele><time>2026-04-09T15:21:10Z</time></trkpt><trkpt lat="43.9793498493939" lon="4.685598652298619"><ele>138.0</ele><time>2026-04-09T15:21:12Z</time></trkpt><trkpt lat="43.979446494184984" lon="4.6856468807018254"><ele>137.0</ele><time>2026-04-09T15:21:14Z</time></trkpt><trkpt lat="43.97954634448845" lon="4.685718919399977"><ele>136.0</ele><time>2026-04-09T15:21:16Z</time></trkpt><trkpt lat="43.979654061840954" lon="4.68581612864102"><ele>135.99999999999997</ele><time>2026-04-09T15:21:18Z</time></trkpt><trkpt lat="43.97970924192211" lon="4.68587069652249"><ele>136.0</ele><time>2026-04-09T15:21:19Z</time></trkpt><trkpt lat="43.97975868484187" lon="4.685936100938102"><ele>136.0</ele><time>2026-04-09T15:21:20Z</time></trkpt><trkpt lat="43.97980006260449" lon="4.686006928137215"><ele>136.0</ele><time>2026-04-09T15:21:21Z</time></trkpt><trkpt lat="43.97984111767337" lon="4.686084393816296"><ele>136.0</ele><time>2026-04-09T15:21:22Z</time></trkpt><trkpt lat="43.97988647906293" lon="4.686164133858549"><ele>135.99999999999997</ele><time>2026-04-09T15:21:23Z</time></trkpt><trkpt lat="43.97993299837388" lon="4.686245228590573"><ele>136.0</ele><time>2026-04-09T15:21:24Z</time></trkpt><trkpt lat="43.9799790307524" lon="4.6863295715226805"><ele>135.83333333333334</ele><time>2026-04-09T15:21:25Z</time></trkpt><trkpt lat="43.980026857224125" lon="4.686415331521091"><ele>135.66666666666669</ele><time>2026-04-09T15:21:26Z</time></trkpt><trkpt lat="43.980079944328025" lon="4.686507343276362"><ele>135.5</ele><time>2026-04-09T15:21:27Z</time></trkpt><trkpt lat="43.980133707115584" lon="4.686603974876222"><ele>135.33333333333334</ele><time>2026-04-09T15:21:28Z</time></trkpt><trkpt lat="43.98018758656933" lon="4.6866991572094285"><ele>135.16666666666666</ele><time>2026-04-09T15:21:29Z</time></trkpt><trkpt lat="43.98024352668729" lon="4.686800966890007"><ele>135.0</ele><time>2026-04-09T15:21:30Z</time></trkpt><trkpt lat="43.98029896829834" lon="4.686909497783399"><ele>135.0</ele><time>2026-04-09T15:21:31Z</time></trkpt><trkpt lat="43.980356103984334" lon="4.687025978657852"><ele>135.0</ele><time>2026-04-09T15:21:32Z</time></trkpt><trkpt lat="43.98040775563873" lon="4.687142002235641"><ele>135.0</ele><time>2026-04-09T15:21:33Z</time></trkpt><trkpt lat="43.9804599274444" lon="4.687263871560611"><ele>135.0</ele><time>2026-04-09T15:21:34Z</time></trkpt><trkpt lat="43.980509683865556" lon="4.687381935122934"><ele>135.0</ele><time>2026-04-09T15:21:35Z</time></trkpt><trkpt lat="43.98055618410052" lon="4.687499361755573"><ele>135.0</ele><time>2026-04-09T15:21:36Z</time></trkpt><trkpt lat="43.98060356662415" lon="4.687613025537999"><ele>135.0</ele><time>2026-04-09T15:21:37Z</time></trkpt><trkpt lat="43.98064778276885" lon="4.6877245247412045"><ele>135.0</ele><time>2026-04-09T15:21:38Z</time></trkpt><trkpt lat="43.980704863673445" lon="4.6878284993285675"><ele>135.0</ele><time>2026-04-09T15:21:39Z</time></trkpt><trkpt lat="43.98074387995211" lon="4.687938589468533"><ele>135.0</ele><time>2026-04-09T15:21:40Z</time></trkpt><trkpt lat="43.98077278220529" lon="4.688051172813843"><ele>135.0</ele><time>2026-04-09T15:21:41Z</time></trkpt><trkpt lat="43.980805586149486" lon="4.688160676561949"><ele>135.0</ele><time>2026-04-09T15:21:42Z</time></trkpt><trkpt lat="43.98083960605063" lon="4.688267392862602"><ele>135.0</ele><time>2026-04-09T15:21:43Z</time></trkpt><trkpt lat="43.98086920571185" lon="4.688371992911357"><ele>135.0</ele><time>2026-04-09T15:21:44Z</time></trkpt><trkpt lat="43.98090041098483" lon="4.688477674544602"><ele>135.0</ele><time>2026-04-09T15:21:45Z</time></trkpt><trkpt lat="43.98093112702085" lon="4.688578931321635"><ele>135.0</ele><time>2026-04-09T15:21:46Z</time></trkpt><trkpt lat="43.98096426826662" lon="4.688677035890683"><ele>135.0</ele><time>2026-04-09T15:21:47Z</time></trkpt><trkpt lat="43.9809963559712" lon="4.6887742116835245"><ele>135.0</ele><time>2026-04-09T15:21:48Z</time></trkpt><trkpt lat="43.9810307640385" lon="4.688872514966004"><ele>135.0</ele><time>2026-04-09T15:21:49Z</time></trkpt><trkpt lat="43.98106753672846" lon="4.688965300944334"><ele>135.0</ele><time>2026-04-09T15:21:50Z</time></trkpt><trkpt lat="43.981106267354946" lon="4.689054293622983"><ele>135.0</ele><time>2026-04-09T15:21:51Z</time></trkpt><trkpt lat="43.981147681279026" lon="4.689140528167633"><ele>135.0</ele><time>2026-04-09T15:21:52Z</time></trkpt><trkpt lat="43.98118979748548" lon="4.689224291681884"><ele>135.0</ele><time>2026-04-09T15:21:53Z</time></trkpt><trkpt lat="43.98123613729898" lon="4.689304882756454"><ele>135.0</ele><time>2026-04-09T15:21:54Z</time></trkpt><trkpt lat="43.981279690677" lon="4.689377139085517"><ele>135.0</ele><time>2026-04-09T15:21:55Z</time></trkpt><trkpt lat="43.981320139605735" lon="4.689483329518501"><ele>135.0</ele><time>2026-04-09T15:21:57Z</time></trkpt><trkpt lat="43.981264591123285" lon="4.689536978917565"><ele>135.0</ele><time>2026-04-09T15:22:00Z</time></trkpt><trkpt lat="43.981178574993244" lon="4.68954188784053"><ele>135.0</ele><time>2026-04-09T15:22:02Z</time></trkpt><trkpt lat="43.981071331245246" lon="4.689548008233437"><ele>135.0</ele><time>2026-04-09T15:22:04Z</time></trkpt><trkpt lat="43.98100959338014" lon="4.68957432350111"><ele>135.0</ele><time>2026-04-09T15:22:05Z</time></trkpt><trkpt lat="43.98094204747547" lon="4.689569988603056"><ele>135.0</ele><time>2026-04-09T15:22:06Z</time></trkpt><trkpt lat="43.98086232853442" lon="4.6895751585550745"><ele>135.0</ele><time>2026-04-09T15:22:07Z</time></trkpt><trkpt lat="43.98077635611468" lon="4.689581226707482"><ele>135.0</ele><time>2026-04-09T15:22:08Z</time></trkpt><trkpt lat="43.98068522157588" lon="4.689584441359201"><ele>135.0</ele><time>2026-04-09T15:22:09Z</time></trkpt><trkpt lat="43.980588568745134" lon="4.689580420317106"><ele>135.6</ele><time>2026-04-09T15:22:10Z</time></trkpt><trkpt lat="43.98048088866249" lon="4.689585379623833"><ele>136.2</ele><time>2026-04-09T15:22:11Z</time></trkpt><trkpt lat="43.98036611640762" lon="4.68959052981869"><ele>136.8</ele><time>2026-04-09T15:22:12Z</time></trkpt><trkpt lat="43.980253757477506" lon="4.689594303359476"><ele>137.4</ele><time>2026-04-09T15:22:13Z</time></trkpt><trkpt lat="43.980145693761855" lon="4.68959795833036"><ele>138.0</ele><time>2026-04-09T15:22:14Z</time></trkpt><trkpt lat="43.98004383470015" lon="4.68960249374645"><ele>138.33333333333334</ele><time>2026-04-09T15:22:15Z</time></trkpt><trkpt lat="43.979947080377435" lon="4.689606728435783"><ele>138.66666666666666</ele><time>2026-04-09T15:22:16Z</time></trkpt><trkpt lat="43.97985673665793" lon="4.689609395243699"><ele>139.0</ele><time>2026-04-09T15:22:17Z</time></trkpt><trkpt lat="43.979771427010064" lon="4.689610976801378"><ele>139.33333333333331</ele><time>2026-04-09T15:22:18Z</time></trkpt><trkpt lat="43.97969338206119" lon="4.6896102774184465"><ele>139.66666666666666</ele><time>2026-04-09T15:22:19Z</time></trkpt><trkpt lat="43.97962535385394" lon="4.689607401711925"><ele>140.0</ele><time>2026-04-09T15:22:20Z</time></trkpt><trkpt lat="43.97950397326816" lon="4.689590967109688"><ele>140.0</ele><time>2026-04-09T15:22:22Z</time></trkpt><trkpt lat="43.97950271519289" lon="4.689773747462475"><ele>140.0</ele><time>2026-04-09T15:22:23Z</time></trkpt><trkpt lat="43.97950888188639" lon="4.689863249627078"><ele>140.0</ele><time>2026-04-09T15:22:24Z</time></trkpt><trkpt lat="43.97951078804467" lon="4.6899546411260955"><ele>140.0</ele><time>2026-04-09T15:22:25Z</time></trkpt><trkpt lat="43.979504152930524" lon="4.69005500664689"><ele>140.0</ele><time>2026-04-09T15:22:26Z</time></trkpt><trkpt lat="43.97950906769871" lon="4.690166089892292"><ele>140.0</ele><time>2026-04-09T15:22:27Z</time></trkpt><trkpt lat="43.979534696851985" lon="4.690283292405867"><ele>140.0</ele><time>2026-04-09T15:22:28Z</time></trkpt><trkpt lat="43.97956302902234" lon="4.690408940159606"><ele>140.0</ele><time>2026-04-09T15:22:29Z</time></trkpt><trkpt lat="43.97959148940276" lon="4.690523946183303"><ele>140.0</ele><time>2026-04-09T15:22:30Z</time></trkpt><trkpt lat="43.979617720316995" lon="4.69063434343398"><ele>140.0</ele><time>2026-04-09T15:22:31Z</time></trkpt><trkpt lat="43.979639275965965" lon="4.690743240051246"><ele>140.0</ele><time>2026-04-09T15:22:32Z</time></trkpt><trkpt lat="43.97966534858922" lon="4.690849741873022"><ele>140.0</ele><time>2026-04-09T15:22:33Z</time></trkpt><trkpt lat="43.97969080926117" lon="4.6909514182479635"><ele>140.0</ele><time>2026-04-09T15:22:34Z</time></trkpt><trkpt lat="43.97971577119216" lon="4.691051979013609"><ele>140.0</ele><time>2026-04-09T15:22:35Z</time></trkpt><trkpt lat="43.97973908541948" lon="4.691153630311227"><ele>140.0</ele><time>2026-04-09T15:22:36Z</time></trkpt><trkpt lat="43.97976544243613" lon="4.691251841962678"><ele>140.0</ele><time>2026-04-09T15:22:37Z</time></trkpt><trkpt lat="43.97978967059426" lon="4.691353220337489"><ele>140.0</ele><time>2026-04-09T15:22:38Z</time></trkpt><trkpt lat="43.97979946205137" lon="4.691455163201268"><ele>140.0</ele><time>2026-04-09T15:22:39Z</time></trkpt><trkpt lat="43.979807236351355" lon="4.691558778841633"><ele>140.0</ele><time>2026-04-09T15:22:40Z</time></trkpt><trkpt lat="43.979835373700055" lon="4.69165680140397"><ele>140.0</ele><time>2026-04-09T15:22:41Z</time></trkpt><trkpt lat="43.979880961038035" lon="4.691742393459213"><ele>140.0</ele><time>2026-04-09T15:22:42Z</time></trkpt><trkpt lat="43.97993596983866" lon="4.691809990981256"><ele>140.0</ele><time>2026-04-09T15:22:43Z</time></trkpt><trkpt lat="43.979997047913514" lon="4.691868819783389"><ele>140.0</ele><time>2026-04-09T15:22:44Z</time></trkpt><trkpt lat="43.980061852326806" lon="4.691929208902884"><ele>140.0</ele><time>2026-04-09T15:22:45Z</time></trkpt><trkpt lat="43.980162683523154" lon="4.691998409357229"><ele>139.2</ele><time>2026-04-09T15:22:47Z</time></trkpt><trkpt lat="43.98024613323131" lon="4.691963937153041"><ele>138.4</ele><time>2026-04-09T15:22:49Z</time></trkpt><trkpt lat="43.98032059765543" lon="4.691869005597099"><ele>137.6</ele><time>2026-04-09T15:22:51Z</time></trkpt><trkpt lat="43.98041385609665" lon="4.691894584527138"><ele>136.8</ele><time>2026-04-09T15:22:53Z</time></trkpt><trkpt lat="43.98051200309888" lon="4.691941837781248"><ele>136.0</ele><time>2026-04-09T15:22:55Z</time></trkpt><trkpt lat="43.98059230767133" lon="4.69197808464312"><ele>134.66666666666669</ele><time>2026-04-09T15:22:57Z</time></trkpt><trkpt lat="43.98064518730589" lon="4.692031108175901"><ele>133.33333333333334</ele><time>2026-04-09T15:23:46Z</time></trkpt><trkpt lat="43.98058519546361" lon="4.691999117726419"><ele>132.0</ele><time>2026-04-09T15:23:53Z</time></trkpt><trkpt lat="43.98051681701732" lon="4.691968006523846"><ele>130.66666666666666</ele><time>2026-04-09T15:24:17Z</time></trkpt><trkpt lat="43.98051243072366" lon="4.6921485377390315"><ele>129.33333333333331</ele><time>2026-04-09T15:24:59Z</time></trkpt><trkpt lat="43.98047954743012" lon="4.692266272059648"><ele>128.0</ele><time>2026-04-09T15:28:26Z</time></trkpt><trkpt lat="43.98052875197979" lon="4.692204905647731"><ele>127.99999999999999</ele><time>2026-04-09T15:28:38Z</time></trkpt><trkpt lat="43.98047029422599" lon="4.69215769727361"><ele>128.0</ele><time>2026-04-09T15:32:05Z</time></trkpt><trkpt lat="43.98051232637995" lon="4.692081768426384"><ele>128.0</ele><time>2026-04-09T15:32:14Z</time></trkpt><trkpt lat="43.98052080122782" lon="4.691994254950178"><ele>128.0</ele><time>2026-04-09T15:32:34.025Z</time></trkpt><trkpt lat="43.9805438717831" lon="4.691894776935775"><ele>127.99999999999999</ele><time>2026-04-09T15:32:36.026Z</time></trkpt><trkpt lat="43.98038486372921" lon="4.691880161285631"><ele>128.0</ele><time>2026-04-09T15:32:38Z</time></trkpt><trkpt lat="43.9804726141413" lon="4.691967825729287"><ele>127.99999999999999</ele><time>2026-04-09T15:32:41Z</time></trkpt><trkpt lat="43.98049464792386" lon="4.692050025372474"><ele>128.0</ele><time>2026-04-09T15:32:43Z</time></trkpt><trkpt lat="43.98055745286272" lon="4.692056683346899"><ele>128.0</ele><time>2026-04-09T15:32:53Z</time></trkpt><trkpt lat="43.98049098547327" lon="4.692179628480617"><ele>128.0</ele><time>2026-04-09T15:34:24Z</time></trkpt><trkpt lat="43.98052069696136" lon="4.692091356507249"><ele>127.99999999999999</ele><time>2026-04-09T15:36:47Z</time></trkpt><trkpt lat="43.98049632057353" lon="4.692196820217859"><ele>128.0</ele><time>2026-04-09T15:38:31Z</time></trkpt><trkpt lat="43.980443310194886" lon="4.692113032209027"><ele>128.0</ele><time>2026-04-09T15:39:14Z</time></trkpt><trkpt lat="43.98038195839011" lon="4.692153033192358"><ele>127.99999999999999</ele><time>2026-04-09T15:39:19Z</time></trkpt><trkpt lat="43.98045457571875" lon="4.692147833766279"><ele>128.0</ele><time>2026-04-09T15:40:06Z</time></trkpt><trkpt lat="43.98052303336512" lon="4.6921305130198805"><ele>128.0</ele><time>2026-04-09T15:40:26Z</time></trkpt><trkpt lat="43.980476071693815" lon="4.6921971490062715"><ele>127.99999999999999</ele><time>2026-04-09T15:41:47Z</time></trkpt><trkpt lat="43.9805311229799" lon="4.692126192802685"><ele>128.0</ele><time>2026-04-09T15:43:49Z</time></trkpt><trkpt lat="43.98047172929066" lon="4.692182255761098"><ele>128.0</ele><time>2026-04-09T15:44:17Z</time></trkpt><trkpt lat="43.98053596285048" lon="4.692146240763858"><ele>128.0</ele><time>2026-04-09T15:44:46Z</time></trkpt><trkpt lat="43.98047440845827" lon="4.692188238013545"><ele>127.99999999999999</ele><time>2026-04-09T15:45:45Z</time></trkpt><trkpt lat="43.980402065594795" lon="4.6921408389394275"><ele>128.0</ele><time>2026-04-09T15:48:19Z</time></trkpt><trkpt lat="43.98046011069764" lon="4.692186387627548"><ele>128.0</ele><time>2026-04-09T15:49:08Z</time></trkpt><trkpt lat="43.98039944615868" lon="4.692234825831174"><ele>127.99999999999999</ele><time>2026-04-09T15:49:29Z</time></trkpt><trkpt lat="43.98046211419535" lon="4.692161241696112"><ele>128.0</ele><time>2026-04-09T15:50:21Z</time></trkpt><trkpt lat="43.98053475206486" lon="4.692172264892897"><ele>128.0</ele><time>2026-04-09T15:50:47Z</time></trkpt><trkpt lat="43.9805500880164" lon="4.6920320609531005"><ele>128.0</ele><time>2026-04-09T15:52:51Z</time></trkpt><trkpt lat="43.9805567241204" lon="4.692128579659406"><ele>127.99999999999999</ele><time>2026-04-09T15:53:09Z</time></trkpt><trkpt lat="43.98050874814578" lon="4.692188221033658"><ele>128.0</ele><time>2026-04-09T15:53:14Z</time></trkpt><trkpt lat="43.980433934869254" lon="4.692187086575231"><ele>128.0</ele><time>2026-04-09T15:55:00Z</time></trkpt><trkpt lat="43.980496305798546" lon="4.692199653995123"><ele>127.99999999999999</ele><time>2026-04-09T15:56:19Z</time></trkpt><trkpt lat="43.98053066360581" lon="4.692113860588163"><ele>128.0</ele><time>2026-04-09T15:58:01Z</time></trkpt><trkpt lat="43.98045269410345" lon="4.69213025911436"><ele>128.0</ele><time>2026-04-09T16:04:14Z</time></trkpt><trkpt lat="43.980466059668615" lon="4.692220348257726"><ele>128.0</ele><time>2026-04-09T16:05:32Z</time></trkpt><trkpt lat="43.9805283080728" lon="4.692195978281875"><ele>127.99999999999999</ele><time>2026-04-09T16:05:41Z</time></trkpt><trkpt lat="43.980572930080925" lon="4.692130064898498"><ele>128.0</ele><time>2026-04-09T16:09:12Z</time></trkpt><trkpt lat="43.98062971706075" lon="4.6920528465304265"><ele>128.0</ele><time>2026-04-09T16:09:15Z</time></trkpt><trkpt lat="43.98063511884736" lon="4.691965152836357"><ele>127.99999999999999</ele><time>2026-04-09T16:09:23Z</time></trkpt><trkpt lat="43.98056395403015" lon="4.6919019951695144"><ele>128.0</ele><time>2026-04-09T16:09:26Z</time></trkpt><trkpt lat="43.98047255408365" lon="4.6918869149176015"><ele>128.0</ele><time>2026-04-09T16:09:28Z</time></trkpt><trkpt lat="43.98037461960676" lon="4.69185749457731"><ele>128.0</ele><time>2026-04-09T16:09:30Z</time></trkpt><trkpt lat="43.980296923374425" lon="4.69186986179057"><ele>127.99999999999999</ele><time>2026-04-09T16:09:32Z</time></trkpt><trkpt lat="43.98023497467938" lon="4.691924215413728"><ele>128.0</ele><time>2026-04-09T16:09:34Z</time></trkpt><trkpt lat="43.980173946076214" lon="4.69196688651518"><ele>128.0</ele><time>2026-04-09T16:09:36Z</time></trkpt><trkpt lat="43.98011054351824" lon="4.691945190540795"><ele>127.99999999999999</ele><time>2026-04-09T16:09:38Z</time></trkpt><trkpt lat="43.9800481388551" lon="4.691884163884608"><ele>128.0</ele><time>2026-04-09T16:09:40Z</time></trkpt><trkpt lat="43.97998008785765" lon="4.691818847015898"><ele>128.0</ele><time>2026-04-09T16:09:42Z</time></trkpt><trkpt lat="43.97991846879181" lon="4.691749703296246"><ele>130.0</ele><time>2026-04-09T16:09:44Z</time></trkpt><trkpt lat="43.97987272610344" lon="4.691672494900675"><ele>132.0</ele><time>2026-04-09T16:09:46Z</time></trkpt><trkpt lat="43.97984085209371" lon="4.691578782253763"><ele>134.0</ele><time>2026-04-09T16:09:48Z</time></trkpt><trkpt lat="43.97981114485382" lon="4.691466418499402"><ele>136.0</ele><time>2026-04-09T16:09:50Z</time></trkpt><trkpt lat="43.97978321616763" lon="4.691340557478181"><ele>138.0</ele><time>2026-04-09T16:09:52Z</time></trkpt><trkpt lat="43.979753089351426" lon="4.691213791208554"><ele>140.0</ele><time>2026-04-09T16:09:54Z</time></trkpt><trkpt lat="43.979719990044806" lon="4.691058037359219"><ele>140.0</ele><time>2026-04-09T16:09:56Z</time></trkpt><trkpt lat="43.9796970942179" lon="4.6909444661904445"><ele>140.0</ele><time>2026-04-09T16:09:58Z</time></trkpt><trkpt lat="43.979671056828465" lon="4.69082205094121"><ele>140.0</ele><time>2026-04-09T16:10:01Z</time></trkpt><trkpt lat="43.97963795998946" lon="4.690669565334297"><ele>140.0</ele><time>2026-04-09T16:10:03Z</time></trkpt><trkpt lat="43.979620841160376" lon="4.690502230173268"><ele>140.0</ele><time>2026-04-09T16:10:05Z</time></trkpt><trkpt lat="43.97958576485798" lon="4.6903492204171044"><ele>140.0</ele><time>2026-04-09T16:10:07Z</time></trkpt><trkpt lat="43.979540903921695" lon="4.69021888462195"><ele>140.0</ele><time>2026-04-09T16:10:09Z</time></trkpt><trkpt lat="43.97951934805493" lon="4.690090456797287"><ele>140.0</ele><time>2026-04-09T16:10:11Z</time></trkpt><trkpt lat="43.97952587120724" lon="4.689966135240244"><ele>140.0</ele><time>2026-04-09T16:10:13Z</time></trkpt><trkpt lat="43.97953596101859" lon="4.689841779558262"><ele>140.0</ele><time>2026-04-09T16:10:15Z</time></trkpt><trkpt lat="43.97953974130131" lon="4.689726302132374"><ele>140.0</ele><time>2026-04-09T16:10:17Z</time></trkpt><trkpt lat="43.979554694505346" lon="4.689626496952341"><ele>140.0</ele><time>2026-04-09T16:10:22Z</time></trkpt><trkpt lat="43.97942215246616" lon="4.689582867648962"><ele>140.0</ele><time>2026-04-09T16:10:24Z</time></trkpt><trkpt lat="43.97930340506713" lon="4.689598351619548"><ele>140.0</ele><time>2026-04-09T16:10:26Z</time></trkpt><trkpt lat="43.97923792893989" lon="4.689607023075609"><ele>140.0</ele><time>2026-04-09T16:10:27Z</time></trkpt><trkpt lat="43.97917547530763" lon="4.689590675489029"><ele>139.85714285714286</ele><time>2026-04-09T16:10:28Z</time></trkpt><trkpt lat="43.97911106834048" lon="4.689592320697957"><ele>139.71428571428572</ele><time>2026-04-09T16:10:29Z</time></trkpt><trkpt lat="43.9790396616721" lon="4.689594144707994"><ele>139.57142857142856</ele><time>2026-04-09T16:10:30Z</time></trkpt><trkpt lat="43.97896718402818" lon="4.689617829443813"><ele>139.42857142857144</ele><time>2026-04-09T16:10:31Z</time></trkpt><trkpt lat="43.978896939121135" lon="4.689611022083178"><ele>139.28571428571428</ele><time>2026-04-09T16:10:32Z</time></trkpt><trkpt lat="43.97882125682799" lon="4.68960634718726"><ele>139.14285714285714</ele><time>2026-04-09T16:10:33Z</time></trkpt><trkpt lat="43.97873857842034" lon="4.689595327146796"><ele>139.0</ele><time>2026-04-09T16:10:34Z</time></trkpt><trkpt lat="43.97865501265326" lon="4.689587253185802"><ele>139.0</ele><time>2026-04-09T16:10:35Z</time></trkpt><trkpt lat="43.978575121932245" lon="4.6895878369643285"><ele>139.0</ele><time>2026-04-09T16:10:36Z</time></trkpt><trkpt lat="43.97849759956136" lon="4.689596660887961"><ele>139.0</ele><time>2026-04-09T16:10:37Z</time></trkpt><trkpt lat="43.97841714589942" lon="4.689619338534587"><ele>139.0</ele><time>2026-04-09T16:10:38Z</time></trkpt><trkpt lat="43.97833487010261" lon="4.689650086363135"><ele>139.0</ele><time>2026-04-09T16:10:39Z</time></trkpt><trkpt lat="43.978250362348206" lon="4.689682266313282"><ele>139.0</ele><time>2026-04-09T16:10:40Z</time></trkpt><trkpt lat="43.978169126717" lon="4.68971988551107"><ele>136.0</ele><time>2026-04-09T16:10:41Z</time></trkpt><trkpt lat="43.978093401611744" lon="4.689754440335752"><ele>133.0</ele><time>2026-04-09T16:10:42Z</time></trkpt><trkpt lat="43.97802019292961" lon="4.689783661056721"><ele>130.0</ele><time>2026-04-09T16:10:43Z</time></trkpt><trkpt lat="43.97795376850677" lon="4.689811023201165"><ele>127.0</ele><time>2026-04-09T16:10:44Z</time></trkpt><trkpt lat="43.97783798476758" lon="4.68984106555062"><ele>124.0</ele><time>2026-04-09T16:10:46Z</time></trkpt><trkpt lat="43.97773787995381" lon="4.689789124730958"><ele>124.0</ele><time>2026-04-09T16:10:48Z</time></trkpt><trkpt lat="43.97768647153236" lon="4.689680275197987"><ele>124.0</ele><time>2026-04-09T16:10:50Z</time></trkpt><trkpt lat="43.977636162028254" lon="4.689524368711332"><ele>124.0</ele><time>2026-04-09T16:10:52Z</time></trkpt><trkpt lat="43.977592235692235" lon="4.689423601186452"><ele>124.0</ele><time>2026-04-09T16:10:53Z</time></trkpt><trkpt lat="43.97753935188636" lon="4.689313068796833"><ele>124.0</ele><time>2026-04-09T16:10:54Z</time></trkpt><trkpt lat="43.97749511345961" lon="4.689211347074244"><ele>122.2</ele><time>2026-04-09T16:10:55Z</time></trkpt><trkpt lat="43.977451511167516" lon="4.689140452854021"><ele>120.4</ele><time>2026-04-09T16:10:56Z</time></trkpt><trkpt lat="43.97734604686623" lon="4.689065181261182"><ele>118.6</ele><time>2026-04-09T16:10:58Z</time></trkpt><trkpt lat="43.97726518716584" lon="4.689126620573948"><ele>116.8</ele><time>2026-04-09T16:10:59Z</time></trkpt><trkpt lat="43.977185445323414" lon="4.689179652533802"><ele>115.0</ele><time>2026-04-09T16:11:00Z</time></trkpt><trkpt lat="43.9771051515987" lon="4.689229808595592"><ele>115.00000000000001</ele><time>2026-04-09T16:11:01Z</time></trkpt><trkpt lat="43.977023974590125" lon="4.689276629894037"><ele>115.0</ele><time>2026-04-09T16:11:02Z</time></trkpt><trkpt lat="43.976938970572185" lon="4.689309893221235"><ele>115.0</ele><time>2026-04-09T16:11:03Z</time></trkpt><trkpt lat="43.97684919353996" lon="4.689326672697738"><ele>115.0</ele><time>2026-04-09T16:11:04Z</time></trkpt><trkpt lat="43.976761832792185" lon="4.689310193104671"><ele>115.00000000000001</ele><time>2026-04-09T16:11:05Z</time></trkpt><trkpt lat="43.976677005715786" lon="4.689310985352263"><ele>115.0</ele><time>2026-04-09T16:11:06Z</time></trkpt><trkpt lat="43.976593073346464" lon="4.689333639534288"><ele>114.28571428571426</ele><time>2026-04-09T16:11:07Z</time></trkpt><trkpt lat="43.976511833698765" lon="4.6893214868410915"><ele>113.57142857142857</ele><time>2026-04-09T16:11:08Z</time></trkpt><trkpt lat="43.97643587653074" lon="4.689296486731701"><ele>112.85714285714285</ele><time>2026-04-09T16:11:09Z</time></trkpt><trkpt lat="43.976358482340125" lon="4.689284678796415"><ele>112.14285714285714</ele><time>2026-04-09T16:11:10Z</time></trkpt><trkpt lat="43.97628616090518" lon="4.689269410075647"><ele>111.42857142857142</ele><time>2026-04-09T16:11:11Z</time></trkpt><trkpt lat="43.97621561524137" lon="4.689254019676341"><ele>110.71428571428571</ele><time>2026-04-09T16:11:12Z</time></trkpt><trkpt lat="43.97614950697105" lon="4.689241370557014"><ele>110.0</ele><time>2026-04-09T16:11:13Z</time></trkpt><trkpt lat="43.97608590583331" lon="4.689227220485688"><ele>109.99999999999999</ele><time>2026-04-09T16:11:14Z</time></trkpt><trkpt lat="43.97600482056958" lon="4.689214224762426"><ele>110.0</ele><time>2026-04-09T16:11:16Z</time></trkpt><trkpt lat="43.975925588533265" lon="4.6891919580838675"><ele>110.0</ele><time>2026-04-09T16:11:49Z</time></trkpt><trkpt lat="43.975860740201185" lon="4.689214777699097"><ele>110.0</ele><time>2026-04-09T16:11:51Z</time></trkpt><trkpt lat="43.97579391318386" lon="4.68934356233191"><ele>109.99999999999999</ele><time>2026-04-09T16:11:54Z</time></trkpt><trkpt lat="43.9758080443824" lon="4.689442728563226"><ele>110.0</ele><time>2026-04-09T16:11:55Z</time></trkpt><trkpt lat="43.97581180852732" lon="4.6895439585466745"><ele>108.66666666666666</ele><time>2026-04-09T16:11:56Z</time></trkpt><trkpt lat="43.975809755593644" lon="4.6896415347229485"><ele>107.33333333333333</ele><time>2026-04-09T16:11:57Z</time></trkpt><trkpt lat="43.975790979661284" lon="4.689740278226215"><ele>106.0</ele><time>2026-04-09T16:11:58Z</time></trkpt><trkpt lat="43.9757663409754" lon="4.6898422293130615"><ele>104.66666666666666</ele><time>2026-04-09T16:11:59Z</time></trkpt><trkpt lat="43.9757361930619" lon="4.689960565920041"><ele>103.33333333333333</ele><time>2026-04-09T16:12:00Z</time></trkpt><trkpt lat="43.97570635283698" lon="4.690084824783398"><ele>102.0</ele><time>2026-04-09T16:12:01Z</time></trkpt><trkpt lat="43.97567258994915" lon="4.690215563368714"><ele>101.39999999999999</ele><time>2026-04-09T16:12:02Z</time></trkpt><trkpt lat="43.97563667816662" lon="4.690347135026084"><ele>100.8</ele><time>2026-04-09T16:12:03Z</time></trkpt><trkpt lat="43.97560276159561" lon="4.69047507917948"><ele>100.2</ele><time>2026-04-09T16:12:04Z</time></trkpt><trkpt lat="43.97557037064079" lon="4.6906063552370165"><ele>99.6</ele><time>2026-04-09T16:12:05Z</time></trkpt><trkpt lat="43.97553926363133" lon="4.690737662517487"><ele>99.0</ele><time>2026-04-09T16:12:06Z</time></trkpt><trkpt lat="43.975507866133924" lon="4.690868560708733"><ele>99.0</ele><time>2026-04-09T16:12:07Z</time></trkpt><trkpt lat="43.97547557284632" lon="4.690998822873112"><ele>99.0</ele><time>2026-04-09T16:12:08Z</time></trkpt><trkpt lat="43.97544289755538" lon="4.69112833035741"><ele>99.0</ele><time>2026-04-09T16:12:09Z</time></trkpt><trkpt lat="43.97540602640197" lon="4.691253494119784"><ele>99.0</ele><time>2026-04-09T16:12:10Z</time></trkpt><trkpt lat="43.97534690206003" lon="4.6913631720566515"><ele>99.0</ele><time>2026-04-09T16:12:11Z</time></trkpt><trkpt lat="43.97528983203655" lon="4.69147347341795"><ele>98.2</ele><time>2026-04-09T16:12:12Z</time></trkpt><trkpt lat="43.97523289623776" lon="4.691585372644051"><ele>97.4</ele><time>2026-04-09T16:12:13Z</time></trkpt><trkpt lat="43.97517553497492" lon="4.691693219497429"><ele>96.6</ele><time>2026-04-09T16:12:14Z</time></trkpt><trkpt lat="43.975121118093206" lon="4.691799415417797"><ele>95.8</ele><time>2026-04-09T16:12:15Z</time></trkpt><trkpt lat="43.97506981811276" lon="4.691902722211694"><ele>95.0</ele><time>2026-04-09T16:12:16Z</time></trkpt><trkpt lat="43.97502390855556" lon="4.69200714885837"><ele>94.33333333333334</ele><time>2026-04-09T16:12:17Z</time></trkpt><trkpt lat="43.974999323517125" lon="4.692124015983241"><ele>93.66666666666667</ele><time>2026-04-09T16:12:18Z</time></trkpt><trkpt lat="43.97497483217353" lon="4.692235262486867"><ele>93.0</ele><time>2026-04-09T16:12:19Z</time></trkpt><trkpt lat="43.97492768612705" lon="4.692325510925699"><ele>92.33333333333333</ele><time>2026-04-09T16:12:20Z</time></trkpt><trkpt lat="43.97486842416041" lon="4.69241476898093"><ele>91.66666666666666</ele><time>2026-04-09T16:12:21Z</time></trkpt><trkpt lat="43.97481527441962" lon="4.692514795236626"><ele>91.0</ele><time>2026-04-09T16:12:22Z</time></trkpt><trkpt lat="43.97477393575963" lon="4.692622064076707"><ele>91.0</ele><time>2026-04-09T16:12:23Z</time></trkpt><trkpt lat="43.97473023272081" lon="4.692725638906143"><ele>91.0</ele><time>2026-04-09T16:12:24Z</time></trkpt><trkpt lat="43.974684789070615" lon="4.692835479087232"><ele>91.0</ele><time>2026-04-09T16:12:25Z</time></trkpt><trkpt lat="43.974636071885826" lon="4.692956823460985"><ele>91.0</ele><time>2026-04-09T16:12:26Z</time></trkpt><trkpt lat="43.97458106579317" lon="4.693087434550501"><ele>91.0</ele><time>2026-04-09T16:12:27Z</time></trkpt><trkpt lat="43.974527705187626" lon="4.693221689464516"><ele>90.5</ele><time>2026-04-09T16:12:28Z</time></trkpt><trkpt lat="43.97447286318138" lon="4.693360732765764"><ele>90.0</ele><time>2026-04-09T16:12:29Z</time></trkpt><trkpt lat="43.974415264430206" lon="4.6935054708585175"><ele>89.5</ele><time>2026-04-09T16:12:30Z</time></trkpt><trkpt lat="43.97435345836113" lon="4.693655759555578"><ele>89.0</ele><time>2026-04-09T16:12:31Z</time></trkpt><trkpt lat="43.97430102326674" lon="4.693814120032301"><ele>88.25</ele><time>2026-04-09T16:12:32Z</time></trkpt><trkpt lat="43.974255604226286" lon="4.693980565243886"><ele>87.5</ele><time>2026-04-09T16:12:33Z</time></trkpt><trkpt lat="43.97421872899323" lon="4.6941555624928135"><ele>86.75</ele><time>2026-04-09T16:12:34Z</time></trkpt><trkpt lat="43.97418943503677" lon="4.694329212060481"><ele>86.0</ele><time>2026-04-09T16:12:35Z</time></trkpt><trkpt lat="43.97415754266772" lon="4.694503334777926"><ele>84.75</ele><time>2026-04-09T16:12:36Z</time></trkpt><trkpt lat="43.97412825448764" lon="4.694675892084579"><ele>83.5</ele><time>2026-04-09T16:12:37Z</time></trkpt><trkpt lat="43.97410153055734" lon="4.694852790692322"><ele>82.25</ele><time>2026-04-09T16:12:38Z</time></trkpt><trkpt lat="43.97407545192011" lon="4.6950327164059065"><ele>81.0</ele><time>2026-04-09T16:12:39Z</time></trkpt><trkpt lat="43.974052094157756" lon="4.695212774251483"><ele>80.25</ele><time>2026-04-09T16:12:40Z</time></trkpt><trkpt lat="43.97402683566823" lon="4.695395385525532"><ele>79.5</ele><time>2026-04-09T16:12:41Z</time></trkpt><trkpt lat="43.97400008279226" lon="4.695580379852562"><ele>78.75</ele><time>2026-04-09T16:12:42Z</time></trkpt><trkpt lat="43.973972838087285" lon="4.695767453516503"><ele>78.0</ele><time>2026-04-09T16:12:43Z</time></trkpt><trkpt lat="43.97394782940231" lon="4.695957904794697"><ele>77.25</ele><time>2026-04-09T16:12:44Z</time></trkpt><trkpt lat="43.9739232805042" lon="4.696149514328685"><ele>76.5</ele><time>2026-04-09T16:12:45Z</time></trkpt><trkpt lat="43.97389242144462" lon="4.6963425811984765"><ele>75.75</ele><time>2026-04-09T16:12:46Z</time></trkpt><trkpt lat="43.973857350122856" lon="4.696533480338077"><ele>75.0</ele><time>2026-04-09T16:12:47Z</time></trkpt><trkpt lat="43.97381954684383" lon="4.696723668254509"><ele>75.0</ele><time>2026-04-09T16:12:48Z</time></trkpt><trkpt lat="43.9737801728969" lon="4.696908893462742"><ele>75.0</ele><time>2026-04-09T16:12:49Z</time></trkpt><trkpt lat="43.97373942649583" lon="4.697085845682923"><ele>75.0</ele><time>2026-04-09T16:12:50Z</time></trkpt><trkpt lat="43.97369217401482" lon="4.697252034216807"><ele>75.0</ele><time>2026-04-09T16:12:51Z</time></trkpt><trkpt lat="43.973626188119454" lon="4.697400692041333"><ele>75.0</ele><time>2026-04-09T16:12:52Z</time></trkpt><trkpt lat="43.97353453633538" lon="4.697543417265457"><ele>75.0</ele><time>2026-04-09T16:12:53Z</time></trkpt><trkpt lat="43.97341065528972" lon="4.697672672700289"><ele>75.0</ele><time>2026-04-09T16:12:54Z</time></trkpt><trkpt lat="43.97324796349626" lon="4.69776438300928"><ele>75.0</ele><time>2026-04-09T16:12:55Z</time></trkpt><trkpt lat="43.973061902197955" lon="4.697815169679769"><ele>75.0</ele><time>2026-04-09T16:12:56Z</time></trkpt><trkpt lat="43.97288052086464" lon="4.697862980970174"><ele>75.0</ele><time>2026-04-09T16:12:57Z</time></trkpt><trkpt lat="43.972711677334125" lon="4.697948449120933"><ele>75.0</ele><time>2026-04-09T16:12:58Z</time></trkpt><trkpt lat="43.97256682655453" lon="4.698090933649376"><ele>75.0</ele><time>2026-04-09T16:12:59Z</time></trkpt><trkpt lat="43.97244198632237" lon="4.698266625323746"><ele>75.0</ele><time>2026-04-09T16:13:00Z</time></trkpt><trkpt lat="43.9723404573386" lon="4.698462504712742"><ele>75.0</ele><time>2026-04-09T16:13:01Z</time></trkpt><trkpt lat="43.97224649796308" lon="4.698649952584835"><ele>75.0</ele><time>2026-04-09T16:13:02Z</time></trkpt><trkpt lat="43.97214451377162" lon="4.698823049679624"><ele>75.0</ele><time>2026-04-09T16:13:03Z</time></trkpt><trkpt lat="43.97202288484545" lon="4.6989737493057335"><ele>75.0</ele><time>2026-04-09T16:13:04Z</time></trkpt><trkpt lat="43.97188314399917" lon="4.699097334641817"><ele>75.0</ele><time>2026-04-09T16:13:05Z</time></trkpt><trkpt lat="43.97173036016253" lon="4.699189472894587"><ele>75.0</ele><time>2026-04-09T16:13:06Z</time></trkpt><trkpt lat="43.97157339240957" lon="4.699255452449965"><ele>75.33333333333333</ele><time>2026-04-09T16:13:07Z</time></trkpt><trkpt lat="43.97141595270237" lon="4.699307702984315"><ele>75.66666666666666</ele><time>2026-04-09T16:13:08Z</time></trkpt><trkpt lat="43.97126227984157" lon="4.6993618264937025"><ele>76.0</ele><time>2026-04-09T16:13:09Z</time></trkpt><trkpt lat="43.97111068237424" lon="4.699416809286173"><ele>75.0</ele><time>2026-04-09T16:13:10Z</time></trkpt><trkpt lat="43.970960815163444" lon="4.699469677109997"><ele>74.0</ele><time>2026-04-09T16:13:11Z</time></trkpt><trkpt lat="43.97081257053915" lon="4.699523774877012"><ele>73.0</ele><time>2026-04-09T16:13:12Z</time></trkpt><trkpt lat="43.97066910555971" lon="4.699594154536504"><ele>73.0</ele><time>2026-04-09T16:13:13Z</time></trkpt><trkpt lat="43.9705323772829" lon="4.699682863904785"><ele>73.0</ele><time>2026-04-09T16:13:14Z</time></trkpt><trkpt lat="43.97040894894249" lon="4.699806551640131"><ele>73.0</ele><time>2026-04-09T16:13:15Z</time></trkpt><trkpt lat="43.97029817137421" lon="4.699957029977599"><ele>73.0</ele><time>2026-04-09T16:13:16Z</time></trkpt><trkpt lat="43.97019156271834" lon="4.700111965293962"><ele>73.0</ele><time>2026-04-09T16:13:17Z</time></trkpt><trkpt lat="43.97008482590984" lon="4.700265678253587"><ele>73.0</ele><time>2026-04-09T16:13:18Z</time></trkpt><trkpt lat="43.96997815824267" lon="4.700416950544817"><ele>71.66666666666666</ele><time>2026-04-09T16:13:19Z</time></trkpt><trkpt lat="43.96987043125534" lon="4.700565307934077"><ele>70.33333333333333</ele><time>2026-04-09T16:13:20Z</time></trkpt><trkpt lat="43.9697632364316" lon="4.700714127751659"><ele>69.0</ele><time>2026-04-09T16:13:21Z</time></trkpt><trkpt lat="43.96965646066389" lon="4.700862399657836"><ele>69.0</ele><time>2026-04-09T16:13:22Z</time></trkpt><trkpt lat="43.969550888273496" lon="4.701007434710077"><ele>69.0</ele><time>2026-04-09T16:13:23Z</time></trkpt><trkpt lat="43.96944088657502" lon="4.701145012393067"><ele>69.0</ele><time>2026-04-09T16:13:24Z</time></trkpt><trkpt lat="43.969327825399084" lon="4.701269547888614"><ele>69.0</ele><time>2026-04-09T16:13:25Z</time></trkpt><trkpt lat="43.96920291240799" lon="4.7013649862094065"><ele>68.5</ele><time>2026-04-09T16:13:26Z</time></trkpt><trkpt lat="43.969068950304994" lon="4.7014293978723565"><ele>68.0</ele><time>2026-04-09T16:13:27Z</time></trkpt><trkpt lat="43.96893136531214" lon="4.701475612510135"><ele>67.5</ele><time>2026-04-09T16:13:28Z</time></trkpt><trkpt lat="43.96879348853635" lon="4.701516966299169"><ele>67.0</ele><time>2026-04-09T16:13:29Z</time></trkpt><trkpt lat="43.968657089145786" lon="4.70156096262583"><ele>67.0</ele><time>2026-04-09T16:13:30Z</time></trkpt><trkpt lat="43.96852183559905" lon="4.7016073335668995"><ele>67.0</ele><time>2026-04-09T16:13:31Z</time></trkpt><trkpt lat="43.9683868054461" lon="4.70165287567684"><ele>67.0</ele><time>2026-04-09T16:13:32Z</time></trkpt><trkpt lat="43.96825322238604" lon="4.701700983813425"><ele>67.0</ele><time>2026-04-09T16:13:33Z</time></trkpt><trkpt lat="43.9681205998844" lon="4.701746532666257"><ele>66.75</ele><time>2026-04-09T16:13:34Z</time></trkpt><trkpt lat="43.96798813585059" lon="4.701794115521955"><ele>66.5</ele><time>2026-04-09T16:13:35Z</time></trkpt><trkpt lat="43.967858438454364" lon="4.70184638361286"><ele>66.25</ele><time>2026-04-09T16:13:36Z</time></trkpt><trkpt lat="43.967732070512206" lon="4.701905241483051"><ele>66.0</ele><time>2026-04-09T16:13:37Z</time></trkpt><trkpt lat="43.96760815522545" lon="4.701968939699315"><ele>65.0</ele><time>2026-04-09T16:13:38Z</time></trkpt><trkpt lat="43.967489459680856" lon="4.702045196128037"><ele>64.0</ele><time>2026-04-09T16:13:39Z</time></trkpt><trkpt lat="43.96737050079906" lon="4.702124501239129"><ele>63.0</ele><time>2026-04-09T16:13:40Z</time></trkpt><trkpt lat="43.96724751190661" lon="4.702197991297295"><ele>62.0</ele><time>2026-04-09T16:13:41Z</time></trkpt><trkpt lat="43.96712518280994" lon="4.702273667243699"><ele>62.0</ele><time>2026-04-09T16:13:42Z</time></trkpt><trkpt lat="43.96700584316381" lon="4.702352346652196"><ele>62.0</ele><time>2026-04-09T16:13:43Z</time></trkpt><trkpt lat="43.96689374054252" lon="4.702432726625855"><ele>62.0</ele><time>2026-04-09T16:13:44Z</time></trkpt><trkpt lat="43.96680688117483" lon="4.702506476601557"><ele>62.0</ele><time>2026-04-09T16:13:45Z</time></trkpt><trkpt lat="43.966738901806856" lon="4.70256701010821"><ele>62.0</ele><time>2026-04-09T16:13:46Z</time></trkpt><trkpt lat="43.96668243616072" lon="4.702623542121112"><ele>61.833333333333336</ele><time>2026-04-09T16:13:47Z</time></trkpt><trkpt lat="43.96662861103605" lon="4.702688842503177"><ele>61.66666666666667</ele><time>2026-04-09T16:13:48Z</time></trkpt><trkpt lat="43.96657900024169" lon="4.702771565806602"><ele>61.5</ele><time>2026-04-09T16:13:49Z</time></trkpt><trkpt lat="43.966533592242584" lon="4.70286822702612"><ele>61.33333333333333</ele><time>2026-04-09T16:13:50Z</time></trkpt><trkpt lat="43.96648341304293" lon="4.702977614873629"><ele>61.166666666666664</ele><time>2026-04-09T16:13:51Z</time></trkpt><trkpt lat="43.96643826931006" lon="4.703109706022208"><ele>61.0</ele><time>2026-04-09T16:13:52Z</time></trkpt><trkpt lat="43.9664031303408" lon="4.703253981588427"><ele>60.25</ele><time>2026-04-09T16:13:53Z</time></trkpt><trkpt lat="43.96636833956589" lon="4.703406008571762"><ele>59.5</ele><time>2026-04-09T16:13:54Z</time></trkpt><trkpt lat="43.96633569877555" lon="4.7035647993546075"><ele>58.75</ele><time>2026-04-09T16:13:55Z</time></trkpt><trkpt lat="43.96630481857447" lon="4.7037195767828495"><ele>58.0</ele><time>2026-04-09T16:13:56Z</time></trkpt><trkpt lat="43.96627167025593" lon="4.703869020198101"><ele>57.83333333333333</ele><time>2026-04-09T16:13:57Z</time></trkpt><trkpt lat="43.96623775019217" lon="4.704003486377946"><ele>57.666666666666664</ele><time>2026-04-09T16:13:58Z</time></trkpt><trkpt lat="43.96620982142793" lon="4.704104787183579"><ele>57.5</ele><time>2026-04-09T16:13:59Z</time></trkpt><trkpt lat="43.96618187138053" lon="4.704198818918366"><ele>57.33333333333333</ele><time>2026-04-09T16:14:00Z</time></trkpt><trkpt lat="43.96615496951974" lon="4.704296383116667"><ele>57.166666666666664</ele><time>2026-04-09T16:14:01Z</time></trkpt><trkpt lat="43.96612400904298" lon="4.7044053090067095"><ele>57.0</ele><time>2026-04-09T16:14:02Z</time></trkpt><trkpt lat="43.96608819916077" lon="4.704529436014462"><ele>56.75</ele><time>2026-04-09T16:14:03Z</time></trkpt><trkpt lat="43.96604463764693" lon="4.704677936266568"><ele>56.5</ele><time>2026-04-09T16:14:04Z</time></trkpt><trkpt lat="43.96599302960289" lon="4.7048506122751474"><ele>56.25</ele><time>2026-04-09T16:14:05Z</time></trkpt><trkpt lat="43.965937165781106" lon="4.705034463819343"><ele>56.0</ele><time>2026-04-09T16:14:06Z</time></trkpt><trkpt lat="43.965881327462185" lon="4.705212427579392"><ele>56.0</ele><time>2026-04-09T16:14:07Z</time></trkpt><trkpt lat="43.96582217148581" lon="4.705384639146752"><ele>56.0</ele><time>2026-04-09T16:14:08Z</time></trkpt><trkpt lat="43.96575585172307" lon="4.7055529486364485"><ele>56.0</ele><time>2026-04-09T16:14:09Z</time></trkpt><trkpt lat="43.96568121672156" lon="4.705712093504232"><ele>56.0</ele><time>2026-04-09T16:14:10Z</time></trkpt><trkpt lat="43.96560133824779" lon="4.705854193699051"><ele>56.0</ele><time>2026-04-09T16:14:11Z</time></trkpt><trkpt lat="43.96551837929607" lon="4.705983938257771"><ele>55.99999999999999</ele><time>2026-04-09T16:14:12Z</time></trkpt><trkpt lat="43.965435835997745" lon="4.706106393287924"><ele>55.99999999999999</ele><time>2026-04-09T16:14:13Z</time></trkpt><trkpt lat="43.96536505477308" lon="4.706207228986464"><ele>56.0</ele><time>2026-04-09T16:14:14Z</time></trkpt><trkpt lat="43.96531185058053" lon="4.706281722743094"><ele>56.0</ele><time>2026-04-09T16:14:15Z</time></trkpt><trkpt lat="43.96525011924956" lon="4.7063707665592025"><ele>56.0</ele><time>2026-04-09T16:14:16Z</time></trkpt><trkpt lat="43.96518925832122" lon="4.706458365474833"><ele>55.99999999999999</ele><time>2026-04-09T16:14:17Z</time></trkpt><trkpt lat="43.96512746813422" lon="4.7065488166640455"><ele>55.99999999999999</ele><time>2026-04-09T16:14:18Z</time></trkpt><trkpt lat="43.96505168427329" lon="4.706663732453133"><ele>56.0</ele><time>2026-04-09T16:14:19Z</time></trkpt><trkpt lat="43.964966271573296" lon="4.706794824169985"><ele>56.0</ele><time>2026-04-09T16:14:20Z</time></trkpt><trkpt lat="43.96487376589501" lon="4.706940369844413"><ele>56.0</ele><time>2026-04-09T16:14:21Z</time></trkpt><trkpt lat="43.964779569832494" lon="4.707092003856523"><ele>56.0</ele><time>2026-04-09T16:14:22Z</time></trkpt><trkpt lat="43.9646864809764" lon="4.707245922372095"><ele>56.0</ele><time>2026-04-09T16:14:23Z</time></trkpt><trkpt lat="43.96459590420384" lon="4.707398564540751"><ele>56.0</ele><time>2026-04-09T16:14:24Z</time></trkpt><trkpt lat="43.96450785521503" lon="4.707547957692127"><ele>56.0</ele><time>2026-04-09T16:14:25Z</time></trkpt><trkpt lat="43.964419864513594" lon="4.707694774384984"><ele>56.0</ele><time>2026-04-09T16:14:26Z</time></trkpt><trkpt lat="43.96433553928553" lon="4.7078422810458465"><ele>56.0</ele><time>2026-04-09T16:14:27Z</time></trkpt><trkpt lat="43.96425316931074" lon="4.707988046711063"><ele>56.0</ele><time>2026-04-09T16:14:28Z</time></trkpt><trkpt lat="43.96416585950402" lon="4.7081405213942915"><ele>56.25</ele><time>2026-04-09T16:14:29Z</time></trkpt><trkpt lat="43.964083388875046" lon="4.708289376663762"><ele>56.5</ele><time>2026-04-09T16:14:30Z</time></trkpt><trkpt lat="43.96400187467616" lon="4.708435558563187"><ele>56.75</ele><time>2026-04-09T16:14:31Z</time></trkpt><trkpt lat="43.96392316331155" lon="4.708580519265888"><ele>57.0</ele><time>2026-04-09T16:14:32Z</time></trkpt><trkpt lat="43.96384543126889" lon="4.708721403314891"><ele>57.0</ele><time>2026-04-09T16:14:33Z</time></trkpt><trkpt lat="43.96377291182704" lon="4.70885681082468"><ele>57.0</ele><time>2026-04-09T16:14:34Z</time></trkpt><trkpt lat="43.96370276940881" lon="4.708981156983321"><ele>57.0</ele><time>2026-04-09T16:14:35Z</time></trkpt><trkpt lat="43.96364410996438" lon="4.709075867176493"><ele>57.0</ele><time>2026-04-09T16:14:36Z</time></trkpt><trkpt lat="43.96358608180624" lon="4.709150381541694"><ele>57.0</ele><time>2026-04-09T16:14:37Z</time></trkpt><trkpt lat="43.96352357174684" lon="4.709208206761145"><ele>57.0</ele><time>2026-04-09T16:14:38Z</time></trkpt><trkpt lat="43.96346291720121" lon="4.709268435721866"><ele>57.0</ele><time>2026-04-09T16:14:39Z</time></trkpt><trkpt lat="43.963421674649695" lon="4.7093612116948895"><ele>57.0</ele><time>2026-04-09T16:14:40Z</time></trkpt><trkpt lat="43.963391513489995" lon="4.709477923160648"><ele>57.0</ele><time>2026-04-09T16:14:41Z</time></trkpt><trkpt lat="43.96335373840483" lon="4.709597585736305"><ele>57.0</ele><time>2026-04-09T16:14:42Z</time></trkpt><trkpt lat="43.963312493237424" lon="4.709703972164405"><ele>57.0</ele><time>2026-04-09T16:14:43Z</time></trkpt><trkpt lat="43.9632942982013" lon="4.709806133784748"><ele>57.0</ele><time>2026-04-09T16:14:44Z</time></trkpt><trkpt lat="43.96331338067102" lon="4.7098967782380186"><ele>57.0</ele><time>2026-04-09T16:14:45Z</time></trkpt><trkpt lat="43.963422841232784" lon="4.709843825413"><ele>57.0</ele><time>2026-04-09T16:14:47Z</time></trkpt><trkpt lat="43.963372399275244" lon="4.709904464179252"><ele>57.0</ele><time>2026-04-09T16:15:32Z</time></trkpt><trkpt lat="43.96331079019879" lon="4.709864242860798"><ele>57.0</ele><time>2026-04-09T16:15:37Z</time></trkpt><trkpt lat="43.963266222190576" lon="4.709982482635591"><ele>57.0</ele><time>2026-04-09T16:15:40Z</time></trkpt><trkpt lat="43.96329594680199" lon="4.710148298488231"><ele>57.0</ele><time>2026-04-09T16:15:42Z</time></trkpt><trkpt lat="43.96321405120637" lon="4.710259079945439"><ele>57.0</ele><time>2026-04-09T16:15:43Z</time></trkpt><trkpt lat="43.9631803809766" lon="4.7103462649633245"><ele>57.0</ele><time>2026-04-09T16:15:44Z</time></trkpt><trkpt lat="43.96313484838173" lon="4.710455382225182"><ele>57.0</ele><time>2026-04-09T16:15:45Z</time></trkpt><trkpt lat="43.963082372252806" lon="4.710573857378692"><ele>57.0</ele><time>2026-04-09T16:15:46Z</time></trkpt><trkpt lat="43.96302975160764" lon="4.710695227355316"><ele>57.0</ele><time>2026-04-09T16:15:47Z</time></trkpt><trkpt lat="43.962975151029624" lon="4.710826767717933"><ele>57.0</ele><time>2026-04-09T16:15:48Z</time></trkpt><trkpt lat="43.96292385787753" lon="4.7109661013219695"><ele>57.0</ele><time>2026-04-09T16:15:49Z</time></trkpt><trkpt lat="43.96287303120808" lon="4.711125306179389"><ele>57.0</ele><time>2026-04-09T16:15:50Z</time></trkpt><trkpt lat="43.96282111269807" lon="4.711277345431043"><ele>56.75</ele><time>2026-04-09T16:15:51Z</time></trkpt><trkpt lat="43.96276893655236" lon="4.711438053286351"><ele>56.5</ele><time>2026-04-09T16:15:52Z</time></trkpt><trkpt lat="43.96271302020891" lon="4.711605436199463"><ele>56.25</ele><time>2026-04-09T16:15:53Z</time></trkpt><trkpt lat="43.96265913587269" lon="4.711775370438798"><ele>56.0</ele><time>2026-04-09T16:15:54Z</time></trkpt><trkpt lat="43.962606848507086" lon="4.71195352999964"><ele>55.75</ele><time>2026-04-09T16:15:55Z</time></trkpt><trkpt lat="43.962554073164156" lon="4.712136913608815"><ele>55.5</ele><time>2026-04-09T16:15:56Z</time></trkpt><trkpt lat="43.962505301849696" lon="4.712318300256441"><ele>55.25</ele><time>2026-04-09T16:15:57Z</time></trkpt><trkpt lat="43.96245962616074" lon="4.712491898209019"><ele>55.0</ele><time>2026-04-09T16:15:58Z</time></trkpt><trkpt lat="43.96241905540101" lon="4.712661399776309"><ele>55.75</ele><time>2026-04-09T16:15:59Z</time></trkpt><trkpt lat="43.96238019599891" lon="4.712827478498096"><ele>56.5</ele><time>2026-04-09T16:16:00Z</time></trkpt><trkpt lat="43.96234442241189" lon="4.7129935251832284"><ele>57.25</ele><time>2026-04-09T16:16:01Z</time></trkpt><trkpt lat="43.962307569828766" lon="4.713158200668302"><ele>58.0</ele><time>2026-04-09T16:16:02Z</time></trkpt><trkpt lat="43.96227300513386" lon="4.713328931528409"><ele>58.0</ele><time>2026-04-09T16:16:03Z</time></trkpt><trkpt lat="43.96223630968802" lon="4.713503264224653"><ele>58.0</ele><time>2026-04-09T16:16:04Z</time></trkpt><trkpt lat="43.96220258545819" lon="4.713673234884718"><ele>58.0</ele><time>2026-04-09T16:16:05Z</time></trkpt><trkpt lat="43.96216818391172" lon="4.713843313350222"><ele>58.0</ele><time>2026-04-09T16:16:06Z</time></trkpt><trkpt lat="43.96213204968499" lon="4.714011638275141"><ele>58.25</ele><time>2026-04-09T16:16:07Z</time></trkpt><trkpt lat="43.96209556147784" lon="4.714182888730244"><ele>58.5</ele><time>2026-04-09T16:16:08Z</time></trkpt><trkpt lat="43.9620593315539" lon="4.714351301343136"><ele>58.75</ele><time>2026-04-09T16:16:09Z</time></trkpt><trkpt lat="43.9620258560238" lon="4.714518994535746"><ele>59.0</ele><time>2026-04-09T16:16:10Z</time></trkpt><trkpt lat="43.96199459296592" lon="4.714676437415436"><ele>59.0</ele><time>2026-04-09T16:16:11Z</time></trkpt><trkpt lat="43.96196365947534" lon="4.7148293156562975"><ele>59.0</ele><time>2026-04-09T16:16:12Z</time></trkpt><trkpt lat="43.96193384969695" lon="4.71498051727199"><ele>59.0</ele><time>2026-04-09T16:16:13Z</time></trkpt><trkpt lat="43.96190194448225" lon="4.71513090789934"><ele>59.0</ele><time>2026-04-09T16:16:14Z</time></trkpt><trkpt lat="43.96186597391696" lon="4.715285195195633"><ele>58.5</ele><time>2026-04-09T16:16:15Z</time></trkpt><trkpt lat="43.96183387433467" lon="4.715443553979872"><ele>58.0</ele><time>2026-04-09T16:16:16Z</time></trkpt><trkpt lat="43.961797993124094" lon="4.715595750972675"><ele>57.5</ele><time>2026-04-09T16:16:17Z</time></trkpt><trkpt lat="43.96176418834606" lon="4.715748376469456"><ele>57.0</ele><time>2026-04-09T16:16:18Z</time></trkpt><trkpt lat="43.961730191652975" lon="4.715897749372083"><ele>57.0</ele><time>2026-04-09T16:16:19Z</time></trkpt><trkpt lat="43.96169975958961" lon="4.71604612515113"><ele>57.0</ele><time>2026-04-09T16:16:20Z</time></trkpt><trkpt lat="43.96166995987289" lon="4.716194062755964"><ele>57.0</ele><time>2026-04-09T16:16:21Z</time></trkpt><trkpt lat="43.961641240109316" lon="4.716340139424009"><ele>57.0</ele><time>2026-04-09T16:16:22Z</time></trkpt><trkpt lat="43.961613653351705" lon="4.716490709945472"><ele>57.0</ele><time>2026-04-09T16:16:23Z</time></trkpt><trkpt lat="43.96158571613305" lon="4.716644704045968"><ele>57.0</ele><time>2026-04-09T16:16:24Z</time></trkpt><trkpt lat="43.96154858897724" lon="4.716795287110528"><ele>57.0</ele><time>2026-04-09T16:16:25Z</time></trkpt><trkpt lat="43.961511443448295" lon="4.716947275905521"><ele>57.0</ele><time>2026-04-09T16:16:26Z</time></trkpt><trkpt lat="43.96147817575252" lon="4.717103727756916"><ele>57.0</ele><time>2026-04-09T16:16:27Z</time></trkpt><trkpt lat="43.961442021966754" lon="4.717263531772074"><ele>57.5</ele><time>2026-04-09T16:16:28Z</time></trkpt><trkpt lat="43.96139959557694" lon="4.717428316144066"><ele>58.0</ele><time>2026-04-09T16:16:29Z</time></trkpt><trkpt lat="43.96135532275378" lon="4.7176002585330785"><ele>58.5</ele><time>2026-04-09T16:16:30Z</time></trkpt><trkpt lat="43.9613166294017" lon="4.717778290969145"><ele>59.0</ele><time>2026-04-09T16:16:31Z</time></trkpt><trkpt lat="43.96127426338319" lon="4.717952731190342"><ele>59.0</ele><time>2026-04-09T16:16:32Z</time></trkpt><trkpt lat="43.96123193240219" lon="4.718125979286266"><ele>59.0</ele><time>2026-04-09T16:16:33Z</time></trkpt><trkpt lat="43.96118688070692" lon="4.718303500130532"><ele>59.0</ele><time>2026-04-09T16:16:34Z</time></trkpt><trkpt lat="43.96114237189377" lon="4.718485908859822"><ele>59.0</ele><time>2026-04-09T16:16:35Z</time></trkpt><trkpt lat="43.96109465112069" lon="4.718669563701715"><ele>59.0</ele><time>2026-04-09T16:16:36Z</time></trkpt><trkpt lat="43.96104604395371" lon="4.718858282660078"><ele>59.0</ele><time>2026-04-09T16:16:37Z</time></trkpt><trkpt lat="43.960996004427216" lon="4.719051704503271"><ele>59.0</ele><time>2026-04-09T16:16:38Z</time></trkpt><trkpt lat="43.960945867817465" lon="4.719252601858282"><ele>59.0</ele><time>2026-04-09T16:16:39Z</time></trkpt><trkpt lat="43.9608935906994" lon="4.719454421829602"><ele>59.66666666666667</ele><time>2026-04-09T16:16:40Z</time></trkpt><trkpt lat="43.96084201801004" lon="4.719657536508505"><ele>60.33333333333333</ele><time>2026-04-09T16:16:41Z</time></trkpt><trkpt lat="43.96079019372215" lon="4.7198654516982135"><ele>61.0</ele><time>2026-04-09T16:16:42Z</time></trkpt><trkpt lat="43.960738550998414" lon="4.720073615888505"><ele>61.33333333333333</ele><time>2026-04-09T16:16:43Z</time></trkpt><trkpt lat="43.96068715530206" lon="4.720279633243037"><ele>61.66666666666667</ele><time>2026-04-09T16:16:44Z</time></trkpt><trkpt lat="43.960634386168756" lon="4.720481316880058"><ele>62.0</ele><time>2026-04-09T16:16:45Z</time></trkpt><trkpt lat="43.96058633260081" lon="4.720681429068434"><ele>62.0</ele><time>2026-04-09T16:16:46Z</time></trkpt><trkpt lat="43.96053662146459" lon="4.720878081513814"><ele>62.0</ele><time>2026-04-09T16:16:47Z</time></trkpt><trkpt lat="43.96047760676383" lon="4.7210726390997495"><ele>62.0</ele><time>2026-04-09T16:16:48Z</time></trkpt><trkpt lat="43.9604148492362" lon="4.721260395355242"><ele>61.5</ele><time>2026-04-09T16:16:49Z</time></trkpt><trkpt lat="43.96036306339644" lon="4.72145349237521"><ele>61.0</ele><time>2026-04-09T16:16:50Z</time></trkpt><trkpt lat="43.960320854868144" lon="4.721645185109375"><ele>60.5</ele><time>2026-04-09T16:16:51Z</time></trkpt><trkpt lat="43.96028640681035" lon="4.721851388029104"><ele>60.0</ele><time>2026-04-09T16:16:52Z</time></trkpt><trkpt lat="43.960258219045976" lon="4.722055918928719"><ele>60.0</ele><time>2026-04-09T16:16:53Z</time></trkpt><trkpt lat="43.96023253543284" lon="4.722257560897601"><ele>60.0</ele><time>2026-04-09T16:16:54Z</time></trkpt><trkpt lat="43.96020683257163" lon="4.722462017491164"><ele>60.0</ele><time>2026-04-09T16:16:55Z</time></trkpt><trkpt lat="43.960180667860534" lon="4.722662179704565"><ele>60.0</ele><time>2026-04-09T16:16:56Z</time></trkpt><trkpt lat="43.96015526710018" lon="4.722864847315135"><ele>60.0</ele><time>2026-04-09T16:16:57Z</time></trkpt><trkpt lat="43.960128915068914" lon="4.723067581351577"><ele>60.0</ele><time>2026-04-09T16:16:58Z</time></trkpt><trkpt lat="43.96010108152982" lon="4.72327015180431"><ele>60.0</ele><time>2026-04-09T16:16:59Z</time></trkpt><trkpt lat="43.96007068643205" lon="4.723471011558007"><ele>60.0</ele><time>2026-04-09T16:17:00Z</time></trkpt><trkpt lat="43.96004593681258" lon="4.7236734280529395"><ele>60.25</ele><time>2026-04-09T16:17:01Z</time></trkpt><trkpt lat="43.96001967954519" lon="4.723870659033786"><ele>60.5</ele><time>2026-04-09T16:17:02Z</time></trkpt><trkpt lat="43.959994251428064" lon="4.724063713152807"><ele>60.75</ele><time>2026-04-09T16:17:03Z</time></trkpt><trkpt lat="43.95997170065714" lon="4.724254081453299"><ele>61.0</ele><time>2026-04-09T16:17:04Z</time></trkpt><trkpt lat="43.95994804970567" lon="4.724437247415146"><ele>61.0</ele><time>2026-04-09T16:17:05Z</time></trkpt><trkpt lat="43.959926144243575" lon="4.724609978966052"><ele>61.0</ele><time>2026-04-09T16:17:06Z</time></trkpt><trkpt lat="43.9599038076746" lon="4.724775476819821"><ele>61.0</ele><time>2026-04-09T16:17:07Z</time></trkpt><trkpt lat="43.95986722011399" lon="4.7249292416177155"><ele>61.0</ele><time>2026-04-09T16:17:08Z</time></trkpt><trkpt lat="43.95984687780327" lon="4.725116597196347"><ele>61.0</ele><time>2026-04-09T16:17:09Z</time></trkpt><trkpt lat="43.95984185093908" lon="4.725319428411148"><ele>61.0</ele><time>2026-04-09T16:17:10Z</time></trkpt><trkpt lat="43.95982620631742" lon="4.725532732882797"><ele>61.0</ele><time>2026-04-09T16:17:11Z</time></trkpt><trkpt lat="43.95979309968304" lon="4.72572453461127"><ele>61.0</ele><time>2026-04-09T16:17:12Z</time></trkpt><trkpt lat="43.959770323755734" lon="4.725910481017385"><ele>61.25</ele><time>2026-04-09T16:17:13Z</time></trkpt><trkpt lat="43.959747692267804" lon="4.726097075294035"><ele>61.5</ele><time>2026-04-09T16:17:14Z</time></trkpt><trkpt lat="43.95972210095102" lon="4.726281657286361"><ele>61.75</ele><time>2026-04-09T16:17:15Z</time></trkpt><trkpt lat="43.959693224628055" lon="4.726466747419543"><ele>62.0</ele><time>2026-04-09T16:17:16Z</time></trkpt><trkpt lat="43.95966013529865" lon="4.726648719902768"><ele>62.0</ele><time>2026-04-09T16:17:17Z</time></trkpt><trkpt lat="43.95962254541964" lon="4.7268333877253825"><ele>62.0</ele><time>2026-04-09T16:17:18Z</time></trkpt><trkpt lat="43.959573505489416" lon="4.727013293697458"><ele>62.0</ele><time>2026-04-09T16:17:19Z</time></trkpt><trkpt lat="43.959518805161586" lon="4.727188681969043"><ele>62.0</ele><time>2026-04-09T16:17:20Z</time></trkpt><trkpt lat="43.95946550491981" lon="4.727362655248892"><ele>62.0</ele><time>2026-04-09T16:17:21Z</time></trkpt><trkpt lat="43.959414274309154" lon="4.7275391854554325"><ele>62.0</ele><time>2026-04-09T16:17:22Z</time></trkpt><trkpt lat="43.95936688123085" lon="4.727710887613115"><ele>62.0</ele><time>2026-04-09T16:17:23Z</time></trkpt><trkpt lat="43.95932430762225" lon="4.727879776049342"><ele>62.0</ele><time>2026-04-09T16:17:24Z</time></trkpt><trkpt lat="43.95928532815822" lon="4.728050616324144"><ele>62.0</ele><time>2026-04-09T16:17:25Z</time></trkpt><trkpt lat="43.959253124756316" lon="4.728222055404359"><ele>62.0</ele><time>2026-04-09T16:17:26Z</time></trkpt><trkpt lat="43.95922324943451" lon="4.728388568548068"><ele>62.0</ele><time>2026-04-09T16:17:27Z</time></trkpt><trkpt lat="43.959195802104105" lon="4.728548687290572"><ele>62.0</ele><time>2026-04-09T16:17:28Z</time></trkpt><trkpt lat="43.95917118044038" lon="4.728702987519973"><ele>62.50000000000001</ele><time>2026-04-09T16:17:29Z</time></trkpt><trkpt lat="43.95914990323004" lon="4.728852701871736"><ele>63.0</ele><time>2026-04-09T16:17:30Z</time></trkpt><trkpt lat="43.95913292654265" lon="4.728993275843632"><ele>63.5</ele><time>2026-04-09T16:17:31Z</time></trkpt><trkpt lat="43.95912123721517" lon="4.729121408853263"><ele>64.0</ele><time>2026-04-09T16:17:32Z</time></trkpt><trkpt lat="43.959112461503885" lon="4.729224850818307"><ele>64.5</ele><time>2026-04-09T16:17:33Z</time></trkpt><trkpt lat="43.9591036019522" lon="4.729315229112796"><ele>65.0</ele><time>2026-04-09T16:17:34Z</time></trkpt><trkpt lat="43.95909426298196" lon="4.729406124203995"><ele>65.00000000000001</ele><time>2026-04-09T16:17:35Z</time></trkpt><trkpt lat="43.95908431477345" lon="4.729497098836787"><ele>65.0</ele><time>2026-04-09T16:17:36Z</time></trkpt><trkpt lat="43.959074195568576" lon="4.729586330289523"><ele>65.0</ele><time>2026-04-09T16:17:37Z</time></trkpt><trkpt lat="43.959065113805934" lon="4.729674783377597"><ele>65.0</ele><time>2026-04-09T16:17:38Z</time></trkpt><trkpt lat="43.959057331598544" lon="4.729776061139532"><ele>65.0</ele><time>2026-04-09T16:17:39Z</time></trkpt><trkpt lat="43.95904776400494" lon="4.729889542096122"><ele>65.00000000000001</ele><time>2026-04-09T16:17:40Z</time></trkpt><trkpt lat="43.95903744573609" lon="4.730004541515933"><ele>65.0</ele><time>2026-04-09T16:17:41Z</time></trkpt><trkpt lat="43.959026384201145" lon="4.7301173776760175"><ele>65.0</ele><time>2026-04-09T16:17:42Z</time></trkpt><trkpt lat="43.95901484140929" lon="4.730223981288471"><ele>65.0</ele><time>2026-04-09T16:17:43Z</time></trkpt><trkpt lat="43.959004329523836" lon="4.730326120720286"><ele>65.0</ele><time>2026-04-09T16:17:44Z</time></trkpt><trkpt lat="43.95899486816414" lon="4.730420608812673"><ele>65.0</ele><time>2026-04-09T16:17:45Z</time></trkpt><trkpt lat="43.95898652581851" lon="4.730509488708161"><ele>65.0</ele><time>2026-04-09T16:17:46Z</time></trkpt><trkpt lat="43.95897432587855" lon="4.730677676406079"><ele>65.0</ele><time>2026-04-09T16:17:48Z</time></trkpt><trkpt lat="43.95897092623104" lon="4.730847451174345"><ele>65.0</ele><time>2026-04-09T16:17:50Z</time></trkpt><trkpt lat="43.9589719461314" lon="4.730955133816265"><ele>65.0</ele><time>2026-04-09T16:17:51Z</time></trkpt><trkpt lat="43.95897898401301" lon="4.731078017329703"><ele>65.0</ele><time>2026-04-09T16:17:52Z</time></trkpt><trkpt lat="43.95899147703439" lon="4.731207532257505"><ele>65.0</ele><time>2026-04-09T16:17:53Z</time></trkpt><trkpt lat="43.95900794225799" lon="4.731344824675932"><ele>65.0</ele><time>2026-04-09T16:17:54Z</time></trkpt><trkpt lat="43.959030709529635" lon="4.731478880087836"><ele>65.0</ele><time>2026-04-09T16:17:55Z</time></trkpt><trkpt lat="43.959057696491065" lon="4.7316071158526105"><ele>65.0</ele><time>2026-04-09T16:17:56Z</time></trkpt><trkpt lat="43.959088033752394" lon="4.7317302820081855"><ele>65.0</ele><time>2026-04-09T16:17:57Z</time></trkpt><trkpt lat="43.95912208484573" lon="4.731848969565173"><ele>65.0</ele><time>2026-04-09T16:17:58Z</time></trkpt><trkpt lat="43.95915908086154" lon="4.731966224928409"><ele>65.0</ele><time>2026-04-09T16:17:59Z</time></trkpt><trkpt lat="43.959200335924876" lon="4.732086046048122"><ele>64.6</ele><time>2026-04-09T16:18:00Z</time></trkpt><trkpt lat="43.9592466346212" lon="4.732208094561394"><ele>64.2</ele><time>2026-04-09T16:18:01Z</time></trkpt><trkpt lat="43.95929443327001" lon="4.732330241283994"><ele>63.8</ele><time>2026-04-09T16:18:02Z</time></trkpt><trkpt lat="43.95934585715433" lon="4.732456024654441"><ele>63.4</ele><time>2026-04-09T16:18:03Z</time></trkpt><trkpt lat="43.95939604845412" lon="4.732576843021083"><ele>63.0</ele><time>2026-04-09T16:18:04Z</time></trkpt><trkpt lat="43.95944466745118" lon="4.732692535694718"><ele>63.0</ele><time>2026-04-09T16:18:05Z</time></trkpt><trkpt lat="43.95949081131519" lon="4.732804149400965"><ele>63.0</ele><time>2026-04-09T16:18:06Z</time></trkpt><trkpt lat="43.959533531730955" lon="4.732913390015803"><ele>63.0</ele><time>2026-04-09T16:18:07Z</time></trkpt><trkpt lat="43.959575308815495" lon="4.733019592361115"><ele>63.0</ele><time>2026-04-09T16:18:08Z</time></trkpt><trkpt lat="43.95962279342972" lon="4.733132847404585"><ele>63.0</ele><time>2026-04-09T16:18:09Z</time></trkpt><trkpt lat="43.95967123029242" lon="4.733249183534301"><ele>63.0</ele><time>2026-04-09T16:18:10Z</time></trkpt><trkpt lat="43.95971712394894" lon="4.733370354725868"><ele>63.0</ele><time>2026-04-09T16:18:11Z</time></trkpt><trkpt lat="43.95975282716411" lon="4.733495952874153"><ele>63.0</ele><time>2026-04-09T16:18:12Z</time></trkpt><trkpt lat="43.95977193756803" lon="4.733621207667419"><ele>63.0</ele><time>2026-04-09T16:18:13Z</time></trkpt><trkpt lat="43.95977321198949" lon="4.733750234339533"><ele>63.0</ele><time>2026-04-09T16:18:14Z</time></trkpt><trkpt lat="43.95976224339209" lon="4.733878723526658"><ele>62.833333333333336</ele><time>2026-04-09T16:18:15Z</time></trkpt><trkpt lat="43.959733421901745" lon="4.7339984021119585"><ele>62.66666666666667</ele><time>2026-04-09T16:18:16Z</time></trkpt><trkpt lat="43.95968970014836" lon="4.734107775636154"><ele>62.5</ele><time>2026-04-09T16:18:17Z</time></trkpt><trkpt lat="43.95963677448874" lon="4.734204101716273"><ele>62.333333333333336</ele><time>2026-04-09T16:18:18Z</time></trkpt><trkpt lat="43.959574921292415" lon="4.734282480844443"><ele>62.16666666666667</ele><time>2026-04-09T16:18:19Z</time></trkpt><trkpt lat="43.95951041414746" lon="4.734343010880608"><ele>62.0</ele><time>2026-04-09T16:18:20Z</time></trkpt><trkpt lat="43.959447978443144" lon="4.734379805321273"><ele>62.2</ele><time>2026-04-09T16:18:21Z</time></trkpt><trkpt lat="43.959340771553876" lon="4.7344068546218105"><ele>62.400000000000006</ele><time>2026-04-09T16:18:23Z</time></trkpt><trkpt lat="43.95927341906693" lon="4.73439388433098"><ele>62.599999999999994</ele><time>2026-04-09T16:18:25Z</time></trkpt><trkpt lat="43.95916541687756" lon="4.734324030796533"><ele>62.8</ele><time>2026-04-09T16:18:30Z</time></trkpt><trkpt lat="43.95910098092017" lon="4.73424531383387"><ele>63.0</ele><time>2026-04-09T16:18:31Z</time></trkpt><trkpt lat="43.95903944445032" lon="4.734170128427793"><ele>63.0</ele><time>2026-04-09T16:18:32Z</time></trkpt></trkseg><trkseg><trkpt lat="44.01063852706695" lon="4.805143541312333"><ele>22.0</ele><time>2026-04-10T13:16:51Z</time></trkpt><trkpt lat="44.01073595190475" lon="4.805014690960405"><ele>22.0</ele><time>2026-04-10T13:16:52Z</time></trkpt><trkpt lat="44.01081368235642" lon="4.8047810506346345"><ele>22.0</ele><time>2026-04-10T13:16:53Z</time></trkpt><trkpt lat="44.010882404693724" lon="4.804603359346713"><ele>22.25</ele><time>2026-04-10T13:16:54Z</time></trkpt><trkpt lat="44.010928198548314" lon="4.80446403166831"><ele>22.5</ele><time>2026-04-10T13:16:55Z</time></trkpt><trkpt lat="44.01097889824692" lon="4.804319137444263"><ele>22.75</ele><time>2026-04-10T13:16:56Z</time></trkpt><trkpt lat="44.01103247508239" lon="4.804180018474464"><ele>23.0</ele><time>2026-04-10T13:16:57Z</time></trkpt><trkpt lat="44.011081785806624" lon="4.804029814442118"><ele>23.0</ele><time>2026-04-10T13:16:58Z</time></trkpt><trkpt lat="44.01111156070156" lon="4.803872350777492"><ele>23.0</ele><time>2026-04-10T13:16:59Z</time></trkpt><trkpt lat="44.01109946806501" lon="4.803721420024688"><ele>23.0</ele><time>2026-04-10T13:17:00Z</time></trkpt><trkpt lat="44.01104991840531" lon="4.8035639827255165"><ele>23.0</ele><time>2026-04-10T13:17:01Z</time></trkpt><trkpt lat="44.01096409047608" lon="4.803422886750712"><ele>23.0</ele><time>2026-04-10T13:17:02Z</time></trkpt><trkpt lat="44.010863142170344" lon="4.8032912102359475"><ele>23.0</ele><time>2026-04-10T13:17:03Z</time></trkpt><trkpt lat="44.01077047938389" lon="4.803147666222933"><ele>23.0</ele><time>2026-04-10T13:17:04Z</time></trkpt><trkpt lat="44.010701111151135" lon="4.802976895771428"><ele>23.0</ele><time>2026-04-10T13:17:05Z</time></trkpt><trkpt lat="44.01065475766362" lon="4.802792986213095"><ele>24.0</ele><time>2026-04-10T13:17:06Z</time></trkpt><trkpt lat="44.010638584700125" lon="4.8025940348545495"><ele>25.0</ele><time>2026-04-10T13:17:07Z</time></trkpt><trkpt lat="44.01061283189523" lon="4.802351080503681"><ele>26.0</ele><time>2026-04-10T13:17:08Z</time></trkpt><trkpt lat="44.01059619647243" lon="4.802099027179279"><ele>26.0</ele><time>2026-04-10T13:17:09Z</time></trkpt><trkpt lat="44.010579728650136" lon="4.801892907923468"><ele>26.0</ele><time>2026-04-10T13:17:10Z</time></trkpt><trkpt lat="44.01058693536837" lon="4.8017085958353185"><ele>26.0</ele><time>2026-04-10T13:17:11Z</time></trkpt><trkpt lat="44.010632962117256" lon="4.801502574365166"><ele>26.0</ele><time>2026-04-10T13:17:12Z</time></trkpt><trkpt lat="44.01073839201933" lon="4.801321995878648"><ele>25.5</ele><time>2026-04-10T13:17:13Z</time></trkpt><trkpt lat="44.01083617872471" lon="4.801134654031925"><ele>25.0</ele><time>2026-04-10T13:17:14Z</time></trkpt><trkpt lat="44.010932981771404" lon="4.800987028748445"><ele>24.5</ele><time>2026-04-10T13:17:15Z</time></trkpt><trkpt lat="44.0110023161154" lon="4.800865102724552"><ele>24.0</ele><time>2026-04-10T13:17:16Z</time></trkpt><trkpt lat="44.01105913227048" lon="4.80076872420787"><ele>24.0</ele><time>2026-04-10T13:17:17Z</time></trkpt><trkpt lat="44.01110462556043" lon="4.800692310906103"><ele>24.0</ele><time>2026-04-10T13:17:18Z</time></trkpt><trkpt lat="44.01115176325289" lon="4.800615155032272"><ele>24.0</ele><time>2026-04-10T13:17:20Z</time></trkpt><trkpt lat="44.01102400000325" lon="4.800520978031114"><ele>24.0</ele><time>2026-04-10T13:17:21Z</time></trkpt><trkpt lat="44.01096078774466" lon="4.800497299884957"><ele>24.0</ele><time>2026-04-10T13:17:22Z</time></trkpt><trkpt lat="44.01083316158592" lon="4.800505825887176"><ele>25.333333333333336</ele><time>2026-04-10T13:17:23Z</time></trkpt><trkpt lat="44.01068161487058" lon="4.800554006018624"><ele>26.666666666666668</ele><time>2026-04-10T13:17:24Z</time></trkpt><trkpt lat="44.01050772024994" lon="4.800649505517413"><ele>28.0</ele><time>2026-04-10T13:17:25Z</time></trkpt><trkpt lat="44.01034673779423" lon="4.800740721675573"><ele>28.0</ele><time>2026-04-10T13:17:26Z</time></trkpt><trkpt lat="44.01018173331886" lon="4.800781935769806"><ele>28.0</ele><time>2026-04-10T13:17:27Z</time></trkpt><trkpt lat="44.01003342711834" lon="4.800787268546579"><ele>28.0</ele><time>2026-04-10T13:17:28Z</time></trkpt><trkpt lat="44.009898649270994" lon="4.80079698199541"><ele>28.666666666666668</ele><time>2026-04-10T13:17:29Z</time></trkpt><trkpt lat="44.00975923245152" lon="4.800806786142787"><ele>29.333333333333336</ele><time>2026-04-10T13:17:30Z</time></trkpt><trkpt lat="44.00961615940779" lon="4.800850319110662"><ele>30.0</ele><time>2026-04-10T13:17:31Z</time></trkpt><trkpt lat="44.00946266995072" lon="4.80095231713894"><ele>30.0</ele><time>2026-04-10T13:17:32Z</time></trkpt><trkpt lat="44.00931922588705" lon="4.801075663684388"><ele>30.0</ele><time>2026-04-10T13:17:33Z</time></trkpt><trkpt lat="44.0091747498317" lon="4.801154753836703"><ele>30.0</ele><time>2026-04-10T13:17:34Z</time></trkpt><trkpt lat="44.00901430735335" lon="4.801155460753083"><ele>30.333333333333336</ele><time>2026-04-10T13:17:35Z</time></trkpt><trkpt lat="44.008842641691146" lon="4.801119313660166"><ele>30.666666666666668</ele><time>2026-04-10T13:17:36Z</time></trkpt><trkpt lat="44.008683741619734" lon="4.801040939814919"><ele>31.0</ele><time>2026-04-10T13:17:37Z</time></trkpt><trkpt lat="44.008487533353254" lon="4.800921027228645"><ele>34.0</ele><time>2026-04-10T13:17:38Z</time></trkpt><trkpt lat="44.00830738033536" lon="4.800796863693523"><ele>37.0</ele><time>2026-04-10T13:17:39Z</time></trkpt><trkpt lat="44.0081554913581" lon="4.800678321299994"><ele>40.0</ele><time>2026-04-10T13:17:40Z</time></trkpt><trkpt lat="44.00802327044935" lon="4.800538059175939"><ele>40.0</ele><time>2026-04-10T13:17:41Z</time></trkpt><trkpt lat="44.0078810921587" lon="4.8003556284320865"><ele>40.0</ele><time>2026-04-10T13:17:42Z</time></trkpt><trkpt lat="44.007726326710966" lon="4.800130551665468"><ele>40.0</ele><time>2026-04-10T13:17:43Z</time></trkpt><trkpt lat="44.00758744749377" lon="4.799910071000154"><ele>42.66666666666667</ele><time>2026-04-10T13:17:44Z</time></trkpt><trkpt lat="44.00747016398331" lon="4.799722214197981"><ele>45.333333333333336</ele><time>2026-04-10T13:17:45Z</time></trkpt><trkpt lat="44.00736382021762" lon="4.799505738308949"><ele>48.0</ele><time>2026-04-10T13:17:46Z</time></trkpt><trkpt lat="44.00727100374693" lon="4.799254013638495"><ele>48.0</ele><time>2026-04-10T13:17:47Z</time></trkpt><trkpt lat="44.00720820344895" lon="4.799029913809502"><ele>48.0</ele><time>2026-04-10T13:17:48Z</time></trkpt><trkpt lat="44.007163727982615" lon="4.798870613772623"><ele>48.0</ele><time>2026-04-10T13:17:49Z</time></trkpt><trkpt lat="44.00716140327302" lon="4.798732072937882"><ele>48.0</ele><time>2026-04-10T13:17:50Z</time></trkpt><trkpt lat="44.00717714970482" lon="4.798578922141425"><ele>48.66666666666667</ele><time>2026-04-10T13:17:51Z</time></trkpt><trkpt lat="44.00716505375783" lon="4.798381964555943"><ele>49.333333333333336</ele><time>2026-04-10T13:17:52Z</time></trkpt><trkpt lat="44.0071425759918" lon="4.798152913866572"><ele>50.0</ele><time>2026-04-10T13:17:53Z</time></trkpt><trkpt lat="44.007159992093705" lon="4.797900340390628"><ele>50.0</ele><time>2026-04-10T13:17:54Z</time></trkpt><trkpt lat="44.00719716519248" lon="4.797615975886677"><ele>50.0</ele><time>2026-04-10T13:17:55Z</time></trkpt><trkpt lat="44.00720802117878" lon="4.79735858870714"><ele>50.0</ele><time>2026-04-10T13:17:56Z</time></trkpt><trkpt lat="44.00720908270504" lon="4.7971593850183725"><ele>50.0</ele><time>2026-04-10T13:17:57Z</time></trkpt><trkpt lat="44.00719422265978" lon="4.796969454805313"><ele>50.0</ele><time>2026-04-10T13:17:58Z</time></trkpt><trkpt lat="44.007156660280764" lon="4.796785439550539"><ele>50.0</ele><time>2026-04-10T13:17:59Z</time></trkpt><trkpt lat="44.007075359253996" lon="4.796617743151308"><ele>50.0</ele><time>2026-04-10T13:18:00Z</time></trkpt><trkpt lat="44.006971472346926" lon="4.796445287676437"><ele>49.333333333333336</ele><time>2026-04-10T13:18:01Z</time></trkpt><trkpt lat="44.006876846096254" lon="4.796260550124984"><ele>48.66666666666667</ele><time>2026-04-10T13:18:02Z</time></trkpt><trkpt lat="44.00678134607266" lon="4.796069677513998"><ele>48.0</ele><time>2026-04-10T13:18:03Z</time></trkpt><trkpt lat="44.00668978716169" lon="4.795901777533809"><ele>49.75</ele><time>2026-04-10T13:18:04Z</time></trkpt><trkpt lat="44.00661384860459" lon="4.795730792001142"><ele>51.5</ele><time>2026-04-10T13:18:05Z</time></trkpt><trkpt lat="44.00654028289996" lon="4.79555686007938"><ele>53.25</ele><time>2026-04-10T13:18:06Z</time></trkpt><trkpt lat="44.00647015287345" lon="4.795377614143832"><ele>55.0</ele><time>2026-04-10T13:18:07Z</time></trkpt><trkpt lat="44.006398965995665" lon="4.795195815179174"><ele>55.0</ele><time>2026-04-10T13:18:08Z</time></trkpt><trkpt lat="44.00630864728509" lon="4.794978502338853"><ele>55.0</ele><time>2026-04-10T13:18:09Z</time></trkpt><trkpt lat="44.006221006526815" lon="4.794763986544395"><ele>55.0</ele><time>2026-04-10T13:18:10Z</time></trkpt><trkpt lat="44.00614615122149" lon="4.794559703838703"><ele>54.666666666666664</ele><time>2026-04-10T13:18:11Z</time></trkpt><trkpt lat="44.00609014076024" lon="4.7943349579299674"><ele>54.33333333333333</ele><time>2026-04-10T13:18:12Z</time></trkpt><trkpt lat="44.00603958872145" lon="4.794055196466871"><ele>54.0</ele><time>2026-04-10T13:18:13Z</time></trkpt><trkpt lat="44.005982593648355" lon="4.793733619811647"><ele>53.33333333333333</ele><time>2026-04-10T13:18:14Z</time></trkpt><trkpt lat="44.00591221038542" lon="4.793427532636207"><ele>52.666666666666664</ele><time>2026-04-10T13:18:15Z</time></trkpt><trkpt lat="44.00585650101537" lon="4.79316635646354"><ele>52.0</ele><time>2026-04-10T13:18:16Z</time></trkpt><trkpt lat="44.00578760345181" lon="4.792914012350376"><ele>56.0</ele><time>2026-04-10T13:18:17Z</time></trkpt><trkpt lat="44.00569456927613" lon="4.792621980389098"><ele>60.0</ele><time>2026-04-10T13:18:18Z</time></trkpt><trkpt lat="44.00559173045148" lon="4.792343467769879"><ele>60.0</ele><time>2026-04-10T13:18:19Z</time></trkpt><trkpt lat="44.00546943402274" lon="4.792057506850711"><ele>60.0</ele><time>2026-04-10T13:18:20Z</time></trkpt><trkpt lat="44.00535568943155" lon="4.791796880846102"><ele>58.66666666666667</ele><time>2026-04-10T13:18:21Z</time></trkpt><trkpt lat="44.0052518359123" lon="4.791562461708778"><ele>57.333333333333336</ele><time>2026-04-10T13:18:22Z</time></trkpt><trkpt lat="44.005147184561814" lon="4.791323975699754"><ele>56.0</ele><time>2026-04-10T13:18:23Z</time></trkpt><trkpt lat="44.00504052130593" lon="4.791101674025951"><ele>58.333333333333336</ele><time>2026-04-10T13:18:24Z</time></trkpt><trkpt lat="44.00492612694487" lon="4.790882948036078"><ele>60.66666666666667</ele><time>2026-04-10T13:18:25Z</time></trkpt><trkpt lat="44.00482461941951" lon="4.790666032398353"><ele>63.0</ele><time>2026-04-10T13:18:26Z</time></trkpt><trkpt lat="44.004743608361636" lon="4.790438797559963"><ele>63.0</ele><time>2026-04-10T13:18:27Z</time></trkpt><trkpt lat="44.00469848773326" lon="4.790182548145202"><ele>63.0</ele><time>2026-04-10T13:18:28Z</time></trkpt><trkpt lat="44.004686622866025" lon="4.789901709582889"><ele>63.0</ele><time>2026-04-10T13:18:29Z</time></trkpt><trkpt lat="44.00469058194924" lon="4.789582192672448"><ele>61.0</ele><time>2026-04-10T13:18:30Z</time></trkpt><trkpt lat="44.004698378056965" lon="4.789231234155578"><ele>59.0</ele><time>2026-04-10T13:18:31Z</time></trkpt><trkpt lat="44.004715010342615" lon="4.788897516153734"><ele>59.0</ele><time>2026-04-10T13:18:32Z</time></trkpt><trkpt lat="44.004745714416515" lon="4.788577988996464"><ele>59.0</ele><time>2026-04-10T13:18:33Z</time></trkpt><trkpt lat="44.004791590989655" lon="4.7882645382116635"><ele>59.333333333333336</ele><time>2026-04-10T13:18:34Z</time></trkpt><trkpt lat="44.00485589623022" lon="4.787972164455018"><ele>59.66666666666667</ele><time>2026-04-10T13:18:35Z</time></trkpt><trkpt lat="44.00493213014753" lon="4.787716963896933"><ele>60.0</ele><time>2026-04-10T13:18:36Z</time></trkpt><trkpt lat="44.00500549464459" lon="4.787494357618209"><ele>60.0</ele><time>2026-04-10T13:18:37Z</time></trkpt><trkpt lat="44.00505269555694" lon="4.78729233249537"><ele>60.0</ele><time>2026-04-10T13:18:38Z</time></trkpt><trkpt lat="44.005069424322" lon="4.787071564797778"><ele>60.0</ele><time>2026-04-10T13:18:39Z</time></trkpt><trkpt lat="44.005038857730334" lon="4.786828831367795"><ele>60.5</ele><time>2026-04-10T13:18:40Z</time></trkpt><trkpt lat="44.004979836518764" lon="4.786542701639386"><ele>61.0</ele><time>2026-04-10T13:18:41Z</time></trkpt><trkpt lat="44.00492359440485" lon="4.7862102396356"><ele>61.666666666666664</ele><time>2026-04-10T13:18:42Z</time></trkpt><trkpt lat="44.00489073618247" lon="4.785913214982321"><ele>62.33333333333333</ele><time>2026-04-10T13:18:43Z</time></trkpt><trkpt lat="44.004872974892315" lon="4.785660276612352"><ele>63.0</ele><time>2026-04-10T13:18:44Z</time></trkpt><trkpt lat="44.00487617461999" lon="4.785435210918196"><ele>63.0</ele><time>2026-04-10T13:18:45Z</time></trkpt><trkpt lat="44.00489210283499" lon="4.785255429358423"><ele>63.0</ele><time>2026-04-10T13:18:46Z</time></trkpt><trkpt lat="44.00493090342966" lon="4.785101200961204"><ele>63.0</ele><time>2026-04-10T13:18:47Z</time></trkpt><trkpt lat="44.00498173390854" lon="4.7849688459762625"><ele>63.0</ele><time>2026-04-10T13:18:48Z</time></trkpt><trkpt lat="44.005018769186634" lon="4.784842916763258"><ele>63.599999999999994</ele><time>2026-04-10T13:18:49Z</time></trkpt><trkpt lat="44.00504377982799" lon="4.7847212638351095"><ele>64.19999999999999</ele><time>2026-04-10T13:18:50Z</time></trkpt><trkpt lat="44.0050628280911" lon="4.784584771397049"><ele>64.8</ele><time>2026-04-10T13:18:51Z</time></trkpt><trkpt lat="44.00507370984026" lon="4.784429836589969"><ele>65.39999999999999</ele><time>2026-04-10T13:18:52Z</time></trkpt><trkpt lat="44.00508844223516" lon="4.7842574023181745"><ele>66.0</ele><time>2026-04-10T13:18:53Z</time></trkpt><trkpt lat="44.00510484785847" lon="4.784078577488701"><ele>66.0</ele><time>2026-04-10T13:18:54Z</time></trkpt><trkpt lat="44.00511992732418" lon="4.78388899084865"><ele>66.0</ele><time>2026-04-10T13:18:55Z</time></trkpt><trkpt lat="44.00513247113316" lon="4.783706013546333"><ele>66.0</ele><time>2026-04-10T13:18:56Z</time></trkpt><trkpt lat="44.00514410070874" lon="4.783523755644864"><ele>66.0</ele><time>2026-04-10T13:18:57Z</time></trkpt><trkpt lat="44.00515664610497" lon="4.78333796016817"><ele>65.75</ele><time>2026-04-10T13:18:58Z</time></trkpt><trkpt lat="44.00516714651844" lon="4.7831499097780465"><ele>65.5</ele><time>2026-04-10T13:18:59Z</time></trkpt><trkpt lat="44.00517196903246" lon="4.782964508974209"><ele>65.25</ele><time>2026-04-10T13:19:00Z</time></trkpt><trkpt lat="44.005167015409164" lon="4.782780632235947"><ele>65.0</ele><time>2026-04-10T13:19:01Z</time></trkpt><trkpt lat="44.00516245758031" lon="4.782605217366005"><ele>65.0</ele><time>2026-04-10T13:19:02Z</time></trkpt><trkpt lat="44.00515864672975" lon="4.78241092793817"><ele>65.0</ele><time>2026-04-10T13:19:03Z</time></trkpt><trkpt lat="44.00514760253507" lon="4.782217292852814"><ele>65.0</ele><time>2026-04-10T13:19:04Z</time></trkpt><trkpt lat="44.00513499745705" lon="4.78201010085747"><ele>65.0</ele><time>2026-04-10T13:19:05Z</time></trkpt><trkpt lat="44.00512520506793" lon="4.78180066193111"><ele>65.0</ele><time>2026-04-10T13:19:06Z</time></trkpt><trkpt lat="44.00511630039074" lon="4.781592951310368"><ele>65.0</ele><time>2026-04-10T13:19:07Z</time></trkpt><trkpt lat="44.00511303429045" lon="4.781384827973876"><ele>65.0</ele><time>2026-04-10T13:19:08Z</time></trkpt><trkpt lat="44.00510875056559" lon="4.781176210071775"><ele>65.0</ele><time>2026-04-10T13:19:09Z</time></trkpt><trkpt lat="44.005115646881315" lon="4.7809835675560794"><ele>65.25</ele><time>2026-04-10T13:19:10Z</time></trkpt><trkpt lat="44.00512372547547" lon="4.780794110450478"><ele>65.5</ele><time>2026-04-10T13:19:11Z</time></trkpt><trkpt lat="44.00512372248352" lon="4.780604179647205"><ele>65.75</ele><time>2026-04-10T13:19:12Z</time></trkpt><trkpt lat="44.0051225212574" lon="4.780384966818678"><ele>66.0</ele><time>2026-04-10T13:19:13Z</time></trkpt><trkpt lat="44.00513077391429" lon="4.780152322158844"><ele>66.33333333333333</ele><time>2026-04-10T13:19:14Z</time></trkpt><trkpt lat="44.005136922681984" lon="4.7799281608479065"><ele>66.66666666666666</ele><time>2026-04-10T13:19:15Z</time></trkpt><trkpt lat="44.00512897573642" lon="4.779694311217565"><ele>67.0</ele><time>2026-04-10T13:19:16Z</time></trkpt><trkpt lat="44.005119803698015" lon="4.779460541029253"><ele>66.66666666666666</ele><time>2026-04-10T13:19:17Z</time></trkpt><trkpt lat="44.00511636218821" lon="4.779237852878854"><ele>66.33333333333333</ele><time>2026-04-10T13:19:18Z</time></trkpt><trkpt lat="44.0051000730795" lon="4.779032022308713"><ele>66.0</ele><time>2026-04-10T13:19:19Z</time></trkpt><trkpt lat="44.00508567763838" lon="4.778837517824749"><ele>66.0</ele><time>2026-04-10T13:19:20Z</time></trkpt><trkpt lat="44.00506687540397" lon="4.7786510332688295"><ele>66.0</ele><time>2026-04-10T13:19:21Z</time></trkpt><trkpt lat="44.00504634335382" lon="4.778468960299884"><ele>66.0</ele><time>2026-04-10T13:19:22Z</time></trkpt><trkpt lat="44.00502076012332" lon="4.7782901381523795"><ele>66.0</ele><time>2026-04-10T13:19:23Z</time></trkpt><trkpt lat="44.004987373951984" lon="4.7781142803643375"><ele>66.0</ele><time>2026-04-10T13:19:24Z</time></trkpt><trkpt lat="44.00495286704002" lon="4.777956268698946"><ele>66.0</ele><time>2026-04-10T13:19:25Z</time></trkpt><trkpt lat="44.004935133301224" lon="4.777822551474368"><ele>66.0</ele><time>2026-04-10T13:19:26Z</time></trkpt><trkpt lat="44.00493582154998" lon="4.7776745168345025"><ele>66.0</ele><time>2026-04-10T13:19:27Z</time></trkpt><trkpt lat="44.00492760454501" lon="4.777497770547394"><ele>66.0</ele><time>2026-04-10T13:19:28Z</time></trkpt><trkpt lat="44.004924807823684" lon="4.777338724460137"><ele>66.0</ele><time>2026-04-10T13:19:29Z</time></trkpt><trkpt lat="44.00492292211873" lon="4.777191168077685"><ele>66.0</ele><time>2026-04-10T13:19:30Z</time></trkpt><trkpt lat="44.00492140034461" lon="4.777062571560603"><ele>66.0</ele><time>2026-04-10T13:19:31Z</time></trkpt><trkpt lat="44.00492085996642" lon="4.7769662956642085"><ele>66.0</ele><time>2026-04-10T13:19:32Z</time></trkpt><trkpt lat="44.004923365212406" lon="4.776857066641399"><ele>66.0</ele><time>2026-04-10T13:19:34Z</time></trkpt><trkpt lat="44.00473462391421" lon="4.776861368567327"><ele>66.0</ele><time>2026-04-10T13:19:37Z</time></trkpt><trkpt lat="44.00459055346326" lon="4.776884838774993"><ele>66.0</ele><time>2026-04-10T13:19:38Z</time></trkpt><trkpt lat="44.004445359669894" lon="4.776922939006363"><ele>66.0</ele><time>2026-04-10T13:19:39Z</time></trkpt><trkpt lat="44.00428720464734" lon="4.776965531877894"><ele>66.0</ele><time>2026-04-10T13:19:40Z</time></trkpt><trkpt lat="44.00410172719727" lon="4.776988116676905"><ele>66.0</ele><time>2026-04-10T13:19:41Z</time></trkpt><trkpt lat="44.00395109225318" lon="4.776987986241339"><ele>65.25</ele><time>2026-04-10T13:19:42Z</time></trkpt><trkpt lat="44.003819857140954" lon="4.776993414018418"><ele>64.5</ele><time>2026-04-10T13:19:43Z</time></trkpt><trkpt lat="44.00369385500214" lon="4.776997979319393"><ele>63.75</ele><time>2026-04-10T13:19:44Z</time></trkpt><trkpt lat="44.00356644853495" lon="4.777002097655654"><ele>63.0</ele><time>2026-04-10T13:19:45Z</time></trkpt><trkpt lat="44.0034539528277" lon="4.77698989296799"><ele>63.0</ele><time>2026-04-10T13:19:46Z</time></trkpt><trkpt lat="44.003357470009995" lon="4.776991446776109"><ele>63.0</ele><time>2026-04-10T13:19:47Z</time></trkpt><trkpt lat="44.00325286758593" lon="4.776987313485101"><ele>63.0</ele><time>2026-04-10T13:19:48Z</time></trkpt><trkpt lat="44.003133460463374" lon="4.776970179366557"><ele>63.0</ele><time>2026-04-10T13:19:49Z</time></trkpt><trkpt lat="44.003005257799416" lon="4.776953650277585"><ele>62.0</ele><time>2026-04-10T13:19:50Z</time></trkpt><trkpt lat="44.002876289202206" lon="4.776942630967633"><ele>61.0</ele><time>2026-04-10T13:19:51Z</time></trkpt><trkpt lat="44.002754525318345" lon="4.776931186158687"><ele>60.0</ele><time>2026-04-10T13:19:52Z</time></trkpt><trkpt lat="44.002644972745095" lon="4.776913536804541"><ele>59.0</ele><time>2026-04-10T13:19:53Z</time></trkpt><trkpt lat="44.002547537167366" lon="4.7768951011237695"><ele>59.0</ele><time>2026-04-10T13:19:54Z</time></trkpt><trkpt lat="44.00247946646653" lon="4.7768776375218405"><ele>59.00000000000001</ele><time>2026-04-10T13:19:55Z</time></trkpt><trkpt lat="44.002414530048746" lon="4.776814076058167"><ele>59.00000000000001</ele><time>2026-04-10T13:19:57Z</time></trkpt><trkpt lat="44.002394535661104" lon="4.776668805835578"><ele>59.0</ele><time>2026-04-10T13:19:59Z</time></trkpt><trkpt lat="44.0024896322402" lon="4.776593821494003"><ele>59.0</ele><time>2026-04-10T13:20:00Z</time></trkpt><trkpt lat="44.00254067650111" lon="4.776488868337507"><ele>59.00000000000001</ele><time>2026-04-10T13:20:01Z</time></trkpt><trkpt lat="44.00260306285357" lon="4.776389658373965"><ele>59.0</ele><time>2026-04-10T13:20:02Z</time></trkpt><trkpt lat="44.00265677951124" lon="4.776293108300542"><ele>59.0</ele><time>2026-04-10T13:20:03Z</time></trkpt><trkpt lat="44.002704915230225" lon="4.77619343739039"><ele>59.0</ele><time>2026-04-10T13:20:04Z</time></trkpt><trkpt lat="44.002747251598805" lon="4.776105532418291"><ele>59.00000000000001</ele><time>2026-04-10T13:20:05Z</time></trkpt><trkpt lat="44.00278381557677" lon="4.776032450609941"><ele>59.0</ele><time>2026-04-10T13:20:06Z</time></trkpt><trkpt lat="44.00283475978361" lon="4.7759343435659645"><ele>59.25</ele><time>2026-04-10T13:20:07Z</time></trkpt><trkpt lat="44.00290418408199" lon="4.775794208686121"><ele>59.5</ele><time>2026-04-10T13:20:08Z</time></trkpt><trkpt lat="44.00299472700194" lon="4.775601164385965"><ele>59.75</ele><time>2026-04-10T13:20:09Z</time></trkpt><trkpt lat="44.00307107622841" lon="4.775438575274599"><ele>60.0</ele><time>2026-04-10T13:20:10Z</time></trkpt><trkpt lat="44.00314516851417" lon="4.7752936282926814"><ele>59.75</ele><time>2026-04-10T13:20:11Z</time></trkpt><trkpt lat="44.0032194491174" lon="4.775150969201061"><ele>59.5</ele><time>2026-04-10T13:20:12Z</time></trkpt><trkpt lat="44.0032863304693" lon="4.775018318170123"><ele>59.25</ele><time>2026-04-10T13:20:13Z</time></trkpt><trkpt lat="44.00334685340192" lon="4.7748863639617"><ele>59.0</ele><time>2026-04-10T13:20:14Z</time></trkpt><trkpt lat="44.00340607410502" lon="4.774763309385358"><ele>59.800000000000004</ele><time>2026-04-10T13:20:15Z</time></trkpt><trkpt lat="44.00345922568506" lon="4.774665813053033"><ele>60.60000000000001</ele><time>2026-04-10T13:20:16Z</time></trkpt><trkpt lat="44.00350407342162" lon="4.774587216215098"><ele>61.4</ele><time>2026-04-10T13:20:17Z</time></trkpt><trkpt lat="44.003572444035996" lon="4.774461818450793"><ele>62.2</ele><time>2026-04-10T13:20:19Z</time></trkpt><trkpt lat="44.0036135932355" lon="4.774363973903578"><ele>63.0</ele><time>2026-04-10T13:20:25Z</time></trkpt><trkpt lat="44.00367260407509" lon="4.7742306659005305"><ele>63.0</ele><time>2026-04-10T13:20:26Z</time></trkpt><trkpt lat="44.00372682865606" lon="4.774094461549157"><ele>63.0</ele><time>2026-04-10T13:20:27Z</time></trkpt><trkpt lat="44.00379329284916" lon="4.773894713424509"><ele>63.0</ele><time>2026-04-10T13:20:28Z</time></trkpt><trkpt lat="44.00386428154298" lon="4.773690047384967"><ele>63.0</ele><time>2026-04-10T13:20:29Z</time></trkpt><trkpt lat="44.00393252533818" lon="4.773479700642928"><ele>62.25</ele><time>2026-04-10T13:20:30Z</time></trkpt><trkpt lat="44.00399272762574" lon="4.773306602709335"><ele>61.5</ele><time>2026-04-10T13:20:31Z</time></trkpt><trkpt lat="44.004043662395915" lon="4.773154529925931"><ele>60.75</ele><time>2026-04-10T13:20:32Z</time></trkpt><trkpt lat="44.004094333951016" lon="4.773011953740715"><ele>60.0</ele><time>2026-04-10T13:20:33Z</time></trkpt><trkpt lat="44.00414487013586" lon="4.772862851234112"><ele>61.2</ele><time>2026-04-10T13:20:34Z</time></trkpt><trkpt lat="44.004195608763624" lon="4.772719447327522"><ele>62.4</ele><time>2026-04-10T13:20:35Z</time></trkpt><trkpt lat="44.00424304750655" lon="4.7725883872896935"><ele>63.599999999999994</ele><time>2026-04-10T13:20:36Z</time></trkpt><trkpt lat="44.00427941396609" lon="4.772485865282965"><ele>64.8</ele><time>2026-04-10T13:20:37Z</time></trkpt><trkpt lat="44.00432015845022" lon="4.772379647596234"><ele>66.0</ele><time>2026-04-10T13:20:39Z</time></trkpt><trkpt lat="44.00438169373959" lon="4.772243158421151"><ele>66.0</ele><time>2026-04-10T13:20:45Z</time></trkpt><trkpt lat="44.004441906275325" lon="4.772105371520047"><ele>66.0</ele><time>2026-04-10T13:20:46Z</time></trkpt><trkpt lat="44.004479583491865" lon="4.771961110412698"><ele>66.0</ele><time>2026-04-10T13:20:47Z</time></trkpt><trkpt lat="44.00453340219992" lon="4.771825505555469"><ele>66.0</ele><time>2026-04-10T13:20:48Z</time></trkpt><trkpt lat="44.00459270315183" lon="4.771730579961539"><ele>66.0</ele><time>2026-04-10T13:20:49Z</time></trkpt><trkpt lat="44.00462753163665" lon="4.771656935001834"><ele>65.6</ele><time>2026-04-10T13:20:50Z</time></trkpt><trkpt lat="44.004654077362474" lon="4.771571618407325"><ele>65.19999999999999</ele><time>2026-04-10T13:20:52Z</time></trkpt><trkpt lat="44.00470820954508" lon="4.7714966880772804"><ele>64.80000000000001</ele><time>2026-04-10T13:21:00Z</time></trkpt><trkpt lat="44.00462317439539" lon="4.771392148130219"><ele>64.4</ele><time>2026-04-10T13:21:01Z</time></trkpt><trkpt lat="44.00454041320516" lon="4.7713488316596635"><ele>64.0</ele><time>2026-04-10T13:21:02Z</time></trkpt><trkpt lat="44.00444881423661" lon="4.7712762820534405"><ele>64.0</ele><time>2026-04-10T13:21:03Z</time></trkpt><trkpt lat="44.004336580746454" lon="4.771211009687658"><ele>64.0</ele><time>2026-04-10T13:21:04Z</time></trkpt><trkpt lat="44.004205172826246" lon="4.771100044252119"><ele>64.0</ele><time>2026-04-10T13:21:05Z</time></trkpt><trkpt lat="44.00406934076151" lon="4.770999737564763"><ele>64.0</ele><time>2026-04-10T13:21:06Z</time></trkpt><trkpt lat="44.00395061498896" lon="4.77090526429959"><ele>61.5</ele><time>2026-04-10T13:21:07Z</time></trkpt><trkpt lat="44.003843610418365" lon="4.770813676778774"><ele>59.0</ele><time>2026-04-10T13:21:08Z</time></trkpt><trkpt lat="44.00373678099965" lon="4.7707271996023755"><ele>56.5</ele><time>2026-04-10T13:21:09Z</time></trkpt><trkpt lat="44.00364595473421" lon="4.770622599120998"><ele>54.0</ele><time>2026-04-10T13:21:10Z</time></trkpt><trkpt lat="44.00355463201713" lon="4.770536424749228"><ele>54.0</ele><time>2026-04-10T13:21:11Z</time></trkpt><trkpt lat="44.00346046319101" lon="4.7704475647213"><ele>54.00000000000001</ele><time>2026-04-10T13:21:12Z</time></trkpt><trkpt lat="44.00336890032603" lon="4.770376348694794"><ele>54.00000000000001</ele><time>2026-04-10T13:21:13Z</time></trkpt><trkpt lat="44.00328553695121" lon="4.770294655693408"><ele>54.0</ele><time>2026-04-10T13:21:14Z</time></trkpt><trkpt lat="44.003196841840605" lon="4.770227107126654"><ele>54.0</ele><time>2026-04-10T13:21:15Z</time></trkpt><trkpt lat="44.0031390496574" lon="4.770181643077738"><ele>53.0</ele><time>2026-04-10T13:21:16Z</time></trkpt><trkpt lat="44.0030823731134" lon="4.770122665028414"><ele>52.00000000000001</ele><time>2026-04-10T13:21:29Z</time></trkpt><trkpt lat="44.003026702146336" lon="4.770056394576667"><ele>51.0</ele><time>2026-04-10T13:21:30Z</time></trkpt><trkpt lat="44.00296369196318" lon="4.76997763877724"><ele>50.0</ele><time>2026-04-10T13:21:32Z</time></trkpt><trkpt lat="44.003045212321034" lon="4.769810940032194"><ele>49.0</ele><time>2026-04-10T13:21:34Z</time></trkpt><trkpt lat="44.00312099731674" lon="4.769665178540068"><ele>49.0</ele><time>2026-04-10T13:21:36Z</time></trkpt><trkpt lat="44.00316916337978" lon="4.76958859010664"><ele>49.0</ele><time>2026-04-10T13:21:37Z</time></trkpt><trkpt lat="44.00320912682098" lon="4.769510605153749"><ele>49.0</ele><time>2026-04-10T13:21:38Z</time></trkpt><trkpt lat="44.00327291030987" lon="4.769429668430107"><ele>49.0</ele><time>2026-04-10T13:21:40Z</time></trkpt><trkpt lat="44.003151498136866" lon="4.769288240807224"><ele>49.0</ele><time>2026-04-10T13:21:41Z</time></trkpt><trkpt lat="44.0030829697813" lon="4.769211558108112"><ele>48.6</ele><time>2026-04-10T13:21:42Z</time></trkpt><trkpt lat="44.00302368216243" lon="4.76911507356597"><ele>48.2</ele><time>2026-04-10T13:21:43Z</time></trkpt><trkpt lat="44.00298707708428" lon="4.769009530499063"><ele>47.800000000000004</ele><time>2026-04-10T13:21:44Z</time></trkpt><trkpt lat="44.00296257419163" lon="4.768878576792868"><ele>47.400000000000006</ele><time>2026-04-10T13:21:45Z</time></trkpt><trkpt lat="44.00296133448189" lon="4.768699454792312"><ele>47.0</ele><time>2026-04-10T13:21:46Z</time></trkpt><trkpt lat="44.0029450404607" lon="4.768511105708988"><ele>46.75</ele><time>2026-04-10T13:21:47Z</time></trkpt><trkpt lat="44.00292917650474" lon="4.768327728008408"><ele>46.5</ele><time>2026-04-10T13:21:48Z</time></trkpt><trkpt lat="44.002911256476246" lon="4.768134979686826"><ele>46.25</ele><time>2026-04-10T13:21:49Z</time></trkpt><trkpt lat="44.00286976227693" lon="4.767902726258593"><ele>46.0</ele><time>2026-04-10T13:21:50Z</time></trkpt><trkpt lat="44.002840403811376" lon="4.7676727636658685"><ele>46.0</ele><time>2026-04-10T13:21:51Z</time></trkpt><trkpt lat="44.00281818525882" lon="4.767466777761448"><ele>46.0</ele><time>2026-04-10T13:21:52Z</time></trkpt><trkpt lat="44.00278817343095" lon="4.7672311392161815"><ele>46.0</ele><time>2026-04-10T13:21:53Z</time></trkpt><trkpt lat="44.00273475389737" lon="4.767007934792272"><ele>45.66666666666667</ele><time>2026-04-10T13:21:54Z</time></trkpt><trkpt lat="44.00269578835562" lon="4.766787545689213"><ele>45.333333333333336</ele><time>2026-04-10T13:21:55Z</time></trkpt><trkpt lat="44.00265894521573" lon="4.766571447345048"><ele>45.0</ele><time>2026-04-10T13:21:56Z</time></trkpt><trkpt lat="44.00262396362052" lon="4.766368327981301"><ele>45.0</ele><time>2026-04-10T13:21:57Z</time></trkpt><trkpt lat="44.00259821981986" lon="4.7661606346695295"><ele>45.0</ele><time>2026-04-10T13:21:58Z</time></trkpt><trkpt lat="44.00255980286237" lon="4.765962227625053"><ele>45.0</ele><time>2026-04-10T13:21:59Z</time></trkpt><trkpt lat="44.002525649371876" lon="4.765761201317575"><ele>45.0</ele><time>2026-04-10T13:22:00Z</time></trkpt><trkpt lat="44.00248798003595" lon="4.765561278170934"><ele>45.0</ele><time>2026-04-10T13:22:01Z</time></trkpt><trkpt lat="44.00248089813873" lon="4.765334051125226"><ele>45.0</ele><time>2026-04-10T13:22:02Z</time></trkpt><trkpt lat="44.00245531994706" lon="4.765090403987054"><ele>45.0</ele><time>2026-04-10T13:22:03Z</time></trkpt><trkpt lat="44.00243536119353" lon="4.764845985808471"><ele>45.0</ele><time>2026-04-10T13:22:04Z</time></trkpt><trkpt lat="44.00242156312054" lon="4.7646187923338665"><ele>45.0</ele><time>2026-04-10T13:22:05Z</time></trkpt><trkpt lat="44.002412045382236" lon="4.764374853072029"><ele>45.0</ele><time>2026-04-10T13:22:06Z</time></trkpt><trkpt lat="44.00239120763526" lon="4.764105643868017"><ele>44.666666666666664</ele><time>2026-04-10T13:22:07Z</time></trkpt><trkpt lat="44.002383762898546" lon="4.763852607474248"><ele>44.33333333333333</ele><time>2026-04-10T13:22:08Z</time></trkpt><trkpt lat="44.00238166804096" lon="4.763610347386722"><ele>44.0</ele><time>2026-04-10T13:22:09Z</time></trkpt><trkpt lat="44.00240551311466" lon="4.7633670188900945"><ele>44.0</ele><time>2026-04-10T13:22:10Z</time></trkpt><trkpt lat="44.002410148448575" lon="4.763130023219422"><ele>44.0</ele><time>2026-04-10T13:22:11Z</time></trkpt><trkpt lat="44.00239814285929" lon="4.762910273431089"><ele>44.0</ele><time>2026-04-10T13:22:12Z</time></trkpt><trkpt lat="44.00240414794853" lon="4.7626789917367605"><ele>44.0</ele><time>2026-04-10T13:22:13Z</time></trkpt><trkpt lat="44.00239996392356" lon="4.762458549309283"><ele>44.0</ele><time>2026-04-10T13:22:14Z</time></trkpt><trkpt lat="44.002393319039484" lon="4.762280230095278"><ele>44.0</ele><time>2026-04-10T13:22:15Z</time></trkpt><trkpt lat="44.00238790635545" lon="4.762132644484997"><ele>44.0</ele><time>2026-04-10T13:22:16Z</time></trkpt><trkpt lat="44.00238032820104" lon="4.76200471964042"><ele>44.0</ele><time>2026-04-10T13:22:17Z</time></trkpt><trkpt lat="44.00236079042023" lon="4.761891990964218"><ele>44.0</ele><time>2026-04-10T13:22:18Z</time></trkpt><trkpt lat="44.00233227990501" lon="4.7617872048216086"><ele>44.0</ele><time>2026-04-10T13:22:19Z</time></trkpt><trkpt lat="44.002284855376466" lon="4.761633476649223"><ele>44.0</ele><time>2026-04-10T13:22:20Z</time></trkpt><trkpt lat="44.00218970449102" lon="4.761396864281303"><ele>43.666666666666664</ele><time>2026-04-10T13:22:21Z</time></trkpt><trkpt lat="44.00213639025691" lon="4.7611384049448935"><ele>43.333333333333336</ele><time>2026-04-10T13:22:22Z</time></trkpt><trkpt lat="44.00208462521941" lon="4.760885726633006"><ele>43.0</ele><time>2026-04-10T13:22:23Z</time></trkpt><trkpt lat="44.00202851093938" lon="4.76064936915122"><ele>43.0</ele><time>2026-04-10T13:22:24Z</time></trkpt><trkpt lat="44.001959877799244" lon="4.760450659260021"><ele>43.0</ele><time>2026-04-10T13:22:25Z</time></trkpt><trkpt lat="44.001899282424986" lon="4.760238133803547"><ele>43.0</ele><time>2026-04-10T13:22:26Z</time></trkpt><trkpt lat="44.00184713590419" lon="4.75999807631547"><ele>43.0</ele><time>2026-04-10T13:22:27Z</time></trkpt><trkpt lat="44.00178300957448" lon="4.759769944511646"><ele>43.0</ele><time>2026-04-10T13:22:28Z</time></trkpt><trkpt lat="44.001716306691755" lon="4.759532646558703"><ele>43.0</ele><time>2026-04-10T13:22:29Z</time></trkpt><trkpt lat="44.001625964568284" lon="4.75927020133069"><ele>43.0</ele><time>2026-04-10T13:22:30Z</time></trkpt><trkpt lat="44.001552890724746" lon="4.759009311880266"><ele>43.0</ele><time>2026-04-10T13:22:31Z</time></trkpt><trkpt lat="44.001477676055764" lon="4.758773152171225"><ele>43.0</ele><time>2026-04-10T13:22:32Z</time></trkpt><trkpt lat="44.001400740995905" lon="4.7585492234891955"><ele>43.333333333333336</ele><time>2026-04-10T13:22:33Z</time></trkpt><trkpt lat="44.001353058050626" lon="4.758307787768469"><ele>43.666666666666664</ele><time>2026-04-10T13:22:34Z</time></trkpt><trkpt lat="44.00130811061284" lon="4.758057351404576"><ele>44.0</ele><time>2026-04-10T13:22:35Z</time></trkpt><trkpt lat="44.001263564814" lon="4.757784200847962"><ele>44.666666666666664</ele><time>2026-04-10T13:22:36Z</time></trkpt><trkpt lat="44.001220205029874" lon="4.7575116615789135"><ele>45.333333333333336</ele><time>2026-04-10T13:22:37Z</time></trkpt><trkpt lat="44.00116518858133" lon="4.757275552728037"><ele>46.0</ele><time>2026-04-10T13:22:38Z</time></trkpt><trkpt lat="44.00112692280386" lon="4.757039202312493"><ele>45.5</ele><time>2026-04-10T13:22:39Z</time></trkpt><trkpt lat="44.00109493263003" lon="4.756840919250313"><ele>45.0</ele><time>2026-04-10T13:22:40Z</time></trkpt><trkpt lat="44.00106380695154" lon="4.75666661853886"><ele>44.5</ele><time>2026-04-10T13:22:41Z</time></trkpt><trkpt lat="44.00105183568929" lon="4.7564956227498865"><ele>44.0</ele><time>2026-04-10T13:22:42Z</time></trkpt><trkpt lat="44.00103677099448" lon="4.756357891443478"><ele>44.0</ele><time>2026-04-10T13:22:43Z</time></trkpt><trkpt lat="44.00104031188898" lon="4.7562352838350845"><ele>44.0</ele><time>2026-04-10T13:22:44Z</time></trkpt><trkpt lat="44.0010559577112" lon="4.75611061240385"><ele>44.0</ele><time>2026-04-10T13:22:45Z</time></trkpt><trkpt lat="44.001104335729835" lon="4.755993598547064"><ele>44.0</ele><time>2026-04-10T13:22:46Z</time></trkpt><trkpt lat="44.001166448718756" lon="4.755845353972545"><ele>44.0</ele><time>2026-04-10T13:22:47Z</time></trkpt><trkpt lat="44.00124725568837" lon="4.755663869079836"><ele>44.0</ele><time>2026-04-10T13:22:48Z</time></trkpt><trkpt lat="44.00133222496705" lon="4.755471317569104"><ele>44.0</ele><time>2026-04-10T13:22:49Z</time></trkpt><trkpt lat="44.00145421569412" lon="4.755193780031748"><ele>44.0</ele><time>2026-04-10T13:22:50Z</time></trkpt><trkpt lat="44.00155977304781" lon="4.754953629569534"><ele>44.0</ele><time>2026-04-10T13:22:51Z</time></trkpt><trkpt lat="44.00166232417032" lon="4.754720193144544"><ele>44.0</ele><time>2026-04-10T13:22:52Z</time></trkpt><trkpt lat="44.00176237669674" lon="4.754491404734469"><ele>44.0</ele><time>2026-04-10T13:22:53Z</time></trkpt><trkpt lat="44.00185216205932" lon="4.754286094121287"><ele>44.25</ele><time>2026-04-10T13:22:54Z</time></trkpt><trkpt lat="44.00192456010798" lon="4.754118500443258"><ele>44.5</ele><time>2026-04-10T13:22:55Z</time></trkpt><trkpt lat="44.00200500345743" lon="4.753932081336134"><ele>44.75</ele><time>2026-04-10T13:22:56Z</time></trkpt><trkpt lat="44.00208160521754" lon="4.753749111757546"><ele>45.0</ele><time>2026-04-10T13:22:57Z</time></trkpt><trkpt lat="44.002155225325275" lon="4.753557803781792"><ele>44.666666666666664</ele><time>2026-04-10T13:22:58Z</time></trkpt><trkpt lat="44.00222846666047" lon="4.75336356619086"><ele>44.33333333333333</ele><time>2026-04-10T13:22:59Z</time></trkpt><trkpt lat="44.00230856035586" lon="4.7531483561195085"><ele>44.0</ele><time>2026-04-10T13:23:00Z</time></trkpt><trkpt lat="44.00238464814965" lon="4.752943035236121"><ele>44.0</ele><time>2026-04-10T13:23:01Z</time></trkpt><trkpt lat="44.002453747705324" lon="4.752755867678305"><ele>44.0</ele><time>2026-04-10T13:23:02Z</time></trkpt><trkpt lat="44.00251072093577" lon="4.752599162432197"><ele>44.0</ele><time>2026-04-10T13:23:03Z</time></trkpt><trkpt lat="44.00255787589007" lon="4.752455537201243"><ele>44.0</ele><time>2026-04-10T13:23:04Z</time></trkpt><trkpt lat="44.002587244963536" lon="4.752350494623384"><ele>44.0</ele><time>2026-04-10T13:23:05Z</time></trkpt><trkpt lat="44.00259846395017" lon="4.752214479444625"><ele>44.0</ele><time>2026-04-10T13:23:06Z</time></trkpt><trkpt lat="44.002609315569885" lon="4.752114456799419"><ele>44.0</ele><time>2026-04-10T13:23:07Z</time></trkpt><trkpt lat="44.002611221182555" lon="4.752012844222271"><ele>44.0</ele><time>2026-04-10T13:23:08Z</time></trkpt><trkpt lat="44.00259930386957" lon="4.751906570057341"><ele>44.0</ele><time>2026-04-10T13:23:09Z</time></trkpt><trkpt lat="44.00257072748522" lon="4.751797835481166"><ele>44.0</ele><time>2026-04-10T13:23:10Z</time></trkpt><trkpt lat="44.00251115364388" lon="4.751692417683859"><ele>44.0</ele><time>2026-04-10T13:23:11Z</time></trkpt><trkpt lat="44.00241522288088" lon="4.7515934228521"><ele>44.0</ele><time>2026-04-10T13:23:12Z</time></trkpt><trkpt lat="44.00228237416161" lon="4.75149326636209"><ele>44.0</ele><time>2026-04-10T13:23:13Z</time></trkpt><trkpt lat="44.002119490600016" lon="4.751374319045017"><ele>44.0</ele><time>2026-04-10T13:23:14Z</time></trkpt><trkpt lat="44.00194381394035" lon="4.751228920277779"><ele>44.0</ele><time>2026-04-10T13:23:15Z</time></trkpt><trkpt lat="44.001746356712225" lon="4.751055888002784"><ele>44.0</ele><time>2026-04-10T13:23:16Z</time></trkpt><trkpt lat="44.00156493077337" lon="4.750864674912434"><ele>44.0</ele><time>2026-04-10T13:23:17Z</time></trkpt><trkpt lat="44.00137977930788" lon="4.750700007813096"><ele>44.0</ele><time>2026-04-10T13:23:18Z</time></trkpt><trkpt lat="44.00119970731575" lon="4.750539859903818"><ele>44.0</ele><time>2026-04-10T13:23:19Z</time></trkpt><trkpt lat="44.001021831081786" lon="4.75038079539262"><ele>44.0</ele><time>2026-04-10T13:23:20Z</time></trkpt><trkpt lat="44.000857035690885" lon="4.7502296446257395"><ele>44.0</ele><time>2026-04-10T13:23:21Z</time></trkpt><trkpt lat="44.00070456374192" lon="4.750089680583554"><ele>44.0</ele><time>2026-04-10T13:23:22Z</time></trkpt><trkpt lat="44.00056908332191" lon="4.74996471671245"><ele>44.5</ele><time>2026-04-10T13:23:23Z</time></trkpt><trkpt lat="44.00044548949964" lon="4.749850716871447"><ele>45.0</ele><time>2026-04-10T13:23:24Z</time></trkpt><trkpt lat="44.000341203774816" lon="4.749754526136767"><ele>45.5</ele><time>2026-04-10T13:23:25Z</time></trkpt><trkpt lat="44.00024758564284" lon="4.7496707849363675"><ele>46.0</ele><time>2026-04-10T13:23:26Z</time></trkpt><trkpt lat="44.000170705042954" lon="4.749602831766131"><ele>46.0</ele><time>2026-04-10T13:23:27Z</time></trkpt><trkpt lat="44.00009352565471" lon="4.749535903526758"><ele>46.0</ele><time>2026-04-10T13:23:28Z</time></trkpt><trkpt lat="44.000021429184024" lon="4.749473383152667"><ele>46.0</ele><time>2026-04-10T13:23:29Z</time></trkpt><trkpt lat="43.999960745553864" lon="4.749420759766204"><ele>46.0</ele><time>2026-04-10T13:23:30Z</time></trkpt><trkpt lat="43.999901501140315" lon="4.749369276603635"><ele>46.0</ele><time>2026-04-10T13:23:32Z</time></trkpt><trkpt lat="43.99974214644058" lon="4.749263696580432"><ele>45.0</ele><time>2026-04-10T13:28:50Z</time></trkpt><trkpt lat="43.99961599554952" lon="4.749144217144381"><ele>44.0</ele><time>2026-04-10T13:28:51Z</time></trkpt><trkpt lat="43.99948618706385" lon="4.748996987324561"><ele>43.0</ele><time>2026-04-10T13:28:52Z</time></trkpt><trkpt lat="43.999316196313195" lon="4.7488434118149785"><ele>43.333333333333336</ele><time>2026-04-10T13:28:53Z</time></trkpt><trkpt lat="43.99914196561624" lon="4.7486860057910105"><ele>43.666666666666664</ele><time>2026-04-10T13:28:54Z</time></trkpt><trkpt lat="43.9989631925769" lon="4.748524495949845"><ele>44.0</ele><time>2026-04-10T13:28:55Z</time></trkpt><trkpt lat="43.99876978449153" lon="4.7483482732717945"><ele>44.5</ele><time>2026-04-10T13:28:56Z</time></trkpt><trkpt lat="43.998578058650274" lon="4.748172701702959"><ele>45.0</ele><time>2026-04-10T13:28:57Z</time></trkpt><trkpt lat="43.99838048764326" lon="4.747991777961844"><ele>44.5</ele><time>2026-04-10T13:28:58Z</time></trkpt><trkpt lat="43.99817465267076" lon="4.747807655963198"><ele>44.0</ele><time>2026-04-10T13:28:59Z</time></trkpt><trkpt lat="43.99798161295566" lon="4.747637268046235"><ele>44.0</ele><time>2026-04-10T13:29:00Z</time></trkpt><trkpt lat="43.99780850178005" lon="4.747479494999787"><ele>44.0</ele><time>2026-04-10T13:29:01Z</time></trkpt><trkpt lat="43.99763828802315" lon="4.747324362622135"><ele>44.0</ele><time>2026-04-10T13:29:02Z</time></trkpt><trkpt lat="43.99747160972541" lon="4.747172452558242"><ele>44.0</ele><time>2026-04-10T13:29:03Z</time></trkpt><trkpt lat="43.99730358831338" lon="4.747019318222695"><ele>44.0</ele><time>2026-04-10T13:29:04Z</time></trkpt><trkpt lat="43.99714195821717" lon="4.746872902636725"><ele>44.0</ele><time>2026-04-10T13:29:05Z</time></trkpt><trkpt lat="43.99697519910273" lon="4.746723426049004"><ele>43.666666666666664</ele><time>2026-04-10T13:29:06Z</time></trkpt><trkpt lat="43.9967999798695" lon="4.746566365996527"><ele>43.333333333333336</ele><time>2026-04-10T13:29:07Z</time></trkpt><trkpt lat="43.996621895322505" lon="4.746406788212281"><ele>43.0</ele><time>2026-04-10T13:29:08Z</time></trkpt><trkpt lat="43.996451139231255" lon="4.7462537991357365"><ele>43.0</ele><time>2026-04-10T13:29:09Z</time></trkpt><trkpt lat="43.99629318279201" lon="4.746112277763118"><ele>43.0</ele><time>2026-04-10T13:29:10Z</time></trkpt><trkpt lat="43.99615143904701" lon="4.7459837617254905"><ele>43.0</ele><time>2026-04-10T13:29:11Z</time></trkpt><trkpt lat="43.99601565685452" lon="4.74586003143168"><ele>43.0</ele><time>2026-04-10T13:29:12Z</time></trkpt><trkpt lat="43.99586986082072" lon="4.745727176645542"><ele>43.0</ele><time>2026-04-10T13:29:13Z</time></trkpt><trkpt lat="43.99573181060318" lon="4.745601379583027"><ele>43.0</ele><time>2026-04-10T13:29:14Z</time></trkpt><trkpt lat="43.99560923814827" lon="4.745491634797836"><ele>42.75</ele><time>2026-04-10T13:29:15Z</time></trkpt><trkpt lat="43.995499717239994" lon="4.745394859924845"><ele>42.5</ele><time>2026-04-10T13:29:16Z</time></trkpt><trkpt lat="43.99537748195457" lon="4.745313805948587"><ele>42.25</ele><time>2026-04-10T13:29:17Z</time></trkpt><trkpt lat="43.99527771378996" lon="4.745227118331822"><ele>42.0</ele><time>2026-04-10T13:29:18Z</time></trkpt><trkpt lat="43.995192425506545" lon="4.74515419677488"><ele>42.42857142857143</ele><time>2026-04-10T13:29:19Z</time></trkpt><trkpt lat="43.99512441205756" lon="4.745102221495391"><ele>42.85714285714286</ele><time>2026-04-10T13:29:20Z</time></trkpt><trkpt lat="43.99506688383455" lon="4.745065603163533"><ele>43.285714285714285</ele><time>2026-04-10T13:29:21Z</time></trkpt><trkpt lat="43.995018353884866" lon="4.744968789104838"><ele>43.714285714285715</ele><time>2026-04-10T13:29:23Z</time></trkpt><trkpt lat="43.99499587503192" lon="4.7448828181294695"><ele>44.142857142857146</ele><time>2026-04-10T13:29:24Z</time></trkpt><trkpt lat="43.995004526310815" lon="4.7447948091117915"><ele>44.57142857142857</ele><time>2026-04-10T13:29:25Z</time></trkpt><trkpt lat="43.995024219710864" lon="4.744676496207551"><ele>45.0</ele><time>2026-04-10T13:29:26Z</time></trkpt><trkpt lat="43.9950488899386" lon="4.744524072068415"><ele>45.0</ele><time>2026-04-10T13:29:27Z</time></trkpt><trkpt lat="43.99507476842454" lon="4.744364182445591"><ele>45.0</ele><time>2026-04-10T13:29:28Z</time></trkpt><trkpt lat="43.99510261419759" lon="4.744193612472268"><ele>45.0</ele><time>2026-04-10T13:29:29Z</time></trkpt><trkpt lat="43.99511917419374" lon="4.74403078446808"><ele>45.0</ele><time>2026-04-10T13:29:30Z</time></trkpt><trkpt lat="43.99514405735617" lon="4.743877121703237"><ele>45.0</ele><time>2026-04-10T13:29:31Z</time></trkpt><trkpt lat="43.99518152698271" lon="4.743725049240365"><ele>45.0</ele><time>2026-04-10T13:29:32Z</time></trkpt><trkpt lat="43.995180315510346" lon="4.743555653527682"><ele>45.0</ele><time>2026-04-10T13:29:33Z</time></trkpt><trkpt lat="43.99520773468296" lon="4.743384153527486"><ele>45.0</ele><time>2026-04-10T13:29:34Z</time></trkpt><trkpt lat="43.995232974092666" lon="4.743205634176183"><ele>45.0</ele><time>2026-04-10T13:29:35Z</time></trkpt><trkpt lat="43.99526034695052" lon="4.742997950799107"><ele>45.0</ele><time>2026-04-10T13:29:36Z</time></trkpt><trkpt lat="43.99529535703708" lon="4.742797054154438"><ele>45.0</ele><time>2026-04-10T13:29:37Z</time></trkpt><trkpt lat="43.99532235548969" lon="4.742608500084992"><ele>45.0</ele><time>2026-04-10T13:29:38Z</time></trkpt><trkpt lat="43.99535085176672" lon="4.742430121972584"><ele>45.0</ele><time>2026-04-10T13:29:39Z</time></trkpt><trkpt lat="43.99537602757776" lon="4.742253632130001"><ele>45.0</ele><time>2026-04-10T13:29:40Z</time></trkpt><trkpt lat="43.99539993799363" lon="4.742078596647416"><ele>45.0</ele><time>2026-04-10T13:29:41Z</time></trkpt><trkpt lat="43.995426901307816" lon="4.7419015343273445"><ele>45.0</ele><time>2026-04-10T13:29:42Z</time></trkpt><trkpt lat="43.99545579319695" lon="4.741709761139702"><ele>45.0</ele><time>2026-04-10T13:29:43Z</time></trkpt><trkpt lat="43.99548217367454" lon="4.741523278986432"><ele>45.0</ele><time>2026-04-10T13:29:44Z</time></trkpt><trkpt lat="43.99550977412608" lon="4.74132879871875"><ele>45.0</ele><time>2026-04-10T13:29:45Z</time></trkpt><trkpt lat="43.995537217439086" lon="4.741133404267355"><ele>45.0</ele><time>2026-04-10T13:29:46Z</time></trkpt><trkpt lat="43.995566665277295" lon="4.7409359645772655"><ele>45.25</ele><time>2026-04-10T13:29:47Z</time></trkpt><trkpt lat="43.99559841646601" lon="4.740734531328555"><ele>45.5</ele><time>2026-04-10T13:29:48Z</time></trkpt><trkpt lat="43.995629429546014" lon="4.740534142215001"><ele>45.75</ele><time>2026-04-10T13:29:49Z</time></trkpt><trkpt lat="43.99567599988059" lon="4.740368915855392"><ele>46.0</ele><time>2026-04-10T13:29:50Z</time></trkpt><trkpt lat="43.99567720192537" lon="4.740256273133179"><ele>46.199999999999996</ele><time>2026-04-10T13:29:51Z</time></trkpt><trkpt lat="43.99572369751869" lon="4.740194108899785"><ele>46.4</ele><time>2026-04-10T13:29:55Z</time></trkpt><trkpt lat="43.99579705067407" lon="4.740208580005478"><ele>46.6</ele><time>2026-04-10T13:29:57Z</time></trkpt><trkpt lat="43.99588852103716" lon="4.74025079138869"><ele>46.8</ele><time>2026-04-10T13:29:58Z</time></trkpt><trkpt lat="43.9960134590063" lon="4.740275803289568"><ele>47.0</ele><time>2026-04-10T13:29:59Z</time></trkpt><trkpt lat="43.996169858928816" lon="4.740310571261372"><ele>47.0</ele><time>2026-04-10T13:30:00Z</time></trkpt><trkpt lat="43.99634615825734" lon="4.740341033104002"><ele>47.0</ele><time>2026-04-10T13:30:01Z</time></trkpt><trkpt lat="43.99650250602288" lon="4.740362780118497"><ele>47.0</ele><time>2026-04-10T13:30:02Z</time></trkpt><trkpt lat="43.99662982773181" lon="4.740387924202535"><ele>47.0</ele><time>2026-04-10T13:30:03Z</time></trkpt><trkpt lat="43.99674298690165" lon="4.740405702335693"><ele>47.0</ele><time>2026-04-10T13:30:04Z</time></trkpt><trkpt lat="43.99684707513899" lon="4.740422594408063"><ele>47.0</ele><time>2026-04-10T13:30:05Z</time></trkpt><trkpt lat="43.996943636139314" lon="4.740441346528852"><ele>47.0</ele><time>2026-04-10T13:30:06Z</time></trkpt><trkpt lat="43.99704514764502" lon="4.74045683684121"><ele>47.0</ele><time>2026-04-10T13:30:07Z</time></trkpt><trkpt lat="43.997163991534634" lon="4.740477537546759"><ele>47.0</ele><time>2026-04-10T13:30:08Z</time></trkpt><trkpt lat="43.997292566333016" lon="4.740499036667722"><ele>47.0</ele><time>2026-04-10T13:30:09Z</time></trkpt><trkpt lat="43.99742684454263" lon="4.740522070820626"><ele>47.0</ele><time>2026-04-10T13:30:10Z</time></trkpt><trkpt lat="43.997559915998856" lon="4.740545638019508"><ele>47.0</ele><time>2026-04-10T13:30:11Z</time></trkpt><trkpt lat="43.99767711240121" lon="4.740562882069"><ele>47.2</ele><time>2026-04-10T13:30:12Z</time></trkpt><trkpt lat="43.99777653754332" lon="4.7405869122661874"><ele>47.400000000000006</ele><time>2026-04-10T13:30:13Z</time></trkpt><trkpt lat="43.997868799950055" lon="4.740599682063383"><ele>47.599999999999994</ele><time>2026-04-10T13:30:14Z</time></trkpt><trkpt lat="43.99796464469001" lon="4.74061876377137"><ele>47.8</ele><time>2026-04-10T13:30:15Z</time></trkpt><trkpt lat="43.99805356469121" lon="4.740636443967071"><ele>48.0</ele><time>2026-04-10T13:30:16Z</time></trkpt><trkpt lat="43.9981625258763" lon="4.740649788205261"><ele>48.0</ele><time>2026-04-10T13:30:17Z</time></trkpt><trkpt lat="43.99826415500714" lon="4.740653417718623"><ele>48.0</ele><time>2026-04-10T13:30:18Z</time></trkpt><trkpt lat="43.99835108901758" lon="4.740647569300055"><ele>48.0</ele><time>2026-04-10T13:30:19Z</time></trkpt><trkpt lat="43.99843235008006" lon="4.7406080847696215"><ele>48.0</ele><time>2026-04-10T13:30:21Z</time></trkpt><trkpt lat="43.99843306544413" lon="4.740494182951992"><ele>48.0</ele><time>2026-04-10T13:30:24Z</time></trkpt><trkpt lat="43.9984409645509" lon="4.740342867719711"><ele>48.4</ele><time>2026-04-10T13:30:26Z</time></trkpt><trkpt lat="43.99848010016974" lon="4.740206011741114"><ele>48.8</ele><time>2026-04-10T13:30:28Z</time></trkpt><trkpt lat="43.998515997397284" lon="4.740043013784706"><ele>49.2</ele><time>2026-04-10T13:30:30Z</time></trkpt><trkpt lat="43.998561419263396" lon="4.7399020589822225"><ele>49.6</ele><time>2026-04-10T13:30:32Z</time></trkpt><trkpt lat="43.99852838338074" lon="4.739824264363865"><ele>50.0</ele><time>2026-04-10T13:30:33Z</time></trkpt><trkpt lat="43.998477651035536" lon="4.7397594266924195"><ele>50.0</ele><time>2026-04-10T13:30:34Z</time></trkpt><trkpt lat="43.99842044911431" lon="4.739664443438305"><ele>50.0</ele><time>2026-04-10T13:30:35Z</time></trkpt><trkpt lat="43.99835230563793" lon="4.7395396515745984"><ele>50.0</ele><time>2026-04-10T13:30:36Z</time></trkpt><trkpt lat="43.998269452823855" lon="4.739391441563281"><ele>50.0</ele><time>2026-04-10T13:30:37Z</time></trkpt><trkpt lat="43.99816896161958" lon="4.739229399093936"><ele>50.25</ele><time>2026-04-10T13:30:38Z</time></trkpt><trkpt lat="43.99806553889118" lon="4.73907268115336"><ele>50.5</ele><time>2026-04-10T13:30:39Z</time></trkpt><trkpt lat="43.997965876794694" lon="4.738924528042144"><ele>50.75</ele><time>2026-04-10T13:30:40Z</time></trkpt><trkpt lat="43.997876670544606" lon="4.738796745808109"><ele>51.0</ele><time>2026-04-10T13:30:41Z</time></trkpt><trkpt lat="43.99781450633703" lon="4.73869482270891"><ele>51.0</ele><time>2026-04-10T13:30:42Z</time></trkpt><trkpt lat="43.99777575263757" lon="4.738611552807222"><ele>51.0</ele><time>2026-04-10T13:30:43Z</time></trkpt><trkpt lat="43.99774871988188" lon="4.738531829522962"><ele>51.0</ele><time>2026-04-10T13:30:45Z</time></trkpt><trkpt lat="43.99770689102081" lon="4.738461028925685"><ele>51.0</ele><time>2026-04-10T13:31:06Z</time></trkpt><trkpt lat="43.99750354603014" lon="4.738543909314567"><ele>51.0</ele><time>2026-04-10T13:31:07Z</time></trkpt><trkpt lat="43.9974087658879" lon="4.7385533433387"><ele>51.0</ele><time>2026-04-10T13:31:08Z</time></trkpt><trkpt lat="43.997340661408465" lon="4.738545454620777"><ele>51.0</ele><time>2026-04-10T13:31:09Z</time></trkpt><trkpt lat="43.99727822561243" lon="4.738564998723591"><ele>51.0</ele><time>2026-04-10T13:31:11Z</time></trkpt><trkpt lat="43.99732552439653" lon="4.73834163975387"><ele>51.0</ele><time>2026-04-10T13:31:14Z</time></trkpt><trkpt lat="43.9973744364971" lon="4.7382420397305545"><ele>51.0</ele><time>2026-04-10T13:31:15Z</time></trkpt><trkpt lat="43.99742272335321" lon="4.738141577603663"><ele>50.75</ele><time>2026-04-10T13:31:16Z</time></trkpt><trkpt lat="43.99746677053216" lon="4.7380168645937495"><ele>50.5</ele><time>2026-04-10T13:31:17Z</time></trkpt><trkpt lat="43.99753240520501" lon="4.737904405024345"><ele>50.25</ele><time>2026-04-10T13:31:18Z</time></trkpt><trkpt lat="43.99761530889854" lon="4.737783616226078"><ele>50.0</ele><time>2026-04-10T13:31:19Z</time></trkpt><trkpt lat="43.99768775489317" lon="4.7376350112925145"><ele>50.5</ele><time>2026-04-10T13:31:20Z</time></trkpt><trkpt lat="43.997768623996826" lon="4.737496434489439"><ele>51.0</ele><time>2026-04-10T13:31:21Z</time></trkpt><trkpt lat="43.99785815600672" lon="4.737337224312104"><ele>51.5</ele><time>2026-04-10T13:31:22Z</time></trkpt><trkpt lat="43.997955537586826" lon="4.737161004757109"><ele>52.0</ele><time>2026-04-10T13:31:23Z</time></trkpt><trkpt lat="43.99805614456288" lon="4.736971028774082"><ele>52.0</ele><time>2026-04-10T13:31:24Z</time></trkpt><trkpt lat="43.99814305809173" lon="4.736804571084469"><ele>52.0</ele><time>2026-04-10T13:31:25Z</time></trkpt><trkpt lat="43.998236406255934" lon="4.736667138681204"><ele>52.0</ele><time>2026-04-10T13:31:26Z</time></trkpt><trkpt lat="43.9983115791889" lon="4.7365034979741"><ele>52.0</ele><time>2026-04-10T13:31:27Z</time></trkpt><trkpt lat="43.9983950877049" lon="4.7363466897277595"><ele>52.0</ele><time>2026-04-10T13:31:28Z</time></trkpt><trkpt lat="43.998494445601274" lon="4.736210572531491"><ele>52.0</ele><time>2026-04-10T13:31:29Z</time></trkpt><trkpt lat="43.998559088568015" lon="4.736063029821745"><ele>52.0</ele><time>2026-04-10T13:31:30Z</time></trkpt><trkpt lat="43.99863398497032" lon="4.73595279625333"><ele>52.0</ele><time>2026-04-10T13:31:31Z</time></trkpt><trkpt lat="43.99868916127202" lon="4.735844497338239"><ele>52.2</ele><time>2026-04-10T13:31:32Z</time></trkpt><trkpt lat="43.998738028977044" lon="4.735743535128454"><ele>52.400000000000006</ele><time>2026-04-10T13:31:33Z</time></trkpt><trkpt lat="43.99877096801177" lon="4.735632290475903"><ele>52.599999999999994</ele><time>2026-04-10T13:31:34Z</time></trkpt><trkpt lat="43.9988200894494" lon="4.735545906116173"><ele>52.8</ele><time>2026-04-10T13:31:35Z</time></trkpt><trkpt lat="43.998863806660154" lon="4.735428017882127"><ele>53.0</ele><time>2026-04-10T13:31:36Z</time></trkpt><trkpt lat="43.9989180189708" lon="4.735279044288417"><ele>53.0</ele><time>2026-04-10T13:31:37Z</time></trkpt><trkpt lat="43.99897494094888" lon="4.735105298172402"><ele>53.0</ele><time>2026-04-10T13:31:38Z</time></trkpt><trkpt lat="43.99904080586457" lon="4.7348795219144435"><ele>53.0</ele><time>2026-04-10T13:31:39Z</time></trkpt><trkpt lat="43.99909106540266" lon="4.734607598662129"><ele>53.5</ele><time>2026-04-10T13:31:40Z</time></trkpt><trkpt lat="43.99914429221379" lon="4.73431469381506"><ele>54.0</ele><time>2026-04-10T13:31:41Z</time></trkpt><trkpt lat="43.999202947781676" lon="4.733996839946095"><ele>54.5</ele><time>2026-04-10T13:31:42Z</time></trkpt><trkpt lat="43.99926323252063" lon="4.733681119036161"><ele>55.0</ele><time>2026-04-10T13:31:43Z</time></trkpt><trkpt lat="43.99931892635137" lon="4.733386236147183"><ele>55.33333333333333</ele><time>2026-04-10T13:31:44Z</time></trkpt><trkpt lat="43.99936575209922" lon="4.733132527916119"><ele>55.66666666666667</ele><time>2026-04-10T13:31:45Z</time></trkpt><trkpt lat="43.99941066512438" lon="4.732880082188453"><ele>56.0</ele><time>2026-04-10T13:31:46Z</time></trkpt><trkpt lat="43.99945708709259" lon="4.732611319647477"><ele>56.333333333333336</ele><time>2026-04-10T13:31:47Z</time></trkpt><trkpt lat="43.99950023098142" lon="4.732361535870735"><ele>56.66666666666667</ele><time>2026-04-10T13:31:48Z</time></trkpt><trkpt lat="43.999543221708095" lon="4.732130331592514"><ele>57.0</ele><time>2026-04-10T13:31:49Z</time></trkpt><trkpt lat="43.99959010862954" lon="4.731902056170752"><ele>57.0</ele><time>2026-04-10T13:31:50Z</time></trkpt><trkpt lat="43.99963635777241" lon="4.731659731757361"><ele>57.0</ele><time>2026-04-10T13:31:51Z</time></trkpt><trkpt lat="43.99968064673105" lon="4.7314194351954395"><ele>57.0</ele><time>2026-04-10T13:31:52Z</time></trkpt><trkpt lat="43.99972314921403" lon="4.731180414006954"><ele>57.33333333333333</ele><time>2026-04-10T13:31:53Z</time></trkpt><trkpt lat="43.99976179613079" lon="4.730945575251237"><ele>57.666666666666664</ele><time>2026-04-10T13:31:54Z</time></trkpt><trkpt lat="43.99980123713592" lon="4.730700201813609"><ele>58.0</ele><time>2026-04-10T13:31:55Z</time></trkpt><trkpt lat="43.999842165774346" lon="4.730465596178446"><ele>58.33333333333333</ele><time>2026-04-10T13:31:56Z</time></trkpt><trkpt lat="43.99988808533322" lon="4.730218658003106"><ele>58.66666666666667</ele><time>2026-04-10T13:31:57Z</time></trkpt><trkpt lat="43.99993292902207" lon="4.72997339867182"><ele>59.0</ele><time>2026-04-10T13:31:58Z</time></trkpt><trkpt lat="43.99998026188756" lon="4.729706848224404"><ele>59.0</ele><time>2026-04-10T13:31:59Z</time></trkpt><trkpt lat="44.00002986162407" lon="4.7294375867183955"><ele>59.0</ele><time>2026-04-10T13:32:00Z</time></trkpt><trkpt lat="44.000075366228145" lon="4.729200941711766"><ele>59.0</ele><time>2026-04-10T13:32:01Z</time></trkpt><trkpt lat="44.000113950574544" lon="4.729000285247504"><ele>60.0</ele><time>2026-04-10T13:32:02Z</time></trkpt><trkpt lat="44.00014886077786" lon="4.728818734667538"><ele>61.0</ele><time>2026-04-10T13:32:03Z</time></trkpt><trkpt lat="44.00018138312741" lon="4.728632747925004"><ele>62.0</ele><time>2026-04-10T13:32:04Z</time></trkpt><trkpt lat="44.00022155180519" lon="4.728404376194113"><ele>63.0</ele><time>2026-04-10T13:32:05Z</time></trkpt><trkpt lat="44.00026071422302" lon="4.728181725182778"><ele>63.0</ele><time>2026-04-10T13:32:06Z</time></trkpt><trkpt lat="44.0003025649117" lon="4.727939380931182"><ele>63.0</ele><time>2026-04-10T13:32:07Z</time></trkpt><trkpt lat="44.00033733774543" lon="4.727735980754502"><ele>63.0</ele><time>2026-04-10T13:32:08Z</time></trkpt><trkpt lat="44.00040345148971" lon="4.727381929715861"><ele>63.0</ele><time>2026-04-10T13:32:09Z</time></trkpt><trkpt lat="44.00044987937583" lon="4.727148977195188"><ele>63.0</ele><time>2026-04-10T13:32:10Z</time></trkpt><trkpt lat="44.00049289769348" lon="4.726928976791959"><ele>63.0</ele><time>2026-04-10T13:32:11Z</time></trkpt><trkpt lat="44.00054147514128" lon="4.7266686811359415"><ele>62.33333333333333</ele><time>2026-04-10T13:32:12Z</time></trkpt><trkpt lat="44.00059045686659" lon="4.726374262159767"><ele>61.666666666666664</ele><time>2026-04-10T13:32:13Z</time></trkpt><trkpt lat="44.000606407917765" lon="4.726126811950712"><ele>61.0</ele><time>2026-04-10T13:32:14Z</time></trkpt><trkpt lat="44.00062853042682" lon="4.72591963221205"><ele>60.75</ele><time>2026-04-10T13:32:15Z</time></trkpt><trkpt lat="44.00064896925847" lon="4.725735625542005"><ele>60.5</ele><time>2026-04-10T13:32:16Z</time></trkpt><trkpt lat="44.0006580451261" lon="4.7255640015597855"><ele>60.25</ele><time>2026-04-10T13:32:17Z</time></trkpt><trkpt lat="44.00068392873467" lon="4.725399964273506"><ele>60.0</ele><time>2026-04-10T13:32:18Z</time></trkpt><trkpt lat="44.00069720062465" lon="4.725254661611638"><ele>60.25</ele><time>2026-04-10T13:32:19Z</time></trkpt><trkpt lat="44.0007131128128" lon="4.725080452586887"><ele>60.5</ele><time>2026-04-10T13:32:20Z</time></trkpt><trkpt lat="44.00072799923122" lon="4.7249174738567925"><ele>60.75</ele><time>2026-04-10T13:32:21Z</time></trkpt><trkpt lat="44.00074288041144" lon="4.724754635045647"><ele>61.0</ele><time>2026-04-10T13:32:22Z</time></trkpt><trkpt lat="44.00075510494982" lon="4.724620916846947"><ele>61.0</ele><time>2026-04-10T13:32:23Z</time></trkpt><trkpt lat="44.0007685070911" lon="4.724478228828607"><ele>60.99999999999999</ele><time>2026-04-10T13:32:24Z</time></trkpt><trkpt lat="44.00078403564759" lon="4.7243267470549055"><ele>60.99999999999999</ele><time>2026-04-10T13:32:25Z</time></trkpt><trkpt lat="44.00079845437738" lon="4.724186091562761"><ele>61.0</ele><time>2026-04-10T13:32:26Z</time></trkpt><trkpt lat="44.00081059135513" lon="4.724072782233198"><ele>61.0</ele><time>2026-04-10T13:32:27Z</time></trkpt><trkpt lat="44.00082586196326" lon="4.723949083346224"><ele>61.4</ele><time>2026-04-10T13:32:28Z</time></trkpt><trkpt lat="44.000839198672644" lon="4.723855289018148"><ele>61.8</ele><time>2026-04-10T13:32:29Z</time></trkpt><trkpt lat="44.00086478188003" lon="4.723694378295803"><ele>62.199999999999996</ele><time>2026-04-10T13:32:31Z</time></trkpt><trkpt lat="44.00089083966889" lon="4.723529826161234"><ele>62.599999999999994</ele><time>2026-04-10T13:32:33Z</time></trkpt><trkpt lat="44.00090103693778" lon="4.723382744611647"><ele>63.0</ele><time>2026-04-10T13:32:35Z</time></trkpt><trkpt lat="44.00093335351792" lon="4.72323200776458"><ele>63.599999999999994</ele><time>2026-04-10T13:32:37Z</time></trkpt><trkpt lat="44.00096049951266" lon="4.723102154231243"><ele>64.19999999999999</ele><time>2026-04-10T13:32:39Z</time></trkpt><trkpt lat="44.000979208697146" lon="4.722994006058464"><ele>64.8</ele><time>2026-04-10T13:32:41Z</time></trkpt><trkpt lat="44.00099262861974" lon="4.722900283471793"><ele>65.39999999999999</ele><time>2026-04-10T13:32:45Z</time></trkpt><trkpt lat="44.00100669685483" lon="4.7228134546794935"><ele>66.0</ele><time>2026-04-10T13:34:33Z</time></trkpt><trkpt lat="44.00102743285005" lon="4.722605317302844"><ele>66.0</ele><time>2026-04-10T13:34:35Z</time></trkpt><trkpt lat="44.00103705619644" lon="4.722455894006938"><ele>66.0</ele><time>2026-04-10T13:34:36Z</time></trkpt><trkpt lat="44.00104587953899" lon="4.722318891590431"><ele>66.0</ele><time>2026-04-10T13:34:37Z</time></trkpt><trkpt lat="44.001056548531835" lon="4.722176825992743"><ele>66.0</ele><time>2026-04-10T13:34:38Z</time></trkpt><trkpt lat="44.00106820067509" lon="4.722016458070153"><ele>66.0</ele><time>2026-04-10T13:34:39Z</time></trkpt><trkpt lat="44.001084160319266" lon="4.721811850514583"><ele>65.8</ele><time>2026-04-10T13:34:40Z</time></trkpt><trkpt lat="44.001098714861726" lon="4.721632628438634"><ele>65.6</ele><time>2026-04-10T13:34:41Z</time></trkpt><trkpt lat="44.00111190580851" lon="4.721493101722532"><ele>65.4</ele><time>2026-04-10T13:34:42Z</time></trkpt><trkpt lat="44.00112414086631" lon="4.721374364025522"><ele>65.2</ele><time>2026-04-10T13:34:43Z</time></trkpt><trkpt lat="44.0011380443604" lon="4.72124927384867"><ele>65.0</ele><time>2026-04-10T13:34:44Z</time></trkpt><trkpt lat="44.0011502849702" lon="4.721139144610503"><ele>65.33333333333334</ele><time>2026-04-10T13:34:45Z</time></trkpt><trkpt lat="44.00115944944737" lon="4.721046851676261"><ele>65.66666666666667</ele><time>2026-04-10T13:34:46Z</time></trkpt><trkpt lat="44.00117295019159" lon="4.72090235649844"><ele>66.0</ele><time>2026-04-10T13:34:48Z</time></trkpt><trkpt lat="44.00118065579177" lon="4.720811523873872"><ele>66.33333333333333</ele><time>2026-04-10T13:34:50Z</time></trkpt><trkpt lat="44.00121505991094" lon="4.720716866497749"><ele>66.66666666666666</ele><time>2026-04-10T13:34:52Z</time></trkpt><trkpt lat="44.00121320862564" lon="4.72062540982146"><ele>67.0</ele><time>2026-04-10T13:37:22Z</time></trkpt><trkpt lat="44.00139943495484" lon="4.720605113280555"><ele>67.0</ele><time>2026-04-10T13:37:27Z</time></trkpt><trkpt lat="44.00134697849045" lon="4.720657693823678"><ele>67.0</ele><time>2026-04-10T13:38:47Z</time></trkpt><trkpt lat="44.00127871735954" lon="4.72069048207724"><ele>67.0</ele><time>2026-04-10T13:39:00Z</time></trkpt><trkpt lat="44.00126170233434" lon="4.720787884962034"><ele>67.0</ele><time>2026-04-10T13:39:16Z</time></trkpt><trkpt lat="44.00132259122478" lon="4.720841831320095"><ele>67.0</ele><time>2026-04-10T13:39:25Z</time></trkpt><trkpt lat="44.00138140200502" lon="4.720810342340822"><ele>67.0</ele><time>2026-04-10T13:39:33Z</time></trkpt><trkpt lat="44.00131213485613" lon="4.720821747205652"><ele>67.0</ele><time>2026-04-10T13:42:36Z</time></trkpt><trkpt lat="44.001248448300366" lon="4.720802874212476"><ele>67.0</ele><time>2026-04-10T13:42:52Z</time></trkpt><trkpt lat="44.00123051548321" lon="4.720695467297977"><ele>67.0</ele><time>2026-04-10T13:43:55Z</time></trkpt><trkpt lat="44.00122491940724" lon="4.720590871717762"><ele>67.0</ele><time>2026-04-10T13:45:00Z</time></trkpt><trkpt lat="44.00120491869064" lon="4.720444690132571"><ele>67.0</ele><time>2026-04-10T13:45:02Z</time></trkpt><trkpt lat="44.001204084885856" lon="4.720299597298694"><ele>67.0</ele><time>2026-04-10T13:45:03Z</time></trkpt><trkpt lat="44.001223886101414" lon="4.720072386132916"><ele>67.0</ele><time>2026-04-10T13:45:04Z</time></trkpt><trkpt lat="44.001227002337586" lon="4.71983555208833"><ele>67.0</ele><time>2026-04-10T13:45:05Z</time></trkpt><trkpt lat="44.00122585058934" lon="4.719600969870419"><ele>67.0</ele><time>2026-04-10T13:45:06Z</time></trkpt><trkpt lat="44.001243855462576" lon="4.719378177167759"><ele>67.0</ele><time>2026-04-10T13:45:07Z</time></trkpt><trkpt lat="44.00124047141386" lon="4.719178957890752"><ele>67.0</ele><time>2026-04-10T13:45:08Z</time></trkpt><trkpt lat="44.00123661001189" lon="4.718990463851397"><ele>67.0</ele><time>2026-04-10T13:45:09Z</time></trkpt><trkpt lat="44.00123224272303" lon="4.718782741505226"><ele>67.0</ele><time>2026-04-10T13:45:10Z</time></trkpt><trkpt lat="44.001227688982134" lon="4.718566150874992"><ele>66.5</ele><time>2026-04-10T13:45:11Z</time></trkpt><trkpt lat="44.001207587107096" lon="4.718357524410455"><ele>66.0</ele><time>2026-04-10T13:45:12Z</time></trkpt><trkpt lat="44.00120664258605" lon="4.718164138318402"><ele>65.5</ele><time>2026-04-10T13:45:13Z</time></trkpt><trkpt lat="44.00120904487119" lon="4.717986201320597"><ele>65.0</ele><time>2026-04-10T13:45:14Z</time></trkpt><trkpt lat="44.00121494411919" lon="4.717823835467852"><ele>65.25</ele><time>2026-04-10T13:45:15Z</time></trkpt><trkpt lat="44.001240391910564" lon="4.7176736911680734"><ele>65.5</ele><time>2026-04-10T13:45:16Z</time></trkpt><trkpt lat="44.00125444583644" lon="4.717510986443372"><ele>65.75</ele><time>2026-04-10T13:45:17Z</time></trkpt><trkpt lat="44.001256068967706" lon="4.717330281934135"><ele>66.0</ele><time>2026-04-10T13:45:18Z</time></trkpt><trkpt lat="44.00127636144829" lon="4.717115016391522"><ele>66.5</ele><time>2026-04-10T13:45:19Z</time></trkpt><trkpt lat="44.00129732536825" lon="4.716886951901778"><ele>67.0</ele><time>2026-04-10T13:45:20Z</time></trkpt><trkpt lat="44.001316860335386" lon="4.716699122417543"><ele>67.5</ele><time>2026-04-10T13:45:21Z</time></trkpt><trkpt lat="44.00133294768559" lon="4.716521493998053"><ele>68.0</ele><time>2026-04-10T13:45:22Z</time></trkpt><trkpt lat="44.00135579665711" lon="4.716348867531764"><ele>68.0</ele><time>2026-04-10T13:45:23Z</time></trkpt><trkpt lat="44.00135604352575" lon="4.716147759355217"><ele>68.0</ele><time>2026-04-10T13:45:24Z</time></trkpt><trkpt lat="44.001384685595966" lon="4.715901242375939"><ele>68.0</ele><time>2026-04-10T13:45:25Z</time></trkpt><trkpt lat="44.00140198278865" lon="4.715622146673553"><ele>68.0</ele><time>2026-04-10T13:45:26Z</time></trkpt><trkpt lat="44.001435964286834" lon="4.715318273128838"><ele>68.0</ele><time>2026-04-10T13:45:27Z</time></trkpt><trkpt lat="44.001456319409826" lon="4.715023160611006"><ele>68.0</ele><time>2026-04-10T13:45:28Z</time></trkpt><trkpt lat="44.001482119994" lon="4.714741827994376"><ele>68.33333333333334</ele><time>2026-04-10T13:45:29Z</time></trkpt><trkpt lat="44.00150871111683" lon="4.714464730177626"><ele>68.66666666666667</ele><time>2026-04-10T13:45:30Z</time></trkpt><trkpt lat="44.0015301866354" lon="4.714222544650514"><ele>69.0</ele><time>2026-04-10T13:45:31Z</time></trkpt><trkpt lat="44.001551087296576" lon="4.714006585365502"><ele>69.0</ele><time>2026-04-10T13:45:32Z</time></trkpt><trkpt lat="44.00156610879347" lon="4.713832976430218"><ele>69.0</ele><time>2026-04-10T13:45:33Z</time></trkpt><trkpt lat="44.001581773396" lon="4.713691938587675"><ele>69.0</ele><time>2026-04-10T13:45:34Z</time></trkpt><trkpt lat="44.0015912322516" lon="4.713584597780481"><ele>69.0</ele><time>2026-04-10T13:45:35Z</time></trkpt><trkpt lat="44.001605610364145" lon="4.71349340483204"><ele>69.0</ele><time>2026-04-10T13:45:36Z</time></trkpt><trkpt lat="44.00160438698522" lon="4.713402155999527"><ele>69.0</ele><time>2026-04-10T13:45:41Z</time></trkpt><trkpt lat="44.00143772345542" lon="4.713294511937937"><ele>69.5</ele><time>2026-04-10T13:45:43Z</time></trkpt><trkpt lat="44.001335419611465" lon="4.713307556936775"><ele>70.0</ele><time>2026-04-10T13:45:44Z</time></trkpt><trkpt lat="44.001221909624356" lon="4.713370161515436"><ele>70.5</ele><time>2026-04-10T13:45:45Z</time></trkpt><trkpt lat="44.00108680970126" lon="4.713467381882873"><ele>71.0</ele><time>2026-04-10T13:45:46Z</time></trkpt><trkpt lat="44.00094137085867" lon="4.713555249097282"><ele>70.0</ele><time>2026-04-10T13:45:47Z</time></trkpt><trkpt lat="44.0007900592227" lon="4.713659553309753"><ele>69.0</ele><time>2026-04-10T13:45:48Z</time></trkpt><trkpt lat="44.00062558434034" lon="4.713767344396853"><ele>68.0</ele><time>2026-04-10T13:45:49Z</time></trkpt><trkpt lat="44.00042539259333" lon="4.713875412912252"><ele>68.0</ele><time>2026-04-10T13:45:50Z</time></trkpt><trkpt lat="44.000160642531185" lon="4.713995317730304"><ele>68.0</ele><time>2026-04-10T13:45:51Z</time></trkpt><trkpt lat="43.99993670369399" lon="4.714092559883282"><ele>68.0</ele><time>2026-04-10T13:45:52Z</time></trkpt><trkpt lat="43.99971166404068" lon="4.714178375529839"><ele>68.0</ele><time>2026-04-10T13:45:53Z</time></trkpt><trkpt lat="43.99947755071127" lon="4.714267827679264"><ele>68.0</ele><time>2026-04-10T13:45:54Z</time></trkpt><trkpt lat="43.999218898453" lon="4.71436571868716"><ele>68.0</ele><time>2026-04-10T13:45:55Z</time></trkpt><trkpt lat="43.99893348836519" lon="4.714489516160346"><ele>68.5</ele><time>2026-04-10T13:45:56Z</time></trkpt><trkpt lat="43.9986420319553" lon="4.714626400983927"><ele>69.0</ele><time>2026-04-10T13:45:57Z</time></trkpt><trkpt lat="43.99840281738354" lon="4.714754431584536"><ele>70.0</ele><time>2026-04-10T13:45:58Z</time></trkpt><trkpt lat="43.99814699874171" lon="4.71491422643249"><ele>71.0</ele><time>2026-04-10T13:45:59Z</time></trkpt><trkpt lat="43.99786935298837" lon="4.715071202803074"><ele>71.0</ele><time>2026-04-10T13:46:00Z</time></trkpt><trkpt lat="43.9975858741395" lon="4.715200079887713"><ele>71.0</ele><time>2026-04-10T13:46:01Z</time></trkpt><trkpt lat="43.99732019015023" lon="4.715285298693105"><ele>71.5</ele><time>2026-04-10T13:46:02Z</time></trkpt><trkpt lat="43.99706777963362" lon="4.715350290680406"><ele>72.0</ele><time>2026-04-10T13:46:03Z</time></trkpt><trkpt lat="43.99681820041223" lon="4.715417555813054"><ele>74.0</ele><time>2026-04-10T13:46:04Z</time></trkpt><trkpt lat="43.99656561252498" lon="4.715480605289502"><ele>76.0</ele><time>2026-04-10T13:46:05Z</time></trkpt><trkpt lat="43.996318994164206" lon="4.715545793722814"><ele>76.0</ele><time>2026-04-10T13:46:06Z</time></trkpt><trkpt lat="43.996080916659885" lon="4.715612084130912"><ele>76.0</ele><time>2026-04-10T13:46:07Z</time></trkpt><trkpt lat="43.995840861415374" lon="4.715684050691755"><ele>76.0</ele><time>2026-04-10T13:46:08Z</time></trkpt><trkpt lat="43.99558874667044" lon="4.715757580709526"><ele>76.0</ele><time>2026-04-10T13:46:09Z</time></trkpt><trkpt lat="43.99534613736968" lon="4.715825191118033"><ele>76.0</ele><time>2026-04-10T13:46:10Z</time></trkpt><trkpt lat="43.99509886362065" lon="4.715892621777925"><ele>76.0</ele><time>2026-04-10T13:46:11Z</time></trkpt><trkpt lat="43.99483540086816" lon="4.715956861894361"><ele>78.5</ele><time>2026-04-10T13:46:12Z</time></trkpt><trkpt lat="43.994590320885074" lon="4.71601375422016"><ele>81.0</ele><time>2026-04-10T13:46:13Z</time></trkpt><trkpt lat="43.99437067368565" lon="4.71605626791232"><ele>81.66666666666667</ele><time>2026-04-10T13:46:14Z</time></trkpt><trkpt lat="43.994167472991926" lon="4.716081287307132"><ele>82.33333333333334</ele><time>2026-04-10T13:46:15Z</time></trkpt><trkpt lat="43.99397652566104" lon="4.716093306506735"><ele>83.0</ele><time>2026-04-10T13:46:16Z</time></trkpt><trkpt lat="43.99378980131922" lon="4.71610650848955"><ele>83.0</ele><time>2026-04-10T13:46:17Z</time></trkpt><trkpt lat="43.99360139420828" lon="4.716127023073382"><ele>83.0</ele><time>2026-04-10T13:46:18Z</time></trkpt><trkpt lat="43.99341192023842" lon="4.716150430476658"><ele>83.0</ele><time>2026-04-10T13:46:19Z</time></trkpt><trkpt lat="43.99321994007838" lon="4.716170490947413"><ele>82.75</ele><time>2026-04-10T13:46:20Z</time></trkpt><trkpt lat="43.99305107893672" lon="4.716177226007729"><ele>82.5</ele><time>2026-04-10T13:46:21Z</time></trkpt><trkpt lat="43.99293583497756" lon="4.7161790589892165"><ele>82.25</ele><time>2026-04-10T13:46:22Z</time></trkpt><trkpt lat="43.99283322312512" lon="4.716178725866353"><ele>82.0</ele><time>2026-04-10T13:46:23Z</time></trkpt><trkpt lat="43.992733558791684" lon="4.7161804059696735"><ele>82.0</ele><time>2026-04-10T13:46:24Z</time></trkpt><trkpt lat="43.99263481135673" lon="4.71618040359181"><ele>82.0</ele><time>2026-04-10T13:46:25Z</time></trkpt><trkpt lat="43.99252445037853" lon="4.716177366780729"><ele>82.0</ele><time>2026-04-10T13:46:26Z</time></trkpt><trkpt lat="43.99239814286626" lon="4.716158967979266"><ele>82.0</ele><time>2026-04-10T13:46:27Z</time></trkpt><trkpt lat="43.99226442420503" lon="4.716124905632783"><ele>81.0</ele><time>2026-04-10T13:46:28Z</time></trkpt><trkpt lat="43.992133779022616" lon="4.716078196971541"><ele>80.0</ele><time>2026-04-10T13:46:29Z</time></trkpt><trkpt lat="43.992006153223834" lon="4.7160137202765"><ele>79.0</ele><time>2026-04-10T13:46:30Z</time></trkpt><trkpt lat="43.99189106532052" lon="4.715937386156375"><ele>78.0</ele><time>2026-04-10T13:46:31Z</time></trkpt><trkpt lat="43.9917837655688" lon="4.715859266237746"><ele>78.0</ele><time>2026-04-10T13:46:32Z</time></trkpt><trkpt lat="43.99167945000038" lon="4.715773146388702"><ele>78.0</ele><time>2026-04-10T13:46:33Z</time></trkpt><trkpt lat="43.99157224346555" lon="4.715667228138537"><ele>78.0</ele><time>2026-04-10T13:46:34Z</time></trkpt><trkpt lat="43.99145624286987" lon="4.715527174345907"><ele>78.0</ele><time>2026-04-10T13:46:35Z</time></trkpt><trkpt lat="43.99133141135765" lon="4.7153457216867025"><ele>77.66666666666667</ele><time>2026-04-10T13:46:36Z</time></trkpt><trkpt lat="43.991204081586346" lon="4.715127045662253"><ele>77.33333333333334</ele><time>2026-04-10T13:46:37Z</time></trkpt><trkpt lat="43.991063800908904" lon="4.7148717472893305"><ele>77.0</ele><time>2026-04-10T13:46:38Z</time></trkpt><trkpt lat="43.99090575155629" lon="4.714597746075858"><ele>77.5</ele><time>2026-04-10T13:46:39Z</time></trkpt><trkpt lat="43.99073213787009" lon="4.714294380202396"><ele>78.0</ele><time>2026-04-10T13:46:40Z</time></trkpt><trkpt lat="43.9905500885622" lon="4.7139959451583975"><ele>78.0</ele><time>2026-04-10T13:46:41Z</time></trkpt><trkpt lat="43.99037982099445" lon="4.7137562032436255"><ele>78.0</ele><time>2026-04-10T13:46:42Z</time></trkpt><trkpt lat="43.99019730644355" lon="4.713541867567772"><ele>77.0</ele><time>2026-04-10T13:46:43Z</time></trkpt><trkpt lat="43.9900036452173" lon="4.713335975921841"><ele>76.0</ele><time>2026-04-10T13:46:44Z</time></trkpt><trkpt lat="43.98980015368733" lon="4.713147457349447"><ele>76.0</ele><time>2026-04-10T13:46:45Z</time></trkpt><trkpt lat="43.98959736958218" lon="4.712982176610864"><ele>76.0</ele><time>2026-04-10T13:46:46Z</time></trkpt><trkpt lat="43.98939861345502" lon="4.712814593582089"><ele>74.0</ele><time>2026-04-10T13:46:47Z</time></trkpt><trkpt lat="43.98920788669784" lon="4.712634055293311"><ele>72.0</ele><time>2026-04-10T13:46:48Z</time></trkpt><trkpt lat="43.989029148848225" lon="4.712442002087263"><ele>72.0</ele><time>2026-04-10T13:46:49Z</time></trkpt><trkpt lat="43.98884890287559" lon="4.712214718970508"><ele>72.0</ele><time>2026-04-10T13:46:50Z</time></trkpt><trkpt lat="43.988660687042625" lon="4.71195402794456"><ele>73.0</ele><time>2026-04-10T13:46:51Z</time></trkpt><trkpt lat="43.988487135879296" lon="4.711654347752448"><ele>74.0</ele><time>2026-04-10T13:46:52Z</time></trkpt><trkpt lat="43.988299044655406" lon="4.711355659256826"><ele>73.0</ele><time>2026-04-10T13:46:53Z</time></trkpt><trkpt lat="43.988108027599125" lon="4.7110724769794246"><ele>72.0</ele><time>2026-04-10T13:46:54Z</time></trkpt><trkpt lat="43.987962961239596" lon="4.710793289905932"><ele>72.0</ele><time>2026-04-10T13:46:55Z</time></trkpt><trkpt lat="43.98780951079692" lon="4.7105434353243885"><ele>72.0</ele><time>2026-04-10T13:46:56Z</time></trkpt><trkpt lat="43.98764059324826" lon="4.710316424861517"><ele>73.0</ele><time>2026-04-10T13:46:57Z</time></trkpt><trkpt lat="43.987444548679214" lon="4.710110290527815"><ele>74.0</ele><time>2026-04-10T13:46:58Z</time></trkpt><trkpt lat="43.98723052823392" lon="4.709949564824559"><ele>74.0</ele><time>2026-04-10T13:46:59Z</time></trkpt><trkpt lat="43.987006336496854" lon="4.70981559457955"><ele>74.0</ele><time>2026-04-10T13:47:00Z</time></trkpt><trkpt lat="43.986774232914904" lon="4.709717524131105"><ele>71.0</ele><time>2026-04-10T13:47:01Z</time></trkpt><trkpt lat="43.986531094905445" lon="4.709649117992574"><ele>68.0</ele><time>2026-04-10T13:47:02Z</time></trkpt><trkpt lat="43.986320041249066" lon="4.7095023749950355"><ele>71.5</ele><time>2026-04-10T13:47:03Z</time></trkpt><trkpt lat="43.98610663707184" lon="4.7093326626780945"><ele>75.0</ele><time>2026-04-10T13:47:04Z</time></trkpt><trkpt lat="43.9859361181608" lon="4.70910160380696"><ele>74.0</ele><time>2026-04-10T13:47:05Z</time></trkpt><trkpt lat="43.985785723214896" lon="4.708874084256294"><ele>73.0</ele><time>2026-04-10T13:47:06Z</time></trkpt><trkpt lat="43.98565325560984" lon="4.708634746561191"><ele>72.0</ele><time>2026-04-10T13:47:07Z</time></trkpt><trkpt lat="43.98553314521426" lon="4.708376135890218"><ele>75.0</ele><time>2026-04-10T13:47:08Z</time></trkpt><trkpt lat="43.985414964356984" lon="4.708111178232615"><ele>78.0</ele><time>2026-04-10T13:47:09Z</time></trkpt><trkpt lat="43.98528695353024" lon="4.707835329482171"><ele>81.0</ele><time>2026-04-10T13:47:10Z</time></trkpt><trkpt lat="43.98515426384898" lon="4.7075540891275045"><ele>84.0</ele><time>2026-04-10T13:47:11Z</time></trkpt><trkpt lat="43.985022141879476" lon="4.707271513442135"><ele>83.0</ele><time>2026-04-10T13:47:12Z</time></trkpt><trkpt lat="43.98488791419964" lon="4.706989451347433"><ele>82.0</ele><time>2026-04-10T13:47:13Z</time></trkpt><trkpt lat="43.984753313552595" lon="4.706709817185177"><ele>82.0</ele><time>2026-04-10T13:47:14Z</time></trkpt><trkpt lat="43.98461929170187" lon="4.706435888085224"><ele>82.0</ele><time>2026-04-10T13:47:15Z</time></trkpt><trkpt lat="43.98448227379672" lon="4.706155337551971"><ele>84.5</ele><time>2026-04-10T13:47:16Z</time></trkpt><trkpt lat="43.984345933659895" lon="4.705880422344777"><ele>87.0</ele><time>2026-04-10T13:47:17Z</time></trkpt><trkpt lat="43.984215651691976" lon="4.705597300068211"><ele>83.0</ele><time>2026-04-10T13:47:18Z</time></trkpt><trkpt lat="43.98409720224184" lon="4.705295518039399"><ele>79.0</ele><time>2026-04-10T13:47:19Z</time></trkpt><trkpt lat="43.983989913487456" lon="4.704984885546107"><ele>79.0</ele><time>2026-04-10T13:47:20Z</time></trkpt><trkpt lat="43.9838967124375" lon="4.704677603727581"><ele>79.0</ele><time>2026-04-10T13:47:21Z</time></trkpt><trkpt lat="43.983815618063396" lon="4.704386746347899"><ele>79.0</ele><time>2026-04-10T13:47:22Z</time></trkpt><trkpt lat="43.98373672047789" lon="4.704116324057697"><ele>79.0</ele><time>2026-04-10T13:47:23Z</time></trkpt><trkpt lat="43.983658438122625" lon="4.703858704749819"><ele>79.0</ele><time>2026-04-10T13:47:24Z</time></trkpt><trkpt lat="43.983571942633674" lon="4.703582135046238"><ele>77.5</ele><time>2026-04-10T13:47:25Z</time></trkpt><trkpt lat="43.9834855462641" lon="4.703286633803475"><ele>76.0</ele><time>2026-04-10T13:47:26Z</time></trkpt><trkpt lat="43.983401598161436" lon="4.702990041029361"><ele>74.66666666666666</ele><time>2026-04-10T13:47:27Z</time></trkpt><trkpt lat="43.98331752171791" lon="4.7027088100515995"><ele>73.33333333333333</ele><time>2026-04-10T13:47:28Z</time></trkpt><trkpt lat="43.983230946562934" lon="4.7024400094661365"><ele>72.0</ele><time>2026-04-10T13:47:29Z</time></trkpt><trkpt lat="43.983149051875685" lon="4.70219398739367"><ele>72.0</ele><time>2026-04-10T13:47:30Z</time></trkpt><trkpt lat="43.98307866818113" lon="4.701968204570338"><ele>72.0</ele><time>2026-04-10T13:47:31Z</time></trkpt><trkpt lat="43.983017510462886" lon="4.701745767512855"><ele>72.0</ele><time>2026-04-10T13:47:32Z</time></trkpt><trkpt lat="43.982960567552006" lon="4.701545243583173"><ele>72.0</ele><time>2026-04-10T13:47:33Z</time></trkpt><trkpt lat="43.98291338468785" lon="4.70137823456715"><ele>72.0</ele><time>2026-04-10T13:47:34Z</time></trkpt><trkpt lat="43.982879119753946" lon="4.701230179528909"><ele>72.0</ele><time>2026-04-10T13:47:35Z</time></trkpt><trkpt lat="43.98283208575644" lon="4.701063006458205"><ele>72.0</ele><time>2026-04-10T13:47:36Z</time></trkpt><trkpt lat="43.98274062700418" lon="4.700839351291453"><ele>72.66666666666667</ele><time>2026-04-10T13:47:37Z</time></trkpt><trkpt lat="43.9826462029332" lon="4.700550549061895"><ele>73.33333333333334</ele><time>2026-04-10T13:47:38Z</time></trkpt><trkpt lat="43.98256504248734" lon="4.700311906826169"><ele>74.0</ele><time>2026-04-10T13:47:39Z</time></trkpt><trkpt lat="43.982466757639436" lon="4.700099448686331"><ele>74.0</ele><time>2026-04-10T13:47:40Z</time></trkpt><trkpt lat="43.982320516797785" lon="4.699869525134268"><ele>74.0</ele><time>2026-04-10T13:47:41Z</time></trkpt><trkpt lat="43.9821324966684" lon="4.699633522016188"><ele>74.0</ele><time>2026-04-10T13:47:42Z</time></trkpt><trkpt lat="43.98193507167279" lon="4.699439130824598"><ele>74.0</ele><time>2026-04-10T13:47:43Z</time></trkpt><trkpt lat="43.98174588013835" lon="4.699296010050614"><ele>74.0</ele><time>2026-04-10T13:47:44Z</time></trkpt><trkpt lat="43.981552679066006" lon="4.69918103313956"><ele>74.0</ele><time>2026-04-10T13:47:45Z</time></trkpt><trkpt lat="43.98132976256697" lon="4.699051296245807"><ele>74.0</ele><time>2026-04-10T13:47:46Z</time></trkpt><trkpt lat="43.98109098441464" lon="4.698884096024414"><ele>74.0</ele><time>2026-04-10T13:47:47Z</time></trkpt><trkpt lat="43.980859320239716" lon="4.698666323080636"><ele>74.5</ele><time>2026-04-10T13:47:48Z</time></trkpt><trkpt lat="43.98065877746309" lon="4.698437501036664"><ele>75.0</ele><time>2026-04-10T13:47:49Z</time></trkpt><trkpt lat="43.98048323039755" lon="4.698218453383202"><ele>75.0</ele><time>2026-04-10T13:47:50Z</time></trkpt><trkpt lat="43.98032239178012" lon="4.6980194910472415"><ele>75.0</ele><time>2026-04-10T13:47:51Z</time></trkpt><trkpt lat="43.980167931080594" lon="4.697828356203325"><ele>75.0</ele><time>2026-04-10T13:47:52Z</time></trkpt><trkpt lat="43.98002429949848" lon="4.697652779829761"><ele>75.75</ele><time>2026-04-10T13:47:53Z</time></trkpt><trkpt lat="43.97990858227807" lon="4.697520212309859"><ele>76.5</ele><time>2026-04-10T13:47:54Z</time></trkpt><trkpt lat="43.979829121233095" lon="4.697417712787165"><ele>77.25</ele><time>2026-04-10T13:47:55Z</time></trkpt><trkpt lat="43.97979020210385" lon="4.697318082572467"><ele>78.0</ele><time>2026-04-10T13:47:56Z</time></trkpt><trkpt lat="43.979882157468154" lon="4.697140273337708"><ele>78.0</ele><time>2026-04-10T13:47:58Z</time></trkpt><trkpt lat="43.97996068020169" lon="4.697071012296703"><ele>78.0</ele><time>2026-04-10T13:47:59Z</time></trkpt><trkpt lat="43.9800691437703" lon="4.696973916047646"><ele>78.0</ele><time>2026-04-10T13:48:00Z</time></trkpt><trkpt lat="43.9802213286619" lon="4.696870331992211"><ele>78.0</ele><time>2026-04-10T13:48:01Z</time></trkpt><trkpt lat="43.98040381293786" lon="4.696755036833987"><ele>79.25</ele><time>2026-04-10T13:48:02Z</time></trkpt><trkpt lat="43.98056147928892" lon="4.696632540937234"><ele>80.5</ele><time>2026-04-10T13:48:03Z</time></trkpt><trkpt lat="43.980678090480616" lon="4.696535064860073"><ele>81.75</ele><time>2026-04-10T13:48:04Z</time></trkpt><trkpt lat="43.98077025641627" lon="4.696462319657972"><ele>83.0</ele><time>2026-04-10T13:48:05Z</time></trkpt><trkpt lat="43.98082854583739" lon="4.696417620522975"><ele>83.0</ele><time>2026-04-10T13:48:06Z</time></trkpt><trkpt lat="43.98080199085501" lon="4.696203762748689"><ele>83.0</ele><time>2026-04-10T13:48:09Z</time></trkpt><trkpt lat="43.98068543619949" lon="4.696068368841375"><ele>83.0</ele><time>2026-04-10T13:48:10Z</time></trkpt><trkpt lat="43.980584133644264" lon="4.695888604269218"><ele>86.0</ele><time>2026-04-10T13:48:11Z</time></trkpt><trkpt lat="43.98043707154633" lon="4.695700853447281"><ele>89.0</ele><time>2026-04-10T13:48:12Z</time></trkpt><trkpt lat="43.98029667588557" lon="4.695545009646528"><ele>92.0</ele><time>2026-04-10T13:48:13Z</time></trkpt><trkpt lat="43.98019318704139" lon="4.6954256583992455"><ele>92.0</ele><time>2026-04-10T13:48:14Z</time></trkpt><trkpt lat="43.98012722964182" lon="4.695275140359894"><ele>92.0</ele><time>2026-04-10T13:48:15Z</time></trkpt><trkpt lat="43.98004537713014" lon="4.695130555183071"><ele>92.0</ele><time>2026-04-10T13:48:16Z</time></trkpt><trkpt lat="43.9799768173259" lon="4.69498579661755"><ele>92.0</ele><time>2026-04-10T13:48:17Z</time></trkpt><trkpt lat="43.97991822288048" lon="4.694828953666451"><ele>94.75</ele><time>2026-04-10T13:48:18Z</time></trkpt><trkpt lat="43.97987254787812" lon="4.6946584736657675"><ele>97.5</ele><time>2026-04-10T13:48:19Z</time></trkpt><trkpt lat="43.979860612755886" lon="4.6944857881028765"><ele>100.25</ele><time>2026-04-10T13:48:20Z</time></trkpt><trkpt lat="43.97983054309365" lon="4.694318064376232"><ele>103.0</ele><time>2026-04-10T13:48:21Z</time></trkpt><trkpt lat="43.97978109241001" lon="4.694179916128245"><ele>106.0</ele><time>2026-04-10T13:48:22Z</time></trkpt><trkpt lat="43.979738484968976" lon="4.69400682670444"><ele>109.0</ele><time>2026-04-10T13:48:23Z</time></trkpt><trkpt lat="43.979664119494196" lon="4.693785195749116"><ele>112.0</ele><time>2026-04-10T13:48:24Z</time></trkpt><trkpt lat="43.97957899712403" lon="4.693553807516474"><ele>114.66666666666667</ele><time>2026-04-10T13:48:25Z</time></trkpt><trkpt lat="43.97946566286295" lon="4.693342292894987"><ele>117.33333333333334</ele><time>2026-04-10T13:48:26Z</time></trkpt><trkpt lat="43.97936599610249" lon="4.69314465356092"><ele>120.0</ele><time>2026-04-10T13:48:27Z</time></trkpt><trkpt lat="43.979280815906" lon="4.693012952503529"><ele>120.0</ele><time>2026-04-10T13:48:28Z</time></trkpt><trkpt lat="43.97921806160138" lon="4.692920180716739"><ele>120.0</ele><time>2026-04-10T13:48:29Z</time></trkpt><trkpt lat="43.97914923253918" lon="4.6928349834077565"><ele>120.0</ele><time>2026-04-10T13:48:30Z</time></trkpt><trkpt lat="43.97905080672032" lon="4.692686626427756"><ele>120.0</ele><time>2026-04-10T13:48:31Z</time></trkpt><trkpt lat="43.978939263916125" lon="4.6925248958556836"><ele>120.75</ele><time>2026-04-10T13:48:32Z</time></trkpt><trkpt lat="43.978830062023505" lon="4.69240291770891"><ele>121.5</ele><time>2026-04-10T13:48:33Z</time></trkpt><trkpt lat="43.97875316555633" lon="4.692277759406585"><ele>122.25</ele><time>2026-04-10T13:48:34Z</time></trkpt><trkpt lat="43.97868591931752" lon="4.692146677605763"><ele>123.0</ele><time>2026-04-10T13:48:35Z</time></trkpt><trkpt lat="43.9786109425926" lon="4.692018657338456"><ele>126.0</ele><time>2026-04-10T13:48:36Z</time></trkpt><trkpt lat="43.97853786740123" lon="4.691895049590762"><ele>129.0</ele><time>2026-04-10T13:48:37Z</time></trkpt><trkpt lat="43.97847802835957" lon="4.691780675150179"><ele>132.0</ele><time>2026-04-10T13:48:38Z</time></trkpt><trkpt lat="43.9784216416006" lon="4.691644831615947"><ele>135.0</ele><time>2026-04-10T13:48:39Z</time></trkpt><trkpt lat="43.97837021631975" lon="4.691488210769756"><ele>130.0</ele><time>2026-04-10T13:48:40Z</time></trkpt><trkpt lat="43.97833030330862" lon="4.691298881468572"><ele>125.0</ele><time>2026-04-10T13:48:41Z</time></trkpt><trkpt lat="43.97830386680653" lon="4.691092634546769"><ele>120.0</ele><time>2026-04-10T13:48:42Z</time></trkpt><trkpt lat="43.97824197189987" lon="4.690890251564248"><ele>120.0</ele><time>2026-04-10T13:48:43Z</time></trkpt><trkpt lat="43.97814474316007" lon="4.690676504486221"><ele>120.0</ele><time>2026-04-10T13:48:44Z</time></trkpt><trkpt lat="43.978057965278964" lon="4.690482174003718"><ele>120.0</ele><time>2026-04-10T13:48:45Z</time></trkpt><trkpt lat="43.97798909719604" lon="4.690329556776233"><ele>120.8</ele><time>2026-04-10T13:48:46Z</time></trkpt><trkpt lat="43.977927443641356" lon="4.6901915153388245"><ele>121.6</ele><time>2026-04-10T13:48:47Z</time></trkpt><trkpt lat="43.97786788619248" lon="4.6900719396722"><ele>122.4</ele><time>2026-04-10T13:48:48Z</time></trkpt><trkpt lat="43.97781948753325" lon="4.689969995296156"><ele>123.2</ele><time>2026-04-10T13:48:49Z</time></trkpt><trkpt lat="43.97781613268615" lon="4.689845321213244"><ele>124.0</ele><time>2026-04-10T13:48:51Z</time></trkpt><trkpt lat="43.977927677867314" lon="4.689858010058145"><ele>124.0</ele><time>2026-04-10T13:48:53Z</time></trkpt><trkpt lat="43.97804360024147" lon="4.689808060487114"><ele>124.0</ele><time>2026-04-10T13:48:54Z</time></trkpt><trkpt lat="43.97816245130161" lon="4.68974089840941"><ele>124.0</ele><time>2026-04-10T13:48:55Z</time></trkpt><trkpt lat="43.97831992359649" lon="4.689691544372217"><ele>124.0</ele><time>2026-04-10T13:48:56Z</time></trkpt><trkpt lat="43.97847415052586" lon="4.68962409567649"><ele>129.0</ele><time>2026-04-10T13:48:57Z</time></trkpt><trkpt lat="43.97862349192729" lon="4.6896189711511145"><ele>134.0</ele><time>2026-04-10T13:48:58Z</time></trkpt><trkpt lat="43.97877646082729" lon="4.689631482054058"><ele>139.0</ele><time>2026-04-10T13:48:59Z</time></trkpt><trkpt lat="43.97893441953191" lon="4.689640651269557"><ele>139.0</ele><time>2026-04-10T13:49:00Z</time></trkpt><trkpt lat="43.97910831352976" lon="4.689635625472514"><ele>139.0</ele><time>2026-04-10T13:49:01Z</time></trkpt><trkpt lat="43.979278884511395" lon="4.689620473009569"><ele>139.0</ele><time>2026-04-10T13:49:02Z</time></trkpt><trkpt lat="43.97940192437608" lon="4.689636778603078"><ele>139.2</ele><time>2026-04-10T13:49:03Z</time></trkpt><trkpt lat="43.97947641265518" lon="4.689620753702268"><ele>139.4</ele><time>2026-04-10T13:49:04Z</time></trkpt><trkpt lat="43.97953281391722" lon="4.689672331103119"><ele>139.6</ele><time>2026-04-10T13:49:05Z</time></trkpt><trkpt lat="43.97951617201154" lon="4.689868610727597"><ele>139.8</ele><time>2026-04-10T13:49:07Z</time></trkpt><trkpt lat="43.97951449266609" lon="4.6900289013117185"><ele>140.0</ele><time>2026-04-10T13:49:08Z</time></trkpt><trkpt lat="43.979510245489294" lon="4.690184244311569"><ele>140.0</ele><time>2026-04-10T13:49:09Z</time></trkpt><trkpt lat="43.97954034650061" lon="4.690309932449881"><ele>140.0</ele><time>2026-04-10T13:49:10Z</time></trkpt><trkpt lat="43.979571517812104" lon="4.690411246602913"><ele>140.0</ele><time>2026-04-10T13:49:11Z</time></trkpt><trkpt lat="43.97959163460787" lon="4.6905258182415634"><ele>140.0</ele><time>2026-04-10T13:49:13Z</time></trkpt><trkpt lat="43.97964313460128" lon="4.690711948114428"><ele>140.0</ele><time>2026-04-10T13:49:15Z</time></trkpt><trkpt lat="43.979670178743845" lon="4.690841227005565"><ele>140.0</ele><time>2026-04-10T13:49:16Z</time></trkpt><trkpt lat="43.979696447292284" lon="4.690971055766202"><ele>140.0</ele><time>2026-04-10T13:49:17Z</time></trkpt><trkpt lat="43.979726218393246" lon="4.691110734019731"><ele>140.0</ele><time>2026-04-10T13:49:18Z</time></trkpt><trkpt lat="43.97975841701696" lon="4.691246423087732"><ele>140.0</ele><time>2026-04-10T13:49:19Z</time></trkpt><trkpt lat="43.97978777450168" lon="4.691382531320998"><ele>140.0</ele><time>2026-04-10T13:49:20Z</time></trkpt><trkpt lat="43.9798121196852" lon="4.691501345987932"><ele>140.0</ele><time>2026-04-10T13:49:21Z</time></trkpt><trkpt lat="43.97984040784559" lon="4.691620731074773"><ele>140.0</ele><time>2026-04-10T13:49:22Z</time></trkpt><trkpt lat="43.979878621163515" lon="4.691733371658222"><ele>140.0</ele><time>2026-04-10T13:49:23Z</time></trkpt><trkpt lat="43.97993496066453" lon="4.6918233635754625"><ele>140.0</ele><time>2026-04-10T13:49:24Z</time></trkpt><trkpt lat="43.98000749176396" lon="4.691886264391021"><ele>140.0</ele><time>2026-04-10T13:49:25Z</time></trkpt><trkpt lat="43.98007180455912" lon="4.691943229175521"><ele>140.0</ele><time>2026-04-10T13:49:26Z</time></trkpt><trkpt lat="43.98013517678789" lon="4.69199405638591"><ele>139.33333333333331</ele><time>2026-04-10T13:49:27Z</time></trkpt><trkpt lat="43.980210167575414" lon="4.692000901906774"><ele>138.66666666666666</ele><time>2026-04-10T13:49:28Z</time></trkpt><trkpt lat="43.980275207189734" lon="4.691947522519549"><ele>138.0</ele><time>2026-04-10T13:49:29Z</time></trkpt><trkpt lat="43.98033051475142" lon="4.691872485149722"><ele>137.33333333333334</ele><time>2026-04-10T13:49:30Z</time></trkpt><trkpt lat="43.98043822668599" lon="4.691911459641315"><ele>136.66666666666669</ele><time>2026-04-10T13:49:32Z</time></trkpt><trkpt lat="43.98051923878236" lon="4.691944817572995"><ele>136.0</ele><time>2026-04-10T13:49:33Z</time></trkpt><trkpt lat="43.98061940330392" lon="4.691990634968073"><ele>134.66666666666669</ele><time>2026-04-10T13:49:35Z</time></trkpt><trkpt lat="43.98048837518146" lon="4.692152579056022"><ele>133.33333333333334</ele><time>2026-04-10T13:50:05Z</time></trkpt><trkpt lat="43.98049286993566" lon="4.69206401300277"><ele>132.0</ele><time>2026-04-10T13:50:11Z</time></trkpt><trkpt lat="43.98047010463765" lon="4.6921495338282"><ele>130.66666666666666</ele><time>2026-04-10T13:50:24Z</time></trkpt><trkpt lat="43.98040654118117" lon="4.692131935642255"><ele>129.33333333333331</ele><time>2026-04-10T13:51:17Z</time></trkpt><trkpt lat="43.98037703612945" lon="4.692210434779606"><ele>128.0</ele><time>2026-04-10T13:53:17Z</time></trkpt><trkpt lat="43.98040311753384" lon="4.692075471714806"><ele>127.99999999999999</ele><time>2026-04-10T13:54:16Z</time></trkpt><trkpt lat="43.98034193375952" lon="4.692130528728958"><ele>128.0</ele><time>2026-04-10T13:54:48Z</time></trkpt><trkpt lat="43.980361419126666" lon="4.69222365844111"><ele>128.0</ele><time>2026-04-10T13:55:38Z</time></trkpt><trkpt lat="43.98038701191632" lon="4.692119652599399"><ele>128.0</ele><time>2026-04-10T13:57:22Z</time></trkpt><trkpt lat="43.98038698937728" lon="4.692269500888312"><ele>127.99999999999999</ele><time>2026-04-10T13:58:29.376Z</time></trkpt><trkpt lat="43.98037188393142" lon="4.692395703387307"><ele>128.0</ele><time>2026-04-10T13:58:34.1Z</time></trkpt><trkpt lat="43.98033006080313" lon="4.692192779422083"><ele>128.0</ele><time>2026-04-10T13:58:59.426Z</time></trkpt><trkpt lat="43.98027566893032" lon="4.6921454759684185"><ele>128.0</ele><time>2026-04-10T13:59:27.026Z</time></trkpt><trkpt lat="43.98020971921696" lon="4.692143294557861"><ele>128.0</ele><time>2026-04-10T13:59:33Z</time></trkpt><trkpt lat="43.9803000392977" lon="4.692139743266011"><ele>128.0</ele><time>2026-04-10T13:59:38Z</time></trkpt><trkpt lat="43.98044356435909" lon="4.692147699058554"><ele>128.0</ele><time>2026-04-10T13:59:39Z</time></trkpt><trkpt lat="43.9805486531557" lon="4.692165097501443"><ele>128.0</ele><time>2026-04-10T13:59:45Z</time></trkpt><trkpt lat="43.98053688973387" lon="4.69207785286464"><ele>127.99999999999999</ele><time>2026-04-10T14:00:07Z</time></trkpt><trkpt lat="43.98054425858892" lon="4.692165639518582"><ele>128.0</ele><time>2026-04-10T14:02:29Z</time></trkpt><trkpt lat="43.980481960200116" lon="4.692149507282416"><ele>128.0</ele><time>2026-04-10T14:03:49Z</time></trkpt><trkpt lat="43.980431349101565" lon="4.6922074073591515"><ele>127.99999999999999</ele><time>2026-04-10T14:04:36Z</time></trkpt><trkpt lat="43.980502041508856" lon="4.692195800158626"><ele>128.0</ele><time>2026-04-10T14:06:19Z</time></trkpt><trkpt lat="43.980441860802884" lon="4.69214666954139"><ele>128.0</ele><time>2026-04-10T14:06:53Z</time></trkpt><trkpt lat="43.98051193474729" lon="4.692171981294567"><ele>128.0</ele><time>2026-04-10T14:07:16Z</time></trkpt><trkpt lat="43.98055549825476" lon="4.69224027034317"><ele>127.99999999999999</ele><time>2026-04-10T14:08:28Z</time></trkpt><trkpt lat="43.98057925033582" lon="4.6921456576773"><ele>128.0</ele><time>2026-04-10T14:08:40Z</time></trkpt><trkpt lat="43.98059979941058" lon="4.692041819925293"><ele>128.0</ele><time>2026-04-10T14:09:32Z</time></trkpt><trkpt lat="43.98058122271054" lon="4.692131681293094"><ele>127.99999999999999</ele><time>2026-04-10T14:09:42Z</time></trkpt><trkpt lat="43.98052680317204" lon="4.6921869488069845"><ele>128.0</ele><time>2026-04-10T14:09:58Z</time></trkpt><trkpt lat="43.98046571096108" lon="4.692155422293031"><ele>128.0</ele><time>2026-04-10T14:10:15Z</time></trkpt><trkpt lat="43.98040442954635" lon="4.692191632497599"><ele>128.0</ele><time>2026-04-10T14:10:37Z</time></trkpt></trkseg></trk></gpx>